﻿<?xml version="1.0" encoding="utf-8"?><gpx creator="Garmin Desktop App" version="1.1" xsi:schemaLocation="http://www.topografix.com/GPX/1/1 http://www.topografix.com/GPX/1/1/gpx.xsd http://www.garmin.com/xmlschemas/WaypointExtension/v1 http://www8.garmin.com/xmlschemas/WaypointExtensionv1.xsd http://www.garmin.com/xmlschemas/TrackPointExtension/v1 http://www.garmin.com/xmlschemas/TrackPointExtensionv1.xsd http://www.garmin.com/xmlschemas/GpxExtensions/v3 http://www8.garmin.com/xmlschemas/GpxExtensionsv3.xsd http://www.garmin.com/xmlschemas/ActivityExtension/v1 http://www8.garmin.com/xmlschemas/ActivityExtensionv1.xsd http://www.garmin.com/xmlschemas/AdventuresExtensions/v1 http://www8.garmin.com/xmlschemas/AdventuresExtensionv1.xsd http://www.garmin.com/xmlschemas/PressureExtension/v1 http://www.garmin.com/xmlschemas/PressureExtensionv1.xsd http://www.garmin.com/xmlschemas/TripExtensions/v1 http://www.garmin.com/xmlschemas/TripExtensionsv1.xsd http://www.garmin.com/xmlschemas/TripMetaDataExtensions/v1 http://www.garmin.com/xmlschemas/TripMetaDataExtensionsv1.xsd http://www.garmin.com/xmlschemas/ViaPointTransportationModeExtensions/v1 http://www.garmin.com/xmlschemas/ViaPointTransportationModeExtensionsv1.xsd http://www.garmin.com/xmlschemas/CreationTimeExtension/v1 http://www.garmin.com/xmlschemas/CreationTimeExtensionsv1.xsd http://www.garmin.com/xmlschemas/AccelerationExtension/v1 http://www.garmin.com/xmlschemas/AccelerationExtensionv1.xsd http://www.garmin.com/xmlschemas/PowerExtension/v1 http://www.garmin.com/xmlschemas/PowerExtensionv1.xsd http://www.garmin.com/xmlschemas/VideoExtension/v1 http://www.garmin.com/xmlschemas/VideoExtensionv1.xsd" xmlns="http://www.topografix.com/GPX/1/1" xmlns:xsi="http://www.w3.org/2001/XMLSchema-instance" xmlns:wptx1="http://www.garmin.com/xmlschemas/WaypointExtension/v1" xmlns:gpxtrx="http://www.garmin.com/xmlschemas/GpxExtensions/v3" xmlns:gpxtpx="http://www.garmin.com/xmlschemas/TrackPointExtension/v1" xmlns:gpxx="http://www.garmin.com/xmlschemas/GpxExtensions/v3" xmlns:trp="http://www.garmin.com/xmlschemas/TripExtensions/v1" xmlns:adv="http://www.garmin.com/xmlschemas/AdventuresExtensions/v1" xmlns:prs="http://www.garmin.com/xmlschemas/PressureExtension/v1" xmlns:tmd="http://www.garmin.com/xmlschemas/TripMetaDataExtensions/v1" xmlns:vptm="http://www.garmin.com/xmlschemas/ViaPointTransportationModeExtensions/v1" xmlns:ctx="http://www.garmin.com/xmlschemas/CreationTimeExtension/v1" xmlns:gpxacc="http://www.garmin.com/xmlschemas/AccelerationExtension/v1" xmlns:gpxpx="http://www.garmin.com/xmlschemas/PowerExtension/v1" xmlns:vidx1="http://www.garmin.com/xmlschemas/VideoExtension/v1">

  <metadata>
    <link href="http://www.garmin.com">
      <text>Garmin International</text>
    </link>
    <time>2017-06-25T19:37:16Z</time>
    <bounds maxlat="70.13774000108242" maxlon="23.228014977648854" minlat="69.13257597014308" minlon="16.123166000470519" />
  </metadata>

  <trk>
    <name>Track vom: 25 JUN 2017 07:59</name>
    <extensions>
      <gpxx:TrackExtension>
        <gpxx:DisplayColor>DarkGray</gpxx:DisplayColor>
      </gpxx:TrackExtension>
    </extensions>
    <trkseg>
      <trkpt lat="69.320322973653674" lon="16.123166000470519">
        <ele>-4.67</ele>
        <time>2017-06-25T05:59:18Z</time>
      </trkpt>
      <trkpt lat="69.320304030552506" lon="16.123315030708909">
        <ele>16.48</ele>
        <time>2017-06-25T06:00:26Z</time>
      </trkpt>
      <trkpt lat="69.320305036380887" lon="16.123313019052148">
        <ele>16.48</ele>
        <time>2017-06-25T06:00:41Z</time>
      </trkpt>
      <trkpt lat="69.320080988109112" lon="16.123202964663506">
        <ele>15.039999999999999</ele>
        <time>2017-06-25T06:00:50Z</time>
      </trkpt>
      <trkpt lat="69.320010999217629" lon="16.12336196936667">
        <ele>13.119999999999999</ele>
        <time>2017-06-25T06:00:56Z</time>
      </trkpt>
      <trkpt lat="69.320028014481068" lon="16.123336991295218">
        <ele>12.15</ele>
        <time>2017-06-25T06:00:58Z</time>
      </trkpt>
      <trkpt lat="69.320244016125798" lon="16.123613007366657">
        <ele>9.27</ele>
        <time>2017-06-25T06:01:05Z</time>
      </trkpt>
      <trkpt lat="69.320477033033967" lon="16.123867984861135">
        <ele>5.42</ele>
        <time>2017-06-25T06:01:12Z</time>
      </trkpt>
      <trkpt lat="69.320504022762179" lon="16.12392196431756">
        <ele>6.87</ele>
        <time>2017-06-25T06:01:13Z</time>
      </trkpt>
      <trkpt lat="69.320517014712095" lon="16.124012991786003">
        <ele>5.91</ele>
        <time>2017-06-25T06:01:14Z</time>
      </trkpt>
      <trkpt lat="69.320525983348489" lon="16.124128997325897">
        <ele>6.39</ele>
        <time>2017-06-25T06:01:15Z</time>
      </trkpt>
      <trkpt lat="69.320521960034966" lon="16.12426201812923">
        <ele>5.91</ele>
        <time>2017-06-25T06:01:16Z</time>
      </trkpt>
      <trkpt lat="69.320513997226954" lon="16.124411970376968">
        <ele>7.35</ele>
        <time>2017-06-25T06:01:17Z</time>
      </trkpt>
      <trkpt lat="69.320501005277038" lon="16.124561000615358">
        <ele>7.83</ele>
        <time>2017-06-25T06:01:18Z</time>
      </trkpt>
      <trkpt lat="69.320278968662024" lon="16.126924026757479">
        <ele>3.98</ele>
        <time>2017-06-25T06:01:30Z</time>
      </trkpt>
      <trkpt lat="69.320266982540488" lon="16.127383019775152">
        <ele>3.98</ele>
        <time>2017-06-25T06:01:32Z</time>
      </trkpt>
      <trkpt lat="69.320281986147165" lon="16.127606984227896">
        <ele>4.46</ele>
        <time>2017-06-25T06:01:33Z</time>
      </trkpt>
      <trkpt lat="69.320309981703758" lon="16.127827009186149">
        <ele>3.98</ele>
        <time>2017-06-25T06:01:34Z</time>
      </trkpt>
      <trkpt lat="69.32035599835217" lon="16.128032030537724">
        <ele>4.46</ele>
        <time>2017-06-25T06:01:35Z</time>
      </trkpt>
      <trkpt lat="69.320416012778878" lon="16.128212995827198">
        <ele>4.94</ele>
        <time>2017-06-25T06:01:36Z</time>
      </trkpt>
      <trkpt lat="69.320491030812263" lon="16.128354985266924">
        <ele>4.46</ele>
        <time>2017-06-25T06:01:37Z</time>
      </trkpt>
      <trkpt lat="69.320569988340139" lon="16.128456993028522">
        <ele>4.46</ele>
        <time>2017-06-25T06:01:38Z</time>
      </trkpt>
      <trkpt lat="69.320654980838299" lon="16.128522958606482">
        <ele>4.46</ele>
        <time>2017-06-25T06:01:39Z</time>
      </trkpt>
      <trkpt lat="69.320741984993219" lon="16.128569981083274">
        <ele>3.98</ele>
        <time>2017-06-25T06:01:40Z</time>
      </trkpt>
      <trkpt lat="69.321657959371805" lon="16.12942099571228">
        <ele>3.98</ele>
        <time>2017-06-25T06:01:51Z</time>
      </trkpt>
      <trkpt lat="69.321725014597178" lon="16.129589974880219">
        <ele>3.98</ele>
        <time>2017-06-25T06:01:52Z</time>
      </trkpt>
      <trkpt lat="69.321786034852266" lon="16.129777980968356">
        <ele>3.5</ele>
        <time>2017-06-25T06:01:53Z</time>
      </trkpt>
      <trkpt lat="69.321842025965452" lon="16.129980990663171">
        <ele>3.5</ele>
        <time>2017-06-25T06:01:54Z</time>
      </trkpt>
      <trkpt lat="69.321897011250257" lon="16.130201015621424">
        <ele>3.5</ele>
        <time>2017-06-25T06:01:55Z</time>
      </trkpt>
      <trkpt lat="69.321949984878302" lon="16.13043000921607">
        <ele>3.98</ele>
        <time>2017-06-25T06:01:56Z</time>
      </trkpt>
      <trkpt lat="69.3224180303514" lon="16.132532022893429">
        <ele>3.98</ele>
        <time>2017-06-25T06:02:05Z</time>
      </trkpt>
      <trkpt lat="69.322488019242883" lon="16.132690021768212">
        <ele>3.98</ele>
        <time>2017-06-25T06:02:06Z</time>
      </trkpt>
      <trkpt lat="69.322567982599139" lon="16.132798986509442">
        <ele>3.98</ele>
        <time>2017-06-25T06:02:07Z</time>
      </trkpt>
      <trkpt lat="69.322659010067582" lon="16.132869981229305">
        <ele>3.5</ele>
        <time>2017-06-25T06:02:08Z</time>
      </trkpt>
      <trkpt lat="69.322752971202135" lon="16.132912980392575">
        <ele>3.5</ele>
        <time>2017-06-25T06:02:09Z</time>
      </trkpt>
      <trkpt lat="69.322849027812481" lon="16.132935024797916">
        <ele>3.5</ele>
        <time>2017-06-25T06:02:10Z</time>
      </trkpt>
      <trkpt lat="69.322947012260556" lon="16.132919015362859">
        <ele>3.02</ele>
        <time>2017-06-25T06:02:11Z</time>
      </trkpt>
      <trkpt lat="69.32304298505187" lon="16.132891019806266">
        <ele>3.5</ele>
        <time>2017-06-25T06:02:12Z</time>
      </trkpt>
      <trkpt lat="69.324408983811736" lon="16.132644005119801">
        <ele>3.5</ele>
        <time>2017-06-25T06:02:27Z</time>
      </trkpt>
      <trkpt lat="69.324495987966657" lon="16.132560018450022">
        <ele>3.98</ele>
        <time>2017-06-25T06:02:28Z</time>
      </trkpt>
      <trkpt lat="69.324580980464816" lon="16.13244803622365">
        <ele>3.98</ele>
        <time>2017-06-25T06:02:29Z</time>
      </trkpt>
      <trkpt lat="69.325621007010341" lon="16.131458971649408">
        <ele>5.42</ele>
        <time>2017-06-25T06:02:41Z</time>
      </trkpt>
      <trkpt lat="69.3261359911412" lon="16.131695006042719">
        <ele>5.42</ele>
        <time>2017-06-25T06:02:48Z</time>
      </trkpt>
      <trkpt lat="69.326351992785931" lon="16.131997006013989">
        <ele>5.91</ele>
        <time>2017-06-25T06:02:58Z</time>
      </trkpt>
      <trkpt lat="69.326344029977918" lon="16.131991976872087">
        <ele>5.42</ele>
        <time>2017-06-25T06:03:38Z</time>
      </trkpt>
      <trkpt lat="69.326342018321157" lon="16.131974961608648">
        <ele>4.94</ele>
        <time>2017-06-25T06:03:58Z</time>
      </trkpt>
    </trkseg>
  </trk>

  <trk>
    <name>Track vom: 25 JUN 2017 09:50</name>
    <extensions>
      <gpxx:TrackExtension>
        <gpxx:DisplayColor>DarkGray</gpxx:DisplayColor>
      </gpxx:TrackExtension>
    </extensions>
    <trkseg>
      <trkpt lat="69.365719025954604" lon="16.727539021521807">
        <ele>7.83</ele>
        <time>2017-06-25T07:50:22Z</time>
      </trkpt>
      <trkpt lat="69.365789014846087" lon="16.728073032572865">
        <ele>3.98</ele>
        <time>2017-06-25T07:50:25Z</time>
      </trkpt>
      <trkpt lat="69.365994958207011" lon="16.729331994429231">
        <ele>-1.79</ele>
        <time>2017-06-25T07:50:33Z</time>
      </trkpt>
      <trkpt lat="69.366209032014012" lon="16.731040980666876">
        <ele>-2.75</ele>
        <time>2017-06-25T07:50:44Z</time>
      </trkpt>
      <trkpt lat="69.366292012855411" lon="16.731623020023108">
        <ele>-4.19</ele>
        <time>2017-06-25T07:50:48Z</time>
      </trkpt>
      <trkpt lat="69.366368958726525" lon="16.732262978330255">
        <ele>-5.63</ele>
        <time>2017-06-25T07:50:52Z</time>
      </trkpt>
      <trkpt lat="69.366637011989951" lon="16.734665986150503">
        <ele>2.54</ele>
        <time>2017-06-25T07:51:07Z</time>
      </trkpt>
      <trkpt lat="69.366652015596628" lon="16.734814010560513">
        <ele>3.02</ele>
        <time>2017-06-25T07:51:08Z</time>
      </trkpt>
      <trkpt lat="69.366716975346208" lon="16.735386997461319">
        <ele>8.310000000000001</ele>
        <time>2017-06-25T07:51:12Z</time>
      </trkpt>
      <trkpt lat="69.366842033341527" lon="16.736277993768454">
        <ele>13.6</ele>
        <time>2017-06-25T07:51:18Z</time>
      </trkpt>
      <trkpt lat="69.367091981694102" lon="16.73831102438271">
        <ele>14.08</ele>
        <time>2017-06-25T07:51:31Z</time>
      </trkpt>
      <trkpt lat="69.367112014442682" lon="16.738470029085875">
        <ele>14.08</ele>
        <time>2017-06-25T07:51:32Z</time>
      </trkpt>
      <trkpt lat="69.367178985849023" lon="16.739091966301203">
        <ele>13.119999999999999</ele>
        <time>2017-06-25T07:51:36Z</time>
      </trkpt>
      <trkpt lat="69.367281999439001" lon="16.739873997867107">
        <ele>14.08</ele>
        <time>2017-06-25T07:51:41Z</time>
      </trkpt>
      <trkpt lat="69.367453996092081" lon="16.741207977756858">
        <ele>14.08</ele>
        <time>2017-06-25T07:51:49Z</time>
      </trkpt>
      <trkpt lat="69.36758198775351" lon="16.742121018469334">
        <ele>14.56</ele>
        <time>2017-06-25T07:51:55Z</time>
      </trkpt>
      <trkpt lat="69.367639990523458" lon="16.742899026721716">
        <ele>14.08</ele>
        <time>2017-06-25T07:52:00Z</time>
      </trkpt>
      <trkpt lat="69.367883987724781" lon="16.74492803402245">
        <ele>9.27</ele>
        <time>2017-06-25T07:52:13Z</time>
      </trkpt>
      <trkpt lat="69.367955988273025" lon="16.745753986760974">
        <ele>5.42</ele>
        <time>2017-06-25T07:52:18Z</time>
      </trkpt>
      <trkpt lat="69.367993958294392" lon="16.746232006698847">
        <ele>5.42</ele>
        <time>2017-06-25T07:52:21Z</time>
      </trkpt>
      <trkpt lat="69.368077022954822" lon="16.747311009094119">
        <ele>7.35</ele>
        <time>2017-06-25T07:52:28Z</time>
      </trkpt>
      <trkpt lat="69.368115998804569" lon="16.748159006237984">
        <ele>3.98</ele>
        <time>2017-06-25T07:52:33Z</time>
      </trkpt>
      <trkpt lat="69.368129996582866" lon="16.749221999198198">
        <ele>2.54</ele>
        <time>2017-06-25T07:52:39Z</time>
      </trkpt>
    </trkseg>
  </trk>

  <trk>
    <name>Track vom: 25 JUN 2017 10:30</name>
    <extensions>
      <gpxx:TrackExtension>
        <gpxx:DisplayColor>DarkGray</gpxx:DisplayColor>
      </gpxx:TrackExtension>
    </extensions>
    <trkseg>
      <trkpt lat="69.363228008151054" lon="17.052821991965175">
        <ele>-50.329999999999998</ele>
        <time>2017-06-25T08:30:57Z</time>
      </trkpt>
      <trkpt lat="69.363265978172421" lon="17.052977979183197">
        <ele>-16.210000000000001</ele>
        <time>2017-06-25T08:30:58Z</time>
      </trkpt>
      <trkpt lat="69.36339296400547" lon="17.052719984203577">
        <ele>-17.170000000000002</ele>
        <time>2017-06-25T08:31:03Z</time>
      </trkpt>
      <trkpt lat="69.363328004255891" lon="17.052025040611625">
        <ele>-10.92</ele>
        <time>2017-06-25T08:31:14Z</time>
      </trkpt>
      <trkpt lat="69.363334961235523" lon="17.05199402756989">
        <ele>-7.07</ele>
        <time>2017-06-25T08:31:36Z</time>
      </trkpt>
      <trkpt lat="69.363337978720665" lon="17.052005007863045">
        <ele>-6.59</ele>
        <time>2017-06-25T08:33:37Z</time>
      </trkpt>
      <trkpt lat="69.363276036456227" lon="17.051988998427987">
        <ele>-5.63</ele>
        <time>2017-06-25T08:34:20Z</time>
      </trkpt>
      <trkpt lat="69.363074032589793" lon="17.052088994532824">
        <ele>-2.75</ele>
        <time>2017-06-25T08:34:25Z</time>
      </trkpt>
      <trkpt lat="69.3630460370332" lon="17.052214974537492">
        <ele>-2.27</ele>
        <time>2017-06-25T08:34:26Z</time>
      </trkpt>
      <trkpt lat="69.363019969314337" lon="17.052367022261024">
        <ele>-1.79</ele>
        <time>2017-06-25T08:34:27Z</time>
      </trkpt>
      <trkpt lat="69.362785024568439" lon="17.054627034813166">
        <ele>0.62</ele>
        <time>2017-06-25T08:34:37Z</time>
      </trkpt>
      <trkpt lat="69.362436002120376" lon="17.057858007028699">
        <ele>2.06</ele>
        <time>2017-06-25T08:34:48Z</time>
      </trkpt>
      <trkpt lat="69.362121010199189" lon="17.062361016869545">
        <ele>4.46</ele>
        <time>2017-06-25T08:35:01Z</time>
      </trkpt>
      <trkpt lat="69.361709961667657" lon="17.065816037356853">
        <ele>5.91</ele>
        <time>2017-06-25T08:35:12Z</time>
      </trkpt>
      <trkpt lat="69.361185003072023" lon="17.06956903450191">
        <ele>9.27</ele>
        <time>2017-06-25T08:35:24Z</time>
      </trkpt>
      <trkpt lat="69.360931031405926" lon="17.07277100533247">
        <ele>8.310000000000001</ele>
        <time>2017-06-25T08:35:34Z</time>
      </trkpt>
      <trkpt lat="69.360885014757514" lon="17.074796995148063">
        <ele>14.08</ele>
        <time>2017-06-25T08:35:42Z</time>
      </trkpt>
      <trkpt lat="69.360874034464359" lon="17.074933033436537">
        <ele>14.56</ele>
        <time>2017-06-25T08:35:49Z</time>
      </trkpt>
      <trkpt lat="69.36087897978723" lon="17.074905959889293">
        <ele>15.039999999999999</ele>
        <time>2017-06-25T08:37:28Z</time>
      </trkpt>
      <trkpt lat="69.36083497479558" lon="17.075256993994117">
        <ele>16</ele>
        <time>2017-06-25T08:37:56Z</time>
      </trkpt>
      <trkpt lat="69.360625008121133" lon="17.076877970248461">
        <ele>16.48</ele>
        <time>2017-06-25T08:38:03Z</time>
      </trkpt>
      <trkpt lat="69.360084962099791" lon="17.079139994457364">
        <ele>18.399999999999999</ele>
        <time>2017-06-25T08:38:11Z</time>
      </trkpt>
      <trkpt lat="69.358714018017054" lon="17.084483038634062">
        <ele>19.359999999999999</ele>
        <time>2017-06-25T08:38:27Z</time>
      </trkpt>
      <trkpt lat="69.357653958722949" lon="17.08927296102047">
        <ele>27.530000000000001</ele>
        <time>2017-06-25T08:38:40Z</time>
      </trkpt>
      <trkpt lat="69.356957003474236" lon="17.095361994579434">
        <ele>38.590000000000003</ele>
        <time>2017-06-25T08:38:53Z</time>
      </trkpt>
      <trkpt lat="69.356827000156045" lon="17.096802005544305">
        <ele>41.469999999999999</ele>
        <time>2017-06-25T08:38:56Z</time>
      </trkpt>
      <trkpt lat="69.356810990720987" lon="17.097265021875501">
        <ele>41.950000000000003</ele>
        <time>2017-06-25T08:38:57Z</time>
      </trkpt>
      <trkpt lat="69.356641005724669" lon="17.100648963823915">
        <ele>35.229999999999997</ele>
        <time>2017-06-25T08:39:04Z</time>
      </trkpt>
      <trkpt lat="69.356639999896288" lon="17.101159002631903">
        <ele>33.780000000000001</ele>
        <time>2017-06-25T08:39:05Z</time>
      </trkpt>
      <trkpt lat="69.356624996289611" lon="17.105999970808625">
        <ele>24.170000000000002</ele>
        <time>2017-06-25T08:39:14Z</time>
      </trkpt>
      <trkpt lat="69.356210008263588" lon="17.112717982381582">
        <ele>17.920000000000002</ele>
        <time>2017-06-25T08:39:27Z</time>
      </trkpt>
      <trkpt lat="69.355730982497334" lon="17.11956700310111">
        <ele>17.440000000000001</ele>
        <time>2017-06-25T08:39:41Z</time>
      </trkpt>
      <trkpt lat="69.355509029701352" lon="17.122594965621829">
        <ele>16</ele>
        <time>2017-06-25T08:39:49Z</time>
      </trkpt>
      <trkpt lat="69.355466030538082" lon="17.123058987781405">
        <ele>16</ele>
        <time>2017-06-25T08:39:55Z</time>
      </trkpt>
      <trkpt lat="69.35548497363925" lon="17.123140962794423">
        <ele>16</ele>
        <time>2017-06-25T08:40:31Z</time>
      </trkpt>
      <trkpt lat="69.355896022170782" lon="17.123660976067185">
        <ele>14.56</ele>
        <time>2017-06-25T08:40:37Z</time>
      </trkpt>
      <trkpt lat="69.357249028980732" lon="17.124940976500511">
        <ele>19.84</ele>
        <time>2017-06-25T08:40:49Z</time>
      </trkpt>
      <trkpt lat="69.358949968591332" lon="17.12654803879559">
        <ele>17.440000000000001</ele>
        <time>2017-06-25T08:41:01Z</time>
      </trkpt>
      <trkpt lat="69.368840027600527" lon="17.131196977570653">
        <ele>45.32</ele>
        <time>2017-06-25T08:41:54Z</time>
      </trkpt>
      <trkpt lat="69.37065202742815" lon="17.129991995170712">
        <ele>52.530000000000001</ele>
        <time>2017-06-25T08:42:03Z</time>
      </trkpt>
      <trkpt lat="69.373559039086103" lon="17.126740990206599">
        <ele>42.439999999999998</ele>
        <time>2017-06-25T08:42:17Z</time>
      </trkpt>
      <trkpt lat="69.375798013061285" lon="17.124227005988359">
        <ele>28.98</ele>
        <time>2017-06-25T08:42:27Z</time>
      </trkpt>
      <trkpt lat="69.379111966118217" lon="17.120548021048307">
        <ele>22.25</ele>
        <time>2017-06-25T08:42:42Z</time>
      </trkpt>
      <trkpt lat="69.382400019094348" lon="17.11694497615099">
        <ele>21.289999999999999</ele>
        <time>2017-06-25T08:42:58Z</time>
      </trkpt>
      <trkpt lat="69.38384598121047" lon="17.1164920181036">
        <ele>20.809999999999999</ele>
        <time>2017-06-25T08:43:05Z</time>
      </trkpt>
      <trkpt lat="69.385051969438791" lon="17.117501031607389">
        <ele>21.289999999999999</ele>
        <time>2017-06-25T08:43:11Z</time>
      </trkpt>
      <trkpt lat="69.38670102506876" lon="17.120391028001904">
        <ele>25.129999999999999</ele>
        <time>2017-06-25T08:43:21Z</time>
      </trkpt>
      <trkpt lat="69.389863014221191" lon="17.125901961699128">
        <ele>22.25</ele>
        <time>2017-06-25T08:43:40Z</time>
      </trkpt>
      <trkpt lat="69.391473010182381" lon="17.12745102122426">
        <ele>23.210000000000001</ele>
        <time>2017-06-25T08:43:49Z</time>
      </trkpt>
      <trkpt lat="69.394506001845002" lon="17.129348013550043">
        <ele>19.359999999999999</ele>
        <time>2017-06-25T08:44:05Z</time>
      </trkpt>
      <trkpt lat="69.396845977753401" lon="17.129938015714288">
        <ele>20.32</ele>
        <time>2017-06-25T08:44:17Z</time>
      </trkpt>
      <trkpt lat="69.399058967828751" lon="17.129823016002774">
        <ele>17.920000000000002</ele>
        <time>2017-06-25T08:44:28Z</time>
      </trkpt>
      <trkpt lat="69.402375016361475" lon="17.12964003905654">
        <ele>22.73</ele>
        <time>2017-06-25T08:44:45Z</time>
      </trkpt>
      <trkpt lat="69.403387969359756" lon="17.129784962162375">
        <ele>27.530000000000001</ele>
        <time>2017-06-25T08:44:51Z</time>
      </trkpt>
      <trkpt lat="69.403513027355075" lon="17.129914965480566">
        <ele>28.5</ele>
        <time>2017-06-25T08:44:52Z</time>
      </trkpt>
      <trkpt lat="69.40363297238946" lon="17.130089979618788">
        <ele>28.98</ele>
        <time>2017-06-25T08:44:53Z</time>
      </trkpt>
      <trkpt lat="69.403749983757734" lon="17.130299024283886">
        <ele>28.98</ele>
        <time>2017-06-25T08:44:54Z</time>
      </trkpt>
      <trkpt lat="69.403870012611151" lon="17.130532041192055">
        <ele>28.5</ele>
        <time>2017-06-25T08:44:55Z</time>
      </trkpt>
      <trkpt lat="69.405393004417419" lon="17.133902991190553">
        <ele>30.420000000000002</ele>
        <time>2017-06-25T08:45:07Z</time>
      </trkpt>
      <trkpt lat="69.406100017949939" lon="17.135693030431867">
        <ele>32.340000000000003</ele>
        <time>2017-06-25T08:45:13Z</time>
      </trkpt>
      <trkpt lat="69.406224992126226" lon="17.135887993499637">
        <ele>32.82</ele>
        <time>2017-06-25T08:45:14Z</time>
      </trkpt>
      <trkpt lat="69.406582983210683" lon="17.136376993730664">
        <ele>33.780000000000001</ele>
        <time>2017-06-25T08:45:17Z</time>
      </trkpt>
      <trkpt lat="69.406679039821029" lon="17.136589977890253">
        <ele>33.299999999999997</ele>
        <time>2017-06-25T08:45:18Z</time>
      </trkpt>
      <trkpt lat="69.406768977642059" lon="17.136853002011776">
        <ele>33.299999999999997</ele>
        <time>2017-06-25T08:45:19Z</time>
      </trkpt>
      <trkpt lat="69.406849024817348" lon="17.137162964791059">
        <ele>32.82</ele>
        <time>2017-06-25T08:45:20Z</time>
      </trkpt>
      <trkpt lat="69.406932005658746" lon="17.137494971975684">
        <ele>32.340000000000003</ele>
        <time>2017-06-25T08:45:21Z</time>
      </trkpt>
      <trkpt lat="69.407316986471415" lon="17.139275958761573">
        <ele>29.940000000000001</ele>
        <time>2017-06-25T08:45:26Z</time>
      </trkpt>
      <trkpt lat="69.407367026433349" lon="17.139669992029667">
        <ele>28.98</ele>
        <time>2017-06-25T08:45:27Z</time>
      </trkpt>
      <trkpt lat="69.407452018931508" lon="17.140525029972196">
        <ele>27.050000000000001</ele>
        <time>2017-06-25T08:45:29Z</time>
      </trkpt>
      <trkpt lat="69.407519996166229" lon="17.140947980806231">
        <ele>26.09</ele>
        <time>2017-06-25T08:45:30Z</time>
      </trkpt>
      <trkpt lat="69.407611023634672" lon="17.14132902212441">
        <ele>26.09</ele>
        <time>2017-06-25T08:45:31Z</time>
      </trkpt>
      <trkpt lat="69.407717976719141" lon="17.141662035137415">
        <ele>26.57</ele>
        <time>2017-06-25T08:45:32Z</time>
      </trkpt>
      <trkpt lat="69.407833982259035" lon="17.14195498265326">
        <ele>27.050000000000001</ele>
        <time>2017-06-25T08:45:33Z</time>
      </trkpt>
      <trkpt lat="69.407956022769213" lon="17.142224963754416">
        <ele>28.02</ele>
        <time>2017-06-25T08:45:34Z</time>
      </trkpt>
      <trkpt lat="69.409405002370477" lon="17.146061025559902">
        <ele>23.690000000000001</ele>
        <time>2017-06-25T08:45:46Z</time>
      </trkpt>
      <trkpt lat="69.410110004246235" lon="17.149241035804152">
        <ele>23.690000000000001</ele>
        <time>2017-06-25T08:45:54Z</time>
      </trkpt>
      <trkpt lat="69.410217041149735" lon="17.149576982483268">
        <ele>24.170000000000002</ele>
        <time>2017-06-25T08:45:55Z</time>
      </trkpt>
      <trkpt lat="69.410343021154404" lon="17.149856016039848">
        <ele>25.129999999999999</ele>
        <time>2017-06-25T08:45:56Z</time>
      </trkpt>
      <trkpt lat="69.410478975623846" lon="17.150086015462875">
        <ele>26.09</ele>
        <time>2017-06-25T08:45:57Z</time>
      </trkpt>
      <trkpt lat="69.410628005862236" lon="17.150269998237491">
        <ele>27.050000000000001</ele>
        <time>2017-06-25T08:45:58Z</time>
      </trkpt>
      <trkpt lat="69.4107870105654" lon="17.150401007384062">
        <ele>27.530000000000001</ele>
        <time>2017-06-25T08:45:59Z</time>
      </trkpt>
      <trkpt lat="69.410951966419816" lon="17.150463033467531">
        <ele>28.5</ele>
        <time>2017-06-25T08:46:00Z</time>
      </trkpt>
      <trkpt lat="69.411120023578405" lon="17.150468984618783">
        <ele>29.460000000000001</ele>
        <time>2017-06-25T08:46:01Z</time>
      </trkpt>
      <trkpt lat="69.411287996917963" lon="17.150426991283894">
        <ele>30.899999999999999</ele>
        <time>2017-06-25T08:46:02Z</time>
      </trkpt>
      <trkpt lat="69.411453036591411" lon="17.150353984907269">
        <ele>31.859999999999999</ele>
        <time>2017-06-25T08:46:03Z</time>
      </trkpt>
      <trkpt lat="69.411607012152672" lon="17.150308974087238">
        <ele>32.82</ele>
        <time>2017-06-25T08:46:04Z</time>
      </trkpt>
      <trkpt lat="69.411864001303911" lon="17.150363959372044">
        <ele>33.780000000000001</ele>
        <time>2017-06-25T08:46:06Z</time>
      </trkpt>
      <trkpt lat="69.411967014893889" lon="17.150462027639151">
        <ele>33.780000000000001</ele>
        <time>2017-06-25T08:46:07Z</time>
      </trkpt>
      <trkpt lat="69.41205401904881" lon="17.150608040392399">
        <ele>33.299999999999997</ele>
        <time>2017-06-25T08:46:08Z</time>
      </trkpt>
      <trkpt lat="69.412124007940292" lon="17.150793028995395">
        <ele>32.82</ele>
        <time>2017-06-25T08:46:09Z</time>
      </trkpt>
      <trkpt lat="69.412178993225098" lon="17.151023028418422">
        <ele>32.340000000000003</ele>
        <time>2017-06-25T08:46:10Z</time>
      </trkpt>
      <trkpt lat="69.412230039015412" lon="17.151277000084519">
        <ele>31.379999999999999</ele>
        <time>2017-06-25T08:46:11Z</time>
      </trkpt>
      <trkpt lat="69.412962030619383" lon="17.153752008453012">
        <ele>30.899999999999999</ele>
        <time>2017-06-25T08:46:20Z</time>
      </trkpt>
      <trkpt lat="69.413275010883808" lon="17.154789017513394">
        <ele>28.98</ele>
        <time>2017-06-25T08:46:24Z</time>
      </trkpt>
      <trkpt lat="69.413312980905175" lon="17.154986998066306">
        <ele>29.460000000000001</ele>
        <time>2017-06-25T08:46:25Z</time>
      </trkpt>
      <trkpt lat="69.413372995331883" lon="17.155437022447586">
        <ele>29.460000000000001</ele>
        <time>2017-06-25T08:46:32Z</time>
      </trkpt>
      <trkpt lat="69.41336503252387" lon="17.155483961105347">
        <ele>29.460000000000001</ele>
        <time>2017-06-25T08:46:35Z</time>
      </trkpt>
      <trkpt lat="69.413314992561936" lon="17.155750002712011">
        <ele>30.420000000000002</ele>
        <time>2017-06-25T08:46:47Z</time>
      </trkpt>
      <trkpt lat="69.413314992561936" lon="17.155753020197153">
        <ele>30.420000000000002</ele>
        <time>2017-06-25T08:48:35Z</time>
      </trkpt>
      <trkpt lat="69.413294959813356" lon="17.155813034623861">
        <ele>30.420000000000002</ele>
        <time>2017-06-25T08:48:36Z</time>
      </trkpt>
      <trkpt lat="69.413180965930223" lon="17.156323995441198">
        <ele>29.940000000000001</ele>
        <time>2017-06-25T08:48:39Z</time>
      </trkpt>
      <trkpt lat="69.413141990080476" lon="17.156597999855876">
        <ele>29.460000000000001</ele>
        <time>2017-06-25T08:48:40Z</time>
      </trkpt>
      <trkpt lat="69.412696994841099" lon="17.159596038982272">
        <ele>21.289999999999999</ele>
        <time>2017-06-25T08:48:49Z</time>
      </trkpt>
      <trkpt lat="69.412629017606378" lon="17.160289976745844">
        <ele>20.809999999999999</ele>
        <time>2017-06-25T08:48:51Z</time>
      </trkpt>
      <trkpt lat="69.41261300817132" lon="17.16062500141561">
        <ele>20.809999999999999</ele>
        <time>2017-06-25T08:48:52Z</time>
      </trkpt>
      <trkpt lat="69.412618037313223" lon="17.1609450224787">
        <ele>20.32</ele>
        <time>2017-06-25T08:48:53Z</time>
      </trkpt>
      <trkpt lat="69.412643015384674" lon="17.161252973601222">
        <ele>20.32</ele>
        <time>2017-06-25T08:48:54Z</time>
      </trkpt>
      <trkpt lat="69.412687020376325" lon="17.161541981622577">
        <ele>19.84</ele>
        <time>2017-06-25T08:48:55Z</time>
      </trkpt>
      <trkpt lat="69.412756003439426" lon="17.161796037107706">
        <ele>20.32</ele>
        <time>2017-06-25T08:48:56Z</time>
      </trkpt>
      <trkpt lat="69.412838984280825" lon="17.16202100738883">
        <ele>20.809999999999999</ele>
        <time>2017-06-25T08:48:57Z</time>
      </trkpt>
      <trkpt lat="69.412929005920887" lon="17.162225022912025">
        <ele>21.289999999999999</ele>
        <time>2017-06-25T08:48:58Z</time>
      </trkpt>
      <trkpt lat="69.413017015904188" lon="17.16240699402988">
        <ele>21.77</ele>
        <time>2017-06-25T08:48:59Z</time>
      </trkpt>
      <trkpt lat="69.413289008662105" lon="17.163054998964071">
        <ele>23.690000000000001</ele>
        <time>2017-06-25T08:49:03Z</time>
      </trkpt>
      <trkpt lat="69.413329996168613" lon="17.163261026144028">
        <ele>23.210000000000001</ele>
        <time>2017-06-25T08:49:04Z</time>
      </trkpt>
      <trkpt lat="69.413353968411684" lon="17.163509968668222">
        <ele>23.210000000000001</ele>
        <time>2017-06-25T08:49:05Z</time>
      </trkpt>
      <trkpt lat="69.413362015038729" lon="17.163790008053184">
        <ele>22.25</ele>
        <time>2017-06-25T08:49:06Z</time>
      </trkpt>
      <trkpt lat="69.413357991725206" lon="17.164094019681215">
        <ele>21.289999999999999</ele>
        <time>2017-06-25T08:49:07Z</time>
      </trkpt>
      <trkpt lat="69.413427980616689" lon="17.166774971410632">
        <ele>16.960000000000001</ele>
        <time>2017-06-25T08:49:16Z</time>
      </trkpt>
      <trkpt lat="69.413458993658423" lon="17.167244022712111">
        <ele>16.960000000000001</ele>
        <time>2017-06-25T08:49:18Z</time>
      </trkpt>
      <trkpt lat="69.413483971729875" lon="17.167446026578546">
        <ele>16.960000000000001</ele>
        <time>2017-06-25T08:49:19Z</time>
      </trkpt>
      <trkpt lat="69.413520013913512" lon="17.167620034888387">
        <ele>16.960000000000001</ele>
        <time>2017-06-25T08:49:20Z</time>
      </trkpt>
      <trkpt lat="69.413573993369937" lon="17.167761018499732">
        <ele>16.960000000000001</ele>
        <time>2017-06-25T08:49:21Z</time>
      </trkpt>
      <trkpt lat="69.413640964776278" lon="17.167857997119427">
        <ele>17.440000000000001</ele>
        <time>2017-06-25T08:49:22Z</time>
      </trkpt>
      <trkpt lat="69.413714976981282" lon="17.167904013767838">
        <ele>17.920000000000002</ele>
        <time>2017-06-25T08:49:23Z</time>
      </trkpt>
      <trkpt lat="69.413798041641712" lon="17.167904013767838">
        <ele>17.920000000000002</ele>
        <time>2017-06-25T08:49:24Z</time>
      </trkpt>
      <trkpt lat="69.413887979462743" lon="17.167869983240962">
        <ele>18.399999999999999</ele>
        <time>2017-06-25T08:49:25Z</time>
      </trkpt>
      <trkpt lat="69.413978001102805" lon="17.167816003784537">
        <ele>18.399999999999999</ele>
        <time>2017-06-25T08:49:26Z</time>
      </trkpt>
      <trkpt lat="69.414484016597271" lon="17.167490031570196">
        <ele>22.25</ele>
        <time>2017-06-25T08:49:31Z</time>
      </trkpt>
      <trkpt lat="69.41458904184401" lon="17.167491959407926">
        <ele>22.73</ele>
        <time>2017-06-25T08:49:32Z</time>
      </trkpt>
      <trkpt lat="69.414688032120466" lon="17.167559014633298">
        <ele>23.210000000000001</ele>
        <time>2017-06-25T08:49:33Z</time>
      </trkpt>
      <trkpt lat="69.414780987426639" lon="17.167687006294727">
        <ele>23.690000000000001</ele>
        <time>2017-06-25T08:49:34Z</time>
      </trkpt>
      <trkpt lat="69.414858017116785" lon="17.167853973805904">
        <ele>24.649999999999999</ele>
        <time>2017-06-25T08:49:35Z</time>
      </trkpt>
      <trkpt lat="69.414922976866364" lon="17.168075004592538">
        <ele>24.649999999999999</ele>
        <time>2017-06-25T08:49:36Z</time>
      </trkpt>
      <trkpt lat="69.41497603431344" lon="17.1683360170573">
        <ele>25.609999999999999</ele>
        <time>2017-06-25T08:49:37Z</time>
      </trkpt>
      <trkpt lat="69.415017021819949" lon="17.168632987886667">
        <ele>25.609999999999999</ele>
        <time>2017-06-25T08:49:38Z</time>
      </trkpt>
      <trkpt lat="69.415036970749497" lon="17.168936999514699">
        <ele>26.09</ele>
        <time>2017-06-25T08:49:39Z</time>
      </trkpt>
      <trkpt lat="69.415037976577878" lon="17.169257020577788">
        <ele>27.050000000000001</ele>
        <time>2017-06-25T08:49:40Z</time>
      </trkpt>
      <trkpt lat="69.415023978799582" lon="17.169591961428523">
        <ele>27.050000000000001</ele>
        <time>2017-06-25T08:49:41Z</time>
      </trkpt>
      <trkpt lat="69.415002018213272" lon="17.169925980269909">
        <ele>28.02</ele>
        <time>2017-06-25T08:49:42Z</time>
      </trkpt>
      <trkpt lat="69.414769001305103" lon="17.174044009298086">
        <ele>25.129999999999999</ele>
        <time>2017-06-25T08:49:53Z</time>
      </trkpt>
      <trkpt lat="69.414769001305103" lon="17.174792010337114">
        <ele>27.050000000000001</ele>
        <time>2017-06-25T08:49:55Z</time>
      </trkpt>
      <trkpt lat="69.414750980213284" lon="17.175131980329752">
        <ele>28.02</ele>
        <time>2017-06-25T08:49:56Z</time>
      </trkpt>
      <trkpt lat="69.414715021848679" lon="17.175445966422558">
        <ele>28.98</ele>
        <time>2017-06-25T08:49:57Z</time>
      </trkpt>
      <trkpt lat="69.414662970229983" lon="17.17574997805059">
        <ele>29.460000000000001</ele>
        <time>2017-06-25T08:49:58Z</time>
      </trkpt>
      <trkpt lat="69.41459197551012" lon="17.176044015213847">
        <ele>28.98</ele>
        <time>2017-06-25T08:49:59Z</time>
      </trkpt>
      <trkpt lat="69.414503965526819" lon="17.176331011578441">
        <ele>29.460000000000001</ele>
        <time>2017-06-25T08:50:00Z</time>
      </trkpt>
      <trkpt lat="69.414412016049027" lon="17.176609961315989">
        <ele>29.940000000000001</ele>
        <time>2017-06-25T08:50:01Z</time>
      </trkpt>
      <trkpt lat="69.413393028080463" lon="17.179327039048076">
        <ele>22.25</ele>
        <time>2017-06-25T08:50:11Z</time>
      </trkpt>
      <trkpt lat="69.413285991176963" lon="17.179502975195646">
        <ele>21.289999999999999</ele>
        <time>2017-06-25T08:50:12Z</time>
      </trkpt>
      <trkpt lat="69.413175014778972" lon="17.179649993777275">
        <ele>20.32</ele>
        <time>2017-06-25T08:50:13Z</time>
      </trkpt>
      <trkpt lat="69.413060015067458" lon="17.179757030680776">
        <ele>19.359999999999999</ele>
        <time>2017-06-25T08:50:14Z</time>
      </trkpt>
      <trkpt lat="69.412947027012706" lon="17.179847974330187">
        <ele>18.399999999999999</ele>
        <time>2017-06-25T08:50:15Z</time>
      </trkpt>
      <trkpt lat="69.412396000698209" lon="17.18032700009644">
        <ele>14.08</ele>
        <time>2017-06-25T08:50:20Z</time>
      </trkpt>
      <trkpt lat="69.41229198127985" lon="17.18047795817256">
        <ele>13.6</ele>
        <time>2017-06-25T08:50:21Z</time>
      </trkpt>
      <trkpt lat="69.412191985175014" lon="17.18066998757422">
        <ele>13.119999999999999</ele>
        <time>2017-06-25T08:50:22Z</time>
      </trkpt>
      <trkpt lat="69.410796985030174" lon="17.183984024450183">
        <ele>12.15</ele>
        <time>2017-06-25T08:50:35Z</time>
      </trkpt>
      <trkpt lat="69.410715010017157" lon="17.184315025806427">
        <ele>12.15</ele>
        <time>2017-06-25T08:50:36Z</time>
      </trkpt>
      <trkpt lat="69.410306978970766" lon="17.186409998685122">
        <ele>12.630000000000001</ele>
        <time>2017-06-25T08:50:42Z</time>
      </trkpt>
      <trkpt lat="69.410279989242554" lon="17.186788022518158">
        <ele>12.630000000000001</ele>
        <time>2017-06-25T08:50:43Z</time>
      </trkpt>
      <trkpt lat="69.410263979807496" lon="17.18718096613884">
        <ele>12.630000000000001</ele>
        <time>2017-06-25T08:50:44Z</time>
      </trkpt>
      <trkpt lat="69.410216035321355" lon="17.189587997272611">
        <ele>14.08</ele>
        <time>2017-06-25T08:50:50Z</time>
      </trkpt>
      <trkpt lat="69.410233972594142" lon="17.189928973093629">
        <ele>14.08</ele>
        <time>2017-06-25T08:50:51Z</time>
      </trkpt>
      <trkpt lat="69.410272026434541" lon="17.190248994156718">
        <ele>14.08</ele>
        <time>2017-06-25T08:50:52Z</time>
      </trkpt>
      <trkpt lat="69.410331035032868" lon="17.190547976642847">
        <ele>14.08</ele>
        <time>2017-06-25T08:50:53Z</time>
      </trkpt>
      <trkpt lat="69.410413010045886" lon="17.190813012421131">
        <ele>14.56</ele>
        <time>2017-06-25T08:50:54Z</time>
      </trkpt>
      <trkpt lat="69.4105089828372" lon="17.191050974652171">
        <ele>14.56</ele>
        <time>2017-06-25T08:50:55Z</time>
      </trkpt>
      <trkpt lat="69.410607973113656" lon="17.191278962418437">
        <ele>15.039999999999999</ele>
        <time>2017-06-25T08:50:56Z</time>
      </trkpt>
      <trkpt lat="69.410876026377082" lon="17.191956974565983">
        <ele>16</ele>
        <time>2017-06-25T08:50:59Z</time>
      </trkpt>
      <trkpt lat="69.410944003611803" lon="17.192198960110545">
        <ele>16</ele>
        <time>2017-06-25T08:51:00Z</time>
      </trkpt>
      <trkpt lat="69.410993959754705" lon="17.192469025030732">
        <ele>16</ele>
        <time>2017-06-25T08:51:01Z</time>
      </trkpt>
      <trkpt lat="69.411031007766724" lon="17.192754009738564">
        <ele>16.48</ele>
        <time>2017-06-25T08:51:02Z</time>
      </trkpt>
      <trkpt lat="69.411049028858542" lon="17.193060033023357">
        <ele>16.48</ele>
        <time>2017-06-25T08:51:03Z</time>
      </trkpt>
      <trkpt lat="69.41104399971664" lon="17.193384999409318">
        <ele>16.48</ele>
        <time>2017-06-25T08:51:04Z</time>
      </trkpt>
      <trkpt lat="69.411022961139679" lon="17.193720024079084">
        <ele>16.48</ele>
        <time>2017-06-25T08:51:05Z</time>
      </trkpt>
      <trkpt lat="69.410988008603454" lon="17.19405303709209">
        <ele>16.960000000000001</ele>
        <time>2017-06-25T08:51:06Z</time>
      </trkpt>
      <trkpt lat="69.410934029147029" lon="17.194374985992908">
        <ele>16.960000000000001</ele>
        <time>2017-06-25T08:51:07Z</time>
      </trkpt>
      <trkpt lat="69.410874014720321" lon="17.194692995399237">
        <ele>17.440000000000001</ele>
        <time>2017-06-25T08:51:08Z</time>
      </trkpt>
      <trkpt lat="69.410802014172077" lon="17.195005975663662">
        <ele>17.920000000000002</ele>
        <time>2017-06-25T08:51:09Z</time>
      </trkpt>
      <trkpt lat="69.410530021414161" lon="17.196315983310342">
        <ele>17.920000000000002</ele>
        <time>2017-06-25T08:51:13Z</time>
      </trkpt>
      <trkpt lat="69.410487022250891" lon="17.196677997708321">
        <ele>17.440000000000001</ele>
        <time>2017-06-25T08:51:14Z</time>
      </trkpt>
      <trkpt lat="69.410469001159072" lon="17.197046969085932">
        <ele>16.960000000000001</ele>
        <time>2017-06-25T08:51:15Z</time>
      </trkpt>
      <trkpt lat="69.410471012815833" lon="17.197436979040504">
        <ele>16.960000000000001</ele>
        <time>2017-06-25T08:51:16Z</time>
      </trkpt>
      <trkpt lat="69.410493979230523" lon="17.197816008701921">
        <ele>16.960000000000001</ele>
        <time>2017-06-25T08:51:17Z</time>
      </trkpt>
      <trkpt lat="69.410542007535696" lon="17.198182968422771">
        <ele>17.440000000000001</ele>
        <time>2017-06-25T08:51:18Z</time>
      </trkpt>
      <trkpt lat="69.410609984770417" lon="17.198522016406059">
        <ele>18.399999999999999</ele>
        <time>2017-06-25T08:51:19Z</time>
      </trkpt>
      <trkpt lat="69.410697994753718" lon="17.198812030255795">
        <ele>19.359999999999999</ele>
        <time>2017-06-25T08:51:20Z</time>
      </trkpt>
      <trkpt lat="69.410793967545033" lon="17.199066001921892">
        <ele>20.809999999999999</ele>
        <time>2017-06-25T08:51:21Z</time>
      </trkpt>
      <trkpt lat="69.410898992791772" lon="17.199305975809693">
        <ele>21.77</ele>
        <time>2017-06-25T08:51:22Z</time>
      </trkpt>
      <trkpt lat="69.411084987223148" lon="17.199826994910836">
        <ele>24.170000000000002</ele>
        <time>2017-06-25T08:51:24Z</time>
      </trkpt>
      <trkpt lat="69.411166040226817" lon="17.200127989053726">
        <ele>24.170000000000002</ele>
        <time>2017-06-25T08:51:25Z</time>
      </trkpt>
      <trkpt lat="69.411234017461538" lon="17.200451027601957">
        <ele>23.690000000000001</ele>
        <time>2017-06-25T08:51:26Z</time>
      </trkpt>
      <trkpt lat="69.411283973604441" lon="17.200797032564878">
        <ele>22.73</ele>
        <time>2017-06-25T08:51:27Z</time>
      </trkpt>
      <trkpt lat="69.411318004131317" lon="17.201159968972206">
        <ele>21.77</ele>
        <time>2017-06-25T08:51:28Z</time>
      </trkpt>
      <trkpt lat="69.411339964717627" lon="17.201551990583539">
        <ele>20.32</ele>
        <time>2017-06-25T08:51:29Z</time>
      </trkpt>
      <trkpt lat="69.411359997466207" lon="17.201971001923084">
        <ele>19.359999999999999</ele>
        <time>2017-06-25T08:51:30Z</time>
      </trkpt>
      <trkpt lat="69.411419006064534" lon="17.202856969088316">
        <ele>16.960000000000001</ele>
        <time>2017-06-25T08:51:32Z</time>
      </trkpt>
      <trkpt lat="69.411477008834481" lon="17.203299030661583">
        <ele>16.48</ele>
        <time>2017-06-25T08:51:33Z</time>
      </trkpt>
      <trkpt lat="69.411554038524628" lon="17.203718964010477">
        <ele>16</ele>
        <time>2017-06-25T08:51:34Z</time>
      </trkpt>
      <trkpt lat="69.411643976345658" lon="17.204104028642178">
        <ele>15.52</ele>
        <time>2017-06-25T08:51:35Z</time>
      </trkpt>
      <trkpt lat="69.411750007420778" lon="17.204460008069873">
        <ele>14.56</ele>
        <time>2017-06-25T08:51:36Z</time>
      </trkpt>
      <trkpt lat="69.411859977990389" lon="17.204805007204413">
        <ele>14.08</ele>
        <time>2017-06-25T08:51:37Z</time>
      </trkpt>
      <trkpt lat="69.412924982607365" lon="17.207073988392949">
        <ele>15.039999999999999</ele>
        <time>2017-06-25T08:51:45Z</time>
      </trkpt>
      <trkpt lat="69.413329996168613" lon="17.207682011649013">
        <ele>18.399999999999999</ele>
        <time>2017-06-25T08:51:48Z</time>
      </trkpt>
      <trkpt lat="69.413447007536888" lon="17.207941012457013">
        <ele>19.359999999999999</ele>
        <time>2017-06-25T08:51:49Z</time>
      </trkpt>
      <trkpt lat="69.413553960621357" lon="17.208242006599903">
        <ele>20.32</ele>
        <time>2017-06-25T08:51:50Z</time>
      </trkpt>
      <trkpt lat="69.414002979174256" lon="17.209943030029535">
        <ele>25.609999999999999</ele>
        <time>2017-06-25T08:51:55Z</time>
      </trkpt>
      <trkpt lat="69.414063999429345" lon="17.21031803637743">
        <ele>26.57</ele>
        <time>2017-06-25T08:51:56Z</time>
      </trkpt>
      <trkpt lat="69.414112027734518" lon="17.210715003311634">
        <ele>27.530000000000001</ele>
        <time>2017-06-25T08:51:57Z</time>
      </trkpt>
      <trkpt lat="69.414254017174244" lon="17.211868017911911">
        <ele>30.420000000000002</ele>
        <time>2017-06-25T08:52:00Z</time>
      </trkpt>
      <trkpt lat="69.414319982752204" lon="17.212216034531593">
        <ele>30.899999999999999</ele>
        <time>2017-06-25T08:52:01Z</time>
      </trkpt>
      <trkpt lat="69.414400029927492" lon="17.212542006745934">
        <ele>30.420000000000002</ele>
        <time>2017-06-25T08:52:02Z</time>
      </trkpt>
      <trkpt lat="69.414491979405284" lon="17.212852975353599">
        <ele>30.420000000000002</ele>
        <time>2017-06-25T08:52:03Z</time>
      </trkpt>
      <trkpt lat="69.414586024358869" lon="17.21315598115325">
        <ele>29.940000000000001</ele>
        <time>2017-06-25T08:52:04Z</time>
      </trkpt>
      <trkpt lat="69.415172003209591" lon="17.215699972584844">
        <ele>31.379999999999999</ele>
        <time>2017-06-25T08:52:13Z</time>
      </trkpt>
      <trkpt lat="69.415218019858003" lon="17.216753996908665">
        <ele>28.98</ele>
        <time>2017-06-25T08:52:16Z</time>
      </trkpt>
      <trkpt lat="69.415207039564848" lon="17.217126991599798">
        <ele>28.02</ele>
        <time>2017-06-25T08:52:17Z</time>
      </trkpt>
      <trkpt lat="69.415184995159507" lon="17.217492023482919">
        <ele>27.050000000000001</ele>
        <time>2017-06-25T08:52:18Z</time>
      </trkpt>
      <trkpt lat="69.41514995880425" lon="17.21783802844584">
        <ele>26.57</ele>
        <time>2017-06-25T08:52:19Z</time>
      </trkpt>
      <trkpt lat="69.41510503180325" lon="17.218156037852168">
        <ele>27.050000000000001</ele>
        <time>2017-06-25T08:52:20Z</time>
      </trkpt>
      <trkpt lat="69.415057003498077" lon="17.218456026166677">
        <ele>26.57</ele>
        <time>2017-06-25T08:52:21Z</time>
      </trkpt>
      <trkpt lat="69.414229039102793" lon="17.22228798083961">
        <ele>18.879999999999999</ele>
        <time>2017-06-25T08:52:34Z</time>
      </trkpt>
      <trkpt lat="69.413068983703852" lon="17.226624023169279">
        <ele>11.19</ele>
        <time>2017-06-25T08:52:46Z</time>
      </trkpt>
      <trkpt lat="69.412788022309542" lon="17.228831984102726">
        <ele>11.19</ele>
        <time>2017-06-25T08:52:51Z</time>
      </trkpt>
      <trkpt lat="69.412775030359626" lon="17.229293994605541">
        <ele>11.19</ele>
        <time>2017-06-25T08:52:52Z</time>
      </trkpt>
      <trkpt lat="69.412782993167639" lon="17.229758016765118">
        <ele>11.67</ele>
        <time>2017-06-25T08:52:53Z</time>
      </trkpt>
      <trkpt lat="69.412799002602696" lon="17.230222960934043">
        <ele>12.15</ele>
        <time>2017-06-25T08:52:54Z</time>
      </trkpt>
      <trkpt lat="69.412829009816051" lon="17.230695029720664">
        <ele>12.630000000000001</ele>
        <time>2017-06-25T08:52:55Z</time>
      </trkpt>
      <trkpt lat="69.413379030302167" lon="17.236876012757421">
        <ele>23.210000000000001</ele>
        <time>2017-06-25T08:53:08Z</time>
      </trkpt>
      <trkpt lat="69.413389004766941" lon="17.237330982461572">
        <ele>23.690000000000001</ele>
        <time>2017-06-25T08:53:09Z</time>
      </trkpt>
      <trkpt lat="69.413379030302167" lon="17.237786035984755">
        <ele>23.210000000000001</ele>
        <time>2017-06-25T08:53:10Z</time>
      </trkpt>
      <trkpt lat="69.413352040573955" lon="17.238230025395751">
        <ele>22.25</ele>
        <time>2017-06-25T08:53:11Z</time>
      </trkpt>
      <trkpt lat="69.413308035582304" lon="17.238664962351322">
        <ele>21.289999999999999</ele>
        <time>2017-06-25T08:53:12Z</time>
      </trkpt>
      <trkpt lat="69.413245003670454" lon="17.239090008661151">
        <ele>20.32</ele>
        <time>2017-06-25T08:53:13Z</time>
      </trkpt>
      <trkpt lat="69.413165040314198" lon="17.23951798863709">
        <ele>18.879999999999999</ele>
        <time>2017-06-25T08:53:14Z</time>
      </trkpt>
      <trkpt lat="69.413078958168626" lon="17.239938005805016">
        <ele>17.440000000000001</ele>
        <time>2017-06-25T08:53:15Z</time>
      </trkpt>
      <trkpt lat="69.411695022135973" lon="17.246534982696176">
        <ele>10.23</ele>
        <time>2017-06-25T08:53:30Z</time>
      </trkpt>
      <trkpt lat="69.411629978567362" lon="17.246975032612681">
        <ele>9.75</ele>
        <time>2017-06-25T08:53:31Z</time>
      </trkpt>
      <trkpt lat="69.411589996889234" lon="17.247419022023678">
        <ele>9.27</ele>
        <time>2017-06-25T08:53:32Z</time>
      </trkpt>
      <trkpt lat="69.411577004939318" lon="17.24787499755621">
        <ele>8.789999999999999</ele>
        <time>2017-06-25T08:53:33Z</time>
      </trkpt>
      <trkpt lat="69.411586979404092" lon="17.248324016109109">
        <ele>8.789999999999999</ele>
        <time>2017-06-25T08:53:34Z</time>
      </trkpt>
      <trkpt lat="69.411625033244491" lon="17.248763982206583">
        <ele>8.789999999999999</ele>
        <time>2017-06-25T08:53:35Z</time>
      </trkpt>
      <trkpt lat="69.411679012700915" lon="17.249188022688031">
        <ele>8.789999999999999</ele>
        <time>2017-06-25T08:53:36Z</time>
      </trkpt>
      <trkpt lat="69.411747995764017" lon="17.249614996835589">
        <ele>8.789999999999999</ele>
        <time>2017-06-25T08:53:37Z</time>
      </trkpt>
      <trkpt lat="69.412803025916219" lon="17.255910979583859">
        <ele>10.710000000000001</ele>
        <time>2017-06-25T08:53:51Z</time>
      </trkpt>
      <trkpt lat="69.412835966795683" lon="17.256355974823236">
        <ele>11.19</ele>
        <time>2017-06-25T08:53:52Z</time>
      </trkpt>
      <trkpt lat="69.412853987887502" lon="17.256807005032897">
        <ele>11.67</ele>
        <time>2017-06-25T08:53:53Z</time>
      </trkpt>
      <trkpt lat="69.412862034514546" lon="17.257255017757416">
        <ele>11.67</ele>
        <time>2017-06-25T08:53:54Z</time>
      </trkpt>
      <trkpt lat="69.412860022857785" lon="17.25771501660347">
        <ele>12.15</ele>
        <time>2017-06-25T08:53:55Z</time>
      </trkpt>
      <trkpt lat="69.412845019251108" lon="17.258169986307621">
        <ele>12.630000000000001</ele>
        <time>2017-06-25T08:53:56Z</time>
      </trkpt>
      <trkpt lat="69.412815012037754" lon="17.258610036224127">
        <ele>13.119999999999999</ele>
        <time>2017-06-25T08:53:57Z</time>
      </trkpt>
      <trkpt lat="69.412768995389342" lon="17.259044973179698">
        <ele>13.6</ele>
        <time>2017-06-25T08:53:58Z</time>
      </trkpt>
      <trkpt lat="69.412705963477492" lon="17.259463984519243">
        <ele>14.56</ele>
        <time>2017-06-25T08:53:59Z</time>
      </trkpt>
      <trkpt lat="69.412628011777997" lon="17.259868998080492">
        <ele>15.039999999999999</ele>
        <time>2017-06-25T08:54:00Z</time>
      </trkpt>
      <trkpt lat="69.412536984309554" lon="17.260254984721541">
        <ele>15.039999999999999</ele>
        <time>2017-06-25T08:54:01Z</time>
      </trkpt>
      <trkpt lat="69.412432964891195" lon="17.260619010776281">
        <ele>14.56</ele>
        <time>2017-06-25T08:54:02Z</time>
      </trkpt>
      <trkpt lat="69.412316959351301" lon="17.260965015739202">
        <ele>14.56</ele>
        <time>2017-06-25T08:54:03Z</time>
      </trkpt>
      <trkpt lat="69.412186034023762" lon="17.261290987953544">
        <ele>14.08</ele>
        <time>2017-06-25T08:54:04Z</time>
      </trkpt>
      <trkpt lat="69.412039015442133" lon="17.26158200763166">
        <ele>13.6</ele>
        <time>2017-06-25T08:54:05Z</time>
      </trkpt>
      <trkpt lat="69.411889985203743" lon="17.261872021481395">
        <ele>13.119999999999999</ele>
        <time>2017-06-25T08:54:06Z</time>
      </trkpt>
      <trkpt lat="69.409451019018888" lon="17.266212003305554">
        <ele>14.08</ele>
        <time>2017-06-25T08:54:22Z</time>
      </trkpt>
      <trkpt lat="69.408376039937139" lon="17.268973002210259">
        <ele>17.440000000000001</ele>
        <time>2017-06-25T08:54:30Z</time>
      </trkpt>
      <trkpt lat="69.406938962638378" lon="17.27155102416873">
        <ele>10.710000000000001</ele>
        <time>2017-06-25T08:54:39Z</time>
      </trkpt>
      <trkpt lat="69.405316980555654" lon="17.274407995864749">
        <ele>9.75</ele>
        <time>2017-06-25T08:54:49Z</time>
      </trkpt>
      <trkpt lat="69.405183037742972" lon="17.274770010262728">
        <ele>9.27</ele>
        <time>2017-06-25T08:54:50Z</time>
      </trkpt>
      <trkpt lat="69.405053034424782" lon="17.275165971368551">
        <ele>8.310000000000001</ele>
        <time>2017-06-25T08:54:51Z</time>
      </trkpt>
      <trkpt lat="69.403671026229858" lon="17.279145028442144">
        <ele>5.91</ele>
        <time>2017-06-25T08:55:02Z</time>
      </trkpt>
      <trkpt lat="69.402102017775178" lon="17.281630011275411">
        <ele>6.39</ele>
        <time>2017-06-25T08:55:12Z</time>
      </trkpt>
      <trkpt lat="69.401728017255664" lon="17.282282961532474">
        <ele>6.39</ele>
        <time>2017-06-25T08:55:15Z</time>
      </trkpt>
      <trkpt lat="69.401643024757504" lon="17.282551014795899">
        <ele>5.91</ele>
        <time>2017-06-25T08:55:16Z</time>
      </trkpt>
      <trkpt lat="69.401577981188893" lon="17.282872963696718">
        <ele>5.42</ele>
        <time>2017-06-25T08:55:17Z</time>
      </trkpt>
      <trkpt lat="69.401536993682384" lon="17.283235983923078">
        <ele>4.94</ele>
        <time>2017-06-25T08:55:18Z</time>
      </trkpt>
      <trkpt lat="69.401532970368862" lon="17.283615013584495">
        <ele>4.94</ele>
        <time>2017-06-25T08:55:19Z</time>
      </trkpt>
      <trkpt lat="69.401560965925455" lon="17.283966969698668">
        <ele>4.94</ele>
        <time>2017-06-25T08:55:20Z</time>
      </trkpt>
      <trkpt lat="69.401616035029292" lon="17.284295037388802">
        <ele>4.46</ele>
        <time>2017-06-25T08:55:21Z</time>
      </trkpt>
      <trkpt lat="69.401694992557168" lon="17.28459401987493">
        <ele>4.46</ele>
        <time>2017-06-25T08:55:22Z</time>
      </trkpt>
      <trkpt lat="69.401798006147146" lon="17.284846985712647">
        <ele>4.46</ele>
        <time>2017-06-25T08:55:23Z</time>
      </trkpt>
      <trkpt lat="69.401928009465337" lon="17.285041026771069">
        <ele>4.46</ele>
        <time>2017-06-25T08:55:24Z</time>
      </trkpt>
      <trkpt lat="69.402066981419921" lon="17.285171030089259">
        <ele>4.94</ele>
        <time>2017-06-25T08:55:25Z</time>
      </trkpt>
      <trkpt lat="69.402211988344789" lon="17.285226015374064">
        <ele>4.46</ele>
        <time>2017-06-25T08:55:26Z</time>
      </trkpt>
      <trkpt lat="69.402365041896701" lon="17.2852189745754">
        <ele>4.46</ele>
        <time>2017-06-25T08:55:27Z</time>
      </trkpt>
      <trkpt lat="69.402523040771484" lon="17.285190979018807">
        <ele>3.98</ele>
        <time>2017-06-25T08:55:28Z</time>
      </trkpt>
      <trkpt lat="69.403324015438557" lon="17.285156026482582">
        <ele>5.42</ele>
        <time>2017-06-25T08:55:33Z</time>
      </trkpt>
      <trkpt lat="69.403469022363424" lon="17.285267002880573">
        <ele>5.42</ele>
        <time>2017-06-25T08:55:34Z</time>
      </trkpt>
      <trkpt lat="69.403601959347725" lon="17.285458026453853">
        <ele>6.39</ele>
        <time>2017-06-25T08:55:35Z</time>
      </trkpt>
      <trkpt lat="69.403718970716" lon="17.285714009776711">
        <ele>6.39</ele>
        <time>2017-06-25T08:55:36Z</time>
      </trkpt>
      <trkpt lat="69.403822990134358" lon="17.286013998091221">
        <ele>6.39</ele>
        <time>2017-06-25T08:55:37Z</time>
      </trkpt>
      <trkpt lat="69.403902031481266" lon="17.286363020539284">
        <ele>6.87</ele>
        <time>2017-06-25T08:55:38Z</time>
      </trkpt>
      <trkpt lat="69.403956010937691" lon="17.286740960553288">
        <ele>6.87</ele>
        <time>2017-06-25T08:55:39Z</time>
      </trkpt>
      <trkpt lat="69.403990963473916" lon="17.287157960236073">
        <ele>6.39</ele>
        <time>2017-06-25T08:55:40Z</time>
      </trkpt>
      <trkpt lat="69.403999010100961" lon="17.287590969353914">
        <ele>5.91</ele>
        <time>2017-06-25T08:55:41Z</time>
      </trkpt>
      <trkpt lat="69.403977971524" lon="17.288032025098801">
        <ele>5.91</ele>
        <time>2017-06-25T08:55:42Z</time>
      </trkpt>
      <trkpt lat="69.403929021209478" lon="17.288466962054372">
        <ele>5.91</ele>
        <time>2017-06-25T08:55:43Z</time>
      </trkpt>
      <trkpt lat="69.403865989297628" lon="17.288892008364201">
        <ele>6.39</ele>
        <time>2017-06-25T08:55:44Z</time>
      </trkpt>
      <trkpt lat="69.403790971264243" lon="17.289310013875365">
        <ele>5.91</ele>
        <time>2017-06-25T08:55:45Z</time>
      </trkpt>
      <trkpt lat="69.403704972937703" lon="17.289720978587866">
        <ele>5.91</ele>
        <time>2017-06-25T08:55:46Z</time>
      </trkpt>
      <trkpt lat="69.403386041522026" lon="17.291274983435869">
        <ele>5.42</ele>
        <time>2017-06-25T08:55:50Z</time>
      </trkpt>
      <trkpt lat="69.403341030701995" lon="17.291661975905299">
        <ele>5.42</ele>
        <time>2017-06-25T08:55:51Z</time>
      </trkpt>
      <trkpt lat="69.403320997953415" lon="17.29205098003149">
        <ele>5.91</ele>
        <time>2017-06-25T08:55:52Z</time>
      </trkpt>
      <trkpt lat="69.403312029317021" lon="17.29243503883481">
        <ele>5.91</ele>
        <time>2017-06-25T08:55:53Z</time>
      </trkpt>
      <trkpt lat="69.40330901183188" lon="17.29282102547586">
        <ele>5.91</ele>
        <time>2017-06-25T08:55:54Z</time>
      </trkpt>
      <trkpt lat="69.403277998790145" lon="17.295589987188578">
        <ele>3.5</ele>
        <time>2017-06-25T08:56:01Z</time>
      </trkpt>
      <trkpt lat="69.403242040425539" lon="17.295949989929795">
        <ele>3.02</ele>
        <time>2017-06-25T08:56:02Z</time>
      </trkpt>
      <trkpt lat="69.403178002685308" lon="17.296286020427942">
        <ele>3.02</ele>
        <time>2017-06-25T08:56:03Z</time>
      </trkpt>
      <trkpt lat="69.403096027672291" lon="17.296616015955806">
        <ele>3.02</ele>
        <time>2017-06-25T08:56:04Z</time>
      </trkpt>
      <trkpt lat="69.403005000203848" lon="17.296945005655289">
        <ele>3.5</ele>
        <time>2017-06-25T08:56:05Z</time>
      </trkpt>
      <trkpt lat="69.40253896638751" lon="17.29877301491797">
        <ele>5.42</ele>
        <time>2017-06-25T08:56:10Z</time>
      </trkpt>
      <trkpt lat="69.402465960010886" lon="17.299215998500586">
        <ele>5.42</ele>
        <time>2017-06-25T08:56:11Z</time>
      </trkpt>
      <trkpt lat="69.401652999222279" lon="17.30530796572566">
        <ele>4.46</ele>
        <time>2017-06-25T08:56:23Z</time>
      </trkpt>
      <trkpt lat="69.401541016995907" lon="17.308610016480088">
        <ele>2.54</ele>
        <time>2017-06-25T08:56:29Z</time>
      </trkpt>
      <trkpt lat="69.401489971205592" lon="17.309693964198232">
        <ele>1.58</ele>
        <time>2017-06-25T08:56:31Z</time>
      </trkpt>
      <trkpt lat="69.401442026719451" lon="17.31022696942091">
        <ele>1.58</ele>
        <time>2017-06-25T08:56:32Z</time>
      </trkpt>
      <trkpt lat="69.400854958221316" lon="17.313677966594696">
        <ele>4.46</ele>
        <time>2017-06-25T08:56:39Z</time>
      </trkpt>
      <trkpt lat="69.399188971146941" lon="17.320449035614729">
        <ele>0.14</ele>
        <time>2017-06-25T08:56:53Z</time>
      </trkpt>
      <trkpt lat="69.397163987159729" lon="17.328872010111809">
        <ele>2.54</ele>
        <time>2017-06-25T08:57:10Z</time>
      </trkpt>
      <trkpt lat="69.395821038633585" lon="17.336714034900069">
        <ele>8.789999999999999</ele>
        <time>2017-06-25T08:57:25Z</time>
      </trkpt>
      <trkpt lat="69.395523983985186" lon="17.340560993179679">
        <ele>17.440000000000001</ele>
        <time>2017-06-25T08:57:32Z</time>
      </trkpt>
      <trkpt lat="69.395025009289384" lon="17.344598975032568">
        <ele>26.09</ele>
        <time>2017-06-25T08:57:40Z</time>
      </trkpt>
      <trkpt lat="69.394901040941477" lon="17.350380979478359">
        <ele>22.73</ele>
        <time>2017-06-25T08:57:50Z</time>
      </trkpt>
      <trkpt lat="69.395051999017596" lon="17.35719203017652">
        <ele>30.899999999999999</ele>
        <time>2017-06-25T08:58:02Z</time>
      </trkpt>
      <trkpt lat="69.39491000957787" lon="17.361751031130552">
        <ele>18.879999999999999</ele>
        <time>2017-06-25T08:58:10Z</time>
      </trkpt>
      <trkpt lat="69.394844966009259" lon="17.362271966412663">
        <ele>16.960000000000001</ele>
        <time>2017-06-25T08:58:11Z</time>
      </trkpt>
      <trkpt lat="69.394762990996242" lon="17.36277999356389">
        <ele>15.039999999999999</ele>
        <time>2017-06-25T08:58:12Z</time>
      </trkpt>
      <trkpt lat="69.394667018204927" lon="17.363277962431312">
        <ele>13.119999999999999</ele>
        <time>2017-06-25T08:58:13Z</time>
      </trkpt>
      <trkpt lat="69.394562998786569" lon="17.363772997632623">
        <ele>11.67</ele>
        <time>2017-06-25T08:58:14Z</time>
      </trkpt>
      <trkpt lat="69.3940070271492" lon="17.367816008627415">
        <ele>5.91</ele>
        <time>2017-06-25T08:58:22Z</time>
      </trkpt>
      <trkpt lat="69.393747020512819" lon="17.369553996250033">
        <ele>5.91</ele>
        <time>2017-06-25T08:58:26Z</time>
      </trkpt>
      <trkpt lat="69.393653981387615" lon="17.369940988719463">
        <ele>6.39</ele>
        <time>2017-06-25T08:58:27Z</time>
      </trkpt>
      <trkpt lat="69.392490992322564" lon="17.373507991433144">
        <ele>6.87</ele>
        <time>2017-06-25T08:58:37Z</time>
      </trkpt>
      <trkpt lat="69.392349002882838" lon="17.373756011947989">
        <ele>7.35</ele>
        <time>2017-06-25T08:58:38Z</time>
      </trkpt>
      <trkpt lat="69.39220299012959" lon="17.373965978622437">
        <ele>7.35</ele>
        <time>2017-06-25T08:58:39Z</time>
      </trkpt>
      <trkpt lat="69.391764029860497" lon="17.374608032405376">
        <ele>5.91</ele>
        <time>2017-06-25T08:58:42Z</time>
      </trkpt>
      <trkpt lat="69.391639977693558" lon="17.374878013506532">
        <ele>5.91</ele>
        <time>2017-06-25T08:58:43Z</time>
      </trkpt>
      <trkpt lat="69.391525983810425" lon="17.375180013477802">
        <ele>5.91</ele>
        <time>2017-06-25T08:58:44Z</time>
      </trkpt>
      <trkpt lat="69.391425987705588" lon="17.375525012612343">
        <ele>6.39</ele>
        <time>2017-06-25T08:58:45Z</time>
      </trkpt>
      <trkpt lat="69.391340995207429" lon="17.375902030616999">
        <ele>6.87</ele>
        <time>2017-06-25T08:58:46Z</time>
      </trkpt>
      <trkpt lat="69.391274023801088" lon="17.37631500698626">
        <ele>7.35</ele>
        <time>2017-06-25T08:58:47Z</time>
      </trkpt>
      <trkpt lat="69.391221972182393" lon="17.376748016104102">
        <ele>7.35</ele>
        <time>2017-06-25T08:58:48Z</time>
      </trkpt>
      <trkpt lat="69.391185007989407" lon="17.377200974151492">
        <ele>7.35</ele>
        <time>2017-06-25T08:58:49Z</time>
      </trkpt>
      <trkpt lat="69.391155000776052" lon="17.377670025452971">
        <ele>6.39</ele>
        <time>2017-06-25T08:58:50Z</time>
      </trkpt>
      <trkpt lat="69.391066990792751" lon="17.378606032580137">
        <ele>4.94</ele>
        <time>2017-06-25T08:58:52Z</time>
      </trkpt>
      <trkpt lat="69.390990966930985" lon="17.379018003121018">
        <ele>4.46</ele>
        <time>2017-06-25T08:58:53Z</time>
      </trkpt>
      <trkpt lat="69.390899017453194" lon="17.379393009468913">
        <ele>4.46</ele>
        <time>2017-06-25T08:58:54Z</time>
      </trkpt>
      <trkpt lat="69.390787035226822" lon="17.379739014431834">
        <ele>4.46</ele>
        <time>2017-06-25T08:58:55Z</time>
      </trkpt>
      <trkpt lat="69.39067798666656" lon="17.380088036879897">
        <ele>4.46</ele>
        <time>2017-06-25T08:58:56Z</time>
      </trkpt>
      <trkpt lat="69.39031002111733" lon="17.381674982607365">
        <ele>3.98</ele>
        <time>2017-06-25T08:59:00Z</time>
      </trkpt>
      <trkpt lat="69.390253024175763" lon="17.382100028917193">
        <ele>3.98</ele>
        <time>2017-06-25T08:59:01Z</time>
      </trkpt>
      <trkpt lat="69.390214970335364" lon="17.382548963651061">
        <ele>4.46</ele>
        <time>2017-06-25T08:59:02Z</time>
      </trkpt>
      <trkpt lat="69.390192003920674" lon="17.38301700912416">
        <ele>4.46</ele>
        <time>2017-06-25T08:59:03Z</time>
      </trkpt>
      <trkpt lat="69.390184041112661" lon="17.383497040718794">
        <ele>4.94</ele>
        <time>2017-06-25T08:59:04Z</time>
      </trkpt>
      <trkpt lat="69.390183035284281" lon="17.383990986272693">
        <ele>4.94</ele>
        <time>2017-06-25T08:59:05Z</time>
      </trkpt>
      <trkpt lat="69.390174988657236" lon="17.389638964086771">
        <ele>3.98</ele>
        <time>2017-06-25T08:59:16Z</time>
      </trkpt>
      <trkpt lat="69.390211030840874" lon="17.390138022601604">
        <ele>3.98</ele>
        <time>2017-06-25T08:59:17Z</time>
      </trkpt>
      <trkpt lat="69.390264004468918" lon="17.390617970377207">
        <ele>4.46</ele>
        <time>2017-06-25T08:59:18Z</time>
      </trkpt>
      <trkpt lat="69.390401970595121" lon="17.391962008550763">
        <ele>3.02</ele>
        <time>2017-06-25T08:59:21Z</time>
      </trkpt>
      <trkpt lat="69.390403982251883" lon="17.392384959384799">
        <ele>2.54</ele>
        <time>2017-06-25T08:59:22Z</time>
      </trkpt>
      <trkpt lat="69.39037699252367" lon="17.392805982381105">
        <ele>2.06</ele>
        <time>2017-06-25T08:59:23Z</time>
      </trkpt>
      <trkpt lat="69.390324018895626" lon="17.393216025084257">
        <ele>2.54</ele>
        <time>2017-06-25T08:59:24Z</time>
      </trkpt>
      <trkpt lat="69.39024698920548" lon="17.393607962876558">
        <ele>3.02</ele>
        <time>2017-06-25T08:59:25Z</time>
      </trkpt>
      <trkpt lat="69.390156967565417" lon="17.394000990316272">
        <ele>3.5</ele>
        <time>2017-06-25T08:59:26Z</time>
      </trkpt>
      <trkpt lat="69.389056004583836" lon="17.398815974593163">
        <ele>4.46</ele>
        <time>2017-06-25T08:59:37Z</time>
      </trkpt>
      <trkpt lat="69.388022013008595" lon="17.402045018970966">
        <ele>4.94</ele>
        <time>2017-06-25T08:59:45Z</time>
      </trkpt>
      <trkpt lat="69.386901017278433" lon="17.405657032504678">
        <ele>4.46</ele>
        <time>2017-06-25T08:59:54Z</time>
      </trkpt>
      <trkpt lat="69.386329036206007" lon="17.409477001056075">
        <ele>6.87</ele>
        <time>2017-06-25T09:00:02Z</time>
      </trkpt>
      <trkpt lat="69.386190986260772" lon="17.410318041220307">
        <ele>4.46</ele>
        <time>2017-06-25T09:00:04Z</time>
      </trkpt>
      <trkpt lat="69.386100964620709" lon="17.410706039518118">
        <ele>3.5</ele>
        <time>2017-06-25T09:00:05Z</time>
      </trkpt>
      <trkpt lat="69.385999962687492" lon="17.41105598397553">
        <ele>3.02</ele>
        <time>2017-06-25T09:00:06Z</time>
      </trkpt>
      <trkpt lat="69.385889992117882" lon="17.411359995603561">
        <ele>3.02</ele>
        <time>2017-06-25T09:00:07Z</time>
      </trkpt>
      <trkpt lat="69.385768035426736" lon="17.411611033603549">
        <ele>3.02</ele>
        <time>2017-06-25T09:00:08Z</time>
      </trkpt>
      <trkpt lat="69.385637026280165" lon="17.411802979186177">
        <ele>3.5</ele>
        <time>2017-06-25T09:00:09Z</time>
      </trkpt>
      <trkpt lat="69.385497970506549" lon="17.41195603273809">
        <ele>3.98</ele>
        <time>2017-06-25T09:00:10Z</time>
      </trkpt>
      <trkpt lat="69.385353969410062" lon="17.412053011357784">
        <ele>4.46</ele>
        <time>2017-06-25T09:00:11Z</time>
      </trkpt>
      <trkpt lat="69.385208962485194" lon="17.412123000249267">
        <ele>4.94</ele>
        <time>2017-06-25T09:00:12Z</time>
      </trkpt>
      <trkpt lat="69.385058004409075" lon="17.412169016897678">
        <ele>5.91</ele>
        <time>2017-06-25T09:00:13Z</time>
      </trkpt>
      <trkpt lat="69.383235024288297" lon="17.41286002099514">
        <ele>10.710000000000001</ele>
        <time>2017-06-25T09:00:24Z</time>
      </trkpt>
      <trkpt lat="69.380811983719468" lon="17.413277020677924">
        <ele>28.5</ele>
        <time>2017-06-25T09:00:38Z</time>
      </trkpt>
      <trkpt lat="69.379797019064426" lon="17.413098989054561">
        <ele>27.530000000000001</ele>
        <time>2017-06-25T09:00:44Z</time>
      </trkpt>
      <trkpt lat="69.379647988826036" lon="17.412935039028525">
        <ele>28.02</ele>
        <time>2017-06-25T09:00:45Z</time>
      </trkpt>
      <trkpt lat="69.379503987729549" lon="17.412717025727034">
        <ele>28.02</ele>
        <time>2017-06-25T09:00:46Z</time>
      </trkpt>
      <trkpt lat="69.378156010061502" lon="17.410102961584926">
        <ele>31.859999999999999</ele>
        <time>2017-06-25T09:00:56Z</time>
      </trkpt>
      <trkpt lat="69.377686036750674" lon="17.409369964152575">
        <ele>30.899999999999999</ele>
        <time>2017-06-25T09:01:00Z</time>
      </trkpt>
      <trkpt lat="69.377560978755355" lon="17.409282037988305">
        <ele>29.940000000000001</ele>
        <time>2017-06-25T09:01:01Z</time>
      </trkpt>
      <trkpt lat="69.377432987093925" lon="17.409239960834384">
        <ele>28.98</ele>
        <time>2017-06-25T09:01:02Z</time>
      </trkpt>
      <trkpt lat="69.377297032624483" lon="17.409258987754583">
        <ele>27.530000000000001</ele>
        <time>2017-06-25T09:01:03Z</time>
      </trkpt>
      <trkpt lat="69.377159988507628" lon="17.409317996352911">
        <ele>26.57</ele>
        <time>2017-06-25T09:01:04Z</time>
      </trkpt>
      <trkpt lat="69.377011964097619" lon="17.409414974972606">
        <ele>25.609999999999999</ele>
        <time>2017-06-25T09:01:05Z</time>
      </trkpt>
      <trkpt lat="69.376871986314654" lon="17.409538021311164">
        <ele>25.129999999999999</ele>
        <time>2017-06-25T09:01:06Z</time>
      </trkpt>
      <trkpt lat="69.376737037673593" lon="17.409682022407651">
        <ele>25.129999999999999</ele>
        <time>2017-06-25T09:01:07Z</time>
      </trkpt>
      <trkpt lat="69.376609968021512" lon="17.409846978262067">
        <ele>25.129999999999999</ele>
        <time>2017-06-25T09:01:08Z</time>
      </trkpt>
      <trkpt lat="69.376487005501986" lon="17.410030961036682">
        <ele>25.129999999999999</ele>
        <time>2017-06-25T09:01:09Z</time>
      </trkpt>
      <trkpt lat="69.376364964991808" lon="17.410242017358541">
        <ele>25.129999999999999</ele>
        <time>2017-06-25T09:01:10Z</time>
      </trkpt>
      <trkpt lat="69.376247031614184" lon="17.410481991246343">
        <ele>25.129999999999999</ele>
        <time>2017-06-25T09:01:11Z</time>
      </trkpt>
      <trkpt lat="69.376134965568781" lon="17.410747027024627">
        <ele>25.609999999999999</ele>
        <time>2017-06-25T09:01:12Z</time>
      </trkpt>
      <trkpt lat="69.376026000827551" lon="17.41103301756084">
        <ele>25.609999999999999</ele>
        <time>2017-06-25T09:01:13Z</time>
      </trkpt>
      <trkpt lat="69.375674966722727" lon="17.411804990842938">
        <ele>25.129999999999999</ele>
        <time>2017-06-25T09:01:16Z</time>
      </trkpt>
      <trkpt lat="69.375540018081665" lon="17.411991991102695">
        <ele>25.129999999999999</ele>
        <time>2017-06-25T09:01:17Z</time>
      </trkpt>
      <trkpt lat="69.375397022813559" lon="17.412124006077647">
        <ele>25.609999999999999</ele>
        <time>2017-06-25T09:01:18Z</time>
      </trkpt>
      <trkpt lat="69.375248998403549" lon="17.412198018282652">
        <ele>26.09</ele>
        <time>2017-06-25T09:01:19Z</time>
      </trkpt>
      <trkpt lat="69.375098962336779" lon="17.4122369941324">
        <ele>26.57</ele>
        <time>2017-06-25T09:01:20Z</time>
      </trkpt>
      <trkpt lat="69.374943980947137" lon="17.412254009395838">
        <ele>27.050000000000001</ele>
        <time>2017-06-25T09:01:21Z</time>
      </trkpt>
      <trkpt lat="69.37239496037364" lon="17.412631027400494">
        <ele>30.420000000000002</ele>
        <time>2017-06-25T09:01:36Z</time>
      </trkpt>
      <trkpt lat="69.368915967643261" lon="17.413214994594455">
        <ele>44.359999999999999</ele>
        <time>2017-06-25T09:01:55Z</time>
      </trkpt>
      <trkpt lat="69.368761992082" lon="17.413356984034181">
        <ele>45.799999999999997</ele>
        <time>2017-06-25T09:01:56Z</time>
      </trkpt>
      <trkpt lat="69.368615979328752" lon="17.413567034527659">
        <ele>46.759999999999998</ele>
        <time>2017-06-25T09:01:57Z</time>
      </trkpt>
      <trkpt lat="69.368473989889026" lon="17.413824023678899">
        <ele>48.200000000000003</ele>
        <time>2017-06-25T09:01:58Z</time>
      </trkpt>
      <trkpt lat="69.368339963257313" lon="17.414130968973041">
        <ele>49.159999999999997</ele>
        <time>2017-06-25T09:01:59Z</time>
      </trkpt>
      <trkpt lat="69.368209959939122" lon="17.414477979764342">
        <ele>50.609999999999999</ele>
        <time>2017-06-25T09:02:00Z</time>
      </trkpt>
      <trkpt lat="69.368093032389879" lon="17.41485902108252">
        <ele>51.57</ele>
        <time>2017-06-25T09:02:01Z</time>
      </trkpt>
      <trkpt lat="69.367979038506746" lon="17.41524601355195">
        <ele>52.530000000000001</ele>
        <time>2017-06-25T09:02:02Z</time>
      </trkpt>
      <trkpt lat="69.366527041420341" lon="17.420524014160037">
        <ele>40.990000000000002</ele>
        <time>2017-06-25T09:02:15Z</time>
      </trkpt>
      <trkpt lat="69.366406006738544" lon="17.420845041051507">
        <ele>40.509999999999998</ele>
        <time>2017-06-25T09:02:16Z</time>
      </trkpt>
      <trkpt lat="69.366267034783959" lon="17.421103036031127">
        <ele>40.030000000000001</ele>
        <time>2017-06-25T09:02:17Z</time>
      </trkpt>
      <trkpt lat="69.366116998717189" lon="17.421318031847477">
        <ele>40.030000000000001</ele>
        <time>2017-06-25T09:02:18Z</time>
      </trkpt>
      <trkpt lat="69.365954976528883" lon="17.421479970216751">
        <ele>40.509999999999998</ele>
        <time>2017-06-25T09:02:19Z</time>
      </trkpt>
      <trkpt lat="69.365779962390661" lon="17.421594969928265">
        <ele>41.469999999999999</ele>
        <time>2017-06-25T09:02:20Z</time>
      </trkpt>
      <trkpt lat="69.365604026243091" lon="17.421710975468159">
        <ele>42.439999999999998</ele>
        <time>2017-06-25T09:02:21Z</time>
      </trkpt>
      <trkpt lat="69.364201985299587" lon="17.423271015286446">
        <ele>51.090000000000003</ele>
        <time>2017-06-25T09:02:29Z</time>
      </trkpt>
      <trkpt lat="69.362922990694642" lon="17.425145963206887">
        <ele>59.259999999999998</ele>
        <time>2017-06-25T09:02:37Z</time>
      </trkpt>
      <trkpt lat="69.362799022346735" lon="17.425461038947105">
        <ele>58.780000000000001</ele>
        <time>2017-06-25T09:02:38Z</time>
      </trkpt>
      <trkpt lat="69.36268201097846" lon="17.425810983404517">
        <ele>57.82</ele>
        <time>2017-06-25T09:02:39Z</time>
      </trkpt>
      <trkpt lat="69.361857986077666" lon="17.42876099422574">
        <ele>53.009999999999998</ele>
        <time>2017-06-25T09:02:46Z</time>
      </trkpt>
      <trkpt lat="69.360392997041345" lon="17.433652002364397">
        <ele>52.530000000000001</ele>
        <time>2017-06-25T09:02:58Z</time>
      </trkpt>
      <trkpt lat="69.35943603515625" lon="17.435660976916552">
        <ele>50.609999999999999</ele>
        <time>2017-06-25T09:03:05Z</time>
      </trkpt>
      <trkpt lat="69.35933000408113" lon="17.436003964394331">
        <ele>50.609999999999999</ele>
        <time>2017-06-25T09:03:06Z</time>
      </trkpt>
      <trkpt lat="69.359233025461435" lon="17.436375031247735">
        <ele>50.130000000000003</ele>
        <time>2017-06-25T09:03:07Z</time>
      </trkpt>
      <trkpt lat="69.359143003821373" lon="17.436769986525178">
        <ele>49.649999999999999</ele>
        <time>2017-06-25T09:03:08Z</time>
      </trkpt>
      <trkpt lat="69.359057005494833" lon="17.43718396872282">
        <ele>49.159999999999997</ele>
        <time>2017-06-25T09:03:09Z</time>
      </trkpt>
      <trkpt lat="69.358099037781358" lon="17.44072699919343">
        <ele>53.009999999999998</ele>
        <time>2017-06-25T09:03:18Z</time>
      </trkpt>
      <trkpt lat="69.356604963541031" lon="17.443725960329175">
        <ele>54.450000000000003</ele>
        <time>2017-06-25T09:03:28Z</time>
      </trkpt>
      <trkpt lat="69.355217004194856" lon="17.445503007620573">
        <ele>52.530000000000001</ele>
        <time>2017-06-25T09:03:37Z</time>
      </trkpt>
      <trkpt lat="69.354374958202243" lon="17.445685984566808">
        <ele>54.450000000000003</ele>
        <time>2017-06-25T09:03:42Z</time>
      </trkpt>
      <trkpt lat="69.354203967377543" lon="17.445592023432255">
        <ele>55.409999999999997</ele>
        <time>2017-06-25T09:03:43Z</time>
      </trkpt>
      <trkpt lat="69.354036999866366" lon="17.445452967658639">
        <ele>56.859999999999999</ele>
        <time>2017-06-25T09:03:44Z</time>
      </trkpt>
      <trkpt lat="69.353877995163202" lon="17.445270996540785">
        <ele>57.82</ele>
        <time>2017-06-25T09:03:45Z</time>
      </trkpt>
      <trkpt lat="69.353727959096432" lon="17.445048037916422">
        <ele>59.259999999999998</ele>
        <time>2017-06-25T09:03:46Z</time>
      </trkpt>
      <trkpt lat="69.353578006848693" lon="17.444794988259673">
        <ele>60.700000000000003</ele>
        <time>2017-06-25T09:03:47Z</time>
      </trkpt>
      <trkpt lat="69.353435011580586" lon="17.444517966359854">
        <ele>61.659999999999997</ele>
        <time>2017-06-25T09:03:48Z</time>
      </trkpt>
      <trkpt lat="69.351561991497874" lon="17.441082978621125">
        <ele>81.370000000000005</ele>
        <time>2017-06-25T09:04:01Z</time>
      </trkpt>
      <trkpt lat="69.351429976522923" lon="17.440967978909612">
        <ele>83.290000000000006</ele>
        <time>2017-06-25T09:04:02Z</time>
      </trkpt>
      <trkpt lat="69.351297039538622" lon="17.44094199500978">
        <ele>84.25</ele>
        <time>2017-06-25T09:04:03Z</time>
      </trkpt>
      <trkpt lat="69.351157983765006" lon="17.440986000001431">
        <ele>85.689999999999998</ele>
        <time>2017-06-25T09:04:04Z</time>
      </trkpt>
      <trkpt lat="69.351012976840138" lon="17.441096976399422">
        <ele>86.659999999999997</ele>
        <time>2017-06-25T09:04:05Z</time>
      </trkpt>
      <trkpt lat="69.35086595825851" lon="17.441227985545993">
        <ele>87.620000000000005</ele>
        <time>2017-06-25T09:04:06Z</time>
      </trkpt>
      <trkpt lat="69.349706992506981" lon="17.441424960270524">
        <ele>97.709999999999994</ele>
        <time>2017-06-25T09:04:13Z</time>
      </trkpt>
      <trkpt lat="69.348229011520743" lon="17.439989978447556">
        <ele>112.13</ele>
        <time>2017-06-25T09:04:22Z</time>
      </trkpt>
      <trkpt lat="69.347071973606944" lon="17.438687011599541">
        <ele>123.67</ele>
        <time>2017-06-25T09:04:30Z</time>
      </trkpt>
      <trkpt lat="69.346939958631992" lon="17.438647029921412">
        <ele>125.11</ele>
        <time>2017-06-25T09:04:31Z</time>
      </trkpt>
      <trkpt lat="69.346808027476072" lon="17.438675025478005">
        <ele>127.03</ele>
        <time>2017-06-25T09:04:32Z</time>
      </trkpt>
      <trkpt lat="69.346679029986262" lon="17.438773009926081">
        <ele>127.98999999999999</ele>
        <time>2017-06-25T09:04:33Z</time>
      </trkpt>
      <trkpt lat="69.346549026668072" lon="17.438936037942767">
        <ele>128.47</ele>
        <time>2017-06-25T09:04:34Z</time>
      </trkpt>
      <trkpt lat="69.346411982551217" lon="17.439153967425227">
        <ele>129.43000000000001</ele>
        <time>2017-06-25T09:04:35Z</time>
      </trkpt>
      <trkpt lat="69.346277033910155" lon="17.43941699154675">
        <ele>130.40000000000001</ele>
        <time>2017-06-25T09:04:36Z</time>
      </trkpt>
      <trkpt lat="69.346145018935204" lon="17.439728965982795">
        <ele>131.36000000000001</ele>
        <time>2017-06-25T09:04:37Z</time>
      </trkpt>
      <trkpt lat="69.346017027273774" lon="17.440087962895632">
        <ele>132.31999999999999</ele>
        <time>2017-06-25T09:04:38Z</time>
      </trkpt>
      <trkpt lat="69.345898004248738" lon="17.440484007820487">
        <ele>133.28</ele>
        <time>2017-06-25T09:04:39Z</time>
      </trkpt>
      <trkpt lat="69.345783004537225" lon="17.440912993624806">
        <ele>133.75999999999999</ele>
        <time>2017-06-25T09:04:40Z</time>
      </trkpt>
      <trkpt lat="69.344352968037128" lon="17.445773994550109">
        <ele>145.30000000000001</ele>
        <time>2017-06-25T09:04:51Z</time>
      </trkpt>
      <trkpt lat="69.342671977356076" lon="17.451266990974545">
        <ele>164.03999999999999</ele>
        <time>2017-06-25T09:05:04Z</time>
      </trkpt>
      <trkpt lat="69.341687019914389" lon="17.456787982955575">
        <ele>173.66</ele>
        <time>2017-06-25T09:05:15Z</time>
      </trkpt>
      <trkpt lat="69.340394027531147" lon="17.464350974187255">
        <ele>178.46000000000001</ele>
        <time>2017-06-25T09:05:30Z</time>
      </trkpt>
      <trkpt lat="69.339498002082109" lon="17.467665011063218">
        <ele>177.97999999999999</ele>
        <time>2017-06-25T09:05:38Z</time>
      </trkpt>
      <trkpt lat="69.338027983903885" lon="17.470771009102464">
        <ele>180.87</ele>
        <time>2017-06-25T09:05:47Z</time>
      </trkpt>
      <trkpt lat="69.335733018815517" lon="17.475398993119597">
        <ele>198.65000000000001</ele>
        <time>2017-06-25T09:06:01Z</time>
      </trkpt>
      <trkpt lat="69.334440026432276" lon="17.479259027168155">
        <ele>201.53</ele>
        <time>2017-06-25T09:06:10Z</time>
      </trkpt>
      <trkpt lat="69.333502007648349" lon="17.484179958701134">
        <ele>192.88</ele>
        <time>2017-06-25T09:06:19Z</time>
      </trkpt>
      <trkpt lat="69.33251696638763" lon="17.48992801643908">
        <ele>187.59</ele>
        <time>2017-06-25T09:06:30Z</time>
      </trkpt>
      <trkpt lat="69.331416003406048" lon="17.493037031963468">
        <ele>184.71000000000001</ele>
        <time>2017-06-25T09:06:37Z</time>
      </trkpt>
      <trkpt lat="69.32920896448195" lon="17.498858012259007">
        <ele>191.91999999999999</ele>
        <time>2017-06-25T09:06:51Z</time>
      </trkpt>
      <trkpt lat="69.327083984389901" lon="17.504497021436691">
        <ele>186.15000000000001</ele>
        <time>2017-06-25T09:07:04Z</time>
      </trkpt>
      <trkpt lat="69.325468959286809" lon="17.509404961019754">
        <ele>179.41999999999999</ele>
        <time>2017-06-25T09:07:15Z</time>
      </trkpt>
      <trkpt lat="69.324490958824754" lon="17.514797961339355">
        <ele>170.28999999999999</ele>
        <time>2017-06-25T09:07:25Z</time>
      </trkpt>
      <trkpt lat="69.323567021638155" lon="17.518204031512141">
        <ele>160.19999999999999</ele>
        <time>2017-06-25T09:07:32Z</time>
      </trkpt>
      <trkpt lat="69.321224028244615" lon="17.524449974298477">
        <ele>156.83000000000001</ele>
        <time>2017-06-25T09:07:47Z</time>
      </trkpt>
      <trkpt lat="69.319153027608991" lon="17.528949966654181">
        <ele>144.34</ele>
        <time>2017-06-25T09:07:59Z</time>
      </trkpt>
      <trkpt lat="69.316087011247873" lon="17.533503016456962">
        <ele>134.72</ele>
        <time>2017-06-25T09:08:15Z</time>
      </trkpt>
      <trkpt lat="69.314295966178179" lon="17.535172021016479">
        <ele>134.72</ele>
        <time>2017-06-25T09:08:24Z</time>
      </trkpt>
      <trkpt lat="69.311758009716868" lon="17.535923961549997">
        <ele>145.78</ele>
        <time>2017-06-25T09:08:36Z</time>
      </trkpt>
      <trkpt lat="69.308223025873303" lon="17.536868015304208">
        <ele>165</ele>
        <time>2017-06-25T09:08:54Z</time>
      </trkpt>
      <trkpt lat="69.307037992402911" lon="17.537610987201333">
        <ele>165.96000000000001</ele>
        <time>2017-06-25T09:09:01Z</time>
      </trkpt>
      <trkpt lat="69.305727984756231" lon="17.539886003360152">
        <ele>156.83000000000001</ele>
        <time>2017-06-25T09:09:09Z</time>
      </trkpt>
      <trkpt lat="69.304573964327574" lon="17.541620973497629">
        <ele>154.91</ele>
        <time>2017-06-25T09:09:16Z</time>
      </trkpt>
      <trkpt lat="69.304389981552958" lon="17.541745025664568">
        <ele>154.43000000000001</ele>
        <time>2017-06-25T09:09:17Z</time>
      </trkpt>
      <trkpt lat="69.30419703014195" lon="17.541821971535683">
        <ele>152.99000000000001</ele>
        <time>2017-06-25T09:09:18Z</time>
      </trkpt>
      <trkpt lat="69.303998965770006" lon="17.541842004284263">
        <ele>152.03</ele>
        <time>2017-06-25T09:09:19Z</time>
      </trkpt>
      <trkpt lat="69.303797967731953" lon="17.541803028434515">
        <ele>150.58000000000001</ele>
        <time>2017-06-25T09:09:20Z</time>
      </trkpt>
      <trkpt lat="69.303595963865519" lon="17.541742008179426">
        <ele>150.09999999999999</ele>
        <time>2017-06-25T09:09:21Z</time>
      </trkpt>
      <trkpt lat="69.300552997738123" lon="17.540587987750769">
        <ele>147.69999999999999</ele>
        <time>2017-06-25T09:09:35Z</time>
      </trkpt>
      <trkpt lat="69.296510992571712" lon="17.539126016199589">
        <ele>146.25999999999999</ele>
        <time>2017-06-25T09:09:53Z</time>
      </trkpt>
      <trkpt lat="69.292877018451691" lon="17.537848027423024">
        <ele>128.47</ele>
        <time>2017-06-25T09:10:09Z</time>
      </trkpt>
      <trkpt lat="69.288952024653554" lon="17.536427965387702">
        <ele>125.11</ele>
        <time>2017-06-25T09:10:27Z</time>
      </trkpt>
      <trkpt lat="69.285734966397285" lon="17.535296995192766">
        <ele>127.98999999999999</ele>
        <time>2017-06-25T09:10:42Z</time>
      </trkpt>
      <trkpt lat="69.281677035614848" lon="17.533882968127728">
        <ele>129.91999999999999</ele>
        <time>2017-06-25T09:11:00Z</time>
      </trkpt>
      <trkpt lat="69.277910962700844" lon="17.532780999317765">
        <ele>114.53</ele>
        <time>2017-06-25T09:11:16Z</time>
      </trkpt>
      <trkpt lat="69.275260018184781" lon="17.531958986073732">
        <ele>112.61</ele>
        <time>2017-06-25T09:11:28Z</time>
      </trkpt>
      <trkpt lat="69.271801980212331" lon="17.530945027247071">
        <ele>105.88</ele>
        <time>2017-06-25T09:11:43Z</time>
      </trkpt>
      <trkpt lat="69.267937000840902" lon="17.529796035960317">
        <ele>101.08</ele>
        <time>2017-06-25T09:12:00Z</time>
      </trkpt>
      <trkpt lat="69.264808958396316" lon="17.52920301631093">
        <ele>115.98</ele>
        <time>2017-06-25T09:12:15Z</time>
      </trkpt>
      <trkpt lat="69.263017997145653" lon="17.530654007568955">
        <ele>115.5</ele>
        <time>2017-06-25T09:12:24Z</time>
      </trkpt>
      <trkpt lat="69.262321041896939" lon="17.531796963885427">
        <ele>110.69</ele>
        <time>2017-06-25T09:12:28Z</time>
      </trkpt>
      <trkpt lat="69.262177962809801" lon="17.532163001596928">
        <ele>109.25</ele>
        <time>2017-06-25T09:12:29Z</time>
      </trkpt>
      <trkpt lat="69.26204401999712" lon="17.532567009329796">
        <ele>108.29000000000001</ele>
        <time>2017-06-25T09:12:30Z</time>
      </trkpt>
      <trkpt lat="69.261299036443233" lon="17.534472970291972">
        <ele>103.48</ele>
        <time>2017-06-25T09:12:35Z</time>
      </trkpt>
      <trkpt lat="69.261127039790154" lon="17.534739011898637">
        <ele>103.48</ele>
        <time>2017-06-25T09:12:36Z</time>
      </trkpt>
      <trkpt lat="69.260943979024887" lon="17.534965993836522">
        <ele>103</ele>
        <time>2017-06-25T09:12:37Z</time>
      </trkpt>
      <trkpt lat="69.260755972936749" lon="17.535152994096279">
        <ele>102.52</ele>
        <time>2017-06-25T09:12:38Z</time>
      </trkpt>
      <trkpt lat="69.260558998212218" lon="17.535320967435837">
        <ele>102.52</ele>
        <time>2017-06-25T09:12:39Z</time>
      </trkpt>
      <trkpt lat="69.257648969069123" lon="17.537764962762594">
        <ele>89.540000000000006</ele>
        <time>2017-06-25T09:12:53Z</time>
      </trkpt>
      <trkpt lat="69.255134984850883" lon="17.539874017238617">
        <ele>76.079999999999998</ele>
        <time>2017-06-25T09:13:06Z</time>
      </trkpt>
      <trkpt lat="69.254643972963095" lon="17.540608020499349">
        <ele>71.760000000000005</ele>
        <time>2017-06-25T09:13:09Z</time>
      </trkpt>
      <trkpt lat="69.254512041807175" lon="17.540925024077296">
        <ele>71.269999999999996</ele>
        <time>2017-06-25T09:13:10Z</time>
      </trkpt>
      <trkpt lat="69.254399975761771" lon="17.541273962706327">
        <ele>70.790000000000006</ele>
        <time>2017-06-25T09:13:11Z</time>
      </trkpt>
      <trkpt lat="69.254304002970457" lon="17.541651986539364">
        <ele>70.790000000000006</ele>
        <time>2017-06-25T09:13:12Z</time>
      </trkpt>
      <trkpt lat="69.254224961623549" lon="17.542054988443851">
        <ele>70.790000000000006</ele>
        <time>2017-06-25T09:13:13Z</time>
      </trkpt>
      <trkpt lat="69.254164025187492" lon="17.5424790289253">
        <ele>70.310000000000002</ele>
        <time>2017-06-25T09:13:14Z</time>
      </trkpt>
      <trkpt lat="69.254123959690332" lon="17.542915977537632">
        <ele>69.349999999999994</ele>
        <time>2017-06-25T09:13:15Z</time>
      </trkpt>
      <trkpt lat="69.25409403629601" lon="17.54338301718235">
        <ele>67.909999999999997</ele>
        <time>2017-06-25T09:13:16Z</time>
      </trkpt>
      <trkpt lat="69.254065034911036" lon="17.54387796856463">
        <ele>65.989999999999995</ele>
        <time>2017-06-25T09:13:17Z</time>
      </trkpt>
      <trkpt lat="69.253747025504708" lon="17.550098011270165">
        <ele>59.259999999999998</ele>
        <time>2017-06-25T09:13:28Z</time>
      </trkpt>
      <trkpt lat="69.25358098000288" lon="17.556964969262481">
        <ele>47.719999999999999</ele>
        <time>2017-06-25T09:13:39Z</time>
      </trkpt>
      <trkpt lat="69.253738978877664" lon="17.565386015921831">
        <ele>33.780000000000001</ele>
        <time>2017-06-25T09:13:53Z</time>
      </trkpt>
      <trkpt lat="69.254134017974138" lon="17.571148993447423">
        <ele>31.859999999999999</ele>
        <time>2017-06-25T09:14:03Z</time>
      </trkpt>
      <trkpt lat="69.254753021523356" lon="17.57475002668798">
        <ele>41.950000000000003</ele>
        <time>2017-06-25T09:14:10Z</time>
      </trkpt>
      <trkpt lat="69.255532035604119" lon="17.579722004011273">
        <ele>41.950000000000003</ele>
        <time>2017-06-25T09:14:19Z</time>
      </trkpt>
      <trkpt lat="69.256442980840802" lon="17.58858896791935">
        <ele>44.359999999999999</ele>
        <time>2017-06-25T09:14:34Z</time>
      </trkpt>
      <trkpt lat="69.256989983841777" lon="17.591949021443725">
        <ele>45.799999999999997</ele>
        <time>2017-06-25T09:14:42Z</time>
      </trkpt>
      <trkpt lat="69.25837098620832" lon="17.598189013078809">
        <ele>52.049999999999997</ele>
        <time>2017-06-25T09:14:57Z</time>
      </trkpt>
      <trkpt lat="69.259434984996915" lon="17.603827016428113">
        <ele>57.340000000000003</ele>
        <time>2017-06-25T09:15:10Z</time>
      </trkpt>
      <trkpt lat="69.260163959115744" lon="17.612241022288799">
        <ele>65.510000000000005</ele>
        <time>2017-06-25T09:15:28Z</time>
      </trkpt>
      <trkpt lat="69.260278958827257" lon="17.616486037150025">
        <ele>67.430000000000007</ele>
        <time>2017-06-25T09:15:37Z</time>
      </trkpt>
      <trkpt lat="69.260638039559126" lon="17.619465971365571">
        <ele>66.469999999999999</ele>
        <time>2017-06-25T09:15:44Z</time>
      </trkpt>
      <trkpt lat="69.261649986729026" lon="17.625379990786314">
        <ele>63.579999999999998</ele>
        <time>2017-06-25T09:15:57Z</time>
      </trkpt>
      <trkpt lat="69.262547018006444" lon="17.62831399217248">
        <ele>61.18</ele>
        <time>2017-06-25T09:16:05Z</time>
      </trkpt>
      <trkpt lat="69.263798017054796" lon="17.633498031646013">
        <ele>58.780000000000001</ele>
        <time>2017-06-25T09:16:18Z</time>
      </trkpt>
      <trkpt lat="69.264101022854447" lon="17.638452993705869">
        <ele>51.57</ele>
        <time>2017-06-25T09:16:28Z</time>
      </trkpt>
      <trkpt lat="69.264639979228377" lon="17.647903002798557">
        <ele>38.590000000000003</ele>
        <time>2017-06-25T09:16:47Z</time>
      </trkpt>
      <trkpt lat="69.264536965638399" lon="17.651767982169986">
        <ele>32.82</ele>
        <time>2017-06-25T09:16:54Z</time>
      </trkpt>
      <trkpt lat="69.263629959896207" lon="17.659077001735568">
        <ele>26.09</ele>
        <time>2017-06-25T09:17:07Z</time>
      </trkpt>
      <trkpt lat="69.262826973572373" lon="17.663637008517981">
        <ele>23.690000000000001</ele>
        <time>2017-06-25T09:17:16Z</time>
      </trkpt>
      <trkpt lat="69.260922018438578" lon="17.670070035383105">
        <ele>20.809999999999999</ele>
        <time>2017-06-25T09:17:30Z</time>
      </trkpt>
      <trkpt lat="69.258818998932838" lon="17.676199972629547">
        <ele>19.359999999999999</ele>
        <time>2017-06-25T09:17:44Z</time>
      </trkpt>
      <trkpt lat="69.25811399705708" lon="17.677018968388438">
        <ele>21.77</ele>
        <time>2017-06-25T09:17:48Z</time>
      </trkpt>
      <trkpt lat="69.257963038980961" lon="17.677288027480245">
        <ele>22.25</ele>
        <time>2017-06-25T09:17:49Z</time>
      </trkpt>
      <trkpt lat="69.257817026227713" lon="17.677598996087909">
        <ele>22.73</ele>
        <time>2017-06-25T09:17:50Z</time>
      </trkpt>
      <trkpt lat="69.257679982110858" lon="17.677951036021113">
        <ele>23.690000000000001</ele>
        <time>2017-06-25T09:17:51Z</time>
      </trkpt>
      <trkpt lat="69.257552996277809" lon="17.678350014612079">
        <ele>24.170000000000002</ele>
        <time>2017-06-25T09:17:52Z</time>
      </trkpt>
      <trkpt lat="69.257433973252773" lon="17.678785035386682">
        <ele>24.170000000000002</ele>
        <time>2017-06-25T09:17:53Z</time>
      </trkpt>
      <trkpt lat="69.257322996854782" lon="17.679246040061116">
        <ele>24.649999999999999</ele>
        <time>2017-06-25T09:17:54Z</time>
      </trkpt>
      <trkpt lat="69.257217971608043" lon="17.679731016978621">
        <ele>25.129999999999999</ele>
        <time>2017-06-25T09:17:55Z</time>
      </trkpt>
      <trkpt lat="69.255670001730323" lon="17.687429962679744">
        <ele>28.98</ele>
        <time>2017-06-25T09:18:10Z</time>
      </trkpt>
      <trkpt lat="69.254527967423201" lon="17.693362003192306">
        <ele>29.940000000000001</ele>
        <time>2017-06-25T09:18:23Z</time>
      </trkpt>
      <trkpt lat="69.253969984129071" lon="17.697435021400452">
        <ele>32.340000000000003</ele>
        <time>2017-06-25T09:18:34Z</time>
      </trkpt>
      <trkpt lat="69.253059038892388" lon="17.699704002588987">
        <ele>36.189999999999998</ele>
        <time>2017-06-25T09:18:42Z</time>
      </trkpt>
      <trkpt lat="69.251440996304154" lon="17.702455027028918">
        <ele>40.509999999999998</ele>
        <time>2017-06-25T09:18:55Z</time>
      </trkpt>
      <trkpt lat="69.249666966497898" lon="17.703338982537389">
        <ele>41.469999999999999</ele>
        <time>2017-06-25T09:19:08Z</time>
      </trkpt>
      <trkpt lat="69.248409010469913" lon="17.704784022644162">
        <ele>41.469999999999999</ele>
        <time>2017-06-25T09:19:18Z</time>
      </trkpt>
      <trkpt lat="69.247752958908677" lon="17.707042023539543">
        <ele>41.950000000000003</ele>
        <time>2017-06-25T09:19:25Z</time>
      </trkpt>
      <trkpt lat="69.247194975614548" lon="17.711561964824796">
        <ele>41.950000000000003</ele>
        <time>2017-06-25T09:19:36Z</time>
      </trkpt>
      <trkpt lat="69.246345972642303" lon="17.71967195905745">
        <ele>38.590000000000003</ele>
        <time>2017-06-25T09:19:57Z</time>
      </trkpt>
      <trkpt lat="69.245739961043" lon="17.725670970976353">
        <ele>43.880000000000003</ele>
        <time>2017-06-25T09:20:13Z</time>
      </trkpt>
      <trkpt lat="69.245135961100459" lon="17.730529038235545">
        <ele>42.920000000000002</ele>
        <time>2017-06-25T09:20:26Z</time>
      </trkpt>
      <trkpt lat="69.245047029107809" lon="17.730850987136364">
        <ele>42.920000000000002</ele>
        <time>2017-06-25T09:20:27Z</time>
      </trkpt>
      <trkpt lat="69.244948960840702" lon="17.731152987107635">
        <ele>42.920000000000002</ele>
        <time>2017-06-25T09:20:28Z</time>
      </trkpt>
      <trkpt lat="69.243845986202359" lon="17.733372012153268">
        <ele>37.630000000000003</ele>
        <time>2017-06-25T09:20:37Z</time>
      </trkpt>
      <trkpt lat="69.242782993242145" lon="17.736070984974504">
        <ele>33.299999999999997</ele>
        <time>2017-06-25T09:20:46Z</time>
      </trkpt>
      <trkpt lat="69.241408025845885" lon="17.739703031256795">
        <ele>33.780000000000001</ele>
        <time>2017-06-25T09:20:57Z</time>
      </trkpt>
      <trkpt lat="69.240179993212223" lon="17.743425015360117">
        <ele>34.259999999999998</ele>
        <time>2017-06-25T09:21:07Z</time>
      </trkpt>
      <trkpt lat="69.239165028557181" lon="17.748239999637008">
        <ele>35.229999999999997</ele>
        <time>2017-06-25T09:21:18Z</time>
      </trkpt>
      <trkpt lat="69.237438021227717" lon="17.754701022058725">
        <ele>37.149999999999999</ele>
        <time>2017-06-25T09:21:33Z</time>
      </trkpt>
      <trkpt lat="69.236060036346316" lon="17.763598999008536">
        <ele>38.590000000000003</ele>
        <time>2017-06-25T09:21:51Z</time>
      </trkpt>
      <trkpt lat="69.23514598980546" lon="17.767779976129532">
        <ele>35.229999999999997</ele>
        <time>2017-06-25T09:22:00Z</time>
      </trkpt>
      <trkpt lat="69.234107974916697" lon="17.772381976246834">
        <ele>31.379999999999999</ele>
        <time>2017-06-25T09:22:10Z</time>
      </trkpt>
      <trkpt lat="69.233119999989867" lon="17.77624100446701">
        <ele>29.460000000000001</ele>
        <time>2017-06-25T09:22:19Z</time>
      </trkpt>
      <trkpt lat="69.232951020821929" lon="17.779357982799411">
        <ele>28.98</ele>
        <time>2017-06-25T09:22:25Z</time>
      </trkpt>
      <trkpt lat="69.233261989429593" lon="17.782416036352515">
        <ele>26.57</ele>
        <time>2017-06-25T09:22:31Z</time>
      </trkpt>
      <trkpt lat="69.234099006280303" lon="17.785433018580079">
        <ele>22.25</ele>
        <time>2017-06-25T09:22:38Z</time>
      </trkpt>
      <trkpt lat="69.235816039144993" lon="17.791399005800486">
        <ele>16.48</ele>
        <time>2017-06-25T09:22:52Z</time>
      </trkpt>
      <trkpt lat="69.236051989719272" lon="17.795029040426016">
        <ele>20.32</ele>
        <time>2017-06-25T09:22:59Z</time>
      </trkpt>
      <trkpt lat="69.236382991075516" lon="17.797879977151752">
        <ele>19.359999999999999</ele>
        <time>2017-06-25T09:23:05Z</time>
      </trkpt>
      <trkpt lat="69.236480975523591" lon="17.798280967399478">
        <ele>18.879999999999999</ele>
        <time>2017-06-25T09:23:06Z</time>
      </trkpt>
      <trkpt lat="69.236591029912233" lon="17.798664020374417">
        <ele>18.399999999999999</ele>
        <time>2017-06-25T09:23:07Z</time>
      </trkpt>
      <trkpt lat="69.237584033980966" lon="17.801901027560234">
        <ele>16</ele>
        <time>2017-06-25T09:23:15Z</time>
      </trkpt>
      <trkpt lat="69.2380899656564" lon="17.805455038323998">
        <ele>17.920000000000002</ele>
        <time>2017-06-25T09:23:22Z</time>
      </trkpt>
      <trkpt lat="69.238098012283444" lon="17.809470975771546">
        <ele>19.84</ele>
        <time>2017-06-25T09:23:29Z</time>
      </trkpt>
      <trkpt lat="69.237799029797316" lon="17.816672958433628">
        <ele>17.440000000000001</ele>
        <time>2017-06-25T09:23:42Z</time>
      </trkpt>
      <trkpt lat="69.236982967704535" lon="17.824568962678313">
        <ele>6.39</ele>
        <time>2017-06-25T09:23:56Z</time>
      </trkpt>
      <trkpt lat="69.236484998837113" lon="17.830389020964503">
        <ele>21.289999999999999</ele>
        <time>2017-06-25T09:24:07Z</time>
      </trkpt>
      <trkpt lat="69.23649899661541" lon="17.831629039719701">
        <ele>23.210000000000001</ele>
        <time>2017-06-25T09:24:11Z</time>
      </trkpt>
      <trkpt lat="69.236535038799047" lon="17.832689015194774">
        <ele>24.649999999999999</ele>
        <time>2017-06-25T09:24:21Z</time>
      </trkpt>
      <trkpt lat="69.236558005213737" lon="17.834211001172662">
        <ele>26.57</ele>
        <time>2017-06-25T09:24:34Z</time>
      </trkpt>
      <trkpt lat="69.23656596802175" lon="17.834756998345256">
        <ele>28.02</ele>
        <time>2017-06-25T09:24:42Z</time>
      </trkpt>
      <trkpt lat="69.236560016870499" lon="17.834885995835066">
        <ele>28.5</ele>
        <time>2017-06-25T09:24:53Z</time>
      </trkpt>
      <trkpt lat="69.236579965800047" lon="17.835654029622674">
        <ele>29.460000000000001</ele>
        <time>2017-06-25T09:25:02Z</time>
      </trkpt>
      <trkpt lat="69.236762020736933" lon="17.838773019611835">
        <ele>34.740000000000002</ele>
        <time>2017-06-25T09:25:13Z</time>
      </trkpt>
      <trkpt lat="69.237314974889159" lon="17.841239981353283">
        <ele>37.630000000000003</ele>
        <time>2017-06-25T09:25:21Z</time>
      </trkpt>
      <trkpt lat="69.2383489664644" lon="17.844931036233902">
        <ele>38.109999999999999</ele>
        <time>2017-06-25T09:25:32Z</time>
      </trkpt>
      <trkpt lat="69.239401984959841" lon="17.850527968257666">
        <ele>33.299999999999997</ele>
        <time>2017-06-25T09:25:45Z</time>
      </trkpt>
      <trkpt lat="69.239551015198231" lon="17.853755000978708">
        <ele>28.98</ele>
        <time>2017-06-25T09:25:52Z</time>
      </trkpt>
      <trkpt lat="69.239686969667673" lon="17.856181981042027">
        <ele>26.09</ele>
        <time>2017-06-25T09:25:58Z</time>
      </trkpt>
      <trkpt lat="69.239742960780859" lon="17.856541983783245">
        <ele>26.09</ele>
        <time>2017-06-25T09:25:59Z</time>
      </trkpt>
      <trkpt lat="69.239817978814244" lon="17.856872985139489">
        <ele>25.609999999999999</ele>
        <time>2017-06-25T09:26:00Z</time>
      </trkpt>
      <trkpt lat="69.240285018458962" lon="17.85938898101449">
        <ele>22.25</ele>
        <time>2017-06-25T09:26:07Z</time>
      </trkpt>
      <trkpt lat="69.240318965166807" lon="17.859825007617474">
        <ele>21.77</ele>
        <time>2017-06-25T09:26:08Z</time>
      </trkpt>
      <trkpt lat="69.240337992087007" lon="17.860278971493244">
        <ele>20.809999999999999</ele>
        <time>2017-06-25T09:26:09Z</time>
      </trkpt>
      <trkpt lat="69.240392977371812" lon="17.865382041782141">
        <ele>7.35</ele>
        <time>2017-06-25T09:26:21Z</time>
      </trkpt>
      <trkpt lat="69.240334974601865" lon="17.869332013651729">
        <ele>3.98</ele>
        <time>2017-06-25T09:26:31Z</time>
      </trkpt>
      <trkpt lat="69.239717982709408" lon="17.874236013740301">
        <ele>2.06</ele>
        <time>2017-06-25T09:26:42Z</time>
      </trkpt>
      <trkpt lat="69.238330023363233" lon="17.879374036565423">
        <ele>7.35</ele>
        <time>2017-06-25T09:26:56Z</time>
      </trkpt>
      <trkpt lat="69.237104002386332" lon="17.881891038268805">
        <ele>7.83</ele>
        <time>2017-06-25T09:27:05Z</time>
      </trkpt>
      <trkpt lat="69.236020976677537" lon="17.88347496651113">
        <ele>11.19</ele>
        <time>2017-06-25T09:27:12Z</time>
      </trkpt>
      <trkpt lat="69.235902037471533" lon="17.883760035037994">
        <ele>11.19</ele>
        <time>2017-06-25T09:27:13Z</time>
      </trkpt>
      <trkpt lat="69.235801035538316" lon="17.884078966453671">
        <ele>11.67</ele>
        <time>2017-06-25T09:27:14Z</time>
      </trkpt>
      <trkpt lat="69.235718976706266" lon="17.88443997502327">
        <ele>11.67</ele>
        <time>2017-06-25T09:27:15Z</time>
      </trkpt>
      <trkpt lat="69.235655022785068" lon="17.88482403382659">
        <ele>11.19</ele>
        <time>2017-06-25T09:27:16Z</time>
      </trkpt>
      <trkpt lat="69.235609006136656" lon="17.885231981053948">
        <ele>11.19</ele>
        <time>2017-06-25T09:27:17Z</time>
      </trkpt>
      <trkpt lat="69.235583022236824" lon="17.88566499017179">
        <ele>11.19</ele>
        <time>2017-06-25T09:27:18Z</time>
      </trkpt>
      <trkpt lat="69.235580004751682" lon="17.886104034259915">
        <ele>10.23</ele>
        <time>2017-06-25T09:27:19Z</time>
      </trkpt>
      <trkpt lat="69.235584028065205" lon="17.886564033105969">
        <ele>9.75</ele>
        <time>2017-06-25T09:27:20Z</time>
      </trkpt>
      <trkpt lat="69.235673965886235" lon="17.891998020932078">
        <ele>7.35</ele>
        <time>2017-06-25T09:27:31Z</time>
      </trkpt>
      <trkpt lat="69.235529964789748" lon="17.896566996350884">
        <ele>6.39</ele>
        <time>2017-06-25T09:27:40Z</time>
      </trkpt>
      <trkpt lat="69.23536098562181" lon="17.902988959103823">
        <ele>9.75</ele>
        <time>2017-06-25T09:27:55Z</time>
      </trkpt>
      <trkpt lat="69.235500041395426" lon="17.910685976967216">
        <ele>13.119999999999999</ele>
        <time>2017-06-25T09:28:13Z</time>
      </trkpt>
      <trkpt lat="69.235473973676562" lon="17.912344001233578">
        <ele>12.15</ele>
        <time>2017-06-25T09:28:17Z</time>
      </trkpt>
      <trkpt lat="69.235433991998434" lon="17.912750020623207">
        <ele>12.15</ele>
        <time>2017-06-25T09:28:18Z</time>
      </trkpt>
      <trkpt lat="69.235383030027151" lon="17.913156962022185">
        <ele>12.15</ele>
        <time>2017-06-25T09:28:19Z</time>
      </trkpt>
      <trkpt lat="69.235319998115301" lon="17.913548983633518">
        <ele>12.630000000000001</ele>
        <time>2017-06-25T09:28:20Z</time>
      </trkpt>
      <trkpt lat="69.235251015052199" lon="17.913944022729993">
        <ele>13.119999999999999</ele>
        <time>2017-06-25T09:28:21Z</time>
      </trkpt>
      <trkpt lat="69.234599992632866" lon="17.917708000168204">
        <ele>15.52</ele>
        <time>2017-06-25T09:28:31Z</time>
      </trkpt>
      <trkpt lat="69.234585994854569" lon="17.920638984069228">
        <ele>12.630000000000001</ele>
        <time>2017-06-25T09:28:38Z</time>
      </trkpt>
      <trkpt lat="69.234919007867575" lon="17.924992963671684">
        <ele>13.6</ele>
        <time>2017-06-25T09:28:50Z</time>
      </trkpt>
      <trkpt lat="69.235426029190421" lon="17.92805596254766">
        <ele>12.630000000000001</ele>
        <time>2017-06-25T09:29:02Z</time>
      </trkpt>
      <trkpt lat="69.235565001145005" lon="17.929002027958632">
        <ele>12.15</ele>
        <time>2017-06-25T09:29:08Z</time>
      </trkpt>
      <trkpt lat="69.235568018630147" lon="17.92910797521472">
        <ele>12.15</ele>
        <time>2017-06-25T09:29:09Z</time>
      </trkpt>
      <trkpt lat="69.235568018630147" lon="17.929219035431743">
        <ele>12.15</ele>
        <time>2017-06-25T09:29:10Z</time>
      </trkpt>
      <trkpt lat="69.235597020015121" lon="17.929933005943894">
        <ele>11.19</ele>
        <time>2017-06-25T09:29:21Z</time>
      </trkpt>
      <trkpt lat="69.235601965337992" lon="17.929977010935545">
        <ele>10.710000000000001</ele>
        <time>2017-06-25T09:29:52Z</time>
      </trkpt>
      <trkpt lat="69.235615041106939" lon="17.929979022592306">
        <ele>10.710000000000001</ele>
        <time>2017-06-25T09:30:36Z</time>
      </trkpt>
      <trkpt lat="69.23561898060143" lon="17.929985979571939">
        <ele>6.87</ele>
        <time>2017-06-25T09:31:53Z</time>
      </trkpt>
      <trkpt lat="69.235652005299926" lon="17.930006012320518">
        <ele>13.6</ele>
        <time>2017-06-25T09:33:46Z</time>
      </trkpt>
      <trkpt lat="69.235664997249842" lon="17.930034007877111">
        <ele>16.960000000000001</ele>
        <time>2017-06-25T09:34:59Z</time>
      </trkpt>
      <trkpt lat="69.235658040270209" lon="17.930021015927196">
        <ele>16.48</ele>
        <time>2017-06-25T09:36:30Z</time>
      </trkpt>
      <trkpt lat="69.23572501167655" lon="17.929919008165598">
        <ele>17.920000000000002</ele>
        <time>2017-06-25T09:38:19Z</time>
      </trkpt>
      <trkpt lat="69.235745966434479" lon="17.929892018437386">
        <ele>18.399999999999999</ele>
        <time>2017-06-25T09:38:54Z</time>
      </trkpt>
      <trkpt lat="69.235739009454846" lon="17.929893024265766">
        <ele>18.399999999999999</ele>
        <time>2017-06-25T09:40:48Z</time>
      </trkpt>
      <trkpt lat="69.235727023333311" lon="17.929885983467102">
        <ele>17.440000000000001</ele>
        <time>2017-06-25T09:42:58Z</time>
      </trkpt>
      <trkpt lat="69.235719982534647" lon="17.92987902648747">
        <ele>16.48</ele>
        <time>2017-06-25T09:44:38Z</time>
      </trkpt>
      <trkpt lat="69.235710008069873" lon="17.92988296598196">
        <ele>15.039999999999999</ele>
        <time>2017-06-25T09:46:50Z</time>
      </trkpt>
      <trkpt lat="69.235705984756351" lon="17.92987902648747">
        <ele>14.56</ele>
        <time>2017-06-25T09:48:07Z</time>
      </trkpt>
      <trkpt lat="69.235929027199745" lon="17.930513033643365">
        <ele>15.52</ele>
        <time>2017-06-25T09:48:16Z</time>
      </trkpt>
      <trkpt lat="69.23596297390759" lon="17.930650999769568">
        <ele>15.52</ele>
        <time>2017-06-25T09:48:17Z</time>
      </trkpt>
      <trkpt lat="69.236411992460489" lon="17.932450007647276">
        <ele>12.15</ele>
        <time>2017-06-25T09:48:25Z</time>
      </trkpt>
      <trkpt lat="69.237420000135899" lon="17.936244998127222">
        <ele>10.710000000000001</ele>
        <time>2017-06-25T09:48:38Z</time>
      </trkpt>
      <trkpt lat="69.238381991162896" lon="17.939586024731398">
        <ele>8.310000000000001</ele>
        <time>2017-06-25T09:48:50Z</time>
      </trkpt>
      <trkpt lat="69.239609017968178" lon="17.943625012412667">
        <ele>5.42</ele>
        <time>2017-06-25T09:49:03Z</time>
      </trkpt>
      <trkpt lat="69.240590035915375" lon="17.945344978943467">
        <ele>7.35</ele>
        <time>2017-06-25T09:49:11Z</time>
      </trkpt>
      <trkpt lat="69.242567997425795" lon="17.947522010654211">
        <ele>11.67</ele>
        <time>2017-06-25T09:49:26Z</time>
      </trkpt>
      <trkpt lat="69.244521986693144" lon="17.949008038267493">
        <ele>16</ele>
        <time>2017-06-25T09:49:42Z</time>
      </trkpt>
      <trkpt lat="69.244699012488127" lon="17.949195960536599">
        <ele>16</ele>
        <time>2017-06-25T09:49:44Z</time>
      </trkpt>
      <trkpt lat="69.244773024693131" lon="17.949311966076493">
        <ele>16</ele>
        <time>2017-06-25T09:49:45Z</time>
      </trkpt>
      <trkpt lat="69.244830021634698" lon="17.94945596717298">
        <ele>15.52</ele>
        <time>2017-06-25T09:49:46Z</time>
      </trkpt>
      <trkpt lat="69.244876960292459" lon="17.949628969654441">
        <ele>15.52</ele>
        <time>2017-06-25T09:49:47Z</time>
      </trkpt>
      <trkpt lat="69.244913002476096" lon="17.949833991006017">
        <ele>15.039999999999999</ele>
        <time>2017-06-25T09:49:48Z</time>
      </trkpt>
      <trkpt lat="69.24494300968945" lon="17.95007798820734">
        <ele>15.039999999999999</ele>
        <time>2017-06-25T09:49:49Z</time>
      </trkpt>
      <trkpt lat="69.24496203660965" lon="17.950344029814005">
        <ele>14.56</ele>
        <time>2017-06-25T09:49:50Z</time>
      </trkpt>
      <trkpt lat="69.244977962225676" lon="17.950632032006979">
        <ele>14.56</ele>
        <time>2017-06-25T09:49:51Z</time>
      </trkpt>
      <trkpt lat="69.244982991367579" lon="17.950930008664727">
        <ele>14.08</ele>
        <time>2017-06-25T09:49:52Z</time>
      </trkpt>
      <trkpt lat="69.244818035513163" lon="17.95480202883482">
        <ele>16</ele>
        <time>2017-06-25T09:50:04Z</time>
      </trkpt>
      <trkpt lat="69.24419199116528" lon="17.958548991009593">
        <ele>27.050000000000001</ele>
        <time>2017-06-25T09:50:15Z</time>
      </trkpt>
      <trkpt lat="69.243002012372017" lon="17.96331100165844">
        <ele>41.950000000000003</ele>
        <time>2017-06-25T09:50:30Z</time>
      </trkpt>
      <trkpt lat="69.241911023855209" lon="17.96760899014771">
        <ele>37.630000000000003</ele>
        <time>2017-06-25T09:50:43Z</time>
      </trkpt>
      <trkpt lat="69.240349978208542" lon="17.973788967356086">
        <ele>22.25</ele>
        <time>2017-06-25T09:51:00Z</time>
      </trkpt>
      <trkpt lat="69.238942991942167" lon="17.979233013466001">
        <ele>9.27</ele>
        <time>2017-06-25T09:51:18Z</time>
      </trkpt>
      <trkpt lat="69.238579971715808" lon="17.980031976476312">
        <ele>8.310000000000001</ele>
        <time>2017-06-25T09:51:22Z</time>
      </trkpt>
      <trkpt lat="69.238476036116481" lon="17.980172960087657">
        <ele>7.83</ele>
        <time>2017-06-25T09:51:23Z</time>
      </trkpt>
      <trkpt lat="69.238364975899458" lon="17.980269016698003">
        <ele>7.83</ele>
        <time>2017-06-25T09:51:24Z</time>
      </trkpt>
      <trkpt lat="69.238249976187944" lon="17.980335988104343">
        <ele>7.83</ele>
        <time>2017-06-25T09:51:25Z</time>
      </trkpt>
      <trkpt lat="69.238129025325179" lon="17.980373036116362">
        <ele>7.35</ele>
        <time>2017-06-25T09:51:26Z</time>
      </trkpt>
      <trkpt lat="69.238005978986621" lon="17.980386028066278">
        <ele>6.87</ele>
        <time>2017-06-25T09:51:27Z</time>
      </trkpt>
      <trkpt lat="69.237884022295475" lon="17.980375969782472">
        <ele>6.39</ele>
        <time>2017-06-25T09:51:28Z</time>
      </trkpt>
      <trkpt lat="69.237655028700829" lon="17.980315033346415">
        <ele>5.91</ele>
        <time>2017-06-25T09:51:30Z</time>
      </trkpt>
      <trkpt lat="69.237548997625709" lon="17.980239009484649">
        <ele>5.91</ele>
        <time>2017-06-25T09:51:31Z</time>
      </trkpt>
      <trkpt lat="69.237446989864111" lon="17.980124009773135">
        <ele>5.91</ele>
        <time>2017-06-25T09:51:32Z</time>
      </trkpt>
      <trkpt lat="69.237349005416036" lon="17.979969028383493">
        <ele>5.42</ele>
        <time>2017-06-25T09:51:33Z</time>
      </trkpt>
      <trkpt lat="69.237257977947593" lon="17.979773981496692">
        <ele>5.42</ele>
        <time>2017-06-25T09:51:34Z</time>
      </trkpt>
      <trkpt lat="69.237171979621053" lon="17.979548005387187">
        <ele>5.42</ele>
        <time>2017-06-25T09:51:35Z</time>
      </trkpt>
      <trkpt lat="69.237093022093177" lon="17.979289004579186">
        <ele>5.42</ele>
        <time>2017-06-25T09:51:36Z</time>
      </trkpt>
      <trkpt lat="69.237018004059792" lon="17.979012988507748">
        <ele>4.94</ele>
        <time>2017-06-25T09:51:37Z</time>
      </trkpt>
      <trkpt lat="69.236943991854787" lon="17.978714006021619">
        <ele>4.94</ele>
        <time>2017-06-25T09:51:38Z</time>
      </trkpt>
      <trkpt lat="69.236086020246148" lon="17.976164985448122">
        <ele>2.06</ele>
        <time>2017-06-25T09:51:48Z</time>
      </trkpt>
      <trkpt lat="69.235547985881567" lon="17.97424997203052">
        <ele>2.54</ele>
        <time>2017-06-25T09:51:56Z</time>
      </trkpt>
      <trkpt lat="69.235154036432505" lon="17.972796969115734">
        <ele>2.54</ele>
        <time>2017-06-25T09:52:01Z</time>
      </trkpt>
      <trkpt lat="69.235052028670907" lon="17.972561018541455">
        <ele>2.54</ele>
        <time>2017-06-25T09:52:02Z</time>
      </trkpt>
      <trkpt lat="69.234941974282265" lon="17.97235700301826">
        <ele>2.54</ele>
        <time>2017-06-25T09:52:03Z</time>
      </trkpt>
      <trkpt lat="69.234830997884274" lon="17.972171008586884">
        <ele>2.54</ele>
        <time>2017-06-25T09:52:04Z</time>
      </trkpt>
      <trkpt lat="69.234721027314663" lon="17.972009992226958">
        <ele>2.54</ele>
        <time>2017-06-25T09:52:05Z</time>
      </trkpt>
      <trkpt lat="69.234174024313688" lon="17.971270959824324">
        <ele>3.5</ele>
        <time>2017-06-25T09:52:10Z</time>
      </trkpt>
      <trkpt lat="69.234076961874962" lon="17.971210023388267">
        <ele>3.5</ele>
        <time>2017-06-25T09:52:11Z</time>
      </trkpt>
      <trkpt lat="69.233979983255267" lon="17.971192002296448">
        <ele>3.5</ele>
        <time>2017-06-25T09:52:12Z</time>
      </trkpt>
      <trkpt lat="69.233883004635572" lon="17.971232989802957">
        <ele>3.5</ele>
        <time>2017-06-25T09:52:13Z</time>
      </trkpt>
      <trkpt lat="69.233790971338749" lon="17.971326028928161">
        <ele>3.98</ele>
        <time>2017-06-25T09:52:14Z</time>
      </trkpt>
      <trkpt lat="69.23370597884059" lon="17.971473969519138">
        <ele>3.98</ele>
        <time>2017-06-25T09:52:15Z</time>
      </trkpt>
      <trkpt lat="69.233629032969475" lon="17.971659963950515">
        <ele>3.98</ele>
        <time>2017-06-25T09:52:16Z</time>
      </trkpt>
      <trkpt lat="69.233558960258961" lon="17.971889963373542">
        <ele>3.98</ele>
        <time>2017-06-25T09:52:17Z</time>
      </trkpt>
      <trkpt lat="69.233497017994523" lon="17.972150975838304">
        <ele>3.98</ele>
        <time>2017-06-25T09:52:18Z</time>
      </trkpt>
      <trkpt lat="69.233431974425912" lon="17.972421962767839">
        <ele>4.46</ele>
        <time>2017-06-25T09:52:19Z</time>
      </trkpt>
      <trkpt lat="69.233273975551128" lon="17.972923032939434">
        <ele>4.94</ele>
        <time>2017-06-25T09:52:21Z</time>
      </trkpt>
      <trkpt lat="69.233184959739447" lon="17.973145991563797">
        <ele>4.94</ele>
        <time>2017-06-25T09:52:22Z</time>
      </trkpt>
      <trkpt lat="69.232583977282047" lon="17.974158022552729">
        <ele>3.98</ele>
        <time>2017-06-25T09:52:28Z</time>
      </trkpt>
      <trkpt lat="69.232483981177211" lon="17.974229017272592">
        <ele>3.5</ele>
        <time>2017-06-25T09:52:29Z</time>
      </trkpt>
      <trkpt lat="69.232387002557516" lon="17.974261036142707">
        <ele>3.5</ele>
        <time>2017-06-25T09:52:30Z</time>
      </trkpt>
      <trkpt lat="69.23228801228106" lon="17.974242009222507">
        <ele>3.98</ele>
        <time>2017-06-25T09:52:31Z</time>
      </trkpt>
      <trkpt lat="69.232187010347843" lon="17.974193980917335">
        <ele>3.98</ele>
        <time>2017-06-25T09:52:32Z</time>
      </trkpt>
      <trkpt lat="69.232081985101104" lon="17.974121980369091">
        <ele>3.98</ele>
        <time>2017-06-25T09:52:33Z</time>
      </trkpt>
      <trkpt lat="69.231420988216996" lon="17.973694000393152">
        <ele>3.98</ele>
        <time>2017-06-25T09:52:39Z</time>
      </trkpt>
      <trkpt lat="69.231311017647386" lon="17.973700035363436">
        <ele>3.98</ele>
        <time>2017-06-25T09:52:40Z</time>
      </trkpt>
      <trkpt lat="69.231204986572266" lon="17.973744962364435">
        <ele>3.98</ele>
        <time>2017-06-25T09:52:41Z</time>
      </trkpt>
      <trkpt lat="69.23110700212419" lon="17.973831966519356">
        <ele>3.5</ele>
        <time>2017-06-25T09:52:42Z</time>
      </trkpt>
      <trkpt lat="69.231012035161257" lon="17.973958030343056">
        <ele>3.5</ele>
        <time>2017-06-25T09:52:43Z</time>
      </trkpt>
      <trkpt lat="69.230917990207672" lon="17.974114017561078">
        <ele>3.5</ele>
        <time>2017-06-25T09:52:44Z</time>
      </trkpt>
      <trkpt lat="69.23082897439599" lon="17.974305963143706">
        <ele>3.5</ele>
        <time>2017-06-25T09:52:45Z</time>
      </trkpt>
      <trkpt lat="69.230746999382973" lon="17.974531017243862">
        <ele>3.98</ele>
        <time>2017-06-25T09:52:46Z</time>
      </trkpt>
      <trkpt lat="69.230673993006349" lon="17.974779037758708">
        <ele>3.98</ele>
        <time>2017-06-25T09:52:47Z</time>
      </trkpt>
      <trkpt lat="69.230609033256769" lon="17.975028986111283">
        <ele>3.98</ele>
        <time>2017-06-25T09:52:48Z</time>
      </trkpt>
      <trkpt lat="69.230018025264144" lon="17.976904017850757">
        <ele>4.94</ele>
        <time>2017-06-25T09:52:56Z</time>
      </trkpt>
      <trkpt lat="69.229919034987688" lon="17.977065034210682">
        <ele>4.46</ele>
        <time>2017-06-25T09:52:57Z</time>
      </trkpt>
      <trkpt lat="69.229815015569329" lon="17.977189002558589">
        <ele>4.46</ele>
        <time>2017-06-25T09:52:58Z</time>
      </trkpt>
      <trkpt lat="69.229714013636112" lon="17.977283969521523">
        <ele>3.98</ele>
        <time>2017-06-25T09:52:59Z</time>
      </trkpt>
      <trkpt lat="69.229613011702895" lon="17.977367034181952">
        <ele>3.98</ele>
        <time>2017-06-25T09:53:00Z</time>
      </trkpt>
      <trkpt lat="69.229254014790058" lon="17.977505000308156">
        <ele>2.06</ele>
        <time>2017-06-25T09:53:04Z</time>
      </trkpt>
      <trkpt lat="69.229188971221447" lon="17.977483961731195">
        <ele>2.06</ele>
        <time>2017-06-25T09:53:05Z</time>
      </trkpt>
      <trkpt lat="69.229127028957009" lon="17.97744900919497">
        <ele>2.06</ele>
        <time>2017-06-25T09:53:06Z</time>
      </trkpt>
      <trkpt lat="69.229018986225128" lon="17.977397963404655">
        <ele>2.06</ele>
        <time>2017-06-25T09:53:08Z</time>
      </trkpt>
      <trkpt lat="69.228973975405097" lon="17.977409027516842">
        <ele>2.06</ele>
        <time>2017-06-25T09:53:09Z</time>
      </trkpt>
      <trkpt lat="69.228930976241827" lon="17.977460995316505">
        <ele>1.58</ele>
        <time>2017-06-25T09:53:10Z</time>
      </trkpt>
      <trkpt lat="69.228899041190743" lon="17.977552022784948">
        <ele>1.58</ele>
        <time>2017-06-25T09:53:11Z</time>
      </trkpt>
      <trkpt lat="69.228882025927305" lon="17.977673979476094">
        <ele>2.06</ele>
        <time>2017-06-25T09:53:12Z</time>
      </trkpt>
      <trkpt lat="69.228884959593415" lon="17.977807000279427">
        <ele>2.06</ele>
        <time>2017-06-25T09:53:13Z</time>
      </trkpt>
      <trkpt lat="69.228903986513615" lon="17.977940021082759">
        <ele>1.58</ele>
        <time>2017-06-25T09:53:14Z</time>
      </trkpt>
      <trkpt lat="69.228925025090575" lon="17.978079998865724">
        <ele>2.54</ele>
        <time>2017-06-25T09:53:15Z</time>
      </trkpt>
      <trkpt lat="69.228961989283562" lon="17.97820002771914">
        <ele>2.54</ele>
        <time>2017-06-25T09:53:16Z</time>
      </trkpt>
      <trkpt lat="69.228998031467199" lon="17.978300023823977">
        <ele>2.54</ele>
        <time>2017-06-25T09:53:17Z</time>
      </trkpt>
      <trkpt lat="69.229051005095243" lon="17.978563969954848">
        <ele>3.02</ele>
        <time>2017-06-25T09:53:19Z</time>
      </trkpt>
      <trkpt lat="69.229314029216766" lon="17.98062801361084">
        <ele>3.02</ele>
        <time>2017-06-25T09:53:28Z</time>
      </trkpt>
      <trkpt lat="69.22958199866116" lon="17.984272968024015">
        <ele>3.5</ele>
        <time>2017-06-25T09:53:42Z</time>
      </trkpt>
      <trkpt lat="69.229617035016418" lon="17.985316012054682">
        <ele>2.54</ele>
        <time>2017-06-25T09:53:46Z</time>
      </trkpt>
      <trkpt lat="69.22960496507585" lon="17.985571995377541">
        <ele>2.54</ele>
        <time>2017-06-25T09:53:47Z</time>
      </trkpt>
      <trkpt lat="69.229588033631444" lon="17.985819010064006">
        <ele>2.06</ele>
        <time>2017-06-25T09:53:48Z</time>
      </trkpt>
      <trkpt lat="69.229528019204736" lon="17.986734984442592">
        <ele>2.54</ele>
        <time>2017-06-25T09:53:52Z</time>
      </trkpt>
      <trkpt lat="69.229526007547975" lon="17.986969007179141">
        <ele>2.54</ele>
        <time>2017-06-25T09:53:53Z</time>
      </trkpt>
      <trkpt lat="69.229533970355988" lon="17.98720302991569">
        <ele>2.54</ele>
        <time>2017-06-25T09:53:54Z</time>
      </trkpt>
      <trkpt lat="69.229554003104568" lon="17.987430011853576">
        <ele>2.54</ele>
        <time>2017-06-25T09:53:55Z</time>
      </trkpt>
      <trkpt lat="69.229585016146302" lon="17.987657999619842">
        <ele>2.54</ele>
        <time>2017-06-25T09:53:56Z</time>
      </trkpt>
      <trkpt lat="69.229626003652811" lon="17.987874001264572">
        <ele>2.54</ele>
        <time>2017-06-25T09:53:57Z</time>
      </trkpt>
      <trkpt lat="69.229671014472842" lon="17.988073993474245">
        <ele>2.06</ele>
        <time>2017-06-25T09:53:58Z</time>
      </trkpt>
      <trkpt lat="69.22971099615097" lon="17.988269962370396">
        <ele>2.06</ele>
        <time>2017-06-25T09:53:59Z</time>
      </trkpt>
      <trkpt lat="69.229746032506227" lon="17.988459980115294">
        <ele>2.06</ele>
        <time>2017-06-25T09:54:00Z</time>
      </trkpt>
      <trkpt lat="69.229969996958971" lon="17.990904981270432">
        <ele>2.06</ele>
        <time>2017-06-25T09:54:10Z</time>
      </trkpt>
      <trkpt lat="69.230399988591671" lon="17.995356023311615">
        <ele>3.02</ele>
        <time>2017-06-25T09:54:27Z</time>
      </trkpt>
      <trkpt lat="69.230953026562929" lon="17.998377028852701">
        <ele>1.58</ele>
        <time>2017-06-25T09:54:39Z</time>
      </trkpt>
      <trkpt lat="69.23125896602869" lon="18.000958990305662">
        <ele>0.14</ele>
        <time>2017-06-25T09:54:48Z</time>
      </trkpt>
      <trkpt lat="69.231699015945196" lon="18.005061009898782">
        <ele>-0.82</ele>
        <time>2017-06-25T09:55:01Z</time>
      </trkpt>
      <trkpt lat="69.232048038393259" lon="18.008203972131014">
        <ele>-0.34</ele>
        <time>2017-06-25T09:55:10Z</time>
      </trkpt>
      <trkpt lat="69.232328999787569" lon="18.012167019769549">
        <ele>2.54</ele>
        <time>2017-06-25T09:55:19Z</time>
      </trkpt>
      <trkpt lat="69.233071971684694" lon="18.01674596965313">
        <ele>0.14</ele>
        <time>2017-06-25T09:55:29Z</time>
      </trkpt>
      <trkpt lat="69.233221001923084" lon="18.020886965095997">
        <ele>3.02</ele>
        <time>2017-06-25T09:55:37Z</time>
      </trkpt>
      <trkpt lat="69.233303982764482" lon="18.026514993980527">
        <ele>4.46</ele>
        <time>2017-06-25T09:55:48Z</time>
      </trkpt>
      <trkpt lat="69.233808992430568" lon="18.033025972545147">
        <ele>4.46</ele>
        <time>2017-06-25T09:56:02Z</time>
      </trkpt>
      <trkpt lat="69.234567973762751" lon="18.04218202829361">
        <ele>3.98</ele>
        <time>2017-06-25T09:56:22Z</time>
      </trkpt>
      <trkpt lat="69.234580965712667" lon="18.048109961673617">
        <ele>3.98</ele>
        <time>2017-06-25T09:56:35Z</time>
      </trkpt>
      <trkpt lat="69.234194979071617" lon="18.052662005648017">
        <ele>3.5</ele>
        <time>2017-06-25T09:56:45Z</time>
      </trkpt>
      <trkpt lat="69.233330972492695" lon="18.060122989118099">
        <ele>4.46</ele>
        <time>2017-06-25T09:57:02Z</time>
      </trkpt>
      <trkpt lat="69.232662012800574" lon="18.063787976279855">
        <ele>3.98</ele>
        <time>2017-06-25T09:57:11Z</time>
      </trkpt>
      <trkpt lat="69.231565995141864" lon="18.066449984908104">
        <ele>3.98</ele>
        <time>2017-06-25T09:57:20Z</time>
      </trkpt>
      <trkpt lat="69.230995019897819" lon="18.068047994747758">
        <ele>4.46</ele>
        <time>2017-06-25T09:57:25Z</time>
      </trkpt>
      <trkpt lat="69.230912961065769" lon="18.068447979167104">
        <ele>4.46</ele>
        <time>2017-06-25T09:57:26Z</time>
      </trkpt>
      <trkpt lat="69.23084800131619" lon="18.068876964971423">
        <ele>5.42</ele>
        <time>2017-06-25T09:57:27Z</time>
      </trkpt>
      <trkpt lat="69.230797039344907" lon="18.06931802071631">
        <ele>5.42</ele>
        <time>2017-06-25T09:57:28Z</time>
      </trkpt>
      <trkpt lat="69.230756973847747" lon="18.069767961278558">
        <ele>5.91</ele>
        <time>2017-06-25T09:57:29Z</time>
      </trkpt>
      <trkpt lat="69.230729984119534" lon="18.070233995094895">
        <ele>5.91</ele>
        <time>2017-06-25T09:57:30Z</time>
      </trkpt>
      <trkpt lat="69.230709029361606" lon="18.070705980062485">
        <ele>5.42</ele>
        <time>2017-06-25T09:57:31Z</time>
      </trkpt>
      <trkpt lat="69.230601992458105" lon="18.073665965348482">
        <ele>4.94</ele>
        <time>2017-06-25T09:57:37Z</time>
      </trkpt>
      <trkpt lat="69.23054801300168" lon="18.074139039963484">
        <ele>4.94</ele>
        <time>2017-06-25T09:57:38Z</time>
      </trkpt>
      <trkpt lat="69.230478024110198" lon="18.074601972475648">
        <ele>5.42</ele>
        <time>2017-06-25T09:57:39Z</time>
      </trkpt>
      <trkpt lat="69.230133024975657" lon="18.076814962550998">
        <ele>4.94</ele>
        <time>2017-06-25T09:57:44Z</time>
      </trkpt>
      <trkpt lat="69.2300979886204" lon="18.077268004417419">
        <ele>4.46</ele>
        <time>2017-06-25T09:57:45Z</time>
      </trkpt>
      <trkpt lat="69.230082985013723" lon="18.077735966071486">
        <ele>4.46</ele>
        <time>2017-06-25T09:57:46Z</time>
      </trkpt>
      <trkpt lat="69.230083990842104" lon="18.078205017372966">
        <ele>4.46</ele>
        <time>2017-06-25T09:57:47Z</time>
      </trkpt>
      <trkpt lat="69.230100000277162" lon="18.078667027875781">
        <ele>3.98</ele>
        <time>2017-06-25T09:57:48Z</time>
      </trkpt>
      <trkpt lat="69.230136964470148" lon="18.079125015065074">
        <ele>3.5</ele>
        <time>2017-06-25T09:57:49Z</time>
      </trkpt>
      <trkpt lat="69.230189016088843" lon="18.07956900447607">
        <ele>3.5</ele>
        <time>2017-06-25T09:57:50Z</time>
      </trkpt>
      <trkpt lat="69.230257999151945" lon="18.079992961138487">
        <ele>3.02</ele>
        <time>2017-06-25T09:57:51Z</time>
      </trkpt>
      <trkpt lat="69.230337962508202" lon="18.080413984134793">
        <ele>2.54</ele>
        <time>2017-06-25T09:57:52Z</time>
      </trkpt>
      <trkpt lat="69.230424966663122" lon="18.0808159802109">
        <ele>2.06</ele>
        <time>2017-06-25T09:57:53Z</time>
      </trkpt>
      <trkpt lat="69.231332978233695" lon="18.084824038669467">
        <ele>3.5</ele>
        <time>2017-06-25T09:58:04Z</time>
      </trkpt>
      <trkpt lat="69.232338974252343" lon="18.088717013597488">
        <ele>16</ele>
        <time>2017-06-25T09:58:17Z</time>
      </trkpt>
      <trkpt lat="69.233243968337774" lon="18.090078989043832">
        <ele>20.809999999999999</ele>
        <time>2017-06-25T09:58:24Z</time>
      </trkpt>
      <trkpt lat="69.234539978206158" lon="18.092090981081128">
        <ele>26.09</ele>
        <time>2017-06-25T09:58:33Z</time>
      </trkpt>
      <trkpt lat="69.23622197471559" lon="18.095572991296649">
        <ele>28.02</ele>
        <time>2017-06-25T09:58:46Z</time>
      </trkpt>
      <trkpt lat="69.237219002097845" lon="18.099451968446374">
        <ele>39.549999999999997</ele>
        <time>2017-06-25T09:58:56Z</time>
      </trkpt>
      <trkpt lat="69.237449001520872" lon="18.102651005610824">
        <ele>44.359999999999999</ele>
        <time>2017-06-25T09:59:03Z</time>
      </trkpt>
      <trkpt lat="69.237394016236067" lon="18.108083987608552">
        <ele>44.359999999999999</ele>
        <time>2017-06-25T09:59:14Z</time>
      </trkpt>
      <trkpt lat="69.237794000655413" lon="18.111800020560622">
        <ele>42.920000000000002</ele>
        <time>2017-06-25T09:59:22Z</time>
      </trkpt>
      <trkpt lat="69.239103002473712" lon="18.119239965453744">
        <ele>44.359999999999999</ele>
        <time>2017-06-25T09:59:38Z</time>
      </trkpt>
      <trkpt lat="69.240061976015568" lon="18.123372998088598">
        <ele>42.920000000000002</ele>
        <time>2017-06-25T09:59:48Z</time>
      </trkpt>
      <trkpt lat="69.240950038656592" lon="18.124663978815079">
        <ele>43.399999999999999</ele>
        <time>2017-06-25T09:59:54Z</time>
      </trkpt>
      <trkpt lat="69.242718033492565" lon="18.12625796534121">
        <ele>43.399999999999999</ele>
        <time>2017-06-25T10:00:05Z</time>
      </trkpt>
      <trkpt lat="69.243559995666146" lon="18.128585033118725">
        <ele>45.799999999999997</ele>
        <time>2017-06-25T10:00:12Z</time>
      </trkpt>
      <trkpt lat="69.244690965861082" lon="18.132136026397347">
        <ele>44.840000000000003</ele>
        <time>2017-06-25T10:00:22Z</time>
      </trkpt>
      <trkpt lat="69.246818963438272" lon="18.137414027005434">
        <ele>42.439999999999998</ele>
        <time>2017-06-25T10:00:38Z</time>
      </trkpt>
      <trkpt lat="69.248087983578444" lon="18.142568981274962">
        <ele>39.549999999999997</ele>
        <time>2017-06-25T10:00:51Z</time>
      </trkpt>
      <trkpt lat="69.249419029802084" lon="18.149063028395176">
        <ele>29.460000000000001</ele>
        <time>2017-06-25T10:01:05Z</time>
      </trkpt>
      <trkpt lat="69.25070196390152" lon="18.156196027994156">
        <ele>23.210000000000001</ele>
        <time>2017-06-25T10:01:20Z</time>
      </trkpt>
      <trkpt lat="69.251545015722513" lon="18.164101000875235">
        <ele>19.359999999999999</ele>
        <time>2017-06-25T10:01:36Z</time>
      </trkpt>
      <trkpt lat="69.251553984358907" lon="18.16778602078557">
        <ele>19.84</ele>
        <time>2017-06-25T10:01:44Z</time>
      </trkpt>
      <trkpt lat="69.251508973538876" lon="18.168175024911761">
        <ele>19.84</ele>
        <time>2017-06-25T10:01:45Z</time>
      </trkpt>
      <trkpt lat="69.251448959112167" lon="18.16853703930974">
        <ele>19.84</ele>
        <time>2017-06-25T10:01:46Z</time>
      </trkpt>
      <trkpt lat="69.251373019069433" lon="18.168867034837604">
        <ele>20.32</ele>
        <time>2017-06-25T10:01:47Z</time>
      </trkpt>
      <trkpt lat="69.25128199160099" lon="18.169186972081661">
        <ele>20.32</ele>
        <time>2017-06-25T10:01:48Z</time>
      </trkpt>
      <trkpt lat="69.251181995496154" lon="18.169480003416538">
        <ele>20.32</ele>
        <time>2017-06-25T10:01:49Z</time>
      </trkpt>
      <trkpt lat="69.251071019098163" lon="18.169746967032552">
        <ele>20.32</ele>
        <time>2017-06-25T10:01:50Z</time>
      </trkpt>
      <trkpt lat="69.250950990244746" lon="18.169973026961088">
        <ele>20.809999999999999</ele>
        <time>2017-06-25T10:01:51Z</time>
      </trkpt>
      <trkpt lat="69.250819981098175" lon="18.170145023614168">
        <ele>20.809999999999999</ele>
        <time>2017-06-25T10:01:52Z</time>
      </trkpt>
      <trkpt lat="69.250681009143591" lon="18.17027703858912">
        <ele>20.809999999999999</ele>
        <time>2017-06-25T10:01:53Z</time>
      </trkpt>
      <trkpt lat="69.250533990561962" lon="18.170363958925009">
        <ele>21.289999999999999</ele>
        <time>2017-06-25T10:01:54Z</time>
      </trkpt>
      <trkpt lat="69.250380015000701" lon="18.170422967523336">
        <ele>21.289999999999999</ele>
        <time>2017-06-25T10:01:55Z</time>
      </trkpt>
      <trkpt lat="69.250220004469156" lon="18.1704490352422">
        <ele>21.77</ele>
        <time>2017-06-25T10:01:56Z</time>
      </trkpt>
      <trkpt lat="69.250054964795709" lon="18.17045004107058">
        <ele>21.77</ele>
        <time>2017-06-25T10:01:57Z</time>
      </trkpt>
      <trkpt lat="69.24988598562777" lon="18.17042900249362">
        <ele>21.77</ele>
        <time>2017-06-25T10:01:58Z</time>
      </trkpt>
      <trkpt lat="69.247507033869624" lon="18.169706985354424">
        <ele>25.129999999999999</ele>
        <time>2017-06-25T10:02:11Z</time>
      </trkpt>
      <trkpt lat="69.244723990559578" lon="18.169374978169799">
        <ele>20.809999999999999</ele>
        <time>2017-06-25T10:02:25Z</time>
      </trkpt>
      <trkpt lat="69.241799963638186" lon="18.169433986768126">
        <ele>21.77</ele>
        <time>2017-06-25T10:02:40Z</time>
      </trkpt>
      <trkpt lat="69.239973966032267" lon="18.170749023556709">
        <ele>23.210000000000001</ele>
        <time>2017-06-25T10:02:49Z</time>
      </trkpt>
      <trkpt lat="69.235875969752669" lon="18.174500009045005">
        <ele>25.129999999999999</ele>
        <time>2017-06-25T10:03:09Z</time>
      </trkpt>
      <trkpt lat="69.234224986284971" lon="18.177344994619489">
        <ele>26.09</ele>
        <time>2017-06-25T10:03:18Z</time>
      </trkpt>
      <trkpt lat="69.23224501311779" lon="18.182242037728429">
        <ele>27.530000000000001</ele>
        <time>2017-06-25T10:03:31Z</time>
      </trkpt>
      <trkpt lat="69.228880014270544" lon="18.19228196516633">
        <ele>23.690000000000001</ele>
        <time>2017-06-25T10:03:55Z</time>
      </trkpt>
      <trkpt lat="69.227264989167452" lon="18.198674004524946">
        <ele>25.609999999999999</ele>
        <time>2017-06-25T10:04:09Z</time>
      </trkpt>
      <trkpt lat="69.225704027339816" lon="18.206854993477464">
        <ele>25.609999999999999</ele>
        <time>2017-06-25T10:04:26Z</time>
      </trkpt>
      <trkpt lat="69.223896972835064" lon="18.215649034827948">
        <ele>24.170000000000002</ele>
        <time>2017-06-25T10:04:44Z</time>
      </trkpt>
      <trkpt lat="69.222440030425787" lon="18.222423037514091">
        <ele>25.609999999999999</ele>
        <time>2017-06-25T10:04:59Z</time>
      </trkpt>
      <trkpt lat="69.2221699655056" lon="18.227041969075799">
        <ele>27.530000000000001</ele>
        <time>2017-06-25T10:05:08Z</time>
      </trkpt>
      <trkpt lat="69.222179017961025" lon="18.232850963249803">
        <ele>30.899999999999999</ele>
        <time>2017-06-25T10:05:19Z</time>
      </trkpt>
      <trkpt lat="69.222338022664189" lon="18.240956012159586">
        <ele>34.740000000000002</ele>
        <time>2017-06-25T10:05:35Z</time>
      </trkpt>
      <trkpt lat="69.222215982154012" lon="18.24708603322506">
        <ele>34.740000000000002</ele>
        <time>2017-06-25T10:05:46Z</time>
      </trkpt>
      <trkpt lat="69.222323019057512" lon="18.253962965682149">
        <ele>35.710000000000001</ele>
        <time>2017-06-25T10:05:58Z</time>
      </trkpt>
      <trkpt lat="69.223155006766319" lon="18.262060973793268">
        <ele>41.469999999999999</ele>
        <time>2017-06-25T10:06:13Z</time>
      </trkpt>
      <trkpt lat="69.22420802526176" lon="18.275998989120126">
        <ele>40.030000000000001</ele>
        <time>2017-06-25T10:06:38Z</time>
      </trkpt>
      <trkpt lat="69.225082006305456" lon="18.289053970947862">
        <ele>32.82</ele>
        <time>2017-06-25T10:07:01Z</time>
      </trkpt>
      <trkpt lat="69.225044036284089" lon="18.29536403529346">
        <ele>29.940000000000001</ele>
        <time>2017-06-25T10:07:12Z</time>
      </trkpt>
      <trkpt lat="69.22453198581934" lon="18.301595980301499">
        <ele>27.530000000000001</ele>
        <time>2017-06-25T10:07:23Z</time>
      </trkpt>
      <trkpt lat="69.22369203530252" lon="18.308136966079473">
        <ele>26.09</ele>
        <time>2017-06-25T10:07:35Z</time>
      </trkpt>
      <trkpt lat="69.223686000332236" lon="18.312318027019501">
        <ele>28.02</ele>
        <time>2017-06-25T10:07:42Z</time>
      </trkpt>
      <trkpt lat="69.223984982818365" lon="18.322878973558545">
        <ele>28.02</ele>
        <time>2017-06-25T10:07:59Z</time>
      </trkpt>
      <trkpt lat="69.22440399415791" lon="18.333080001175404">
        <ele>30.420000000000002</ele>
        <time>2017-06-25T10:08:15Z</time>
      </trkpt>
      <trkpt lat="69.225065996870399" lon="18.336727973073721">
        <ele>30.420000000000002</ele>
        <time>2017-06-25T10:08:22Z</time>
      </trkpt>
      <trkpt lat="69.226246001198888" lon="18.342928988859057">
        <ele>29.940000000000001</ele>
        <time>2017-06-25T10:08:34Z</time>
      </trkpt>
      <trkpt lat="69.227584004402161" lon="18.35393400862813">
        <ele>31.379999999999999</ele>
        <time>2017-06-25T10:08:52Z</time>
      </trkpt>
      <trkpt lat="69.227743009105325" lon="18.356927018612623">
        <ele>33.299999999999997</ele>
        <time>2017-06-25T10:08:58Z</time>
      </trkpt>
      <trkpt lat="69.227748960256577" lon="18.359386017546058">
        <ele>34.740000000000002</ele>
        <time>2017-06-25T10:09:03Z</time>
      </trkpt>
      <trkpt lat="69.227783996611834" lon="18.359858002513647">
        <ele>34.740000000000002</ele>
        <time>2017-06-25T10:09:04Z</time>
      </trkpt>
      <trkpt lat="69.227836970239878" lon="18.360324036329985">
        <ele>35.229999999999997</ele>
        <time>2017-06-25T10:09:05Z</time>
      </trkpt>
      <trkpt lat="69.22790402546525" lon="18.360779006034136">
        <ele>35.229999999999997</ele>
        <time>2017-06-25T10:09:06Z</time>
      </trkpt>
      <trkpt lat="69.227986000478268" lon="18.361211009323597">
        <ele>35.710000000000001</ele>
        <time>2017-06-25T10:09:07Z</time>
      </trkpt>
      <trkpt lat="69.228077027946711" lon="18.361633960157633">
        <ele>35.710000000000001</ele>
        <time>2017-06-25T10:09:08Z</time>
      </trkpt>
      <trkpt lat="69.228177024051547" lon="18.362032016739249">
        <ele>36.189999999999998</ele>
        <time>2017-06-25T10:09:09Z</time>
      </trkpt>
      <trkpt lat="69.228282971307635" lon="18.36242001503706">
        <ele>36.670000000000002</ele>
        <time>2017-06-25T10:09:10Z</time>
      </trkpt>
      <trkpt lat="69.228585977107286" lon="18.363588033244014">
        <ele>37.630000000000003</ele>
        <time>2017-06-25T10:09:13Z</time>
      </trkpt>
      <trkpt lat="69.228656971827149" lon="18.364009978249669">
        <ele>38.109999999999999</ele>
        <time>2017-06-25T10:09:14Z</time>
      </trkpt>
      <trkpt lat="69.228710029274225" lon="18.364446004852653">
        <ele>38.590000000000003</ele>
        <time>2017-06-25T10:09:15Z</time>
      </trkpt>
      <trkpt lat="69.228739030659199" lon="18.36491103284061">
        <ele>38.590000000000003</ele>
        <time>2017-06-25T10:09:16Z</time>
      </trkpt>
      <trkpt lat="69.228742970153689" lon="18.365381006151438">
        <ele>38.590000000000003</ele>
        <time>2017-06-25T10:09:17Z</time>
      </trkpt>
      <trkpt lat="69.228726960718632" lon="18.365860031917691">
        <ele>38.109999999999999</ele>
        <time>2017-06-25T10:09:18Z</time>
      </trkpt>
      <trkpt lat="69.228692008182406" lon="18.366339979693294">
        <ele>38.109999999999999</ele>
        <time>2017-06-25T10:09:19Z</time>
      </trkpt>
      <trkpt lat="69.228638028725982" lon="18.366821017116308">
        <ele>38.109999999999999</ele>
        <time>2017-06-25T10:09:20Z</time>
      </trkpt>
      <trkpt lat="69.22857197932899" lon="18.367273975163698">
        <ele>38.109999999999999</ele>
        <time>2017-06-25T10:09:21Z</time>
      </trkpt>
      <trkpt lat="69.228490004315972" lon="18.367740008980036">
        <ele>38.109999999999999</ele>
        <time>2017-06-25T10:09:22Z</time>
      </trkpt>
      <trkpt lat="69.228400988504291" lon="18.368216017261147">
        <ele>38.109999999999999</ele>
        <time>2017-06-25T10:09:23Z</time>
      </trkpt>
      <trkpt lat="69.227486019954085" lon="18.372164983302355">
        <ele>35.229999999999997</ele>
        <time>2017-06-25T10:09:31Z</time>
      </trkpt>
      <trkpt lat="69.226713040843606" lon="18.375861989334226">
        <ele>31.379999999999999</ele>
        <time>2017-06-25T10:09:39Z</time>
      </trkpt>
      <trkpt lat="69.226425038650632" lon="18.3806830085814">
        <ele>27.530000000000001</ele>
        <time>2017-06-25T10:09:48Z</time>
      </trkpt>
      <trkpt lat="69.226051038131118" lon="18.384329974651337">
        <ele>25.609999999999999</ele>
        <time>2017-06-25T10:09:55Z</time>
      </trkpt>
      <trkpt lat="69.22595095820725" lon="18.384760972112417">
        <ele>25.609999999999999</ele>
        <time>2017-06-25T10:09:56Z</time>
      </trkpt>
      <trkpt lat="69.225835036486387" lon="18.385176965966821">
        <ele>25.129999999999999</ele>
        <time>2017-06-25T10:09:57Z</time>
      </trkpt>
      <trkpt lat="69.224727032706141" lon="18.387689022347331">
        <ele>22.73</ele>
        <time>2017-06-25T10:10:04Z</time>
      </trkpt>
      <trkpt lat="69.223203035071492" lon="18.389594983309507">
        <ele>21.77</ele>
        <time>2017-06-25T10:10:12Z</time>
      </trkpt>
      <trkpt lat="69.221490025520325" lon="18.391805961728096">
        <ele>21.77</ele>
        <time>2017-06-25T10:10:22Z</time>
      </trkpt>
      <trkpt lat="69.219171004369855" lon="18.394900979474187">
        <ele>23.210000000000001</ele>
        <time>2017-06-25T10:10:34Z</time>
      </trkpt>
      <trkpt lat="69.218540014699101" lon="18.396335039287806">
        <ele>23.210000000000001</ele>
        <time>2017-06-25T10:10:38Z</time>
      </trkpt>
      <trkpt lat="69.218419985845685" lon="18.396763019263744">
        <ele>23.210000000000001</ele>
        <time>2017-06-25T10:10:39Z</time>
      </trkpt>
      <trkpt lat="69.218310015276074" lon="18.397207008674741">
        <ele>23.690000000000001</ele>
        <time>2017-06-25T10:10:40Z</time>
      </trkpt>
      <trkpt lat="69.218210019171238" lon="18.397657033056021">
        <ele>23.690000000000001</ele>
        <time>2017-06-25T10:10:41Z</time>
      </trkpt>
      <trkpt lat="69.218125026673079" lon="18.398123988881707">
        <ele>23.690000000000001</ele>
        <time>2017-06-25T10:10:42Z</time>
      </trkpt>
      <trkpt lat="69.218055037781596" lon="18.398618018254638">
        <ele>24.649999999999999</ele>
        <time>2017-06-25T10:10:43Z</time>
      </trkpt>
      <trkpt lat="69.217996029183269" lon="18.399114981293678">
        <ele>24.649999999999999</ele>
        <time>2017-06-25T10:10:44Z</time>
      </trkpt>
      <trkpt lat="69.217945989221334" lon="18.399626025930047">
        <ele>25.129999999999999</ele>
        <time>2017-06-25T10:10:45Z</time>
      </trkpt>
      <trkpt lat="69.217910030856729" lon="18.400140004232526">
        <ele>25.129999999999999</ele>
        <time>2017-06-25T10:10:46Z</time>
      </trkpt>
      <trkpt lat="69.217887986451387" lon="18.400667980313301">
        <ele>25.609999999999999</ele>
        <time>2017-06-25T10:10:47Z</time>
      </trkpt>
      <trkpt lat="69.217876000329852" lon="18.401210960000753">
        <ele>25.609999999999999</ele>
        <time>2017-06-25T10:10:48Z</time>
      </trkpt>
      <trkpt lat="69.217881029471755" lon="18.401766009628773">
        <ele>25.609999999999999</ele>
        <time>2017-06-25T10:10:49Z</time>
      </trkpt>
      <trkpt lat="69.217900978401303" lon="18.402327010408044">
        <ele>25.129999999999999</ele>
        <time>2017-06-25T10:10:50Z</time>
      </trkpt>
      <trkpt lat="69.21793601475656" lon="18.402892034500837">
        <ele>25.129999999999999</ele>
        <time>2017-06-25T10:10:51Z</time>
      </trkpt>
      <trkpt lat="69.21797901391983" lon="18.403454041108489">
        <ele>24.649999999999999</ele>
        <time>2017-06-25T10:10:52Z</time>
      </trkpt>
      <trkpt lat="69.218740006908774" lon="18.411795040592551">
        <ele>20.32</ele>
        <time>2017-06-25T10:11:06Z</time>
      </trkpt>
      <trkpt lat="69.219508962705731" lon="18.417807966470718">
        <ele>18.879999999999999</ele>
        <time>2017-06-25T10:11:16Z</time>
      </trkpt>
      <trkpt lat="69.221478961408138" lon="18.430801006034017">
        <ele>16.960000000000001</ele>
        <time>2017-06-25T10:11:38Z</time>
      </trkpt>
      <trkpt lat="69.222182035446167" lon="18.436272963881493">
        <ele>12.15</ele>
        <time>2017-06-25T10:11:48Z</time>
      </trkpt>
      <trkpt lat="69.22221003100276" lon="18.437366969883442">
        <ele>10.710000000000001</ele>
        <time>2017-06-25T10:11:50Z</time>
      </trkpt>
      <trkpt lat="69.222194021567702" lon="18.437914978712797">
        <ele>10.23</ele>
        <time>2017-06-25T10:11:51Z</time>
      </trkpt>
      <trkpt lat="69.222157979384065" lon="18.438459970057011">
        <ele>9.75</ele>
        <time>2017-06-25T10:11:52Z</time>
      </trkpt>
      <trkpt lat="69.222101988270879" lon="18.438991969451308">
        <ele>9.27</ele>
        <time>2017-06-25T10:11:53Z</time>
      </trkpt>
      <trkpt lat="69.222022024914622" lon="18.439504019916058">
        <ele>8.310000000000001</ele>
        <time>2017-06-25T10:11:54Z</time>
      </trkpt>
      <trkpt lat="69.221928985789418" lon="18.439994025975466">
        <ele>7.83</ele>
        <time>2017-06-25T10:11:55Z</time>
      </trkpt>
      <trkpt lat="69.221818009391427" lon="18.440445978194475">
        <ele>6.87</ele>
        <time>2017-06-25T10:11:56Z</time>
      </trkpt>
      <trkpt lat="69.22169404104352" lon="18.440868007019162">
        <ele>6.39</ele>
        <time>2017-06-25T10:11:57Z</time>
      </trkpt>
      <trkpt lat="69.221555991098285" lon="18.441260028630495">
        <ele>5.91</ele>
        <time>2017-06-25T10:11:58Z</time>
      </trkpt>
      <trkpt lat="69.221410984173417" lon="18.441636962816119">
        <ele>4.94</ele>
        <time>2017-06-25T10:11:59Z</time>
      </trkpt>
      <trkpt lat="69.219937026500702" lon="18.445435976609588">
        <ele>1.58</ele>
        <time>2017-06-25T10:12:10Z</time>
      </trkpt>
      <trkpt lat="69.218957014381886" lon="18.448563013225794">
        <ele>-1.79</ele>
        <time>2017-06-25T10:12:18Z</time>
      </trkpt>
      <trkpt lat="69.218016983941197" lon="18.453409010544419">
        <ele>0.62</ele>
        <time>2017-06-25T10:12:29Z</time>
      </trkpt>
      <trkpt lat="69.215964004397392" lon="18.461285987868905">
        <ele>-0.34</ele>
        <time>2017-06-25T10:12:49Z</time>
      </trkpt>
      <trkpt lat="69.214164996519685" lon="18.468166021630168">
        <ele>-5.15</ele>
        <time>2017-06-25T10:13:07Z</time>
      </trkpt>
      <trkpt lat="69.213607013225555" lon="18.470036024227738">
        <ele>-4.19</ele>
        <time>2017-06-25T10:13:13Z</time>
      </trkpt>
      <trkpt lat="69.213511040434241" lon="18.470166027545929">
        <ele>-4.67</ele>
        <time>2017-06-25T10:13:14Z</time>
      </trkpt>
      <trkpt lat="69.213412972167134" lon="18.470248002558947">
        <ele>-4.19</ele>
        <time>2017-06-25T10:13:15Z</time>
      </trkpt>
      <trkpt lat="69.213303001597524" lon="18.470282033085823">
        <ele>-4.67</ele>
        <time>2017-06-25T10:13:16Z</time>
      </trkpt>
      <trkpt lat="69.213190013542771" lon="18.47025596536696">
        <ele>-4.67</ele>
        <time>2017-06-25T10:13:17Z</time>
      </trkpt>
      <trkpt lat="69.213068978860974" lon="18.470198968425393">
        <ele>-4.19</ele>
        <time>2017-06-25T10:13:18Z</time>
      </trkpt>
      <trkpt lat="69.211823008954525" lon="18.46954501233995">
        <ele>-4.67</ele>
        <time>2017-06-25T10:13:26Z</time>
      </trkpt>
      <trkpt lat="69.209069972857833" lon="18.468173984438181">
        <ele>-4.19</ele>
        <time>2017-06-25T10:13:42Z</time>
      </trkpt>
      <trkpt lat="69.206090960651636" lon="18.466830030083656">
        <ele>0.14</ele>
        <time>2017-06-25T10:14:00Z</time>
      </trkpt>
      <trkpt lat="69.205385036766529" lon="18.466765992343426">
        <ele>-0.82</ele>
        <time>2017-06-25T10:14:04Z</time>
      </trkpt>
      <trkpt lat="69.205204993486404" lon="18.46686297096312">
        <ele>-1.3</ele>
        <time>2017-06-25T10:14:05Z</time>
      </trkpt>
      <trkpt lat="69.205024028196931" lon="18.467000015079975">
        <ele>-1.3</ele>
        <time>2017-06-25T10:14:06Z</time>
      </trkpt>
      <trkpt lat="69.204845996573567" lon="18.467170000076294">
        <ele>-1.79</ele>
        <time>2017-06-25T10:14:07Z</time>
      </trkpt>
      <trkpt lat="69.204671988263726" lon="18.467369992285967">
        <ele>-1.79</ele>
        <time>2017-06-25T10:14:08Z</time>
      </trkpt>
      <trkpt lat="69.203602038323879" lon="18.469315012916923">
        <ele>2.54</ele>
        <time>2017-06-25T10:14:15Z</time>
      </trkpt>
      <trkpt lat="69.201856004074216" lon="18.47251002676785">
        <ele>3.5</ele>
        <time>2017-06-25T10:14:26Z</time>
      </trkpt>
      <trkpt lat="69.200108963996172" lon="18.475403040647507">
        <ele>3.98</ele>
        <time>2017-06-25T10:14:37Z</time>
      </trkpt>
      <trkpt lat="69.197142021730542" lon="18.4802679810673">
        <ele>1.58</ele>
        <time>2017-06-25T10:14:55Z</time>
      </trkpt>
      <trkpt lat="69.194199973717332" lon="18.48510199226439">
        <ele>2.06</ele>
        <time>2017-06-25T10:15:13Z</time>
      </trkpt>
      <trkpt lat="69.19140201061964" lon="18.489615982398391">
        <ele>2.54</ele>
        <time>2017-06-25T10:15:31Z</time>
      </trkpt>
      <trkpt lat="69.188931025564671" lon="18.493723031133413">
        <ele>2.54</ele>
        <time>2017-06-25T10:15:47Z</time>
      </trkpt>
      <trkpt lat="69.18734097853303" lon="18.497388018295169">
        <ele>6.87</ele>
        <time>2017-06-25T10:15:58Z</time>
      </trkpt>
      <trkpt lat="69.185889987275004" lon="18.50076500326395">
        <ele>5.91</ele>
        <time>2017-06-25T10:16:06Z</time>
      </trkpt>
      <trkpt lat="69.18312999419868" lon="18.507346976548433">
        <ele>5.42</ele>
        <time>2017-06-25T10:16:21Z</time>
      </trkpt>
      <trkpt lat="69.181393012404442" lon="18.51131203584373">
        <ele>4.46</ele>
        <time>2017-06-25T10:16:31Z</time>
      </trkpt>
      <trkpt lat="69.179247999563813" lon="18.516158033162355">
        <ele>3.02</ele>
        <time>2017-06-25T10:16:44Z</time>
      </trkpt>
      <trkpt lat="69.177832966670394" lon="18.517889985814691">
        <ele>2.54</ele>
        <time>2017-06-25T10:16:52Z</time>
      </trkpt>
      <trkpt lat="69.175399029627442" lon="18.520167013630271">
        <ele>3.5</ele>
        <time>2017-06-25T10:17:04Z</time>
      </trkpt>
      <trkpt lat="69.17204400524497" lon="18.523460011929274">
        <ele>6.87</ele>
        <time>2017-06-25T10:17:19Z</time>
      </trkpt>
      <trkpt lat="69.170393021777272" lon="18.524975040927529">
        <ele>8.310000000000001</ele>
        <time>2017-06-25T10:17:26Z</time>
      </trkpt>
      <trkpt lat="69.167083008214831" lon="18.528170976787806">
        <ele>9.75</ele>
        <time>2017-06-25T10:17:42Z</time>
      </trkpt>
      <trkpt lat="69.164218995720148" lon="18.531013028696179">
        <ele>11.19</ele>
        <time>2017-06-25T10:17:56Z</time>
      </trkpt>
      <trkpt lat="69.16323303245008" lon="18.532995013520122">
        <ele>11.19</ele>
        <time>2017-06-25T10:18:02Z</time>
      </trkpt>
      <trkpt lat="69.160794988274574" lon="18.539816960692406">
        <ele>14.08</ele>
        <time>2017-06-25T10:18:18Z</time>
      </trkpt>
      <trkpt lat="69.15958397090435" lon="18.543071988970041">
        <ele>14.08</ele>
        <time>2017-06-25T10:18:25Z</time>
      </trkpt>
      <trkpt lat="69.157936004921794" lon="18.54728196747601">
        <ele>13.6</ele>
        <time>2017-06-25T10:18:36Z</time>
      </trkpt>
      <trkpt lat="69.157613972201943" lon="18.547729980200529">
        <ele>13.6</ele>
        <time>2017-06-25T10:18:38Z</time>
      </trkpt>
      <trkpt lat="69.157441975548863" lon="18.547894014045596">
        <ele>13.6</ele>
        <time>2017-06-25T10:18:39Z</time>
      </trkpt>
      <trkpt lat="69.157258998602629" lon="18.548013959079981">
        <ele>13.6</ele>
        <time>2017-06-25T10:18:40Z</time>
      </trkpt>
      <trkpt lat="69.157075015828013" lon="18.548091994598508">
        <ele>13.6</ele>
        <time>2017-06-25T10:18:41Z</time>
      </trkpt>
      <trkpt lat="69.156888015568256" lon="18.548129964619875">
        <ele>13.6</ele>
        <time>2017-06-25T10:18:42Z</time>
      </trkpt>
      <trkpt lat="69.15670202113688" lon="18.548114961013198">
        <ele>14.08</ele>
        <time>2017-06-25T10:18:43Z</time>
      </trkpt>
      <trkpt lat="69.156513009220362" lon="18.548081014305353">
        <ele>14.08</ele>
        <time>2017-06-25T10:18:44Z</time>
      </trkpt>
      <trkpt lat="69.153699036687613" lon="18.547764010727406">
        <ele>16.960000000000001</ele>
        <time>2017-06-25T10:18:59Z</time>
      </trkpt>
      <trkpt lat="69.152584997937083" lon="18.549000006169081">
        <ele>16.48</ele>
        <time>2017-06-25T10:19:05Z</time>
      </trkpt>
      <trkpt lat="69.14941999129951" lon="18.552770018577576">
        <ele>17.920000000000002</ele>
        <time>2017-06-25T10:19:20Z</time>
      </trkpt>
      <trkpt lat="69.145358959212899" lon="18.557432033121586">
        <ele>21.289999999999999</ele>
        <time>2017-06-25T10:19:40Z</time>
      </trkpt>
      <trkpt lat="69.145161984488368" lon="18.5575280059129">
        <ele>21.289999999999999</ele>
        <time>2017-06-25T10:19:41Z</time>
      </trkpt>
      <trkpt lat="69.143454004079103" lon="18.557921033352613">
        <ele>21.289999999999999</ele>
        <time>2017-06-25T10:19:49Z</time>
      </trkpt>
      <trkpt lat="69.140989976003766" lon="18.559480989351869">
        <ele>22.25</ele>
        <time>2017-06-25T10:20:00Z</time>
      </trkpt>
      <trkpt lat="69.139272021129727" lon="18.560582958161831">
        <ele>20.32</ele>
        <time>2017-06-25T10:20:07Z</time>
      </trkpt>
      <trkpt lat="69.137506037950516" lon="18.56158702634275">
        <ele>23.690000000000001</ele>
        <time>2017-06-25T10:20:15Z</time>
      </trkpt>
      <trkpt lat="69.136115983128548" lon="18.561964966356754">
        <ele>25.129999999999999</ele>
        <time>2017-06-25T10:20:22Z</time>
      </trkpt>
      <trkpt lat="69.135933006182313" lon="18.562087006866932">
        <ele>25.129999999999999</ele>
        <time>2017-06-25T10:20:23Z</time>
      </trkpt>
      <trkpt lat="69.135760003700852" lon="18.56225598603487">
        <ele>25.129999999999999</ele>
        <time>2017-06-25T10:20:24Z</time>
      </trkpt>
      <trkpt lat="69.135599993169308" lon="18.562473999336362">
        <ele>24.649999999999999</ele>
        <time>2017-06-25T10:20:25Z</time>
      </trkpt>
      <trkpt lat="69.135449035093188" lon="18.562724031507969">
        <ele>24.649999999999999</ele>
        <time>2017-06-25T10:20:26Z</time>
      </trkpt>
      <trkpt lat="69.135304028168321" lon="18.562981020659208">
        <ele>24.649999999999999</ele>
        <time>2017-06-25T10:20:27Z</time>
      </trkpt>
      <trkpt lat="69.1342500038445" lon="18.565002987161279">
        <ele>23.210000000000001</ele>
        <time>2017-06-25T10:20:35Z</time>
      </trkpt>
      <trkpt lat="69.134154031053185" lon="18.565329965204">
        <ele>23.210000000000001</ele>
        <time>2017-06-25T10:20:36Z</time>
      </trkpt>
      <trkpt lat="69.134067026898265" lon="18.56569298543036">
        <ele>22.73</ele>
        <time>2017-06-25T10:20:37Z</time>
      </trkpt>
      <trkpt lat="69.133986979722977" lon="18.566081989556551">
        <ele>22.25</ele>
        <time>2017-06-25T10:20:38Z</time>
      </trkpt>
      <trkpt lat="69.133913973346353" lon="18.5664870031178">
        <ele>21.289999999999999</ele>
        <time>2017-06-25T10:20:39Z</time>
      </trkpt>
      <trkpt lat="69.133849013596773" lon="18.566901991143823">
        <ele>20.32</ele>
        <time>2017-06-25T10:20:40Z</time>
      </trkpt>
      <trkpt lat="69.133643992245197" lon="18.570361034944654">
        <ele>19.359999999999999</ele>
        <time>2017-06-25T10:20:48Z</time>
      </trkpt>
      <trkpt lat="69.133754968643188" lon="18.57503604143858">
        <ele>19.359999999999999</ele>
        <time>2017-06-25T10:20:59Z</time>
      </trkpt>
      <trkpt lat="69.133500996977091" lon="18.578018993139267">
        <ele>18.879999999999999</ele>
        <time>2017-06-25T10:21:07Z</time>
      </trkpt>
      <trkpt lat="69.133013002574444" lon="18.579987986013293">
        <ele>18.879999999999999</ele>
        <time>2017-06-25T10:21:15Z</time>
      </trkpt>
      <trkpt lat="69.132742015644908" lon="18.580633979290724">
        <ele>16.960000000000001</ele>
        <time>2017-06-25T10:21:23Z</time>
      </trkpt>
      <trkpt lat="69.132679989561439" lon="18.580788038671017">
        <ele>17.440000000000001</ele>
        <time>2017-06-25T10:21:32Z</time>
      </trkpt>
      <trkpt lat="69.13257597014308" lon="18.581142006441951">
        <ele>17.440000000000001</ele>
        <time>2017-06-25T10:21:42Z</time>
      </trkpt>
      <trkpt lat="69.132584016770124" lon="18.58128902502358">
        <ele>17.440000000000001</ele>
        <time>2017-06-25T10:21:43Z</time>
      </trkpt>
      <trkpt lat="69.13261603564024" lon="18.581450963392854">
        <ele>17.440000000000001</ele>
        <time>2017-06-25T10:21:44Z</time>
      </trkpt>
      <trkpt lat="69.132666997611523" lon="18.58163301832974">
        <ele>17.440000000000001</ele>
        <time>2017-06-25T10:21:45Z</time>
      </trkpt>
      <trkpt lat="69.132737992331386" lon="18.581835022196174">
        <ele>16.960000000000001</ele>
        <time>2017-06-25T10:21:46Z</time>
      </trkpt>
      <trkpt lat="69.132818961516023" lon="18.582052029669285">
        <ele>16.960000000000001</ele>
        <time>2017-06-25T10:21:47Z</time>
      </trkpt>
      <trkpt lat="69.133550031110644" lon="18.584128981456161">
        <ele>15.52</ele>
        <time>2017-06-25T10:21:54Z</time>
      </trkpt>
      <trkpt lat="69.135076962411404" lon="18.588567031547427">
        <ele>13.6</ele>
        <time>2017-06-25T10:22:07Z</time>
      </trkpt>
      <trkpt lat="69.13689399138093" lon="18.592495964840055">
        <ele>8.310000000000001</ele>
        <time>2017-06-25T10:22:21Z</time>
      </trkpt>
      <trkpt lat="69.138813028112054" lon="18.595069963485003">
        <ele>0.62</ele>
        <time>2017-06-25T10:22:34Z</time>
      </trkpt>
      <trkpt lat="69.141418039798737" lon="18.59828501008451">
        <ele>-2.75</ele>
        <time>2017-06-25T10:22:52Z</time>
      </trkpt>
      <trkpt lat="69.142454965040088" lon="18.599615972489119">
        <ele>-3.23</ele>
        <time>2017-06-25T10:23:02Z</time>
      </trkpt>
      <trkpt lat="69.142559990286827" lon="18.599718986079097">
        <ele>-3.71</ele>
        <time>2017-06-25T10:23:04Z</time>
      </trkpt>
      <trkpt lat="69.142602989450097" lon="18.599727032706141">
        <ele>-3.71</ele>
        <time>2017-06-25T10:23:05Z</time>
      </trkpt>
      <trkpt lat="69.142649006098509" lon="18.599695013836026">
        <ele>-3.71</ele>
        <time>2017-06-25T10:23:06Z</time>
      </trkpt>
      <trkpt lat="69.142689993605018" lon="18.599619995802641">
        <ele>-3.71</ele>
        <time>2017-06-25T10:23:07Z</time>
      </trkpt>
      <trkpt lat="69.142727963626385" lon="18.599504996091127">
        <ele>-3.71</ele>
        <time>2017-06-25T10:23:08Z</time>
      </trkpt>
      <trkpt lat="69.142766017466784" lon="18.599366024136543">
        <ele>-4.19</ele>
        <time>2017-06-25T10:23:09Z</time>
      </trkpt>
      <trkpt lat="69.142805999144912" lon="18.599197966977954">
        <ele>-4.19</ele>
        <time>2017-06-25T10:23:10Z</time>
      </trkpt>
      <trkpt lat="69.143420979380608" lon="18.597566010430455">
        <ele>-3.23</ele>
        <time>2017-06-25T10:23:18Z</time>
      </trkpt>
      <trkpt lat="69.143502032384276" lon="18.597304997965693">
        <ele>-2.27</ele>
        <time>2017-06-25T10:23:19Z</time>
      </trkpt>
      <trkpt lat="69.143578978255391" lon="18.597025964409113">
        <ele>-2.27</ele>
        <time>2017-06-25T10:23:20Z</time>
      </trkpt>
      <trkpt lat="69.144231006503105" lon="18.594823032617569">
        <ele>-0.34</ele>
        <time>2017-06-25T10:23:29Z</time>
      </trkpt>
      <trkpt lat="69.144812040030956" lon="18.593066018074751">
        <ele>3.02</ele>
        <time>2017-06-25T10:23:36Z</time>
      </trkpt>
      <trkpt lat="69.144879011437297" lon="18.592772986739874">
        <ele>3.5</ele>
        <time>2017-06-25T10:23:37Z</time>
      </trkpt>
      <trkpt lat="69.144937014207244" lon="18.592465035617352">
        <ele>3.98</ele>
        <time>2017-06-25T10:23:38Z</time>
      </trkpt>
      <trkpt lat="69.145087972283363" lon="18.591531040146947">
        <ele>5.91</ele>
        <time>2017-06-25T10:23:41Z</time>
      </trkpt>
      <trkpt lat="69.145159972831607" lon="18.591286037117243">
        <ele>5.91</ele>
        <time>2017-06-25T10:23:42Z</time>
      </trkpt>
      <trkpt lat="69.145249994471669" lon="18.591087972745299">
        <ele>6.39</ele>
        <time>2017-06-25T10:23:43Z</time>
      </trkpt>
      <trkpt lat="69.145353008061647" lon="18.590933997184038">
        <ele>6.87</ele>
        <time>2017-06-25T10:23:44Z</time>
      </trkpt>
      <trkpt lat="69.145463984459639" lon="18.590818997472525">
        <ele>7.35</ele>
        <time>2017-06-25T10:23:45Z</time>
      </trkpt>
      <trkpt lat="69.145583007484674" lon="18.590719001367688">
        <ele>8.310000000000001</ele>
        <time>2017-06-25T10:23:46Z</time>
      </trkpt>
      <trkpt lat="69.14662797935307" lon="18.589300028979778">
        <ele>11.19</ele>
        <time>2017-06-25T10:23:54Z</time>
      </trkpt>
      <trkpt lat="69.148245016112924" lon="18.587668994441628">
        <ele>10.23</ele>
        <time>2017-06-25T10:24:04Z</time>
      </trkpt>
      <trkpt lat="69.150353986769915" lon="18.586703985929489">
        <ele>10.710000000000001</ele>
        <time>2017-06-25T10:24:15Z</time>
      </trkpt>
      <trkpt lat="69.153746981173754" lon="18.585269004106522">
        <ele>13.119999999999999</ele>
        <time>2017-06-25T10:24:31Z</time>
      </trkpt>
      <trkpt lat="69.156570006161928" lon="18.584021022543311">
        <ele>14.08</ele>
        <time>2017-06-25T10:24:44Z</time>
      </trkpt>
      <trkpt lat="69.158590966835618" lon="18.583162967115641">
        <ele>12.15</ele>
        <time>2017-06-25T10:24:55Z</time>
      </trkpt>
      <trkpt lat="69.160761963576078" lon="18.58215001411736">
        <ele>12.15</ele>
        <time>2017-06-25T10:25:08Z</time>
      </trkpt>
      <trkpt lat="69.163039997220039" lon="18.581148963421583">
        <ele>6.39</ele>
        <time>2017-06-25T10:25:21Z</time>
      </trkpt>
      <trkpt lat="69.165973998606205" lon="18.579898970201612">
        <ele>5.42</ele>
        <time>2017-06-25T10:25:38Z</time>
      </trkpt>
      <trkpt lat="69.169316031038761" lon="18.578392993658781">
        <ele>6.39</ele>
        <time>2017-06-25T10:25:57Z</time>
      </trkpt>
      <trkpt lat="69.172830982133746" lon="18.576874025166035">
        <ele>3.5</ele>
        <time>2017-06-25T10:26:17Z</time>
      </trkpt>
      <trkpt lat="69.177084965631366" lon="18.575053978711367">
        <ele>2.54</ele>
        <time>2017-06-25T10:26:41Z</time>
      </trkpt>
      <trkpt lat="69.178414000198245" lon="18.574989018961787">
        <ele>9.75</ele>
        <time>2017-06-25T10:26:49Z</time>
      </trkpt>
      <trkpt lat="69.179010037332773" lon="18.575487993657589">
        <ele>9.27</ele>
        <time>2017-06-25T10:26:53Z</time>
      </trkpt>
      <trkpt lat="69.179142974317074" lon="18.575712963938713">
        <ele>8.310000000000001</ele>
        <time>2017-06-25T10:26:54Z</time>
      </trkpt>
      <trkpt lat="69.179269038140774" lon="18.575984034687281">
        <ele>7.83</ele>
        <time>2017-06-25T10:26:55Z</time>
      </trkpt>
      <trkpt lat="69.180257013067603" lon="18.577747000381351">
        <ele>11.19</ele>
        <time>2017-06-25T10:27:02Z</time>
      </trkpt>
      <trkpt lat="69.180388022214174" lon="18.578008012846112">
        <ele>12.15</ele>
        <time>2017-06-25T10:27:03Z</time>
      </trkpt>
      <trkpt lat="69.18076797388494" lon="18.578709997236729">
        <ele>15.039999999999999</ele>
        <time>2017-06-25T10:27:06Z</time>
      </trkpt>
      <trkpt lat="69.180905018001795" lon="18.578846035525203">
        <ele>15.039999999999999</ele>
        <time>2017-06-25T10:27:07Z</time>
      </trkpt>
      <trkpt lat="69.181038038805127" lon="18.578899009153247">
        <ele>16</ele>
        <time>2017-06-25T10:27:08Z</time>
      </trkpt>
      <trkpt lat="69.181171981617808" lon="18.578861961141229">
        <ele>17.440000000000001</ele>
        <time>2017-06-25T10:27:09Z</time>
      </trkpt>
      <trkpt lat="69.181297961622477" lon="18.578765988349915">
        <ele>17.920000000000002</ele>
        <time>2017-06-25T10:27:10Z</time>
      </trkpt>
      <trkpt lat="69.181422013789415" lon="18.578600026667118">
        <ele>18.879999999999999</ele>
        <time>2017-06-25T10:27:11Z</time>
      </trkpt>
      <trkpt lat="69.181543970480561" lon="18.578373966738582">
        <ele>18.879999999999999</ele>
        <time>2017-06-25T10:27:12Z</time>
      </trkpt>
      <trkpt lat="69.181662993505597" lon="18.578123012557626">
        <ele>18.879999999999999</ele>
        <time>2017-06-25T10:27:13Z</time>
      </trkpt>
      <trkpt lat="69.182382998988032" lon="18.576803030446172">
        <ele>17.440000000000001</ele>
        <time>2017-06-25T10:27:19Z</time>
      </trkpt>
      <trkpt lat="69.182503027841449" lon="18.576691970229149">
        <ele>16.960000000000001</ele>
        <time>2017-06-25T10:27:20Z</time>
      </trkpt>
      <trkpt lat="69.182622972875834" lon="18.576643019914627">
        <ele>16.48</ele>
        <time>2017-06-25T10:27:21Z</time>
      </trkpt>
      <trkpt lat="69.182748030871153" lon="18.576621981337667">
        <ele>16</ele>
        <time>2017-06-25T10:27:22Z</time>
      </trkpt>
      <trkpt lat="69.182873005047441" lon="18.576631033793092">
        <ele>16</ele>
        <time>2017-06-25T10:27:23Z</time>
      </trkpt>
      <trkpt lat="69.182997979223728" lon="18.576649976894259">
        <ele>15.52</ele>
        <time>2017-06-25T10:27:24Z</time>
      </trkpt>
      <trkpt lat="69.183121025562286" lon="18.576647965237498">
        <ele>15.52</ele>
        <time>2017-06-25T10:27:25Z</time>
      </trkpt>
      <trkpt lat="69.18323703110218" lon="18.576603038236499">
        <ele>15.52</ele>
        <time>2017-06-25T10:27:26Z</time>
      </trkpt>
      <trkpt lat="69.18334499001503" lon="18.576501030474901">
        <ele>15.52</ele>
        <time>2017-06-25T10:27:27Z</time>
      </trkpt>
      <trkpt lat="69.183437023311853" lon="18.576341019943357">
        <ele>16</ele>
        <time>2017-06-25T10:27:28Z</time>
      </trkpt>
      <trkpt lat="69.183505000546575" lon="18.576117977499962">
        <ele>16</ele>
        <time>2017-06-25T10:27:29Z</time>
      </trkpt>
      <trkpt lat="69.183555040508509" lon="18.575858976691961">
        <ele>16.48</ele>
        <time>2017-06-25T10:27:30Z</time>
      </trkpt>
      <trkpt lat="69.183592004701495" lon="18.575550019741058">
        <ele>16.960000000000001</ele>
        <time>2017-06-25T10:27:31Z</time>
      </trkpt>
      <trkpt lat="69.18362402357161" lon="18.575237039476633">
        <ele>17.920000000000002</ele>
        <time>2017-06-25T10:27:32Z</time>
      </trkpt>
      <trkpt lat="69.183962987735868" lon="18.571543972939253">
        <ele>20.32</ele>
        <time>2017-06-25T10:27:42Z</time>
      </trkpt>
      <trkpt lat="69.184148982167244" lon="18.569690985605121">
        <ele>20.809999999999999</ele>
        <time>2017-06-25T10:27:48Z</time>
      </trkpt>
      <trkpt lat="69.18418301269412" lon="18.569570034742355">
        <ele>20.809999999999999</ele>
        <time>2017-06-25T10:27:49Z</time>
      </trkpt>
      <trkpt lat="69.184224000200629" lon="18.569505997002125">
        <ele>20.809999999999999</ele>
        <time>2017-06-25T10:27:50Z</time>
      </trkpt>
      <trkpt lat="69.184276973828673" lon="18.569484958425164">
        <ele>20.809999999999999</ele>
        <time>2017-06-25T10:27:51Z</time>
      </trkpt>
      <trkpt lat="69.184335982427001" lon="18.569528041407466">
        <ele>20.809999999999999</ele>
        <time>2017-06-25T10:27:52Z</time>
      </trkpt>
      <trkpt lat="69.184401025995612" lon="18.569614039734006">
        <ele>21.289999999999999</ele>
        <time>2017-06-25T10:27:53Z</time>
      </trkpt>
      <trkpt lat="69.184480989351869" lon="18.569737002253532">
        <ele>21.289999999999999</ele>
        <time>2017-06-25T10:27:54Z</time>
      </trkpt>
      <trkpt lat="69.185381038114429" lon="18.571173995733261">
        <ele>18.399999999999999</ele>
        <time>2017-06-25T10:28:02Z</time>
      </trkpt>
      <trkpt lat="69.187456984072924" lon="18.574426006525755">
        <ele>35.229999999999997</ele>
        <time>2017-06-25T10:28:17Z</time>
      </trkpt>
      <trkpt lat="69.188257958739996" lon="18.576636984944344">
        <ele>45.799999999999997</ele>
        <time>2017-06-25T10:28:24Z</time>
      </trkpt>
      <trkpt lat="69.189174016937613" lon="18.580801030620933">
        <ele>51.57</ele>
        <time>2017-06-25T10:28:34Z</time>
      </trkpt>
      <trkpt lat="69.190453011542559" lon="18.584075001999736">
        <ele>53.969999999999999</ele>
        <time>2017-06-25T10:28:43Z</time>
      </trkpt>
      <trkpt lat="69.192706989124417" lon="18.58932601287961">
        <ele>72.239999999999995</ele>
        <time>2017-06-25T10:28:58Z</time>
      </trkpt>
      <trkpt lat="69.194586966186762" lon="18.593799015507102">
        <ele>89.540000000000006</ele>
        <time>2017-06-25T10:29:11Z</time>
      </trkpt>
      <trkpt lat="69.197594979777932" lon="18.601233009248972">
        <ele>93.390000000000001</ele>
        <time>2017-06-25T10:29:31Z</time>
      </trkpt>
      <trkpt lat="69.200342986732721" lon="18.60812796279788">
        <ele>102.52</ele>
        <time>2017-06-25T10:29:49Z</time>
      </trkpt>
      <trkpt lat="69.201156031340361" lon="18.611080991104245">
        <ele>111.17</ele>
        <time>2017-06-25T10:29:57Z</time>
      </trkpt>
      <trkpt lat="69.201827002689242" lon="18.615631023421884">
        <ele>117.90000000000001</ele>
        <time>2017-06-25T10:30:08Z</time>
      </trkpt>
      <trkpt lat="69.202581038698554" lon="18.620685981586576">
        <ele>126.55</ele>
        <time>2017-06-25T10:30:21Z</time>
      </trkpt>
      <trkpt lat="69.203301966190338" lon="18.624234041199088">
        <ele>128.94999999999999</ele>
        <time>2017-06-25T10:30:31Z</time>
      </trkpt>
      <trkpt lat="69.204419022426009" lon="18.627672968432307">
        <ele>129.43000000000001</ele>
        <time>2017-06-25T10:30:41Z</time>
      </trkpt>
      <trkpt lat="69.205574970692396" lon="18.630952974781394">
        <ele>125.11</ele>
        <time>2017-06-25T10:30:51Z</time>
      </trkpt>
      <trkpt lat="69.206779031082988" lon="18.636054033413529">
        <ele>119.34</ele>
        <time>2017-06-25T10:31:03Z</time>
      </trkpt>
      <trkpt lat="69.208228010684252" lon="18.64237398840487">
        <ele>114.53</ele>
        <time>2017-06-25T10:31:19Z</time>
      </trkpt>
      <trkpt lat="69.209196036681533" lon="18.646701984107494">
        <ele>98.670000000000002</ele>
        <time>2017-06-25T10:31:30Z</time>
      </trkpt>
      <trkpt lat="69.210400013253093" lon="18.652906017377973">
        <ele>82.810000000000002</ele>
        <time>2017-06-25T10:31:43Z</time>
      </trkpt>
      <trkpt lat="69.211363010108471" lon="18.659989982843399">
        <ele>71.760000000000005</ele>
        <time>2017-06-25T10:31:59Z</time>
      </trkpt>
      <trkpt lat="69.212043033912778" lon="18.662393996492028">
        <ele>69.829999999999998</ele>
        <time>2017-06-25T10:32:07Z</time>
      </trkpt>
      <trkpt lat="69.213178027421236" lon="18.664862969890237">
        <ele>66.950000000000003</ele>
        <time>2017-06-25T10:32:17Z</time>
      </trkpt>
      <trkpt lat="69.214708982035518" lon="18.666497021913528">
        <ele>64.069999999999993</ele>
        <time>2017-06-25T10:32:27Z</time>
      </trkpt>
      <trkpt lat="69.216473959386349" lon="18.667958993464708">
        <ele>58.299999999999997</ele>
        <time>2017-06-25T10:32:38Z</time>
      </trkpt>
      <trkpt lat="69.218166014179587" lon="18.667949018999934">
        <ele>57.82</ele>
        <time>2017-06-25T10:32:49Z</time>
      </trkpt>
      <trkpt lat="69.220436001196504" lon="18.667481979355216">
        <ele>54.450000000000003</ele>
        <time>2017-06-25T10:33:02Z</time>
      </trkpt>
      <trkpt lat="69.221968967467546" lon="18.668078016489744">
        <ele>53.009999999999998</ele>
        <time>2017-06-25T10:33:11Z</time>
      </trkpt>
      <trkpt lat="69.224734995514154" lon="18.669941984117031">
        <ele>48.200000000000003</ele>
        <time>2017-06-25T10:33:28Z</time>
      </trkpt>
      <trkpt lat="69.227083018049598" lon="18.670917972922325">
        <ele>39.549999999999997</ele>
        <time>2017-06-25T10:33:41Z</time>
      </trkpt>
      <trkpt lat="69.231446972116828" lon="18.672287994995713">
        <ele>35.710000000000001</ele>
        <time>2017-06-25T10:34:03Z</time>
      </trkpt>
      <trkpt lat="69.232668969780207" lon="18.673625998198986">
        <ele>35.229999999999997</ele>
        <time>2017-06-25T10:34:10Z</time>
      </trkpt>
      <trkpt lat="69.233502969145775" lon="18.675981983542442">
        <ele>30.420000000000002</ele>
        <time>2017-06-25T10:34:16Z</time>
      </trkpt>
      <trkpt lat="69.235357968136668" lon="18.682511989027262">
        <ele>27.530000000000001</ele>
        <time>2017-06-25T10:34:31Z</time>
      </trkpt>
      <trkpt lat="69.236526992172003" lon="18.684154003858566">
        <ele>31.379999999999999</ele>
        <time>2017-06-25T10:34:38Z</time>
      </trkpt>
      <trkpt lat="69.238205971196294" lon="18.68489496409893">
        <ele>34.740000000000002</ele>
        <time>2017-06-25T10:34:47Z</time>
      </trkpt>
      <trkpt lat="69.240359030663967" lon="18.68545001372695">
        <ele>31.859999999999999</ele>
        <time>2017-06-25T10:34:58Z</time>
      </trkpt>
      <trkpt lat="69.240537984296679" lon="18.685368960723281">
        <ele>31.859999999999999</ele>
        <time>2017-06-25T10:34:59Z</time>
      </trkpt>
      <trkpt lat="69.240714004263282" lon="18.685228982940316">
        <ele>31.859999999999999</ele>
        <time>2017-06-25T10:35:00Z</time>
      </trkpt>
      <trkpt lat="69.24088298343122" lon="18.685047011822462">
        <ele>31.379999999999999</ele>
        <time>2017-06-25T10:35:01Z</time>
      </trkpt>
      <trkpt lat="69.241051040589809" lon="18.684810977429152">
        <ele>30.899999999999999</ele>
        <time>2017-06-25T10:35:02Z</time>
      </trkpt>
      <trkpt lat="69.241220019757748" lon="18.684532027691603">
        <ele>30.420000000000002</ele>
        <time>2017-06-25T10:35:03Z</time>
      </trkpt>
      <trkpt lat="69.241392016410828" lon="18.684217035770416">
        <ele>29.940000000000001</ele>
        <time>2017-06-25T10:35:04Z</time>
      </trkpt>
      <trkpt lat="69.243148025125265" lon="18.681310024112463">
        <ele>34.259999999999998</ele>
        <time>2017-06-25T10:35:14Z</time>
      </trkpt>
      <trkpt lat="69.24491903744638" lon="18.680148962885141">
        <ele>37.149999999999999</ele>
        <time>2017-06-25T10:35:23Z</time>
      </trkpt>
      <trkpt lat="69.246643027290702" lon="18.680280977860093">
        <ele>26.09</ele>
        <time>2017-06-25T10:35:31Z</time>
      </trkpt>
      <trkpt lat="69.248334998264909" lon="18.682091971859336">
        <ele>18.399999999999999</ele>
        <time>2017-06-25T10:35:39Z</time>
      </trkpt>
      <trkpt lat="69.250710010528564" lon="18.685434004291892">
        <ele>13.119999999999999</ele>
        <time>2017-06-25T10:35:51Z</time>
      </trkpt>
      <trkpt lat="69.25160201266408" lon="18.686340004205704">
        <ele>7.35</ele>
        <time>2017-06-25T10:35:57Z</time>
      </trkpt>
      <trkpt lat="69.251736039295793" lon="18.686355007812381">
        <ele>5.91</ele>
        <time>2017-06-25T10:35:58Z</time>
      </trkpt>
      <trkpt lat="69.251864030957222" lon="18.686317959800363">
        <ele>4.46</ele>
        <time>2017-06-25T10:35:59Z</time>
      </trkpt>
      <trkpt lat="69.251986993476748" lon="18.686258029192686">
        <ele>3.02</ele>
        <time>2017-06-25T10:36:00Z</time>
      </trkpt>
      <trkpt lat="69.25209796987474" lon="18.686167001724243">
        <ele>1.58</ele>
        <time>2017-06-25T10:36:01Z</time>
      </trkpt>
      <trkpt lat="69.25237700343132" lon="18.685974972322583">
        <ele>-2.27</ele>
        <time>2017-06-25T10:36:04Z</time>
      </trkpt>
      <trkpt lat="69.252453027293086" lon="18.685983018949628">
        <ele>-3.23</ele>
        <time>2017-06-25T10:36:05Z</time>
      </trkpt>
      <trkpt lat="69.252518992871046" lon="18.686044039204717">
        <ele>-4.19</ele>
        <time>2017-06-25T10:36:06Z</time>
      </trkpt>
      <trkpt lat="69.252562997862697" lon="18.686141017824411">
        <ele>-4.67</ele>
        <time>2017-06-25T10:36:07Z</time>
      </trkpt>
      <trkpt lat="69.252589987590909" lon="18.686284013092518">
        <ele>-5.63</ele>
        <time>2017-06-25T10:36:08Z</time>
      </trkpt>
      <trkpt lat="69.252599040046334" lon="18.686469001695514">
        <ele>-6.11</ele>
        <time>2017-06-25T10:36:09Z</time>
      </trkpt>
      <trkpt lat="69.252583030611277" lon="18.686689026653767">
        <ele>-6.59</ele>
        <time>2017-06-25T10:36:10Z</time>
      </trkpt>
      <trkpt lat="69.252550005912781" lon="18.686913996934891">
        <ele>-6.59</ele>
        <time>2017-06-25T10:36:11Z</time>
      </trkpt>
      <trkpt lat="69.252500971779227" lon="18.687162017449737">
        <ele>-7.07</ele>
        <time>2017-06-25T10:36:12Z</time>
      </trkpt>
      <trkpt lat="69.252444980666041" lon="18.687422024086118">
        <ele>-7.55</ele>
        <time>2017-06-25T10:36:13Z</time>
      </trkpt>
      <trkpt lat="69.252234008163214" lon="18.688728008419275">
        <ele>-7.07</ele>
        <time>2017-06-25T10:36:18Z</time>
      </trkpt>
      <trkpt lat="69.252220010384917" lon="18.689012993127108">
        <ele>-6.11</ele>
        <time>2017-06-25T10:36:19Z</time>
      </trkpt>
      <trkpt lat="69.252213975414634" lon="18.689334020018578">
        <ele>-5.63</ele>
        <time>2017-06-25T10:36:20Z</time>
      </trkpt>
      <trkpt lat="69.252223027870059" lon="18.689658986404538">
        <ele>-5.15</ele>
        <time>2017-06-25T10:36:21Z</time>
      </trkpt>
      <trkpt lat="69.252240965142846" lon="18.689988981932402">
        <ele>-3.71</ele>
        <time>2017-06-25T10:36:22Z</time>
      </trkpt>
      <trkpt lat="69.252475993707776" lon="18.694721991196275">
        <ele>-1.79</ele>
        <time>2017-06-25T10:36:34Z</time>
      </trkpt>
      <trkpt lat="69.252467025071383" lon="18.695165980607271">
        <ele>-2.27</ele>
        <time>2017-06-25T10:36:35Z</time>
      </trkpt>
      <trkpt lat="69.252444980666041" lon="18.695624973624945">
        <ele>-3.23</ele>
        <time>2017-06-25T10:36:36Z</time>
      </trkpt>
      <trkpt lat="69.252412961795926" lon="18.696076003834605">
        <ele>-3.71</ele>
        <time>2017-06-25T10:36:37Z</time>
      </trkpt>
      <trkpt lat="69.252371974289417" lon="18.696525022387505">
        <ele>-4.19</ele>
        <time>2017-06-25T10:36:38Z</time>
      </trkpt>
      <trkpt lat="69.252193020656705" lon="18.698720997199416">
        <ele>-7.07</ele>
        <time>2017-06-25T10:36:43Z</time>
      </trkpt>
      <trkpt lat="69.252187991514802" lon="18.699161969125271">
        <ele>-7.55</ele>
        <time>2017-06-25T10:36:44Z</time>
      </trkpt>
      <trkpt lat="69.25220400094986" lon="18.699606964364648">
        <ele>-7.55</ele>
        <time>2017-06-25T10:36:45Z</time>
      </trkpt>
      <trkpt lat="69.252239037305117" lon="18.700036033987999">
        <ele>-8.029999999999999</ele>
        <time>2017-06-25T10:36:46Z</time>
      </trkpt>
      <trkpt lat="69.252296034246683" lon="18.700458984822035">
        <ele>-8.51</ele>
        <time>2017-06-25T10:36:47Z</time>
      </trkpt>
      <trkpt lat="69.25237599760294" lon="18.700845977291465">
        <ele>-9</ele>
        <time>2017-06-25T10:36:48Z</time>
      </trkpt>
      <trkpt lat="69.252471970394254" lon="18.701207991689444">
        <ele>-9</ele>
        <time>2017-06-25T10:36:49Z</time>
      </trkpt>
      <trkpt lat="69.252576995640993" lon="18.701561037451029">
        <ele>-9</ele>
        <time>2017-06-25T10:36:50Z</time>
      </trkpt>
      <trkpt lat="69.252880001440644" lon="18.702657977119088">
        <ele>-6.11</ele>
        <time>2017-06-25T10:36:53Z</time>
      </trkpt>
      <trkpt lat="69.252959964796901" lon="18.703062990680337">
        <ele>-5.63</ele>
        <time>2017-06-25T10:36:54Z</time>
      </trkpt>
      <trkpt lat="69.253031965345144" lon="18.703503040596843">
        <ele>-5.63</ele>
        <time>2017-06-25T10:36:55Z</time>
      </trkpt>
      <trkpt lat="69.253577040508389" lon="18.707288978621364">
        <ele>-4.19</ele>
        <time>2017-06-25T10:37:03Z</time>
      </trkpt>
      <trkpt lat="69.253864958882332" lon="18.708876008167863">
        <ele>-2.75</ele>
        <time>2017-06-25T10:37:07Z</time>
      </trkpt>
      <trkpt lat="69.253965960815549" lon="18.709185970947146">
        <ele>-2.27</ele>
        <time>2017-06-25T10:37:08Z</time>
      </trkpt>
      <trkpt lat="69.254079032689333" lon="18.709453018382192">
        <ele>-2.27</ele>
        <time>2017-06-25T10:37:09Z</time>
      </trkpt>
      <trkpt lat="69.254207024350762" lon="18.7096649967134">
        <ele>-1.79</ele>
        <time>2017-06-25T10:37:10Z</time>
      </trkpt>
      <trkpt lat="69.254345996305346" lon="18.709827018901706">
        <ele>-2.27</ele>
        <time>2017-06-25T10:37:11Z</time>
      </trkpt>
      <trkpt lat="69.254499971866608" lon="18.70994595810771">
        <ele>-2.75</ele>
        <time>2017-06-25T10:37:12Z</time>
      </trkpt>
      <trkpt lat="69.254662999883294" lon="18.71003296226263">
        <ele>-3.71</ele>
        <time>2017-06-25T10:37:13Z</time>
      </trkpt>
      <trkpt lat="69.256266038864851" lon="18.710927981883287">
        <ele>-3.71</ele>
        <time>2017-06-25T10:37:22Z</time>
      </trkpt>
      <trkpt lat="69.257344035431743" lon="18.712343014776707">
        <ele>-1.3</ele>
        <time>2017-06-25T10:37:29Z</time>
      </trkpt>
      <trkpt lat="69.257504967972636" lon="18.71247704140842">
        <ele>-0.34</ele>
        <time>2017-06-25T10:37:30Z</time>
      </trkpt>
      <trkpt lat="69.259547973051667" lon="18.713757963851094">
        <ele>11.67</ele>
        <time>2017-06-25T10:37:42Z</time>
      </trkpt>
      <trkpt lat="69.262084001675248" lon="18.715022038668394">
        <ele>36.189999999999998</ele>
        <time>2017-06-25T10:37:56Z</time>
      </trkpt>
      <trkpt lat="69.263429967686534" lon="18.716307990252972">
        <ele>38.109999999999999</ele>
        <time>2017-06-25T10:38:04Z</time>
      </trkpt>
      <trkpt lat="69.265788970515132" lon="18.717802986502647">
        <ele>27.530000000000001</ele>
        <time>2017-06-25T10:38:16Z</time>
      </trkpt>
      <trkpt lat="69.267531987279654" lon="18.718638997524977">
        <ele>16</ele>
        <time>2017-06-25T10:38:25Z</time>
      </trkpt>
      <trkpt lat="69.26853203214705" lon="18.719469979405403">
        <ele>5.42</ele>
        <time>2017-06-25T10:38:31Z</time>
      </trkpt>
      <trkpt lat="69.268710985779762" lon="18.719486994668841">
        <ele>3.5</ele>
        <time>2017-06-25T10:38:32Z</time>
      </trkpt>
      <trkpt lat="69.268893962725997" lon="18.719431003555655">
        <ele>2.06</ele>
        <time>2017-06-25T10:38:33Z</time>
      </trkpt>
      <trkpt lat="69.269079035148025" lon="18.719317009672523">
        <ele>1.1</ele>
        <time>2017-06-25T10:38:34Z</time>
      </trkpt>
      <trkpt lat="69.26926402375102" lon="18.719151969999075">
        <ele>0.14</ele>
        <time>2017-06-25T10:38:35Z</time>
      </trkpt>
      <trkpt lat="69.269450018182397" lon="18.71896798722446">
        <ele>-0.34</ele>
        <time>2017-06-25T10:38:36Z</time>
      </trkpt>
      <trkpt lat="69.27192896604538" lon="18.716144040226936">
        <ele>2.54</ele>
        <time>2017-06-25T10:38:50Z</time>
      </trkpt>
      <trkpt lat="69.273055996745825" lon="18.715132009238005">
        <ele>5.42</ele>
        <time>2017-06-25T10:38:57Z</time>
      </trkpt>
      <trkpt lat="69.274545041844249" lon="18.715319009497762">
        <ele>13.119999999999999</ele>
        <time>2017-06-25T10:39:06Z</time>
      </trkpt>
      <trkpt lat="69.276006007567048" lon="18.715587984770536">
        <ele>17.440000000000001</ele>
        <time>2017-06-25T10:39:16Z</time>
      </trkpt>
      <trkpt lat="69.277172014117241" lon="18.716288963332772">
        <ele>8.789999999999999</ele>
        <time>2017-06-25T10:39:24Z</time>
      </trkpt>
      <trkpt lat="69.278538012877107" lon="18.716489039361477">
        <ele>2.06</ele>
        <time>2017-06-25T10:39:33Z</time>
      </trkpt>
      <trkpt lat="69.278957024216652" lon="18.716693976894021">
        <ele>-0.34</ele>
        <time>2017-06-25T10:39:39Z</time>
      </trkpt>
      <trkpt lat="69.278999017551541" lon="18.716657012701035">
        <ele>-0.82</ele>
        <time>2017-06-25T10:39:50Z</time>
      </trkpt>
      <trkpt lat="69.279138995334506" lon="18.716825991868973">
        <ele>-1.79</ele>
        <time>2017-06-25T10:40:40Z</time>
      </trkpt>
      <trkpt lat="69.279783982783556" lon="18.717650016769767">
        <ele>-5.63</ele>
        <time>2017-06-25T10:40:47Z</time>
      </trkpt>
      <trkpt lat="69.279983974993229" lon="18.717781025916338">
        <ele>-5.63</ele>
        <time>2017-06-25T10:40:49Z</time>
      </trkpt>
      <trkpt lat="69.280081959441304" lon="18.717784965410829">
        <ele>-5.63</ele>
        <time>2017-06-25T10:40:50Z</time>
      </trkpt>
      <trkpt lat="69.280186984688044" lon="18.717763004824519">
        <ele>-5.63</ele>
        <time>2017-06-25T10:40:51Z</time>
      </trkpt>
      <trkpt lat="69.280283041298389" lon="18.717709025368094">
        <ele>-6.11</ele>
        <time>2017-06-25T10:40:52Z</time>
      </trkpt>
      <trkpt lat="69.280371973291039" lon="18.717630989849567">
        <ele>-6.11</ele>
        <time>2017-06-25T10:40:53Z</time>
      </trkpt>
      <trkpt lat="69.280455037951469" lon="18.717516995966434">
        <ele>-6.59</ele>
        <time>2017-06-25T10:40:54Z</time>
      </trkpt>
      <trkpt lat="69.280537012964487" lon="18.717360002920032">
        <ele>-7.07</ele>
        <time>2017-06-25T10:40:55Z</time>
      </trkpt>
      <trkpt lat="69.280625022947788" lon="18.717173002660275">
        <ele>-7.55</ele>
        <time>2017-06-25T10:40:56Z</time>
      </trkpt>
      <trkpt lat="69.280709009617567" lon="18.716945014894009">
        <ele>-7.55</ele>
        <time>2017-06-25T10:40:57Z</time>
      </trkpt>
      <trkpt lat="69.280786039307714" lon="18.716686014086008">
        <ele>-7.55</ele>
        <time>2017-06-25T10:40:58Z</time>
      </trkpt>
      <trkpt lat="69.280846975743771" lon="18.716406980529428">
        <ele>-7.07</ele>
        <time>2017-06-25T10:40:59Z</time>
      </trkpt>
      <trkpt lat="69.280890980735421" lon="18.71611101552844">
        <ele>-6.59</ele>
        <time>2017-06-25T10:41:00Z</time>
      </trkpt>
      <trkpt lat="69.280921993777156" lon="18.715803986415267">
        <ele>-6.11</ele>
        <time>2017-06-25T10:41:01Z</time>
      </trkpt>
      <trkpt lat="69.280941020697355" lon="18.715477008372545">
        <ele>-6.11</ele>
        <time>2017-06-25T10:41:02Z</time>
      </trkpt>
      <trkpt lat="69.280953006818891" lon="18.715127985924482">
        <ele>-4.67</ele>
        <time>2017-06-25T10:41:03Z</time>
      </trkpt>
      <trkpt lat="69.280964992940426" lon="18.714764965698123">
        <ele>-4.19</ele>
        <time>2017-06-25T10:41:04Z</time>
      </trkpt>
      <trkpt lat="69.281254000961781" lon="18.711325032636523">
        <ele>-1.79</ele>
        <time>2017-06-25T10:41:13Z</time>
      </trkpt>
      <trkpt lat="69.281951962038875" lon="18.707549991086125">
        <ele>-1.3</ele>
        <time>2017-06-25T10:41:22Z</time>
      </trkpt>
      <trkpt lat="69.283162979409099" lon="18.703436991199851">
        <ele>-2.27</ele>
        <time>2017-06-25T10:41:33Z</time>
      </trkpt>
      <trkpt lat="69.283632030710578" lon="18.700180035084486">
        <ele>-2.75</ele>
        <time>2017-06-25T10:41:41Z</time>
      </trkpt>
      <trkpt lat="69.284332003444433" lon="18.696916038170457">
        <ele>-0.34</ele>
        <time>2017-06-25T10:41:50Z</time>
      </trkpt>
      <trkpt lat="69.285470014438033" lon="18.692866992205381">
        <ele>6.39</ele>
        <time>2017-06-25T10:42:02Z</time>
      </trkpt>
      <trkpt lat="69.285584008321166" lon="18.692642021924257">
        <ele>5.91</ele>
        <time>2017-06-25T10:42:03Z</time>
      </trkpt>
      <trkpt lat="69.285708982497454" lon="18.692449992522597">
        <ele>4.46</ele>
        <time>2017-06-25T10:42:04Z</time>
      </trkpt>
      <trkpt lat="69.285846026614308" lon="18.692280007526278">
        <ele>3.02</ele>
        <time>2017-06-25T10:42:05Z</time>
      </trkpt>
      <trkpt lat="69.285987010225654" lon="18.692121002823114">
        <ele>1.58</ele>
        <time>2017-06-25T10:42:06Z</time>
      </trkpt>
      <trkpt lat="69.286251962184906" lon="18.691754965111613">
        <ele>-1.3</ele>
        <time>2017-06-25T10:42:08Z</time>
      </trkpt>
      <trkpt lat="69.286366039887071" lon="18.691515997052193">
        <ele>-1.3</ele>
        <time>2017-06-25T10:42:09Z</time>
      </trkpt>
      <trkpt lat="69.286467963829637" lon="18.691234029829502">
        <ele>-0.34</ele>
        <time>2017-06-25T10:42:10Z</time>
      </trkpt>
      <trkpt lat="69.286555973812938" lon="18.690901016816497">
        <ele>0.62</ele>
        <time>2017-06-25T10:42:11Z</time>
      </trkpt>
      <trkpt lat="69.286636020988226" lon="18.690537996590137">
        <ele>1.58</ele>
        <time>2017-06-25T10:42:12Z</time>
      </trkpt>
      <trkpt lat="69.286712966859341" lon="18.690160978585482">
        <ele>2.06</ele>
        <time>2017-06-25T10:42:13Z</time>
      </trkpt>
      <trkpt lat="69.287056038156152" lon="18.688713004812598">
        <ele>2.54</ele>
        <time>2017-06-25T10:42:17Z</time>
      </trkpt>
      <trkpt lat="69.287163997069001" lon="18.688431959599257">
        <ele>2.06</ele>
        <time>2017-06-25T10:42:18Z</time>
      </trkpt>
      <trkpt lat="69.287286037579179" lon="18.688176982104778">
        <ele>1.1</ele>
        <time>2017-06-25T10:42:19Z</time>
      </trkpt>
      <trkpt lat="69.288543993607163" lon="18.68622500449419">
        <ele>1.1</ele>
        <time>2017-06-25T10:42:27Z</time>
      </trkpt>
      <trkpt lat="69.290654975920916" lon="18.683090005069971">
        <ele>11.19</ele>
        <time>2017-06-25T10:42:39Z</time>
      </trkpt>
      <trkpt lat="69.293298963457346" lon="18.67919703014195">
        <ele>14.08</ele>
        <time>2017-06-25T10:42:53Z</time>
      </trkpt>
      <trkpt lat="69.294969979673624" lon="18.677473962306976">
        <ele>17.920000000000002</ele>
        <time>2017-06-25T10:43:02Z</time>
      </trkpt>
      <trkpt lat="69.296178985387087" lon="18.675811998546124">
        <ele>16.48</ele>
        <time>2017-06-25T10:43:10Z</time>
      </trkpt>
      <trkpt lat="69.297372987493873" lon="18.672135025262833">
        <ele>18.399999999999999</ele>
        <time>2017-06-25T10:43:19Z</time>
      </trkpt>
      <trkpt lat="69.299154980108142" lon="18.666977975517511">
        <ele>19.84</ele>
        <time>2017-06-25T10:43:32Z</time>
      </trkpt>
      <trkpt lat="69.301311979070306" lon="18.661357993260026">
        <ele>11.67</ele>
        <time>2017-06-25T10:43:47Z</time>
      </trkpt>
      <trkpt lat="69.303076034411788" lon="18.656251989305019">
        <ele>16.48</ele>
        <time>2017-06-25T10:44:01Z</time>
      </trkpt>
      <trkpt lat="69.304186971858144" lon="18.653872031718493">
        <ele>19.84</ele>
        <time>2017-06-25T10:44:10Z</time>
      </trkpt>
      <trkpt lat="69.306017998605967" lon="18.651494001969695">
        <ele>20.809999999999999</ele>
        <time>2017-06-25T10:44:21Z</time>
      </trkpt>
      <trkpt lat="69.306182032451034" lon="18.651434993371367">
        <ele>21.289999999999999</ele>
        <time>2017-06-25T10:44:22Z</time>
      </trkpt>
      <trkpt lat="69.306341037154198" lon="18.651442034170032">
        <ele>21.289999999999999</ele>
        <time>2017-06-25T10:44:23Z</time>
      </trkpt>
      <trkpt lat="69.306499036028981" lon="18.65150598809123">
        <ele>21.77</ele>
        <time>2017-06-25T10:44:24Z</time>
      </trkpt>
      <trkpt lat="69.306650999933481" lon="18.651632973924279">
        <ele>22.25</ele>
        <time>2017-06-25T10:44:25Z</time>
      </trkpt>
      <trkpt lat="69.306797012686729" lon="18.65180597640574">
        <ele>23.210000000000001</ele>
        <time>2017-06-25T10:44:26Z</time>
      </trkpt>
      <trkpt lat="69.306940007954836" lon="18.652032958343625">
        <ele>23.690000000000001</ele>
        <time>2017-06-25T10:44:27Z</time>
      </trkpt>
      <trkpt lat="69.307077974081039" lon="18.652285002171993">
        <ele>24.170000000000002</ele>
        <time>2017-06-25T10:44:28Z</time>
      </trkpt>
      <trkpt lat="69.30720797739923" lon="18.652573004364967">
        <ele>24.649999999999999</ele>
        <time>2017-06-25T10:44:29Z</time>
      </trkpt>
      <trkpt lat="69.307333035394549" lon="18.652887996286154">
        <ele>25.129999999999999</ele>
        <time>2017-06-25T10:44:30Z</time>
      </trkpt>
      <trkpt lat="69.307453986257315" lon="18.653215980157256">
        <ele>26.09</ele>
        <time>2017-06-25T10:44:31Z</time>
      </trkpt>
      <trkpt lat="69.309262968599796" lon="18.658371018245816">
        <ele>23.210000000000001</ele>
        <time>2017-06-25T10:44:45Z</time>
      </trkpt>
      <trkpt lat="69.310667021200061" lon="18.662331970408559">
        <ele>9.27</ele>
        <time>2017-06-25T10:44:56Z</time>
      </trkpt>
      <trkpt lat="69.310929961502552" lon="18.662962960079312">
        <ele>5.91</ele>
        <time>2017-06-25T10:44:58Z</time>
      </trkpt>
      <trkpt lat="69.311069017276168" lon="18.663215003907681">
        <ele>4.46</ele>
        <time>2017-06-25T10:44:59Z</time>
      </trkpt>
      <trkpt lat="69.311211006715894" lon="18.663411978632212">
        <ele>4.46</ele>
        <time>2017-06-25T10:45:00Z</time>
      </trkpt>
      <trkpt lat="69.311351990327239" lon="18.663550028577447">
        <ele>3.98</ele>
        <time>2017-06-25T10:45:01Z</time>
      </trkpt>
      <trkpt lat="69.311496997252107" lon="18.66362102329731">
        <ele>3.98</ele>
        <time>2017-06-25T10:45:02Z</time>
      </trkpt>
      <trkpt lat="69.311645021662116" lon="18.663634015247226">
        <ele>3.5</ele>
        <time>2017-06-25T10:45:03Z</time>
      </trkpt>
      <trkpt lat="69.311793968081474" lon="18.663624040782452">
        <ele>3.02</ele>
        <time>2017-06-25T10:45:04Z</time>
      </trkpt>
      <trkpt lat="69.312399979680777" lon="18.66383702494204">
        <ele>-0.34</ele>
        <time>2017-06-25T10:45:08Z</time>
      </trkpt>
      <trkpt lat="69.312544986605644" lon="18.663991000503302">
        <ele>-1.3</ele>
        <time>2017-06-25T10:45:09Z</time>
      </trkpt>
      <trkpt lat="69.312689993530512" lon="18.664199039340019">
        <ele>-1.79</ele>
        <time>2017-06-25T10:45:10Z</time>
      </trkpt>
      <trkpt lat="69.312829971313477" lon="18.664453011006117">
        <ele>-2.75</ele>
        <time>2017-06-25T10:45:11Z</time>
      </trkpt>
      <trkpt lat="69.312963997945189" lon="18.664760962128639">
        <ele>-3.23</ele>
        <time>2017-06-25T10:45:12Z</time>
      </trkpt>
      <trkpt lat="69.313089977949858" lon="18.66510596126318">
        <ele>-3.23</ele>
        <time>2017-06-25T10:45:13Z</time>
      </trkpt>
      <trkpt lat="69.313209000974894" lon="18.665473004803061">
        <ele>-3.23</ele>
        <time>2017-06-25T10:45:14Z</time>
      </trkpt>
      <trkpt lat="69.313319977372885" lon="18.665868965908885">
        <ele>-3.71</ele>
        <time>2017-06-25T10:45:15Z</time>
      </trkpt>
      <trkpt lat="69.314174009487033" lon="18.668904975056648">
        <ele>-3.71</ele>
        <time>2017-06-25T10:45:23Z</time>
      </trkpt>
      <trkpt lat="69.314274005591869" lon="18.669141009449959">
        <ele>-4.19</ele>
        <time>2017-06-25T10:45:24Z</time>
      </trkpt>
      <trkpt lat="69.31438397616148" lon="18.669322980567813">
        <ele>-4.19</ele>
        <time>2017-06-25T10:45:25Z</time>
      </trkpt>
      <trkpt lat="69.314501993358135" lon="18.669465975835919">
        <ele>-4.19</ele>
        <time>2017-06-25T10:45:26Z</time>
      </trkpt>
      <trkpt lat="69.314634008333087" lon="18.669551974162459">
        <ele>-3.71</ele>
        <time>2017-06-25T10:45:27Z</time>
      </trkpt>
      <trkpt lat="69.314777003601193" lon="18.669621963053942">
        <ele>-3.23</ele>
        <time>2017-06-25T10:45:28Z</time>
      </trkpt>
      <trkpt lat="69.315517041832209" lon="18.670134013518691">
        <ele>-1.79</ele>
        <time>2017-06-25T10:45:33Z</time>
      </trkpt>
      <trkpt lat="69.31565199047327" lon="18.670343980193138">
        <ele>-1.3</ele>
        <time>2017-06-25T10:45:34Z</time>
      </trkpt>
      <trkpt lat="69.315777970477939" lon="18.670599041506648">
        <ele>-1.3</ele>
        <time>2017-06-25T10:45:35Z</time>
      </trkpt>
      <trkpt lat="69.315893976017833" lon="18.670903975144029">
        <ele>-0.82</ele>
        <time>2017-06-25T10:45:36Z</time>
      </trkpt>
      <trkpt lat="69.316004030406475" lon="18.671254003420472">
        <ele>0.14</ele>
        <time>2017-06-25T10:45:37Z</time>
      </trkpt>
      <trkpt lat="69.316106038168073" lon="18.671626998111606">
        <ele>0.62</ele>
        <time>2017-06-25T10:45:38Z</time>
      </trkpt>
      <trkpt lat="69.316203016787767" lon="18.672018013894558">
        <ele>1.58</ele>
        <time>2017-06-25T10:45:39Z</time>
      </trkpt>
      <trkpt lat="69.317518975585699" lon="18.677560966461897">
        <ele>13.119999999999999</ele>
        <time>2017-06-25T10:45:52Z</time>
      </trkpt>
      <trkpt lat="69.319000979885459" lon="18.683397034183145">
        <ele>30.899999999999999</ele>
        <time>2017-06-25T10:46:06Z</time>
      </trkpt>
      <trkpt lat="69.320393968373537" lon="18.687787977978587">
        <ele>19.84</ele>
        <time>2017-06-25T10:46:18Z</time>
      </trkpt>
      <trkpt lat="69.320703009143472" lon="18.690782999619842">
        <ele>13.6</ele>
        <time>2017-06-25T10:46:24Z</time>
      </trkpt>
      <trkpt lat="69.320909036323428" lon="18.695962009951472">
        <ele>2.54</ele>
        <time>2017-06-25T10:46:33Z</time>
      </trkpt>
      <trkpt lat="69.320985982194543" lon="18.704219022765756">
        <ele>3.5</ele>
        <time>2017-06-25T10:46:45Z</time>
      </trkpt>
      <trkpt lat="69.321059994399548" lon="18.710047965869308">
        <ele>7.83</ele>
        <time>2017-06-25T10:46:55Z</time>
      </trkpt>
      <trkpt lat="69.320953963324428" lon="18.715678006410599">
        <ele>6.39</ele>
        <time>2017-06-25T10:47:05Z</time>
      </trkpt>
      <trkpt lat="69.320584991946816" lon="18.72068895958364">
        <ele>-4.67</ele>
        <time>2017-06-25T10:47:14Z</time>
      </trkpt>
      <trkpt lat="69.320621034130454" lon="18.724973034113646">
        <ele>-1.3</ele>
        <time>2017-06-25T10:47:21Z</time>
      </trkpt>
      <trkpt lat="69.320632014423609" lon="18.729417035356164">
        <ele>3.98</ele>
        <time>2017-06-25T10:47:29Z</time>
      </trkpt>
      <trkpt lat="69.320607958361506" lon="18.734413990750909">
        <ele>-3.23</ele>
        <time>2017-06-25T10:47:38Z</time>
      </trkpt>
      <trkpt lat="69.321068963035941" lon="18.741043992340565">
        <ele>3.98</ele>
        <time>2017-06-25T10:47:50Z</time>
      </trkpt>
      <trkpt lat="69.321096958592534" lon="18.747924026101828">
        <ele>5.42</ele>
        <time>2017-06-25T10:48:02Z</time>
      </trkpt>
      <trkpt lat="69.321297034621239" lon="18.755107987672091">
        <ele>2.54</ele>
        <time>2017-06-25T10:48:14Z</time>
      </trkpt>
      <trkpt lat="69.321829034015536" lon="18.761227028444409">
        <ele>12.15</ele>
        <time>2017-06-25T10:48:25Z</time>
      </trkpt>
      <trkpt lat="69.322372013702989" lon="18.766534030437469">
        <ele>18.879999999999999</ele>
        <time>2017-06-25T10:48:35Z</time>
      </trkpt>
      <trkpt lat="69.32235399261117" lon="18.773448010906577">
        <ele>22.25</ele>
        <time>2017-06-25T10:48:47Z</time>
      </trkpt>
      <trkpt lat="69.32231199927628" lon="18.776165004819632">
        <ele>17.440000000000001</ele>
        <time>2017-06-25T10:48:52Z</time>
      </trkpt>
      <trkpt lat="69.322263970971107" lon="18.776657022535801">
        <ele>16.960000000000001</ele>
        <time>2017-06-25T10:48:53Z</time>
      </trkpt>
      <trkpt lat="69.322198005393147" lon="18.77712900750339">
        <ele>16.48</ele>
        <time>2017-06-25T10:48:54Z</time>
      </trkpt>
      <trkpt lat="69.322115024551749" lon="18.777555981650949">
        <ele>16.48</ele>
        <time>2017-06-25T10:48:55Z</time>
      </trkpt>
      <trkpt lat="69.322017962113023" lon="18.777937022969127">
        <ele>16.48</ele>
        <time>2017-06-25T10:48:56Z</time>
      </trkpt>
      <trkpt lat="69.321919977664948" lon="18.778242962434888">
        <ele>15.52</ele>
        <time>2017-06-25T10:48:57Z</time>
      </trkpt>
      <trkpt lat="69.321820987388492" lon="18.778517972677946">
        <ele>15.039999999999999</ele>
        <time>2017-06-25T10:48:58Z</time>
      </trkpt>
      <trkpt lat="69.320869976654649" lon="18.781180987134576">
        <ele>5.91</ele>
        <time>2017-06-25T10:49:06Z</time>
      </trkpt>
      <trkpt lat="69.320540986955166" lon="18.782152030616999">
        <ele>2.06</ele>
        <time>2017-06-25T10:49:09Z</time>
      </trkpt>
      <trkpt lat="69.320472003892064" lon="18.782451013103127">
        <ele>1.58</ele>
        <time>2017-06-25T10:49:10Z</time>
      </trkpt>
      <trkpt lat="69.320422969758511" lon="18.782762987539172">
        <ele>1.1</ele>
        <time>2017-06-25T10:49:11Z</time>
      </trkpt>
      <trkpt lat="69.320405032485723" lon="18.783102035522461">
        <ele>0.62</ele>
        <time>2017-06-25T10:49:12Z</time>
      </trkpt>
      <trkpt lat="69.320404026657343" lon="18.783454997465014">
        <ele>1.1</ele>
        <time>2017-06-25T10:49:13Z</time>
      </trkpt>
      <trkpt lat="69.32042196393013" lon="18.783836038783193">
        <ele>1.1</ele>
        <time>2017-06-25T10:49:14Z</time>
      </trkpt>
      <trkpt lat="69.320449959486723" lon="18.784244991838932">
        <ele>1.1</ele>
        <time>2017-06-25T10:49:15Z</time>
      </trkpt>
      <trkpt lat="69.320751959457994" lon="18.78862302750349">
        <ele>-0.34</ele>
        <time>2017-06-25T10:49:24Z</time>
      </trkpt>
      <trkpt lat="69.321289993822575" lon="18.796066995710135">
        <ele>0.14</ele>
        <time>2017-06-25T10:49:38Z</time>
      </trkpt>
      <trkpt lat="69.320982964709401" lon="18.801765013486147">
        <ele>6.87</ele>
        <time>2017-06-25T10:49:48Z</time>
      </trkpt>
      <trkpt lat="69.320724969729781" lon="18.807445010170341">
        <ele>13.119999999999999</ele>
        <time>2017-06-25T10:49:58Z</time>
      </trkpt>
      <trkpt lat="69.320743996649981" lon="18.807983966544271">
        <ele>13.6</ele>
        <time>2017-06-25T10:49:59Z</time>
      </trkpt>
      <trkpt lat="69.320842986926436" lon="18.81139699369669">
        <ele>18.399999999999999</ele>
        <time>2017-06-25T10:50:06Z</time>
      </trkpt>
      <trkpt lat="69.3204649630934" lon="18.816443989053369">
        <ele>21.77</ele>
        <time>2017-06-25T10:50:16Z</time>
      </trkpt>
      <trkpt lat="69.319798015058041" lon="18.821730958297849">
        <ele>22.73</ele>
        <time>2017-06-25T10:50:26Z</time>
      </trkpt>
      <trkpt lat="69.318982036784291" lon="18.824313003569841">
        <ele>24.170000000000002</ele>
        <time>2017-06-25T10:50:32Z</time>
      </trkpt>
      <trkpt lat="69.318504016846418" lon="18.825215985998511">
        <ele>23.690000000000001</ele>
        <time>2017-06-25T10:50:35Z</time>
      </trkpt>
      <trkpt lat="69.318343000486493" lon="18.825418995693326">
        <ele>23.210000000000001</ele>
        <time>2017-06-25T10:50:36Z</time>
      </trkpt>
      <trkpt lat="69.316757982596755" lon="18.826928995549679">
        <ele>17.440000000000001</ele>
        <time>2017-06-25T10:50:44Z</time>
      </trkpt>
      <trkpt lat="69.315261980518699" lon="18.828538991510868">
        <ele>16</ele>
        <time>2017-06-25T10:50:52Z</time>
      </trkpt>
      <trkpt lat="69.315128037706017" lon="18.828794974833727">
        <ele>16</ele>
        <time>2017-06-25T10:50:53Z</time>
      </trkpt>
      <trkpt lat="69.315003985539079" lon="18.829104015603662">
        <ele>16</ele>
        <time>2017-06-25T10:50:54Z</time>
      </trkpt>
      <trkpt lat="69.313791962340474" lon="18.832633970305324">
        <ele>14.08</ele>
        <time>2017-06-25T10:51:03Z</time>
      </trkpt>
      <trkpt lat="69.310669032856822" lon="18.841572012752295">
        <ele>8.789999999999999</ele>
        <time>2017-06-25T10:51:24Z</time>
      </trkpt>
      <trkpt lat="69.308082964271307" lon="18.848949009552598">
        <ele>9.75</ele>
        <time>2017-06-25T10:51:42Z</time>
      </trkpt>
      <trkpt lat="69.306438015773892" lon="18.853098973631859">
        <ele>-1.3</ele>
        <time>2017-06-25T10:51:53Z</time>
      </trkpt>
      <trkpt lat="69.304919969290495" lon="18.856376968324184">
        <ele>-8.029999999999999</ele>
        <time>2017-06-25T10:52:03Z</time>
      </trkpt>
      <trkpt lat="69.304828019812703" lon="18.856743006035686">
        <ele>-8.029999999999999</ele>
        <time>2017-06-25T10:52:04Z</time>
      </trkpt>
      <trkpt lat="69.304754007607698" lon="18.857131004333496">
        <ele>-7.55</ele>
        <time>2017-06-25T10:52:05Z</time>
      </trkpt>
      <trkpt lat="69.304707990959287" lon="18.857533000409603">
        <ele>-7.55</ele>
        <time>2017-06-25T10:52:06Z</time>
      </trkpt>
      <trkpt lat="69.304682007059455" lon="18.857960980385542">
        <ele>-7.07</ele>
        <time>2017-06-25T10:52:07Z</time>
      </trkpt>
      <trkpt lat="69.304674966260791" lon="18.858403963968158">
        <ele>-7.07</ele>
        <time>2017-06-25T10:52:08Z</time>
      </trkpt>
      <trkpt lat="69.30467396043241" lon="18.85885801166296">
        <ele>-7.07</ele>
        <time>2017-06-25T10:52:09Z</time>
      </trkpt>
      <trkpt lat="69.304687036201358" lon="18.859325973317027">
        <ele>-7.07</ele>
        <time>2017-06-25T10:52:10Z</time>
      </trkpt>
      <trkpt lat="69.304849980399013" lon="18.865609969943762">
        <ele>-2.75</ele>
        <time>2017-06-25T10:52:22Z</time>
      </trkpt>
      <trkpt lat="69.304831037297845" lon="18.866084972396493">
        <ele>-2.75</ele>
        <time>2017-06-25T10:52:23Z</time>
      </trkpt>
      <trkpt lat="69.304787032306194" lon="18.866540025919676">
        <ele>-2.27</ele>
        <time>2017-06-25T10:52:24Z</time>
      </trkpt>
      <trkpt lat="69.304720982909203" lon="18.866986026987433">
        <ele>-2.27</ele>
        <time>2017-06-25T10:52:25Z</time>
      </trkpt>
      <trkpt lat="69.304641019552946" lon="18.867433033883572">
        <ele>-2.27</ele>
        <time>2017-06-25T10:52:26Z</time>
      </trkpt>
      <trkpt lat="69.304553009569645" lon="18.867885991930962">
        <ele>-3.23</ele>
        <time>2017-06-25T10:52:27Z</time>
      </trkpt>
      <trkpt lat="69.304319992661476" lon="18.869341006502509">
        <ele>-5.15</ele>
        <time>2017-06-25T10:52:30Z</time>
      </trkpt>
      <trkpt lat="69.304276993498206" lon="18.869870994240046">
        <ele>-5.15</ele>
        <time>2017-06-25T10:52:31Z</time>
      </trkpt>
      <trkpt lat="69.304253021255136" lon="18.870423026382923">
        <ele>-5.15</ele>
        <time>2017-06-25T10:52:32Z</time>
      </trkpt>
      <trkpt lat="69.304257966578007" lon="18.875890960916877">
        <ele>-2.75</ele>
        <time>2017-06-25T10:52:41Z</time>
      </trkpt>
      <trkpt lat="69.30432896129787" lon="18.883432997390628">
        <ele>6.87</ele>
        <time>2017-06-25T10:52:54Z</time>
      </trkpt>
      <trkpt lat="69.304384030401707" lon="18.885762998834252">
        <ele>5.42</ele>
        <time>2017-06-25T10:52:59Z</time>
      </trkpt>
      <trkpt lat="69.304359974339604" lon="18.886171029880643">
        <ele>4.94</ele>
        <time>2017-06-25T10:53:00Z</time>
      </trkpt>
      <trkpt lat="69.304315969347954" lon="18.886527009308338">
        <ele>4.46</ele>
        <time>2017-06-25T10:53:01Z</time>
      </trkpt>
      <trkpt lat="69.304251009598374" lon="18.886826997622848">
        <ele>3.98</ele>
        <time>2017-06-25T10:53:02Z</time>
      </trkpt>
      <trkpt lat="69.304167022928596" lon="18.887083986774087">
        <ele>3.5</ele>
        <time>2017-06-25T10:53:03Z</time>
      </trkpt>
      <trkpt lat="69.304069960489869" lon="18.887307029217482">
        <ele>3.02</ele>
        <time>2017-06-25T10:53:04Z</time>
      </trkpt>
      <trkpt lat="69.3039630074054" lon="18.887515990063548">
        <ele>2.54</ele>
        <time>2017-06-25T10:53:05Z</time>
      </trkpt>
      <trkpt lat="69.303847001865506" lon="18.887722017243505">
        <ele>1.1</ele>
        <time>2017-06-25T10:53:06Z</time>
      </trkpt>
      <trkpt lat="69.30316798388958" lon="18.889010986313224">
        <ele>-3.23</ele>
        <time>2017-06-25T10:53:11Z</time>
      </trkpt>
      <trkpt lat="69.303048960864544" lon="18.889365959912539">
        <ele>-3.23</ele>
        <time>2017-06-25T10:53:12Z</time>
      </trkpt>
      <trkpt lat="69.302946031093597" lon="18.889773990958929">
        <ele>-2.75</ele>
        <time>2017-06-25T10:53:13Z</time>
      </trkpt>
      <trkpt lat="69.302861038595438" lon="18.890230972319841">
        <ele>-2.75</ele>
        <time>2017-06-25T10:53:14Z</time>
      </trkpt>
      <trkpt lat="69.302789960056543" lon="18.890725001692772">
        <ele>-2.75</ele>
        <time>2017-06-25T10:53:15Z</time>
      </trkpt>
      <trkpt lat="69.302725000306964" lon="18.891249038279057">
        <ele>-2.27</ele>
        <time>2017-06-25T10:53:16Z</time>
      </trkpt>
      <trkpt lat="69.301904998719692" lon="18.897363971918821">
        <ele>16.48</ele>
        <time>2017-06-25T10:53:27Z</time>
      </trkpt>
      <trkpt lat="69.301291024312377" lon="18.90111998654902">
        <ele>25.129999999999999</ele>
        <time>2017-06-25T10:53:35Z</time>
      </trkpt>
      <trkpt lat="69.300887016579509" lon="18.903287965804338">
        <ele>16.48</ele>
        <time>2017-06-25T10:53:41Z</time>
      </trkpt>
      <trkpt lat="69.300794983282685" lon="18.903516959398985">
        <ele>15.039999999999999</ele>
        <time>2017-06-25T10:53:42Z</time>
      </trkpt>
      <trkpt lat="69.300688030198216" lon="18.903709994629025">
        <ele>13.6</ele>
        <time>2017-06-25T10:53:43Z</time>
      </trkpt>
      <trkpt lat="69.300562972202897" lon="18.903873022645712">
        <ele>12.15</ele>
        <time>2017-06-25T10:53:44Z</time>
      </trkpt>
      <trkpt lat="69.300421988591552" lon="18.904009982943535">
        <ele>10.710000000000001</ele>
        <time>2017-06-25T10:53:45Z</time>
      </trkpt>
      <trkpt lat="69.300266001373529" lon="18.904136968776584">
        <ele>9.27</ele>
        <time>2017-06-25T10:53:46Z</time>
      </trkpt>
      <trkpt lat="69.299965007230639" lon="18.904515998438001">
        <ele>7.35</ele>
        <time>2017-06-25T10:53:48Z</time>
      </trkpt>
      <trkpt lat="69.299829974770546" lon="18.904755972325802">
        <ele>6.87</ele>
        <time>2017-06-25T10:53:49Z</time>
      </trkpt>
      <trkpt lat="69.299703994765878" lon="18.905022013932467">
        <ele>6.39</ele>
        <time>2017-06-25T10:53:50Z</time>
      </trkpt>
      <trkpt lat="69.299591006711125" lon="18.905314961448312">
        <ele>5.42</ele>
        <time>2017-06-25T10:53:51Z</time>
      </trkpt>
      <trkpt lat="69.299485981464386" lon="18.905630959197879">
        <ele>5.42</ele>
        <time>2017-06-25T10:53:52Z</time>
      </trkpt>
      <trkpt lat="69.299398977309465" lon="18.905962966382504">
        <ele>5.91</ele>
        <time>2017-06-25T10:53:53Z</time>
      </trkpt>
      <trkpt lat="69.299337035045028" lon="18.906321041285992">
        <ele>6.39</ele>
        <time>2017-06-25T10:53:54Z</time>
      </trkpt>
      <trkpt lat="69.299295963719487" lon="18.906697975471616">
        <ele>6.87</ele>
        <time>2017-06-25T10:53:55Z</time>
      </trkpt>
      <trkpt lat="69.299266040325165" lon="18.907068036496639">
        <ele>7.35</ele>
        <time>2017-06-25T10:53:56Z</time>
      </trkpt>
      <trkpt lat="69.298832025378942" lon="18.911351021379232">
        <ele>13.6</ele>
        <time>2017-06-25T10:54:06Z</time>
      </trkpt>
      <trkpt lat="69.298048987984657" lon="18.914845017716289">
        <ele>11.67</ele>
        <time>2017-06-25T10:54:14Z</time>
      </trkpt>
      <trkpt lat="69.297039974480867" lon="18.920504981651902">
        <ele>7.35</ele>
        <time>2017-06-25T10:54:25Z</time>
      </trkpt>
      <trkpt lat="69.296172028407454" lon="18.925760015845299">
        <ele>15.039999999999999</ele>
        <time>2017-06-25T10:54:36Z</time>
      </trkpt>
      <trkpt lat="69.296154007315636" lon="18.926185984164476">
        <ele>15.52</ele>
        <time>2017-06-25T10:54:37Z</time>
      </trkpt>
      <trkpt lat="69.296148978173733" lon="18.926627039909363">
        <ele>16</ele>
        <time>2017-06-25T10:54:38Z</time>
      </trkpt>
      <trkpt lat="69.296162975952029" lon="18.927081003785133">
        <ele>16.48</ele>
        <time>2017-06-25T10:54:39Z</time>
      </trkpt>
      <trkpt lat="69.296179991215467" lon="18.927553994581103">
        <ele>16.960000000000001</ele>
        <time>2017-06-25T10:54:40Z</time>
      </trkpt>
      <trkpt lat="69.296361040323973" lon="18.932926962152123">
        <ele>12.15</ele>
        <time>2017-06-25T10:54:51Z</time>
      </trkpt>
      <trkpt lat="69.296353999525309" lon="18.933338010683656">
        <ele>11.19</ele>
        <time>2017-06-25T10:54:52Z</time>
      </trkpt>
      <trkpt lat="69.296323992311954" lon="18.933728020638227">
        <ele>10.23</ele>
        <time>2017-06-25T10:54:53Z</time>
      </trkpt>
      <trkpt lat="69.296269007027149" lon="18.934108978137374">
        <ele>8.789999999999999</ele>
        <time>2017-06-25T10:54:54Z</time>
      </trkpt>
      <trkpt lat="69.296194994822145" lon="18.934483984485269">
        <ele>7.83</ele>
        <time>2017-06-25T10:54:55Z</time>
      </trkpt>
      <trkpt lat="69.296110002323985" lon="18.93487399443984">
        <ele>6.87</ele>
        <time>2017-06-25T10:54:56Z</time>
      </trkpt>
      <trkpt lat="69.295184975489974" lon="18.939000992104411">
        <ele>-3.23</ele>
        <time>2017-06-25T10:55:05Z</time>
      </trkpt>
      <trkpt lat="69.293892988935113" lon="18.944581998512149">
        <ele>-4.19</ele>
        <time>2017-06-25T10:55:18Z</time>
      </trkpt>
      <trkpt lat="69.293789975345135" lon="18.944839993491769">
        <ele>-4.19</ele>
        <time>2017-06-25T10:55:19Z</time>
      </trkpt>
      <trkpt lat="69.293681010603905" lon="18.945044009014964">
        <ele>-3.71</ele>
        <time>2017-06-25T10:55:20Z</time>
      </trkpt>
      <trkpt lat="69.293567016720772" lon="18.945151967927814">
        <ele>-4.19</ele>
        <time>2017-06-25T10:55:21Z</time>
      </trkpt>
      <trkpt lat="69.29345796816051" lon="18.945176023989916">
        <ele>-4.19</ele>
        <time>2017-06-25T10:55:22Z</time>
      </trkpt>
      <trkpt lat="69.293357972055674" lon="18.945115003734827">
        <ele>-3.71</ele>
        <time>2017-06-25T10:55:23Z</time>
      </trkpt>
      <trkpt lat="69.293261999264359" lon="18.944985000416636">
        <ele>-3.23</ele>
        <time>2017-06-25T10:55:24Z</time>
      </trkpt>
      <trkpt lat="69.293162003159523" lon="18.944810992106795">
        <ele>-3.71</ele>
        <time>2017-06-25T10:55:25Z</time>
      </trkpt>
      <trkpt lat="69.293056977912784" lon="18.944590967148542">
        <ele>-3.71</ele>
        <time>2017-06-25T10:55:26Z</time>
      </trkpt>
      <trkpt lat="69.292944995686412" lon="18.944381000474095">
        <ele>-3.71</ele>
        <time>2017-06-25T10:55:27Z</time>
      </trkpt>
      <trkpt lat="69.292820021510124" lon="18.944228030741215">
        <ele>-4.67</ele>
        <time>2017-06-25T10:55:28Z</time>
      </trkpt>
      <trkpt lat="69.292684989050031" lon="18.944131974130869">
        <ele>-4.67</ele>
        <time>2017-06-25T10:55:29Z</time>
      </trkpt>
      <trkpt lat="69.292536964640021" lon="18.944103978574276">
        <ele>-5.15</ele>
        <time>2017-06-25T10:55:30Z</time>
      </trkpt>
      <trkpt lat="69.292383994907141" lon="18.944142032414675">
        <ele>-6.11</ele>
        <time>2017-06-25T10:55:31Z</time>
      </trkpt>
      <trkpt lat="69.292225996032357" lon="18.944230964407325">
        <ele>-6.59</ele>
        <time>2017-06-25T10:55:32Z</time>
      </trkpt>
      <trkpt lat="69.292064979672432" lon="18.944343030452728">
        <ele>-7.55</ele>
        <time>2017-06-25T10:55:33Z</time>
      </trkpt>
      <trkpt lat="69.290695963427424" lon="18.945626970380545">
        <ele>-7.55</ele>
        <time>2017-06-25T10:55:42Z</time>
      </trkpt>
      <trkpt lat="69.290584987029433" lon="18.945662006735802">
        <ele>-7.55</ele>
        <time>2017-06-25T10:55:43Z</time>
      </trkpt>
      <trkpt lat="69.290481973439455" lon="18.945616995915771">
        <ele>-7.55</ele>
        <time>2017-06-25T10:55:44Z</time>
      </trkpt>
      <trkpt lat="69.29038499481976" lon="18.945513982325792">
        <ele>-7.55</ele>
        <time>2017-06-25T10:55:45Z</time>
      </trkpt>
      <trkpt lat="69.290293967351317" lon="18.945328993722796">
        <ele>-7.55</ele>
        <time>2017-06-25T10:55:46Z</time>
      </trkpt>
      <trkpt lat="69.290206041187048" lon="18.945116009563208">
        <ele>-7.55</ele>
        <time>2017-06-25T10:55:47Z</time>
      </trkpt>
      <trkpt lat="69.29010596126318" lon="18.944880980998278">
        <ele>-7.07</ele>
        <time>2017-06-25T10:55:48Z</time>
      </trkpt>
      <trkpt lat="69.289999008178711" lon="18.944674031808972">
        <ele>-7.07</ele>
        <time>2017-06-25T10:55:49Z</time>
      </trkpt>
      <trkpt lat="69.289880990982056" lon="18.944509997963905">
        <ele>-6.59</ele>
        <time>2017-06-25T10:55:50Z</time>
      </trkpt>
      <trkpt lat="69.289748976007104" lon="18.944386029615998">
        <ele>-6.59</ele>
        <time>2017-06-25T10:55:51Z</time>
      </trkpt>
      <trkpt lat="69.2896110098809" lon="18.944307994097471">
        <ele>-6.11</ele>
        <time>2017-06-25T10:55:52Z</time>
      </trkpt>
      <trkpt lat="69.289472037926316" lon="18.94426298327744">
        <ele>-5.63</ele>
        <time>2017-06-25T10:55:53Z</time>
      </trkpt>
      <trkpt lat="69.289334993809462" lon="18.944281004369259">
        <ele>-5.15</ele>
        <time>2017-06-25T10:55:54Z</time>
      </trkpt>
      <trkpt lat="69.289204990491271" lon="18.944354010745883">
        <ele>-4.67</ele>
        <time>2017-06-25T10:55:55Z</time>
      </trkpt>
      <trkpt lat="69.289085967466235" lon="18.944496000185609">
        <ele>-4.67</ele>
        <time>2017-06-25T10:55:56Z</time>
      </trkpt>
      <trkpt lat="69.288980020210147" lon="18.944700015708804">
        <ele>-4.67</ele>
        <time>2017-06-25T10:55:57Z</time>
      </trkpt>
      <trkpt lat="69.288882035762072" lon="18.944951975718141">
        <ele>-4.19</ele>
        <time>2017-06-25T10:55:58Z</time>
      </trkpt>
      <trkpt lat="69.288777010515332" lon="18.945227991789579">
        <ele>-4.19</ele>
        <time>2017-06-25T10:55:59Z</time>
      </trkpt>
      <trkpt lat="69.287776965647936" lon="18.948106002062559">
        <ele>-8.029999999999999</ele>
        <time>2017-06-25T10:56:08Z</time>
      </trkpt>
      <trkpt lat="69.287689039483666" lon="18.948509003967047">
        <ele>-9</ele>
        <time>2017-06-25T10:56:09Z</time>
      </trkpt>
      <trkpt lat="69.287613015621901" lon="18.948943018913269">
        <ele>-9.960000000000001</ele>
        <time>2017-06-25T10:56:10Z</time>
      </trkpt>
      <trkpt lat="69.286726964637637" lon="18.954990981146693">
        <ele>-7.55</ele>
        <time>2017-06-25T10:56:23Z</time>
      </trkpt>
      <trkpt lat="69.286384982988238" lon="18.957531033083797">
        <ele>-4.67</ele>
        <time>2017-06-25T10:56:29Z</time>
      </trkpt>
      <trkpt lat="69.286371991038322" lon="18.957822974771261">
        <ele>-4.67</ele>
        <time>2017-06-25T10:56:30Z</time>
      </trkpt>
      <trkpt lat="69.286380037665367" lon="18.958112988620996">
        <ele>-4.19</ele>
        <time>2017-06-25T10:56:31Z</time>
      </trkpt>
      <trkpt lat="69.286409039050341" lon="18.958385987207294">
        <ele>-4.19</ele>
        <time>2017-06-25T10:56:32Z</time>
      </trkpt>
      <trkpt lat="69.28645396605134" lon="18.958665020763874">
        <ele>-4.19</ele>
        <time>2017-06-25T10:56:33Z</time>
      </trkpt>
      <trkpt lat="69.286500988528132" lon="18.9589589741081">
        <ele>-4.19</ele>
        <time>2017-06-25T10:56:34Z</time>
      </trkpt>
      <trkpt lat="69.286760995164514" lon="18.960987981408834">
        <ele>-4.67</ele>
        <time>2017-06-25T10:56:40Z</time>
      </trkpt>
      <trkpt lat="69.286778010427952" lon="18.961376985535026">
        <ele>-4.67</ele>
        <time>2017-06-25T10:56:41Z</time>
      </trkpt>
      <trkpt lat="69.286699974909425" lon="18.966160034760833">
        <ele>-6.59</ele>
        <time>2017-06-25T10:56:52Z</time>
      </trkpt>
      <trkpt lat="69.286304013803601" lon="18.969049025326967">
        <ele>-10.44</ele>
        <time>2017-06-25T10:56:59Z</time>
      </trkpt>
      <trkpt lat="69.286072002723813" lon="18.970060972496867">
        <ele>-10.44</ele>
        <time>2017-06-25T10:57:02Z</time>
      </trkpt>
      <trkpt lat="69.28602003492415" lon="18.970411000773311">
        <ele>-10.44</ele>
        <time>2017-06-25T10:57:03Z</time>
      </trkpt>
      <trkpt lat="69.285990027710795" lon="18.970765974372625">
        <ele>-10.44</ele>
        <time>2017-06-25T10:57:04Z</time>
      </trkpt>
      <trkpt lat="69.28597996942699" lon="18.971142992377281">
        <ele>-9.960000000000001</ele>
        <time>2017-06-25T10:57:05Z</time>
      </trkpt>
      <trkpt lat="69.285992039367557" lon="18.971531996503472">
        <ele>-9.960000000000001</ele>
        <time>2017-06-25T10:57:06Z</time>
      </trkpt>
      <trkpt lat="69.286024980247021" lon="18.971911026164889">
        <ele>-9.48</ele>
        <time>2017-06-25T10:57:07Z</time>
      </trkpt>
      <trkpt lat="69.286078037694097" lon="18.972276980057359">
        <ele>-9.48</ele>
        <time>2017-06-25T10:57:08Z</time>
      </trkpt>
      <trkpt lat="69.286148026585579" lon="18.972613010555506">
        <ele>-9.48</ele>
        <time>2017-06-25T10:57:09Z</time>
      </trkpt>
      <trkpt lat="69.286233019083738" lon="18.972925990819931">
        <ele>-9.48</ele>
        <time>2017-06-25T10:57:10Z</time>
      </trkpt>
      <trkpt lat="69.286323040723801" lon="18.97322597913444">
        <ele>-9.48</ele>
        <time>2017-06-25T10:57:11Z</time>
      </trkpt>
      <trkpt lat="69.286399986594915" lon="18.973552035167813">
        <ele>-9.48</ele>
        <time>2017-06-25T10:57:12Z</time>
      </trkpt>
      <trkpt lat="69.286463018506765" lon="18.973897034302354">
        <ele>-9.960000000000001</ele>
        <time>2017-06-25T10:57:13Z</time>
      </trkpt>
      <trkpt lat="69.286514986306429" lon="18.974275980144739">
        <ele>-10.44</ele>
        <time>2017-06-25T10:57:14Z</time>
      </trkpt>
      <trkpt lat="69.286547005176544" lon="18.974673030897975">
        <ele>-10.44</ele>
        <time>2017-06-25T10:57:15Z</time>
      </trkpt>
      <trkpt lat="69.286564020439982" lon="18.975089024752378">
        <ele>-10.44</ele>
        <time>2017-06-25T10:57:16Z</time>
      </trkpt>
      <trkpt lat="69.286569971591234" lon="18.975512981414795">
        <ele>-9.960000000000001</ele>
        <time>2017-06-25T10:57:17Z</time>
      </trkpt>
      <trkpt lat="69.286584975197911" lon="18.980307010933757">
        <ele>-7.55</ele>
        <time>2017-06-25T10:57:27Z</time>
      </trkpt>
      <trkpt lat="69.286584975197911" lon="18.983392976224422">
        <ele>-3.71</ele>
        <time>2017-06-25T10:57:33Z</time>
      </trkpt>
      <trkpt lat="69.286615988239646" lon="18.983845012262464">
        <ele>-3.71</ele>
        <time>2017-06-25T10:57:34Z</time>
      </trkpt>
      <trkpt lat="69.286665022373199" lon="18.984283972531557">
        <ele>-3.71</ele>
        <time>2017-06-25T10:57:35Z</time>
      </trkpt>
      <trkpt lat="69.286728976294398" lon="18.984712036326528">
        <ele>-3.71</ele>
        <time>2017-06-25T10:57:36Z</time>
      </trkpt>
      <trkpt lat="69.2867979593575" lon="18.98510598577559">
        <ele>-3.23</ele>
        <time>2017-06-25T10:57:37Z</time>
      </trkpt>
      <trkpt lat="69.286925029009581" lon="18.985860021784902">
        <ele>-1.79</ele>
        <time>2017-06-25T10:57:39Z</time>
      </trkpt>
      <trkpt lat="69.286960987374187" lon="18.986254977062345">
        <ele>-0.82</ele>
        <time>2017-06-25T10:57:40Z</time>
      </trkpt>
      <trkpt lat="69.286974985152483" lon="18.986662002280354">
        <ele>-0.34</ele>
        <time>2017-06-25T10:57:41Z</time>
      </trkpt>
      <trkpt lat="69.286973979324102" lon="18.987072966992855">
        <ele>0.62</ele>
        <time>2017-06-25T10:57:42Z</time>
      </trkpt>
      <trkpt lat="69.28696702234447" lon="18.9874919783324">
        <ele>1.1</ele>
        <time>2017-06-25T10:57:43Z</time>
      </trkpt>
      <trkpt lat="69.287124015390873" lon="18.990639969706535">
        <ele>2.54</ele>
        <time>2017-06-25T10:57:50Z</time>
      </trkpt>
      <trkpt lat="69.287175983190536" lon="18.991500958800316">
        <ele>2.06</ele>
        <time>2017-06-25T10:57:52Z</time>
      </trkpt>
      <trkpt lat="69.287185035645962" lon="18.991941008716822">
        <ele>1.1</ele>
        <time>2017-06-25T10:57:53Z</time>
      </trkpt>
      <trkpt lat="69.287224011495709" lon="18.993371967226267">
        <ele>-1.3</ele>
        <time>2017-06-25T10:57:56Z</time>
      </trkpt>
      <trkpt lat="69.287470020353794" lon="18.997785961255431">
        <ele>-10.44</ele>
        <time>2017-06-25T10:58:04Z</time>
      </trkpt>
      <trkpt lat="69.287566998973489" lon="19.002071041613817">
        <ele>-8.51</ele>
        <time>2017-06-25T10:58:13Z</time>
      </trkpt>
      <trkpt lat="69.287229962646961" lon="19.005897967144847">
        <ele>-7.07</ele>
        <time>2017-06-25T10:58:22Z</time>
      </trkpt>
      <trkpt lat="69.287229040637612" lon="19.006355032324791">
        <ele>-5.63</ele>
        <time>2017-06-25T10:58:23Z</time>
      </trkpt>
      <trkpt lat="69.287280002608895" lon="19.010944962501526">
        <ele>14.56</ele>
        <time>2017-06-25T10:58:34Z</time>
      </trkpt>
      <trkpt lat="69.287299029529095" lon="19.011264983564615">
        <ele>15.52</ele>
        <time>2017-06-25T10:58:35Z</time>
      </trkpt>
      <trkpt lat="69.287331970408559" lon="19.011558014899492">
        <ele>16.960000000000001</ele>
        <time>2017-06-25T10:58:36Z</time>
      </trkpt>
      <trkpt lat="69.287385027855635" lon="19.011815004050732">
        <ele>17.920000000000002</ele>
        <time>2017-06-25T10:58:37Z</time>
      </trkpt>
      <trkpt lat="69.287459040060639" lon="19.012021031230688">
        <ele>18.399999999999999</ele>
        <time>2017-06-25T10:58:38Z</time>
      </trkpt>
      <trkpt lat="69.287546966224909" lon="19.012165032327175">
        <ele>19.359999999999999</ele>
        <time>2017-06-25T10:58:39Z</time>
      </trkpt>
      <trkpt lat="69.287646962329745" lon="19.012238038703799">
        <ele>20.32</ele>
        <time>2017-06-25T10:58:40Z</time>
      </trkpt>
      <trkpt lat="69.287751987576485" lon="19.012235021218657">
        <ele>20.809999999999999</ele>
        <time>2017-06-25T10:58:41Z</time>
      </trkpt>
      <trkpt lat="69.287865981459618" lon="19.012169977650046">
        <ele>21.77</ele>
        <time>2017-06-25T10:58:42Z</time>
      </trkpt>
      <trkpt lat="69.287986010313034" lon="19.01207098737359">
        <ele>22.25</ele>
        <time>2017-06-25T10:58:43Z</time>
      </trkpt>
      <trkpt lat="69.288373002782464" lon="19.011751972138882">
        <ele>26.09</ele>
        <time>2017-06-25T10:58:46Z</time>
      </trkpt>
      <trkpt lat="69.288496971130371" lon="19.011722970753908">
        <ele>27.050000000000001</ele>
        <time>2017-06-25T10:58:47Z</time>
      </trkpt>
      <trkpt lat="69.288895027711987" lon="19.0115109924227">
        <ele>30.899999999999999</ele>
        <time>2017-06-25T10:58:51Z</time>
      </trkpt>
      <trkpt lat="69.288964010775089" lon="19.011361040174961">
        <ele>31.379999999999999</ele>
        <time>2017-06-25T10:58:52Z</time>
      </trkpt>
      <trkpt lat="69.289119997993112" lon="19.010981004685163">
        <ele>33.299999999999997</ele>
        <time>2017-06-25T10:58:55Z</time>
      </trkpt>
      <trkpt lat="69.289172971621156" lon="19.010916966944933">
        <ele>33.780000000000001</ele>
        <time>2017-06-25T10:58:56Z</time>
      </trkpt>
      <trkpt lat="69.289226029068232" lon="19.010897018015385">
        <ele>33.780000000000001</ele>
        <time>2017-06-25T10:58:57Z</time>
      </trkpt>
      <trkpt lat="69.289259975776076" lon="19.010906992480159">
        <ele>34.259999999999998</ele>
        <time>2017-06-25T10:58:58Z</time>
      </trkpt>
      <trkpt lat="69.289368018507957" lon="19.01086600497365">
        <ele>33.780000000000001</ele>
        <time>2017-06-25T10:59:05Z</time>
      </trkpt>
      <trkpt lat="69.289434989914298" lon="19.01075997389853">
        <ele>33.780000000000001</ele>
        <time>2017-06-25T10:59:06Z</time>
      </trkpt>
      <trkpt lat="69.289507996290922" lon="19.010602980852127">
        <ele>33.299999999999997</ele>
        <time>2017-06-25T10:59:07Z</time>
      </trkpt>
      <trkpt lat="69.289578991010785" lon="19.010411035269499">
        <ele>32.340000000000003</ele>
        <time>2017-06-25T10:59:08Z</time>
      </trkpt>
      <trkpt lat="69.289661971852183" lon="19.010184975340962">
        <ele>31.859999999999999</ele>
        <time>2017-06-25T10:59:09Z</time>
      </trkpt>
      <trkpt lat="69.290451966226101" lon="19.00822201743722">
        <ele>25.609999999999999</ele>
        <time>2017-06-25T10:59:16Z</time>
      </trkpt>
      <trkpt lat="69.290595967322588" lon="19.007981959730387">
        <ele>24.649999999999999</ele>
        <time>2017-06-25T10:59:17Z</time>
      </trkpt>
      <trkpt lat="69.290755977854133" lon="19.007783979177475">
        <ele>23.690000000000001</ele>
        <time>2017-06-25T10:59:18Z</time>
      </trkpt>
      <trkpt lat="69.291911004111171" lon="19.005828984081745">
        <ele>19.359999999999999</ele>
        <time>2017-06-25T10:59:25Z</time>
      </trkpt>
      <trkpt lat="69.29233998991549" lon="19.004789963364601">
        <ele>21.289999999999999</ele>
        <time>2017-06-25T10:59:28Z</time>
      </trkpt>
      <trkpt lat="69.292453983798623" lon="19.004401965066791">
        <ele>21.77</ele>
        <time>2017-06-25T10:59:29Z</time>
      </trkpt>
      <trkpt lat="69.292548028752208" lon="19.003981025889516">
        <ele>22.73</ele>
        <time>2017-06-25T10:59:30Z</time>
      </trkpt>
      <trkpt lat="69.292624974623322" lon="19.003552962094545">
        <ele>22.25</ele>
        <time>2017-06-25T10:59:31Z</time>
      </trkpt>
      <trkpt lat="69.292699992656708" lon="19.003129005432129">
        <ele>22.25</ele>
        <time>2017-06-25T10:59:32Z</time>
      </trkpt>
      <trkpt lat="69.293504990637302" lon="18.999971961602569">
        <ele>21.289999999999999</ele>
        <time>2017-06-25T10:59:40Z</time>
      </trkpt>
      <trkpt lat="69.293674975633621" lon="18.999147014692426">
        <ele>21.289999999999999</ele>
        <time>2017-06-25T10:59:42Z</time>
      </trkpt>
      <trkpt lat="69.293734990060329" lon="18.9987079706043">
        <ele>21.289999999999999</ele>
        <time>2017-06-25T10:59:43Z</time>
      </trkpt>
      <trkpt lat="69.293763991445303" lon="18.99823104031384">
        <ele>20.32</ele>
        <time>2017-06-25T10:59:44Z</time>
      </trkpt>
      <trkpt lat="69.293790981173515" lon="18.997762994840741">
        <ele>20.32</ele>
        <time>2017-06-25T10:59:45Z</time>
      </trkpt>
      <trkpt lat="69.293798021972179" lon="18.997275000438094">
        <ele>19.84</ele>
        <time>2017-06-25T10:59:46Z</time>
      </trkpt>
      <trkpt lat="69.293787041679025" lon="18.996779965236783">
        <ele>19.359999999999999</ele>
        <time>2017-06-25T10:59:47Z</time>
      </trkpt>
      <trkpt lat="69.293774971738458" lon="18.996304962784052">
        <ele>18.879999999999999</ele>
        <time>2017-06-25T10:59:48Z</time>
      </trkpt>
      <trkpt lat="69.293809002265334" lon="18.994434038177133">
        <ele>19.359999999999999</ele>
        <time>2017-06-25T10:59:52Z</time>
      </trkpt>
      <trkpt lat="69.294151989743114" lon="18.989924993366003">
        <ele>18.879999999999999</ele>
        <time>2017-06-25T11:00:01Z</time>
      </trkpt>
      <trkpt lat="69.294255003333092" lon="18.989065010100603">
        <ele>18.879999999999999</ele>
        <time>2017-06-25T11:00:03Z</time>
      </trkpt>
      <trkpt lat="69.294328009709716" lon="18.988678017631173">
        <ele>18.399999999999999</ele>
        <time>2017-06-25T11:00:04Z</time>
      </trkpt>
      <trkpt lat="69.294433034956455" lon="18.988322038203478">
        <ele>18.399999999999999</ele>
        <time>2017-06-25T11:00:05Z</time>
      </trkpt>
      <trkpt lat="69.294553985819221" lon="18.988003022968769">
        <ele>17.440000000000001</ele>
        <time>2017-06-25T11:00:06Z</time>
      </trkpt>
      <trkpt lat="69.294692035764456" lon="18.987722983583808">
        <ele>17.920000000000002</ele>
        <time>2017-06-25T11:00:07Z</time>
      </trkpt>
      <trkpt lat="69.294822039082646" lon="18.987444033846259">
        <ele>16.48</ele>
        <time>2017-06-25T11:00:08Z</time>
      </trkpt>
      <trkpt lat="69.295069975778461" lon="18.986865011975169">
        <ele>16.48</ele>
        <time>2017-06-25T11:00:10Z</time>
      </trkpt>
      <trkpt lat="69.295163014903665" lon="18.986536022275686">
        <ele>15.039999999999999</ele>
        <time>2017-06-25T11:00:11Z</time>
      </trkpt>
      <trkpt lat="69.295239960774779" lon="18.986151963472366">
        <ele>14.56</ele>
        <time>2017-06-25T11:00:12Z</time>
      </trkpt>
      <trkpt lat="69.295306010171771" lon="18.985733035951853">
        <ele>14.08</ele>
        <time>2017-06-25T11:00:13Z</time>
      </trkpt>
      <trkpt lat="69.295364012941718" lon="18.985272031277418">
        <ele>14.08</ele>
        <time>2017-06-25T11:00:14Z</time>
      </trkpt>
      <trkpt lat="69.295420004054904" lon="18.984795017167926">
        <ele>12.630000000000001</ele>
        <time>2017-06-25T11:00:15Z</time>
      </trkpt>
      <trkpt lat="69.295736001804471" lon="18.982905987650156">
        <ele>10.710000000000001</ele>
        <time>2017-06-25T11:00:19Z</time>
      </trkpt>
      <trkpt lat="69.296582993119955" lon="18.978860964998603">
        <ele>6.39</ele>
        <time>2017-06-25T11:00:27Z</time>
      </trkpt>
      <trkpt lat="69.297035029157996" lon="18.977035973221064">
        <ele>8.310000000000001</ele>
        <time>2017-06-25T11:00:31Z</time>
      </trkpt>
      <trkpt lat="69.297166038304567" lon="18.976685022935271">
        <ele>8.789999999999999</ele>
        <time>2017-06-25T11:00:32Z</time>
      </trkpt>
      <trkpt lat="69.297309033572674" lon="18.976386040449142">
        <ele>9.27</ele>
        <time>2017-06-25T11:00:33Z</time>
      </trkpt>
      <trkpt lat="69.297469966113567" lon="18.976152017712593">
        <ele>9.27</ele>
        <time>2017-06-25T11:00:34Z</time>
      </trkpt>
      <trkpt lat="69.297644980251789" lon="18.975966023281217">
        <ele>9.27</ele>
        <time>2017-06-25T11:00:35Z</time>
      </trkpt>
      <trkpt lat="69.297833992168307" lon="18.975824033841491">
        <ele>9.27</ele>
        <time>2017-06-25T11:00:36Z</time>
      </trkpt>
      <trkpt lat="69.298029039055109" lon="18.975684978067875">
        <ele>8.310000000000001</ele>
        <time>2017-06-25T11:00:37Z</time>
      </trkpt>
      <trkpt lat="69.299333011731505" lon="18.973970962688327">
        <ele>3.5</ele>
        <time>2017-06-25T11:00:44Z</time>
      </trkpt>
      <trkpt lat="69.30043900385499" lon="18.97195796482265">
        <ele>3.5</ele>
        <time>2017-06-25T11:00:51Z</time>
      </trkpt>
      <trkpt lat="69.300852986052632" lon="18.971543982625008">
        <ele>3.98</ele>
        <time>2017-06-25T11:00:54Z</time>
      </trkpt>
      <trkpt lat="69.300950970500708" lon="18.971530990675092">
        <ele>4.46</ele>
        <time>2017-06-25T11:00:55Z</time>
      </trkpt>
      <trkpt lat="69.301046021282673" lon="18.971567032858729">
        <ele>4.46</ele>
        <time>2017-06-25T11:00:56Z</time>
      </trkpt>
      <trkpt lat="69.301127996295691" lon="18.971667028963566">
        <ele>3.98</ele>
        <time>2017-06-25T11:00:57Z</time>
      </trkpt>
      <trkpt lat="69.301206031814218" lon="18.971827961504459">
        <ele>3.02</ele>
        <time>2017-06-25T11:00:58Z</time>
      </trkpt>
      <trkpt lat="69.301277026534081" lon="18.972026025876403">
        <ele>3.02</ele>
        <time>2017-06-25T11:00:59Z</time>
      </trkpt>
      <trkpt lat="69.301326982676983" lon="18.9722990244627">
        <ele>2.06</ele>
        <time>2017-06-25T11:01:00Z</time>
      </trkpt>
      <trkpt lat="69.301359001547098" lon="18.972569005563855">
        <ele>2.06</ele>
        <time>2017-06-25T11:01:01Z</time>
      </trkpt>
      <trkpt lat="69.301366964355111" lon="18.972862958908081">
        <ele>2.06</ele>
        <time>2017-06-25T11:01:02Z</time>
      </trkpt>
      <trkpt lat="69.301354978233576" lon="18.973187003284693">
        <ele>2.06</ele>
        <time>2017-06-25T11:01:03Z</time>
      </trkpt>
      <trkpt lat="69.301316002383828" lon="18.973543988540769">
        <ele>2.06</ele>
        <time>2017-06-25T11:01:04Z</time>
      </trkpt>
      <trkpt lat="69.301265040412545" lon="18.973922012373805">
        <ele>1.58</ele>
        <time>2017-06-25T11:01:05Z</time>
      </trkpt>
      <trkpt lat="69.301149034872651" lon="18.97515800781548">
        <ele>1.58</ele>
        <time>2017-06-25T11:01:08Z</time>
      </trkpt>
      <trkpt lat="69.301138976588845" lon="18.975551035255194">
        <ele>1.1</ele>
        <time>2017-06-25T11:01:09Z</time>
      </trkpt>
      <trkpt lat="69.301151968538761" lon="18.975911037996411">
        <ele>1.1</ele>
        <time>2017-06-25T11:01:10Z</time>
      </trkpt>
      <trkpt lat="69.301192034035921" lon="18.976242961362004">
        <ele>0.62</ele>
        <time>2017-06-25T11:01:11Z</time>
      </trkpt>
      <trkpt lat="69.30125598795712" lon="18.976557031273842">
        <ele>1.1</ele>
        <time>2017-06-25T11:01:12Z</time>
      </trkpt>
      <trkpt lat="69.301345003768802" lon="18.976828018203378">
        <ele>1.1</ele>
        <time>2017-06-25T11:01:13Z</time>
      </trkpt>
      <trkpt lat="69.30144801735878" lon="18.977048965170979">
        <ele>1.58</ele>
        <time>2017-06-25T11:01:14Z</time>
      </trkpt>
      <trkpt lat="69.301566034555435" lon="18.977217022329569">
        <ele>2.06</ele>
        <time>2017-06-25T11:01:15Z</time>
      </trkpt>
      <trkpt lat="69.301690002903342" lon="18.977330010384321">
        <ele>2.06</ele>
        <time>2017-06-25T11:01:16Z</time>
      </trkpt>
      <trkpt lat="69.301825035363436" lon="18.977404022589326">
        <ele>2.54</ele>
        <time>2017-06-25T11:01:17Z</time>
      </trkpt>
      <trkpt lat="69.301968030631542" lon="18.977438975125551">
        <ele>2.54</ele>
        <time>2017-06-25T11:01:18Z</time>
      </trkpt>
      <trkpt lat="69.3021169770509" lon="18.977475017309189">
        <ele>2.06</ele>
        <time>2017-06-25T11:01:19Z</time>
      </trkpt>
      <trkpt lat="69.302262989804149" lon="18.977533020079136">
        <ele>2.06</ele>
        <time>2017-06-25T11:01:20Z</time>
      </trkpt>
      <trkpt lat="69.302406990900636" lon="18.977642990648746">
        <ele>2.06</ele>
        <time>2017-06-25T11:01:21Z</time>
      </trkpt>
      <trkpt lat="69.302547974511981" lon="18.977809036150575">
        <ele>1.58</ele>
        <time>2017-06-25T11:01:22Z</time>
      </trkpt>
      <trkpt lat="69.302679989486933" lon="18.978022020310163">
        <ele>1.58</ele>
        <time>2017-06-25T11:01:23Z</time>
      </trkpt>
      <trkpt lat="69.302799012511969" lon="18.978281021118164">
        <ele>1.58</ele>
        <time>2017-06-25T11:01:24Z</time>
      </trkpt>
      <trkpt lat="69.302900014445186" lon="18.978586960583925">
        <ele>0.62</ele>
        <time>2017-06-25T11:01:25Z</time>
      </trkpt>
      <trkpt lat="69.302988024428487" lon="18.978932965546846">
        <ele>0.62</ele>
        <time>2017-06-25T11:01:26Z</time>
      </trkpt>
      <trkpt lat="69.303053990006447" lon="18.979316018521786">
        <ele>0.14</ele>
        <time>2017-06-25T11:01:27Z</time>
      </trkpt>
      <trkpt lat="69.303105035796762" lon="18.97973402403295">
        <ele>-0.82</ele>
        <time>2017-06-25T11:01:28Z</time>
      </trkpt>
      <trkpt lat="69.303143005818129" lon="18.980172984302044">
        <ele>-1.3</ele>
        <time>2017-06-25T11:01:29Z</time>
      </trkpt>
      <trkpt lat="69.303173013031483" lon="18.98065603338182">
        <ele>-2.75</ele>
        <time>2017-06-25T11:01:30Z</time>
      </trkpt>
      <trkpt lat="69.303355989977717" lon="18.983045965433121">
        <ele>-6.11</ele>
        <time>2017-06-25T11:01:35Z</time>
      </trkpt>
      <trkpt lat="69.303421033546329" lon="18.983474029228091">
        <ele>-6.59</ele>
        <time>2017-06-25T11:01:36Z</time>
      </trkpt>
      <trkpt lat="69.303506026044488" lon="18.983867978677154">
        <ele>-6.11</ele>
        <time>2017-06-25T11:01:37Z</time>
      </trkpt>
      <trkpt lat="69.303604010492563" lon="18.984215995296836">
        <ele>-5.15</ele>
        <time>2017-06-25T11:01:38Z</time>
      </trkpt>
      <trkpt lat="69.303718004375696" lon="18.984486982226372">
        <ele>-4.67</ele>
        <time>2017-06-25T11:01:39Z</time>
      </trkpt>
      <trkpt lat="69.303848007693887" lon="18.984684040769935">
        <ele>-3.71</ele>
        <time>2017-06-25T11:01:40Z</time>
      </trkpt>
      <trkpt lat="69.303988991305232" lon="18.984811026602983">
        <ele>-2.75</ele>
        <time>2017-06-25T11:01:41Z</time>
      </trkpt>
      <trkpt lat="69.304142966866493" lon="18.984871963039041">
        <ele>-0.82</ele>
        <time>2017-06-25T11:01:42Z</time>
      </trkpt>
      <trkpt lat="69.304293002933264" lon="18.984862994402647">
        <ele>-0.82</ele>
        <time>2017-06-25T11:01:43Z</time>
      </trkpt>
      <trkpt lat="69.304445972666144" lon="18.984788982197642">
        <ele>0.14</ele>
        <time>2017-06-25T11:01:44Z</time>
      </trkpt>
      <trkpt lat="69.304588967934251" lon="18.984646992757916">
        <ele>1.1</ele>
        <time>2017-06-25T11:01:45Z</time>
      </trkpt>
      <trkpt lat="69.304717965424061" lon="18.984444988891482">
        <ele>2.06</ele>
        <time>2017-06-25T11:01:46Z</time>
      </trkpt>
      <trkpt lat="69.304829025641084" lon="18.984176013618708">
        <ele>2.54</ele>
        <time>2017-06-25T11:01:47Z</time>
      </trkpt>
      <trkpt lat="69.304930027574301" lon="18.983841994777322">
        <ele>3.5</ele>
        <time>2017-06-25T11:01:48Z</time>
      </trkpt>
      <trkpt lat="69.305022982880473" lon="18.983458019793034">
        <ele>4.94</ele>
        <time>2017-06-25T11:01:49Z</time>
      </trkpt>
      <trkpt lat="69.305111998692155" lon="18.98304495960474">
        <ele>5.42</ele>
        <time>2017-06-25T11:01:50Z</time>
      </trkpt>
      <trkpt lat="69.306054040789604" lon="18.979943990707397">
        <ele>13.119999999999999</ele>
        <time>2017-06-25T11:01:58Z</time>
      </trkpt>
      <trkpt lat="69.30780996568501" lon="18.97560996003449">
        <ele>25.129999999999999</ele>
        <time>2017-06-25T11:02:10Z</time>
      </trkpt>
      <trkpt lat="69.309103041887283" lon="18.973532002419233">
        <ele>29.940000000000001</ele>
        <time>2017-06-25T11:02:18Z</time>
      </trkpt>
      <trkpt lat="69.309263974428177" lon="18.973422031849623">
        <ele>29.940000000000001</ele>
        <time>2017-06-25T11:02:19Z</time>
      </trkpt>
      <trkpt lat="69.309437982738018" lon="18.973395964130759">
        <ele>30.420000000000002</ele>
        <time>2017-06-25T11:02:20Z</time>
      </trkpt>
      <trkpt lat="69.309594975784421" lon="18.973422031849623">
        <ele>28.98</ele>
        <time>2017-06-25T11:02:21Z</time>
      </trkpt>
      <trkpt lat="69.309747023507953" lon="18.973478022962809">
        <ele>26.57</ele>
        <time>2017-06-25T11:02:22Z</time>
      </trkpt>
      <trkpt lat="69.31004399433732" lon="18.973457990214229">
        <ele>27.530000000000001</ele>
        <time>2017-06-25T11:02:24Z</time>
      </trkpt>
      <trkpt lat="69.310185983777046" lon="18.973388001322746">
        <ele>27.530000000000001</ele>
        <time>2017-06-25T11:02:25Z</time>
      </trkpt>
      <trkpt lat="69.310307018458843" lon="18.973266966640949">
        <ele>27.530000000000001</ele>
        <time>2017-06-25T11:02:26Z</time>
      </trkpt>
      <trkpt lat="69.310403997078538" lon="18.973063034936786">
        <ele>28.5</ele>
        <time>2017-06-25T11:02:27Z</time>
      </trkpt>
      <trkpt lat="69.3104940187186" lon="18.972809985280037">
        <ele>28.5</ele>
        <time>2017-06-25T11:02:28Z</time>
      </trkpt>
      <trkpt lat="69.310575993731618" lon="18.972489964216948">
        <ele>28.98</ele>
        <time>2017-06-25T11:02:29Z</time>
      </trkpt>
      <trkpt lat="69.310652017593384" lon="18.972123004496098">
        <ele>30.420000000000002</ele>
        <time>2017-06-25T11:02:30Z</time>
      </trkpt>
      <trkpt lat="69.310728963464499" lon="18.971738023683429">
        <ele>31.379999999999999</ele>
        <time>2017-06-25T11:02:31Z</time>
      </trkpt>
      <trkpt lat="69.31141896173358" lon="18.967898022383451">
        <ele>33.299999999999997</ele>
        <time>2017-06-25T11:02:39Z</time>
      </trkpt>
      <trkpt lat="69.312305012717843" lon="18.962725969031453">
        <ele>31.859999999999999</ele>
        <time>2017-06-25T11:02:49Z</time>
      </trkpt>
      <trkpt lat="69.313115039840341" lon="18.959591975435615">
        <ele>27.050000000000001</ele>
        <time>2017-06-25T11:02:57Z</time>
      </trkpt>
      <trkpt lat="69.313300028443336" lon="18.958869958296418">
        <ele>25.129999999999999</ele>
        <time>2017-06-25T11:02:59Z</time>
      </trkpt>
      <trkpt lat="69.313365994021297" lon="18.958449019119143">
        <ele>24.170000000000002</ele>
        <time>2017-06-25T11:03:00Z</time>
      </trkpt>
      <trkpt lat="69.313423996791244" lon="18.958001006394625">
        <ele>23.690000000000001</ele>
        <time>2017-06-25T11:03:01Z</time>
      </trkpt>
      <trkpt lat="69.313666988164186" lon="18.956263018772006">
        <ele>19.84</ele>
        <time>2017-06-25T11:03:05Z</time>
      </trkpt>
      <trkpt lat="69.313754998147488" lon="18.95590603351593">
        <ele>18.879999999999999</ele>
        <time>2017-06-25T11:03:06Z</time>
      </trkpt>
      <trkpt lat="69.313853988423944" lon="18.955600010231137">
        <ele>17.920000000000002</ele>
        <time>2017-06-25T11:03:07Z</time>
      </trkpt>
      <trkpt lat="69.313963036984205" lon="18.95534603856504">
        <ele>16.960000000000001</ele>
        <time>2017-06-25T11:03:08Z</time>
      </trkpt>
      <trkpt lat="69.314079964533448" lon="18.955151997506618">
        <ele>16</ele>
        <time>2017-06-25T11:03:09Z</time>
      </trkpt>
      <trkpt lat="69.314206028357148" lon="18.955007996410131">
        <ele>15.52</ele>
        <time>2017-06-25T11:03:10Z</time>
      </trkpt>
      <trkpt lat="69.314337037503719" lon="18.954904982820153">
        <ele>14.56</ele>
        <time>2017-06-25T11:03:11Z</time>
      </trkpt>
      <trkpt lat="69.314473997801542" lon="18.954847985878587">
        <ele>13.6</ele>
        <time>2017-06-25T11:03:12Z</time>
      </trkpt>
      <trkpt lat="69.314616993069649" lon="18.954843040555716">
        <ele>12.630000000000001</ele>
        <time>2017-06-25T11:03:13Z</time>
      </trkpt>
      <trkpt lat="69.314754959195852" lon="18.954885033890605">
        <ele>11.19</ele>
        <time>2017-06-25T11:03:14Z</time>
      </trkpt>
      <trkpt lat="69.314894014969468" lon="18.954976983368397">
        <ele>10.23</ele>
        <time>2017-06-25T11:03:15Z</time>
      </trkpt>
      <trkpt lat="69.315037010237575" lon="18.955096006393433">
        <ele>9.27</ele>
        <time>2017-06-25T11:03:16Z</time>
      </trkpt>
      <trkpt lat="69.315175982192159" lon="18.955246964469552">
        <ele>8.789999999999999</ele>
        <time>2017-06-25T11:03:17Z</time>
      </trkpt>
      <trkpt lat="69.315309002995491" lon="18.955438993871212">
        <ele>6.87</ele>
        <time>2017-06-25T11:03:18Z</time>
      </trkpt>
      <trkpt lat="69.316584980115294" lon="18.956783032044768">
        <ele>3.5</ele>
        <time>2017-06-25T11:03:27Z</time>
      </trkpt>
      <trkpt lat="69.316727975383401" lon="18.956792000681162">
        <ele>3.98</ele>
        <time>2017-06-25T11:03:28Z</time>
      </trkpt>
      <trkpt lat="69.31687499396503" lon="18.956757970154285">
        <ele>3.98</ele>
        <time>2017-06-25T11:03:29Z</time>
      </trkpt>
      <trkpt lat="69.318983964622021" lon="18.955721966922283">
        <ele>-1.79</ele>
        <time>2017-06-25T11:03:43Z</time>
      </trkpt>
      <trkpt lat="69.319132994860411" lon="18.955725990235806">
        <ele>-2.27</ele>
        <time>2017-06-25T11:03:44Z</time>
      </trkpt>
      <trkpt lat="69.319279007613659" lon="18.955750968307257">
        <ele>-2.75</ele>
        <time>2017-06-25T11:03:45Z</time>
      </trkpt>
      <trkpt lat="69.319416973739862" lon="18.955834032967687">
        <ele>-3.71</ele>
        <time>2017-06-25T11:03:46Z</time>
      </trkpt>
      <trkpt lat="69.319552006199956" lon="18.955962024629116">
        <ele>-4.19</ele>
        <time>2017-06-25T11:03:47Z</time>
      </trkpt>
      <trkpt lat="69.319684021174908" lon="18.95614298991859">
        <ele>-3.71</ele>
        <time>2017-06-25T11:03:48Z</time>
      </trkpt>
      <trkpt lat="69.319810001179576" lon="18.956343987956643">
        <ele>-4.19</ele>
        <time>2017-06-25T11:03:49Z</time>
      </trkpt>
      <trkpt lat="69.320197999477386" lon="18.956961985677481">
        <ele>-4.19</ele>
        <time>2017-06-25T11:03:52Z</time>
      </trkpt>
      <trkpt lat="69.320328002795577" lon="18.957084026187658">
        <ele>-4.19</ele>
        <time>2017-06-25T11:03:53Z</time>
      </trkpt>
      <trkpt lat="69.320464041084051" lon="18.957145968452096">
        <ele>-3.23</ele>
        <time>2017-06-25T11:03:54Z</time>
      </trkpt>
      <trkpt lat="69.320601001381874" lon="18.957144962623715">
        <ele>-2.75</ele>
        <time>2017-06-25T11:03:55Z</time>
      </trkpt>
      <trkpt lat="69.320735028013587" lon="18.957083020359278">
        <ele>-2.27</ele>
        <time>2017-06-25T11:03:56Z</time>
      </trkpt>
      <trkpt lat="69.320866959169507" lon="18.956949999555945">
        <ele>-1.79</ele>
        <time>2017-06-25T11:03:57Z</time>
      </trkpt>
      <trkpt lat="69.320994028821588" lon="18.956764005124569">
        <ele>-1.79</ele>
        <time>2017-06-25T11:03:58Z</time>
      </trkpt>
      <trkpt lat="69.321114979684353" lon="18.956538029015064">
        <ele>-1.79</ele>
        <time>2017-06-25T11:03:59Z</time>
      </trkpt>
      <trkpt lat="69.321228973567486" lon="18.956264024600387">
        <ele>-1.79</ele>
        <time>2017-06-25T11:04:00Z</time>
      </trkpt>
      <trkpt lat="69.321330981329083" lon="18.955946015194058">
        <ele>-1.79</ele>
        <time>2017-06-25T11:04:01Z</time>
      </trkpt>
      <trkpt lat="69.321421002969146" lon="18.955571008846164">
        <ele>-1.79</ele>
        <time>2017-06-25T11:04:02Z</time>
      </trkpt>
      <trkpt lat="69.321503983810544" lon="18.955171024426818">
        <ele>-0.82</ele>
        <time>2017-06-25T11:04:03Z</time>
      </trkpt>
      <trkpt lat="69.321585036814213" lon="18.954784031957388">
        <ele>0.14</ele>
        <time>2017-06-25T11:04:04Z</time>
      </trkpt>
      <trkpt lat="69.322560019791126" lon="18.951208982616663">
        <ele>-0.34</ele>
        <time>2017-06-25T11:04:13Z</time>
      </trkpt>
      <trkpt lat="69.323705993592739" lon="18.946321997791529">
        <ele>3.5</ele>
        <time>2017-06-25T11:04:24Z</time>
      </trkpt>
      <trkpt lat="69.325155979022384" lon="18.940273029729724">
        <ele>3.98</ele>
        <time>2017-06-25T11:04:38Z</time>
      </trkpt>
      <trkpt lat="69.326274041086435" lon="18.936653975397348">
        <ele>2.54</ele>
        <time>2017-06-25T11:04:48Z</time>
      </trkpt>
      <trkpt lat="69.327602991834283" lon="18.934878017753363">
        <ele>3.5</ele>
        <time>2017-06-25T11:04:57Z</time>
      </trkpt>
      <trkpt lat="69.327745987102389" lon="18.93468196503818">
        <ele>4.46</ele>
        <time>2017-06-25T11:04:58Z</time>
      </trkpt>
      <trkpt lat="69.327869033440948" lon="18.934454983100295">
        <ele>3.98</ele>
        <time>2017-06-25T11:04:59Z</time>
      </trkpt>
      <trkpt lat="69.327981015667319" lon="18.934172010049224">
        <ele>4.46</ele>
        <time>2017-06-25T11:05:00Z</time>
      </trkpt>
      <trkpt lat="69.328071037307382" lon="18.933832962065935">
        <ele>3.98</ele>
        <time>2017-06-25T11:05:01Z</time>
      </trkpt>
      <trkpt lat="69.328138008713722" lon="18.933464996516705">
        <ele>3.98</ele>
        <time>2017-06-25T11:05:02Z</time>
      </trkpt>
      <trkpt lat="69.328181007876992" lon="18.933054031804204">
        <ele>3.5</ele>
        <time>2017-06-25T11:05:03Z</time>
      </trkpt>
      <trkpt lat="69.328204980120063" lon="18.932633008807898">
        <ele>3.02</ele>
        <time>2017-06-25T11:05:04Z</time>
      </trkpt>
      <trkpt lat="69.328215038403869" lon="18.932198993861675">
        <ele>3.02</ele>
        <time>2017-06-25T11:05:05Z</time>
      </trkpt>
      <trkpt lat="69.328218977898359" lon="18.931749975308776">
        <ele>2.54</ele>
        <time>2017-06-25T11:05:06Z</time>
      </trkpt>
      <trkpt lat="69.32809098623693" lon="18.927573021501303">
        <ele>1.58</ele>
        <time>2017-06-25T11:05:15Z</time>
      </trkpt>
      <trkpt lat="69.328028960153461" lon="18.927150992676616">
        <ele>2.06</ele>
        <time>2017-06-25T11:05:16Z</time>
      </trkpt>
      <trkpt lat="69.327954025939107" lon="18.926742039620876">
        <ele>2.06</ele>
        <time>2017-06-25T11:05:17Z</time>
      </trkpt>
      <trkpt lat="69.327625036239624" lon="18.924829959869385">
        <ele>3.02</ele>
        <time>2017-06-25T11:05:22Z</time>
      </trkpt>
      <trkpt lat="69.327586982399225" lon="18.924426035955548">
        <ele>3.02</ele>
        <time>2017-06-25T11:05:23Z</time>
      </trkpt>
      <trkpt lat="69.327449016273022" lon="18.921986985951662">
        <ele>3.98</ele>
        <time>2017-06-25T11:05:29Z</time>
      </trkpt>
      <trkpt lat="69.327467037364841" lon="18.921600999310613">
        <ele>4.46</ele>
        <time>2017-06-25T11:05:30Z</time>
      </trkpt>
      <trkpt lat="69.327505007386208" lon="18.921233033761382">
        <ele>4.46</ele>
        <time>2017-06-25T11:05:31Z</time>
      </trkpt>
      <trkpt lat="69.327567033469677" lon="18.920892979949713">
        <ele>4.94</ele>
        <time>2017-06-25T11:05:32Z</time>
      </trkpt>
      <trkpt lat="69.327652025967836" lon="18.9205879624933">
        <ele>4.94</ele>
        <time>2017-06-25T11:05:33Z</time>
      </trkpt>
      <trkpt lat="69.327756967395544" lon="18.920302977785468">
        <ele>4.94</ele>
        <time>2017-06-25T11:05:34Z</time>
      </trkpt>
      <trkpt lat="69.327878002077341" lon="18.920040037482977">
        <ele>4.94</ele>
        <time>2017-06-25T11:05:35Z</time>
      </trkpt>
      <trkpt lat="69.328008005395532" lon="18.919787993654609">
        <ele>4.94</ele>
        <time>2017-06-25T11:05:36Z</time>
      </trkpt>
      <trkpt lat="69.328396003693342" lon="18.918912000954151">
        <ele>5.91</ele>
        <time>2017-06-25T11:05:39Z</time>
      </trkpt>
      <trkpt lat="69.32849901728332" lon="18.918567001819611">
        <ele>5.91</ele>
        <time>2017-06-25T11:05:40Z</time>
      </trkpt>
      <trkpt lat="69.32858400978148" lon="18.918190989643335">
        <ele>5.91</ele>
        <time>2017-06-25T11:05:41Z</time>
      </trkpt>
      <trkpt lat="69.328646035864949" lon="18.917791005223989">
        <ele>5.91</ele>
        <time>2017-06-25T11:05:42Z</time>
      </trkpt>
      <trkpt lat="69.328696997836232" lon="18.917378028854728">
        <ele>5.91</ele>
        <time>2017-06-25T11:05:43Z</time>
      </trkpt>
      <trkpt lat="69.328811997547746" lon="18.916554003953934">
        <ele>5.91</ele>
        <time>2017-06-25T11:05:45Z</time>
      </trkpt>
      <trkpt lat="69.328893972560763" lon="18.916157959029078">
        <ele>5.91</ele>
        <time>2017-06-25T11:05:46Z</time>
      </trkpt>
      <trkpt lat="69.328985000029206" lon="18.915779013186693">
        <ele>5.42</ele>
        <time>2017-06-25T11:05:47Z</time>
      </trkpt>
      <trkpt lat="69.330001976341009" lon="18.911952003836632">
        <ele>2.06</ele>
        <time>2017-06-25T11:05:57Z</time>
      </trkpt>
      <trkpt lat="69.331125989556313" lon="18.90651298686862">
        <ele>2.54</ele>
        <time>2017-06-25T11:06:11Z</time>
      </trkpt>
      <trkpt lat="69.331150967627764" lon="18.906057011336088">
        <ele>2.54</ele>
        <time>2017-06-25T11:06:12Z</time>
      </trkpt>
      <trkpt lat="69.331154990941286" lon="18.905601035803556">
        <ele>2.54</ele>
        <time>2017-06-25T11:06:13Z</time>
      </trkpt>
      <trkpt lat="69.331139987334609" lon="18.905140031129122">
        <ele>2.54</ele>
        <time>2017-06-25T11:06:14Z</time>
      </trkpt>
      <trkpt lat="69.331110985949636" lon="18.904679026454687">
        <ele>2.54</ele>
        <time>2017-06-25T11:06:15Z</time>
      </trkpt>
      <trkpt lat="69.331074021756649" lon="18.90421299263835">
        <ele>2.06</ele>
        <time>2017-06-25T11:06:16Z</time>
      </trkpt>
      <trkpt lat="69.330910993739963" lon="18.90189497731626">
        <ele>3.02</ele>
        <time>2017-06-25T11:06:21Z</time>
      </trkpt>
      <trkpt lat="69.330907976254821" lon="18.901417041197419">
        <ele>3.02</ele>
        <time>2017-06-25T11:06:22Z</time>
      </trkpt>
      <trkpt lat="69.33092599734664" lon="18.900956958532333">
        <ele>3.02</ele>
        <time>2017-06-25T11:06:23Z</time>
      </trkpt>
      <trkpt lat="69.330960027873516" lon="18.90049897134304">
        <ele>3.02</ele>
        <time>2017-06-25T11:06:24Z</time>
      </trkpt>
      <trkpt lat="69.330999003723264" lon="18.900047019124031">
        <ele>3.02</ele>
        <time>2017-06-25T11:06:25Z</time>
      </trkpt>
      <trkpt lat="69.331048959866166" lon="18.899595988914371">
        <ele>3.02</ele>
        <time>2017-06-25T11:06:26Z</time>
      </trkpt>
      <trkpt lat="69.331853035837412" lon="18.893330013379455">
        <ele>3.5</ele>
        <time>2017-06-25T11:06:39Z</time>
      </trkpt>
      <trkpt lat="69.332557031884789" lon="18.887726962566376">
        <ele>9.75</ele>
        <time>2017-06-25T11:06:52Z</time>
      </trkpt>
      <trkpt lat="69.332583015784621" lon="18.887343993410468">
        <ele>9.75</ele>
        <time>2017-06-25T11:06:53Z</time>
      </trkpt>
      <trkpt lat="69.332584021613002" lon="18.887017015367746">
        <ele>9.75</ele>
        <time>2017-06-25T11:06:54Z</time>
      </trkpt>
      <trkpt lat="69.332572035491467" lon="18.886717027053237">
        <ele>9.75</ele>
        <time>2017-06-25T11:06:55Z</time>
      </trkpt>
      <trkpt lat="69.332539010792971" lon="18.886442016810179">
        <ele>10.710000000000001</ele>
        <time>2017-06-25T11:06:56Z</time>
      </trkpt>
      <trkpt lat="69.332488970831037" lon="18.886196007952094">
        <ele>11.19</ele>
        <time>2017-06-25T11:06:57Z</time>
      </trkpt>
      <trkpt lat="69.332427028566599" lon="18.885970031842589">
        <ele>11.67</ele>
        <time>2017-06-25T11:06:58Z</time>
      </trkpt>
      <trkpt lat="69.332357961684465" lon="18.885770961642265">
        <ele>12.630000000000001</ele>
        <time>2017-06-25T11:06:59Z</time>
      </trkpt>
      <trkpt lat="69.331946996971965" lon="18.884734958410263">
        <ele>14.08</ele>
        <time>2017-06-25T11:07:06Z</time>
      </trkpt>
      <trkpt lat="69.331911960616708" lon="18.884601015597582">
        <ele>14.08</ele>
        <time>2017-06-25T11:07:07Z</time>
      </trkpt>
      <trkpt lat="69.33189201168716" lon="18.884475035592914">
        <ele>14.56</ele>
        <time>2017-06-25T11:07:08Z</time>
      </trkpt>
      <trkpt lat="69.331887988373637" lon="18.884350983425975">
        <ele>14.56</ele>
        <time>2017-06-25T11:07:09Z</time>
      </trkpt>
      <trkpt lat="69.331900980323553" lon="18.884223997592926">
        <ele>15.039999999999999</ele>
        <time>2017-06-25T11:07:10Z</time>
      </trkpt>
      <trkpt lat="69.33193501085043" lon="18.884119978174567">
        <ele>16</ele>
        <time>2017-06-25T11:07:11Z</time>
      </trkpt>
      <trkpt lat="69.331985972821712" lon="18.884050995111465">
        <ele>16.48</ele>
        <time>2017-06-25T11:07:12Z</time>
      </trkpt>
      <trkpt lat="69.332050010561943" lon="18.884014030918479">
        <ele>16.960000000000001</ele>
        <time>2017-06-25T11:07:13Z</time>
      </trkpt>
      <trkpt lat="69.332122011110187" lon="18.883991986513138">
        <ele>16.48</ele>
        <time>2017-06-25T11:07:14Z</time>
      </trkpt>
      <trkpt lat="69.332205997779965" lon="18.883986035361886">
        <ele>16.48</ele>
        <time>2017-06-25T11:07:15Z</time>
      </trkpt>
      <trkpt lat="69.332297025248408" lon="18.88399500399828">
        <ele>16.960000000000001</ele>
        <time>2017-06-25T11:07:16Z</time>
      </trkpt>
      <trkpt lat="69.333373010158539" lon="18.88418703339994">
        <ele>18.879999999999999</ele>
        <time>2017-06-25T11:07:25Z</time>
      </trkpt>
      <trkpt lat="69.334806986153126" lon="18.885214990004897">
        <ele>24.649999999999999</ele>
        <time>2017-06-25T11:07:34Z</time>
      </trkpt>
      <trkpt lat="69.336881004273891" lon="18.887525964528322">
        <ele>39.549999999999997</ele>
        <time>2017-06-25T11:07:46Z</time>
      </trkpt>
      <trkpt lat="69.33965097181499" lon="18.891658997163177">
        <ele>41.950000000000003</ele>
        <time>2017-06-25T11:08:01Z</time>
      </trkpt>
      <trkpt lat="69.342079041525722" lon="18.895201021805406">
        <ele>42.439999999999998</ele>
        <time>2017-06-25T11:08:13Z</time>
      </trkpt>
      <trkpt lat="69.343010019510984" lon="18.896305002272129">
        <ele>51.57</ele>
        <time>2017-06-25T11:08:18Z</time>
      </trkpt>
      <trkpt lat="69.343202970921993" lon="18.896404998376966">
        <ele>53.490000000000002</ele>
        <time>2017-06-25T11:08:19Z</time>
      </trkpt>
      <trkpt lat="69.343399023637176" lon="18.896460989490151">
        <ele>54.93</ele>
        <time>2017-06-25T11:08:20Z</time>
      </trkpt>
      <trkpt lat="69.343595998361707" lon="18.896459983661771">
        <ele>56.859999999999999</ele>
        <time>2017-06-25T11:08:21Z</time>
      </trkpt>
      <trkpt lat="69.343791967257857" lon="18.896399969235063">
        <ele>58.299999999999997</ele>
        <time>2017-06-25T11:08:22Z</time>
      </trkpt>
      <trkpt lat="69.343983996659517" lon="18.896284969523549">
        <ele>59.740000000000002</ele>
        <time>2017-06-25T11:08:23Z</time>
      </trkpt>
      <trkpt lat="69.344175020232797" lon="18.896127976477146">
        <ele>61.659999999999997</ele>
        <time>2017-06-25T11:08:24Z</time>
      </trkpt>
      <trkpt lat="69.344362020492554" lon="18.895926978439093">
        <ele>63.100000000000001</ele>
        <time>2017-06-25T11:08:25Z</time>
      </trkpt>
      <trkpt lat="69.344539968296885" lon="18.895698990672827">
        <ele>65.030000000000001</ele>
        <time>2017-06-25T11:08:26Z</time>
      </trkpt>
      <trkpt lat="69.345978973433375" lon="18.893536040559411">
        <ele>79.450000000000003</ele>
        <time>2017-06-25T11:08:34Z</time>
      </trkpt>
      <trkpt lat="69.346128003671765" lon="18.893145024776459">
        <ele>81.370000000000005</ele>
        <time>2017-06-25T11:08:35Z</time>
      </trkpt>
      <trkpt lat="69.346263958141208" lon="18.892716960981488">
        <ele>83.290000000000006</ele>
        <time>2017-06-25T11:08:36Z</time>
      </trkpt>
      <trkpt lat="69.346389016136527" lon="18.892252016812563">
        <ele>85.209999999999994</ele>
        <time>2017-06-25T11:08:37Z</time>
      </trkpt>
      <trkpt lat="69.346507033333182" lon="18.891780031844974">
        <ele>87.140000000000001</ele>
        <time>2017-06-25T11:08:38Z</time>
      </trkpt>
      <trkpt lat="69.346862006932497" lon="18.890495002269745">
        <ele>91.459999999999994</ele>
        <time>2017-06-25T11:08:41Z</time>
      </trkpt>
      <trkpt lat="69.347001984715462" lon="18.890168024227023">
        <ele>92.420000000000002</ele>
        <time>2017-06-25T11:08:42Z</time>
      </trkpt>
      <trkpt lat="69.347149003297091" lon="18.889917992055416">
        <ele>93.870000000000005</ele>
        <time>2017-06-25T11:08:43Z</time>
      </trkpt>
      <trkpt lat="69.347299039363861" lon="18.889740966260433">
        <ele>95.310000000000002</ele>
        <time>2017-06-25T11:08:44Z</time>
      </trkpt>
      <trkpt lat="69.347458966076374" lon="18.889633007347584">
        <ele>96.75</ele>
        <time>2017-06-25T11:08:45Z</time>
      </trkpt>
      <trkpt lat="69.347627023234963" lon="18.889605011790991">
        <ele>98.670000000000002</ele>
        <time>2017-06-25T11:08:46Z</time>
      </trkpt>
      <trkpt lat="69.347796002402902" lon="18.889627978205681">
        <ele>100.11</ele>
        <time>2017-06-25T11:08:47Z</time>
      </trkpt>
      <trkpt lat="69.347974034026265" lon="18.889675000682473">
        <ele>102.04000000000001</ele>
        <time>2017-06-25T11:08:48Z</time>
      </trkpt>
      <trkpt lat="69.348530005663633" lon="18.889722023159266">
        <ele>106.84</ele>
        <time>2017-06-25T11:08:51Z</time>
      </trkpt>
      <trkpt lat="69.348712982609868" lon="18.889627978205681">
        <ele>108.77</ele>
        <time>2017-06-25T11:08:52Z</time>
      </trkpt>
      <trkpt lat="69.348892020061612" lon="18.889467967674136">
        <ele>110.20999999999999</ele>
        <time>2017-06-25T11:08:53Z</time>
      </trkpt>
      <trkpt lat="69.349068040028214" lon="18.889265041798353">
        <ele>111.65000000000001</ele>
        <time>2017-06-25T11:08:54Z</time>
      </trkpt>
      <trkpt lat="69.349240036681294" lon="18.889031019061804">
        <ele>113.09</ele>
        <time>2017-06-25T11:08:55Z</time>
      </trkpt>
      <trkpt lat="69.350552977994084" lon="18.886569002643228">
        <ele>122.70999999999999</ele>
        <time>2017-06-25T11:09:03Z</time>
      </trkpt>
      <trkpt lat="69.351785033941269" lon="18.884648960083723">
        <ele>128.94999999999999</ele>
        <time>2017-06-25T11:09:10Z</time>
      </trkpt>
      <trkpt lat="69.353467030450702" lon="18.883731979876757">
        <ele>129.91999999999999</ele>
        <time>2017-06-25T11:09:18Z</time>
      </trkpt>
      <trkpt lat="69.354284014552832" lon="18.88425400480628">
        <ele>127.98999999999999</ele>
        <time>2017-06-25T11:09:22Z</time>
      </trkpt>
      <trkpt lat="69.35447696596384" lon="18.884507976472378">
        <ele>126.55</ele>
        <time>2017-06-25T11:09:23Z</time>
      </trkpt>
      <trkpt lat="69.354663966223598" lon="18.884821962565184">
        <ele>124.15000000000001</ele>
        <time>2017-06-25T11:09:24Z</time>
      </trkpt>
      <trkpt lat="69.354841997846961" lon="18.885180959478021">
        <ele>122.22</ele>
        <time>2017-06-25T11:09:25Z</time>
      </trkpt>
      <trkpt lat="69.355019023641944" lon="18.885577004402876">
        <ele>119.81999999999999</ele>
        <time>2017-06-25T11:09:26Z</time>
      </trkpt>
      <trkpt lat="69.355191020295024" lon="18.886001966893673">
        <ele>117.90000000000001</ele>
        <time>2017-06-25T11:09:27Z</time>
      </trkpt>
      <trkpt lat="69.356986004859209" lon="18.890467006713152">
        <ele>117.90000000000001</ele>
        <time>2017-06-25T11:09:38Z</time>
      </trkpt>
      <trkpt lat="69.357142997905612" lon="18.890670016407967">
        <ele>117.90000000000001</ele>
        <time>2017-06-25T11:09:39Z</time>
      </trkpt>
      <trkpt lat="69.357299990952015" lon="18.890803959220648">
        <ele>117.90000000000001</ele>
        <time>2017-06-25T11:09:40Z</time>
      </trkpt>
      <trkpt lat="69.357453966513276" lon="18.890866991132498">
        <ele>117.90000000000001</ele>
        <time>2017-06-25T11:09:41Z</time>
      </trkpt>
      <trkpt lat="69.35761196538806" lon="18.890857016667724">
        <ele>117.90000000000001</ele>
        <time>2017-06-25T11:09:42Z</time>
      </trkpt>
      <trkpt lat="69.357768958434463" lon="18.890775963664055">
        <ele>117.42</ele>
        <time>2017-06-25T11:09:43Z</time>
      </trkpt>
      <trkpt lat="69.357928968966007" lon="18.890662975609303">
        <ele>116.94</ele>
        <time>2017-06-25T11:09:44Z</time>
      </trkpt>
      <trkpt lat="69.358089985325933" lon="18.890521991997957">
        <ele>116.94</ele>
        <time>2017-06-25T11:09:45Z</time>
      </trkpt>
      <trkpt lat="69.358740001916885" lon="18.890219992026687">
        <ele>116.45999999999999</ele>
        <time>2017-06-25T11:09:49Z</time>
      </trkpt>
      <trkpt lat="69.358905963599682" lon="18.890253016725183">
        <ele>116.94</ele>
        <time>2017-06-25T11:09:50Z</time>
      </trkpt>
      <trkpt lat="69.359062034636736" lon="18.890332980081439">
        <ele>116.94</ele>
        <time>2017-06-25T11:09:51Z</time>
      </trkpt>
      <trkpt lat="69.359211986884475" lon="18.890455020591617">
        <ele>116.94</ele>
        <time>2017-06-25T11:09:52Z</time>
      </trkpt>
      <trkpt lat="69.359353976324201" lon="18.890619976446033">
        <ele>116.94</ele>
        <time>2017-06-25T11:09:53Z</time>
      </trkpt>
      <trkpt lat="69.359494959935546" lon="18.89082700945437">
        <ele>117.42</ele>
        <time>2017-06-25T11:09:54Z</time>
      </trkpt>
      <trkpt lat="69.359629992395639" lon="18.891080981120467">
        <ele>117.90000000000001</ele>
        <time>2017-06-25T11:09:55Z</time>
      </trkpt>
      <trkpt lat="69.359756978228688" lon="18.891381975263357">
        <ele>118.38</ele>
        <time>2017-06-25T11:09:56Z</time>
      </trkpt>
      <trkpt lat="69.359869966283441" lon="18.891720017418265">
        <ele>118.86</ele>
        <time>2017-06-25T11:09:57Z</time>
      </trkpt>
      <trkpt lat="69.359968034550548" lon="18.892101980745792">
        <ele>119.81999999999999</ele>
        <time>2017-06-25T11:09:58Z</time>
      </trkpt>
      <trkpt lat="69.360053027048707" lon="18.892497019842267">
        <ele>120.78</ele>
        <time>2017-06-25T11:09:59Z</time>
      </trkpt>
      <trkpt lat="69.360119998455048" lon="18.892919970676303">
        <ele>121.73999999999999</ele>
        <time>2017-06-25T11:10:00Z</time>
      </trkpt>
      <trkpt lat="69.360174983739853" lon="18.893366977572441">
        <ele>122.70999999999999</ele>
        <time>2017-06-25T11:10:01Z</time>
      </trkpt>
      <trkpt lat="69.360218988731503" lon="18.893832005560398">
        <ele>123.19</ele>
        <time>2017-06-25T11:10:02Z</time>
      </trkpt>
      <trkpt lat="69.360251007601619" lon="18.894307008013129">
        <ele>124.15000000000001</ele>
        <time>2017-06-25T11:10:03Z</time>
      </trkpt>
      <trkpt lat="69.36055501922965" lon="18.901310004293919">
        <ele>132.31999999999999</ele>
        <time>2017-06-25T11:10:17Z</time>
      </trkpt>
      <trkpt lat="69.360969001427293" lon="18.910299008712173">
        <ele>140.00999999999999</ele>
        <time>2017-06-25T11:10:33Z</time>
      </trkpt>
      <trkpt lat="69.361057011410594" lon="18.911975976079702">
        <ele>141.93000000000001</ele>
        <time>2017-06-25T11:10:38Z</time>
      </trkpt>
      <trkpt lat="69.361121971160173" lon="18.91308800317347">
        <ele>143.37</ele>
        <time>2017-06-25T11:10:47Z</time>
      </trkpt>
      <trkpt lat="69.361378960311413" lon="18.915620008483529">
        <ele>144.81999999999999</ele>
        <time>2017-06-25T11:10:54Z</time>
      </trkpt>
      <trkpt lat="69.362151017412543" lon="18.919577021151781">
        <ele>145.78</ele>
        <time>2017-06-25T11:11:04Z</time>
      </trkpt>
      <trkpt lat="69.36326296068728" lon="18.925146963447332">
        <ele>141.44999999999999</ele>
        <time>2017-06-25T11:11:15Z</time>
      </trkpt>
      <trkpt lat="69.364691991358995" lon="18.93018901348114">
        <ele>132.80000000000001</ele>
        <time>2017-06-25T11:11:25Z</time>
      </trkpt>
      <trkpt lat="69.367337990552187" lon="18.938366984948516">
        <ele>123.67</ele>
        <time>2017-06-25T11:11:42Z</time>
      </trkpt>
      <trkpt lat="69.370165038853884" lon="18.944695992395282">
        <ele>111.65000000000001</ele>
        <time>2017-06-25T11:11:58Z</time>
      </trkpt>
      <trkpt lat="69.374159015715122" lon="18.953580977395177">
        <ele>103</ele>
        <time>2017-06-25T11:12:20Z</time>
      </trkpt>
      <trkpt lat="69.37645398080349" lon="18.959414027631283">
        <ele>90.980000000000004</ele>
        <time>2017-06-25T11:12:33Z</time>
      </trkpt>
      <trkpt lat="69.37772199511528" lon="18.962433021515608">
        <ele>79.930000000000007</ele>
        <time>2017-06-25T11:12:41Z</time>
      </trkpt>
      <trkpt lat="69.379364009946585" lon="18.964469991624355">
        <ele>65.030000000000001</ele>
        <time>2017-06-25T11:12:49Z</time>
      </trkpt>
      <trkpt lat="69.380848025903106" lon="18.966897977516055">
        <ele>53.969999999999999</ele>
        <time>2017-06-25T11:12:57Z</time>
      </trkpt>
      <trkpt lat="69.381899032741785" lon="18.968850038945675">
        <ele>47.240000000000002</ele>
        <time>2017-06-25T11:13:04Z</time>
      </trkpt>
      <trkpt lat="69.383045006543398" lon="18.970692967996001">
        <ele>41.469999999999999</ele>
        <time>2017-06-25T11:13:11Z</time>
      </trkpt>
      <trkpt lat="69.38438200391829" lon="18.974113035947084">
        <ele>32.340000000000003</ele>
        <time>2017-06-25T11:13:21Z</time>
      </trkpt>
      <trkpt lat="69.385582963004708" lon="18.976378999650478">
        <ele>21.77</ele>
        <time>2017-06-25T11:13:29Z</time>
      </trkpt>
      <trkpt lat="69.385706009343266" lon="18.9767059776932">
        <ele>20.809999999999999</ele>
        <time>2017-06-25T11:13:30Z</time>
      </trkpt>
      <trkpt lat="69.385820003226399" lon="18.977062040939927">
        <ele>19.84</ele>
        <time>2017-06-25T11:13:31Z</time>
      </trkpt>
      <trkpt lat="69.386851983144879" lon="18.980093020945787">
        <ele>12.630000000000001</ele>
        <time>2017-06-25T11:13:40Z</time>
      </trkpt>
      <trkpt lat="69.388522999361157" lon="18.983417032286525">
        <ele>3.02</ele>
        <time>2017-06-25T11:13:52Z</time>
      </trkpt>
      <trkpt lat="69.388669012114406" lon="18.983586011454463">
        <ele>3.02</ele>
        <time>2017-06-25T11:13:53Z</time>
      </trkpt>
      <trkpt lat="69.388822987675667" lon="18.983707968145609">
        <ele>2.54</ele>
        <time>2017-06-25T11:13:54Z</time>
      </trkpt>
      <trkpt lat="69.388977969065309" lon="18.983806958422065">
        <ele>2.06</ele>
        <time>2017-06-25T11:13:55Z</time>
      </trkpt>
      <trkpt lat="69.389137979596853" lon="18.983853980898857">
        <ele>1.58</ele>
        <time>2017-06-25T11:13:56Z</time>
      </trkpt>
      <trkpt lat="69.389298995956779" lon="18.983884993940592">
        <ele>1.1</ele>
        <time>2017-06-25T11:13:57Z</time>
      </trkpt>
      <trkpt lat="69.392112968489528" lon="18.984313979744911">
        <ele>-1.3</ele>
        <time>2017-06-25T11:14:13Z</time>
      </trkpt>
      <trkpt lat="69.395068008452654" lon="18.984802979975939">
        <ele>-3.71</ele>
        <time>2017-06-25T11:14:30Z</time>
      </trkpt>
      <trkpt lat="69.397969990968704" lon="18.98536398075521">
        <ele>-3.23</ele>
        <time>2017-06-25T11:14:47Z</time>
      </trkpt>
      <trkpt lat="69.399560038000345" lon="18.986571980640292">
        <ele>-5.63</ele>
        <time>2017-06-25T11:14:56Z</time>
      </trkpt>
      <trkpt lat="69.40238700248301" lon="18.989043971523643">
        <ele>1.1</ele>
        <time>2017-06-25T11:15:11Z</time>
      </trkpt>
      <trkpt lat="69.403789965435863" lon="18.990196986123919">
        <ele>-6.59</ele>
        <time>2017-06-25T11:15:18Z</time>
      </trkpt>
      <trkpt lat="69.40573800355196" lon="18.99170296266675">
        <ele>-9.960000000000001</ele>
        <time>2017-06-25T11:15:28Z</time>
      </trkpt>
      <trkpt lat="69.405916035175323" lon="18.991707991808653">
        <ele>-9.48</ele>
        <time>2017-06-25T11:15:29Z</time>
      </trkpt>
      <trkpt lat="69.406095994636416" lon="18.991656024008989">
        <ele>-9.48</ele>
        <time>2017-06-25T11:15:30Z</time>
      </trkpt>
      <trkpt lat="69.406286012381315" lon="18.991552004590631">
        <ele>-9.48</ele>
        <time>2017-06-25T11:15:31Z</time>
      </trkpt>
      <trkpt lat="69.406480975449085" lon="18.991424012929201">
        <ele>-9.960000000000001</ele>
        <time>2017-06-25T11:15:32Z</time>
      </trkpt>
      <trkpt lat="69.407274993136525" lon="18.991167023777962">
        <ele>-11.880000000000001</ele>
        <time>2017-06-25T11:15:36Z</time>
      </trkpt>
      <trkpt lat="69.407475991174579" lon="18.991217985749245">
        <ele>-12.359999999999999</ele>
        <time>2017-06-25T11:15:37Z</time>
      </trkpt>
      <trkpt lat="69.408763032406569" lon="18.991898009553552">
        <ele>-9</ele>
        <time>2017-06-25T11:15:44Z</time>
      </trkpt>
      <trkpt lat="69.410105980932713" lon="18.991934973746538">
        <ele>-8.029999999999999</ele>
        <time>2017-06-25T11:15:51Z</time>
      </trkpt>
      <trkpt lat="69.411869030445814" lon="18.992642993107438">
        <ele>-6.11</ele>
        <time>2017-06-25T11:16:00Z</time>
      </trkpt>
      <trkpt lat="69.413576005026698" lon="18.9943010173738">
        <ele>-6.11</ele>
        <time>2017-06-25T11:16:08Z</time>
      </trkpt>
      <trkpt lat="69.415020039305091" lon="18.995451014488935">
        <ele>-4.67</ele>
        <time>2017-06-25T11:16:16Z</time>
      </trkpt>
      <trkpt lat="69.416477987542748" lon="18.995728958398104">
        <ele>-6.11</ele>
        <time>2017-06-25T11:16:24Z</time>
      </trkpt>
      <trkpt lat="69.419119963422418" lon="18.995593003928661">
        <ele>-4.67</ele>
        <time>2017-06-25T11:16:37Z</time>
      </trkpt>
      <trkpt lat="69.420569026842713" lon="18.995455959811807">
        <ele>-3.71</ele>
        <time>2017-06-25T11:16:45Z</time>
      </trkpt>
      <trkpt lat="69.420724008232355" lon="18.995342971757054">
        <ele>-3.71</ele>
        <time>2017-06-25T11:16:46Z</time>
      </trkpt>
      <trkpt lat="69.420883012935519" lon="18.995179021731019">
        <ele>-4.19</ele>
        <time>2017-06-25T11:16:47Z</time>
      </trkpt>
      <trkpt lat="69.421045035123825" lon="18.994972994551063">
        <ele>-5.15</ele>
        <time>2017-06-25T11:16:48Z</time>
      </trkpt>
      <trkpt lat="69.421209990978241" lon="18.99473000317812">
        <ele>-6.11</ele>
        <time>2017-06-25T11:16:49Z</time>
      </trkpt>
      <trkpt lat="69.421376036480069" lon="18.994448035955429">
        <ele>-6.11</ele>
        <time>2017-06-25T11:16:50Z</time>
      </trkpt>
      <trkpt lat="69.421540992334485" lon="18.994130026549101">
        <ele>-5.63</ele>
        <time>2017-06-25T11:16:51Z</time>
      </trkpt>
      <trkpt lat="69.422880001366138" lon="18.991095023229718">
        <ele>-2.27</ele>
        <time>2017-06-25T11:17:00Z</time>
      </trkpt>
      <trkpt lat="69.423108994960785" lon="18.990306034684181">
        <ele>-3.71</ele>
        <time>2017-06-25T11:17:02Z</time>
      </trkpt>
      <trkpt lat="69.423211002722383" lon="18.989840000867844">
        <ele>-4.67</ele>
        <time>2017-06-25T11:17:03Z</time>
      </trkpt>
      <trkpt lat="69.423304963856936" lon="18.989324010908604">
        <ele>-5.15</ele>
        <time>2017-06-25T11:17:04Z</time>
      </trkpt>
      <trkpt lat="69.423873005434871" lon="18.985617030411959">
        <ele>-6.11</ele>
        <time>2017-06-25T11:17:11Z</time>
      </trkpt>
      <trkpt lat="69.423982976004481" lon="18.985158959403634">
        <ele>-6.11</ele>
        <time>2017-06-25T11:17:12Z</time>
      </trkpt>
      <trkpt lat="69.42410602234304" lon="18.984706001356244">
        <ele>-6.11</ele>
        <time>2017-06-25T11:17:13Z</time>
      </trkpt>
      <trkpt lat="69.425243027508259" lon="18.98119599558413">
        <ele>-5.63</ele>
        <time>2017-06-25T11:17:22Z</time>
      </trkpt>
      <trkpt lat="69.425567993894219" lon="18.980288989841938">
        <ele>-4.67</ele>
        <time>2017-06-25T11:17:25Z</time>
      </trkpt>
      <trkpt lat="69.425692968070507" lon="18.980087991803885">
        <ele>-4.19</ele>
        <time>2017-06-25T11:17:26Z</time>
      </trkpt>
      <trkpt lat="69.425820037722588" lon="18.979963017627597">
        <ele>-3.71</ele>
        <time>2017-06-25T11:17:27Z</time>
      </trkpt>
      <trkpt lat="69.425951968878508" lon="18.979909038171172">
        <ele>-2.75</ele>
        <time>2017-06-25T11:17:28Z</time>
      </trkpt>
      <trkpt lat="69.426082978025079" lon="18.979889005422592">
        <ele>-2.27</ele>
        <time>2017-06-25T11:17:29Z</time>
      </trkpt>
      <trkpt lat="69.426214993000031" lon="18.97988498210907">
        <ele>-1.3</ele>
        <time>2017-06-25T11:17:30Z</time>
      </trkpt>
      <trkpt lat="69.426333010196686" lon="18.97986201569438">
        <ele>-1.3</ele>
        <time>2017-06-25T11:17:31Z</time>
      </trkpt>
      <trkpt lat="69.426441974937916" lon="18.979791020974517">
        <ele>-0.82</ele>
        <time>2017-06-25T11:17:32Z</time>
      </trkpt>
      <trkpt lat="69.426538031548262" lon="18.979661017656326">
        <ele>-0.82</ele>
        <time>2017-06-25T11:17:33Z</time>
      </trkpt>
      <trkpt lat="69.426626963540912" lon="18.979474017396569">
        <ele>-0.82</ele>
        <time>2017-06-25T11:17:34Z</time>
      </trkpt>
      <trkpt lat="69.426697958260775" lon="18.979236977174878">
        <ele>-1.3</ele>
        <time>2017-06-25T11:17:35Z</time>
      </trkpt>
      <trkpt lat="69.426754033192992" lon="18.978932965546846">
        <ele>-0.82</ele>
        <time>2017-06-25T11:17:36Z</time>
      </trkpt>
      <trkpt lat="69.426795020699501" lon="18.97857497446239">
        <ele>-0.82</ele>
        <time>2017-06-25T11:17:37Z</time>
      </trkpt>
      <trkpt lat="69.426825027912855" lon="18.978171972557902">
        <ele>-0.34</ele>
        <time>2017-06-25T11:17:38Z</time>
      </trkpt>
      <trkpt lat="69.426852017641068" lon="18.977750027552247">
        <ele>0.62</ele>
        <time>2017-06-25T11:17:39Z</time>
      </trkpt>
      <trkpt lat="69.42720296792686" lon="18.974107000976801">
        <ele>10.23</ele>
        <time>2017-06-25T11:17:47Z</time>
      </trkpt>
      <trkpt lat="69.427405977621675" lon="18.972685011103749">
        <ele>10.23</ele>
        <time>2017-06-25T11:17:50Z</time>
      </trkpt>
      <trkpt lat="69.427447970956564" lon="18.972156029194593">
        <ele>9.27</ele>
        <time>2017-06-25T11:17:51Z</time>
      </trkpt>
      <trkpt lat="69.427603958174586" lon="18.967568026855588">
        <ele>9.27</ele>
        <time>2017-06-25T11:17:59Z</time>
      </trkpt>
      <trkpt lat="69.42760999314487" lon="18.966448036953807">
        <ele>9.75</ele>
        <time>2017-06-25T11:18:01Z</time>
      </trkpt>
      <trkpt lat="69.427594989538193" lon="18.965858034789562">
        <ele>8.789999999999999</ele>
        <time>2017-06-25T11:18:02Z</time>
      </trkpt>
      <trkpt lat="69.427478983998299" lon="18.961890963837504">
        <ele>13.119999999999999</ele>
        <time>2017-06-25T11:18:09Z</time>
      </trkpt>
      <trkpt lat="69.427615022286773" lon="18.956008041277528">
        <ele>11.19</ele>
        <time>2017-06-25T11:18:21Z</time>
      </trkpt>
      <trkpt lat="69.427814008668065" lon="18.950175996869802">
        <ele>16</ele>
        <time>2017-06-25T11:18:33Z</time>
      </trkpt>
      <trkpt lat="69.427862036973238" lon="18.949808031320572">
        <ele>16.48</ele>
        <time>2017-06-25T11:18:34Z</time>
      </trkpt>
      <trkpt lat="69.427934037521482" lon="18.949480969458818">
        <ele>16.960000000000001</ele>
        <time>2017-06-25T11:18:35Z</time>
      </trkpt>
      <trkpt lat="69.428024981170893" lon="18.949191039428115">
        <ele>16.960000000000001</ele>
        <time>2017-06-25T11:18:36Z</time>
      </trkpt>
      <trkpt lat="69.42812698893249" lon="18.948918962851167">
        <ele>16.960000000000001</ele>
        <time>2017-06-25T11:18:37Z</time>
      </trkpt>
      <trkpt lat="69.428230002522469" lon="18.94864403642714">
        <ele>17.440000000000001</ele>
        <time>2017-06-25T11:18:38Z</time>
      </trkpt>
      <trkpt lat="69.429309004917741" lon="18.945579025894403">
        <ele>12.15</ele>
        <time>2017-06-25T11:18:47Z</time>
      </trkpt>
      <trkpt lat="69.429600024595857" lon="18.945035962387919">
        <ele>11.19</ele>
        <time>2017-06-25T11:18:49Z</time>
      </trkpt>
      <trkpt lat="69.42975701764226" lon="18.94482197239995">
        <ele>10.23</ele>
        <time>2017-06-25T11:18:50Z</time>
      </trkpt>
      <trkpt lat="69.429925996810198" lon="18.944662967696786">
        <ele>9.75</ele>
        <time>2017-06-25T11:18:51Z</time>
      </trkpt>
      <trkpt lat="69.430106962099671" lon="18.944544028490782">
        <ele>8.310000000000001</ele>
        <time>2017-06-25T11:18:52Z</time>
      </trkpt>
      <trkpt lat="69.430307960137725" lon="18.944490971043706">
        <ele>7.35</ele>
        <time>2017-06-25T11:18:53Z</time>
      </trkpt>
      <trkpt lat="69.430519016459584" lon="18.944490971043706">
        <ele>7.35</ele>
        <time>2017-06-25T11:18:54Z</time>
      </trkpt>
      <trkpt lat="69.430739963427186" lon="18.944519972428679">
        <ele>6.87</ele>
        <time>2017-06-25T11:18:55Z</time>
      </trkpt>
      <trkpt lat="69.432446015998721" lon="18.944867989048362">
        <ele>16</ele>
        <time>2017-06-25T11:19:03Z</time>
      </trkpt>
      <trkpt lat="69.433572040870786" lon="18.94441201351583">
        <ele>22.25</ele>
        <time>2017-06-25T11:19:10Z</time>
      </trkpt>
      <trkpt lat="69.433718975633383" lon="18.944225013256073">
        <ele>22.73</ele>
        <time>2017-06-25T11:19:11Z</time>
      </trkpt>
      <trkpt lat="69.433865994215012" lon="18.944000964984298">
        <ele>22.25</ele>
        <time>2017-06-25T11:19:12Z</time>
      </trkpt>
      <trkpt lat="69.434823039919138" lon="18.941655959933996">
        <ele>18.399999999999999</ele>
        <time>2017-06-25T11:19:19Z</time>
      </trkpt>
      <trkpt lat="69.43577597849071" lon="18.937850994989276">
        <ele>8.789999999999999</ele>
        <time>2017-06-25T11:19:28Z</time>
      </trkpt>
      <trkpt lat="69.436863027513027" lon="18.935759039595723">
        <ele>5.91</ele>
        <time>2017-06-25T11:19:35Z</time>
      </trkpt>
      <trkpt lat="69.438501019030809" lon="18.934039995074272">
        <ele>13.119999999999999</ele>
        <time>2017-06-25T11:19:44Z</time>
      </trkpt>
      <trkpt lat="69.439570968970656" lon="18.932421030476689">
        <ele>19.359999999999999</ele>
        <time>2017-06-25T11:19:51Z</time>
      </trkpt>
      <trkpt lat="69.441293030977249" lon="18.929506978020072">
        <ele>16.960000000000001</ele>
        <time>2017-06-25T11:20:01Z</time>
      </trkpt>
      <trkpt lat="69.443311979994178" lon="18.925823969766498">
        <ele>14.56</ele>
        <time>2017-06-25T11:20:15Z</time>
      </trkpt>
      <trkpt lat="69.443412981927395" lon="18.925471007823944">
        <ele>15.039999999999999</ele>
        <time>2017-06-25T11:20:16Z</time>
      </trkpt>
      <trkpt lat="69.443504009395838" lon="18.925094995647669">
        <ele>14.56</ele>
        <time>2017-06-25T11:20:17Z</time>
      </trkpt>
      <trkpt lat="69.443586990237236" lon="18.924686964601278">
        <ele>14.56</ele>
        <time>2017-06-25T11:20:18Z</time>
      </trkpt>
      <trkpt lat="69.444339014589787" lon="18.920533983036876">
        <ele>10.710000000000001</ele>
        <time>2017-06-25T11:20:27Z</time>
      </trkpt>
      <trkpt lat="69.445327995344996" lon="18.916114959865808">
        <ele>12.630000000000001</ele>
        <time>2017-06-25T11:20:37Z</time>
      </trkpt>
      <trkpt lat="69.446699023246765" lon="18.912987001240253">
        <ele>17.440000000000001</ele>
        <time>2017-06-25T11:20:46Z</time>
      </trkpt>
      <trkpt lat="69.448788966983557" lon="18.909117998555303">
        <ele>21.289999999999999</ele>
        <time>2017-06-25T11:20:59Z</time>
      </trkpt>
      <trkpt lat="69.450552016496658" lon="18.906613988801837">
        <ele>19.84</ele>
        <time>2017-06-25T11:21:10Z</time>
      </trkpt>
      <trkpt lat="69.451730009168386" lon="18.905545966699719">
        <ele>15.039999999999999</ele>
        <time>2017-06-25T11:21:18Z</time>
      </trkpt>
      <trkpt lat="69.453634964302182" lon="18.905467009171844">
        <ele>10.23</ele>
        <time>2017-06-25T11:21:29Z</time>
      </trkpt>
      <trkpt lat="69.455906040966511" lon="18.905505985021591">
        <ele>7.35</ele>
        <time>2017-06-25T11:21:43Z</time>
      </trkpt>
      <trkpt lat="69.457793980836868" lon="18.906793026253581">
        <ele>5.42</ele>
        <time>2017-06-25T11:21:55Z</time>
      </trkpt>
      <trkpt lat="69.459526017308235" lon="18.907826012000442">
        <ele>5.42</ele>
        <time>2017-06-25T11:22:07Z</time>
      </trkpt>
      <trkpt lat="69.461157973855734" lon="18.907796004787087">
        <ele>3.98</ele>
        <time>2017-06-25T11:22:17Z</time>
      </trkpt>
      <trkpt lat="69.46269596926868" lon="18.907039035111666">
        <ele>7.83</ele>
        <time>2017-06-25T11:22:27Z</time>
      </trkpt>
      <trkpt lat="69.464573012664914" lon="18.905854001641273">
        <ele>15.039999999999999</ele>
        <time>2017-06-25T11:22:39Z</time>
      </trkpt>
      <trkpt lat="69.466602019965649" lon="18.904250962659717">
        <ele>15.52</ele>
        <time>2017-06-25T11:22:50Z</time>
      </trkpt>
      <trkpt lat="69.469237960875034" lon="18.902222961187363">
        <ele>19.359999999999999</ele>
        <time>2017-06-25T11:23:05Z</time>
      </trkpt>
      <trkpt lat="69.47165597230196" lon="18.900443986058235">
        <ele>17.440000000000001</ele>
        <time>2017-06-25T11:23:19Z</time>
      </trkpt>
      <trkpt lat="69.474492995068431" lon="18.898471975699067">
        <ele>10.23</ele>
        <time>2017-06-25T11:23:32Z</time>
      </trkpt>
      <trkpt lat="69.477963019162416" lon="18.896120013669133">
        <ele>6.87</ele>
        <time>2017-06-25T11:23:48Z</time>
      </trkpt>
      <trkpt lat="69.48286802507937" lon="18.892711009830236">
        <ele>7.83</ele>
        <time>2017-06-25T11:24:10Z</time>
      </trkpt>
      <trkpt lat="69.485356025397778" lon="18.890733970329165">
        <ele>10.710000000000001</ele>
        <time>2017-06-25T11:24:22Z</time>
      </trkpt>
      <trkpt lat="69.485546965152025" lon="18.890430964529514">
        <ele>10.23</ele>
        <time>2017-06-25T11:24:23Z</time>
      </trkpt>
      <trkpt lat="69.485730025917292" lon="18.89009602367878">
        <ele>9.75</ele>
        <time>2017-06-25T11:24:24Z</time>
      </trkpt>
      <trkpt lat="69.485894981771708" lon="18.88973199762404">
        <ele>9.27</ele>
        <time>2017-06-25T11:24:25Z</time>
      </trkpt>
      <trkpt lat="69.486035965383053" lon="18.889337964355946">
        <ele>8.789999999999999</ele>
        <time>2017-06-25T11:24:26Z</time>
      </trkpt>
      <trkpt lat="69.48615800589323" lon="18.888907972723246">
        <ele>8.310000000000001</ele>
        <time>2017-06-25T11:24:27Z</time>
      </trkpt>
      <trkpt lat="69.486267976462841" lon="18.88844302855432">
        <ele>8.310000000000001</ele>
        <time>2017-06-25T11:24:28Z</time>
      </trkpt>
      <trkpt lat="69.486365960910916" lon="18.887951010838151">
        <ele>7.83</ele>
        <time>2017-06-25T11:24:29Z</time>
      </trkpt>
      <trkpt lat="69.486451037228107" lon="18.887420017272234">
        <ele>7.35</ele>
        <time>2017-06-25T11:24:30Z</time>
      </trkpt>
      <trkpt lat="69.486519014462829" lon="18.886889023706317">
        <ele>7.83</ele>
        <time>2017-06-25T11:24:31Z</time>
      </trkpt>
      <trkpt lat="69.486569976434112" lon="18.886351995170116">
        <ele>8.789999999999999</ele>
        <time>2017-06-25T11:24:32Z</time>
      </trkpt>
      <trkpt lat="69.486599983647466" lon="18.885816978290677">
        <ele>9.75</ele>
        <time>2017-06-25T11:24:33Z</time>
      </trkpt>
      <trkpt lat="69.486614987254143" lon="18.885277016088367">
        <ele>9.75</ele>
        <time>2017-06-25T11:24:34Z</time>
      </trkpt>
      <trkpt lat="69.486613981425762" lon="18.88472699560225">
        <ele>10.23</ele>
        <time>2017-06-25T11:24:35Z</time>
      </trkpt>
      <trkpt lat="69.486596966162324" lon="18.884162977337837">
        <ele>10.710000000000001</ele>
        <time>2017-06-25T11:24:36Z</time>
      </trkpt>
      <trkpt lat="69.486563019454479" lon="18.883607005700469">
        <ele>11.19</ele>
        <time>2017-06-25T11:24:37Z</time>
      </trkpt>
      <trkpt lat="69.486520020291209" lon="18.883041981607676">
        <ele>12.15</ele>
        <time>2017-06-25T11:24:38Z</time>
      </trkpt>
      <trkpt lat="69.485901016741991" lon="18.876804001629353">
        <ele>4.94</ele>
        <time>2017-06-25T11:24:48Z</time>
      </trkpt>
      <trkpt lat="69.484880017116666" lon="18.865869976580143">
        <ele>12.630000000000001</ele>
        <time>2017-06-25T11:25:05Z</time>
      </trkpt>
      <trkpt lat="69.484707014635205" lon="18.864477993920445">
        <ele>14.08</ele>
        <time>2017-06-25T11:25:08Z</time>
      </trkpt>
      <trkpt lat="69.484623027965426" lon="18.864071974530816">
        <ele>14.56</ele>
        <time>2017-06-25T11:25:09Z</time>
      </trkpt>
      <trkpt lat="69.48452303186059" lon="18.863695040345192">
        <ele>14.56</ele>
        <time>2017-06-25T11:25:10Z</time>
      </trkpt>
      <trkpt lat="69.484409959986806" lon="18.863359009847045">
        <ele>14.08</ele>
        <time>2017-06-25T11:25:11Z</time>
      </trkpt>
      <trkpt lat="69.484283979982138" lon="18.86304896324873">
        <ele>13.6</ele>
        <time>2017-06-25T11:25:12Z</time>
      </trkpt>
      <trkpt lat="69.484150959178805" lon="18.86276800185442">
        <ele>13.119999999999999</ele>
        <time>2017-06-25T11:25:13Z</time>
      </trkpt>
      <trkpt lat="69.484006036072969" lon="18.862509001046419">
        <ele>12.630000000000001</ele>
        <time>2017-06-25T11:25:14Z</time>
      </trkpt>
      <trkpt lat="69.483848037198186" lon="18.862276989966631">
        <ele>11.67</ele>
        <time>2017-06-25T11:25:15Z</time>
      </trkpt>
      <trkpt lat="69.483685009181499" lon="18.862073980271816">
        <ele>10.710000000000001</ele>
        <time>2017-06-25T11:25:16Z</time>
      </trkpt>
      <trkpt lat="69.483026023954153" lon="18.861271999776363">
        <ele>5.91</ele>
        <time>2017-06-25T11:25:20Z</time>
      </trkpt>
      <trkpt lat="69.482889985665679" lon="18.861010987311602">
        <ele>4.94</ele>
        <time>2017-06-25T11:25:21Z</time>
      </trkpt>
      <trkpt lat="69.482781020924449" lon="18.860698007047176">
        <ele>4.94</ele>
        <time>2017-06-25T11:25:22Z</time>
      </trkpt>
      <trkpt lat="69.482690999284387" lon="18.860333980992436">
        <ele>4.94</ele>
        <time>2017-06-25T11:25:23Z</time>
      </trkpt>
      <trkpt lat="69.482625033706427" lon="18.859927039593458">
        <ele>4.94</ele>
        <time>2017-06-25T11:25:24Z</time>
      </trkpt>
      <trkpt lat="69.482580022886395" lon="18.859483972191811">
        <ele>5.42</ele>
        <time>2017-06-25T11:25:25Z</time>
      </trkpt>
      <trkpt lat="69.482558984309435" lon="18.859007963910699">
        <ele>5.91</ele>
        <time>2017-06-25T11:25:26Z</time>
      </trkpt>
      <trkpt lat="69.482545992359519" lon="18.858504965901375">
        <ele>6.39</ele>
        <time>2017-06-25T11:25:27Z</time>
      </trkpt>
      <trkpt lat="69.482443984597921" lon="18.853694004938006">
        <ele>5.42</ele>
        <time>2017-06-25T11:25:36Z</time>
      </trkpt>
      <trkpt lat="69.48269602842629" lon="18.850008985027671">
        <ele>11.67</ele>
        <time>2017-06-25T11:25:43Z</time>
      </trkpt>
      <trkpt lat="69.482985036447644" lon="18.848598981276155">
        <ele>15.039999999999999</ele>
        <time>2017-06-25T11:25:46Z</time>
      </trkpt>
      <trkpt lat="69.483112022280693" lon="18.848182987421751">
        <ele>16.48</ele>
        <time>2017-06-25T11:25:47Z</time>
      </trkpt>
      <trkpt lat="69.483244037255645" lon="18.847828013822436">
        <ele>17.920000000000002</ele>
        <time>2017-06-25T11:25:48Z</time>
      </trkpt>
      <trkpt lat="69.48338401503861" lon="18.847502963617444">
        <ele>18.879999999999999</ele>
        <time>2017-06-25T11:25:49Z</time>
      </trkpt>
      <trkpt lat="69.483534973114729" lon="18.847196018323302">
        <ele>18.879999999999999</ele>
        <time>2017-06-25T11:25:50Z</time>
      </trkpt>
      <trkpt lat="69.483698001131415" lon="18.846914973109961">
        <ele>19.359999999999999</ele>
        <time>2017-06-25T11:25:51Z</time>
      </trkpt>
      <trkpt lat="69.485045978799462" lon="18.845080006867647">
        <ele>18.879999999999999</ele>
        <time>2017-06-25T11:25:58Z</time>
      </trkpt>
      <trkpt lat="69.488296983763576" lon="18.840899029746652">
        <ele>15.039999999999999</ele>
        <time>2017-06-25T11:26:13Z</time>
      </trkpt>
      <trkpt lat="69.491865998134017" lon="18.836264004930854">
        <ele>15.039999999999999</ele>
        <time>2017-06-25T11:26:29Z</time>
      </trkpt>
      <trkpt lat="69.493342973291874" lon="18.834361983463168">
        <ele>15.52</ele>
        <time>2017-06-25T11:26:37Z</time>
      </trkpt>
      <trkpt lat="69.493751004338264" lon="18.834039028733969">
        <ele>13.6</ele>
        <time>2017-06-25T11:26:39Z</time>
      </trkpt>
      <trkpt lat="69.493963988497853" lon="18.833966022357345">
        <ele>12.630000000000001</ele>
        <time>2017-06-25T11:26:40Z</time>
      </trkpt>
      <trkpt lat="69.494177978485823" lon="18.833964010700583">
        <ele>11.67</ele>
        <time>2017-06-25T11:26:41Z</time>
      </trkpt>
      <trkpt lat="69.49438601732254" lon="18.834018995985389">
        <ele>11.19</ele>
        <time>2017-06-25T11:26:42Z</time>
      </trkpt>
      <trkpt lat="69.494588021188974" lon="18.834113962948322">
        <ele>10.710000000000001</ele>
        <time>2017-06-25T11:26:43Z</time>
      </trkpt>
      <trkpt lat="69.494777033105493" lon="18.834261987358332">
        <ele>9.75</ele>
        <time>2017-06-25T11:26:44Z</time>
      </trkpt>
      <trkpt lat="69.494956992566586" lon="18.834457034245133">
        <ele>9.27</ele>
        <time>2017-06-25T11:26:45Z</time>
      </trkpt>
      <trkpt lat="69.495134018361568" lon="18.834698013961315">
        <ele>8.310000000000001</ele>
        <time>2017-06-25T11:26:46Z</time>
      </trkpt>
      <trkpt lat="69.495307020843029" lon="18.834979981184006">
        <ele>7.35</ele>
        <time>2017-06-25T11:26:47Z</time>
      </trkpt>
      <trkpt lat="69.495476000010967" lon="18.835297990590334">
        <ele>6.87</ele>
        <time>2017-06-25T11:26:48Z</time>
      </trkpt>
      <trkpt lat="69.495647996664047" lon="18.835647013038397">
        <ele>6.39</ele>
        <time>2017-06-25T11:26:49Z</time>
      </trkpt>
      <trkpt lat="69.495814964175224" lon="18.836043979972601">
        <ele>6.39</ele>
        <time>2017-06-25T11:26:50Z</time>
      </trkpt>
      <trkpt lat="69.49597698636353" lon="18.836477994918823">
        <ele>5.91</ele>
        <time>2017-06-25T11:26:51Z</time>
      </trkpt>
      <trkpt lat="69.497573990374804" lon="18.841163981705904">
        <ele>9.27</ele>
        <time>2017-06-25T11:27:01Z</time>
      </trkpt>
      <trkpt lat="69.499834002926946" lon="18.847754001617432">
        <ele>6.39</ele>
        <time>2017-06-25T11:27:15Z</time>
      </trkpt>
      <trkpt lat="69.502333989366889" lon="18.8549480214715">
        <ele>9.27</ele>
        <time>2017-06-25T11:27:31Z</time>
      </trkpt>
      <trkpt lat="69.504955010488629" lon="18.862486034631729">
        <ele>6.87</ele>
        <time>2017-06-25T11:27:47Z</time>
      </trkpt>
      <trkpt lat="69.506404995918274" lon="18.866557963192463">
        <ele>9.75</ele>
        <time>2017-06-25T11:27:57Z</time>
      </trkpt>
      <trkpt lat="69.506537010893226" lon="18.866775976493955">
        <ele>10.23</ele>
        <time>2017-06-25T11:27:58Z</time>
      </trkpt>
      <trkpt lat="69.506683023646474" lon="18.86695702560246">
        <ele>10.23</ele>
        <time>2017-06-25T11:27:59Z</time>
      </trkpt>
      <trkpt lat="69.506844040006399" lon="18.867098009213805">
        <ele>9.75</ele>
        <time>2017-06-25T11:28:00Z</time>
      </trkpt>
      <trkpt lat="69.507011007517576" lon="18.867189036682248">
        <ele>9.75</ele>
        <time>2017-06-25T11:28:01Z</time>
      </trkpt>
      <trkpt lat="69.507187027484179" lon="18.867219965904951">
        <ele>9.27</ele>
        <time>2017-06-25T11:28:02Z</time>
      </trkpt>
      <trkpt lat="69.507370004430413" lon="18.867198005318642">
        <ele>8.789999999999999</ele>
        <time>2017-06-25T11:28:03Z</time>
      </trkpt>
      <trkpt lat="69.507561028003693" lon="18.867132961750031">
        <ele>8.310000000000001</ele>
        <time>2017-06-25T11:28:04Z</time>
      </trkpt>
      <trkpt lat="69.509720038622618" lon="18.866130989044905">
        <ele>8.310000000000001</ele>
        <time>2017-06-25T11:28:14Z</time>
      </trkpt>
      <trkpt lat="69.512087004259229" lon="18.865136979147792">
        <ele>14.56</ele>
        <time>2017-06-25T11:28:26Z</time>
      </trkpt>
      <trkpt lat="69.513536989688873" lon="18.864202983677387">
        <ele>8.310000000000001</ele>
        <time>2017-06-25T11:28:33Z</time>
      </trkpt>
      <trkpt lat="69.515501959249377" lon="18.862956007942557">
        <ele>6.39</ele>
        <time>2017-06-25T11:28:42Z</time>
      </trkpt>
      <trkpt lat="69.516836022958159" lon="18.862842014059424">
        <ele>3.5</ele>
        <time>2017-06-25T11:28:49Z</time>
      </trkpt>
      <trkpt lat="69.519863985478878" lon="18.863045023754239">
        <ele>16.960000000000001</ele>
        <time>2017-06-25T11:29:04Z</time>
      </trkpt>
      <trkpt lat="69.522463968023658" lon="18.863446014001966">
        <ele>11.67</ele>
        <time>2017-06-25T11:29:16Z</time>
      </trkpt>
      <trkpt lat="69.524547038599849" lon="18.864275990054011">
        <ele>15.039999999999999</ele>
        <time>2017-06-25T11:29:27Z</time>
      </trkpt>
      <trkpt lat="69.524714006111026" lon="18.864256041124463">
        <ele>15.52</ele>
        <time>2017-06-25T11:29:28Z</time>
      </trkpt>
      <trkpt lat="69.524879967793822" lon="18.86418697424233">
        <ele>16</ele>
        <time>2017-06-25T11:29:29Z</time>
      </trkpt>
      <trkpt lat="69.525048024952412" lon="18.864065017551184">
        <ele>16.48</ele>
        <time>2017-06-25T11:29:30Z</time>
      </trkpt>
      <trkpt lat="69.52521800994873" lon="18.863896960392594">
        <ele>16.960000000000001</ele>
        <time>2017-06-25T11:29:31Z</time>
      </trkpt>
      <trkpt lat="69.526844015344977" lon="18.862171964719892">
        <ele>18.399999999999999</ele>
        <time>2017-06-25T11:29:41Z</time>
      </trkpt>
      <trkpt lat="69.529352970421314" lon="18.859492018818855">
        <ele>9.27</ele>
        <time>2017-06-25T11:29:55Z</time>
      </trkpt>
      <trkpt lat="69.531296985223889" lon="18.85748396627605">
        <ele>7.35</ele>
        <time>2017-06-25T11:30:06Z</time>
      </trkpt>
      <trkpt lat="69.531458001583815" lon="18.85741900652647">
        <ele>7.35</ele>
        <time>2017-06-25T11:30:07Z</time>
      </trkpt>
      <trkpt lat="69.531617006286979" lon="18.857414983212948">
        <ele>7.35</ele>
        <time>2017-06-25T11:30:08Z</time>
      </trkpt>
      <trkpt lat="69.531772993505001" lon="18.857477009296417">
        <ele>7.35</ele>
        <time>2017-06-25T11:30:09Z</time>
      </trkpt>
      <trkpt lat="69.531924035400152" lon="18.857601983472705">
        <ele>7.83</ele>
        <time>2017-06-25T11:30:10Z</time>
      </trkpt>
      <trkpt lat="69.532070970162749" lon="18.857797030359507">
        <ele>7.83</ele>
        <time>2017-06-25T11:30:11Z</time>
      </trkpt>
      <trkpt lat="69.532218994572759" lon="18.858032980933785">
        <ele>7.83</ele>
        <time>2017-06-25T11:30:12Z</time>
      </trkpt>
      <trkpt lat="69.532364001497626" lon="18.858307991176844">
        <ele>7.83</ele>
        <time>2017-06-25T11:30:13Z</time>
      </trkpt>
      <trkpt lat="69.53301896341145" lon="18.859242992475629">
        <ele>6.87</ele>
        <time>2017-06-25T11:30:17Z</time>
      </trkpt>
      <trkpt lat="69.533195989206433" lon="18.859371989965439">
        <ele>6.87</ele>
        <time>2017-06-25T11:30:18Z</time>
      </trkpt>
      <trkpt lat="69.533371003344655" lon="18.859456982463598">
        <ele>6.39</ele>
        <time>2017-06-25T11:30:19Z</time>
      </trkpt>
      <trkpt lat="69.533551968634129" lon="18.859496964141726">
        <ele>6.39</ele>
        <time>2017-06-25T11:30:20Z</time>
      </trkpt>
      <trkpt lat="69.533733017742634" lon="18.859505010768771">
        <ele>5.91</ele>
        <time>2017-06-25T11:30:21Z</time>
      </trkpt>
      <trkpt lat="69.533917000517249" lon="18.859483972191811">
        <ele>6.39</ele>
        <time>2017-06-25T11:30:22Z</time>
      </trkpt>
      <trkpt lat="69.534101989120245" lon="18.859438039362431">
        <ele>6.39</ele>
        <time>2017-06-25T11:30:23Z</time>
      </trkpt>
      <trkpt lat="69.536637011915445" lon="18.858731025829911">
        <ele>10.23</ele>
        <time>2017-06-25T11:30:37Z</time>
      </trkpt>
      <trkpt lat="69.539271024987102" lon="18.857862995937467">
        <ele>12.15</ele>
        <time>2017-06-25T11:30:52Z</time>
      </trkpt>
      <trkpt lat="69.541756007820368" lon="18.856726996600628">
        <ele>6.39</ele>
        <time>2017-06-25T11:31:06Z</time>
      </trkpt>
      <trkpt lat="69.54468104057014" lon="18.855376001447439">
        <ele>9.27</ele>
        <time>2017-06-25T11:31:24Z</time>
      </trkpt>
      <trkpt lat="69.547728030011058" lon="18.853979995474219">
        <ele>3.98</ele>
        <time>2017-06-25T11:31:41Z</time>
      </trkpt>
      <trkpt lat="69.550832016393542" lon="18.8525649625808">
        <ele>8.789999999999999</ele>
        <time>2017-06-25T11:31:59Z</time>
      </trkpt>
      <trkpt lat="69.553525960072875" lon="18.851393004879355">
        <ele>3.02</ele>
        <time>2017-06-25T11:32:14Z</time>
      </trkpt>
      <trkpt lat="69.553697034716606" lon="18.851405996829271">
        <ele>3.02</ele>
        <time>2017-06-25T11:32:15Z</time>
      </trkpt>
      <trkpt lat="69.554182011634111" lon="18.851491995155811">
        <ele>3.5</ele>
        <time>2017-06-25T11:32:18Z</time>
      </trkpt>
      <trkpt lat="69.554340010508895" lon="18.851458970457315">
        <ele>3.98</ele>
        <time>2017-06-25T11:32:19Z</time>
      </trkpt>
      <trkpt lat="69.554499015212059" lon="18.851384958252311">
        <ele>3.98</ele>
        <time>2017-06-25T11:32:20Z</time>
      </trkpt>
      <trkpt lat="69.554658019915223" lon="18.8512749876827">
        <ele>3.98</ele>
        <time>2017-06-25T11:32:21Z</time>
      </trkpt>
      <trkpt lat="69.554815012961626" lon="18.851107014343143">
        <ele>3.98</ele>
        <time>2017-06-25T11:32:22Z</time>
      </trkpt>
      <trkpt lat="69.554968988522887" lon="18.850891012698412">
        <ele>3.5</ele>
        <time>2017-06-25T11:32:23Z</time>
      </trkpt>
      <trkpt lat="69.555123969912529" lon="18.850617008283734">
        <ele>3.5</ele>
        <time>2017-06-25T11:32:24Z</time>
      </trkpt>
      <trkpt lat="69.555281968787313" lon="18.850304028019309">
        <ele>3.02</ele>
        <time>2017-06-25T11:32:25Z</time>
      </trkpt>
      <trkpt lat="69.557003024965525" lon="18.846581960096955">
        <ele>2.54</ele>
        <time>2017-06-25T11:32:36Z</time>
      </trkpt>
      <trkpt lat="69.557655975222588" lon="18.844403000548482">
        <ele>2.54</ele>
        <time>2017-06-25T11:32:42Z</time>
      </trkpt>
      <trkpt lat="69.557784972712398" lon="18.843997986987233">
        <ele>3.02</ele>
        <time>2017-06-25T11:32:47Z</time>
      </trkpt>
      <trkpt lat="69.5577900018543" lon="18.843950964510441">
        <ele>3.02</ele>
        <time>2017-06-25T11:33:02Z</time>
      </trkpt>
      <trkpt lat="69.557782039046288" lon="18.84396898560226">
        <ele>3.02</ele>
        <time>2017-06-25T11:35:41Z</time>
      </trkpt>
      <trkpt lat="69.557776004076004" lon="18.843979965895414">
        <ele>3.02</ele>
        <time>2017-06-25T11:38:22Z</time>
      </trkpt>
      <trkpt lat="69.557782039046288" lon="18.843934033066034">
        <ele>3.02</ele>
        <time>2017-06-25T11:39:04Z</time>
      </trkpt>
      <trkpt lat="69.557867031544447" lon="18.843423994258046">
        <ele>3.02</ele>
        <time>2017-06-25T11:39:08Z</time>
      </trkpt>
      <trkpt lat="69.558354020118713" lon="18.841458018869162">
        <ele>4.46</ele>
        <time>2017-06-25T11:39:16Z</time>
      </trkpt>
      <trkpt lat="69.559139991179109" lon="18.838257975876331">
        <ele>4.94</ele>
        <time>2017-06-25T11:39:26Z</time>
      </trkpt>
      <trkpt lat="69.559834012761712" lon="18.835475016385317">
        <ele>4.46</ele>
        <time>2017-06-25T11:39:35Z</time>
      </trkpt>
      <trkpt lat="69.5604960154742" lon="18.833196982741356">
        <ele>3.98</ele>
        <time>2017-06-25T11:39:41Z</time>
      </trkpt>
      <trkpt lat="69.560640016570687" lon="18.832879979163408">
        <ele>4.46</ele>
        <time>2017-06-25T11:39:42Z</time>
      </trkpt>
      <trkpt lat="69.560792986303568" lon="18.832593988627195">
        <ele>3.98</ele>
        <time>2017-06-25T11:39:43Z</time>
      </trkpt>
      <trkpt lat="69.562158985063434" lon="18.829942038282752">
        <ele>4.46</ele>
        <time>2017-06-25T11:39:52Z</time>
      </trkpt>
      <trkpt lat="69.562373980879784" lon="18.829138968139887">
        <ele>4.46</ele>
        <time>2017-06-25T11:39:54Z</time>
      </trkpt>
      <trkpt lat="69.562455033883452" lon="18.828704031184316">
        <ele>4.46</ele>
        <time>2017-06-25T11:39:55Z</time>
      </trkpt>
      <trkpt lat="69.562518987804651" lon="18.828253000974655">
        <ele>4.94</ele>
        <time>2017-06-25T11:39:56Z</time>
      </trkpt>
      <trkpt lat="69.562562992796302" lon="18.827806999906898">
        <ele>5.42</ele>
        <time>2017-06-25T11:39:57Z</time>
      </trkpt>
      <trkpt lat="69.562582019716501" lon="18.827385976910591">
        <ele>5.42</ele>
        <time>2017-06-25T11:39:58Z</time>
      </trkpt>
      <trkpt lat="69.562579002231359" lon="18.826947016641498">
        <ele>5.91</ele>
        <time>2017-06-25T11:39:59Z</time>
      </trkpt>
      <trkpt lat="69.562553018331528" lon="18.826503027230501">
        <ele>5.91</ele>
        <time>2017-06-25T11:40:00Z</time>
      </trkpt>
      <trkpt lat="69.562504990026355" lon="18.826026013121009">
        <ele>5.42</ele>
        <time>2017-06-25T11:40:01Z</time>
      </trkpt>
      <trkpt lat="69.562439024448395" lon="18.825526032596827">
        <ele>5.42</ele>
        <time>2017-06-25T11:40:02Z</time>
      </trkpt>
      <trkpt lat="69.562355959787965" lon="18.825000990182161">
        <ele>5.42</ele>
        <time>2017-06-25T11:40:03Z</time>
      </trkpt>
      <trkpt lat="69.561503017321229" lon="18.818869041278958">
        <ele>6.39</ele>
        <time>2017-06-25T11:40:14Z</time>
      </trkpt>
      <trkpt lat="69.561207974329591" lon="18.816849002614617">
        <ele>7.35</ele>
        <time>2017-06-25T11:40:18Z</time>
      </trkpt>
      <trkpt lat="69.561114013195038" lon="18.81646896712482">
        <ele>7.83</ele>
        <time>2017-06-25T11:40:19Z</time>
      </trkpt>
      <trkpt lat="69.561003036797047" lon="18.81614500656724">
        <ele>7.83</ele>
        <time>2017-06-25T11:40:20Z</time>
      </trkpt>
      <trkpt lat="69.560880996286869" lon="18.815849041566253">
        <ele>7.83</ele>
        <time>2017-06-25T11:40:21Z</time>
      </trkpt>
      <trkpt lat="69.560751998797059" lon="18.815563973039389">
        <ele>7.35</ele>
        <time>2017-06-25T11:40:22Z</time>
      </trkpt>
      <trkpt lat="69.559316011145711" lon="18.812810014933348">
        <ele>5.91</ele>
        <time>2017-06-25T11:40:33Z</time>
      </trkpt>
      <trkpt lat="69.559090035036206" lon="18.812595019116998">
        <ele>5.91</ele>
        <time>2017-06-25T11:40:38Z</time>
      </trkpt>
      <trkpt lat="69.55907603725791" lon="18.812585966661572">
        <ele>4.94</ele>
        <time>2017-06-25T11:40:51Z</time>
      </trkpt>
      <trkpt lat="69.558887025341392" lon="18.81255897693336">
        <ele>4.94</ele>
        <time>2017-06-25T11:42:14Z</time>
      </trkpt>
      <trkpt lat="69.557996029034257" lon="18.812739020213485">
        <ele>3.5</ele>
        <time>2017-06-25T11:42:23Z</time>
      </trkpt>
      <trkpt lat="69.557366967201233" lon="18.812822001054883">
        <ele>3.5</ele>
        <time>2017-06-25T11:42:30Z</time>
      </trkpt>
      <trkpt lat="69.557298989966512" lon="18.812788976356387">
        <ele>3.5</ele>
        <time>2017-06-25T11:42:31Z</time>
      </trkpt>
      <trkpt lat="69.557122969999909" lon="18.81281403824687">
        <ele>3.5</ele>
        <time>2017-06-25T11:42:34Z</time>
      </trkpt>
      <trkpt lat="69.557089023292065" lon="18.812904981896281">
        <ele>3.02</ele>
        <time>2017-06-25T11:42:35Z</time>
      </trkpt>
      <trkpt lat="69.557074019685388" lon="18.813032973557711">
        <ele>3.02</ele>
        <time>2017-06-25T11:42:36Z</time>
      </trkpt>
      <trkpt lat="69.557082988321781" lon="18.813167000189424">
        <ele>3.02</ele>
        <time>2017-06-25T11:42:37Z</time>
      </trkpt>
      <trkpt lat="69.557108972221613" lon="18.813288034871221">
        <ele>3.02</ele>
        <time>2017-06-25T11:42:38Z</time>
      </trkpt>
      <trkpt lat="69.55714400857687" lon="18.813406974077225">
        <ele>3.02</ele>
        <time>2017-06-25T11:42:39Z</time>
      </trkpt>
      <trkpt lat="69.557188013568521" lon="18.813544018194079">
        <ele>2.54</ele>
        <time>2017-06-25T11:42:40Z</time>
      </trkpt>
      <trkpt lat="69.557270994409919" lon="18.813917012885213">
        <ele>2.06</ele>
        <time>2017-06-25T11:42:42Z</time>
      </trkpt>
      <trkpt lat="69.557710960507393" lon="18.815884999930859">
        <ele>-2.75</ele>
        <time>2017-06-25T11:42:49Z</time>
      </trkpt>
      <trkpt lat="69.576081996783614" lon="18.7850980181247">
        <ele>9.75</ele>
        <time>2017-06-25T11:45:01Z</time>
      </trkpt>
      <trkpt lat="69.576359018683434" lon="18.785643009468913">
        <ele>13.119999999999999</ele>
        <time>2017-06-25T11:45:04Z</time>
      </trkpt>
      <trkpt lat="69.576453985646367" lon="18.785775024443865">
        <ele>12.630000000000001</ele>
        <time>2017-06-25T11:45:05Z</time>
      </trkpt>
      <trkpt lat="69.576559010893106" lon="18.785865968093276">
        <ele>13.6</ele>
        <time>2017-06-25T11:45:06Z</time>
      </trkpt>
      <trkpt lat="69.576664958149195" lon="18.785921037197113">
        <ele>13.6</ele>
        <time>2017-06-25T11:45:07Z</time>
      </trkpt>
      <trkpt lat="69.576773000881076" lon="18.785953978076577">
        <ele>13.119999999999999</ele>
        <time>2017-06-25T11:45:08Z</time>
      </trkpt>
      <trkpt lat="69.576880959793925" lon="18.785941991955042">
        <ele>14.08</ele>
        <time>2017-06-25T11:45:09Z</time>
      </trkpt>
      <trkpt lat="69.576993025839329" lon="18.785887006670237">
        <ele>15.52</ele>
        <time>2017-06-25T11:45:10Z</time>
      </trkpt>
      <trkpt lat="69.577099978923798" lon="18.785794973373413">
        <ele>16</ele>
        <time>2017-06-25T11:45:11Z</time>
      </trkpt>
      <trkpt lat="69.577199975028634" lon="18.785671005025506">
        <ele>16.48</ele>
        <time>2017-06-25T11:45:12Z</time>
      </trkpt>
      <trkpt lat="69.577294019982219" lon="18.785512000322342">
        <ele>16.960000000000001</ele>
        <time>2017-06-25T11:45:13Z</time>
      </trkpt>
      <trkpt lat="69.577378006651998" lon="18.785341009497643">
        <ele>17.440000000000001</ele>
        <time>2017-06-25T11:45:14Z</time>
      </trkpt>
      <trkpt lat="69.577449001371861" lon="18.785168007016182">
        <ele>18.399999999999999</ele>
        <time>2017-06-25T11:45:15Z</time>
      </trkpt>
      <trkpt lat="69.577508009970188" lon="18.784985030069947">
        <ele>18.399999999999999</ele>
        <time>2017-06-25T11:45:16Z</time>
      </trkpt>
      <trkpt lat="69.577559977769852" lon="18.78479702398181">
        <ele>18.879999999999999</ele>
        <time>2017-06-25T11:45:17Z</time>
      </trkpt>
      <trkpt lat="69.577713031321764" lon="18.784329984337091">
        <ele>20.32</ele>
        <time>2017-06-25T11:45:20Z</time>
      </trkpt>
      <trkpt lat="69.577772039920092" lon="18.784242980182171">
        <ele>20.32</ele>
        <time>2017-06-25T11:45:21Z</time>
      </trkpt>
      <trkpt lat="69.577838005498052" lon="18.784210961312056">
        <ele>20.32</ele>
        <time>2017-06-25T11:45:22Z</time>
      </trkpt>
      <trkpt lat="69.577915035188198" lon="18.784239962697029">
        <ele>20.32</ele>
        <time>2017-06-25T11:45:23Z</time>
      </trkpt>
      <trkpt lat="69.577997010201216" lon="18.784334007650614">
        <ele>20.809999999999999</ele>
        <time>2017-06-25T11:45:24Z</time>
      </trkpt>
      <trkpt lat="69.578088037669659" lon="18.784458981826901">
        <ele>20.809999999999999</ele>
        <time>2017-06-25T11:45:25Z</time>
      </trkpt>
      <trkpt lat="69.578177975490689" lon="18.784617986530066">
        <ele>20.809999999999999</ele>
        <time>2017-06-25T11:45:26Z</time>
      </trkpt>
      <trkpt lat="69.579341970384121" lon="18.786577004939318">
        <ele>20.32</ele>
        <time>2017-06-25T11:45:40Z</time>
      </trkpt>
      <trkpt lat="69.580613002181053" lon="18.78853996284306">
        <ele>22.25</ele>
        <time>2017-06-25T11:45:52Z</time>
      </trkpt>
      <trkpt lat="69.582138005644083" lon="18.790940036997199">
        <ele>19.359999999999999</ele>
        <time>2017-06-25T11:46:04Z</time>
      </trkpt>
      <trkpt lat="69.584165001288056" lon="18.793342038989067">
        <ele>19.359999999999999</ele>
        <time>2017-06-25T11:46:17Z</time>
      </trkpt>
      <trkpt lat="69.586962964385748" lon="18.79588502459228">
        <ele>19.359999999999999</ele>
        <time>2017-06-25T11:46:34Z</time>
      </trkpt>
      <trkpt lat="69.590483028441668" lon="18.799203000962734">
        <ele>17.440000000000001</ele>
        <time>2017-06-25T11:46:55Z</time>
      </trkpt>
      <trkpt lat="69.592348001897335" lon="18.801166964694858">
        <ele>13.6</ele>
        <time>2017-06-25T11:47:06Z</time>
      </trkpt>
      <trkpt lat="69.595044041052461" lon="18.80312698893249">
        <ele>15.52</ele>
        <time>2017-06-25T11:47:22Z</time>
      </trkpt>
      <trkpt lat="69.597010016441345" lon="18.803436029702425">
        <ele>13.6</ele>
        <time>2017-06-25T11:47:33Z</time>
      </trkpt>
      <trkpt lat="69.59985701367259" lon="18.803933998569846">
        <ele>5.91</ele>
        <time>2017-06-25T11:47:49Z</time>
      </trkpt>
      <trkpt lat="69.600877007469535" lon="18.805426983162761">
        <ele>6.39</ele>
        <time>2017-06-25T11:47:56Z</time>
      </trkpt>
      <trkpt lat="69.602402010932565" lon="18.808827018365264">
        <ele>6.87</ele>
        <time>2017-06-25T11:48:07Z</time>
      </trkpt>
      <trkpt lat="69.60387303493917" lon="18.81184802390635">
        <ele>10.710000000000001</ele>
        <time>2017-06-25T11:48:17Z</time>
      </trkpt>
      <trkpt lat="69.604042014107108" lon="18.811962017789483">
        <ele>10.710000000000001</ele>
        <time>2017-06-25T11:48:18Z</time>
      </trkpt>
      <trkpt lat="69.604214010760188" lon="18.81204298697412">
        <ele>10.710000000000001</ele>
        <time>2017-06-25T11:48:19Z</time>
      </trkpt>
      <trkpt lat="69.60438902489841" lon="18.8120630197227">
        <ele>10.710000000000001</ele>
        <time>2017-06-25T11:48:20Z</time>
      </trkpt>
      <trkpt lat="69.604564039036632" lon="18.81204198114574">
        <ele>10.710000000000001</ele>
        <time>2017-06-25T11:48:21Z</time>
      </trkpt>
      <trkpt lat="69.604738969355822" lon="18.811995964497328">
        <ele>10.710000000000001</ele>
        <time>2017-06-25T11:48:22Z</time>
      </trkpt>
      <trkpt lat="69.605897013098001" lon="18.810957027599216">
        <ele>15.52</ele>
        <time>2017-06-25T11:48:29Z</time>
      </trkpt>
      <trkpt lat="69.608094999566674" lon="18.808201979845762">
        <ele>16.48</ele>
        <time>2017-06-25T11:48:42Z</time>
      </trkpt>
      <trkpt lat="69.609282966703176" lon="18.806935977190733">
        <ele>16.960000000000001</ele>
        <time>2017-06-25T11:48:49Z</time>
      </trkpt>
      <trkpt lat="69.609442977234721" lon="18.806867999956012">
        <ele>16.48</ele>
        <time>2017-06-25T11:48:50Z</time>
      </trkpt>
      <trkpt lat="69.609607011079788" lon="18.806830029934645">
        <ele>16</ele>
        <time>2017-06-25T11:48:51Z</time>
      </trkpt>
      <trkpt lat="69.61130996234715" lon="18.807172011584044">
        <ele>15.039999999999999</ele>
        <time>2017-06-25T11:49:02Z</time>
      </trkpt>
      <trkpt lat="69.611894013360143" lon="18.807333027943969">
        <ele>14.56</ele>
        <time>2017-06-25T11:49:08Z</time>
      </trkpt>
      <trkpt lat="69.612549981102347" lon="18.807501001283526">
        <ele>15.039999999999999</ele>
        <time>2017-06-25T11:49:18Z</time>
      </trkpt>
      <trkpt lat="69.613825958222151" lon="18.807824039831758">
        <ele>14.56</ele>
        <time>2017-06-25T11:49:32Z</time>
      </trkpt>
      <trkpt lat="69.61457597091794" lon="18.807999975979328">
        <ele>15.039999999999999</ele>
        <time>2017-06-25T11:49:44Z</time>
      </trkpt>
      <trkpt lat="69.615485994145274" lon="18.80819602869451">
        <ele>16.960000000000001</ele>
        <time>2017-06-25T11:49:52Z</time>
      </trkpt>
      <trkpt lat="69.617003034800291" lon="18.807953037321568">
        <ele>16.48</ele>
        <time>2017-06-25T11:50:03Z</time>
      </trkpt>
      <trkpt lat="69.619640987366438" lon="18.807234037667513">
        <ele>11.67</ele>
        <time>2017-06-25T11:50:18Z</time>
      </trkpt>
      <trkpt lat="69.622673979029059" lon="18.806404983624816">
        <ele>23.210000000000001</ele>
        <time>2017-06-25T11:50:35Z</time>
      </trkpt>
      <trkpt lat="69.624904990196228" lon="18.805513987317681">
        <ele>18.399999999999999</ele>
        <time>2017-06-25T11:50:48Z</time>
      </trkpt>
      <trkpt lat="69.62617501616478" lon="18.803495960310102">
        <ele>16.960000000000001</ele>
        <time>2017-06-25T11:50:56Z</time>
      </trkpt>
      <trkpt lat="69.627067018300295" lon="18.800620967522264">
        <ele>18.879999999999999</ele>
        <time>2017-06-25T11:51:04Z</time>
      </trkpt>
      <trkpt lat="69.628120958805084" lon="18.795136017724872">
        <ele>33.299999999999997</ele>
        <time>2017-06-25T11:51:17Z</time>
      </trkpt>
      <trkpt lat="69.628251967951655" lon="18.791412021964788">
        <ele>36.670000000000002</ele>
        <time>2017-06-25T11:51:25Z</time>
      </trkpt>
      <trkpt lat="69.627920966595411" lon="18.786552026867867">
        <ele>32.82</ele>
        <time>2017-06-25T11:51:34Z</time>
      </trkpt>
      <trkpt lat="69.62742199189961" lon="18.779483987018466">
        <ele>24.170000000000002</ele>
        <time>2017-06-25T11:51:46Z</time>
      </trkpt>
      <trkpt lat="69.62699300609529" lon="18.77302598208189">
        <ele>21.289999999999999</ele>
        <time>2017-06-25T11:51:57Z</time>
      </trkpt>
      <trkpt lat="69.62695000693202" lon="18.767518987879157">
        <ele>22.25</ele>
        <time>2017-06-25T11:52:06Z</time>
      </trkpt>
      <trkpt lat="69.627364994958043" lon="18.762146020308137">
        <ele>16</ele>
        <time>2017-06-25T11:52:15Z</time>
      </trkpt>
      <trkpt lat="69.628577018156648" lon="18.753175036981702">
        <ele>9.75</ele>
        <time>2017-06-25T11:52:31Z</time>
      </trkpt>
      <trkpt lat="69.629741013050079" lon="18.744187038391829">
        <ele>25.129999999999999</ele>
        <time>2017-06-25T11:52:48Z</time>
      </trkpt>
      <trkpt lat="69.629830028861761" lon="18.742698999121785">
        <ele>27.530000000000001</ele>
        <time>2017-06-25T11:52:51Z</time>
      </trkpt>
      <trkpt lat="69.629827011376619" lon="18.742196001112461">
        <ele>28.02</ele>
        <time>2017-06-25T11:52:52Z</time>
      </trkpt>
      <trkpt lat="69.629812007769942" lon="18.741670036688447">
        <ele>28.02</ele>
        <time>2017-06-25T11:52:53Z</time>
      </trkpt>
      <trkpt lat="69.629429960623384" lon="18.738180985674262">
        <ele>26.57</ele>
        <time>2017-06-25T11:53:00Z</time>
      </trkpt>
      <trkpt lat="69.628550028428435" lon="18.733837986364961">
        <ele>22.25</ele>
        <time>2017-06-25T11:53:09Z</time>
      </trkpt>
      <trkpt lat="69.628502000123262" lon="18.733367007225752">
        <ele>22.25</ele>
        <time>2017-06-25T11:53:10Z</time>
      </trkpt>
      <trkpt lat="69.628480039536953" lon="18.732917988672853">
        <ele>22.25</ele>
        <time>2017-06-25T11:53:11Z</time>
      </trkpt>
      <trkpt lat="69.628479033708572" lon="18.732462013140321">
        <ele>22.25</ele>
        <time>2017-06-25T11:53:12Z</time>
      </trkpt>
      <trkpt lat="69.628494959324598" lon="18.732006959617138">
        <ele>21.77</ele>
        <time>2017-06-25T11:53:13Z</time>
      </trkpt>
      <trkpt lat="69.628525972366333" lon="18.731532040983438">
        <ele>21.289999999999999</ele>
        <time>2017-06-25T11:53:14Z</time>
      </trkpt>
      <trkpt lat="69.628570983186364" lon="18.731059972196817">
        <ele>19.84</ele>
        <time>2017-06-25T11:53:15Z</time>
      </trkpt>
      <trkpt lat="69.629281014204025" lon="18.725957991555333">
        <ele>7.83</ele>
        <time>2017-06-25T11:53:26Z</time>
      </trkpt>
      <trkpt lat="69.629388973116875" lon="18.725572004914284">
        <ele>7.83</ele>
        <time>2017-06-25T11:53:27Z</time>
      </trkpt>
      <trkpt lat="69.629511013627052" lon="18.725213008001447">
        <ele>7.83</ele>
        <time>2017-06-25T11:53:28Z</time>
      </trkpt>
      <trkpt lat="69.629641016945243" lon="18.724890975281596">
        <ele>7.83</ele>
        <time>2017-06-25T11:53:29Z</time>
      </trkpt>
      <trkpt lat="69.629784012213349" lon="18.724594004452229">
        <ele>8.310000000000001</ele>
        <time>2017-06-25T11:53:30Z</time>
      </trkpt>
      <trkpt lat="69.629933964461088" lon="18.724321005865932">
        <ele>8.310000000000001</ele>
        <time>2017-06-25T11:53:31Z</time>
      </trkpt>
      <trkpt lat="69.630091041326523" lon="18.72408396564424">
        <ele>8.789999999999999</ele>
        <time>2017-06-25T11:53:32Z</time>
      </trkpt>
      <trkpt lat="69.630254991352558" lon="18.723861007019877">
        <ele>8.789999999999999</ele>
        <time>2017-06-25T11:53:33Z</time>
      </trkpt>
      <trkpt lat="69.632784985005856" lon="18.720853999257088">
        <ele>13.6</ele>
        <time>2017-06-25T11:53:48Z</time>
      </trkpt>
      <trkpt lat="69.634141009300947" lon="18.719859989359975">
        <ele>16.48</ele>
        <time>2017-06-25T11:53:57Z</time>
      </trkpt>
      <trkpt lat="69.635342974215746" lon="18.720395006239414">
        <ele>15.52</ele>
        <time>2017-06-25T11:54:06Z</time>
      </trkpt>
      <trkpt lat="69.637252958491445" lon="18.721610968932509">
        <ele>12.630000000000001</ele>
        <time>2017-06-25T11:54:18Z</time>
      </trkpt>
      <trkpt lat="69.638649970293045" lon="18.723472002893686">
        <ele>13.6</ele>
        <time>2017-06-25T11:54:27Z</time>
      </trkpt>
      <trkpt lat="69.640488037839532" lon="18.725903006270528">
        <ele>10.23</ele>
        <time>2017-06-25T11:54:39Z</time>
      </trkpt>
      <trkpt lat="69.643887989223003" lon="18.729077987372875">
        <ele>7.35</ele>
        <time>2017-06-25T11:54:58Z</time>
      </trkpt>
      <trkpt lat="69.645805014297366" lon="18.73220301233232">
        <ele>12.15</ele>
        <time>2017-06-25T11:55:10Z</time>
      </trkpt>
      <trkpt lat="69.648126969113946" lon="18.736041001975536">
        <ele>13.6</ele>
        <time>2017-06-25T11:55:24Z</time>
      </trkpt>
      <trkpt lat="69.650831976905465" lon="18.740475028753281">
        <ele>11.19</ele>
        <time>2017-06-25T11:55:41Z</time>
      </trkpt>
      <trkpt lat="69.652971038594842" lon="18.743252037093043">
        <ele>11.67</ele>
        <time>2017-06-25T11:55:55Z</time>
      </trkpt>
      <trkpt lat="69.655564986169338" lon="18.744754996150732">
        <ele>12.15</ele>
        <time>2017-06-25T11:56:11Z</time>
      </trkpt>
      <trkpt lat="69.657591981813312" lon="18.74561196193099">
        <ele>14.08</ele>
        <time>2017-06-25T11:56:23Z</time>
      </trkpt>
      <trkpt lat="69.659376991912723" lon="18.746197018772364">
        <ele>14.56</ele>
        <time>2017-06-25T11:56:34Z</time>
      </trkpt>
      <trkpt lat="69.660221971571445" lon="18.747489005327225">
        <ele>15.039999999999999</ele>
        <time>2017-06-25T11:56:40Z</time>
      </trkpt>
      <trkpt lat="69.662245027720928" lon="18.752132998779416">
        <ele>16.960000000000001</ele>
        <time>2017-06-25T11:56:55Z</time>
      </trkpt>
      <trkpt lat="69.663580013439059" lon="18.754987036809325">
        <ele>16.960000000000001</ele>
        <time>2017-06-25T11:57:05Z</time>
      </trkpt>
      <trkpt lat="69.663719991222024" lon="18.755131037905812">
        <ele>17.440000000000001</ele>
        <time>2017-06-25T11:57:06Z</time>
      </trkpt>
      <trkpt lat="69.663859969004989" lon="18.755218964070082">
        <ele>17.440000000000001</ele>
        <time>2017-06-25T11:57:07Z</time>
      </trkpt>
      <trkpt lat="69.663993995636702" lon="18.755245031788945">
        <ele>17.440000000000001</ele>
        <time>2017-06-25T11:57:08Z</time>
      </trkpt>
      <trkpt lat="69.664132967591286" lon="18.755246037617326">
        <ele>17.440000000000001</ele>
        <time>2017-06-25T11:57:09Z</time>
      </trkpt>
      <trkpt lat="69.664272023364902" lon="18.755208989605308">
        <ele>17.920000000000002</ele>
        <time>2017-06-25T11:57:10Z</time>
      </trkpt>
      <trkpt lat="69.664410995319486" lon="18.755150986835361">
        <ele>17.440000000000001</ele>
        <time>2017-06-25T11:57:11Z</time>
      </trkpt>
      <trkpt lat="69.665718991309404" lon="18.753852965310216">
        <ele>15.039999999999999</ele>
        <time>2017-06-25T11:57:20Z</time>
      </trkpt>
      <trkpt lat="69.666639994829893" lon="18.751977011561394">
        <ele>12.630000000000001</ele>
        <time>2017-06-25T11:57:27Z</time>
      </trkpt>
      <trkpt lat="69.668290978297591" lon="18.748666997998953">
        <ele>15.039999999999999</ele>
        <time>2017-06-25T11:57:40Z</time>
      </trkpt>
      <trkpt lat="69.670391986146569" lon="18.746202969923615">
        <ele>13.6</ele>
        <time>2017-06-25T11:57:55Z</time>
      </trkpt>
      <trkpt lat="69.672168027609587" lon="18.744758013635874">
        <ele>15.039999999999999</ele>
        <time>2017-06-25T11:58:09Z</time>
      </trkpt>
      <trkpt lat="69.67391598969698" lon="18.744370015338063">
        <ele>15.039999999999999</ele>
        <time>2017-06-25T11:58:23Z</time>
      </trkpt>
      <trkpt lat="69.675071015954018" lon="18.744820039719343">
        <ele>10.710000000000001</ele>
        <time>2017-06-25T11:58:32Z</time>
      </trkpt>
      <trkpt lat="69.676456041634083" lon="18.745965007692575">
        <ele>8.789999999999999</ele>
        <time>2017-06-25T11:58:44Z</time>
      </trkpt>
      <trkpt lat="69.676907993853092" lon="18.746607983484864">
        <ele>11.19</ele>
        <time>2017-06-25T11:58:49Z</time>
      </trkpt>
      <trkpt lat="69.676983011886477" lon="18.746788026764989">
        <ele>11.67</ele>
        <time>2017-06-25T11:58:50Z</time>
      </trkpt>
      <trkpt lat="69.677050989121199" lon="18.746996987611055">
        <ele>11.67</ele>
        <time>2017-06-25T11:58:51Z</time>
      </trkpt>
      <trkpt lat="69.677108991891146" lon="18.747234027832747">
        <ele>12.15</ele>
        <time>2017-06-25T11:58:52Z</time>
      </trkpt>
      <trkpt lat="69.677155008539557" lon="18.747494034469128">
        <ele>13.119999999999999</ele>
        <time>2017-06-25T11:58:53Z</time>
      </trkpt>
      <trkpt lat="69.677186021581292" lon="18.74777901917696">
        <ele>13.119999999999999</ele>
        <time>2017-06-25T11:58:54Z</time>
      </trkpt>
      <trkpt lat="69.677198007702827" lon="18.748082024976611">
        <ele>13.6</ele>
        <time>2017-06-25T11:58:55Z</time>
      </trkpt>
      <trkpt lat="69.677188033238053" lon="18.748388970270753">
        <ele>14.08</ele>
        <time>2017-06-25T11:58:56Z</time>
      </trkpt>
      <trkpt lat="69.677156014367938" lon="18.748693987727165">
        <ele>15.039999999999999</ele>
        <time>2017-06-25T11:58:57Z</time>
      </trkpt>
      <trkpt lat="69.677103962749243" lon="18.748978972434998">
        <ele>15.039999999999999</ele>
        <time>2017-06-25T11:58:58Z</time>
      </trkpt>
      <trkpt lat="69.677035985514522" lon="18.749245014041662">
        <ele>15.52</ele>
        <time>2017-06-25T11:58:59Z</time>
      </trkpt>
      <trkpt lat="69.676954010501504" lon="18.749491022899747">
        <ele>16</ele>
        <time>2017-06-25T11:59:00Z</time>
      </trkpt>
      <trkpt lat="69.676859965547919" lon="18.749716999009252">
        <ele>16</ele>
        <time>2017-06-25T11:59:01Z</time>
      </trkpt>
      <trkpt lat="69.67675200663507" lon="18.749919002875686">
        <ele>16.48</ele>
        <time>2017-06-25T11:59:02Z</time>
      </trkpt>
      <trkpt lat="69.676636001095176" lon="18.750110026448965">
        <ele>16.48</ele>
        <time>2017-06-25T11:59:03Z</time>
      </trkpt>
      <trkpt lat="69.675597986206412" lon="18.752472968772054">
        <ele>16.48</ele>
        <time>2017-06-25T11:59:12Z</time>
      </trkpt>
      <trkpt lat="69.674469027668238" lon="18.757343022152781">
        <ele>15.52</ele>
        <time>2017-06-25T11:59:26Z</time>
      </trkpt>
      <trkpt lat="69.674247996881604" lon="18.759308997541666">
        <ele>16.48</ele>
        <time>2017-06-25T11:59:31Z</time>
      </trkpt>
      <trkpt lat="69.674239028245211" lon="18.759719962254167">
        <ele>16.48</ele>
        <time>2017-06-25T11:59:32Z</time>
      </trkpt>
      <trkpt lat="69.674241961911321" lon="18.760130004957318">
        <ele>16.960000000000001</ele>
        <time>2017-06-25T11:59:33Z</time>
      </trkpt>
      <trkpt lat="69.674257971346378" lon="18.760534012690187">
        <ele>16.960000000000001</ele>
        <time>2017-06-25T11:59:34Z</time>
      </trkpt>
      <trkpt lat="69.674284039065242" lon="18.760933997109532">
        <ele>16.960000000000001</ele>
        <time>2017-06-25T11:59:35Z</time>
      </trkpt>
      <trkpt lat="69.674321003258228" lon="18.761324007064104">
        <ele>17.440000000000001</ele>
        <time>2017-06-25T11:59:36Z</time>
      </trkpt>
      <trkpt lat="69.674365008249879" lon="18.761709993705153">
        <ele>17.440000000000001</ele>
        <time>2017-06-25T11:59:37Z</time>
      </trkpt>
      <trkpt lat="69.67529296875" lon="18.767458973452449">
        <ele>15.039999999999999</ele>
        <time>2017-06-25T11:59:52Z</time>
      </trkpt>
      <trkpt lat="69.676312040537596" lon="18.769825017079711">
        <ele>17.920000000000002</ele>
        <time>2017-06-25T12:00:01Z</time>
      </trkpt>
      <trkpt lat="69.678181037306786" lon="18.773999037221074">
        <ele>12.630000000000001</ele>
        <time>2017-06-25T12:00:17Z</time>
      </trkpt>
      <trkpt lat="69.679651977494359" lon="18.778047999367118">
        <ele>13.6</ele>
        <time>2017-06-25T12:00:31Z</time>
      </trkpt>
      <trkpt lat="69.681308995932341" lon="18.783468995243311">
        <ele>11.19</ele>
        <time>2017-06-25T12:00:48Z</time>
      </trkpt>
      <trkpt lat="69.681920958682895" lon="18.786722011864185">
        <ele>11.67</ele>
        <time>2017-06-25T12:00:57Z</time>
      </trkpt>
      <trkpt lat="69.683201964944601" lon="18.794431015849113">
        <ele>14.08</ele>
        <time>2017-06-25T12:01:17Z</time>
      </trkpt>
      <trkpt lat="69.68371401540935" lon="18.799325041472912">
        <ele>14.08</ele>
        <time>2017-06-25T12:01:29Z</time>
      </trkpt>
      <trkpt lat="69.683745028451085" lon="18.803510963916779">
        <ele>10.23</ele>
        <time>2017-06-25T12:01:39Z</time>
      </trkpt>
      <trkpt lat="69.683743016794324" lon="18.808787958696485">
        <ele>10.23</ele>
        <time>2017-06-25T12:01:51Z</time>
      </trkpt>
      <trkpt lat="69.683773024007678" lon="18.813405968248844">
        <ele>10.23</ele>
        <time>2017-06-25T12:02:03Z</time>
      </trkpt>
      <trkpt lat="69.683743016794324" lon="18.813645020127296">
        <ele>10.23</ele>
        <time>2017-06-25T12:02:04Z</time>
      </trkpt>
      <trkpt lat="69.683697000145912" lon="18.814250025898218">
        <ele>10.23</ele>
        <time>2017-06-25T12:02:07Z</time>
      </trkpt>
      <trkpt lat="69.683719966560602" lon="18.814434008672833">
        <ele>10.23</ele>
        <time>2017-06-25T12:02:08Z</time>
      </trkpt>
      <trkpt lat="69.683863967657089" lon="18.815451990813017">
        <ele>10.710000000000001</ele>
        <time>2017-06-25T12:02:12Z</time>
      </trkpt>
      <trkpt lat="69.683891041204333" lon="18.815788021311164">
        <ele>10.710000000000001</ele>
        <time>2017-06-25T12:02:13Z</time>
      </trkpt>
      <trkpt lat="69.684006962925196" lon="18.819269025698304">
        <ele>11.19</ele>
        <time>2017-06-25T12:02:22Z</time>
      </trkpt>
      <trkpt lat="69.684135038405657" lon="18.824399001896381">
        <ele>9.27</ele>
        <time>2017-06-25T12:02:36Z</time>
      </trkpt>
      <trkpt lat="69.684290019795299" lon="18.830249989405274">
        <ele>8.310000000000001</ele>
        <time>2017-06-25T12:02:53Z</time>
      </trkpt>
      <trkpt lat="69.684563018381596" lon="18.836086979135871">
        <ele>10.710000000000001</ele>
        <time>2017-06-25T12:03:09Z</time>
      </trkpt>
      <trkpt lat="69.685148997232318" lon="18.842909010127187">
        <ele>6.87</ele>
        <time>2017-06-25T12:03:26Z</time>
      </trkpt>
      <trkpt lat="69.68545401468873" lon="18.845943007618189">
        <ele>8.310000000000001</ele>
        <time>2017-06-25T12:03:34Z</time>
      </trkpt>
      <trkpt lat="69.685522997751832" lon="18.846283983439207">
        <ele>8.310000000000001</ele>
        <time>2017-06-25T12:03:35Z</time>
      </trkpt>
      <trkpt lat="69.685599021613598" lon="18.84661003947258">
        <ele>7.83</ele>
        <time>2017-06-25T12:03:36Z</time>
      </trkpt>
      <trkpt lat="69.686847003176808" lon="18.850974999368191">
        <ele>8.789999999999999</ele>
        <time>2017-06-25T12:03:50Z</time>
      </trkpt>
      <trkpt lat="69.688133038580418" lon="18.855429980903864">
        <ele>16.48</ele>
        <time>2017-06-25T12:04:05Z</time>
      </trkpt>
      <trkpt lat="69.688369994983077" lon="18.856567991897464">
        <ele>18.399999999999999</ele>
        <time>2017-06-25T12:04:10Z</time>
      </trkpt>
      <trkpt lat="69.688392039388418" lon="18.85677401907742">
        <ele>17.920000000000002</ele>
        <time>2017-06-25T12:04:11Z</time>
      </trkpt>
      <trkpt lat="69.688479965552688" lon="18.857386987656355">
        <ele>18.399999999999999</ele>
        <time>2017-06-25T12:04:14Z</time>
      </trkpt>
      <trkpt lat="69.688538974151015" lon="18.857538029551506">
        <ele>18.399999999999999</ele>
        <time>2017-06-25T12:04:15Z</time>
      </trkpt>
      <trkpt lat="69.688608041033149" lon="18.857663003727794">
        <ele>18.399999999999999</ele>
        <time>2017-06-25T12:04:16Z</time>
      </trkpt>
      <trkpt lat="69.689277000725269" lon="18.85931096971035">
        <ele>17.920000000000002</ele>
        <time>2017-06-25T12:04:24Z</time>
      </trkpt>
      <trkpt lat="69.690265981480479" lon="18.862880989909172">
        <ele>16</ele>
        <time>2017-06-25T12:04:37Z</time>
      </trkpt>
      <trkpt lat="69.691287986934185" lon="18.866376997902989">
        <ele>18.399999999999999</ele>
        <time>2017-06-25T12:04:51Z</time>
      </trkpt>
      <trkpt lat="69.691323023289442" lon="18.86659299954772">
        <ele>18.399999999999999</ele>
        <time>2017-06-25T12:04:52Z</time>
      </trkpt>
      <trkpt lat="69.691348001360893" lon="18.866797015070915">
        <ele>18.879999999999999</ele>
        <time>2017-06-25T12:04:53Z</time>
      </trkpt>
      <trkpt lat="69.691417990252376" lon="18.867419958114624">
        <ele>18.399999999999999</ele>
        <time>2017-06-25T12:04:56Z</time>
      </trkpt>
      <trkpt lat="69.691470041871071" lon="18.867587009444833">
        <ele>18.399999999999999</ele>
        <time>2017-06-25T12:04:57Z</time>
      </trkpt>
      <trkpt lat="69.691536007449031" lon="18.867728998884559">
        <ele>18.879999999999999</ele>
        <time>2017-06-25T12:04:58Z</time>
      </trkpt>
      <trkpt lat="69.692134978249669" lon="18.869481990113854">
        <ele>20.809999999999999</ele>
        <time>2017-06-25T12:05:06Z</time>
      </trkpt>
      <trkpt lat="69.693178022280335" lon="18.873086962848902">
        <ele>16.960000000000001</ele>
        <time>2017-06-25T12:05:20Z</time>
      </trkpt>
      <trkpt lat="69.693814963102341" lon="18.875265000388026">
        <ele>16.960000000000001</ele>
        <time>2017-06-25T12:05:31Z</time>
      </trkpt>
      <trkpt lat="69.693927029147744" lon="18.875775039196014">
        <ele>16</ele>
        <time>2017-06-25T12:05:38Z</time>
      </trkpt>
      <trkpt lat="69.693916970863938" lon="18.875761041417718">
        <ele>15.039999999999999</ele>
        <time>2017-06-25T12:07:09Z</time>
      </trkpt>
      <trkpt lat="69.694031970575452" lon="18.876073015853763">
        <ele>14.56</ele>
        <time>2017-06-25T12:07:44Z</time>
      </trkpt>
      <trkpt lat="69.694079998880625" lon="18.876237971708179">
        <ele>14.56</ele>
        <time>2017-06-25T12:07:45Z</time>
      </trkpt>
      <trkpt lat="69.69464804045856" lon="18.87808701954782">
        <ele>12.630000000000001</ele>
        <time>2017-06-25T12:07:53Z</time>
      </trkpt>
      <trkpt lat="69.695450020954013" lon="18.881188994273543">
        <ele>8.789999999999999</ele>
        <time>2017-06-25T12:08:03Z</time>
      </trkpt>
      <trkpt lat="69.69563702121377" lon="18.882972998544574">
        <ele>8.310000000000001</ele>
        <time>2017-06-25T12:08:09Z</time>
      </trkpt>
      <trkpt lat="69.695636015385389" lon="18.883206015452743">
        <ele>8.310000000000001</ele>
        <time>2017-06-25T12:08:10Z</time>
      </trkpt>
      <trkpt lat="69.695621011778712" lon="18.883777996525168">
        <ele>7.83</ele>
        <time>2017-06-25T12:08:13Z</time>
      </trkpt>
      <trkpt lat="69.695627968758345" lon="18.883963990956545">
        <ele>7.35</ele>
        <time>2017-06-25T12:08:14Z</time>
      </trkpt>
      <trkpt lat="69.695640960708261" lon="18.884158032014966">
        <ele>6.87</ele>
        <time>2017-06-25T12:08:15Z</time>
      </trkpt>
      <trkpt lat="69.695678008720279" lon="18.884888011962175">
        <ele>6.87</ele>
        <time>2017-06-25T12:08:18Z</time>
      </trkpt>
      <trkpt lat="69.69568002037704" lon="18.885176014155149">
        <ele>7.35</ele>
        <time>2017-06-25T12:08:19Z</time>
      </trkpt>
      <trkpt lat="69.695667028427124" lon="18.885482037439942">
        <ele>7.35</ele>
        <time>2017-06-25T12:08:20Z</time>
      </trkpt>
      <trkpt lat="69.695304008200765" lon="18.88861795887351">
        <ele>8.789999999999999</ele>
        <time>2017-06-25T12:08:29Z</time>
      </trkpt>
      <trkpt lat="69.694423992186785" lon="18.892892980948091">
        <ele>19.359999999999999</ele>
        <time>2017-06-25T12:08:41Z</time>
      </trkpt>
      <trkpt lat="69.693312970921397" lon="18.8964550383389">
        <ele>31.379999999999999</ele>
        <time>2017-06-25T12:08:51Z</time>
      </trkpt>
      <trkpt lat="69.691311037167907" lon="18.901652991771698">
        <ele>45.32</ele>
        <time>2017-06-25T12:09:07Z</time>
      </trkpt>
      <trkpt lat="69.689099974930286" lon="18.907069964334369">
        <ele>23.690000000000001</ele>
        <time>2017-06-25T12:09:25Z</time>
      </trkpt>
      <trkpt lat="69.687779992818832" lon="18.908560015261173">
        <ele>13.6</ele>
        <time>2017-06-25T12:09:33Z</time>
      </trkpt>
      <trkpt lat="69.686348028481007" lon="18.908679960295558">
        <ele>7.83</ele>
        <time>2017-06-25T12:09:41Z</time>
      </trkpt>
      <trkpt lat="69.685070961713791" lon="18.907649992033839">
        <ele>6.87</ele>
        <time>2017-06-25T12:09:49Z</time>
      </trkpt>
      <trkpt lat="69.68399497680366" lon="18.905643029138446">
        <ele>3.5</ele>
        <time>2017-06-25T12:09:58Z</time>
      </trkpt>
      <trkpt lat="69.683669004589319" lon="18.904506023973227">
        <ele>2.54</ele>
        <time>2017-06-25T12:10:05Z</time>
      </trkpt>
      <trkpt lat="69.683612007647753" lon="18.904366968199611">
        <ele>2.54</ele>
        <time>2017-06-25T12:10:06Z</time>
      </trkpt>
      <trkpt lat="69.68354201875627" lon="18.90423696488142">
        <ele>2.06</ele>
        <time>2017-06-25T12:10:07Z</time>
      </trkpt>
      <trkpt lat="69.682752024382353" lon="18.9027080219239">
        <ele>-0.82</ele>
        <time>2017-06-25T12:10:15Z</time>
      </trkpt>
      <trkpt lat="69.681690959259868" lon="18.901561964303255">
        <ele>-2.75</ele>
        <time>2017-06-25T12:10:23Z</time>
      </trkpt>
      <trkpt lat="69.679806036874652" lon="18.900559991598129">
        <ele>-5.15</ele>
        <time>2017-06-25T12:10:35Z</time>
      </trkpt>
      <trkpt lat="69.678978994488716" lon="18.901028037071228">
        <ele>-4.67</ele>
        <time>2017-06-25T12:10:42Z</time>
      </trkpt>
      <trkpt lat="69.678678000345826" lon="18.901171032339334">
        <ele>-5.15</ele>
        <time>2017-06-25T12:10:46Z</time>
      </trkpt>
      <trkpt lat="69.678598958998919" lon="18.901250995695591">
        <ele>-4.67</ele>
        <time>2017-06-25T12:10:47Z</time>
      </trkpt>
      <trkpt lat="69.678523018956184" lon="18.901367001235485">
        <ele>-4.67</ele>
        <time>2017-06-25T12:10:48Z</time>
      </trkpt>
      <trkpt lat="69.677692037075758" lon="18.902544993907213">
        <ele>-3.23</ele>
        <time>2017-06-25T12:10:56Z</time>
      </trkpt>
      <trkpt lat="69.676148006692529" lon="18.904828978702426">
        <ele>-1.3</ele>
        <time>2017-06-25T12:11:07Z</time>
      </trkpt>
      <trkpt lat="69.674557037651539" lon="18.906744997948408">
        <ele>-1.3</ele>
        <time>2017-06-25T12:11:17Z</time>
      </trkpt>
      <trkpt lat="69.67318500392139" lon="18.907137019559741">
        <ele>-1.3</ele>
        <time>2017-06-25T12:11:25Z</time>
      </trkpt>
      <trkpt lat="69.673031028360128" lon="18.907302981242537">
        <ele>-1.3</ele>
        <time>2017-06-25T12:11:26Z</time>
      </trkpt>
      <trkpt lat="69.672886021435261" lon="18.907510014250875">
        <ele>-1.3</ele>
        <time>2017-06-25T12:11:27Z</time>
      </trkpt>
      <trkpt lat="69.672745959833264" lon="18.907753005623817">
        <ele>-1.3</ele>
        <time>2017-06-25T12:11:28Z</time>
      </trkpt>
      <trkpt lat="69.672612017020583" lon="18.908021980896592">
        <ele>-1.79</ele>
        <time>2017-06-25T12:11:29Z</time>
      </trkpt>
      <trkpt lat="69.672489976510406" lon="18.908329010009766">
        <ele>-1.3</ele>
        <time>2017-06-25T12:11:30Z</time>
      </trkpt>
      <trkpt lat="69.672376988455653" lon="18.908663028851151">
        <ele>-1.3</ele>
        <time>2017-06-25T12:11:31Z</time>
      </trkpt>
      <trkpt lat="69.672275986522436" lon="18.90902403742075">
        <ele>-1.3</ele>
        <time>2017-06-25T12:11:32Z</time>
      </trkpt>
      <trkpt lat="69.672188982367516" lon="18.909395020455122">
        <ele>-1.79</ele>
        <time>2017-06-25T12:11:33Z</time>
      </trkpt>
      <trkpt lat="69.67211295850575" lon="18.909763991832733">
        <ele>-1.79</ele>
        <time>2017-06-25T12:11:34Z</time>
      </trkpt>
      <trkpt lat="69.672044981271029" lon="18.910132041200995">
        <ele>-2.27</ele>
        <time>2017-06-25T12:11:35Z</time>
      </trkpt>
      <trkpt lat="69.671716997399926" lon="18.912979960441589">
        <ele>-2.27</ele>
        <time>2017-06-25T12:11:42Z</time>
      </trkpt>
      <trkpt lat="69.671741975471377" lon="18.913407018408179">
        <ele>-1.79</ele>
        <time>2017-06-25T12:11:43Z</time>
      </trkpt>
      <trkpt lat="69.671848006546497" lon="18.91656699590385">
        <ele>0.62</ele>
        <time>2017-06-25T12:11:52Z</time>
      </trkpt>
      <trkpt lat="69.671817999333143" lon="18.91684502363205">
        <ele>1.1</ele>
        <time>2017-06-25T12:11:53Z</time>
      </trkpt>
      <trkpt lat="69.671776005998254" lon="18.917091032490134">
        <ele>1.1</ele>
        <time>2017-06-25T12:11:54Z</time>
      </trkpt>
      <trkpt lat="69.671716997399926" lon="18.917308039963245">
        <ele>1.1</ele>
        <time>2017-06-25T12:11:55Z</time>
      </trkpt>
      <trkpt lat="69.671652037650347" lon="18.917522029951215">
        <ele>1.1</ele>
        <time>2017-06-25T12:11:56Z</time>
      </trkpt>
      <trkpt lat="69.6715750079602" lon="18.917724033817649">
        <ele>1.1</ele>
        <time>2017-06-25T12:11:57Z</time>
      </trkpt>
      <trkpt lat="69.67148800380528" lon="18.917920002713799">
        <ele>0.62</ele>
        <time>2017-06-25T12:11:58Z</time>
      </trkpt>
      <trkpt lat="69.671391025185585" lon="18.918097028508782">
        <ele>0.62</ele>
        <time>2017-06-25T12:11:59Z</time>
      </trkpt>
      <trkpt lat="69.670133991166949" lon="18.920227037742734">
        <ele>3.98</ele>
        <time>2017-06-25T12:12:11Z</time>
      </trkpt>
      <trkpt lat="69.669772982597351" lon="18.920716037973762">
        <ele>4.94</ele>
        <time>2017-06-25T12:12:17Z</time>
      </trkpt>
      <trkpt lat="69.669713973999023" lon="18.920870013535023">
        <ele>5.42</ele>
        <time>2017-06-25T12:12:18Z</time>
      </trkpt>
      <trkpt lat="69.669659994542599" lon="18.921060031279922">
        <ele>5.91</ele>
        <time>2017-06-25T12:12:19Z</time>
      </trkpt>
      <trkpt lat="69.669451033696532" lon="18.921695966273546">
        <ele>7.83</ele>
        <time>2017-06-25T12:12:22Z</time>
      </trkpt>
      <trkpt lat="69.668733039870858" lon="18.924009036272764">
        <ele>9.75</ele>
        <time>2017-06-25T12:12:30Z</time>
      </trkpt>
      <trkpt lat="69.668033989146352" lon="18.927129032090306">
        <ele>7.83</ele>
        <time>2017-06-25T12:12:38Z</time>
      </trkpt>
    </trkseg>
  </trk>

  <trk>
    <name>Track vom: 25 JUN 2017 14:14</name>
    <extensions>
      <gpxx:TrackExtension>
        <gpxx:DisplayColor>DarkGray</gpxx:DisplayColor>
      </gpxx:TrackExtension>
    </extensions>
    <trkseg>
      <trkpt lat="69.657232984900475" lon="18.963437005877495">
        <ele>7.35</ele>
        <time>2017-06-25T12:14:58Z</time>
      </trkpt>
      <trkpt lat="69.657239019870758" lon="18.963563991710544">
        <ele>6.39</ele>
        <time>2017-06-25T12:14:59Z</time>
      </trkpt>
      <trkpt lat="69.657170036807656" lon="18.963937992230058">
        <ele>5.42</ele>
        <time>2017-06-25T12:15:03Z</time>
      </trkpt>
      <trkpt lat="69.65715997852385" lon="18.964064978063107">
        <ele>4.94</ele>
        <time>2017-06-25T12:15:04Z</time>
      </trkpt>
      <trkpt lat="69.657174982130527" lon="18.964191041886806">
        <ele>3.02</ele>
        <time>2017-06-25T12:15:05Z</time>
      </trkpt>
      <trkpt lat="69.657189985737205" lon="18.964295983314514">
        <ele>3.5</ele>
        <time>2017-06-25T12:15:06Z</time>
      </trkpt>
      <trkpt lat="69.657213035970926" lon="18.964383993297815">
        <ele>3.5</ele>
        <time>2017-06-25T12:15:07Z</time>
      </trkpt>
      <trkpt lat="69.657247988507152" lon="18.964426992461085">
        <ele>3.5</ele>
        <time>2017-06-25T12:15:08Z</time>
      </trkpt>
      <trkpt lat="69.657274978235364" lon="18.964434033259749">
        <ele>2.54</ele>
        <time>2017-06-25T12:15:09Z</time>
      </trkpt>
      <trkpt lat="69.65730900876224" lon="18.964435961097479">
        <ele>2.54</ele>
        <time>2017-06-25T12:15:10Z</time>
      </trkpt>
      <trkpt lat="69.65733197517693" lon="18.964432021602988">
        <ele>2.06</ele>
        <time>2017-06-25T12:15:11Z</time>
      </trkpt>
      <trkpt lat="69.657358964905143" lon="18.964421963319182">
        <ele>1.58</ele>
        <time>2017-06-25T12:15:12Z</time>
      </trkpt>
      <trkpt lat="69.657467007637024" lon="18.964463034644723">
        <ele>1.58</ele>
        <time>2017-06-25T12:15:15Z</time>
      </trkpt>
      <trkpt lat="69.657516963779926" lon="18.964526988565922">
        <ele>1.58</ele>
        <time>2017-06-25T12:15:16Z</time>
      </trkpt>
      <trkpt lat="69.657568009570241" lon="18.964632013812661">
        <ele>1.58</ele>
        <time>2017-06-25T12:15:17Z</time>
      </trkpt>
      <trkpt lat="69.657617965713143" lon="18.964764028787613">
        <ele>1.58</ele>
        <time>2017-06-25T12:15:18Z</time>
      </trkpt>
      <trkpt lat="69.657663982361555" lon="18.96491096355021">
        <ele>1.58</ele>
        <time>2017-06-25T12:15:19Z</time>
      </trkpt>
      <trkpt lat="69.657708993181586" lon="18.965087989345193">
        <ele>2.06</ele>
        <time>2017-06-25T12:15:20Z</time>
      </trkpt>
      <trkpt lat="69.657746963202953" lon="18.965282030403614">
        <ele>2.06</ele>
        <time>2017-06-25T12:15:21Z</time>
      </trkpt>
      <trkpt lat="69.657783005386591" lon="18.965497026219964">
        <ele>2.54</ele>
        <time>2017-06-25T12:15:22Z</time>
      </trkpt>
      <trkpt lat="69.658028008416295" lon="18.966974001377821">
        <ele>4.46</ele>
        <time>2017-06-25T12:15:30Z</time>
      </trkpt>
      <trkpt lat="69.658298995345831" lon="18.968677958473563">
        <ele>3.02</ele>
        <time>2017-06-25T12:15:40Z</time>
      </trkpt>
      <trkpt lat="69.65834098868072" lon="18.968817014247179">
        <ele>3.02</ele>
        <time>2017-06-25T12:15:41Z</time>
      </trkpt>
      <trkpt lat="69.658399997279048" lon="18.96892698481679">
        <ele>3.02</ele>
        <time>2017-06-25T12:15:42Z</time>
      </trkpt>
      <trkpt lat="69.658465040847659" lon="18.96899102255702">
        <ele>3.02</ele>
        <time>2017-06-25T12:15:43Z</time>
      </trkpt>
      <trkpt lat="69.658540980890393" lon="18.969017006456852">
        <ele>3.02</ele>
        <time>2017-06-25T12:15:44Z</time>
      </trkpt>
      <trkpt lat="69.658622033894062" lon="18.968994962051511">
        <ele>3.02</ele>
        <time>2017-06-25T12:15:45Z</time>
      </trkpt>
      <trkpt lat="69.658703003078699" lon="18.968937965109944">
        <ele>3.02</ele>
        <time>2017-06-25T12:15:46Z</time>
      </trkpt>
      <trkpt lat="69.658781960606575" lon="18.96886495873332">
        <ele>2.54</ele>
        <time>2017-06-25T12:15:47Z</time>
      </trkpt>
      <trkpt lat="69.658859996125102" lon="18.968772003427148">
        <ele>2.06</ele>
        <time>2017-06-25T12:15:48Z</time>
      </trkpt>
      <trkpt lat="69.660088028758764" lon="18.967378009110689">
        <ele>1.58</ele>
        <time>2017-06-25T12:16:02Z</time>
      </trkpt>
      <trkpt lat="69.661018000915647" lon="18.966367989778519">
        <ele>3.5</ele>
        <time>2017-06-25T12:16:13Z</time>
      </trkpt>
      <trkpt lat="69.661101987585425" lon="18.966333959251642">
        <ele>3.5</ele>
        <time>2017-06-25T12:16:14Z</time>
      </trkpt>
      <trkpt lat="69.662281991913915" lon="18.966189036145806">
        <ele>3.98</ele>
        <time>2017-06-25T12:16:27Z</time>
      </trkpt>
      <trkpt lat="69.662666972726583" lon="18.966215020045638">
        <ele>3.5</ele>
        <time>2017-06-25T12:16:33Z</time>
      </trkpt>
      <trkpt lat="69.662707960233092" lon="18.966248966753483">
        <ele>3.5</ele>
        <time>2017-06-25T12:16:34Z</time>
      </trkpt>
      <trkpt lat="69.662746014073491" lon="18.966290960088372">
        <ele>3.5</ele>
        <time>2017-06-25T12:16:35Z</time>
      </trkpt>
      <trkpt lat="69.662828994914889" lon="18.966381987556815">
        <ele>3.5</ele>
        <time>2017-06-25T12:16:38Z</time>
      </trkpt>
      <trkpt lat="69.662846010178328" lon="18.96637000143528">
        <ele>3.5</ele>
        <time>2017-06-25T12:16:39Z</time>
      </trkpt>
      <trkpt lat="69.662857996299863" lon="18.966345023363829">
        <ele>3.5</ele>
        <time>2017-06-25T12:16:40Z</time>
      </trkpt>
      <trkpt lat="69.662840981036425" lon="18.9663499686867">
        <ele>3.5</ele>
        <time>2017-06-25T12:16:55Z</time>
      </trkpt>
      <trkpt lat="69.662840981036425" lon="18.966348962858319">
        <ele>3.5</ele>
        <time>2017-06-25T12:17:31Z</time>
      </trkpt>
      <trkpt lat="69.662837041541934" lon="18.96628500893712">
        <ele>3.5</ele>
        <time>2017-06-25T12:17:32Z</time>
      </trkpt>
      <trkpt lat="69.662818014621735" lon="18.966195993125439">
        <ele>3.5</ele>
        <time>2017-06-25T12:17:33Z</time>
      </trkpt>
      <trkpt lat="69.662779960781336" lon="18.966118963435292">
        <ele>3.5</ele>
        <time>2017-06-25T12:17:34Z</time>
      </trkpt>
      <trkpt lat="69.662718018516898" lon="18.966084010899067">
        <ele>3.5</ele>
        <time>2017-06-25T12:17:35Z</time>
      </trkpt>
      <trkpt lat="69.662647023797035" lon="18.96607001312077">
        <ele>3.5</ele>
        <time>2017-06-25T12:17:36Z</time>
      </trkpt>
      <trkpt lat="69.661575984209776" lon="18.966141007840633">
        <ele>2.54</ele>
        <time>2017-06-25T12:17:48Z</time>
      </trkpt>
      <trkpt lat="69.660260025411844" lon="18.966898983344436">
        <ele>2.06</ele>
        <time>2017-06-25T12:18:04Z</time>
      </trkpt>
      <trkpt lat="69.658969966694713" lon="18.968370007351041">
        <ele>3.5</ele>
        <time>2017-06-25T12:18:21Z</time>
      </trkpt>
      <trkpt lat="69.658570988103747" lon="18.968642000108957">
        <ele>3.5</ele>
        <time>2017-06-25T12:18:26Z</time>
      </trkpt>
      <trkpt lat="69.658492030575871" lon="18.968617022037506">
        <ele>3.5</ele>
        <time>2017-06-25T12:18:27Z</time>
      </trkpt>
      <trkpt lat="69.658421035856009" lon="18.968553990125656">
        <ele>3.5</ele>
        <time>2017-06-25T12:18:28Z</time>
      </trkpt>
      <trkpt lat="69.658350963145494" lon="18.968442007899284">
        <ele>3.5</ele>
        <time>2017-06-25T12:18:29Z</time>
      </trkpt>
      <trkpt lat="69.658294972032309" lon="18.968293983489275">
        <ele>3.02</ele>
        <time>2017-06-25T12:18:30Z</time>
      </trkpt>
      <trkpt lat="69.658245015889406" lon="18.96811000071466">
        <ele>3.5</ele>
        <time>2017-06-25T12:18:31Z</time>
      </trkpt>
      <trkpt lat="69.658206040039659" lon="18.967909002676606">
        <ele>3.5</ele>
        <time>2017-06-25T12:18:32Z</time>
      </trkpt>
      <trkpt lat="69.658176032826304" lon="18.96768101491034">
        <ele>3.5</ele>
        <time>2017-06-25T12:18:33Z</time>
      </trkpt>
      <trkpt lat="69.657597010955215" lon="18.964389022439718">
        <ele>3.98</ele>
        <time>2017-06-25T12:18:48Z</time>
      </trkpt>
      <trkpt lat="69.657549988478422" lon="18.964234041050076">
        <ele>4.46</ele>
        <time>2017-06-25T12:18:49Z</time>
      </trkpt>
      <trkpt lat="69.657501960173249" lon="18.964109988883138">
        <ele>4.94</ele>
        <time>2017-06-25T12:18:50Z</time>
      </trkpt>
      <trkpt lat="69.657446974888444" lon="18.963980991393328">
        <ele>5.42</ele>
        <time>2017-06-25T12:18:51Z</time>
      </trkpt>
      <trkpt lat="69.657386038452387" lon="18.963861968368292">
        <ele>5.42</ele>
        <time>2017-06-25T12:18:52Z</time>
      </trkpt>
      <trkpt lat="69.657316971570253" lon="18.963768007233739">
        <ele>5.91</ele>
        <time>2017-06-25T12:18:53Z</time>
      </trkpt>
      <trkpt lat="69.657241031527519" lon="18.963708998635411">
        <ele>5.42</ele>
        <time>2017-06-25T12:18:54Z</time>
      </trkpt>
      <trkpt lat="69.657160984352231" lon="18.963702963665128">
        <ele>5.42</ele>
        <time>2017-06-25T12:18:55Z</time>
      </trkpt>
      <trkpt lat="69.657081020995975" lon="18.963707992807031">
        <ele>5.42</ele>
        <time>2017-06-25T12:18:56Z</time>
      </trkpt>
      <trkpt lat="69.656839035451412" lon="18.963710004463792">
        <ele>6.87</ele>
        <time>2017-06-25T12:18:59Z</time>
      </trkpt>
      <trkpt lat="69.656762005761266" lon="18.96368402056396">
        <ele>7.35</ele>
        <time>2017-06-25T12:19:00Z</time>
      </trkpt>
      <trkpt lat="69.656687993556261" lon="18.963646972551942">
        <ele>7.83</ele>
        <time>2017-06-25T12:19:01Z</time>
      </trkpt>
      <trkpt lat="69.656610963866115" lon="18.963589975610375">
        <ele>8.310000000000001</ele>
        <time>2017-06-25T12:19:02Z</time>
      </trkpt>
      <trkpt lat="69.656538041308522" lon="18.963523004204035">
        <ele>8.789999999999999</ele>
        <time>2017-06-25T12:19:03Z</time>
      </trkpt>
      <trkpt lat="69.655647967010736" lon="18.962451964616776">
        <ele>17.440000000000001</ele>
        <time>2017-06-25T12:19:16Z</time>
      </trkpt>
      <trkpt lat="69.654621016234159" lon="18.961418978869915">
        <ele>19.359999999999999</ele>
        <time>2017-06-25T12:19:31Z</time>
      </trkpt>
      <trkpt lat="69.653687020763755" lon="18.960270993411541">
        <ele>16.960000000000001</ele>
        <time>2017-06-25T12:19:46Z</time>
      </trkpt>
      <trkpt lat="69.652972966432571" lon="18.959470018744469">
        <ele>3.98</ele>
        <time>2017-06-25T12:19:59Z</time>
      </trkpt>
      <trkpt lat="69.652808010578156" lon="18.95921403542161">
        <ele>-0.82</ele>
        <time>2017-06-25T12:20:03Z</time>
      </trkpt>
      <trkpt lat="69.652779009193182" lon="18.959159972146153">
        <ele>-1.79</ele>
        <time>2017-06-25T12:20:04Z</time>
      </trkpt>
      <trkpt lat="69.652766017243266" lon="18.959147986024618">
        <ele>-1.79</ele>
        <time>2017-06-25T12:20:05Z</time>
      </trkpt>
      <trkpt lat="69.652741961181164" lon="18.959143962711096">
        <ele>-2.27</ele>
        <time>2017-06-25T12:20:06Z</time>
      </trkpt>
      <trkpt lat="69.65275595895946" lon="18.959184028208256">
        <ele>-8.029999999999999</ele>
        <time>2017-06-25T12:20:21Z</time>
      </trkpt>
      <trkpt lat="69.652684964239597" lon="18.959191991016269">
        <ele>-6.11</ele>
        <time>2017-06-25T12:21:07Z</time>
      </trkpt>
      <trkpt lat="69.652635008096695" lon="18.959227027371526">
        <ele>-5.15</ele>
        <time>2017-06-25T12:21:08Z</time>
      </trkpt>
      <trkpt lat="69.652591003105044" lon="18.959325011819601">
        <ele>-2.75</ele>
        <time>2017-06-25T12:21:09Z</time>
      </trkpt>
      <trkpt lat="69.652558984234929" lon="18.959457026794553">
        <ele>-0.82</ele>
        <time>2017-06-25T12:21:10Z</time>
      </trkpt>
      <trkpt lat="69.652530988678336" lon="18.95958200097084">
        <ele>-1.3</ele>
        <time>2017-06-25T12:21:11Z</time>
      </trkpt>
      <trkpt lat="69.652506010606885" lon="18.959707980975509">
        <ele>-0.82</ele>
        <time>2017-06-25T12:21:12Z</time>
      </trkpt>
      <trkpt lat="69.652490001171827" lon="18.95981702953577">
        <ele>-1.3</ele>
        <time>2017-06-25T12:21:13Z</time>
      </trkpt>
      <trkpt lat="69.652415988966823" lon="18.960064966231585">
        <ele>1.58</ele>
        <time>2017-06-25T12:21:22Z</time>
      </trkpt>
      <trkpt lat="69.652363015338778" lon="18.960186000913382">
        <ele>1.58</ele>
        <time>2017-06-25T12:21:55Z</time>
      </trkpt>
      <trkpt lat="69.652314987033606" lon="18.960218019783497">
        <ele>1.58</ele>
        <time>2017-06-25T12:21:56Z</time>
      </trkpt>
      <trkpt lat="69.652262013405561" lon="18.960209973156452">
        <ele>1.1</ele>
        <time>2017-06-25T12:21:57Z</time>
      </trkpt>
      <trkpt lat="69.652207028120756" lon="18.960164962336421">
        <ele>1.1</ele>
        <time>2017-06-25T12:21:58Z</time>
      </trkpt>
      <trkpt lat="69.652154976502061" lon="18.960107965394855">
        <ele>0.62</ele>
        <time>2017-06-25T12:21:59Z</time>
      </trkpt>
      <trkpt lat="69.652105020359159" lon="18.96005398593843">
        <ele>0.62</ele>
        <time>2017-06-25T12:22:00Z</time>
      </trkpt>
      <trkpt lat="69.651836967095733" lon="18.959785010665655">
        <ele>-4.19</ele>
        <time>2017-06-25T12:22:09Z</time>
      </trkpt>
      <trkpt lat="69.651620965451002" lon="18.95960396155715">
        <ele>-8.51</ele>
        <time>2017-06-25T12:22:15Z</time>
      </trkpt>
      <trkpt lat="69.651262974366546" lon="18.959341021254659">
        <ele>0.14</ele>
        <time>2017-06-25T12:22:26Z</time>
      </trkpt>
      <trkpt lat="69.651254005730152" lon="18.959381002932787">
        <ele>1.1</ele>
        <time>2017-06-25T12:22:27Z</time>
      </trkpt>
      <trkpt lat="69.651286024600267" lon="18.959488039836287">
        <ele>0.62</ele>
        <time>2017-06-25T12:22:31Z</time>
      </trkpt>
      <trkpt lat="69.65133698657155" lon="18.959566997364163">
        <ele>0.14</ele>
        <time>2017-06-25T12:22:49Z</time>
      </trkpt>
      <trkpt lat="69.651341009885073" lon="18.959572026506066">
        <ele>0.62</ele>
        <time>2017-06-25T12:24:40Z</time>
      </trkpt>
      <trkpt lat="69.651348972693086" lon="18.959583006799221">
        <ele>0.14</ele>
        <time>2017-06-25T12:25:39Z</time>
      </trkpt>
      <trkpt lat="69.651375962421298" lon="18.959575966000557">
        <ele>-0.34</ele>
        <time>2017-06-25T12:25:40Z</time>
      </trkpt>
      <trkpt lat="69.651444023475051" lon="18.959577977657318">
        <ele>-0.82</ele>
        <time>2017-06-25T12:25:42Z</time>
      </trkpt>
      <trkpt lat="69.651847025379539" lon="18.959889030084014">
        <ele>-4.67</ele>
        <time>2017-06-25T12:25:50Z</time>
      </trkpt>
      <trkpt lat="69.652106026187539" lon="18.960219025611877">
        <ele>-7.55</ele>
        <time>2017-06-25T12:25:58Z</time>
      </trkpt>
      <trkpt lat="69.652137961238623" lon="18.96022598259151">
        <ele>-7.55</ele>
        <time>2017-06-25T12:25:59Z</time>
      </trkpt>
      <trkpt lat="69.652223037555814" lon="18.960285997018218">
        <ele>-8.029999999999999</ele>
        <time>2017-06-25T12:26:01Z</time>
      </trkpt>
      <trkpt lat="69.652330996468663" lon="18.96041801199317">
        <ele>-8.51</ele>
        <time>2017-06-25T12:26:03Z</time>
      </trkpt>
      <trkpt lat="69.652664009481668" lon="18.960973983630538">
        <ele>-10.92</ele>
        <time>2017-06-25T12:26:09Z</time>
      </trkpt>
      <trkpt lat="69.653427014127374" lon="18.962500998750329">
        <ele>-8.51</ele>
        <time>2017-06-25T12:26:21Z</time>
      </trkpt>
      <trkpt lat="69.654233017936349" lon="18.963627023622394">
        <ele>3.02</ele>
        <time>2017-06-25T12:26:33Z</time>
      </trkpt>
      <trkpt lat="69.654338965192437" lon="18.963762978091836">
        <ele>3.02</ele>
        <time>2017-06-25T12:26:35Z</time>
      </trkpt>
      <trkpt lat="69.654374001547694" lon="18.963850988075137">
        <ele>3.5</ele>
        <time>2017-06-25T12:26:36Z</time>
      </trkpt>
      <trkpt lat="69.654380036517978" lon="18.963921982795">
        <ele>1.58</ele>
        <time>2017-06-25T12:26:37Z</time>
      </trkpt>
      <trkpt lat="69.654390010982752" lon="18.964088028296828">
        <ele>1.58</ele>
        <time>2017-06-25T12:26:38Z</time>
      </trkpt>
      <trkpt lat="69.654375007376075" lon="18.964267987757921">
        <ele>1.1</ele>
        <time>2017-06-25T12:26:39Z</time>
      </trkpt>
      <trkpt lat="69.654338965192437" lon="18.964455993846059">
        <ele>0.62</ele>
        <time>2017-06-25T12:26:40Z</time>
      </trkpt>
      <trkpt lat="69.654297977685928" lon="18.964659003540874">
        <ele>1.1</ele>
        <time>2017-06-25T12:26:41Z</time>
      </trkpt>
      <trkpt lat="69.654251961037517" lon="18.964861007407308">
        <ele>2.06</ele>
        <time>2017-06-25T12:26:42Z</time>
      </trkpt>
      <trkpt lat="69.653671011328697" lon="18.967383960261941">
        <ele>9.75</ele>
        <time>2017-06-25T12:26:51Z</time>
      </trkpt>
      <trkpt lat="69.652578011155128" lon="18.972244961187243">
        <ele>21.289999999999999</ele>
        <time>2017-06-25T12:27:05Z</time>
      </trkpt>
      <trkpt lat="69.651662036776543" lon="18.976351004093885">
        <ele>32.340000000000003</ele>
        <time>2017-06-25T12:27:17Z</time>
      </trkpt>
      <trkpt lat="69.65049603022635" lon="18.981478968635201">
        <ele>31.859999999999999</ele>
        <time>2017-06-25T12:27:35Z</time>
      </trkpt>
      <trkpt lat="69.649607967585325" lon="18.984772972762585">
        <ele>23.690000000000001</ele>
        <time>2017-06-25T12:27:47Z</time>
      </trkpt>
      <trkpt lat="69.648722000420094" lon="18.98590100929141">
        <ele>17.920000000000002</ele>
        <time>2017-06-25T12:27:57Z</time>
      </trkpt>
      <trkpt lat="69.648227971047163" lon="18.986122962087393">
        <ele>16.48</ele>
        <time>2017-06-25T12:28:06Z</time>
      </trkpt>
      <trkpt lat="69.648183966055512" lon="18.986174007877707">
        <ele>16.48</ele>
        <time>2017-06-25T12:28:07Z</time>
      </trkpt>
      <trkpt lat="69.64813400991261" lon="18.986234022304416">
        <ele>16.48</ele>
        <time>2017-06-25T12:28:08Z</time>
      </trkpt>
      <trkpt lat="69.648084975779057" lon="18.986338041722775">
        <ele>16.960000000000001</ele>
        <time>2017-06-25T12:28:09Z</time>
      </trkpt>
      <trkpt lat="69.648034013807774" lon="18.986450023949146">
        <ele>17.440000000000001</ele>
        <time>2017-06-25T12:28:10Z</time>
      </trkpt>
      <trkpt lat="69.647607961669564" lon="18.987459037452936">
        <ele>26.09</ele>
        <time>2017-06-25T12:28:19Z</time>
      </trkpt>
      <trkpt lat="69.647581977769732" lon="18.987568002194166">
        <ele>26.57</ele>
        <time>2017-06-25T12:28:20Z</time>
      </trkpt>
      <trkpt lat="69.647564040496945" lon="18.987678978592157">
        <ele>27.050000000000001</ele>
        <time>2017-06-25T12:28:21Z</time>
      </trkpt>
      <trkpt lat="69.647555993869901" lon="18.987805964425206">
        <ele>27.050000000000001</ele>
        <time>2017-06-25T12:28:22Z</time>
      </trkpt>
      <trkpt lat="69.647549958899617" lon="18.987935967743397">
        <ele>27.050000000000001</ele>
        <time>2017-06-25T12:28:23Z</time>
      </trkpt>
      <trkpt lat="69.647544007748365" lon="18.988065971061587">
        <ele>26.57</ele>
        <time>2017-06-25T12:28:24Z</time>
      </trkpt>
      <trkpt lat="69.647535039111972" lon="18.988318014889956">
        <ele>25.609999999999999</ele>
        <time>2017-06-25T12:28:26Z</time>
      </trkpt>
      <trkpt lat="69.647538978606462" lon="18.988447012379766">
        <ele>25.609999999999999</ele>
        <time>2017-06-25T12:28:27Z</time>
      </trkpt>
      <trkpt lat="69.647551970556378" lon="18.988553965464234">
        <ele>25.129999999999999</ele>
        <time>2017-06-25T12:28:28Z</time>
      </trkpt>
      <trkpt lat="69.647578038275242" lon="18.988629989326">
        <ele>24.649999999999999</ele>
        <time>2017-06-25T12:28:29Z</time>
      </trkpt>
      <trkpt lat="69.647607961669564" lon="18.988676005974412">
        <ele>24.170000000000002</ele>
        <time>2017-06-25T12:28:30Z</time>
      </trkpt>
      <trkpt lat="69.647641992196441" lon="18.988697966560721">
        <ele>24.170000000000002</ele>
        <time>2017-06-25T12:28:31Z</time>
      </trkpt>
      <trkpt lat="69.647677028551698" lon="18.988700984045863">
        <ele>23.690000000000001</ele>
        <time>2017-06-25T12:28:32Z</time>
      </trkpt>
      <trkpt lat="69.647711981087923" lon="18.988685980439186">
        <ele>23.690000000000001</ele>
        <time>2017-06-25T12:28:33Z</time>
      </trkpt>
      <trkpt lat="69.647742994129658" lon="18.988658990710974">
        <ele>23.690000000000001</ele>
        <time>2017-06-25T12:28:34Z</time>
      </trkpt>
      <trkpt lat="69.64776897802949" lon="18.988619009032845">
        <ele>23.210000000000001</ele>
        <time>2017-06-25T12:28:35Z</time>
      </trkpt>
      <trkpt lat="69.647791022434831" lon="18.988578021526337">
        <ele>22.73</ele>
        <time>2017-06-25T12:28:36Z</time>
      </trkpt>
      <trkpt lat="69.647858999669552" lon="18.98834802210331">
        <ele>20.32</ele>
        <time>2017-06-25T12:28:41Z</time>
      </trkpt>
      <trkpt lat="69.647853970527649" lon="18.988295970484614">
        <ele>19.84</ele>
        <time>2017-06-25T12:28:42Z</time>
      </trkpt>
      <trkpt lat="69.64785497635603" lon="18.988216007128358">
        <ele>19.84</ele>
        <time>2017-06-25T12:28:56Z</time>
      </trkpt>
    </trkseg>
  </trk>

  <trk>
    <name>Track vom: 25 JUN 2017 14:40</name>
    <extensions>
      <gpxx:TrackExtension>
        <gpxx:DisplayColor>DarkGray</gpxx:DisplayColor>
      </gpxx:TrackExtension>
    </extensions>
    <trkseg>
      <trkpt lat="69.647796973586082" lon="18.988221036270261">
        <ele>60.700000000000003</ele>
        <time>2017-06-25T12:40:17Z</time>
      </trkpt>
      <trkpt lat="69.647794039919972" lon="18.988240985199809">
        <ele>55.890000000000001</ele>
        <time>2017-06-25T12:40:57Z</time>
      </trkpt>
      <trkpt lat="69.647837039083242" lon="18.988167978823185">
        <ele>49.159999999999997</ele>
        <time>2017-06-25T12:41:26Z</time>
      </trkpt>
      <trkpt lat="69.647853970527649" lon="18.988230004906654">
        <ele>45.32</ele>
        <time>2017-06-25T12:42:13Z</time>
      </trkpt>
      <trkpt lat="69.64772597886622" lon="18.988491017371416">
        <ele>45.32</ele>
        <time>2017-06-25T12:42:18Z</time>
      </trkpt>
      <trkpt lat="69.647690020501614" lon="18.988533010706306">
        <ele>45.32</ele>
        <time>2017-06-25T12:42:19Z</time>
      </trkpt>
      <trkpt lat="69.647656995803118" lon="18.988548014312983">
        <ele>45.32</ele>
        <time>2017-06-25T12:42:20Z</time>
      </trkpt>
      <trkpt lat="69.647629000246525" lon="18.988539967685938">
        <ele>44.840000000000003</ele>
        <time>2017-06-25T12:42:21Z</time>
      </trkpt>
      <trkpt lat="69.647606033831835" lon="18.988487999886274">
        <ele>44.840000000000003</ele>
        <time>2017-06-25T12:42:22Z</time>
      </trkpt>
      <trkpt lat="69.647580971941352" lon="18.988399989902973">
        <ele>43.880000000000003</ele>
        <time>2017-06-25T12:42:23Z</time>
      </trkpt>
      <trkpt lat="69.647568985819817" lon="18.98826596327126">
        <ele>42.920000000000002</ele>
        <time>2017-06-25T12:42:24Z</time>
      </trkpt>
      <trkpt lat="69.647564040496945" lon="18.988122968003154">
        <ele>42.920000000000002</ele>
        <time>2017-06-25T12:42:25Z</time>
      </trkpt>
      <trkpt lat="69.647564040496945" lon="18.987965974956751">
        <ele>42.439999999999998</ele>
        <time>2017-06-25T12:42:26Z</time>
      </trkpt>
      <trkpt lat="69.647567979991436" lon="18.98783203214407">
        <ele>41.950000000000003</ele>
        <time>2017-06-25T12:42:27Z</time>
      </trkpt>
      <trkpt lat="69.6475750207901" lon="18.987728012725711">
        <ele>41.469999999999999</ele>
        <time>2017-06-25T12:42:28Z</time>
      </trkpt>
      <trkpt lat="69.647601004689932" lon="18.987603960558772">
        <ele>41.469999999999999</ele>
        <time>2017-06-25T12:42:37Z</time>
      </trkpt>
      <trkpt lat="69.647573009133339" lon="18.987509999424219">
        <ele>40.030000000000001</ele>
        <time>2017-06-25T12:43:09Z</time>
      </trkpt>
      <trkpt lat="69.647545013576746" lon="18.987493989989161">
        <ele>39.549999999999997</ele>
        <time>2017-06-25T12:43:10Z</time>
      </trkpt>
      <trkpt lat="69.647515006363392" lon="18.987515028566122">
        <ele>40.030000000000001</ele>
        <time>2017-06-25T12:43:11Z</time>
      </trkpt>
      <trkpt lat="69.647486004978418" lon="18.987571019679308">
        <ele>40.030000000000001</ele>
        <time>2017-06-25T12:43:12Z</time>
      </trkpt>
      <trkpt lat="69.647460021078587" lon="18.987648971378803">
        <ele>40.509999999999998</ele>
        <time>2017-06-25T12:43:13Z</time>
      </trkpt>
      <trkpt lat="69.64742498472333" lon="18.987737987190485">
        <ele>40.509999999999998</ele>
        <time>2017-06-25T12:43:14Z</time>
      </trkpt>
      <trkpt lat="69.646982001140714" lon="18.988829981535673">
        <ele>40.030000000000001</ele>
        <time>2017-06-25T12:43:28Z</time>
      </trkpt>
      <trkpt lat="69.646955011412501" lon="18.988936012610793">
        <ele>40.030000000000001</ele>
        <time>2017-06-25T12:43:29Z</time>
      </trkpt>
      <trkpt lat="69.646676983684301" lon="18.989775963127613">
        <ele>40.030000000000001</ele>
        <time>2017-06-25T12:43:35Z</time>
      </trkpt>
      <trkpt lat="69.646513033658266" lon="18.99021802470088">
        <ele>38.590000000000003</ele>
        <time>2017-06-25T12:43:42Z</time>
      </trkpt>
      <trkpt lat="69.646466011181474" lon="18.990280972793698">
        <ele>38.109999999999999</ele>
        <time>2017-06-25T12:43:45Z</time>
      </trkpt>
      <trkpt lat="69.646452013403177" lon="18.990332018584013">
        <ele>38.109999999999999</ele>
        <time>2017-06-25T12:43:46Z</time>
      </trkpt>
      <trkpt lat="69.646442960947752" lon="18.990385998040438">
        <ele>38.109999999999999</ele>
        <time>2017-06-25T12:43:47Z</time>
      </trkpt>
      <trkpt lat="69.646443966776133" lon="18.990439977496862">
        <ele>38.109999999999999</ele>
        <time>2017-06-25T12:43:48Z</time>
      </trkpt>
      <trkpt lat="69.646448995918036" lon="18.990500997751951">
        <ele>38.590000000000003</ele>
        <time>2017-06-25T12:43:49Z</time>
      </trkpt>
      <trkpt lat="69.64645897038281" lon="18.990529999136925">
        <ele>38.590000000000003</ele>
        <time>2017-06-25T12:43:50Z</time>
      </trkpt>
      <trkpt lat="69.646476991474628" lon="18.990547014400363">
        <ele>38.109999999999999</ele>
        <time>2017-06-25T12:43:51Z</time>
      </trkpt>
      <trkpt lat="69.64650297537446" lon="18.990537961944938">
        <ele>38.109999999999999</ele>
        <time>2017-06-25T12:43:52Z</time>
      </trkpt>
      <trkpt lat="69.646531976759434" lon="18.9904760196805">
        <ele>37.630000000000003</ele>
        <time>2017-06-25T12:43:53Z</time>
      </trkpt>
      <trkpt lat="69.64656500145793" lon="18.990383986383677">
        <ele>37.630000000000003</ele>
        <time>2017-06-25T12:43:54Z</time>
      </trkpt>
      <trkpt lat="69.646601965650916" lon="18.990273009985685">
        <ele>37.630000000000003</ele>
        <time>2017-06-25T12:43:55Z</time>
      </trkpt>
      <trkpt lat="69.647200014442205" lon="18.988420022651553">
        <ele>33.299999999999997</ele>
        <time>2017-06-25T12:44:09Z</time>
      </trkpt>
      <trkpt lat="69.647806026041508" lon="18.987155025824904">
        <ele>24.170000000000002</ele>
        <time>2017-06-25T12:44:22Z</time>
      </trkpt>
      <trkpt lat="69.648110037669539" lon="18.986487993970513">
        <ele>20.32</ele>
        <time>2017-06-25T12:44:30Z</time>
      </trkpt>
      <trkpt lat="69.648125963285565" lon="18.986384980380535">
        <ele>18.879999999999999</ele>
        <time>2017-06-25T12:44:38Z</time>
      </trkpt>
      <trkpt lat="69.648124035447836" lon="18.986298982053995">
        <ele>17.920000000000002</ele>
        <time>2017-06-25T12:44:39Z</time>
      </trkpt>
      <trkpt lat="69.648109031841159" lon="18.986188005656004">
        <ele>17.440000000000001</ele>
        <time>2017-06-25T12:44:40Z</time>
      </trkpt>
      <trkpt lat="69.648079024627805" lon="18.986093960702419">
        <ele>16.960000000000001</ele>
        <time>2017-06-25T12:44:41Z</time>
      </trkpt>
      <trkpt lat="69.648038037121296" lon="18.986045010387897">
        <ele>16.960000000000001</ele>
        <time>2017-06-25T12:44:42Z</time>
      </trkpt>
      <trkpt lat="69.647985985502601" lon="18.986019026488066">
        <ele>16.48</ele>
        <time>2017-06-25T12:44:43Z</time>
      </trkpt>
      <trkpt lat="69.647920019924641" lon="18.98600997403264">
        <ele>16</ele>
        <time>2017-06-25T12:44:44Z</time>
      </trkpt>
      <trkpt lat="69.647848019376397" lon="18.98600704036653">
        <ele>16</ele>
        <time>2017-06-25T12:44:45Z</time>
      </trkpt>
      <trkpt lat="69.646912012249231" lon="18.985484009608626">
        <ele>12.15</ele>
        <time>2017-06-25T12:44:56Z</time>
      </trkpt>
      <trkpt lat="69.645740976557136" lon="18.984007034450769">
        <ele>5.91</ele>
        <time>2017-06-25T12:45:07Z</time>
      </trkpt>
      <trkpt lat="69.644227037206292" lon="18.980903970077634">
        <ele>-3.71</ele>
        <time>2017-06-25T12:45:21Z</time>
      </trkpt>
      <trkpt lat="69.643542990088463" lon="18.979098005220294">
        <ele>-7.55</ele>
        <time>2017-06-25T12:45:29Z</time>
      </trkpt>
      <trkpt lat="69.6434719953686" lon="18.978974036872387">
        <ele>-7.55</ele>
        <time>2017-06-25T12:45:30Z</time>
      </trkpt>
      <trkpt lat="69.643210982903838" lon="18.978404989466071">
        <ele>-9</ele>
        <time>2017-06-25T12:45:34Z</time>
      </trkpt>
      <trkpt lat="69.643154991790652" lon="18.978152023628354">
        <ele>-9.48</ele>
        <time>2017-06-25T12:45:35Z</time>
      </trkpt>
      <trkpt lat="69.643101012334228" lon="18.97786402143538">
        <ele>-9.48</ele>
        <time>2017-06-25T12:45:36Z</time>
      </trkpt>
      <trkpt lat="69.642441021278501" lon="18.974601030349731">
        <ele>-9</ele>
        <time>2017-06-25T12:45:45Z</time>
      </trkpt>
      <trkpt lat="69.641335029155016" lon="18.971397969871759">
        <ele>-9.960000000000001</ele>
        <time>2017-06-25T12:45:54Z</time>
      </trkpt>
      <trkpt lat="69.639846989884973" lon="18.969137035310268">
        <ele>-10.44</ele>
        <time>2017-06-25T12:46:03Z</time>
      </trkpt>
      <trkpt lat="69.638922968879342" lon="18.967833984643221">
        <ele>-10.92</ele>
        <time>2017-06-25T12:46:10Z</time>
      </trkpt>
      <trkpt lat="69.637031005695462" lon="18.964502010494471">
        <ele>-11.4</ele>
        <time>2017-06-25T12:46:25Z</time>
      </trkpt>
      <trkpt lat="69.634629003703594" lon="18.959727007895708">
        <ele>-12.84</ele>
        <time>2017-06-25T12:46:43Z</time>
      </trkpt>
      <trkpt lat="69.632718013599515" lon="18.957558022812009">
        <ele>-12.84</ele>
        <time>2017-06-25T12:46:56Z</time>
      </trkpt>
      <trkpt lat="69.630719013512135" lon="18.955085026100278">
        <ele>-12.84</ele>
        <time>2017-06-25T12:47:09Z</time>
      </trkpt>
      <trkpt lat="69.627746036276221" lon="18.950416976585984">
        <ele>-12.84</ele>
        <time>2017-06-25T12:47:29Z</time>
      </trkpt>
      <trkpt lat="69.625546960160136" lon="18.947179969400167">
        <ele>-13.800000000000001</ele>
        <time>2017-06-25T12:47:44Z</time>
      </trkpt>
      <trkpt lat="69.623050997033715" lon="18.944344958290458">
        <ele>-14.279999999999999</ele>
        <time>2017-06-25T12:48:00Z</time>
      </trkpt>
      <trkpt lat="69.62005496956408" lon="18.941733995452523">
        <ele>-13.32</ele>
        <time>2017-06-25T12:48:18Z</time>
      </trkpt>
      <trkpt lat="69.617627989500761" lon="18.939694007858634">
        <ele>-13.32</ele>
        <time>2017-06-25T12:48:32Z</time>
      </trkpt>
      <trkpt lat="69.615082992240787" lon="18.93882698379457">
        <ele>-13.800000000000001</ele>
        <time>2017-06-25T12:48:47Z</time>
      </trkpt>
      <trkpt lat="69.611936006695032" lon="18.938156012445688">
        <ele>-13.800000000000001</ele>
        <time>2017-06-25T12:49:05Z</time>
      </trkpt>
      <trkpt lat="69.609532998874784" lon="18.93706301227212">
        <ele>-14.279999999999999</ele>
        <time>2017-06-25T12:49:19Z</time>
      </trkpt>
      <trkpt lat="69.606790021061897" lon="18.935486963018775">
        <ele>-13.32</ele>
        <time>2017-06-25T12:49:35Z</time>
      </trkpt>
      <trkpt lat="69.604915995150805" lon="18.935921983793378">
        <ele>-12.84</ele>
        <time>2017-06-25T12:49:45Z</time>
      </trkpt>
      <trkpt lat="69.602338979020715" lon="18.935663988813758">
        <ele>-12.84</ele>
        <time>2017-06-25T12:49:58Z</time>
      </trkpt>
      <trkpt lat="69.599246978759766" lon="18.93476502969861">
        <ele>-12.359999999999999</ele>
        <time>2017-06-25T12:50:14Z</time>
      </trkpt>
      <trkpt lat="69.59740798920393" lon="18.935903962701559">
        <ele>-10.92</ele>
        <time>2017-06-25T12:50:24Z</time>
      </trkpt>
      <trkpt lat="69.594298973679543" lon="18.937930036336184">
        <ele>-9.48</ele>
        <time>2017-06-25T12:50:41Z</time>
      </trkpt>
      <trkpt lat="69.592249011620879" lon="18.937914026901126">
        <ele>-9</ele>
        <time>2017-06-25T12:50:52Z</time>
      </trkpt>
      <trkpt lat="69.589330013841391" lon="18.938034977763891">
        <ele>-5.63</ele>
        <time>2017-06-25T12:51:08Z</time>
      </trkpt>
      <trkpt lat="69.587146025151014" lon="18.939290000125766">
        <ele>4.46</ele>
        <time>2017-06-25T12:51:20Z</time>
      </trkpt>
      <trkpt lat="69.585528988391161" lon="18.941323030740023">
        <ele>11.67</ele>
        <time>2017-06-25T12:51:28Z</time>
      </trkpt>
      <trkpt lat="69.583693016320467" lon="18.944072965532541">
        <ele>23.690000000000001</ele>
        <time>2017-06-25T12:51:38Z</time>
      </trkpt>
      <trkpt lat="69.581545991823077" lon="18.947494961321354">
        <ele>40.030000000000001</ele>
        <time>2017-06-25T12:51:50Z</time>
      </trkpt>
      <trkpt lat="69.579286985099316" lon="18.951103035360575">
        <ele>52.530000000000001</ele>
        <time>2017-06-25T12:52:02Z</time>
      </trkpt>
      <trkpt lat="69.575874963775277" lon="18.955188961699605">
        <ele>62.140000000000001</ele>
        <time>2017-06-25T12:52:18Z</time>
      </trkpt>
      <trkpt lat="69.57317397929728" lon="18.957960018888116">
        <ele>64.069999999999993</ele>
        <time>2017-06-25T12:52:31Z</time>
      </trkpt>
      <trkpt lat="69.571139020845294" lon="18.958496963605285">
        <ele>64.549999999999997</ele>
        <time>2017-06-25T12:52:40Z</time>
      </trkpt>
      <trkpt lat="69.56838003359735" lon="18.957847030833364">
        <ele>63.579999999999998</ele>
        <time>2017-06-25T12:52:52Z</time>
      </trkpt>
      <trkpt lat="69.566454961895943" lon="18.958280039951205">
        <ele>60.219999999999999</ele>
        <time>2017-06-25T12:53:01Z</time>
      </trkpt>
      <trkpt lat="69.56154702231288" lon="18.960362020879984">
        <ele>43.399999999999999</ele>
        <time>2017-06-25T12:53:24Z</time>
      </trkpt>
      <trkpt lat="69.557840963825583" lon="18.962225988507271">
        <ele>46.280000000000001</ele>
        <time>2017-06-25T12:53:42Z</time>
      </trkpt>
      <trkpt lat="69.556089984253049" lon="18.964651040732861">
        <ele>53.009999999999998</ele>
        <time>2017-06-25T12:53:51Z</time>
      </trkpt>
      <trkpt lat="69.552347967401147" lon="18.970041023567319">
        <ele>62.140000000000001</ele>
        <time>2017-06-25T12:54:10Z</time>
      </trkpt>
      <trkpt lat="69.5494319871068" lon="18.972642011940479">
        <ele>68.390000000000001</ele>
        <time>2017-06-25T12:54:24Z</time>
      </trkpt>
      <trkpt lat="69.547510016709566" lon="18.972653998062015">
        <ele>72.239999999999995</ele>
        <time>2017-06-25T12:54:33Z</time>
      </trkpt>
      <trkpt lat="69.546068999916315" lon="18.973898040130734">
        <ele>75.120000000000005</ele>
        <time>2017-06-25T12:54:40Z</time>
      </trkpt>
      <trkpt lat="69.544851025566459" lon="18.976740008220077">
        <ele>72.239999999999995</ele>
        <time>2017-06-25T12:54:47Z</time>
      </trkpt>
      <trkpt lat="69.544168990105391" lon="18.980067959055305">
        <ele>73.200000000000003</ele>
        <time>2017-06-25T12:54:53Z</time>
      </trkpt>
      <trkpt lat="69.543846035376191" lon="18.984351027756929">
        <ele>78.969999999999999</ele>
        <time>2017-06-25T12:55:00Z</time>
      </trkpt>
      <trkpt lat="69.543979978188872" lon="18.9892309717834">
        <ele>77.519999999999996</ele>
        <time>2017-06-25T12:55:08Z</time>
      </trkpt>
      <trkpt lat="69.544631000608206" lon="18.994117034599185">
        <ele>67.430000000000007</ele>
        <time>2017-06-25T12:55:16Z</time>
      </trkpt>
      <trkpt lat="69.545300966128707" lon="19.000528017058969">
        <ele>58.780000000000001</ele>
        <time>2017-06-25T12:55:26Z</time>
      </trkpt>
      <trkpt lat="69.546074029058218" lon="19.00717101059854">
        <ele>61.659999999999997</ele>
        <time>2017-06-25T12:55:37Z</time>
      </trkpt>
      <trkpt lat="69.547283034771681" lon="19.014335023239255">
        <ele>73.200000000000003</ele>
        <time>2017-06-25T12:55:51Z</time>
      </trkpt>
      <trkpt lat="69.548521041870117" lon="19.02018902823329">
        <ele>74.640000000000001</ele>
        <time>2017-06-25T12:56:03Z</time>
      </trkpt>
      <trkpt lat="69.549806993454695" lon="19.026126014068723">
        <ele>65.989999999999995</ele>
        <time>2017-06-25T12:56:15Z</time>
      </trkpt>
      <trkpt lat="69.550279984250665" lon="19.030756009742618">
        <ele>57.82</ele>
        <time>2017-06-25T12:56:24Z</time>
      </trkpt>
      <trkpt lat="69.550885995849967" lon="19.037061966955662">
        <ele>46.759999999999998</ele>
        <time>2017-06-25T12:56:37Z</time>
      </trkpt>
      <trkpt lat="69.551886962726712" lon="19.041719036176801">
        <ele>36.670000000000002</ele>
        <time>2017-06-25T12:56:47Z</time>
      </trkpt>
      <trkpt lat="69.553770963102579" lon="19.049692992120981">
        <ele>22.73</ele>
        <time>2017-06-25T12:57:04Z</time>
      </trkpt>
      <trkpt lat="69.555036965757608" lon="19.057087004184723">
        <ele>14.08</ele>
        <time>2017-06-25T12:57:18Z</time>
      </trkpt>
      <trkpt lat="69.555971967056394" lon="19.06077403575182">
        <ele>10.710000000000001</ele>
        <time>2017-06-25T12:57:26Z</time>
      </trkpt>
      <trkpt lat="69.557196982204914" lon="19.065885990858078">
        <ele>17.920000000000002</ele>
        <time>2017-06-25T12:57:37Z</time>
      </trkpt>
      <trkpt lat="69.557972978800535" lon="19.071070030331612">
        <ele>22.25</ele>
        <time>2017-06-25T12:57:47Z</time>
      </trkpt>
      <trkpt lat="69.558487040922046" lon="19.077744036912918">
        <ele>26.57</ele>
        <time>2017-06-25T12:57:58Z</time>
      </trkpt>
      <trkpt lat="69.559269994497299" lon="19.087158003821969">
        <ele>36.670000000000002</ele>
        <time>2017-06-25T12:58:13Z</time>
      </trkpt>
      <trkpt lat="69.559559002518654" lon="19.090231982991099">
        <ele>39.549999999999997</ele>
        <time>2017-06-25T12:58:19Z</time>
      </trkpt>
      <trkpt lat="69.560233997181058" lon="19.0970219951123">
        <ele>46.280000000000001</ele>
        <time>2017-06-25T12:58:34Z</time>
      </trkpt>
      <trkpt lat="69.561325991526246" lon="19.107312960550189">
        <ele>47.719999999999999</ele>
        <time>2017-06-25T12:58:55Z</time>
      </trkpt>
      <trkpt lat="69.562427038326859" lon="19.117235038429499">
        <ele>40.509999999999998</ele>
        <time>2017-06-25T12:59:14Z</time>
      </trkpt>
      <trkpt lat="69.563149977475405" lon="19.123087031766772">
        <ele>34.259999999999998</ele>
        <time>2017-06-25T12:59:25Z</time>
      </trkpt>
      <trkpt lat="69.563653981313109" lon="19.128126986324787">
        <ele>27.530000000000001</ele>
        <time>2017-06-25T12:59:36Z</time>
      </trkpt>
      <trkpt lat="69.563617017120123" lon="19.13234299980104">
        <ele>25.609999999999999</ele>
        <time>2017-06-25T12:59:45Z</time>
      </trkpt>
      <trkpt lat="69.563119970262051" lon="19.136522971093655">
        <ele>33.299999999999997</ele>
        <time>2017-06-25T12:59:55Z</time>
      </trkpt>
      <trkpt lat="69.562789974734187" lon="19.140763962641358">
        <ele>42.439999999999998</ele>
        <time>2017-06-25T13:00:05Z</time>
      </trkpt>
      <trkpt lat="69.563123993575573" lon="19.143957970663905">
        <ele>42.439999999999998</ele>
        <time>2017-06-25T13:00:12Z</time>
      </trkpt>
      <trkpt lat="69.563793959096074" lon="19.146251007914543">
        <ele>38.109999999999999</ele>
        <time>2017-06-25T13:00:18Z</time>
      </trkpt>
      <trkpt lat="69.565887004137039" lon="19.151206975802779">
        <ele>22.25</ele>
        <time>2017-06-25T13:00:34Z</time>
      </trkpt>
      <trkpt lat="69.567839987576008" lon="19.155881982296705">
        <ele>9.27</ele>
        <time>2017-06-25T13:00:50Z</time>
      </trkpt>
      <trkpt lat="69.570629987865686" lon="19.162797974422574">
        <ele>0.14</ele>
        <time>2017-06-25T13:01:12Z</time>
      </trkpt>
      <trkpt lat="69.571689963340759" lon="19.166820030659437">
        <ele>-0.34</ele>
        <time>2017-06-25T13:01:22Z</time>
      </trkpt>
      <trkpt lat="69.572292035445571" lon="19.171107960864902">
        <ele>-0.82</ele>
        <time>2017-06-25T13:01:31Z</time>
      </trkpt>
      <trkpt lat="69.57242296077311" lon="19.175589010119438">
        <ele>-1.3</ele>
        <time>2017-06-25T13:01:40Z</time>
      </trkpt>
      <trkpt lat="69.57203202880919" lon="19.179436974227428">
        <ele>-2.27</ele>
        <time>2017-06-25T13:01:48Z</time>
      </trkpt>
      <trkpt lat="69.571183025836945" lon="19.182722009718418">
        <ele>-2.75</ele>
        <time>2017-06-25T13:01:56Z</time>
      </trkpt>
      <trkpt lat="69.570103017613292" lon="19.184752022847533">
        <ele>-3.23</ele>
        <time>2017-06-25T13:02:03Z</time>
      </trkpt>
      <trkpt lat="69.568822011351585" lon="19.18545400723815">
        <ele>-4.67</ele>
        <time>2017-06-25T13:02:10Z</time>
      </trkpt>
      <trkpt lat="69.567356016486883" lon="19.184640040621161">
        <ele>-5.15</ele>
        <time>2017-06-25T13:02:18Z</time>
      </trkpt>
      <trkpt lat="69.565156018361449" lon="19.18285796418786">
        <ele>-0.82</ele>
        <time>2017-06-25T13:02:31Z</time>
      </trkpt>
      <trkpt lat="69.562871027737856" lon="19.181424994021654">
        <ele>5.42</ele>
        <time>2017-06-25T13:02:44Z</time>
      </trkpt>
      <trkpt lat="69.561185007914901" lon="19.181812992319465">
        <ele>5.42</ele>
        <time>2017-06-25T13:02:54Z</time>
      </trkpt>
      <trkpt lat="69.560000980272889" lon="19.182240972295403">
        <ele>6.87</ele>
        <time>2017-06-25T13:03:03Z</time>
      </trkpt>
      <trkpt lat="69.558228040114045" lon="19.183240011334419">
        <ele>11.19</ele>
        <time>2017-06-25T13:03:17Z</time>
      </trkpt>
      <trkpt lat="69.557718001306057" lon="19.184060012921691">
        <ele>11.67</ele>
        <time>2017-06-25T13:03:21Z</time>
      </trkpt>
      <trkpt lat="69.557609958574176" lon="19.184322031214833">
        <ele>11.67</ele>
        <time>2017-06-25T13:03:22Z</time>
      </trkpt>
      <trkpt lat="69.556343033909798" lon="19.187810998409986">
        <ele>12.630000000000001</ele>
        <time>2017-06-25T13:03:34Z</time>
      </trkpt>
      <trkpt lat="69.555107038468122" lon="19.189518978819251">
        <ele>13.6</ele>
        <time>2017-06-25T13:03:44Z</time>
      </trkpt>
      <trkpt lat="69.552745018154383" lon="19.192460021004081">
        <ele>11.19</ele>
        <time>2017-06-25T13:04:01Z</time>
      </trkpt>
      <trkpt lat="69.551444984972477" lon="19.193055974319577">
        <ele>11.19</ele>
        <time>2017-06-25T13:04:10Z</time>
      </trkpt>
      <trkpt lat="69.549892991781235" lon="19.194576032459736">
        <ele>10.710000000000001</ele>
        <time>2017-06-25T13:04:21Z</time>
      </trkpt>
      <trkpt lat="69.547598026692867" lon="19.19813297688961">
        <ele>11.19</ele>
        <time>2017-06-25T13:04:38Z</time>
      </trkpt>
      <trkpt lat="69.545164005830884" lon="19.203294971957803">
        <ele>13.119999999999999</ele>
        <time>2017-06-25T13:04:58Z</time>
      </trkpt>
      <trkpt lat="69.542757980525494" lon="19.208168964833021">
        <ele>13.119999999999999</ele>
        <time>2017-06-25T13:05:17Z</time>
      </trkpt>
      <trkpt lat="69.540809020400047" lon="19.212210969999433">
        <ele>13.119999999999999</ele>
        <time>2017-06-25T13:05:33Z</time>
      </trkpt>
      <trkpt lat="69.538911022245884" lon="19.215992968529463">
        <ele>13.6</ele>
        <time>2017-06-25T13:05:48Z</time>
      </trkpt>
      <trkpt lat="69.536870028823614" lon="19.220833014696836">
        <ele>14.56</ele>
        <time>2017-06-25T13:06:05Z</time>
      </trkpt>
      <trkpt lat="69.53544300980866" lon="19.222734030336142">
        <ele>13.119999999999999</ele>
        <time>2017-06-25T13:06:15Z</time>
      </trkpt>
      <trkpt lat="69.533848017454147" lon="19.225479019805789">
        <ele>13.119999999999999</ele>
        <time>2017-06-25T13:06:27Z</time>
      </trkpt>
      <trkpt lat="69.53198698349297" lon="19.2290910333395">
        <ele>6.39</ele>
        <time>2017-06-25T13:06:41Z</time>
      </trkpt>
      <trkpt lat="69.530285960063338" lon="19.232295015826821">
        <ele>2.54</ele>
        <time>2017-06-25T13:06:53Z</time>
      </trkpt>
      <trkpt lat="69.527073008939624" lon="19.238191014155746">
        <ele>-0.82</ele>
        <time>2017-06-25T13:07:17Z</time>
      </trkpt>
      <trkpt lat="69.524208996444941" lon="19.243802027776837">
        <ele>-0.82</ele>
        <time>2017-06-25T13:07:38Z</time>
      </trkpt>
      <trkpt lat="69.520773002877831" lon="19.248155001550913">
        <ele>-3.23</ele>
        <time>2017-06-25T13:07:59Z</time>
      </trkpt>
      <trkpt lat="69.519182033836842" lon="19.249568022787571">
        <ele>-1.3</ele>
        <time>2017-06-25T13:08:09Z</time>
      </trkpt>
      <trkpt lat="69.517360981553793" lon="19.25005903467536">
        <ele>3.98</ele>
        <time>2017-06-25T13:08:20Z</time>
      </trkpt>
      <trkpt lat="69.515572031959891" lon="19.25179903395474">
        <ele>7.83</ele>
        <time>2017-06-25T13:08:31Z</time>
      </trkpt>
      <trkpt lat="69.513718038797379" lon="19.252575030550361">
        <ele>16.48</ele>
        <time>2017-06-25T13:08:42Z</time>
      </trkpt>
      <trkpt lat="69.510716982185841" lon="19.25212299451232">
        <ele>29.940000000000001</ele>
        <time>2017-06-25T13:08:59Z</time>
      </trkpt>
      <trkpt lat="69.507690025493503" lon="19.251718986779451">
        <ele>28.02</ele>
        <time>2017-06-25T13:09:15Z</time>
      </trkpt>
      <trkpt lat="69.505096999928355" lon="19.251423021778464">
        <ele>25.129999999999999</ele>
        <time>2017-06-25T13:09:26Z</time>
      </trkpt>
      <trkpt lat="69.50235896743834" lon="19.250243017449975">
        <ele>26.57</ele>
        <time>2017-06-25T13:09:38Z</time>
      </trkpt>
      <trkpt lat="69.500113036483526" lon="19.24924498423934">
        <ele>27.050000000000001</ele>
        <time>2017-06-25T13:09:49Z</time>
      </trkpt>
      <trkpt lat="69.497412974014878" lon="19.248963017016649">
        <ele>29.940000000000001</ele>
        <time>2017-06-25T13:10:02Z</time>
      </trkpt>
      <trkpt lat="69.495071992278099" lon="19.249427961185575">
        <ele>37.149999999999999</ele>
        <time>2017-06-25T13:10:12Z</time>
      </trkpt>
      <trkpt lat="69.492343012243509" lon="19.251078022643924">
        <ele>45.799999999999997</ele>
        <time>2017-06-25T13:10:24Z</time>
      </trkpt>
      <trkpt lat="69.490620028227568" lon="19.251335011795163">
        <ele>49.159999999999997</ele>
        <time>2017-06-25T13:10:31Z</time>
      </trkpt>
      <trkpt lat="69.486382976174355" lon="19.251858964562416">
        <ele>51.090000000000003</ele>
        <time>2017-06-25T13:10:49Z</time>
      </trkpt>
      <trkpt lat="69.484613975510001" lon="19.252102039754391">
        <ele>51.57</ele>
        <time>2017-06-25T13:10:56Z</time>
      </trkpt>
      <trkpt lat="69.482123963534832" lon="19.252385012805462">
        <ele>50.609999999999999</ele>
        <time>2017-06-25T13:11:08Z</time>
      </trkpt>
      <trkpt lat="69.478729963302612" lon="19.25216599367559">
        <ele>48.68</ele>
        <time>2017-06-25T13:11:25Z</time>
      </trkpt>
      <trkpt lat="69.475611979141831" lon="19.250592961907387">
        <ele>49.649999999999999</ele>
        <time>2017-06-25T13:11:41Z</time>
      </trkpt>
      <trkpt lat="69.471518006175756" lon="19.247241038829088">
        <ele>56.369999999999997</ele>
        <time>2017-06-25T13:12:02Z</time>
      </trkpt>
      <trkpt lat="69.466706961393356" lon="19.243157040327787">
        <ele>53.490000000000002</ele>
        <time>2017-06-25T13:12:26Z</time>
      </trkpt>
      <trkpt lat="69.463504990562797" lon="19.240467958152294">
        <ele>53.969999999999999</ele>
        <time>2017-06-25T13:12:43Z</time>
      </trkpt>
      <trkpt lat="69.459059983491898" lon="19.236663999035954">
        <ele>56.859999999999999</ele>
        <time>2017-06-25T13:13:06Z</time>
      </trkpt>
      <trkpt lat="69.457048997282982" lon="19.235763028264046">
        <ele>55.409999999999997</ele>
        <time>2017-06-25T13:13:16Z</time>
      </trkpt>
      <trkpt lat="69.4529830198735" lon="19.23551601357758">
        <ele>56.859999999999999</ele>
        <time>2017-06-25T13:13:36Z</time>
      </trkpt>
      <trkpt lat="69.449239997193217" lon="19.23525701276958">
        <ele>60.700000000000003</ele>
        <time>2017-06-25T13:13:53Z</time>
      </trkpt>
      <trkpt lat="69.446396017447114" lon="19.235964026302099">
        <ele>59.259999999999998</ele>
        <time>2017-06-25T13:14:06Z</time>
      </trkpt>
      <trkpt lat="69.442163994535804" lon="19.237927990034223">
        <ele>60.219999999999999</ele>
        <time>2017-06-25T13:14:26Z</time>
      </trkpt>
      <trkpt lat="69.440210005268455" lon="19.240464018657804">
        <ele>57.82</ele>
        <time>2017-06-25T13:14:36Z</time>
      </trkpt>
      <trkpt lat="69.438599003478885" lon="19.244352970272303">
        <ele>56.859999999999999</ele>
        <time>2017-06-25T13:14:46Z</time>
      </trkpt>
      <trkpt lat="69.43663596175611" lon="19.2511569801718">
        <ele>58.299999999999997</ele>
        <time>2017-06-25T13:15:00Z</time>
      </trkpt>
      <trkpt lat="69.434261033311486" lon="19.259108975529671">
        <ele>59.740000000000002</ele>
        <time>2017-06-25T13:15:17Z</time>
      </trkpt>
      <trkpt lat="69.432377032935619" lon="19.263707036152482">
        <ele>61.18</ele>
        <time>2017-06-25T13:15:29Z</time>
      </trkpt>
      <trkpt lat="69.429766992107034" lon="19.26832596771419">
        <ele>59.740000000000002</ele>
        <time>2017-06-25T13:15:43Z</time>
      </trkpt>
      <trkpt lat="69.42614802159369" lon="19.274528995156288">
        <ele>57.340000000000003</ele>
        <time>2017-06-25T13:16:01Z</time>
      </trkpt>
      <trkpt lat="69.423769991844893" lon="19.277680004015565">
        <ele>52.530000000000001</ele>
        <time>2017-06-25T13:16:12Z</time>
      </trkpt>
      <trkpt lat="69.421866964548826" lon="19.278655992820859">
        <ele>46.759999999999998</ele>
        <time>2017-06-25T13:16:20Z</time>
      </trkpt>
      <trkpt lat="69.418265009298921" lon="19.280685000121593">
        <ele>39.07</ele>
        <time>2017-06-25T13:16:35Z</time>
      </trkpt>
      <trkpt lat="69.415929978713393" lon="19.281600974500179">
        <ele>39.549999999999997</ele>
        <time>2017-06-25T13:16:45Z</time>
      </trkpt>
      <trkpt lat="69.413600983098149" lon="19.281080961227417">
        <ele>40.990000000000002</ele>
        <time>2017-06-25T13:16:55Z</time>
      </trkpt>
      <trkpt lat="69.411036036908627" lon="19.281115997582674">
        <ele>36.189999999999998</ele>
        <time>2017-06-25T13:17:06Z</time>
      </trkpt>
      <trkpt lat="69.408476036041975" lon="19.281234014779329">
        <ele>26.57</ele>
        <time>2017-06-25T13:17:17Z</time>
      </trkpt>
      <trkpt lat="69.406205965206027" lon="19.280545022338629">
        <ele>18.879999999999999</ele>
        <time>2017-06-25T13:17:28Z</time>
      </trkpt>
      <trkpt lat="69.404376028105617" lon="19.278955981135368">
        <ele>17.440000000000001</ele>
        <time>2017-06-25T13:17:37Z</time>
      </trkpt>
      <trkpt lat="69.40260199829936" lon="19.278231030330062">
        <ele>17.440000000000001</ele>
        <time>2017-06-25T13:17:46Z</time>
      </trkpt>
      <trkpt lat="69.400465032085776" lon="19.27739099599421">
        <ele>24.170000000000002</ele>
        <time>2017-06-25T13:17:57Z</time>
      </trkpt>
      <trkpt lat="69.398817988112569" lon="19.278072025626898">
        <ele>27.050000000000001</ele>
        <time>2017-06-25T13:18:06Z</time>
      </trkpt>
      <trkpt lat="69.396900041028857" lon="19.279634999111295">
        <ele>26.57</ele>
        <time>2017-06-25T13:18:16Z</time>
      </trkpt>
      <trkpt lat="69.396657971665263" lon="19.279683027416468">
        <ele>26.09</ele>
        <time>2017-06-25T13:18:17Z</time>
      </trkpt>
      <trkpt lat="69.395137997344136" lon="19.279354959726334">
        <ele>24.649999999999999</ele>
        <time>2017-06-25T13:18:24Z</time>
      </trkpt>
      <trkpt lat="69.393304036930203" lon="19.279228979721665">
        <ele>24.170000000000002</ele>
        <time>2017-06-25T13:18:33Z</time>
      </trkpt>
      <trkpt lat="69.3913649674505" lon="19.280703021213412">
        <ele>23.690000000000001</ele>
        <time>2017-06-25T13:18:43Z</time>
      </trkpt>
      <trkpt lat="69.389192964881659" lon="19.282277980819345">
        <ele>24.170000000000002</ele>
        <time>2017-06-25T13:18:54Z</time>
      </trkpt>
      <trkpt lat="69.385928967967629" lon="19.285772982984781">
        <ele>27.050000000000001</ele>
        <time>2017-06-25T13:19:11Z</time>
      </trkpt>
      <trkpt lat="69.384603034704924" lon="19.286590972915292">
        <ele>25.129999999999999</ele>
        <time>2017-06-25T13:19:18Z</time>
      </trkpt>
      <trkpt lat="69.383189007639885" lon="19.286401038989425">
        <ele>20.32</ele>
        <time>2017-06-25T13:19:25Z</time>
      </trkpt>
      <trkpt lat="69.380550971254706" lon="19.284771010279655">
        <ele>14.08</ele>
        <time>2017-06-25T13:19:38Z</time>
      </trkpt>
      <trkpt lat="69.378981962800026" lon="19.284835970029235">
        <ele>15.039999999999999</ele>
        <time>2017-06-25T13:19:46Z</time>
      </trkpt>
      <trkpt lat="69.377514962106943" lon="19.286230970174074">
        <ele>13.6</ele>
        <time>2017-06-25T13:19:54Z</time>
      </trkpt>
      <trkpt lat="69.376306962221861" lon="19.288665996864438">
        <ele>9.27</ele>
        <time>2017-06-25T13:20:02Z</time>
      </trkpt>
      <trkpt lat="69.374996032565832" lon="19.293155008926988">
        <ele>1.58</ele>
        <time>2017-06-25T13:20:12Z</time>
      </trkpt>
      <trkpt lat="69.373919041827321" lon="19.298265958204865">
        <ele>-3.71</ele>
        <time>2017-06-25T13:20:21Z</time>
      </trkpt>
      <trkpt lat="69.373155031353235" lon="19.304186012595892">
        <ele>-4.67</ele>
        <time>2017-06-25T13:20:31Z</time>
      </trkpt>
      <trkpt lat="69.372449023649096" lon="19.312228029593825">
        <ele>-4.19</ele>
        <time>2017-06-25T13:20:44Z</time>
      </trkpt>
      <trkpt lat="69.371475968509912" lon="19.31952103972435">
        <ele>-4.19</ele>
        <time>2017-06-25T13:20:56Z</time>
      </trkpt>
      <trkpt lat="69.371329033747315" lon="19.324664007872343">
        <ele>-3.71</ele>
        <time>2017-06-25T13:21:04Z</time>
      </trkpt>
      <trkpt lat="69.371717032045126" lon="19.328780025243759">
        <ele>-3.23</ele>
        <time>2017-06-25T13:21:11Z</time>
      </trkpt>
      <trkpt lat="69.373131981119514" lon="19.337487984448671">
        <ele>-5.15</ele>
        <time>2017-06-25T13:21:27Z</time>
      </trkpt>
      <trkpt lat="69.374742982909083" lon="19.348758039996028">
        <ele>-6.11</ele>
        <time>2017-06-25T13:21:47Z</time>
      </trkpt>
      <trkpt lat="69.375256039202213" lon="19.355622986331582">
        <ele>-6.11</ele>
        <time>2017-06-25T13:21:59Z</time>
      </trkpt>
      <trkpt lat="69.375193007290363" lon="19.360093977302313">
        <ele>-5.63</ele>
        <time>2017-06-25T13:22:07Z</time>
      </trkpt>
      <trkpt lat="69.375123018398881" lon="19.360633017495275">
        <ele>-5.63</ele>
        <time>2017-06-25T13:22:08Z</time>
      </trkpt>
      <trkpt lat="69.375042971223593" lon="19.36116199940443">
        <ele>-5.63</ele>
        <time>2017-06-25T13:22:09Z</time>
      </trkpt>
      <trkpt lat="69.374944986775517" lon="19.361660974100232">
        <ele>-5.15</ele>
        <time>2017-06-25T13:22:10Z</time>
      </trkpt>
      <trkpt lat="69.374831998720765" lon="19.362129019573331">
        <ele>-5.15</ele>
        <time>2017-06-25T13:22:11Z</time>
      </trkpt>
      <trkpt lat="69.374706018716097" lon="19.36257803812623">
        <ele>-4.67</ele>
        <time>2017-06-25T13:22:12Z</time>
      </trkpt>
      <trkpt lat="69.374566040933132" lon="19.363003000617027">
        <ele>-5.15</ele>
        <time>2017-06-25T13:22:13Z</time>
      </trkpt>
      <trkpt lat="69.37441298738122" lon="19.363404996693134">
        <ele>-5.15</ele>
        <time>2017-06-25T13:22:14Z</time>
      </trkpt>
      <trkpt lat="69.374249959364533" lon="19.363778997212648">
        <ele>-5.15</ele>
        <time>2017-06-25T13:22:15Z</time>
      </trkpt>
      <trkpt lat="69.374075029045343" lon="19.364123996347189">
        <ele>-5.15</ele>
        <time>2017-06-25T13:22:16Z</time>
      </trkpt>
      <trkpt lat="69.373890040442348" lon="19.364434964954853">
        <ele>-5.15</ele>
        <time>2017-06-25T13:22:17Z</time>
      </trkpt>
      <trkpt lat="69.373700022697449" lon="19.36470796354115">
        <ele>-5.15</ele>
        <time>2017-06-25T13:22:18Z</time>
      </trkpt>
      <trkpt lat="69.373502964153886" lon="19.364925976842642">
        <ele>-5.15</ele>
        <time>2017-06-25T13:22:19Z</time>
      </trkpt>
      <trkpt lat="69.373300960287452" lon="19.365082969889045">
        <ele>-5.15</ele>
        <time>2017-06-25T13:22:20Z</time>
      </trkpt>
      <trkpt lat="69.373094011098146" lon="19.365196963772178">
        <ele>-5.15</ele>
        <time>2017-06-25T13:22:21Z</time>
      </trkpt>
      <trkpt lat="69.372883960604668" lon="19.365272987633944">
        <ele>-5.15</ele>
        <time>2017-06-25T13:22:22Z</time>
      </trkpt>
      <trkpt lat="69.372670976445079" lon="19.365302994847298">
        <ele>-5.15</ele>
        <time>2017-06-25T13:22:23Z</time>
      </trkpt>
      <trkpt lat="69.37245799228549" lon="19.365290002897382">
        <ele>-5.63</ele>
        <time>2017-06-25T13:22:24Z</time>
      </trkpt>
      <trkpt lat="69.372241990640759" lon="19.365227976813912">
        <ele>-5.15</ele>
        <time>2017-06-25T13:22:25Z</time>
      </trkpt>
      <trkpt lat="69.372029006481171" lon="19.365121023729444">
        <ele>-4.67</ele>
        <time>2017-06-25T13:22:26Z</time>
      </trkpt>
      <trkpt lat="69.371814010664821" lon="19.364957995712757">
        <ele>-4.67</ele>
        <time>2017-06-25T13:22:27Z</time>
      </trkpt>
      <trkpt lat="69.371601026505232" lon="19.364740988239646">
        <ele>-4.19</ele>
        <time>2017-06-25T13:22:28Z</time>
      </trkpt>
      <trkpt lat="69.371397010982037" lon="19.364477964118123">
        <ele>-3.23</ele>
        <time>2017-06-25T13:22:29Z</time>
      </trkpt>
      <trkpt lat="69.371199030429125" lon="19.364160038530827">
        <ele>-2.75</ele>
        <time>2017-06-25T13:22:30Z</time>
      </trkpt>
      <trkpt lat="69.371005995199084" lon="19.36382400803268">
        <ele>-1.3</ele>
        <time>2017-06-25T13:22:31Z</time>
      </trkpt>
      <trkpt lat="69.368321020156145" lon="19.358600992709398">
        <ele>18.399999999999999</ele>
        <time>2017-06-25T13:22:45Z</time>
      </trkpt>
      <trkpt lat="69.367025010287762" lon="19.357280004769564">
        <ele>25.609999999999999</ele>
        <time>2017-06-25T13:22:51Z</time>
      </trkpt>
      <trkpt lat="69.365684995427728" lon="19.357456024736166">
        <ele>30.420000000000002</ele>
        <time>2017-06-25T13:22:57Z</time>
      </trkpt>
      <trkpt lat="69.364397032186389" lon="19.359227037057281">
        <ele>34.259999999999998</ele>
        <time>2017-06-25T13:23:03Z</time>
      </trkpt>
      <trkpt lat="69.361958988010883" lon="19.364450974389911">
        <ele>40.990000000000002</ele>
        <time>2017-06-25T13:23:15Z</time>
      </trkpt>
      <trkpt lat="69.359220033511519" lon="19.369588997215033">
        <ele>48.68</ele>
        <time>2017-06-25T13:23:28Z</time>
      </trkpt>
      <trkpt lat="69.354739990085363" lon="19.377093985676765">
        <ele>60.700000000000003</ele>
        <time>2017-06-25T13:23:48Z</time>
      </trkpt>
      <trkpt lat="69.351700963452458" lon="19.381083017215133">
        <ele>62.619999999999997</ele>
        <time>2017-06-25T13:24:01Z</time>
      </trkpt>
      <trkpt lat="69.348580967634916" lon="19.385036006569862">
        <ele>64.069999999999993</ele>
        <time>2017-06-25T13:24:15Z</time>
      </trkpt>
      <trkpt lat="69.345963969826698" lon="19.389688968658447">
        <ele>62.140000000000001</ele>
        <time>2017-06-25T13:24:27Z</time>
      </trkpt>
      <trkpt lat="69.343533972278237" lon="19.395264023914933">
        <ele>55.890000000000001</ele>
        <time>2017-06-25T13:24:39Z</time>
      </trkpt>
      <trkpt lat="69.341976027935743" lon="19.397728973999619">
        <ele>51.57</ele>
        <time>2017-06-25T13:24:46Z</time>
      </trkpt>
      <trkpt lat="69.338280027732253" lon="19.401534022763371">
        <ele>46.280000000000001</ele>
        <time>2017-06-25T13:25:01Z</time>
      </trkpt>
      <trkpt lat="69.333807025104761" lon="19.406124036759138">
        <ele>60.700000000000003</ele>
        <time>2017-06-25T13:25:20Z</time>
      </trkpt>
      <trkpt lat="69.329398982226849" lon="19.410882024094462">
        <ele>65.510000000000005</ele>
        <time>2017-06-25T13:25:38Z</time>
      </trkpt>
      <trkpt lat="69.326331960037351" lon="19.415458040311933">
        <ele>61.18</ele>
        <time>2017-06-25T13:25:51Z</time>
      </trkpt>
      <trkpt lat="69.323823004961014" lon="19.420457007363439">
        <ele>59.259999999999998</ele>
        <time>2017-06-25T13:26:03Z</time>
      </trkpt>
      <trkpt lat="69.321372974663973" lon="19.426660034805536">
        <ele>57.340000000000003</ele>
        <time>2017-06-25T13:26:16Z</time>
      </trkpt>
      <trkpt lat="69.319567009806633" lon="19.430914018303156">
        <ele>54.93</ele>
        <time>2017-06-25T13:26:26Z</time>
      </trkpt>
      <trkpt lat="69.318027002736926" lon="19.432565001770854">
        <ele>53.969999999999999</ele>
        <time>2017-06-25T13:26:33Z</time>
      </trkpt>
      <trkpt lat="69.316354980692267" lon="19.432873036712408">
        <ele>56.369999999999997</ele>
        <time>2017-06-25T13:26:40Z</time>
      </trkpt>
      <trkpt lat="69.314764011651278" lon="19.431768972426653">
        <ele>60.219999999999999</ele>
        <time>2017-06-25T13:26:47Z</time>
      </trkpt>
      <trkpt lat="69.31216998025775" lon="19.428248992189765">
        <ele>63.579999999999998</ele>
        <time>2017-06-25T13:26:59Z</time>
      </trkpt>
      <trkpt lat="69.30851899087429" lon="19.423348009586334">
        <ele>66.469999999999999</ele>
        <time>2017-06-25T13:27:15Z</time>
      </trkpt>
      <trkpt lat="69.30636802688241" lon="19.421627959236503">
        <ele>67.909999999999997</ele>
        <time>2017-06-25T13:27:24Z</time>
      </trkpt>
      <trkpt lat="69.303366970270872" lon="19.420774010941386">
        <ele>68.870000000000005</ele>
        <time>2017-06-25T13:27:36Z</time>
      </trkpt>
      <trkpt lat="69.299683040007949" lon="19.418858997523785">
        <ele>71.269999999999996</ele>
        <time>2017-06-25T13:27:51Z</time>
      </trkpt>
      <trkpt lat="69.293934982270002" lon="19.41453100182116">
        <ele>75.120000000000005</ele>
        <time>2017-06-25T13:28:15Z</time>
      </trkpt>
      <trkpt lat="69.292213004082441" lon="19.414384989067912">
        <ele>76.079999999999998</ele>
        <time>2017-06-25T13:28:22Z</time>
      </trkpt>
      <trkpt lat="69.290496977046132" lon="19.4157740380615">
        <ele>75.120000000000005</ele>
        <time>2017-06-25T13:28:29Z</time>
      </trkpt>
      <trkpt lat="69.28823696449399" lon="19.417513031512499">
        <ele>75.599999999999994</ele>
        <time>2017-06-25T13:28:38Z</time>
      </trkpt>
      <trkpt lat="69.286467963829637" lon="19.417170966044068">
        <ele>79.450000000000003</ele>
        <time>2017-06-25T13:28:45Z</time>
      </trkpt>
      <trkpt lat="69.284469969570637" lon="19.417322007939219">
        <ele>80.890000000000001</ele>
        <time>2017-06-25T13:28:53Z</time>
      </trkpt>
      <trkpt lat="69.282772969454527" lon="19.419012973085046">
        <ele>77.040000000000006</ele>
        <time>2017-06-25T13:29:00Z</time>
      </trkpt>
      <trkpt lat="69.280795007944107" lon="19.420625986531377">
        <ele>77.040000000000006</ele>
        <time>2017-06-25T13:29:08Z</time>
      </trkpt>
      <trkpt lat="69.278066027909517" lon="19.421369964256883">
        <ele>81.849999999999994</ele>
        <time>2017-06-25T13:29:19Z</time>
      </trkpt>
      <trkpt lat="69.276316976174712" lon="19.421761985868216">
        <ele>85.689999999999998</ele>
        <time>2017-06-25T13:29:28Z</time>
      </trkpt>
      <trkpt lat="69.274310013279319" lon="19.422295996919274">
        <ele>90.980000000000004</ele>
        <time>2017-06-25T13:29:37Z</time>
      </trkpt>
      <trkpt lat="69.272459959611297" lon="19.423588989302516">
        <ele>91.459999999999994</ele>
        <time>2017-06-25T13:29:45Z</time>
      </trkpt>
      <trkpt lat="69.270921964198351" lon="19.426040025427938">
        <ele>90.019999999999996</ele>
        <time>2017-06-25T13:29:53Z</time>
      </trkpt>
      <trkpt lat="69.269012985751033" lon="19.429035969078541">
        <ele>89.540000000000006</ele>
        <time>2017-06-25T13:30:03Z</time>
      </trkpt>
      <trkpt lat="69.267466021701694" lon="19.42948398180306">
        <ele>90.980000000000004</ele>
        <time>2017-06-25T13:30:10Z</time>
      </trkpt>
      <trkpt lat="69.265929032117128" lon="19.428406991064548">
        <ele>92.900000000000006</ele>
        <time>2017-06-25T13:30:17Z</time>
      </trkpt>
      <trkpt lat="69.26341999322176" lon="19.426942002028227">
        <ele>94.829999999999998</ele>
        <time>2017-06-25T13:30:28Z</time>
      </trkpt>
      <trkpt lat="69.261154029518366" lon="19.42727199755609">
        <ele>95.310000000000002</ele>
        <time>2017-06-25T13:30:37Z</time>
      </trkpt>
      <trkpt lat="69.25893098115921" lon="19.429126996546984">
        <ele>93.390000000000001</ele>
        <time>2017-06-25T13:30:46Z</time>
      </trkpt>
      <trkpt lat="69.255015039816499" lon="19.433818012475967">
        <ele>92.420000000000002</ele>
        <time>2017-06-25T13:31:03Z</time>
      </trkpt>
      <trkpt lat="69.250366017222404" lon="19.439427014440298">
        <ele>90.5</ele>
        <time>2017-06-25T13:31:23Z</time>
      </trkpt>
      <trkpt lat="69.247323973104358" lon="19.444197993725538">
        <ele>88.099999999999994</ele>
        <time>2017-06-25T13:31:37Z</time>
      </trkpt>
      <trkpt lat="69.244561968371272" lon="19.44989399984479">
        <ele>80.890000000000001</ele>
        <time>2017-06-25T13:31:51Z</time>
      </trkpt>
      <trkpt lat="69.242026023566723" lon="19.456762969493866">
        <ele>73.680000000000007</ele>
        <time>2017-06-25T13:32:05Z</time>
      </trkpt>
      <trkpt lat="69.239570964127779" lon="19.464968014508486">
        <ele>65.510000000000005</ele>
        <time>2017-06-25T13:32:19Z</time>
      </trkpt>
      <trkpt lat="69.23660796135664" lon="19.473840007558465">
        <ele>58.299999999999997</ele>
        <time>2017-06-25T13:32:35Z</time>
      </trkpt>
      <trkpt lat="69.233762975782156" lon="19.480964038521051">
        <ele>50.130000000000003</ele>
        <time>2017-06-25T13:32:50Z</time>
      </trkpt>
      <trkpt lat="69.230608027428389" lon="19.487929986789823">
        <ele>43.399999999999999</ele>
        <time>2017-06-25T13:33:06Z</time>
      </trkpt>
      <trkpt lat="69.228568039834499" lon="19.493459025397897">
        <ele>36.189999999999998</ele>
        <time>2017-06-25T13:33:17Z</time>
      </trkpt>
      <trkpt lat="69.226466026157141" lon="19.500845996662974">
        <ele>21.289999999999999</ele>
        <time>2017-06-25T13:33:30Z</time>
      </trkpt>
      <trkpt lat="69.224619995802641" lon="19.505513962358236">
        <ele>9.27</ele>
        <time>2017-06-25T13:33:40Z</time>
      </trkpt>
      <trkpt lat="69.223485002294183" lon="19.508557012304664">
        <ele>0.62</ele>
        <time>2017-06-25T13:33:48Z</time>
      </trkpt>
      <trkpt lat="69.222627030685544" lon="19.512447975575924">
        <ele>-4.67</ele>
        <time>2017-06-25T13:33:57Z</time>
      </trkpt>
      <trkpt lat="69.222026970237494" lon="19.517868971452117">
        <ele>-5.15</ele>
        <time>2017-06-25T13:34:08Z</time>
      </trkpt>
      <trkpt lat="69.221227001398802" lon="19.526584977284074">
        <ele>-2.27</ele>
        <time>2017-06-25T13:34:26Z</time>
      </trkpt>
      <trkpt lat="69.220395013689995" lon="19.534319965168834">
        <ele>-5.63</ele>
        <time>2017-06-25T13:34:42Z</time>
      </trkpt>
      <trkpt lat="69.220034005120397" lon="19.5393399707973">
        <ele>-4.67</ele>
        <time>2017-06-25T13:34:53Z</time>
      </trkpt>
      <trkpt lat="69.220055965706706" lon="19.546126965433359">
        <ele>-0.82</ele>
        <time>2017-06-25T13:35:05Z</time>
      </trkpt>
      <trkpt lat="69.219974996522069" lon="19.551851972937584">
        <ele>1.1</ele>
        <time>2017-06-25T13:35:16Z</time>
      </trkpt>
      <trkpt lat="69.21993300318718" lon="19.552231002599001">
        <ele>1.1</ele>
        <time>2017-06-25T13:35:17Z</time>
      </trkpt>
      <trkpt lat="69.219884974882007" lon="19.552580025047064">
        <ele>1.1</ele>
        <time>2017-06-25T13:35:18Z</time>
      </trkpt>
      <trkpt lat="69.219829989597201" lon="19.552899040281773">
        <ele>1.1</ele>
        <time>2017-06-25T13:35:19Z</time>
      </trkpt>
      <trkpt lat="69.219773998484015" lon="19.553182013332844">
        <ele>1.58</ele>
        <time>2017-06-25T13:35:20Z</time>
      </trkpt>
      <trkpt lat="69.219711972400546" lon="19.553450988605618">
        <ele>1.58</ele>
        <time>2017-06-25T13:35:21Z</time>
      </trkpt>
      <trkpt lat="69.219641983509064" lon="19.553698003292084">
        <ele>1.1</ele>
        <time>2017-06-25T13:35:22Z</time>
      </trkpt>
      <trkpt lat="69.219565959647298" lon="19.553937977179885">
        <ele>1.1</ele>
        <time>2017-06-25T13:35:23Z</time>
      </trkpt>
      <trkpt lat="69.21948398463428" lon="19.554164037108421">
        <ele>0.62</ele>
        <time>2017-06-25T13:35:24Z</time>
      </trkpt>
      <trkpt lat="69.219399997964501" lon="19.55435698851943">
        <ele>0.62</ele>
        <time>2017-06-25T13:35:25Z</time>
      </trkpt>
      <trkpt lat="69.219321040436625" lon="19.55452797934413">
        <ele>0.62</ele>
        <time>2017-06-25T13:35:26Z</time>
      </trkpt>
      <trkpt lat="69.219195982441306" lon="19.554783962666988">
        <ele>-0.34</ele>
        <time>2017-06-25T13:35:28Z</time>
      </trkpt>
      <trkpt lat="69.219153989106417" lon="19.554924024268985">
        <ele>-0.34</ele>
        <time>2017-06-25T13:35:29Z</time>
      </trkpt>
      <trkpt lat="69.219129011034966" lon="19.555090991780162">
        <ele>-0.34</ele>
        <time>2017-06-25T13:35:30Z</time>
      </trkpt>
      <trkpt lat="69.219124987721443" lon="19.555275980383158">
        <ele>-0.34</ele>
        <time>2017-06-25T13:35:31Z</time>
      </trkpt>
      <trkpt lat="69.219143008813262" lon="19.555468009784818">
        <ele>0.14</ele>
        <time>2017-06-25T13:35:32Z</time>
      </trkpt>
      <trkpt lat="69.219177961349487" lon="19.555674958974123">
        <ele>-0.34</ele>
        <time>2017-06-25T13:35:33Z</time>
      </trkpt>
      <trkpt lat="69.219223977997899" lon="19.555917028337717">
        <ele>-0.34</ele>
        <time>2017-06-25T13:35:34Z</time>
      </trkpt>
      <trkpt lat="69.219652963802218" lon="19.558850023895502">
        <ele>0.14</ele>
        <time>2017-06-25T13:35:43Z</time>
      </trkpt>
      <trkpt lat="69.220365006476641" lon="19.56413003616035">
        <ele>6.39</ele>
        <time>2017-06-25T13:35:56Z</time>
      </trkpt>
      <trkpt lat="69.220582013949752" lon="19.56827798858285">
        <ele>7.83</ele>
        <time>2017-06-25T13:36:05Z</time>
      </trkpt>
      <trkpt lat="69.220647979527712" lon="19.574247999116778">
        <ele>9.27</ele>
        <time>2017-06-25T13:36:17Z</time>
      </trkpt>
      <trkpt lat="69.220674969255924" lon="19.574707997962832">
        <ele>8.789999999999999</ele>
        <time>2017-06-25T13:36:18Z</time>
      </trkpt>
      <trkpt lat="69.22074998728931" lon="19.578627962619066">
        <ele>8.789999999999999</ele>
        <time>2017-06-25T13:36:26Z</time>
      </trkpt>
      <trkpt lat="69.220790974795818" lon="19.584166975691915">
        <ele>8.789999999999999</ele>
        <time>2017-06-25T13:36:36Z</time>
      </trkpt>
      <trkpt lat="69.220821987837553" lon="19.590413002297282">
        <ele>12.15</ele>
        <time>2017-06-25T13:36:47Z</time>
      </trkpt>
      <trkpt lat="69.220768008381128" lon="19.594445032998919">
        <ele>15.039999999999999</ele>
        <time>2017-06-25T13:36:54Z</time>
      </trkpt>
      <trkpt lat="69.220370035618544" lon="19.597019031643867">
        <ele>17.920000000000002</ele>
        <time>2017-06-25T13:36:59Z</time>
      </trkpt>
      <trkpt lat="69.220309015363455" lon="19.597522029653192">
        <ele>18.399999999999999</ele>
        <time>2017-06-25T13:37:00Z</time>
      </trkpt>
      <trkpt lat="69.220265010371804" lon="19.598044976592064">
        <ele>18.879999999999999</ele>
        <time>2017-06-25T13:37:01Z</time>
      </trkpt>
      <trkpt lat="69.220238020643592" lon="19.598592985421419">
        <ele>19.359999999999999</ele>
        <time>2017-06-25T13:37:02Z</time>
      </trkpt>
      <trkpt lat="69.220222011208534" lon="19.599149040877819">
        <ele>19.84</ele>
        <time>2017-06-25T13:37:03Z</time>
      </trkpt>
      <trkpt lat="69.21993400901556" lon="19.6037089638412">
        <ele>20.809999999999999</ele>
        <time>2017-06-25T13:37:11Z</time>
      </trkpt>
      <trkpt lat="69.219636032357812" lon="19.607145041227341">
        <ele>21.77</ele>
        <time>2017-06-25T13:37:18Z</time>
      </trkpt>
      <trkpt lat="69.218843020498753" lon="19.611052013933659">
        <ele>17.920000000000002</ele>
        <time>2017-06-25T13:37:27Z</time>
      </trkpt>
      <trkpt lat="69.21862400136888" lon="19.612447014078498">
        <ele>19.359999999999999</ele>
        <time>2017-06-25T13:37:30Z</time>
      </trkpt>
      <trkpt lat="69.218578990548849" lon="19.612939031794667">
        <ele>19.84</ele>
        <time>2017-06-25T13:37:31Z</time>
      </trkpt>
      <trkpt lat="69.218548983335495" lon="19.613441023975611">
        <ele>20.32</ele>
        <time>2017-06-25T13:37:32Z</time>
      </trkpt>
      <trkpt lat="69.218143969774246" lon="19.617920983582735">
        <ele>21.289999999999999</ele>
        <time>2017-06-25T13:37:41Z</time>
      </trkpt>
      <trkpt lat="69.218046991154552" lon="19.618365978822112">
        <ele>22.25</ele>
        <time>2017-06-25T13:37:42Z</time>
      </trkpt>
      <trkpt lat="69.21793500892818" lon="19.618800999596715">
        <ele>23.210000000000001</ele>
        <time>2017-06-25T13:37:43Z</time>
      </trkpt>
      <trkpt lat="69.216981986537576" lon="19.622343024238944">
        <ele>24.649999999999999</ele>
        <time>2017-06-25T13:37:51Z</time>
      </trkpt>
      <trkpt lat="69.215852022171021" lon="19.626400033012033">
        <ele>30.899999999999999</ele>
        <time>2017-06-25T13:38:01Z</time>
      </trkpt>
      <trkpt lat="69.215513980016112" lon="19.629871984943748">
        <ele>30.899999999999999</ele>
        <time>2017-06-25T13:38:08Z</time>
      </trkpt>
      <trkpt lat="69.215161018073559" lon="19.632896007969975">
        <ele>30.899999999999999</ele>
        <time>2017-06-25T13:38:14Z</time>
      </trkpt>
      <trkpt lat="69.215064039453864" lon="19.633350977674127">
        <ele>31.379999999999999</ele>
        <time>2017-06-25T13:38:15Z</time>
      </trkpt>
      <trkpt lat="69.213951006531715" lon="19.637105986475945">
        <ele>33.299999999999997</ele>
        <time>2017-06-25T13:38:24Z</time>
      </trkpt>
      <trkpt lat="69.212630018591881" lon="19.64107196778059">
        <ele>34.740000000000002</ele>
        <time>2017-06-25T13:38:34Z</time>
      </trkpt>
      <trkpt lat="69.212474031373858" lon="19.641342032700777">
        <ele>34.740000000000002</ele>
        <time>2017-06-25T13:38:35Z</time>
      </trkpt>
      <trkpt lat="69.212308991700411" lon="19.641547976061702">
        <ele>35.229999999999997</ele>
        <time>2017-06-25T13:38:36Z</time>
      </trkpt>
      <trkpt lat="69.21213598921895" lon="19.641689965501428">
        <ele>35.710000000000001</ele>
        <time>2017-06-25T13:38:37Z</time>
      </trkpt>
      <trkpt lat="69.211956029757857" lon="19.641780992969871">
        <ele>36.670000000000002</ele>
        <time>2017-06-25T13:38:38Z</time>
      </trkpt>
      <trkpt lat="69.2117690294981" lon="19.641847964376211">
        <ele>37.149999999999999</ele>
        <time>2017-06-25T13:38:39Z</time>
      </trkpt>
      <trkpt lat="69.210199015215039" lon="19.642784977331758">
        <ele>39.549999999999997</ele>
        <time>2017-06-25T13:38:47Z</time>
      </trkpt>
      <trkpt lat="69.208655990660191" lon="19.645187985152006">
        <ele>37.630000000000003</ele>
        <time>2017-06-25T13:38:56Z</time>
      </trkpt>
      <trkpt lat="69.208527998998761" lon="19.645576989278197">
        <ele>37.149999999999999</ele>
        <time>2017-06-25T13:38:57Z</time>
      </trkpt>
      <trkpt lat="69.208416016772389" lon="19.646014021709561">
        <ele>37.149999999999999</ele>
        <time>2017-06-25T13:38:58Z</time>
      </trkpt>
      <trkpt lat="69.208321971818805" lon="19.646466979756951">
        <ele>36.670000000000002</ele>
        <time>2017-06-25T13:38:59Z</time>
      </trkpt>
      <trkpt lat="69.20824502594769" lon="19.646939970552921">
        <ele>36.670000000000002</ele>
        <time>2017-06-25T13:39:00Z</time>
      </trkpt>
      <trkpt lat="69.20818199403584" lon="19.647427964955568">
        <ele>36.670000000000002</ele>
        <time>2017-06-25T13:39:01Z</time>
      </trkpt>
      <trkpt lat="69.208121979609132" lon="19.647926017642021">
        <ele>36.670000000000002</ele>
        <time>2017-06-25T13:39:02Z</time>
      </trkpt>
      <trkpt lat="69.207905977964401" lon="19.649400981143117">
        <ele>37.630000000000003</ele>
        <time>2017-06-25T13:39:05Z</time>
      </trkpt>
      <trkpt lat="69.207808999344707" lon="19.649838013574481">
        <ele>38.109999999999999</ele>
        <time>2017-06-25T13:39:06Z</time>
      </trkpt>
      <trkpt lat="69.207697017118335" lon="19.650245038792491">
        <ele>38.109999999999999</ele>
        <time>2017-06-25T13:39:07Z</time>
      </trkpt>
      <trkpt lat="69.207571959123015" lon="19.650648962706327">
        <ele>39.07</ele>
        <time>2017-06-25T13:39:08Z</time>
      </trkpt>
      <trkpt lat="69.207440027967095" lon="19.651044001802802">
        <ele>40.030000000000001</ele>
        <time>2017-06-25T13:39:09Z</time>
      </trkpt>
      <trkpt lat="69.206560011953115" lon="19.653935004025698">
        <ele>44.840000000000003</ele>
        <time>2017-06-25T13:39:16Z</time>
      </trkpt>
      <trkpt lat="69.206411987543106" lon="19.654311016201973">
        <ele>45.32</ele>
        <time>2017-06-25T13:39:17Z</time>
      </trkpt>
      <trkpt lat="69.204966025426984" lon="19.657576018944383">
        <ele>51.090000000000003</ele>
        <time>2017-06-25T13:39:26Z</time>
      </trkpt>
      <trkpt lat="69.203919041901827" lon="19.659118037670851">
        <ele>58.780000000000001</ele>
        <time>2017-06-25T13:39:32Z</time>
      </trkpt>
      <trkpt lat="69.203732963651419" lon="19.659205041825771">
        <ele>59.740000000000002</ele>
        <time>2017-06-25T13:39:33Z</time>
      </trkpt>
      <trkpt lat="69.203555015847087" lon="19.659208981320262">
        <ele>61.659999999999997</ele>
        <time>2017-06-25T13:39:34Z</time>
      </trkpt>
      <trkpt lat="69.203376984223723" lon="19.659142009913921">
        <ele>61.18</ele>
        <time>2017-06-25T13:39:35Z</time>
      </trkpt>
      <trkpt lat="69.203201970085502" lon="19.659046959131956">
        <ele>62.140000000000001</ele>
        <time>2017-06-25T13:39:36Z</time>
      </trkpt>
      <trkpt lat="69.202846996486187" lon="19.658896001055837">
        <ele>64.069999999999993</ele>
        <time>2017-06-25T13:39:38Z</time>
      </trkpt>
      <trkpt lat="69.202672988176346" lon="19.658885020762682">
        <ele>65.030000000000001</ele>
        <time>2017-06-25T13:39:39Z</time>
      </trkpt>
      <trkpt lat="69.202500991523266" lon="19.658932965248823">
        <ele>65.989999999999995</ele>
        <time>2017-06-25T13:39:40Z</time>
      </trkpt>
      <trkpt lat="69.202330000698566" lon="19.659044025465846">
        <ele>66.469999999999999</ele>
        <time>2017-06-25T13:39:41Z</time>
      </trkpt>
      <trkpt lat="69.202159009873867" lon="19.659219039604068">
        <ele>66.950000000000003</ele>
        <time>2017-06-25T13:39:42Z</time>
      </trkpt>
      <trkpt lat="69.201987013220787" lon="19.659449961036444">
        <ele>66.950000000000003</ele>
        <time>2017-06-25T13:39:43Z</time>
      </trkpt>
      <trkpt lat="69.201816022396088" lon="19.659736035391688">
        <ele>66.950000000000003</ele>
        <time>2017-06-25T13:39:44Z</time>
      </trkpt>
      <trkpt lat="69.199732029810548" lon="19.663367997854948">
        <ele>68.870000000000005</ele>
        <time>2017-06-25T13:39:55Z</time>
      </trkpt>
      <trkpt lat="69.195773005485535" lon="19.670378034934402">
        <ele>71.760000000000005</ele>
        <time>2017-06-25T13:40:15Z</time>
      </trkpt>
      <trkpt lat="69.1934849973768" lon="19.674924965947866">
        <ele>71.269999999999996</ele>
        <time>2017-06-25T13:40:28Z</time>
      </trkpt>
      <trkpt lat="69.191430006176233" lon="19.680720968171954">
        <ele>71.760000000000005</ele>
        <time>2017-06-25T13:40:42Z</time>
      </trkpt>
      <trkpt lat="69.191343002021313" lon="19.681128999218345">
        <ele>71.760000000000005</ele>
        <time>2017-06-25T13:40:43Z</time>
      </trkpt>
      <trkpt lat="69.191268989816308" lon="19.681580029428005">
        <ele>71.760000000000005</ele>
        <time>2017-06-25T13:40:44Z</time>
      </trkpt>
      <trkpt lat="69.191206963732839" lon="19.68206400051713">
        <ele>72.239999999999995</ele>
        <time>2017-06-25T13:40:45Z</time>
      </trkpt>
      <trkpt lat="69.191156001761556" lon="19.682584013789892">
        <ele>72.239999999999995</ele>
        <time>2017-06-25T13:40:46Z</time>
      </trkpt>
      <trkpt lat="69.190616039559245" lon="19.688559975475073">
        <ele>76.560000000000002</ele>
        <time>2017-06-25T13:40:56Z</time>
      </trkpt>
      <trkpt lat="69.189930986613035" lon="19.696146016940475">
        <ele>77.519999999999996</ele>
        <time>2017-06-25T13:41:09Z</time>
      </trkpt>
      <trkpt lat="69.189895028248429" lon="19.697179002687335">
        <ele>75.599999999999994</ele>
        <time>2017-06-25T13:41:11Z</time>
      </trkpt>
      <trkpt lat="69.189913971349597" lon="19.697695998474956">
        <ele>77.519999999999996</ele>
        <time>2017-06-25T13:41:12Z</time>
      </trkpt>
      <trkpt lat="69.189955964684486" lon="19.698195978999138">
        <ele>78.969999999999999</ele>
        <time>2017-06-25T13:41:13Z</time>
      </trkpt>
      <trkpt lat="69.190018996596336" lon="19.698685985058546">
        <ele>79.450000000000003</ele>
        <time>2017-06-25T13:41:14Z</time>
      </trkpt>
      <trkpt lat="69.190104994922876" lon="19.699200969189405">
        <ele>84.25</ele>
        <time>2017-06-25T13:41:15Z</time>
      </trkpt>
      <trkpt lat="69.190199039876461" lon="19.699701033532619">
        <ele>85.209999999999994</ele>
        <time>2017-06-25T13:41:16Z</time>
      </trkpt>
      <trkpt lat="69.191271001473069" lon="19.705346999689937">
        <ele>86.659999999999997</ele>
        <time>2017-06-25T13:41:26Z</time>
      </trkpt>
      <trkpt lat="69.192374981939793" lon="19.712168024852872">
        <ele>86.659999999999997</ele>
        <time>2017-06-25T13:41:38Z</time>
      </trkpt>
      <trkpt lat="69.193057017400861" lon="19.71925500780344">
        <ele>86.180000000000007</ele>
        <time>2017-06-25T13:41:50Z</time>
      </trkpt>
      <trkpt lat="69.194154040887952" lon="19.72467097453773">
        <ele>87.140000000000001</ele>
        <time>2017-06-25T13:42:00Z</time>
      </trkpt>
      <trkpt lat="69.194686040282249" lon="19.72873100079596">
        <ele>86.180000000000007</ele>
        <time>2017-06-25T13:42:07Z</time>
      </trkpt>
      <trkpt lat="69.195359023287892" lon="19.734491966664791">
        <ele>87.620000000000005</ele>
        <time>2017-06-25T13:42:17Z</time>
      </trkpt>
      <trkpt lat="69.196135019883513" lon="19.7396220266819">
        <ele>90.980000000000004</ele>
        <time>2017-06-25T13:42:26Z</time>
      </trkpt>
      <trkpt lat="69.196594012901187" lon="19.745105970650911">
        <ele>95.310000000000002</ele>
        <time>2017-06-25T13:42:36Z</time>
      </trkpt>
      <trkpt lat="69.197209998965263" lon="19.753451999276876">
        <ele>93.870000000000005</ele>
        <time>2017-06-25T13:42:52Z</time>
      </trkpt>
      <trkpt lat="69.197780974209309" lon="19.759945040568709">
        <ele>93.390000000000001</ele>
        <time>2017-06-25T13:43:04Z</time>
      </trkpt>
      <trkpt lat="69.197867978364229" lon="19.760366985574365">
        <ele>92.420000000000002</ele>
        <time>2017-06-25T13:43:05Z</time>
      </trkpt>
      <trkpt lat="69.197968980297446" lon="19.760776022449136">
        <ele>91.939999999999998</ele>
        <time>2017-06-25T13:43:06Z</time>
      </trkpt>
      <trkpt lat="69.198082974180579" lon="19.76117399521172">
        <ele>91.939999999999998</ele>
        <time>2017-06-25T13:43:07Z</time>
      </trkpt>
      <trkpt lat="69.198208032175899" lon="19.761570040136576">
        <ele>91.939999999999998</ele>
        <time>2017-06-25T13:43:08Z</time>
      </trkpt>
      <trkpt lat="69.200051967054605" lon="19.766640001907945">
        <ele>92.420000000000002</ele>
        <time>2017-06-25T13:43:21Z</time>
      </trkpt>
      <trkpt lat="69.202005034312606" lon="19.771108981221914">
        <ele>91.459999999999994</ele>
        <time>2017-06-25T13:43:33Z</time>
      </trkpt>
      <trkpt lat="69.204040998592973" lon="19.774593003094196">
        <ele>92.420000000000002</ele>
        <time>2017-06-25T13:43:44Z</time>
      </trkpt>
      <trkpt lat="69.204388009384274" lon="19.775070017203689">
        <ele>91.939999999999998</ele>
        <time>2017-06-25T13:43:46Z</time>
      </trkpt>
      <trkpt lat="69.205615036189556" lon="19.776935996487737">
        <ele>92.420000000000002</ele>
        <time>2017-06-25T13:43:53Z</time>
      </trkpt>
      <trkpt lat="69.206881960853934" lon="19.779546959325671">
        <ele>90.5</ele>
        <time>2017-06-25T13:44:00Z</time>
      </trkpt>
      <trkpt lat="69.208978023380041" lon="19.783358965069056">
        <ele>94.829999999999998</ele>
        <time>2017-06-25T13:44:10Z</time>
      </trkpt>
      <trkpt lat="69.210417028516531" lon="19.785561980679631">
        <ele>94.829999999999998</ele>
        <time>2017-06-25T13:44:17Z</time>
      </trkpt>
      <trkpt lat="69.212191980332136" lon="19.788103038445115">
        <ele>95.790000000000006</ele>
        <time>2017-06-25T13:44:27Z</time>
      </trkpt>
      <trkpt lat="69.212333969771862" lon="19.788439990952611">
        <ele>94.829999999999998</ele>
        <time>2017-06-25T13:44:28Z</time>
      </trkpt>
      <trkpt lat="69.212467996403575" lon="19.788808040320873">
        <ele>95.310000000000002</ele>
        <time>2017-06-25T13:44:29Z</time>
      </trkpt>
      <trkpt lat="69.213482961058617" lon="19.792327014729381">
        <ele>92.420000000000002</ele>
        <time>2017-06-25T13:44:37Z</time>
      </trkpt>
      <trkpt lat="69.21499396674335" lon="19.796030977740884">
        <ele>89.060000000000002</ele>
        <time>2017-06-25T13:44:46Z</time>
      </trkpt>
      <trkpt lat="69.216905040666461" lon="19.800016991794109">
        <ele>86.180000000000007</ele>
        <time>2017-06-25T13:44:56Z</time>
      </trkpt>
      <trkpt lat="69.219717001542449" lon="19.805922964587808">
        <ele>84.730000000000004</ele>
        <time>2017-06-25T13:45:10Z</time>
      </trkpt>
      <trkpt lat="69.221210991963744" lon="19.809289975091815">
        <ele>84.730000000000004</ele>
        <time>2017-06-25T13:45:19Z</time>
      </trkpt>
      <trkpt lat="69.222739012911916" lon="19.811759032309055">
        <ele>83.769999999999996</ele>
        <time>2017-06-25T13:45:28Z</time>
      </trkpt>
      <trkpt lat="69.224599963054061" lon="19.815649995580316">
        <ele>82.810000000000002</ele>
        <time>2017-06-25T13:45:38Z</time>
      </trkpt>
      <trkpt lat="69.226204007863998" lon="19.818752976134419">
        <ele>84.25</ele>
        <time>2017-06-25T13:45:47Z</time>
      </trkpt>
      <trkpt lat="69.228409035131335" lon="19.823204018175602">
        <ele>83.769999999999996</ele>
        <time>2017-06-25T13:45:59Z</time>
      </trkpt>
      <trkpt lat="69.228715980425477" lon="19.823885969817638">
        <ele>82.329999999999998</ele>
        <time>2017-06-25T13:46:01Z</time>
      </trkpt>
      <trkpt lat="69.228886971250176" lon="19.824157962575555">
        <ele>82.329999999999998</ele>
        <time>2017-06-25T13:46:02Z</time>
      </trkpt>
      <trkpt lat="69.229070032015443" lon="19.824388967826962">
        <ele>81.849999999999994</ele>
        <time>2017-06-25T13:46:03Z</time>
      </trkpt>
      <trkpt lat="69.230795027688146" lon="19.826664989814162">
        <ele>77.040000000000006</ele>
        <time>2017-06-25T13:46:12Z</time>
      </trkpt>
      <trkpt lat="69.231544034555554" lon="19.828397026285529">
        <ele>75.120000000000005</ele>
        <time>2017-06-25T13:46:17Z</time>
      </trkpt>
      <trkpt lat="69.231701027601957" lon="19.828589977696538">
        <ele>74.640000000000001</ele>
        <time>2017-06-25T13:46:18Z</time>
      </trkpt>
      <trkpt lat="69.231869000941515" lon="19.828687040135264">
        <ele>74.159999999999997</ele>
        <time>2017-06-25T13:46:19Z</time>
      </trkpt>
      <trkpt lat="69.232046026736498" lon="19.828695002943277">
        <ele>73.680000000000007</ele>
        <time>2017-06-25T13:46:20Z</time>
      </trkpt>
      <trkpt lat="69.232230009511113" lon="19.828644962981343">
        <ele>73.200000000000003</ele>
        <time>2017-06-25T13:46:21Z</time>
      </trkpt>
      <trkpt lat="69.232419021427631" lon="19.82857103459537">
        <ele>73.200000000000003</ele>
        <time>2017-06-25T13:46:22Z</time>
      </trkpt>
      <trkpt lat="69.233009023591876" lon="19.828515965491533">
        <ele>72.239999999999995</ele>
        <time>2017-06-25T13:46:25Z</time>
      </trkpt>
      <trkpt lat="69.234217023476958" lon="19.829365974292159">
        <ele>75.120000000000005</ele>
        <time>2017-06-25T13:46:31Z</time>
      </trkpt>
      <trkpt lat="69.234395977109671" lon="19.82964500784874">
        <ele>75.599999999999994</ele>
        <time>2017-06-25T13:46:32Z</time>
      </trkpt>
      <trkpt lat="69.234569985419512" lon="19.829955976456404">
        <ele>75.599999999999994</ele>
        <time>2017-06-25T13:46:33Z</time>
      </trkpt>
      <trkpt lat="69.23473896458745" lon="19.83031396754086">
        <ele>75.120000000000005</ele>
        <time>2017-06-25T13:46:34Z</time>
      </trkpt>
      <trkpt lat="69.234899980947375" lon="19.83070096001029">
        <ele>75.120000000000005</ele>
        <time>2017-06-25T13:46:35Z</time>
      </trkpt>
      <trkpt lat="69.235055968165398" lon="19.831127012148499">
        <ele>74.640000000000001</ele>
        <time>2017-06-25T13:46:36Z</time>
      </trkpt>
      <trkpt lat="69.235203992575407" lon="19.831587010994554">
        <ele>73.680000000000007</ele>
        <time>2017-06-25T13:46:37Z</time>
      </trkpt>
      <trkpt lat="69.237527037039399" lon="19.839395005255938">
        <ele>61.18</ele>
        <time>2017-06-25T13:46:53Z</time>
      </trkpt>
      <trkpt lat="69.238724978640676" lon="19.842410981655121">
        <ele>54.93</ele>
        <time>2017-06-25T13:47:00Z</time>
      </trkpt>
      <trkpt lat="69.239115994423628" lon="19.842910040169954">
        <ele>53.009999999999998</ele>
        <time>2017-06-25T13:47:02Z</time>
      </trkpt>
      <trkpt lat="69.23931104131043" lon="19.843069966882467">
        <ele>52.530000000000001</ele>
        <time>2017-06-25T13:47:03Z</time>
      </trkpt>
      <trkpt lat="69.241158999502659" lon="19.844351978972554">
        <ele>48.68</ele>
        <time>2017-06-25T13:47:13Z</time>
      </trkpt>
      <trkpt lat="69.241319010034204" lon="19.844602011144161">
        <ele>48.200000000000003</ele>
        <time>2017-06-25T13:47:14Z</time>
      </trkpt>
      <trkpt lat="69.241468962281942" lon="19.844901999458671">
        <ele>47.719999999999999</ele>
        <time>2017-06-25T13:47:15Z</time>
      </trkpt>
      <trkpt lat="69.241886967793107" lon="19.845732981339097">
        <ele>47.719999999999999</ele>
        <time>2017-06-25T13:47:18Z</time>
      </trkpt>
      <trkpt lat="69.242030968889594" lon="19.845882011577487">
        <ele>47.719999999999999</ele>
        <time>2017-06-25T13:47:19Z</time>
      </trkpt>
      <trkpt lat="69.242177987471223" lon="19.845978990197182">
        <ele>47.240000000000002</ele>
        <time>2017-06-25T13:47:20Z</time>
      </trkpt>
      <trkpt lat="69.242486022412777" lon="19.84618803486228">
        <ele>46.759999999999998</ele>
        <time>2017-06-25T13:47:22Z</time>
      </trkpt>
      <trkpt lat="69.24264301545918" lon="19.846356008201838">
        <ele>45.799999999999997</ele>
        <time>2017-06-25T13:47:23Z</time>
      </trkpt>
      <trkpt lat="69.242796991020441" lon="19.846577038988471">
        <ele>44.840000000000003</ele>
        <time>2017-06-25T13:47:24Z</time>
      </trkpt>
      <trkpt lat="69.24294400960207" lon="19.846865963190794">
        <ele>44.359999999999999</ele>
        <time>2017-06-25T13:47:25Z</time>
      </trkpt>
      <trkpt lat="69.243081975728273" lon="19.84722001478076">
        <ele>43.880000000000003</ele>
        <time>2017-06-25T13:47:26Z</time>
      </trkpt>
      <trkpt lat="69.243214996531606" lon="19.847606001421809">
        <ele>43.399999999999999</ele>
        <time>2017-06-25T13:47:27Z</time>
      </trkpt>
      <trkpt lat="69.243501992896199" lon="19.848383003845811">
        <ele>44.359999999999999</ele>
        <time>2017-06-25T13:47:29Z</time>
      </trkpt>
      <trkpt lat="69.243665020912886" lon="19.848729008808732">
        <ele>44.359999999999999</ele>
        <time>2017-06-25T13:47:30Z</time>
      </trkpt>
      <trkpt lat="69.245296977460384" lon="19.851765017956495">
        <ele>40.990000000000002</ele>
        <time>2017-06-25T13:47:39Z</time>
      </trkpt>
      <trkpt lat="69.247253984212875" lon="19.854211024940014">
        <ele>32.82</ele>
        <time>2017-06-25T13:47:49Z</time>
      </trkpt>
      <trkpt lat="69.248043978586793" lon="19.85506203956902">
        <ele>32.82</ele>
        <time>2017-06-25T13:47:54Z</time>
      </trkpt>
      <trkpt lat="69.248164007440209" lon="19.855283992365003">
        <ele>32.340000000000003</ele>
        <time>2017-06-25T13:47:55Z</time>
      </trkpt>
      <trkpt lat="69.248272972181439" lon="19.855566965416074">
        <ele>31.859999999999999</ele>
        <time>2017-06-25T13:47:56Z</time>
      </trkpt>
      <trkpt lat="69.248371962457895" lon="19.855908025056124">
        <ele>31.859999999999999</ele>
        <time>2017-06-25T13:47:57Z</time>
      </trkpt>
      <trkpt lat="69.248460978269577" lon="19.856294011697173">
        <ele>30.899999999999999</ele>
        <time>2017-06-25T13:47:58Z</time>
      </trkpt>
      <trkpt lat="69.248549994081259" lon="19.85671897418797">
        <ele>30.420000000000002</ele>
        <time>2017-06-25T13:47:59Z</time>
      </trkpt>
      <trkpt lat="69.249594965949655" lon="19.861398003995419">
        <ele>29.460000000000001</ele>
        <time>2017-06-25T13:48:09Z</time>
      </trkpt>
      <trkpt lat="69.250781005248427" lon="19.865079000592232">
        <ele>29.940000000000001</ele>
        <time>2017-06-25T13:48:18Z</time>
      </trkpt>
      <trkpt lat="69.251558007672429" lon="19.869481008499861">
        <ele>28.5</ele>
        <time>2017-06-25T13:48:27Z</time>
      </trkpt>
      <trkpt lat="69.251810973510146" lon="19.870577026158571">
        <ele>27.530000000000001</ele>
        <time>2017-06-25T13:48:30Z</time>
      </trkpt>
      <trkpt lat="69.251915998756886" lon="19.870897969231009">
        <ele>28.02</ele>
        <time>2017-06-25T13:48:31Z</time>
      </trkpt>
      <trkpt lat="69.252726025879383" lon="19.873731974512339">
        <ele>27.530000000000001</ele>
        <time>2017-06-25T13:48:39Z</time>
      </trkpt>
      <trkpt lat="69.253222988918424" lon="19.877008041366935">
        <ele>27.050000000000001</ele>
        <time>2017-06-25T13:48:47Z</time>
      </trkpt>
      <trkpt lat="69.253954980522394" lon="19.879978001117706">
        <ele>25.129999999999999</ele>
        <time>2017-06-25T13:48:56Z</time>
      </trkpt>
      <trkpt lat="69.255029037594795" lon="19.882424008101225">
        <ele>22.25</ele>
        <time>2017-06-25T13:49:06Z</time>
      </trkpt>
      <trkpt lat="69.255897989496589" lon="19.885401008650661">
        <ele>19.84</ele>
        <time>2017-06-25T13:49:16Z</time>
      </trkpt>
      <trkpt lat="69.25710498355329" lon="19.887954974547029">
        <ele>16.960000000000001</ele>
        <time>2017-06-25T13:49:26Z</time>
      </trkpt>
      <trkpt lat="69.258310971781611" lon="19.891388034448028">
        <ele>14.56</ele>
        <time>2017-06-25T13:49:36Z</time>
      </trkpt>
      <trkpt lat="69.25914203748107" lon="19.893938982859254">
        <ele>8.310000000000001</ele>
        <time>2017-06-25T13:49:44Z</time>
      </trkpt>
      <trkpt lat="69.259688034653664" lon="19.897166015580297">
        <ele>1.58</ele>
        <time>2017-06-25T13:49:52Z</time>
      </trkpt>
      <trkpt lat="69.2597880307585" lon="19.897516965866089">
        <ele>1.1</ele>
        <time>2017-06-25T13:49:53Z</time>
      </trkpt>
      <trkpt lat="69.259904036298394" lon="19.897841010242701">
        <ele>0.62</ele>
        <time>2017-06-25T13:49:54Z</time>
      </trkpt>
      <trkpt lat="69.260029010474682" lon="19.8981639649719">
        <ele>0.14</ele>
        <time>2017-06-25T13:49:55Z</time>
      </trkpt>
      <trkpt lat="69.260164964944124" lon="19.898467976599932">
        <ele>0.14</ele>
        <time>2017-06-25T13:49:56Z</time>
      </trkpt>
      <trkpt lat="69.260306032374501" lon="19.89876301959157">
        <ele>0.14</ele>
        <time>2017-06-25T13:49:57Z</time>
      </trkpt>
      <trkpt lat="69.261605981737375" lon="19.901572968810797">
        <ele>6.39</ele>
        <time>2017-06-25T13:50:06Z</time>
      </trkpt>
      <trkpt lat="69.261704972013831" lon="19.901953004300594">
        <ele>6.87</ele>
        <time>2017-06-25T13:50:07Z</time>
      </trkpt>
      <trkpt lat="69.261783007532358" lon="19.902370003983378">
        <ele>7.83</ele>
        <time>2017-06-25T13:50:08Z</time>
      </trkpt>
      <trkpt lat="69.261840004473925" lon="19.902806030586362">
        <ele>7.83</ele>
        <time>2017-06-25T13:50:09Z</time>
      </trkpt>
      <trkpt lat="69.26187202334404" lon="19.903270974755287">
        <ele>7.35</ele>
        <time>2017-06-25T13:50:10Z</time>
      </trkpt>
      <trkpt lat="69.261885015293956" lon="19.903755029663444">
        <ele>7.83</ele>
        <time>2017-06-25T13:50:11Z</time>
      </trkpt>
      <trkpt lat="69.261876968666911" lon="19.904252998530865">
        <ele>7.83</ele>
        <time>2017-06-25T13:50:12Z</time>
      </trkpt>
      <trkpt lat="69.261860037222505" lon="19.904760019853711">
        <ele>7.83</ele>
        <time>2017-06-25T13:50:13Z</time>
      </trkpt>
      <trkpt lat="69.261518977582455" lon="19.911464033648372">
        <ele>6.87</ele>
        <time>2017-06-25T13:50:25Z</time>
      </trkpt>
      <trkpt lat="69.261169033125043" lon="19.918802976608276">
        <ele>6.87</ele>
        <time>2017-06-25T13:50:38Z</time>
      </trkpt>
      <trkpt lat="69.261155035346746" lon="19.919765973463655">
        <ele>6.39</ele>
        <time>2017-06-25T13:50:40Z</time>
      </trkpt>
      <trkpt lat="69.261172972619534" lon="19.920229995623231">
        <ele>6.39</ele>
        <time>2017-06-25T13:50:41Z</time>
      </trkpt>
      <trkpt lat="69.261219995096326" lon="19.920673985034227">
        <ele>5.91</ele>
        <time>2017-06-25T13:50:42Z</time>
      </trkpt>
      <trkpt lat="69.261285038664937" lon="19.921100959181786">
        <ele>5.91</ele>
        <time>2017-06-25T13:50:43Z</time>
      </trkpt>
      <trkpt lat="69.261375982314348" lon="19.921506978571415">
        <ele>5.42</ele>
        <time>2017-06-25T13:50:44Z</time>
      </trkpt>
      <trkpt lat="69.261481007561088" lon="19.921910986304283">
        <ele>5.42</ele>
        <time>2017-06-25T13:50:45Z</time>
      </trkpt>
      <trkpt lat="69.261601958423853" lon="19.9222900159657">
        <ele>4.94</ele>
        <time>2017-06-25T13:50:46Z</time>
      </trkpt>
      <trkpt lat="69.261731039732695" lon="19.922670973464847">
        <ele>4.94</ele>
        <time>2017-06-25T13:50:47Z</time>
      </trkpt>
      <trkpt lat="69.263289989903569" lon="19.926305031403899">
        <ele>2.06</ele>
        <time>2017-06-25T13:50:57Z</time>
      </trkpt>
      <trkpt lat="69.26462396979332" lon="19.928630003705621">
        <ele>2.54</ele>
        <time>2017-06-25T13:51:06Z</time>
      </trkpt>
      <trkpt lat="69.265731973573565" lon="19.929719986394048">
        <ele>4.94</ele>
        <time>2017-06-25T13:51:14Z</time>
      </trkpt>
      <trkpt lat="69.266304960474372" lon="19.930621040984988">
        <ele>3.98</ele>
        <time>2017-06-25T13:51:21Z</time>
      </trkpt>
      <trkpt lat="69.266365980729461" lon="19.930751966312528">
        <ele>3.98</ele>
        <time>2017-06-25T13:51:22Z</time>
      </trkpt>
      <trkpt lat="69.266413003206253" lon="19.93090501986444">
        <ele>3.5</ele>
        <time>2017-06-25T13:51:23Z</time>
      </trkpt>
      <trkpt lat="69.266445022076368" lon="19.931078022345901">
        <ele>3.5</ele>
        <time>2017-06-25T13:51:24Z</time>
      </trkpt>
      <trkpt lat="69.266463965177536" lon="19.931268040090799">
        <ele>3.98</ele>
        <time>2017-06-25T13:51:25Z</time>
      </trkpt>
      <trkpt lat="69.266467988491058" lon="19.93148404173553">
        <ele>4.46</ele>
        <time>2017-06-25T13:51:26Z</time>
      </trkpt>
      <trkpt lat="69.266451979056001" lon="19.931704988703132">
        <ele>4.94</ele>
        <time>2017-06-25T13:51:27Z</time>
      </trkpt>
      <trkpt lat="69.266425995156169" lon="19.931942028924823">
        <ele>5.91</ele>
        <time>2017-06-25T13:51:28Z</time>
      </trkpt>
      <trkpt lat="69.266399005427957" lon="19.932204969227314">
        <ele>6.39</ele>
        <time>2017-06-25T13:51:29Z</time>
      </trkpt>
      <trkpt lat="69.266382995992899" lon="19.932487020269036">
        <ele>7.35</ele>
        <time>2017-06-25T13:51:30Z</time>
      </trkpt>
      <trkpt lat="69.266379978507757" lon="19.932795977219939">
        <ele>7.83</ele>
        <time>2017-06-25T13:51:31Z</time>
      </trkpt>
      <trkpt lat="69.266392970457673" lon="19.933110969141126">
        <ele>8.789999999999999</ele>
        <time>2017-06-25T13:51:32Z</time>
      </trkpt>
      <trkpt lat="69.266421971842647" lon="19.933430990204215">
        <ele>10.23</ele>
        <time>2017-06-25T13:51:33Z</time>
      </trkpt>
      <trkpt lat="69.266461031511426" lon="19.933753022924066">
        <ele>11.19</ele>
        <time>2017-06-25T13:51:34Z</time>
      </trkpt>
      <trkpt lat="69.266505036503077" lon="19.934076983481646">
        <ele>12.15</ele>
        <time>2017-06-25T13:51:35Z</time>
      </trkpt>
      <trkpt lat="69.267023038119078" lon="19.936612006276846">
        <ele>16.960000000000001</ele>
        <time>2017-06-25T13:51:43Z</time>
      </trkpt>
      <trkpt lat="69.267068970948458" lon="19.936957005411386">
        <ele>17.440000000000001</ele>
        <time>2017-06-25T13:51:44Z</time>
      </trkpt>
      <trkpt lat="69.267104007303715" lon="19.93730996735394">
        <ele>17.920000000000002</ele>
        <time>2017-06-25T13:51:45Z</time>
      </trkpt>
      <trkpt lat="69.267112975940108" lon="19.937684973701835">
        <ele>18.879999999999999</ele>
        <time>2017-06-25T13:51:46Z</time>
      </trkpt>
      <trkpt lat="69.267111970111728" lon="19.938056040555239">
        <ele>19.359999999999999</ele>
        <time>2017-06-25T13:51:47Z</time>
      </trkpt>
      <trkpt lat="69.267095038667321" lon="19.938450995832682">
        <ele>20.32</ele>
        <time>2017-06-25T13:51:48Z</time>
      </trkpt>
      <trkpt lat="69.266902003437281" lon="19.943443005904555">
        <ele>22.73</ele>
        <time>2017-06-25T13:51:59Z</time>
      </trkpt>
      <trkpt lat="69.266702011227608" lon="19.948900965973735">
        <ele>23.690000000000001</ele>
        <time>2017-06-25T13:52:11Z</time>
      </trkpt>
      <trkpt lat="69.266511993482709" lon="19.952604006975889">
        <ele>22.25</ele>
        <time>2017-06-25T13:52:21Z</time>
      </trkpt>
      <trkpt lat="69.265975970774889" lon="19.956807028502226">
        <ele>18.879999999999999</ele>
        <time>2017-06-25T13:52:33Z</time>
      </trkpt>
      <trkpt lat="69.265887960791588" lon="19.957087989896536">
        <ele>18.879999999999999</ele>
        <time>2017-06-25T13:52:34Z</time>
      </trkpt>
      <trkpt lat="69.265787964686751" lon="19.957350008189678">
        <ele>18.879999999999999</ele>
        <time>2017-06-25T13:52:35Z</time>
      </trkpt>
      <trkpt lat="69.2646440025419" lon="19.960150988772511">
        <ele>20.32</ele>
        <time>2017-06-25T13:52:46Z</time>
      </trkpt>
      <trkpt lat="69.264263967052102" lon="19.961646990850568">
        <ele>20.809999999999999</ele>
        <time>2017-06-25T13:52:51Z</time>
      </trkpt>
      <trkpt lat="69.264213005080819" lon="19.96197396889329">
        <ele>20.809999999999999</ele>
        <time>2017-06-25T13:52:52Z</time>
      </trkpt>
      <trkpt lat="69.264175035059452" lon="19.962302036583424">
        <ele>20.809999999999999</ele>
        <time>2017-06-25T13:52:53Z</time>
      </trkpt>
      <trkpt lat="69.264149973168969" lon="19.9626399949193">
        <ele>20.32</ele>
        <time>2017-06-25T13:52:54Z</time>
      </trkpt>
      <trkpt lat="69.264141004532576" lon="19.962968984618783">
        <ele>20.32</ele>
        <time>2017-06-25T13:52:55Z</time>
      </trkpt>
      <trkpt lat="69.264146033674479" lon="19.963311972096562">
        <ele>20.32</ele>
        <time>2017-06-25T13:52:56Z</time>
      </trkpt>
      <trkpt lat="69.26417101174593" lon="19.963623024523258">
        <ele>19.84</ele>
        <time>2017-06-25T13:52:57Z</time>
      </trkpt>
      <trkpt lat="69.264204958453774" lon="19.963931981474161">
        <ele>19.84</ele>
        <time>2017-06-25T13:52:58Z</time>
      </trkpt>
      <trkpt lat="69.264254998415709" lon="19.964215960353613">
        <ele>19.359999999999999</ele>
        <time>2017-06-25T13:52:59Z</time>
      </trkpt>
      <trkpt lat="69.264316018670797" lon="19.964483007788658">
        <ele>19.359999999999999</ele>
        <time>2017-06-25T13:53:00Z</time>
      </trkpt>
      <trkpt lat="69.264389025047421" lon="19.964733961969614">
        <ele>19.359999999999999</ele>
        <time>2017-06-25T13:53:01Z</time>
      </trkpt>
      <trkpt lat="69.264478040859103" lon="19.964951975271106">
        <ele>19.359999999999999</ele>
        <time>2017-06-25T13:53:02Z</time>
      </trkpt>
      <trkpt lat="69.264579964801669" lon="19.965144004672766">
        <ele>19.359999999999999</ele>
        <time>2017-06-25T13:53:03Z</time>
      </trkpt>
      <trkpt lat="69.264692030847073" lon="19.965317007154226">
        <ele>18.879999999999999</ele>
        <time>2017-06-25T13:53:04Z</time>
      </trkpt>
      <trkpt lat="69.26481599919498" lon="19.96545203961432">
        <ele>18.879999999999999</ele>
        <time>2017-06-25T13:53:05Z</time>
      </trkpt>
      <trkpt lat="69.264948014169931" lon="19.965553041547537">
        <ele>18.399999999999999</ele>
        <time>2017-06-25T13:53:06Z</time>
      </trkpt>
      <trkpt lat="69.265090003609657" lon="19.965620012953877">
        <ele>17.920000000000002</ele>
        <time>2017-06-25T13:53:07Z</time>
      </trkpt>
      <trkpt lat="69.265236016362906" lon="19.96566996909678">
        <ele>16.960000000000001</ele>
        <time>2017-06-25T13:53:08Z</time>
      </trkpt>
      <trkpt lat="69.265376999974251" lon="19.96566996909678">
        <ele>16.48</ele>
        <time>2017-06-25T13:53:09Z</time>
      </trkpt>
      <trkpt lat="69.265519995242357" lon="19.965639961883426">
        <ele>16</ele>
        <time>2017-06-25T13:53:10Z</time>
      </trkpt>
      <trkpt lat="69.267089003697038" lon="19.964468004181981">
        <ele>11.67</ele>
        <time>2017-06-25T13:53:21Z</time>
      </trkpt>
      <trkpt lat="69.267820995301008" lon="19.963367963209748">
        <ele>10.23</ele>
        <time>2017-06-25T13:53:29Z</time>
      </trkpt>
      <trkpt lat="69.267911016941071" lon="19.963196972385049">
        <ele>9.75</ele>
        <time>2017-06-25T13:53:31Z</time>
      </trkpt>
      <trkpt lat="69.267941024154425" lon="19.963096976280212">
        <ele>9.27</ele>
        <time>2017-06-25T13:53:32Z</time>
      </trkpt>
      <trkpt lat="69.267958039417863" lon="19.962984994053841">
        <ele>9.27</ele>
        <time>2017-06-25T13:53:33Z</time>
      </trkpt>
      <trkpt lat="69.267964996397495" lon="19.962866976857185">
        <ele>10.23</ele>
        <time>2017-06-25T13:53:34Z</time>
      </trkpt>
      <trkpt lat="69.267970025539398" lon="19.962754994630814">
        <ele>10.710000000000001</ele>
        <time>2017-06-25T13:53:35Z</time>
      </trkpt>
      <trkpt lat="69.268065998330712" lon="19.962305976077914">
        <ele>10.23</ele>
        <time>2017-06-25T13:53:45Z</time>
      </trkpt>
      <trkpt lat="69.268068009987473" lon="19.962287032976747">
        <ele>9.75</ele>
        <time>2017-06-25T13:54:11Z</time>
      </trkpt>
      <trkpt lat="69.268479980528355" lon="19.962328020483255">
        <ele>14.08</ele>
        <time>2017-06-25T13:57:34Z</time>
      </trkpt>
      <trkpt lat="69.269581027328968" lon="19.960665972903371">
        <ele>12.630000000000001</ele>
        <time>2017-06-25T13:57:44Z</time>
      </trkpt>
      <trkpt lat="69.2706189583987" lon="19.959672968834639">
        <ele>14.08</ele>
        <time>2017-06-25T13:57:54Z</time>
      </trkpt>
      <trkpt lat="69.270667992532253" lon="19.959616977721453">
        <ele>13.6</ele>
        <time>2017-06-25T13:57:55Z</time>
      </trkpt>
      <trkpt lat="69.270706968382001" lon="19.959554029628634">
        <ele>13.119999999999999</ele>
        <time>2017-06-25T13:57:56Z</time>
      </trkpt>
      <trkpt lat="69.270740998908877" lon="19.959473982453346">
        <ele>13.6</ele>
        <time>2017-06-25T13:57:57Z</time>
      </trkpt>
      <trkpt lat="69.270761031657457" lon="19.959322018548846">
        <ele>13.119999999999999</ele>
        <time>2017-06-25T13:57:58Z</time>
      </trkpt>
      <trkpt lat="69.270773017778993" lon="19.959114985540509">
        <ele>12.630000000000001</ele>
        <time>2017-06-25T13:57:59Z</time>
      </trkpt>
      <trkpt lat="69.270787015557289" lon="19.958870988339186">
        <ele>12.15</ele>
        <time>2017-06-25T13:58:00Z</time>
      </trkpt>
      <trkpt lat="69.27085499279201" lon="19.957947973161936">
        <ele>12.15</ele>
        <time>2017-06-25T13:58:03Z</time>
      </trkpt>
      <trkpt lat="69.271320020779967" lon="19.954815991222858">
        <ele>11.19</ele>
        <time>2017-06-25T13:58:12Z</time>
      </trkpt>
      <trkpt lat="69.271406019106507" lon="19.954511979594827">
        <ele>10.710000000000001</ele>
        <time>2017-06-25T13:58:13Z</time>
      </trkpt>
      <trkpt lat="69.271502997726202" lon="19.954226994886994">
        <ele>10.23</ele>
        <time>2017-06-25T13:58:14Z</time>
      </trkpt>
      <trkpt lat="69.272659029811621" lon="19.951389972120523">
        <ele>10.710000000000001</ele>
        <time>2017-06-25T13:58:24Z</time>
      </trkpt>
      <trkpt lat="69.2727430164814" lon="19.95103701017797">
        <ele>10.710000000000001</ele>
        <time>2017-06-25T13:58:25Z</time>
      </trkpt>
      <trkpt lat="69.272816022858024" lon="19.950645994395018">
        <ele>10.710000000000001</ele>
        <time>2017-06-25T13:58:26Z</time>
      </trkpt>
      <trkpt lat="69.272876037284732" lon="19.950238969177008">
        <ele>10.23</ele>
        <time>2017-06-25T13:58:27Z</time>
      </trkpt>
      <trkpt lat="69.272926999256015" lon="19.949832027778029">
        <ele>10.23</ele>
        <time>2017-06-25T13:58:28Z</time>
      </trkpt>
      <trkpt lat="69.273082986474037" lon="19.948733998462558">
        <ele>8.789999999999999</ele>
        <time>2017-06-25T13:58:31Z</time>
      </trkpt>
      <trkpt lat="69.2731539811939" lon="19.948411965742707">
        <ele>8.310000000000001</ele>
        <time>2017-06-25T13:58:32Z</time>
      </trkpt>
      <trkpt lat="69.273233022540808" lon="19.948123963549733">
        <ele>7.83</ele>
        <time>2017-06-25T13:58:33Z</time>
      </trkpt>
      <trkpt lat="69.2733249720186" lon="19.947860017418861">
        <ele>7.83</ele>
        <time>2017-06-25T13:58:34Z</time>
      </trkpt>
      <trkpt lat="69.273419016972184" lon="19.947619959712029">
        <ele>7.83</ele>
        <time>2017-06-25T13:58:35Z</time>
      </trkpt>
      <trkpt lat="69.273517001420259" lon="19.947418961673975">
        <ele>7.83</ele>
        <time>2017-06-25T13:58:36Z</time>
      </trkpt>
      <trkpt lat="69.273616997525096" lon="19.947254005819559">
        <ele>7.35</ele>
        <time>2017-06-25T13:58:37Z</time>
      </trkpt>
      <trkpt lat="69.273711964488029" lon="19.947119979187846">
        <ele>7.35</ele>
        <time>2017-06-25T13:58:38Z</time>
      </trkpt>
      <trkpt lat="69.273803997784853" lon="19.947025012224913">
        <ele>7.35</ele>
        <time>2017-06-25T13:58:39Z</time>
      </trkpt>
      <trkpt lat="69.273883961141109" lon="19.946957034990191">
        <ele>6.87</ele>
        <time>2017-06-25T13:58:40Z</time>
      </trkpt>
      <trkpt lat="69.273955961689353" lon="19.946910012513399">
        <ele>7.35</ele>
        <time>2017-06-25T13:58:41Z</time>
      </trkpt>
      <trkpt lat="69.274004995822906" lon="19.946915041655302">
        <ele>5.42</ele>
        <time>2017-06-25T13:58:42Z</time>
      </trkpt>
      <trkpt lat="69.274053024128079" lon="19.946937002241611">
        <ele>4.94</ele>
        <time>2017-06-25T13:58:43Z</time>
      </trkpt>
      <trkpt lat="69.27409702911973" lon="19.946992993354797">
        <ele>4.94</ele>
        <time>2017-06-25T13:58:44Z</time>
      </trkpt>
      <trkpt lat="69.274146985262632" lon="19.947118973359466">
        <ele>4.46</ele>
        <time>2017-06-25T13:58:45Z</time>
      </trkpt>
      <trkpt lat="69.274188978597522" lon="19.947305973619223">
        <ele>3.02</ele>
        <time>2017-06-25T13:58:46Z</time>
      </trkpt>
      <trkpt lat="69.27422602660954" lon="19.947538990527391">
        <ele>3.5</ele>
        <time>2017-06-25T13:58:47Z</time>
      </trkpt>
      <trkpt lat="69.274262990802526" lon="19.947798997163773">
        <ele>3.02</ele>
        <time>2017-06-25T13:58:48Z</time>
      </trkpt>
      <trkpt lat="69.274649983271956" lon="19.950246009975672">
        <ele>2.06</ele>
        <time>2017-06-25T13:58:55Z</time>
      </trkpt>
      <trkpt lat="69.275526981800795" lon="19.955262998118997">
        <ele>2.54</ele>
        <time>2017-06-25T13:59:06Z</time>
      </trkpt>
      <trkpt lat="69.276642026379704" lon="19.95950298383832">
        <ele>6.39</ele>
        <time>2017-06-25T13:59:16Z</time>
      </trkpt>
      <trkpt lat="69.277794035151601" lon="19.961152039468288">
        <ele>11.19</ele>
        <time>2017-06-25T13:59:23Z</time>
      </trkpt>
      <trkpt lat="69.279120974242687" lon="19.961411040276289">
        <ele>14.08</ele>
        <time>2017-06-25T13:59:30Z</time>
      </trkpt>
      <trkpt lat="69.282316993921995" lon="19.960596989840269">
        <ele>11.19</ele>
        <time>2017-06-25T13:59:46Z</time>
      </trkpt>
      <trkpt lat="69.285083021968603" lon="19.960203040391207">
        <ele>7.83</ele>
        <time>2017-06-25T14:00:00Z</time>
      </trkpt>
      <trkpt lat="69.286926034837961" lon="19.960107989609241">
        <ele>-0.34</ele>
        <time>2017-06-25T14:00:09Z</time>
      </trkpt>
      <trkpt lat="69.288791008293629" lon="19.961560992524028">
        <ele>-0.82</ele>
        <time>2017-06-25T14:00:18Z</time>
      </trkpt>
      <trkpt lat="69.291089996695518" lon="19.963623024523258">
        <ele>-1.79</ele>
        <time>2017-06-25T14:00:29Z</time>
      </trkpt>
      <trkpt lat="69.293843032792211" lon="19.965680027380586">
        <ele>-0.82</ele>
        <time>2017-06-25T14:00:42Z</time>
      </trkpt>
      <trkpt lat="69.295436013489962" lon="19.967705011367798">
        <ele>1.1</ele>
        <time>2017-06-25T14:00:50Z</time>
      </trkpt>
      <trkpt lat="69.296775022521615" lon="19.970677988603711">
        <ele>2.06</ele>
        <time>2017-06-25T14:00:58Z</time>
      </trkpt>
      <trkpt lat="69.296891028061509" lon="19.971161959692836">
        <ele>1.58</ele>
        <time>2017-06-25T14:00:59Z</time>
      </trkpt>
      <trkpt lat="69.296995969489217" lon="19.971679039299488">
        <ele>1.58</ele>
        <time>2017-06-25T14:01:00Z</time>
      </trkpt>
      <trkpt lat="69.297782024368644" lon="19.976200992241502">
        <ele>1.58</ele>
        <time>2017-06-25T14:01:08Z</time>
      </trkpt>
      <trkpt lat="69.298953982070088" lon="19.980613980442286">
        <ele>3.98</ele>
        <time>2017-06-25T14:01:17Z</time>
      </trkpt>
      <trkpt lat="69.30020104162395" lon="19.983861967921257">
        <ele>5.91</ele>
        <time>2017-06-25T14:01:25Z</time>
      </trkpt>
      <trkpt lat="69.301377022638917" lon="19.986565969884396">
        <ele>5.91</ele>
        <time>2017-06-25T14:01:32Z</time>
      </trkpt>
      <trkpt lat="69.304084964096546" lon="19.99054703861475">
        <ele>8.789999999999999</ele>
        <time>2017-06-25T14:01:46Z</time>
      </trkpt>
      <trkpt lat="69.305439982563257" lon="19.993350030854344">
        <ele>6.87</ele>
        <time>2017-06-25T14:01:54Z</time>
      </trkpt>
      <trkpt lat="69.307045033201575" lon="19.995117019861937">
        <ele>6.87</ele>
        <time>2017-06-25T14:02:02Z</time>
      </trkpt>
      <trkpt lat="69.311347967013717" lon="19.999496983364224">
        <ele>8.789999999999999</ele>
        <time>2017-06-25T14:02:23Z</time>
      </trkpt>
      <trkpt lat="69.314250033348799" lon="20.002809008583426">
        <ele>16.48</ele>
        <time>2017-06-25T14:02:37Z</time>
      </trkpt>
      <trkpt lat="69.317909991368651" lon="20.008706012740731">
        <ele>18.879999999999999</ele>
        <time>2017-06-25T14:02:56Z</time>
      </trkpt>
      <trkpt lat="69.318890003487468" lon="20.010892013087869">
        <ele>18.879999999999999</ele>
        <time>2017-06-25T14:03:02Z</time>
      </trkpt>
      <trkpt lat="69.319872027263045" lon="20.01347498036921">
        <ele>20.32</ele>
        <time>2017-06-25T14:03:08Z</time>
      </trkpt>
      <trkpt lat="69.321489986032248" lon="20.016606962308288">
        <ele>30.899999999999999</ele>
        <time>2017-06-25T14:03:17Z</time>
      </trkpt>
      <trkpt lat="69.322816003113985" lon="20.019801976159215">
        <ele>37.149999999999999</ele>
        <time>2017-06-25T14:03:25Z</time>
      </trkpt>
      <trkpt lat="69.324359027668834" lon="20.022007003426552">
        <ele>40.990000000000002</ele>
        <time>2017-06-25T14:03:33Z</time>
      </trkpt>
      <trkpt lat="69.32546996511519" lon="20.02507402561605">
        <ele>40.990000000000002</ele>
        <time>2017-06-25T14:03:40Z</time>
      </trkpt>
      <trkpt lat="69.326803022995591" lon="20.029260031878948">
        <ele>40.990000000000002</ele>
        <time>2017-06-25T14:03:49Z</time>
      </trkpt>
      <trkpt lat="69.328266000375152" lon="20.03195196390152">
        <ele>46.280000000000001</ele>
        <time>2017-06-25T14:03:57Z</time>
      </trkpt>
      <trkpt lat="69.32983199134469" lon="20.035905037075281">
        <ele>49.159999999999997</ele>
        <time>2017-06-25T14:04:06Z</time>
      </trkpt>
      <trkpt lat="69.331637034192681" lon="20.038899974897504">
        <ele>51.57</ele>
        <time>2017-06-25T14:04:15Z</time>
      </trkpt>
      <trkpt lat="69.332673959434032" lon="20.041230982169509">
        <ele>50.609999999999999</ele>
        <time>2017-06-25T14:04:21Z</time>
      </trkpt>
      <trkpt lat="69.333251975476742" lon="20.044237989932299">
        <ele>48.68</ele>
        <time>2017-06-25T14:04:27Z</time>
      </trkpt>
      <trkpt lat="69.333808030933142" lon="20.04864402115345">
        <ele>43.880000000000003</ele>
        <time>2017-06-25T14:04:35Z</time>
      </trkpt>
      <trkpt lat="69.334820983931422" lon="20.051748007535934">
        <ele>39.549999999999997</ele>
        <time>2017-06-25T14:04:42Z</time>
      </trkpt>
      <trkpt lat="69.336565006524324" lon="20.054722996428609">
        <ele>30.899999999999999</ele>
        <time>2017-06-25T14:04:51Z</time>
      </trkpt>
      <trkpt lat="69.338327972218394" lon="20.056341039016843">
        <ele>26.57</ele>
        <time>2017-06-25T14:04:59Z</time>
      </trkpt>
      <trkpt lat="69.340410958975554" lon="20.056908996775746">
        <ele>15.52</ele>
        <time>2017-06-25T14:05:08Z</time>
      </trkpt>
      <trkpt lat="69.34349600225687" lon="20.05769002251327">
        <ele>5.91</ele>
        <time>2017-06-25T14:05:22Z</time>
      </trkpt>
      <trkpt lat="69.345590975135565" lon="20.05975297652185">
        <ele>3.98</ele>
        <time>2017-06-25T14:05:32Z</time>
      </trkpt>
      <trkpt lat="69.347692988812923" lon="20.061519965529442">
        <ele>8.789999999999999</ele>
        <time>2017-06-25T14:05:42Z</time>
      </trkpt>
      <trkpt lat="69.349202988669276" lon="20.064001008868217">
        <ele>11.67</ele>
        <time>2017-06-25T14:05:50Z</time>
      </trkpt>
      <trkpt lat="69.35108195990324" lon="20.068302014842629">
        <ele>11.19</ele>
        <time>2017-06-25T14:06:01Z</time>
      </trkpt>
      <trkpt lat="69.352566981688142" lon="20.074161970987916">
        <ele>10.710000000000001</ele>
        <time>2017-06-25T14:06:12Z</time>
      </trkpt>
      <trkpt lat="69.353992994874716" lon="20.081079974770546">
        <ele>11.19</ele>
        <time>2017-06-25T14:06:24Z</time>
      </trkpt>
      <trkpt lat="69.354422986507416" lon="20.086282035335898">
        <ele>6.87</ele>
        <time>2017-06-25T14:06:32Z</time>
      </trkpt>
      <trkpt lat="69.354759017005563" lon="20.090427976101637">
        <ele>4.94</ele>
        <time>2017-06-25T14:06:39Z</time>
      </trkpt>
      <trkpt lat="69.35535597614944" lon="20.092859985306859">
        <ele>5.91</ele>
        <time>2017-06-25T14:06:44Z</time>
      </trkpt>
      <trkpt lat="69.355513975024223" lon="20.093239014968276">
        <ele>6.39</ele>
        <time>2017-06-25T14:06:45Z</time>
      </trkpt>
      <trkpt lat="69.35717904008925" lon="20.096355993300676">
        <ele>13.119999999999999</ele>
        <time>2017-06-25T14:06:54Z</time>
      </trkpt>
      <trkpt lat="69.359195977449417" lon="20.100521966814995">
        <ele>20.32</ele>
        <time>2017-06-25T14:07:05Z</time>
      </trkpt>
      <trkpt lat="69.361283993348479" lon="20.106041030958295">
        <ele>20.32</ele>
        <time>2017-06-25T14:07:18Z</time>
      </trkpt>
      <trkpt lat="69.362686034291983" lon="20.110432980582118">
        <ele>10.710000000000001</ele>
        <time>2017-06-25T14:07:27Z</time>
      </trkpt>
      <trkpt lat="69.364641029387712" lon="20.118426969274879">
        <ele>5.91</ele>
        <time>2017-06-25T14:07:41Z</time>
      </trkpt>
      <trkpt lat="69.365836959332228" lon="20.122217014431953">
        <ele>6.39</ele>
        <time>2017-06-25T14:07:49Z</time>
      </trkpt>
      <trkpt lat="69.367145039141178" lon="20.125012965872884">
        <ele>7.35</ele>
        <time>2017-06-25T14:07:57Z</time>
      </trkpt>
      <trkpt lat="69.367890022695065" lon="20.128627996891737">
        <ele>10.710000000000001</ele>
        <time>2017-06-25T14:08:04Z</time>
      </trkpt>
      <trkpt lat="69.369058962911367" lon="20.133105022832751">
        <ele>19.359999999999999</ele>
        <time>2017-06-25T14:08:13Z</time>
      </trkpt>
      <trkpt lat="69.370626965537667" lon="20.139459008350968">
        <ele>17.920000000000002</ele>
        <time>2017-06-25T14:08:25Z</time>
      </trkpt>
      <trkpt lat="69.371892968192697" lon="20.143698994070292">
        <ele>12.15</ele>
        <time>2017-06-25T14:08:33Z</time>
      </trkpt>
      <trkpt lat="69.373289979994297" lon="20.148220025002956">
        <ele>12.630000000000001</ele>
        <time>2017-06-25T14:08:42Z</time>
      </trkpt>
      <trkpt lat="69.374690009281039" lon="20.152667965739965">
        <ele>11.19</ele>
        <time>2017-06-25T14:08:51Z</time>
      </trkpt>
      <trkpt lat="69.375753002241254" lon="20.156068000942469">
        <ele>12.15</ele>
        <time>2017-06-25T14:08:58Z</time>
      </trkpt>
      <trkpt lat="69.377582017332315" lon="20.163987977430224">
        <ele>19.84</ele>
        <time>2017-06-25T14:09:12Z</time>
      </trkpt>
      <trkpt lat="69.378890013322234" lon="20.168054960668087">
        <ele>23.690000000000001</ele>
        <time>2017-06-25T14:09:21Z</time>
      </trkpt>
      <trkpt lat="69.380301022902131" lon="20.170869017019868">
        <ele>27.530000000000001</ele>
        <time>2017-06-25T14:09:28Z</time>
      </trkpt>
      <trkpt lat="69.381628967821598" lon="20.173241011798382">
        <ele>29.940000000000001</ele>
        <time>2017-06-25T14:09:35Z</time>
      </trkpt>
      <trkpt lat="69.382418962195516" lon="20.176208037883043">
        <ele>27.530000000000001</ele>
        <time>2017-06-25T14:09:41Z</time>
      </trkpt>
      <trkpt lat="69.383459994569421" lon="20.180394966155291">
        <ele>20.809999999999999</ele>
        <time>2017-06-25T14:09:49Z</time>
      </trkpt>
      <trkpt lat="69.385080970823765" lon="20.184133965522051">
        <ele>21.77</ele>
        <time>2017-06-25T14:09:58Z</time>
      </trkpt>
      <trkpt lat="69.386089984327555" lon="20.187366027384996">
        <ele>22.25</ele>
        <time>2017-06-25T14:10:05Z</time>
      </trkpt>
      <trkpt lat="69.386171037331223" lon="20.187883023172617">
        <ele>22.25</ele>
        <time>2017-06-25T14:10:06Z</time>
      </trkpt>
      <trkpt lat="69.386232979595661" lon="20.188416028395295">
        <ele>22.25</ele>
        <time>2017-06-25T14:10:07Z</time>
      </trkpt>
      <trkpt lat="69.386278996244073" lon="20.188961019739509">
        <ele>21.77</ele>
        <time>2017-06-25T14:10:08Z</time>
      </trkpt>
      <trkpt lat="69.386307997629046" lon="20.18952202051878">
        <ele>21.77</ele>
        <time>2017-06-25T14:10:09Z</time>
      </trkpt>
      <trkpt lat="69.386310009285808" lon="20.190089978277683">
        <ele>21.289999999999999</ele>
        <time>2017-06-25T14:10:10Z</time>
      </trkpt>
      <trkpt lat="69.386296011507511" lon="20.190649973228574">
        <ele>20.809999999999999</ele>
        <time>2017-06-25T14:10:11Z</time>
      </trkpt>
      <trkpt lat="69.386262986809015" lon="20.191194964572787">
        <ele>20.32</ele>
        <time>2017-06-25T14:10:12Z</time>
      </trkpt>
      <trkpt lat="69.386212024837732" lon="20.19171497784555">
        <ele>20.32</ele>
        <time>2017-06-25T14:10:13Z</time>
      </trkpt>
      <trkpt lat="69.386147987097502" lon="20.192217975854874">
        <ele>20.32</ele>
        <time>2017-06-25T14:10:14Z</time>
      </trkpt>
      <trkpt lat="69.386069029569626" lon="20.192699013277888">
        <ele>20.32</ele>
        <time>2017-06-25T14:10:15Z</time>
      </trkpt>
      <trkpt lat="69.385974984616041" lon="20.193159012123942">
        <ele>20.32</ele>
        <time>2017-06-25T14:10:16Z</time>
      </trkpt>
      <trkpt lat="69.385867025703192" lon="20.193622028455138">
        <ele>20.809999999999999</ele>
        <time>2017-06-25T14:10:17Z</time>
      </trkpt>
      <trkpt lat="69.385745991021395" lon="20.194085966795683">
        <ele>21.289999999999999</ele>
        <time>2017-06-25T14:10:18Z</time>
      </trkpt>
      <trkpt lat="69.3842329736799" lon="20.198931964114308">
        <ele>22.73</ele>
        <time>2017-06-25T14:10:28Z</time>
      </trkpt>
      <trkpt lat="69.381409026682377" lon="20.208208970725536">
        <ele>14.08</ele>
        <time>2017-06-25T14:10:46Z</time>
      </trkpt>
      <trkpt lat="69.379884023219347" lon="20.215425034984946">
        <ele>0.14</ele>
        <time>2017-06-25T14:10:58Z</time>
      </trkpt>
      <trkpt lat="69.377212040126324" lon="20.228021023795009">
        <ele>-6.11</ele>
        <time>2017-06-25T14:11:20Z</time>
      </trkpt>
      <trkpt lat="69.375410014763474" lon="20.236959988251328">
        <ele>-2.75</ele>
        <time>2017-06-25T14:11:35Z</time>
      </trkpt>
      <trkpt lat="69.374492028728127" lon="20.242966040968895">
        <ele>-1.3</ele>
        <time>2017-06-25T14:11:46Z</time>
      </trkpt>
      <trkpt lat="69.373908983543515" lon="20.246797995641828">
        <ele>-0.82</ele>
        <time>2017-06-25T14:11:52Z</time>
      </trkpt>
      <trkpt lat="69.373113038018346" lon="20.251669976860285">
        <ele>-2.75</ele>
        <time>2017-06-25T14:12:01Z</time>
      </trkpt>
      <trkpt lat="69.37228599563241" lon="20.254421001300216">
        <ele>-4.19</ele>
        <time>2017-06-25T14:12:08Z</time>
      </trkpt>
      <trkpt lat="69.371096016839147" lon="20.257386015728116">
        <ele>-6.11</ele>
        <time>2017-06-25T14:12:17Z</time>
      </trkpt>
      <trkpt lat="69.369382001459599" lon="20.261806966736913">
        <ele>-6.11</ele>
        <time>2017-06-25T14:12:32Z</time>
      </trkpt>
      <trkpt lat="69.368108035996556" lon="20.265047997236252">
        <ele>-6.11</ele>
        <time>2017-06-25T14:12:42Z</time>
      </trkpt>
      <trkpt lat="69.366874974220991" lon="20.268218033015728">
        <ele>-5.15</ele>
        <time>2017-06-25T14:12:53Z</time>
      </trkpt>
      <trkpt lat="69.366521006450057" lon="20.269077010452747">
        <ele>-4.19</ele>
        <time>2017-06-25T14:12:58Z</time>
      </trkpt>
      <trkpt lat="69.366480018943548" lon="20.269117997959256">
        <ele>-4.19</ele>
        <time>2017-06-25T14:12:59Z</time>
      </trkpt>
      <trkpt lat="69.366436013951898" lon="20.269131995737553">
        <ele>-3.71</ele>
        <time>2017-06-25T14:13:00Z</time>
      </trkpt>
      <trkpt lat="69.366394020617008" lon="20.269140964373946">
        <ele>-3.71</ele>
        <time>2017-06-25T14:13:01Z</time>
      </trkpt>
      <trkpt lat="69.36635697260499" lon="20.269135013222694">
        <ele>-3.23</ele>
        <time>2017-06-25T14:13:02Z</time>
      </trkpt>
      <trkpt lat="69.366133008152246" lon="20.26916996575892">
        <ele>-2.75</ele>
        <time>2017-06-25T14:13:14Z</time>
      </trkpt>
      <trkpt lat="69.366124961525202" lon="20.269196033477783">
        <ele>-2.75</ele>
        <time>2017-06-25T14:13:15Z</time>
      </trkpt>
      <trkpt lat="69.366110963746905" lon="20.269265016540885">
        <ele>-2.27</ele>
        <time>2017-06-25T14:13:17Z</time>
      </trkpt>
      <trkpt lat="69.366087997332215" lon="20.269331987947226">
        <ele>-0.34</ele>
        <time>2017-06-25T14:13:32Z</time>
      </trkpt>
      <trkpt lat="69.366086991503835" lon="20.269333999603987">
        <ele>-0.34</ele>
        <time>2017-06-25T14:14:29Z</time>
      </trkpt>
      <trkpt lat="69.366099983453751" lon="20.269250012934208">
        <ele>2.06</ele>
        <time>2017-06-25T14:53:28Z</time>
      </trkpt>
      <trkpt lat="69.366091014817357" lon="20.269349003210664">
        <ele>8.789999999999999</ele>
        <time>2017-06-25T14:55:07Z</time>
      </trkpt>
      <trkpt lat="69.366090008988976" lon="20.269359983503819">
        <ele>9.27</ele>
        <time>2017-06-25T14:56:39Z</time>
      </trkpt>
      <trkpt lat="69.366090008988976" lon="20.269369035959244">
        <ele>9.27</ele>
        <time>2017-06-25T14:57:58Z</time>
      </trkpt>
      <trkpt lat="69.366075005382299" lon="20.269472971558571">
        <ele>9.27</ele>
        <time>2017-06-25T14:58:00Z</time>
      </trkpt>
      <trkpt lat="69.366065030917525" lon="20.269611021503806">
        <ele>9.75</ele>
        <time>2017-06-25T14:58:01Z</time>
      </trkpt>
      <trkpt lat="69.366060001775622" lon="20.269734989851713">
        <ele>9.75</ele>
        <time>2017-06-25T14:58:02Z</time>
      </trkpt>
      <trkpt lat="69.366062013432384" lon="20.269841020926833">
        <ele>10.23</ele>
        <time>2017-06-25T14:58:03Z</time>
      </trkpt>
      <trkpt lat="69.366069976240396" lon="20.269944034516811">
        <ele>10.710000000000001</ele>
        <time>2017-06-25T14:58:04Z</time>
      </trkpt>
      <trkpt lat="69.36607601121068" lon="20.27007001452148">
        <ele>11.19</ele>
        <time>2017-06-25T14:58:05Z</time>
      </trkpt>
      <trkpt lat="69.366066036745906" lon="20.270197000354528">
        <ele>11.19</ele>
        <time>2017-06-25T14:58:06Z</time>
      </trkpt>
      <trkpt lat="69.366040974855423" lon="20.270325997844338">
        <ele>11.67</ele>
        <time>2017-06-25T14:58:07Z</time>
      </trkpt>
      <trkpt lat="69.365662029013038" lon="20.272153001278639">
        <ele>13.119999999999999</ele>
        <time>2017-06-25T14:58:16Z</time>
      </trkpt>
      <trkpt lat="69.365590028464794" lon="20.272721964865923">
        <ele>13.119999999999999</ele>
        <time>2017-06-25T14:58:18Z</time>
      </trkpt>
      <trkpt lat="69.365567984059453" lon="20.273037040606141">
        <ele>13.119999999999999</ele>
        <time>2017-06-25T14:58:19Z</time>
      </trkpt>
      <trkpt lat="69.365549040958285" lon="20.273373993113637">
        <ele>13.6</ele>
        <time>2017-06-25T14:58:20Z</time>
      </trkpt>
      <trkpt lat="69.365491960197687" lon="20.277164960280061">
        <ele>15.52</ele>
        <time>2017-06-25T14:58:31Z</time>
      </trkpt>
      <trkpt lat="69.365520039573312" lon="20.277501996606588">
        <ele>16</ele>
        <time>2017-06-25T14:58:32Z</time>
      </trkpt>
      <trkpt lat="69.365558009594679" lon="20.277821011841297">
        <ele>16.48</ele>
        <time>2017-06-25T14:58:33Z</time>
      </trkpt>
      <trkpt lat="69.365602014586329" lon="20.278136003762484">
        <ele>16.960000000000001</ele>
        <time>2017-06-25T14:58:34Z</time>
      </trkpt>
      <trkpt lat="69.365649037063122" lon="20.278433980420232">
        <ele>17.440000000000001</ele>
        <time>2017-06-25T14:58:35Z</time>
      </trkpt>
      <trkpt lat="69.365705028176308" lon="20.278732962906361">
        <ele>17.440000000000001</ele>
        <time>2017-06-25T14:58:36Z</time>
      </trkpt>
      <trkpt lat="69.365924969315529" lon="20.279545001685619">
        <ele>18.879999999999999</ele>
        <time>2017-06-25T14:58:39Z</time>
      </trkpt>
      <trkpt lat="69.366015996783972" lon="20.279806014150381">
        <ele>18.879999999999999</ele>
        <time>2017-06-25T14:58:40Z</time>
      </trkpt>
      <trkpt lat="69.366115992888808" lon="20.280037019401789">
        <ele>18.879999999999999</ele>
        <time>2017-06-25T14:58:41Z</time>
      </trkpt>
      <trkpt lat="69.36622504144907" lon="20.280253021046519">
        <ele>18.879999999999999</ele>
        <time>2017-06-25T14:58:42Z</time>
      </trkpt>
      <trkpt lat="69.366344986483455" lon="20.280440021306276">
        <ele>18.399999999999999</ele>
        <time>2017-06-25T14:58:43Z</time>
      </trkpt>
      <trkpt lat="69.366469960659742" lon="20.280601037666202">
        <ele>18.399999999999999</ele>
        <time>2017-06-25T14:58:44Z</time>
      </trkpt>
      <trkpt lat="69.366599963977933" lon="20.280724000185728">
        <ele>18.399999999999999</ele>
        <time>2017-06-25T14:58:45Z</time>
      </trkpt>
      <trkpt lat="69.366728961467743" lon="20.280816033482552">
        <ele>18.399999999999999</ele>
        <time>2017-06-25T14:58:46Z</time>
      </trkpt>
      <trkpt lat="69.366859970614314" lon="20.280876969918609">
        <ele>18.399999999999999</ele>
        <time>2017-06-25T14:58:47Z</time>
      </trkpt>
      <trkpt lat="69.366987962275743" lon="20.280912006273866">
        <ele>18.879999999999999</ele>
        <time>2017-06-25T14:58:48Z</time>
      </trkpt>
      <trkpt lat="69.367117965593934" lon="20.280918963253498">
        <ele>19.359999999999999</ele>
        <time>2017-06-25T14:58:49Z</time>
      </trkpt>
      <trkpt lat="69.368764003738761" lon="20.28143503703177">
        <ele>29.460000000000001</ele>
        <time>2017-06-25T14:59:02Z</time>
      </trkpt>
      <trkpt lat="69.370174007490277" lon="20.28160803951323">
        <ele>35.229999999999997</ele>
        <time>2017-06-25T14:59:12Z</time>
      </trkpt>
      <trkpt lat="69.371209004893899" lon="20.28145800344646">
        <ele>36.670000000000002</ele>
        <time>2017-06-25T14:59:20Z</time>
      </trkpt>
      <trkpt lat="69.372300999239087" lon="20.282422006130219">
        <ele>38.590000000000003</ele>
        <time>2017-06-25T14:59:28Z</time>
      </trkpt>
      <trkpt lat="69.372769966721535" lon="20.283544007688761">
        <ele>40.030000000000001</ele>
        <time>2017-06-25T14:59:32Z</time>
      </trkpt>
      <trkpt lat="69.372867029160261" lon="20.283879032358527">
        <ele>40.030000000000001</ele>
        <time>2017-06-25T14:59:33Z</time>
      </trkpt>
      <trkpt lat="69.372953027486801" lon="20.284236017614603">
        <ele>40.030000000000001</ele>
        <time>2017-06-25T14:59:34Z</time>
      </trkpt>
      <trkpt lat="69.373035002499819" lon="20.284604988992214">
        <ele>40.030000000000001</ele>
        <time>2017-06-25T14:59:35Z</time>
      </trkpt>
      <trkpt lat="69.373993976041675" lon="20.288583962246776">
        <ele>36.670000000000002</ele>
        <time>2017-06-25T14:59:46Z</time>
      </trkpt>
      <trkpt lat="69.374933000653982" lon="20.29155601747334">
        <ele>34.259999999999998</ele>
        <time>2017-06-25T14:59:56Z</time>
      </trkpt>
      <trkpt lat="69.376113004982471" lon="20.294686993584037">
        <ele>33.299999999999997</ele>
        <time>2017-06-25T15:00:08Z</time>
      </trkpt>
      <trkpt lat="69.377715038135648" lon="20.299962982535362">
        <ele>35.710000000000001</ele>
        <time>2017-06-25T15:00:25Z</time>
      </trkpt>
      <trkpt lat="69.378712987527251" lon="20.301744975149632">
        <ele>36.670000000000002</ele>
        <time>2017-06-25T15:00:34Z</time>
      </trkpt>
      <trkpt lat="69.379714960232377" lon="20.302426004782319">
        <ele>35.229999999999997</ele>
        <time>2017-06-25T15:00:42Z</time>
      </trkpt>
      <trkpt lat="69.379831971600652" lon="20.302394991740584">
        <ele>35.229999999999997</ele>
        <time>2017-06-25T15:00:43Z</time>
      </trkpt>
      <trkpt lat="69.379950994625688" lon="20.302331959828734">
        <ele>35.229999999999997</ele>
        <time>2017-06-25T15:00:44Z</time>
      </trkpt>
      <trkpt lat="69.38006398268044" lon="20.302224000915885">
        <ele>35.229999999999997</ele>
        <time>2017-06-25T15:00:45Z</time>
      </trkpt>
      <trkpt lat="69.38027897849679" lon="20.301913032308221">
        <ele>35.710000000000001</ele>
        <time>2017-06-25T15:00:47Z</time>
      </trkpt>
      <trkpt lat="69.380380986258388" lon="20.301712034270167">
        <ele>36.189999999999998</ele>
        <time>2017-06-25T15:00:48Z</time>
      </trkpt>
      <trkpt lat="69.380474025383592" lon="20.301471976563334">
        <ele>36.670000000000002</ele>
        <time>2017-06-25T15:00:49Z</time>
      </trkpt>
      <trkpt lat="69.380560023710132" lon="20.301208030432463">
        <ele>36.670000000000002</ele>
        <time>2017-06-25T15:00:50Z</time>
      </trkpt>
      <trkpt lat="69.380635963752866" lon="20.300908964127302">
        <ele>36.670000000000002</ele>
        <time>2017-06-25T15:00:51Z</time>
      </trkpt>
      <trkpt lat="69.380711987614632" lon="20.300614004954696">
        <ele>36.670000000000002</ele>
        <time>2017-06-25T15:00:52Z</time>
      </trkpt>
      <trkpt lat="69.381432998925447" lon="20.29724900610745">
        <ele>35.229999999999997</ele>
        <time>2017-06-25T15:01:01Z</time>
      </trkpt>
      <trkpt lat="69.38257503323257" lon="20.291848964989185">
        <ele>26.57</ele>
        <time>2017-06-25T15:01:12Z</time>
      </trkpt>
      <trkpt lat="69.383946983143687" lon="20.287004979327321">
        <ele>21.77</ele>
        <time>2017-06-25T15:01:22Z</time>
      </trkpt>
      <trkpt lat="69.385435022413731" lon="20.28255402110517">
        <ele>20.32</ele>
        <time>2017-06-25T15:01:33Z</time>
      </trkpt>
      <trkpt lat="69.386377986520529" lon="20.279684979468584">
        <ele>18.399999999999999</ele>
        <time>2017-06-25T15:01:44Z</time>
      </trkpt>
      <trkpt lat="69.386857012286782" lon="20.278198029845953">
        <ele>17.440000000000001</ele>
        <time>2017-06-25T15:01:52Z</time>
      </trkpt>
      <trkpt lat="69.38773401081562" lon="20.275544989854097">
        <ele>15.52</ele>
        <time>2017-06-25T15:02:05Z</time>
      </trkpt>
      <trkpt lat="69.389119958505034" lon="20.271362001076341">
        <ele>17.440000000000001</ele>
        <time>2017-06-25T15:02:25Z</time>
      </trkpt>
      <trkpt lat="69.390305997803807" lon="20.268121976405382">
        <ele>11.67</ele>
        <time>2017-06-25T15:02:39Z</time>
      </trkpt>
      <trkpt lat="69.391340995207429" lon="20.267186975106597">
        <ele>8.310000000000001</ele>
        <time>2017-06-25T15:02:47Z</time>
      </trkpt>
      <trkpt lat="69.392608003690839" lon="20.267456034198403">
        <ele>5.42</ele>
        <time>2017-06-25T15:02:57Z</time>
      </trkpt>
      <trkpt lat="69.394558975473046" lon="20.268451971933246">
        <ele>3.98</ele>
        <time>2017-06-25T15:03:10Z</time>
      </trkpt>
      <trkpt lat="69.396663000807166" lon="20.269994996488094">
        <ele>6.87</ele>
        <time>2017-06-25T15:03:23Z</time>
      </trkpt>
      <trkpt lat="69.397923974320292" lon="20.269350009039044">
        <ele>8.789999999999999</ele>
        <time>2017-06-25T15:03:29Z</time>
      </trkpt>
      <trkpt lat="69.40088496543467" lon="20.267659965902567">
        <ele>13.119999999999999</ele>
        <time>2017-06-25T15:03:42Z</time>
      </trkpt>
      <trkpt lat="69.403950981795788" lon="20.265660965815187">
        <ele>6.39</ele>
        <time>2017-06-25T15:03:56Z</time>
      </trkpt>
      <trkpt lat="69.407138032838702" lon="20.262681031599641">
        <ele>6.87</ele>
        <time>2017-06-25T15:04:10Z</time>
      </trkpt>
      <trkpt lat="69.411439038813114" lon="20.258528972044587">
        <ele>9.75</ele>
        <time>2017-06-25T15:04:30Z</time>
      </trkpt>
      <trkpt lat="69.413740038871765" lon="20.256841024383903">
        <ele>14.56</ele>
        <time>2017-06-25T15:04:41Z</time>
      </trkpt>
      <trkpt lat="69.415509039536119" lon="20.257022995501757">
        <ele>16.960000000000001</ele>
        <time>2017-06-25T15:04:49Z</time>
      </trkpt>
      <trkpt lat="69.417381975799799" lon="20.258510028943419">
        <ele>17.920000000000002</ele>
        <time>2017-06-25T15:04:57Z</time>
      </trkpt>
      <trkpt lat="69.419136978685856" lon="20.261061983183026">
        <ele>15.52</ele>
        <time>2017-06-25T15:05:05Z</time>
      </trkpt>
      <trkpt lat="69.421166991814971" lon="20.265369024127722">
        <ele>10.710000000000001</ele>
        <time>2017-06-25T15:05:16Z</time>
      </trkpt>
      <trkpt lat="69.423073036596179" lon="20.27024201117456">
        <ele>5.91</ele>
        <time>2017-06-25T15:05:27Z</time>
      </trkpt>
      <trkpt lat="69.424334010109305" lon="20.274922968819737">
        <ele>3.98</ele>
        <time>2017-06-25T15:05:37Z</time>
      </trkpt>
      <trkpt lat="69.424468036741018" lon="20.275329994037747">
        <ele>4.46</ele>
        <time>2017-06-25T15:05:38Z</time>
      </trkpt>
      <trkpt lat="69.424613965675235" lon="20.275673987343907">
        <ele>3.98</ele>
        <time>2017-06-25T15:05:39Z</time>
      </trkpt>
      <trkpt lat="69.424771964550018" lon="20.275955032557249">
        <ele>4.46</ele>
        <time>2017-06-25T15:05:40Z</time>
      </trkpt>
      <trkpt lat="69.424941027536988" lon="20.276175979524851">
        <ele>4.46</ele>
        <time>2017-06-25T15:05:41Z</time>
      </trkpt>
      <trkpt lat="69.425112018361688" lon="20.276317968964577">
        <ele>4.94</ele>
        <time>2017-06-25T15:05:42Z</time>
      </trkpt>
      <trkpt lat="69.425289966166019" lon="20.276390975341201">
        <ele>4.94</ele>
        <time>2017-06-25T15:05:43Z</time>
      </trkpt>
      <trkpt lat="69.425465986132622" lon="20.276402039453387">
        <ele>5.42</ele>
        <time>2017-06-25T15:05:44Z</time>
      </trkpt>
      <trkpt lat="69.425645023584366" lon="20.276351999491453">
        <ele>6.39</ele>
        <time>2017-06-25T15:05:45Z</time>
      </trkpt>
      <trkpt lat="69.425821965560317" lon="20.276255020871758">
        <ele>6.87</ele>
        <time>2017-06-25T15:05:46Z</time>
      </trkpt>
      <trkpt lat="69.425999997183681" lon="20.276133986189961">
        <ele>7.83</ele>
        <time>2017-06-25T15:05:47Z</time>
      </trkpt>
      <trkpt lat="69.426726959645748" lon="20.275841038674116">
        <ele>11.19</ele>
        <time>2017-06-25T15:05:51Z</time>
      </trkpt>
      <trkpt lat="69.426909014582634" lon="20.275875991210341">
        <ele>12.15</ele>
        <time>2017-06-25T15:05:52Z</time>
      </trkpt>
      <trkpt lat="69.427086962386966" lon="20.275973975658417">
        <ele>13.119999999999999</ele>
        <time>2017-06-25T15:05:53Z</time>
      </trkpt>
      <trkpt lat="69.427258037030697" lon="20.276133986189961">
        <ele>14.08</ele>
        <time>2017-06-25T15:05:54Z</time>
      </trkpt>
      <trkpt lat="69.427429027855396" lon="20.276326015591621">
        <ele>14.56</ele>
        <time>2017-06-25T15:05:55Z</time>
      </trkpt>
      <trkpt lat="69.429213032126427" lon="20.27892398647964">
        <ele>17.920000000000002</ele>
        <time>2017-06-25T15:06:05Z</time>
      </trkpt>
      <trkpt lat="69.43040301091969" lon="20.280414037406445">
        <ele>14.08</ele>
        <time>2017-06-25T15:06:11Z</time>
      </trkpt>
      <trkpt lat="69.430601997300982" lon="20.280505986884236">
        <ele>14.08</ele>
        <time>2017-06-25T15:06:12Z</time>
      </trkpt>
      <trkpt lat="69.430796960368752" lon="20.280540017411113">
        <ele>13.6</ele>
        <time>2017-06-25T15:06:13Z</time>
      </trkpt>
      <trkpt lat="69.430994018912315" lon="20.280510010197759">
        <ele>13.6</ele>
        <time>2017-06-25T15:06:14Z</time>
      </trkpt>
      <trkpt lat="69.431181019172072" lon="20.28042602352798">
        <ele>14.08</ele>
        <time>2017-06-25T15:06:15Z</time>
      </trkpt>
      <trkpt lat="69.43136902526021" lon="20.280294008553028">
        <ele>14.08</ele>
        <time>2017-06-25T15:06:16Z</time>
      </trkpt>
      <trkpt lat="69.431558037176728" lon="20.280142966657877">
        <ele>14.56</ele>
        <time>2017-06-25T15:06:17Z</time>
      </trkpt>
      <trkpt lat="69.433143977075815" lon="20.279178963974118">
        <ele>16.48</ele>
        <time>2017-06-25T15:06:25Z</time>
      </trkpt>
      <trkpt lat="69.434626987203956" lon="20.279802996665239">
        <ele>9.75</ele>
        <time>2017-06-25T15:06:32Z</time>
      </trkpt>
      <trkpt lat="69.437525030225515" lon="20.282841017469764">
        <ele>18.879999999999999</ele>
        <time>2017-06-25T15:06:46Z</time>
      </trkpt>
      <trkpt lat="69.440001966431737" lon="20.28723799623549">
        <ele>21.77</ele>
        <time>2017-06-25T15:06:59Z</time>
      </trkpt>
      <trkpt lat="69.441444994881749" lon="20.291817029938102">
        <ele>26.09</ele>
        <time>2017-06-25T15:07:09Z</time>
      </trkpt>
      <trkpt lat="69.441927038133144" lon="20.294772991910577">
        <ele>21.77</ele>
        <time>2017-06-25T15:07:15Z</time>
      </trkpt>
      <trkpt lat="69.442357029765844" lon="20.29993599280715">
        <ele>17.440000000000001</ele>
        <time>2017-06-25T15:07:24Z</time>
      </trkpt>
      <trkpt lat="69.446837995201349" lon="20.307465037330985">
        <ele>29.460000000000001</ele>
        <time>2017-06-25T15:07:56Z</time>
      </trkpt>
      <trkpt lat="69.448611019179225" lon="20.307752033695579">
        <ele>21.289999999999999</ele>
        <time>2017-06-25T15:08:05Z</time>
      </trkpt>
      <trkpt lat="69.450182961300015" lon="20.309482980519533">
        <ele>24.170000000000002</ele>
        <time>2017-06-25T15:08:13Z</time>
      </trkpt>
      <trkpt lat="69.452546993270516" lon="20.313294986262918">
        <ele>22.25</ele>
        <time>2017-06-25T15:08:27Z</time>
      </trkpt>
      <trkpt lat="69.453426003456116" lon="20.31471798196435">
        <ele>15.52</ele>
        <time>2017-06-25T15:08:36Z</time>
      </trkpt>
      <trkpt lat="69.454670967534184" lon="20.316689992323518">
        <ele>12.15</ele>
        <time>2017-06-25T15:08:49Z</time>
      </trkpt>
      <trkpt lat="69.455817025154829" lon="20.318538034334779">
        <ele>13.119999999999999</ele>
        <time>2017-06-25T15:09:02Z</time>
      </trkpt>
      <trkpt lat="69.456688994541764" lon="20.320566035807133">
        <ele>11.19</ele>
        <time>2017-06-25T15:09:13Z</time>
      </trkpt>
      <trkpt lat="69.457798004150391" lon="20.323252016678452">
        <ele>7.35</ele>
        <time>2017-06-25T15:09:26Z</time>
      </trkpt>
      <trkpt lat="69.458564026281238" lon="20.323929022997618">
        <ele>6.87</ele>
        <time>2017-06-25T15:09:35Z</time>
      </trkpt>
      <trkpt lat="69.459515959024429" lon="20.323632974177599">
        <ele>8.789999999999999</ele>
        <time>2017-06-25T15:09:47Z</time>
      </trkpt>
      <trkpt lat="69.460842981934547" lon="20.323445973917842">
        <ele>9.27</ele>
        <time>2017-06-25T15:09:58Z</time>
      </trkpt>
      <trkpt lat="69.46215701289475" lon="20.324477031826973">
        <ele>7.83</ele>
        <time>2017-06-25T15:10:06Z</time>
      </trkpt>
      <trkpt lat="69.463668018579483" lon="20.325170969590545">
        <ele>5.91</ele>
        <time>2017-06-25T15:10:14Z</time>
      </trkpt>
      <trkpt lat="69.465948985889554" lon="20.325086982920766">
        <ele>9.27</ele>
        <time>2017-06-25T15:10:25Z</time>
      </trkpt>
      <trkpt lat="69.46800397709012" lon="20.326566975563765">
        <ele>12.15</ele>
        <time>2017-06-25T15:10:35Z</time>
      </trkpt>
      <trkpt lat="69.469902981072664" lon="20.327161001041532">
        <ele>15.039999999999999</ele>
        <time>2017-06-25T15:10:44Z</time>
      </trkpt>
      <trkpt lat="69.471758985891938" lon="20.3277169726789">
        <ele>13.119999999999999</ele>
        <time>2017-06-25T15:10:53Z</time>
      </trkpt>
      <trkpt lat="69.473572997376323" lon="20.329358987510204">
        <ele>5.42</ele>
        <time>2017-06-25T15:11:01Z</time>
      </trkpt>
      <trkpt lat="69.47642401792109" lon="20.331300990656018">
        <ele>3.02</ele>
        <time>2017-06-25T15:11:13Z</time>
      </trkpt>
      <trkpt lat="69.479761021211743" lon="20.333620011806488">
        <ele>3.02</ele>
        <time>2017-06-25T15:11:27Z</time>
      </trkpt>
      <trkpt lat="69.483834961429238" lon="20.336606986820698">
        <ele>4.46</ele>
        <time>2017-06-25T15:11:44Z</time>
      </trkpt>
      <trkpt lat="69.486483978107572" lon="20.337484991177917">
        <ele>6.39</ele>
        <time>2017-06-25T15:11:55Z</time>
      </trkpt>
      <trkpt lat="69.489245982840657" lon="20.338171971961856">
        <ele>9.75</ele>
        <time>2017-06-25T15:12:07Z</time>
      </trkpt>
      <trkpt lat="69.491197960451245" lon="20.339852962642908">
        <ele>9.75</ele>
        <time>2017-06-25T15:12:16Z</time>
      </trkpt>
      <trkpt lat="69.493182962760329" lon="20.341623974964023">
        <ele>14.08</ele>
        <time>2017-06-25T15:12:25Z</time>
      </trkpt>
      <trkpt lat="69.495421014726162" lon="20.343345031142235">
        <ele>15.52</ele>
        <time>2017-06-25T15:12:35Z</time>
      </trkpt>
      <trkpt lat="69.498069025576115" lon="20.3458939678967">
        <ele>13.119999999999999</ele>
        <time>2017-06-25T15:12:47Z</time>
      </trkpt>
      <trkpt lat="69.499039985239506" lon="20.346613973379135">
        <ele>13.119999999999999</ele>
        <time>2017-06-25T15:12:53Z</time>
      </trkpt>
      <trkpt lat="69.500089986249804" lon="20.347988018766046">
        <ele>11.19</ele>
        <time>2017-06-25T15:12:59Z</time>
      </trkpt>
      <trkpt lat="69.50196803547442" lon="20.350220035761595">
        <ele>10.710000000000001</ele>
        <time>2017-06-25T15:13:07Z</time>
      </trkpt>
      <trkpt lat="69.504686035215855" lon="20.352583983913064">
        <ele>6.87</ele>
        <time>2017-06-25T15:13:19Z</time>
      </trkpt>
      <trkpt lat="69.506326038390398" lon="20.354971988126636">
        <ele>5.91</ele>
        <time>2017-06-25T15:13:27Z</time>
      </trkpt>
      <trkpt lat="69.507819022983313" lon="20.357521008700132">
        <ele>4.46</ele>
        <time>2017-06-25T15:13:35Z</time>
      </trkpt>
      <trkpt lat="69.508004011586308" lon="20.357685964554548">
        <ele>4.46</ele>
        <time>2017-06-25T15:13:36Z</time>
      </trkpt>
      <trkpt lat="69.508183971047401" lon="20.357796018943191">
        <ele>4.94</ele>
        <time>2017-06-25T15:13:37Z</time>
      </trkpt>
      <trkpt lat="69.508364014327526" lon="20.357846980914474">
        <ele>5.42</ele>
        <time>2017-06-25T15:13:38Z</time>
      </trkpt>
      <trkpt lat="69.508541962131858" lon="20.357842035591602">
        <ele>5.91</ele>
        <time>2017-06-25T15:13:39Z</time>
      </trkpt>
      <trkpt lat="69.508726028725505" lon="20.357781015336514">
        <ele>6.39</ele>
        <time>2017-06-25T15:13:40Z</time>
      </trkpt>
      <trkpt lat="69.508912023156881" lon="20.357687976211309">
        <ele>7.35</ele>
        <time>2017-06-25T15:13:41Z</time>
      </trkpt>
      <trkpt lat="69.509102962911129" lon="20.357556967064738">
        <ele>7.83</ele>
        <time>2017-06-25T15:13:42Z</time>
      </trkpt>
      <trkpt lat="69.509294992312789" lon="20.357397962361574">
        <ele>8.310000000000001</ele>
        <time>2017-06-25T15:13:43Z</time>
      </trkpt>
      <trkpt lat="69.511199025437236" lon="20.356285013258457">
        <ele>12.15</ele>
        <time>2017-06-25T15:13:52Z</time>
      </trkpt>
      <trkpt lat="69.513521986082196" lon="20.356109999120235">
        <ele>15.52</ele>
        <time>2017-06-25T15:14:02Z</time>
      </trkpt>
      <trkpt lat="69.515052018687129" lon="20.355999022722244">
        <ele>16</ele>
        <time>2017-06-25T15:14:09Z</time>
      </trkpt>
      <trkpt lat="69.515265002846718" lon="20.356146963313222">
        <ele>15.52</ele>
        <time>2017-06-25T15:14:10Z</time>
      </trkpt>
      <trkpt lat="69.517069039866328" lon="20.357996011152864">
        <ele>7.83</ele>
        <time>2017-06-25T15:14:18Z</time>
      </trkpt>
      <trkpt lat="69.519131993874907" lon="20.359304007142782">
        <ele>5.42</ele>
        <time>2017-06-25T15:14:27Z</time>
      </trkpt>
      <trkpt lat="69.520435966551304" lon="20.360538996756077">
        <ele>7.35</ele>
        <time>2017-06-25T15:14:34Z</time>
      </trkpt>
      <trkpt lat="69.520604023709893" lon="20.360838985070586">
        <ele>7.35</ele>
        <time>2017-06-25T15:14:35Z</time>
      </trkpt>
      <trkpt lat="69.521924005821347" lon="20.364044979214668">
        <ele>4.94</ele>
        <time>2017-06-25T15:14:43Z</time>
      </trkpt>
      <trkpt lat="69.523673979565501" lon="20.367252985015512">
        <ele>2.06</ele>
        <time>2017-06-25T15:14:52Z</time>
      </trkpt>
      <trkpt lat="69.528197022154927" lon="20.373361967504025">
        <ele>1.58</ele>
        <time>2017-06-25T15:15:13Z</time>
      </trkpt>
      <trkpt lat="69.529852028936148" lon="20.374924018979073">
        <ele>3.02</ele>
        <time>2017-06-25T15:15:21Z</time>
      </trkpt>
      <trkpt lat="69.531277036294341" lon="20.374530991539359">
        <ele>4.46</ele>
        <time>2017-06-25T15:15:28Z</time>
      </trkpt>
      <trkpt lat="69.532500961795449" lon="20.374740036204457">
        <ele>4.94</ele>
        <time>2017-06-25T15:15:35Z</time>
      </trkpt>
      <trkpt lat="69.533609971404076" lon="20.376337040215731">
        <ele>2.54</ele>
        <time>2017-06-25T15:15:44Z</time>
      </trkpt>
      <trkpt lat="69.535017963498831" lon="20.378053989261389">
        <ele>1.1</ele>
        <time>2017-06-25T15:15:55Z</time>
      </trkpt>
      <trkpt lat="69.536210959777236" lon="20.378021970391273">
        <ele>0.62</ele>
        <time>2017-06-25T15:16:05Z</time>
      </trkpt>
      <trkpt lat="69.538097977638245" lon="20.377767998725176">
        <ele>2.06</ele>
        <time>2017-06-25T15:16:20Z</time>
      </trkpt>
      <trkpt lat="69.539607977494597" lon="20.378102017566562">
        <ele>2.54</ele>
        <time>2017-06-25T15:16:34Z</time>
      </trkpt>
      <trkpt lat="69.541075984016061" lon="20.379053028300405">
        <ele>3.5</ele>
        <time>2017-06-25T15:16:45Z</time>
      </trkpt>
      <trkpt lat="69.542635018005967" lon="20.380639974027872">
        <ele>3.02</ele>
        <time>2017-06-25T15:16:54Z</time>
      </trkpt>
      <trkpt lat="69.544482976198196" lon="20.382005972787738">
        <ele>4.94</ele>
        <time>2017-06-25T15:17:03Z</time>
      </trkpt>
      <trkpt lat="69.546280978247523" lon="20.383669026196003">
        <ele>6.39</ele>
        <time>2017-06-25T15:17:12Z</time>
      </trkpt>
      <trkpt lat="69.548520036041737" lon="20.387378018349409">
        <ele>3.02</ele>
        <time>2017-06-25T15:17:24Z</time>
      </trkpt>
      <trkpt lat="69.54990497790277" lon="20.388319976627827">
        <ele>3.02</ele>
        <time>2017-06-25T15:17:31Z</time>
      </trkpt>
      <trkpt lat="69.552672011777759" lon="20.388403041288257">
        <ele>2.54</ele>
        <time>2017-06-25T15:17:44Z</time>
      </trkpt>
      <trkpt lat="69.555149031803012" lon="20.388682996854186">
        <ele>2.54</ele>
        <time>2017-06-25T15:17:55Z</time>
      </trkpt>
      <trkpt lat="69.557408960536122" lon="20.38869003765285">
        <ele>3.5</ele>
        <time>2017-06-25T15:18:05Z</time>
      </trkpt>
      <trkpt lat="69.558614026755095" lon="20.389715982601047">
        <ele>4.46</ele>
        <time>2017-06-25T15:18:11Z</time>
      </trkpt>
      <trkpt lat="69.560374980792403" lon="20.39189301431179">
        <ele>5.91</ele>
        <time>2017-06-25T15:18:20Z</time>
      </trkpt>
      <trkpt lat="69.560568016022444" lon="20.391969960182905">
        <ele>6.39</ele>
        <time>2017-06-25T15:18:21Z</time>
      </trkpt>
      <trkpt lat="69.560758033767343" lon="20.391990998759866">
        <ele>6.87</ele>
        <time>2017-06-25T15:18:22Z</time>
      </trkpt>
      <trkpt lat="69.560943022370338" lon="20.39195797406137">
        <ele>6.87</ele>
        <time>2017-06-25T15:18:23Z</time>
      </trkpt>
      <trkpt lat="69.561125999316573" lon="20.391868036240339">
        <ele>7.83</ele>
        <time>2017-06-25T15:18:24Z</time>
      </trkpt>
      <trkpt lat="69.561306964606047" lon="20.391725040972233">
        <ele>8.310000000000001</ele>
        <time>2017-06-25T15:18:25Z</time>
      </trkpt>
      <trkpt lat="69.56148399040103" lon="20.391546003520489">
        <ele>8.789999999999999</ele>
        <time>2017-06-25T15:18:26Z</time>
      </trkpt>
      <trkpt lat="69.561660010367632" lon="20.391345005482435">
        <ele>9.27</ele>
        <time>2017-06-25T15:18:27Z</time>
      </trkpt>
      <trkpt lat="69.563523977994919" lon="20.38978697732091">
        <ele>12.630000000000001</ele>
        <time>2017-06-25T15:18:37Z</time>
      </trkpt>
      <trkpt lat="69.565011011436582" lon="20.38978798314929">
        <ele>12.15</ele>
        <time>2017-06-25T15:18:45Z</time>
      </trkpt>
      <trkpt lat="69.567040018737316" lon="20.390418972820044">
        <ele>11.19</ele>
        <time>2017-06-25T15:18:55Z</time>
      </trkpt>
      <trkpt lat="69.56850802525878" lon="20.391520019620657">
        <ele>8.310000000000001</ele>
        <time>2017-06-25T15:19:03Z</time>
      </trkpt>
      <trkpt lat="69.570280965417624" lon="20.392291992902756">
        <ele>8.789999999999999</ele>
        <time>2017-06-25T15:19:12Z</time>
      </trkpt>
      <trkpt lat="69.57156297750771" lon="20.393648017197847">
        <ele>8.789999999999999</ele>
        <time>2017-06-25T15:19:19Z</time>
      </trkpt>
      <trkpt lat="69.572902992367744" lon="20.394865991547704">
        <ele>8.310000000000001</ele>
        <time>2017-06-25T15:19:26Z</time>
      </trkpt>
      <trkpt lat="69.574659001082182" lon="20.395679958164692">
        <ele>7.35</ele>
        <time>2017-06-25T15:19:35Z</time>
      </trkpt>
      <trkpt lat="69.574838960543275" lon="20.395877016708255">
        <ele>7.35</ele>
        <time>2017-06-25T15:19:36Z</time>
      </trkpt>
      <trkpt lat="69.576808959245682" lon="20.39859602227807">
        <ele>3.5</ele>
        <time>2017-06-25T15:19:47Z</time>
      </trkpt>
      <trkpt lat="69.576995959505439" lon="20.398729965090752">
        <ele>3.02</ele>
        <time>2017-06-25T15:19:48Z</time>
      </trkpt>
      <trkpt lat="69.577188994735479" lon="20.398816969245672">
        <ele>3.5</ele>
        <time>2017-06-25T15:19:49Z</time>
      </trkpt>
      <trkpt lat="69.577379012480378" lon="20.398863991722465">
        <ele>3.5</ele>
        <time>2017-06-25T15:19:50Z</time>
      </trkpt>
      <trkpt lat="69.579306012019515" lon="20.399506967514753">
        <ele>6.39</ele>
        <time>2017-06-25T15:20:00Z</time>
      </trkpt>
      <trkpt lat="69.581052968278527" lon="20.39977896027267">
        <ele>8.310000000000001</ele>
        <time>2017-06-25T15:20:09Z</time>
      </trkpt>
      <trkpt lat="69.582794979214668" lon="20.398182962089777">
        <ele>10.710000000000001</ele>
        <time>2017-06-25T15:20:19Z</time>
      </trkpt>
      <trkpt lat="69.584176987409592" lon="20.398268038406968">
        <ele>11.67</ele>
        <time>2017-06-25T15:20:26Z</time>
      </trkpt>
      <trkpt lat="69.585370989516377" lon="20.399649040773511">
        <ele>11.67</ele>
        <time>2017-06-25T15:20:33Z</time>
      </trkpt>
      <trkpt lat="69.586502965539694" lon="20.40237600915134">
        <ele>9.75</ele>
        <time>2017-06-25T15:20:41Z</time>
      </trkpt>
      <trkpt lat="69.587540980428457" lon="20.406584981828928">
        <ele>5.91</ele>
        <time>2017-06-25T15:20:50Z</time>
      </trkpt>
      <trkpt lat="69.58862098865211" lon="20.409720987081528">
        <ele>6.39</ele>
        <time>2017-06-25T15:20:58Z</time>
      </trkpt>
      <trkpt lat="69.589983969926834" lon="20.413273992016912">
        <ele>6.39</ele>
        <time>2017-06-25T15:21:08Z</time>
      </trkpt>
      <trkpt lat="69.590831967070699" lon="20.416917018592358">
        <ele>5.91</ele>
        <time>2017-06-25T15:21:16Z</time>
      </trkpt>
      <trkpt lat="69.5913050416857" lon="20.421376023441553">
        <ele>3.98</ele>
        <time>2017-06-25T15:21:24Z</time>
      </trkpt>
      <trkpt lat="69.59134804084897" lon="20.426642959937453">
        <ele>1.58</ele>
        <time>2017-06-25T15:21:33Z</time>
      </trkpt>
      <trkpt lat="69.591012010350823" lon="20.431903023272753">
        <ele>-1.3</ele>
        <time>2017-06-25T15:21:42Z</time>
      </trkpt>
      <trkpt lat="69.590158984065056" lon="20.437453016638756">
        <ele>-1.3</ele>
        <time>2017-06-25T15:21:52Z</time>
      </trkpt>
      <trkpt lat="69.589129015803337" lon="20.440606959164143">
        <ele>-1.3</ele>
        <time>2017-06-25T15:21:59Z</time>
      </trkpt>
      <trkpt lat="69.587682969868183" lon="20.444634966552258">
        <ele>-2.75</ele>
        <time>2017-06-25T15:22:08Z</time>
      </trkpt>
      <trkpt lat="69.585980018600821" lon="20.448722988367081">
        <ele>-3.71</ele>
        <time>2017-06-25T15:22:17Z</time>
      </trkpt>
      <trkpt lat="69.584750980138779" lon="20.452724006026983">
        <ele>-3.71</ele>
        <time>2017-06-25T15:22:25Z</time>
      </trkpt>
      <trkpt lat="69.584350995719433" lon="20.456091016530991">
        <ele>-3.71</ele>
        <time>2017-06-25T15:22:31Z</time>
      </trkpt>
      <trkpt lat="69.584271032363176" lon="20.456614969298244">
        <ele>-3.23</ele>
        <time>2017-06-25T15:22:32Z</time>
      </trkpt>
      <trkpt lat="69.584172964096069" lon="20.457140011712909">
        <ele>-3.71</ele>
        <time>2017-06-25T15:22:33Z</time>
      </trkpt>
      <trkpt lat="69.583268975839019" lon="20.461073974147439">
        <ele>-3.71</ele>
        <time>2017-06-25T15:22:40Z</time>
      </trkpt>
      <trkpt lat="69.582267003133893" lon="20.466684987768531">
        <ele>-3.71</ele>
        <time>2017-06-25T15:22:49Z</time>
      </trkpt>
      <trkpt lat="69.581445995718241" lon="20.469467025250196">
        <ele>-3.71</ele>
        <time>2017-06-25T15:22:55Z</time>
      </trkpt>
      <trkpt lat="69.580846019089222" lon="20.471181040629745">
        <ele>-4.19</ele>
        <time>2017-06-25T15:22:59Z</time>
      </trkpt>
      <trkpt lat="69.580721966922283" lon="20.47168998979032">
        <ele>-4.19</ele>
        <time>2017-06-25T15:23:00Z</time>
      </trkpt>
      <trkpt lat="69.579527964815497" lon="20.476579992100596">
        <ele>-2.75</ele>
        <time>2017-06-25T15:23:09Z</time>
      </trkpt>
      <trkpt lat="69.578030034899712" lon="20.482232999056578">
        <ele>0.62</ele>
        <time>2017-06-25T15:23:20Z</time>
      </trkpt>
      <trkpt lat="69.576765038073063" lon="20.487682996317744">
        <ele>2.06</ele>
        <time>2017-06-25T15:23:30Z</time>
      </trkpt>
      <trkpt lat="69.575710007920861" lon="20.493230978026986">
        <ele>0.62</ele>
        <time>2017-06-25T15:23:39Z</time>
      </trkpt>
      <trkpt lat="69.574346020817757" lon="20.502275973558426">
        <ele>3.98</ele>
        <time>2017-06-25T15:23:53Z</time>
      </trkpt>
      <trkpt lat="69.57304397597909" lon="20.507809035480022">
        <ele>4.94</ele>
        <time>2017-06-25T15:24:02Z</time>
      </trkpt>
      <trkpt lat="69.571596002206206" lon="20.513562960550189">
        <ele>3.98</ele>
        <time>2017-06-25T15:24:12Z</time>
      </trkpt>
      <trkpt lat="69.569637989625335" lon="20.51938402466476">
        <ele>3.5</ele>
        <time>2017-06-25T15:24:23Z</time>
      </trkpt>
      <trkpt lat="69.568584971129894" lon="20.522280978038907">
        <ele>5.42</ele>
        <time>2017-06-25T15:24:29Z</time>
      </trkpt>
      <trkpt lat="69.565508980304003" lon="20.5274429731071">
        <ele>11.67</ele>
        <time>2017-06-25T15:24:43Z</time>
      </trkpt>
      <trkpt lat="69.563603019341826" lon="20.529632996767759">
        <ele>7.83</ele>
        <time>2017-06-25T15:24:51Z</time>
      </trkpt>
      <trkpt lat="69.560918966308236" lon="20.531438961625099">
        <ele>-7.55</ele>
        <time>2017-06-25T15:25:02Z</time>
      </trkpt>
      <trkpt lat="69.558031987398863" lon="20.532957008108497">
        <ele>-7.07</ele>
        <time>2017-06-25T15:25:14Z</time>
      </trkpt>
      <trkpt lat="69.556702030822635" lon="20.532359965145588">
        <ele>2.06</ele>
        <time>2017-06-25T15:25:20Z</time>
      </trkpt>
      <trkpt lat="69.552966970950365" lon="20.530100036412477">
        <ele>24.649999999999999</ele>
        <time>2017-06-25T15:25:36Z</time>
      </trkpt>
      <trkpt lat="69.550893036648631" lon="20.529344994574785">
        <ele>27.050000000000001</ele>
        <time>2017-06-25T15:25:45Z</time>
      </trkpt>
      <trkpt lat="69.548861011862755" lon="20.528844008222222">
        <ele>27.530000000000001</ele>
        <time>2017-06-25T15:25:57Z</time>
      </trkpt>
      <trkpt lat="69.54650703817606" lon="20.528570003807545">
        <ele>17.440000000000001</ele>
        <time>2017-06-25T15:26:13Z</time>
      </trkpt>
      <trkpt lat="69.544547013938427" lon="20.529523026198149">
        <ele>5.91</ele>
        <time>2017-06-25T15:26:28Z</time>
      </trkpt>
      <trkpt lat="69.543230971321464" lon="20.531550021842122">
        <ele>2.54</ele>
        <time>2017-06-25T15:26:39Z</time>
      </trkpt>
      <trkpt lat="69.542349027469754" lon="20.534624001011252">
        <ele>2.54</ele>
        <time>2017-06-25T15:26:48Z</time>
      </trkpt>
      <trkpt lat="69.541799006983638" lon="20.539231030270457">
        <ele>1.58</ele>
        <time>2017-06-25T15:26:58Z</time>
      </trkpt>
      <trkpt lat="69.541658023372293" lon="20.544112985953689">
        <ele>1.1</ele>
        <time>2017-06-25T15:27:07Z</time>
      </trkpt>
      <trkpt lat="69.541988018900156" lon="20.548651032149792">
        <ele>-0.34</ele>
        <time>2017-06-25T15:27:16Z</time>
      </trkpt>
      <trkpt lat="69.542729984968901" lon="20.551975965499878">
        <ele>-0.82</ele>
        <time>2017-06-25T15:27:24Z</time>
      </trkpt>
      <trkpt lat="69.544517006725073" lon="20.556798996403813">
        <ele>4.94</ele>
        <time>2017-06-25T15:27:37Z</time>
      </trkpt>
      <trkpt lat="69.545932961627841" lon="20.559755964204669">
        <ele>10.23</ele>
        <time>2017-06-25T15:27:46Z</time>
      </trkpt>
      <trkpt lat="69.547127969563007" lon="20.562955001369119">
        <ele>15.039999999999999</ele>
        <time>2017-06-25T15:27:54Z</time>
      </trkpt>
      <trkpt lat="69.548008991405368" lon="20.566019006073475">
        <ele>15.52</ele>
        <time>2017-06-25T15:28:01Z</time>
      </trkpt>
      <trkpt lat="69.548190962523222" lon="20.566965993493795">
        <ele>15.039999999999999</ele>
        <time>2017-06-25T15:28:03Z</time>
      </trkpt>
      <trkpt lat="69.548251982778311" lon="20.567444013431668">
        <ele>14.56</ele>
        <time>2017-06-25T15:28:04Z</time>
      </trkpt>
      <trkpt lat="69.54829297028482" lon="20.567938964813948">
        <ele>14.08</ele>
        <time>2017-06-25T15:28:05Z</time>
      </trkpt>
      <trkpt lat="69.5483130030334" lon="20.568452021107078">
        <ele>14.08</ele>
        <time>2017-06-25T15:28:06Z</time>
      </trkpt>
      <trkpt lat="69.548309985548258" lon="20.568975973874331">
        <ele>13.6</ele>
        <time>2017-06-25T15:28:07Z</time>
      </trkpt>
      <trkpt lat="69.548288024961948" lon="20.569504033774137">
        <ele>13.119999999999999</ele>
        <time>2017-06-25T15:28:08Z</time>
      </trkpt>
      <trkpt lat="69.54824703745544" lon="20.570037038996816">
        <ele>13.119999999999999</ele>
        <time>2017-06-25T15:28:09Z</time>
      </trkpt>
      <trkpt lat="69.548196997493505" lon="20.570572977885604">
        <ele>13.119999999999999</ele>
        <time>2017-06-25T15:28:10Z</time>
      </trkpt>
      <trkpt lat="69.547568019479513" lon="20.575039023533463">
        <ele>12.630000000000001</ele>
        <time>2017-06-25T15:28:18Z</time>
      </trkpt>
      <trkpt lat="69.546391032636166" lon="20.581229981034994">
        <ele>13.119999999999999</ele>
        <time>2017-06-25T15:28:29Z</time>
      </trkpt>
      <trkpt lat="69.545041965320706" lon="20.585770960897207">
        <ele>12.15</ele>
        <time>2017-06-25T15:28:38Z</time>
      </trkpt>
      <trkpt lat="69.543362986296415" lon="20.589524041861296">
        <ele>10.710000000000001</ele>
        <time>2017-06-25T15:28:47Z</time>
      </trkpt>
      <trkpt lat="69.540813965722919" lon="20.594425024464726">
        <ele>14.56</ele>
        <time>2017-06-25T15:29:00Z</time>
      </trkpt>
      <trkpt lat="69.539103973656893" lon="20.596480015665293">
        <ele>9.27</ele>
        <time>2017-06-25T15:29:08Z</time>
      </trkpt>
      <trkpt lat="69.537572013214231" lon="20.598470969125628">
        <ele>7.35</ele>
        <time>2017-06-25T15:29:16Z</time>
      </trkpt>
      <trkpt lat="69.535696981474757" lon="20.600246004760265">
        <ele>6.87</ele>
        <time>2017-06-25T15:29:25Z</time>
      </trkpt>
      <trkpt lat="69.533070009201765" lon="20.602657981216908">
        <ele>7.35</ele>
        <time>2017-06-25T15:29:37Z</time>
      </trkpt>
      <trkpt lat="69.529641978442669" lon="20.605865987017751">
        <ele>7.83</ele>
        <time>2017-06-25T15:29:52Z</time>
      </trkpt>
      <trkpt lat="69.526842003688216" lon="20.609487975016236">
        <ele>10.23</ele>
        <time>2017-06-25T15:30:05Z</time>
      </trkpt>
      <trkpt lat="69.524547960609198" lon="20.612950958311558">
        <ele>7.83</ele>
        <time>2017-06-25T15:30:16Z</time>
      </trkpt>
      <trkpt lat="69.521663999184966" lon="20.618329960852861">
        <ele>7.35</ele>
        <time>2017-06-25T15:30:30Z</time>
      </trkpt>
      <trkpt lat="69.520488018169999" lon="20.62051503919065">
        <ele>9.75</ele>
        <time>2017-06-25T15:30:38Z</time>
      </trkpt>
      <trkpt lat="69.518823958933353" lon="20.623828992247581">
        <ele>9.27</ele>
        <time>2017-06-25T15:30:51Z</time>
      </trkpt>
      <trkpt lat="69.518737038597465" lon="20.624151024967432">
        <ele>9.27</ele>
        <time>2017-06-25T15:30:52Z</time>
      </trkpt>
      <trkpt lat="69.51866302639246" lon="20.624498035758734">
        <ele>8.789999999999999</ele>
        <time>2017-06-25T15:30:53Z</time>
      </trkpt>
      <trkpt lat="69.51859999448061" lon="20.624871030449867">
        <ele>8.789999999999999</ele>
        <time>2017-06-25T15:30:54Z</time>
      </trkpt>
      <trkpt lat="69.518547020852566" lon="20.625250982120633">
        <ele>8.310000000000001</ele>
        <time>2017-06-25T15:30:55Z</time>
      </trkpt>
      <trkpt lat="69.518503015860915" lon="20.625638980418444">
        <ele>8.310000000000001</ele>
        <time>2017-06-25T15:30:56Z</time>
      </trkpt>
      <trkpt lat="69.518474014475942" lon="20.626046005636454">
        <ele>7.83</ele>
        <time>2017-06-25T15:30:57Z</time>
      </trkpt>
      <trkpt lat="69.518458005040884" lon="20.626466022804379">
        <ele>7.35</ele>
        <time>2017-06-25T15:30:58Z</time>
      </trkpt>
      <trkpt lat="69.518446018919349" lon="20.626885034143925">
        <ele>6.87</ele>
        <time>2017-06-25T15:30:59Z</time>
      </trkpt>
      <trkpt lat="69.518373012542725" lon="20.630181971937418">
        <ele>5.42</ele>
        <time>2017-06-25T15:31:07Z</time>
      </trkpt>
      <trkpt lat="69.518336970359087" lon="20.630566030740738">
        <ele>5.42</ele>
        <time>2017-06-25T15:31:08Z</time>
      </trkpt>
      <trkpt lat="69.518282990902662" lon="20.630926033481956">
        <ele>4.94</ele>
        <time>2017-06-25T15:31:09Z</time>
      </trkpt>
      <trkpt lat="69.518211996182799" lon="20.631264997646213">
        <ele>4.46</ele>
        <time>2017-06-25T15:31:10Z</time>
      </trkpt>
      <trkpt lat="69.518132032826543" lon="20.631589964032173">
        <ele>4.46</ele>
        <time>2017-06-25T15:31:11Z</time>
      </trkpt>
      <trkpt lat="69.518039999529719" lon="20.631890958175063">
        <ele>3.98</ele>
        <time>2017-06-25T15:31:12Z</time>
      </trkpt>
      <trkpt lat="69.517937991768122" lon="20.632178038358688">
        <ele>3.98</ele>
        <time>2017-06-25T15:31:13Z</time>
      </trkpt>
      <trkpt lat="69.517828021198511" lon="20.632442990317941">
        <ele>3.5</ele>
        <time>2017-06-25T15:31:14Z</time>
      </trkpt>
      <trkpt lat="69.517711009830236" lon="20.632684975862503">
        <ele>3.5</ele>
        <time>2017-06-25T15:31:15Z</time>
      </trkpt>
      <trkpt lat="69.517591986805201" lon="20.632903994992375">
        <ele>3.5</ele>
        <time>2017-06-25T15:31:16Z</time>
      </trkpt>
      <trkpt lat="69.517466006800532" lon="20.633094012737274">
        <ele>3.02</ele>
        <time>2017-06-25T15:31:17Z</time>
      </trkpt>
      <trkpt lat="69.517339020967484" lon="20.633257040753961">
        <ele>3.5</ele>
        <time>2017-06-25T15:31:18Z</time>
      </trkpt>
      <trkpt lat="69.517207005992532" lon="20.633388971909881">
        <ele>3.5</ele>
        <time>2017-06-25T15:31:19Z</time>
      </trkpt>
      <trkpt lat="69.517070967704058" lon="20.633509000763297">
        <ele>3.5</ele>
        <time>2017-06-25T15:31:20Z</time>
      </trkpt>
      <trkpt lat="69.516584984958172" lon="20.634048040956259">
        <ele>3.98</ele>
        <time>2017-06-25T15:31:24Z</time>
      </trkpt>
      <trkpt lat="69.516480965539813" lon="20.634253984317183">
        <ele>3.98</ele>
        <time>2017-06-25T15:31:25Z</time>
      </trkpt>
      <trkpt lat="69.51638599857688" lon="20.634505022317171">
        <ele>3.98</ele>
        <time>2017-06-25T15:31:26Z</time>
      </trkpt>
      <trkpt lat="69.516294971108437" lon="20.634818002581596">
        <ele>3.98</ele>
        <time>2017-06-25T15:31:27Z</time>
      </trkpt>
      <trkpt lat="69.516207966953516" lon="20.635188985615969">
        <ele>3.98</ele>
        <time>2017-06-25T15:31:28Z</time>
      </trkpt>
      <trkpt lat="69.516122974455357" lon="20.635606991127133">
        <ele>3.5</ele>
        <time>2017-06-25T15:31:29Z</time>
      </trkpt>
      <trkpt lat="69.516040999442339" lon="20.636045029386878">
        <ele>3.98</ele>
        <time>2017-06-25T15:31:30Z</time>
      </trkpt>
      <trkpt lat="69.515017988160253" lon="20.640982976183295">
        <ele>7.35</ele>
        <time>2017-06-25T15:31:41Z</time>
      </trkpt>
      <trkpt lat="69.51127496547997" lon="20.697617987170815">
        <ele>3.98</ele>
        <time>2017-06-25T15:33:27Z</time>
      </trkpt>
      <trkpt lat="69.511860022321343" lon="20.702233985066414">
        <ele>0.14</ele>
        <time>2017-06-25T15:33:36Z</time>
      </trkpt>
      <trkpt lat="69.512611040845513" lon="20.706995995715261">
        <ele>2.54</ele>
        <time>2017-06-25T15:33:45Z</time>
      </trkpt>
      <trkpt lat="69.512635013088584" lon="20.71058202534914">
        <ele>2.06</ele>
        <time>2017-06-25T15:33:51Z</time>
      </trkpt>
      <trkpt lat="69.512437032535672" lon="20.716737024486065">
        <ele>6.87</ele>
        <time>2017-06-25T15:34:01Z</time>
      </trkpt>
      <trkpt lat="69.512552032247186" lon="20.721707995980978">
        <ele>11.67</ele>
        <time>2017-06-25T15:34:10Z</time>
      </trkpt>
      <trkpt lat="69.495853018015623" lon="20.796795012429357">
        <ele>-13.32</ele>
        <time>2017-06-25T15:36:18Z</time>
      </trkpt>
      <trkpt lat="69.493381027132273" lon="20.805631969124079">
        <ele>-11.880000000000001</ele>
        <time>2017-06-25T15:36:34Z</time>
      </trkpt>
      <trkpt lat="69.491815036162734" lon="20.811468036845326">
        <ele>-11.880000000000001</ele>
        <time>2017-06-25T15:36:45Z</time>
      </trkpt>
      <trkpt lat="69.491296028718352" lon="20.815167976543307">
        <ele>-9.48</ele>
        <time>2017-06-25T15:36:52Z</time>
      </trkpt>
      <trkpt lat="69.491312960162759" lon="20.819217022508383">
        <ele>-9</ele>
        <time>2017-06-25T15:36:59Z</time>
      </trkpt>
      <trkpt lat="69.49178796261549" lon="20.822427039965987">
        <ele>-7.55</ele>
        <time>2017-06-25T15:37:05Z</time>
      </trkpt>
      <trkpt lat="69.492755988612771" lon="20.825064992532134">
        <ele>-6.59</ele>
        <time>2017-06-25T15:37:12Z</time>
      </trkpt>
      <trkpt lat="69.493800038471818" lon="20.826167967170477">
        <ele>-5.15</ele>
        <time>2017-06-25T15:37:18Z</time>
      </trkpt>
      <trkpt lat="69.495017006993294" lon="20.82591600716114">
        <ele>-4.19</ele>
        <time>2017-06-25T15:37:24Z</time>
      </trkpt>
      <trkpt lat="69.496174966916442" lon="20.824266029521823">
        <ele>-4.67</ele>
        <time>2017-06-25T15:37:30Z</time>
      </trkpt>
      <trkpt lat="69.499442987143993" lon="20.817742981016636">
        <ele>1.58</ele>
        <time>2017-06-25T15:37:48Z</time>
      </trkpt>
      <trkpt lat="69.50059600174427" lon="20.813682032749057">
        <ele>-0.82</ele>
        <time>2017-06-25T15:37:56Z</time>
      </trkpt>
      <trkpt lat="69.502024026587605" lon="20.809537013992667">
        <ele>-3.23</ele>
        <time>2017-06-25T15:38:05Z</time>
      </trkpt>
      <trkpt lat="69.504149006679654" lon="20.803493997082114">
        <ele>-3.23</ele>
        <time>2017-06-25T15:38:18Z</time>
      </trkpt>
      <trkpt lat="69.505829997360706" lon="20.79998399131">
        <ele>-2.27</ele>
        <time>2017-06-25T15:38:27Z</time>
      </trkpt>
      <trkpt lat="69.506798023357987" lon="20.797559022903442">
        <ele>-2.75</ele>
        <time>2017-06-25T15:38:33Z</time>
      </trkpt>
      <trkpt lat="69.506990974768996" lon="20.797287030145526">
        <ele>-2.75</ele>
        <time>2017-06-25T15:38:34Z</time>
      </trkpt>
      <trkpt lat="69.50719297863543" lon="20.79706097021699">
        <ele>-2.27</ele>
        <time>2017-06-25T15:38:35Z</time>
      </trkpt>
      <trkpt lat="69.509120984002948" lon="20.794925009831786">
        <ele>-1.3</ele>
        <time>2017-06-25T15:38:44Z</time>
      </trkpt>
      <trkpt lat="69.510883027687669" lon="20.791683979332447">
        <ele>0.62</ele>
        <time>2017-06-25T15:38:53Z</time>
      </trkpt>
      <trkpt lat="69.513128036633134" lon="20.7867700047791">
        <ele>1.1</ele>
        <time>2017-06-25T15:39:05Z</time>
      </trkpt>
      <trkpt lat="69.516157004982233" lon="20.781652014702559">
        <ele>0.62</ele>
        <time>2017-06-25T15:39:20Z</time>
      </trkpt>
      <trkpt lat="69.517691982910037" lon="20.778807029128075">
        <ele>1.58</ele>
        <time>2017-06-25T15:39:28Z</time>
      </trkpt>
      <trkpt lat="69.520074035972357" lon="20.774183990433812">
        <ele>2.06</ele>
        <time>2017-06-25T15:39:40Z</time>
      </trkpt>
      <trkpt lat="69.521719990298152" lon="20.770800970494747">
        <ele>4.46</ele>
        <time>2017-06-25T15:39:49Z</time>
      </trkpt>
      <trkpt lat="69.522994039580226" lon="20.76906600035727">
        <ele>3.5</ele>
        <time>2017-06-25T15:39:56Z</time>
      </trkpt>
      <trkpt lat="69.523130999878049" lon="20.768738016486168">
        <ele>3.5</ele>
        <time>2017-06-25T15:39:57Z</time>
      </trkpt>
      <trkpt lat="69.523250022903085" lon="20.768370972946286">
        <ele>3.5</ele>
        <time>2017-06-25T15:39:58Z</time>
      </trkpt>
      <trkpt lat="69.52334800735116" lon="20.767960008233786">
        <ele>3.98</ele>
        <time>2017-06-25T15:39:59Z</time>
      </trkpt>
      <trkpt lat="69.5234340056777" lon="20.767522975802422">
        <ele>4.46</ele>
        <time>2017-06-25T15:40:00Z</time>
      </trkpt>
      <trkpt lat="69.523508017882705" lon="20.76704797334969">
        <ele>4.46</ele>
        <time>2017-06-25T15:40:01Z</time>
      </trkpt>
      <trkpt lat="69.523574989289045" lon="20.766556961461902">
        <ele>4.46</ele>
        <time>2017-06-25T15:40:02Z</time>
      </trkpt>
      <trkpt lat="69.52427102252841" lon="20.761815989390016">
        <ele>4.94</ele>
        <time>2017-06-25T15:40:11Z</time>
      </trkpt>
      <trkpt lat="69.524609986692667" lon="20.759210977703333">
        <ele>4.46</ele>
        <time>2017-06-25T15:40:16Z</time>
      </trkpt>
      <trkpt lat="69.524634964764118" lon="20.758703034371138">
        <ele>4.94</ele>
        <time>2017-06-25T15:40:17Z</time>
      </trkpt>
      <trkpt lat="69.524640999734402" lon="20.758195007219911">
        <ele>4.94</ele>
        <time>2017-06-25T15:40:18Z</time>
      </trkpt>
      <trkpt lat="69.524636976420879" lon="20.75767801143229">
        <ele>4.94</ele>
        <time>2017-06-25T15:40:19Z</time>
      </trkpt>
      <trkpt lat="69.524619961157441" lon="20.75716101564467">
        <ele>5.42</ele>
        <time>2017-06-25T15:40:20Z</time>
      </trkpt>
      <trkpt lat="69.524590959772468" lon="20.756649971008301">
        <ele>5.42</ele>
        <time>2017-06-25T15:40:21Z</time>
      </trkpt>
      <trkpt lat="69.524546032771468" lon="20.756144961342216">
        <ele>5.42</ele>
        <time>2017-06-25T15:40:22Z</time>
      </trkpt>
      <trkpt lat="69.524488030001521" lon="20.755665013566613">
        <ele>5.42</ele>
        <time>2017-06-25T15:40:23Z</time>
      </trkpt>
      <trkpt lat="69.524411000311375" lon="20.755199985578656">
        <ele>5.42</ele>
        <time>2017-06-25T15:40:24Z</time>
      </trkpt>
      <trkpt lat="69.524326007813215" lon="20.754765970632434">
        <ele>5.42</ele>
        <time>2017-06-25T15:40:25Z</time>
      </trkpt>
      <trkpt lat="69.524224000051618" lon="20.754350982606411">
        <ele>5.42</ele>
        <time>2017-06-25T15:40:26Z</time>
      </trkpt>
      <trkpt lat="69.524119980633259" lon="20.753974970430136">
        <ele>5.42</ele>
        <time>2017-06-25T15:40:27Z</time>
      </trkpt>
      <trkpt lat="69.524005986750126" lon="20.753603987395763">
        <ele>5.42</ele>
        <time>2017-06-25T15:40:28Z</time>
      </trkpt>
      <trkpt lat="69.523065034300089" lon="20.749563993886113">
        <ele>5.42</ele>
        <time>2017-06-25T15:40:38Z</time>
      </trkpt>
      <trkpt lat="69.522966966032982" lon="20.746175022795796">
        <ele>5.42</ele>
        <time>2017-06-25T15:40:45Z</time>
      </trkpt>
      <trkpt lat="69.523364016786218" lon="20.742872972041368">
        <ele>5.91</ele>
        <time>2017-06-25T15:40:52Z</time>
      </trkpt>
      <trkpt lat="69.524264987558126" lon="20.737601006403565">
        <ele>5.91</ele>
        <time>2017-06-25T15:41:01Z</time>
      </trkpt>
      <trkpt lat="69.525244999676943" lon="20.72974699549377">
        <ele>7.35</ele>
        <time>2017-06-25T15:41:14Z</time>
      </trkpt>
      <trkpt lat="69.52560399658978" lon="20.725366026163101">
        <ele>5.42</ele>
        <time>2017-06-25T15:41:21Z</time>
      </trkpt>
      <trkpt lat="69.525683959946036" lon="20.71698303334415">
        <ele>2.54</ele>
        <time>2017-06-25T15:41:34Z</time>
      </trkpt>
      <trkpt lat="69.52562402933836" lon="20.716415997594595">
        <ele>2.54</ele>
        <time>2017-06-25T15:41:35Z</time>
      </trkpt>
      <trkpt lat="69.525545993819833" lon="20.715877963230014">
        <ele>2.54</ele>
        <time>2017-06-25T15:41:36Z</time>
      </trkpt>
      <trkpt lat="69.524719035252929" lon="20.710849994793534">
        <ele>3.02</ele>
        <time>2017-06-25T15:41:45Z</time>
      </trkpt>
      <trkpt lat="69.524415023624897" lon="20.706754010170698">
        <ele>-1.3</ele>
        <time>2017-06-25T15:41:52Z</time>
      </trkpt>
      <trkpt lat="69.524498004466295" lon="20.700878966599703">
        <ele>-2.75</ele>
        <time>2017-06-25T15:42:01Z</time>
      </trkpt>
      <trkpt lat="69.524623984470963" lon="20.69537297822535">
        <ele>5.91</ele>
        <time>2017-06-25T15:42:10Z</time>
      </trkpt>
      <trkpt lat="69.52459498308599" lon="20.694886995479465">
        <ele>6.87</ele>
        <time>2017-06-25T15:42:11Z</time>
      </trkpt>
      <trkpt lat="69.524556007236242" lon="20.694423979148269">
        <ele>7.83</ele>
        <time>2017-06-25T15:42:12Z</time>
      </trkpt>
      <trkpt lat="69.524475960060954" lon="20.690666036680341">
        <ele>17.440000000000001</ele>
        <time>2017-06-25T15:42:20Z</time>
      </trkpt>
      <trkpt lat="69.524532034993172" lon="20.690158009529114">
        <ele>18.399999999999999</ele>
        <time>2017-06-25T15:42:21Z</time>
      </trkpt>
      <trkpt lat="69.524604035541415" lon="20.689662974327803">
        <ele>19.359999999999999</ele>
        <time>2017-06-25T15:42:22Z</time>
      </trkpt>
      <trkpt lat="69.524692967534065" lon="20.689187971875072">
        <ele>19.84</ele>
        <time>2017-06-25T15:42:23Z</time>
      </trkpt>
      <trkpt lat="69.524802016094327" lon="20.688737025484443">
        <ele>20.809999999999999</ele>
        <time>2017-06-25T15:42:24Z</time>
      </trkpt>
      <trkpt lat="69.524926990270615" lon="20.688305022194982">
        <ele>20.809999999999999</ele>
        <time>2017-06-25T15:42:25Z</time>
      </trkpt>
      <trkpt lat="69.52506797388196" lon="20.687886010855436">
        <ele>21.289999999999999</ele>
        <time>2017-06-25T15:42:26Z</time>
      </trkpt>
      <trkpt lat="69.525221027433872" lon="20.687472028657794">
        <ele>21.289999999999999</ele>
        <time>2017-06-25T15:42:27Z</time>
      </trkpt>
      <trkpt lat="69.52676497399807" lon="20.684123961254954">
        <ele>16.48</ele>
        <time>2017-06-25T15:42:36Z</time>
      </trkpt>
      <trkpt lat="69.526900006458163" lon="20.683696987107396">
        <ele>16</ele>
        <time>2017-06-25T15:42:37Z</time>
      </trkpt>
      <trkpt lat="69.527018023654819" lon="20.683222990483046">
        <ele>16</ele>
        <time>2017-06-25T15:42:38Z</time>
      </trkpt>
      <trkpt lat="69.527124976739287" lon="20.682677999138832">
        <ele>15.52</ele>
        <time>2017-06-25T15:42:39Z</time>
      </trkpt>
      <trkpt lat="69.527832996100187" lon="20.678607998415828">
        <ele>10.23</ele>
        <time>2017-06-25T15:42:45Z</time>
      </trkpt>
      <trkpt lat="69.529321035370231" lon="20.669930968433619">
        <ele>-1.3</ele>
        <time>2017-06-25T15:42:58Z</time>
      </trkpt>
      <trkpt lat="69.530397020280361" lon="20.665523009374738">
        <ele>1.1</ele>
        <time>2017-06-25T15:43:06Z</time>
      </trkpt>
      <trkpt lat="69.531868966296315" lon="20.661647971719503">
        <ele>4.46</ele>
        <time>2017-06-25T15:43:15Z</time>
      </trkpt>
      <trkpt lat="69.534850995987654" lon="20.654823007062078">
        <ele>0.62</ele>
        <time>2017-06-25T15:43:31Z</time>
      </trkpt>
      <trkpt lat="69.536095038056374" lon="20.650656027719378">
        <ele>-1.79</ele>
        <time>2017-06-25T15:43:39Z</time>
      </trkpt>
      <trkpt lat="69.538247007876635" lon="20.64225903712213">
        <ele>2.06</ele>
        <time>2017-06-25T15:43:54Z</time>
      </trkpt>
      <trkpt lat="69.53920598141849" lon="20.639791991561651">
        <ele>1.1</ele>
        <time>2017-06-25T15:44:00Z</time>
      </trkpt>
      <trkpt lat="69.541019992902875" lon="20.636104037985206">
        <ele>0.14</ele>
        <time>2017-06-25T15:44:09Z</time>
      </trkpt>
      <trkpt lat="69.542992003262043" lon="20.631991038098931">
        <ele>0.62</ele>
        <time>2017-06-25T15:44:20Z</time>
      </trkpt>
      <trkpt lat="69.545046994462609" lon="20.6283800303936">
        <ele>3.98</ele>
        <time>2017-06-25T15:44:30Z</time>
      </trkpt>
      <trkpt lat="69.547274988144636" lon="20.623655989766121">
        <ele>1.58</ele>
        <time>2017-06-25T15:44:41Z</time>
      </trkpt>
      <trkpt lat="69.548286013305187" lon="20.621310984715819">
        <ele>1.1</ele>
        <time>2017-06-25T15:44:47Z</time>
      </trkpt>
      <trkpt lat="69.550088038668036" lon="20.618291990831494">
        <ele>-0.82</ele>
        <time>2017-06-25T15:44:56Z</time>
      </trkpt>
      <trkpt lat="69.553217003121972" lon="20.612727999687195">
        <ele>2.06</ele>
        <time>2017-06-25T15:45:11Z</time>
      </trkpt>
      <trkpt lat="69.554448975250125" lon="20.610165987163782">
        <ele>4.94</ele>
        <time>2017-06-25T15:45:18Z</time>
      </trkpt>
      <trkpt lat="69.554753992706537" lon="20.609550001099706">
        <ele>3.98</ele>
        <time>2017-06-25T15:45:20Z</time>
      </trkpt>
      <trkpt lat="69.554923977702856" lon="20.609291000291705">
        <ele>3.5</ele>
        <time>2017-06-25T15:45:21Z</time>
      </trkpt>
      <trkpt lat="69.556332975625992" lon="20.607577990740538">
        <ele>0.62</ele>
        <time>2017-06-25T15:45:28Z</time>
      </trkpt>
      <trkpt lat="69.55884201452136" lon="20.603260975331068">
        <ele>-0.34</ele>
        <time>2017-06-25T15:45:40Z</time>
      </trkpt>
      <trkpt lat="69.56103396601975" lon="20.599131966009736">
        <ele>1.58</ele>
        <time>2017-06-25T15:45:51Z</time>
      </trkpt>
      <trkpt lat="69.562941016629338" lon="20.596774974837899">
        <ele>5.42</ele>
        <time>2017-06-25T15:46:00Z</time>
      </trkpt>
      <trkpt lat="69.566237032413483" lon="20.593877015635371">
        <ele>0.62</ele>
        <time>2017-06-25T15:46:14Z</time>
      </trkpt>
      <trkpt lat="69.569041030481458" lon="20.591894024983048">
        <ele>-0.34</ele>
        <time>2017-06-25T15:46:26Z</time>
      </trkpt>
      <trkpt lat="69.5723129902035" lon="20.590254021808505">
        <ele>3.02</ele>
        <time>2017-06-25T15:46:40Z</time>
      </trkpt>
      <trkpt lat="69.575172979384661" lon="20.587056996300817">
        <ele>4.94</ele>
        <time>2017-06-25T15:46:53Z</time>
      </trkpt>
      <trkpt lat="69.577852003276348" lon="20.58532202616334">
        <ele>4.46</ele>
        <time>2017-06-25T15:47:05Z</time>
      </trkpt>
      <trkpt lat="69.579539028927684" lon="20.585213983431458">
        <ele>1.1</ele>
        <time>2017-06-25T15:47:13Z</time>
      </trkpt>
      <trkpt lat="69.579943958669901" lon="20.585185987874866">
        <ele>1.1</ele>
        <time>2017-06-25T15:47:15Z</time>
      </trkpt>
      <trkpt lat="69.580139005556703" lon="20.58511096984148">
        <ele>1.1</ele>
        <time>2017-06-25T15:47:16Z</time>
      </trkpt>
      <trkpt lat="69.58032600581646" lon="20.584988007321954">
        <ele>1.58</ele>
        <time>2017-06-25T15:47:17Z</time>
      </trkpt>
      <trkpt lat="69.580501019954681" lon="20.584804024547338">
        <ele>2.06</ele>
        <time>2017-06-25T15:47:18Z</time>
      </trkpt>
      <trkpt lat="69.580665975809097" lon="20.584567990154028">
        <ele>2.54</ele>
        <time>2017-06-25T15:47:19Z</time>
      </trkpt>
      <trkpt lat="69.580827997997403" lon="20.584289040416479">
        <ele>3.5</ele>
        <time>2017-06-25T15:47:20Z</time>
      </trkpt>
      <trkpt lat="69.580990020185709" lon="20.583985028788447">
        <ele>3.98</ele>
        <time>2017-06-25T15:47:21Z</time>
      </trkpt>
      <trkpt lat="69.583150036633015" lon="20.579899018630385">
        <ele>3.98</ele>
        <time>2017-06-25T15:47:33Z</time>
      </trkpt>
      <trkpt lat="69.586140029132366" lon="20.574192032217979">
        <ele>2.06</ele>
        <time>2017-06-25T15:47:49Z</time>
      </trkpt>
      <trkpt lat="69.587399996817112" lon="20.571026019752026">
        <ele>1.58</ele>
        <time>2017-06-25T15:47:56Z</time>
      </trkpt>
      <trkpt lat="69.589133961126208" lon="20.566494008526206">
        <ele>3.98</ele>
        <time>2017-06-25T15:48:06Z</time>
      </trkpt>
      <trkpt lat="69.591270005330443" lon="20.561277028173208">
        <ele>7.35</ele>
        <time>2017-06-25T15:48:18Z</time>
      </trkpt>
      <trkpt lat="69.593209996819496" lon="20.557280033826828">
        <ele>7.83</ele>
        <time>2017-06-25T15:48:28Z</time>
      </trkpt>
      <trkpt lat="69.594876989722252" lon="20.554267996922135">
        <ele>6.87</ele>
        <time>2017-06-25T15:48:37Z</time>
      </trkpt>
      <trkpt lat="69.596870038658381" lon="20.550659000873566">
        <ele>11.19</ele>
        <time>2017-06-25T15:48:51Z</time>
      </trkpt>
      <trkpt lat="69.598865015432239" lon="20.546996025368571">
        <ele>6.87</ele>
        <time>2017-06-25T15:49:05Z</time>
      </trkpt>
      <trkpt lat="69.600753039121628" lon="20.543531030416489">
        <ele>4.46</ele>
        <time>2017-06-25T15:49:18Z</time>
      </trkpt>
      <trkpt lat="69.601806979626417" lon="20.540696019306779">
        <ele>1.1</ele>
        <time>2017-06-25T15:49:27Z</time>
      </trkpt>
      <trkpt lat="69.603066025301814" lon="20.53694000467658">
        <ele>2.06</ele>
        <time>2017-06-25T15:49:40Z</time>
      </trkpt>
      <trkpt lat="69.604136981070042" lon="20.532845025882125">
        <ele>6.87</ele>
        <time>2017-06-25T15:49:53Z</time>
      </trkpt>
      <trkpt lat="69.605585960671306" lon="20.527126975357533">
        <ele>2.54</ele>
        <time>2017-06-25T15:50:10Z</time>
      </trkpt>
      <trkpt lat="69.606622969731688" lon="20.521725006401539">
        <ele>5.42</ele>
        <time>2017-06-25T15:50:23Z</time>
      </trkpt>
      <trkpt lat="69.60778302513063" lon="20.515509992837906">
        <ele>2.06</ele>
        <time>2017-06-25T15:50:36Z</time>
      </trkpt>
      <trkpt lat="69.609045004472136" lon="20.507744997739792">
        <ele>10.710000000000001</ele>
        <time>2017-06-25T15:50:52Z</time>
      </trkpt>
      <trkpt lat="69.610017975792289" lon="20.502575961872935">
        <ele>8.789999999999999</ele>
        <time>2017-06-25T15:51:03Z</time>
      </trkpt>
      <trkpt lat="69.611680023372173" lon="20.498025007545948">
        <ele>10.710000000000001</ele>
        <time>2017-06-25T15:51:15Z</time>
      </trkpt>
      <trkpt lat="69.614671021699905" lon="20.489850975573063">
        <ele>21.77</ele>
        <time>2017-06-25T15:51:37Z</time>
      </trkpt>
      <trkpt lat="69.61644203402102" lon="20.48576002009213">
        <ele>21.77</ele>
        <time>2017-06-25T15:51:49Z</time>
      </trkpt>
      <trkpt lat="69.619285007938743" lon="20.481023993343115">
        <ele>21.289999999999999</ele>
        <time>2017-06-25T15:52:05Z</time>
      </trkpt>
      <trkpt lat="69.621294988319278" lon="20.478480001911521">
        <ele>21.289999999999999</ele>
        <time>2017-06-25T15:52:14Z</time>
      </trkpt>
      <trkpt lat="69.623700007796288" lon="20.476390980184078">
        <ele>20.809999999999999</ele>
        <time>2017-06-25T15:52:24Z</time>
      </trkpt>
      <trkpt lat="69.629645040258765" lon="20.472060972824693">
        <ele>16.960000000000001</ele>
        <time>2017-06-25T15:52:48Z</time>
      </trkpt>
      <trkpt lat="69.631969006732106" lon="20.470357015728951">
        <ele>18.399999999999999</ele>
        <time>2017-06-25T15:52:58Z</time>
      </trkpt>
      <trkpt lat="69.634925974532962" lon="20.467545976862311">
        <ele>28.5</ele>
        <time>2017-06-25T15:53:11Z</time>
      </trkpt>
      <trkpt lat="69.635938005521894" lon="20.465945033356547">
        <ele>38.109999999999999</ele>
        <time>2017-06-25T15:53:17Z</time>
      </trkpt>
      <trkpt lat="69.637247007340193" lon="20.464187012985349">
        <ele>47.240000000000002</ele>
        <time>2017-06-25T15:53:25Z</time>
      </trkpt>
      <trkpt lat="69.637429984286427" lon="20.464099003002048">
        <ele>48.68</ele>
        <time>2017-06-25T15:53:26Z</time>
      </trkpt>
      <trkpt lat="69.637614972889423" lon="20.464048963040113">
        <ele>49.649999999999999</ele>
        <time>2017-06-25T15:53:27Z</time>
      </trkpt>
      <trkpt lat="69.639466032385826" lon="20.464014010503888">
        <ele>57.82</ele>
        <time>2017-06-25T15:53:36Z</time>
      </trkpt>
      <trkpt lat="69.642488965764642" lon="20.464220959693193">
        <ele>55.890000000000001</ele>
        <time>2017-06-25T15:53:49Z</time>
      </trkpt>
      <trkpt lat="69.644552003592253" lon="20.465915026143193">
        <ele>61.18</ele>
        <time>2017-06-25T15:53:58Z</time>
      </trkpt>
      <trkpt lat="69.646155964583158" lon="20.468074036762118">
        <ele>63.579999999999998</ele>
        <time>2017-06-25T15:54:06Z</time>
      </trkpt>
      <trkpt lat="69.646690981462598" lon="20.469050025567412">
        <ele>59.740000000000002</ele>
        <time>2017-06-25T15:54:09Z</time>
      </trkpt>
      <trkpt lat="69.646873036399484" lon="20.469263009727001">
        <ele>59.259999999999998</ele>
        <time>2017-06-25T15:54:10Z</time>
      </trkpt>
      <trkpt lat="69.647057019174099" lon="20.469402987509966">
        <ele>58.780000000000001</ele>
        <time>2017-06-25T15:54:11Z</time>
      </trkpt>
      <trkpt lat="69.647242007777095" lon="20.469476999714971">
        <ele>58.780000000000001</ele>
        <time>2017-06-25T15:54:12Z</time>
      </trkpt>
      <trkpt lat="69.647426996380091" lon="20.469515975564718">
        <ele>58.780000000000001</ele>
        <time>2017-06-25T15:54:13Z</time>
      </trkpt>
      <trkpt lat="69.649342009797692" lon="20.470175966620445">
        <ele>47.719999999999999</ele>
        <time>2017-06-25T15:54:23Z</time>
      </trkpt>
      <trkpt lat="69.650633996352553" lon="20.47130199149251">
        <ele>37.149999999999999</ele>
        <time>2017-06-25T15:54:30Z</time>
      </trkpt>
      <trkpt lat="69.652496036142111" lon="20.472239004448056">
        <ele>25.129999999999999</ele>
        <time>2017-06-25T15:54:40Z</time>
      </trkpt>
      <trkpt lat="69.652670966461301" lon="20.472384011372924">
        <ele>23.690000000000001</ele>
        <time>2017-06-25T15:54:41Z</time>
      </trkpt>
      <trkpt lat="69.653145968914032" lon="20.472794976085424">
        <ele>20.32</ele>
        <time>2017-06-25T15:54:44Z</time>
      </trkpt>
      <trkpt lat="69.653283013030887" lon="20.472814003005624">
        <ele>19.359999999999999</ele>
        <time>2017-06-25T15:54:45Z</time>
      </trkpt>
      <trkpt lat="69.653418967500329" lon="20.472750971093774">
        <ele>17.920000000000002</ele>
        <time>2017-06-25T15:54:46Z</time>
      </trkpt>
      <trkpt lat="69.653564980253577" lon="20.472643012180924">
        <ele>17.440000000000001</ele>
        <time>2017-06-25T15:54:47Z</time>
      </trkpt>
      <trkpt lat="69.653717027977109" lon="20.472514014691114">
        <ele>16.48</ele>
        <time>2017-06-25T15:54:48Z</time>
      </trkpt>
      <trkpt lat="69.654409037902951" lon="20.472155017778277">
        <ele>13.6</ele>
        <time>2017-06-25T15:54:52Z</time>
      </trkpt>
      <trkpt lat="69.654596960172057" lon="20.472165998071432">
        <ele>13.6</ele>
        <time>2017-06-25T15:54:53Z</time>
      </trkpt>
      <trkpt lat="69.654783960431814" lon="20.472231041640043">
        <ele>13.6</ele>
        <time>2017-06-25T15:54:54Z</time>
      </trkpt>
      <trkpt lat="69.657036010175943" lon="20.473666023463011">
        <ele>2.54</ele>
        <time>2017-06-25T15:55:06Z</time>
      </trkpt>
      <trkpt lat="69.658121969550848" lon="20.474118981510401">
        <ele>-1.3</ele>
        <time>2017-06-25T15:55:12Z</time>
      </trkpt>
      <trkpt lat="69.658315004780889" lon="20.474044969305396">
        <ele>-1.79</ele>
        <time>2017-06-25T15:55:13Z</time>
      </trkpt>
      <trkpt lat="69.65967102907598" lon="20.473468964919448">
        <ele>1.58</ele>
        <time>2017-06-25T15:55:19Z</time>
      </trkpt>
      <trkpt lat="69.661171976476908" lon="20.473070992156863">
        <ele>6.87</ele>
        <time>2017-06-25T15:55:26Z</time>
      </trkpt>
      <trkpt lat="69.661357970908284" lon="20.473163025453687">
        <ele>7.83</ele>
        <time>2017-06-25T15:55:27Z</time>
      </trkpt>
      <trkpt lat="69.661542037501931" lon="20.473303003236651">
        <ele>8.310000000000001</ele>
        <time>2017-06-25T15:55:28Z</time>
      </trkpt>
      <trkpt lat="69.663150021806359" lon="20.474874023348093">
        <ele>8.789999999999999</ele>
        <time>2017-06-25T15:55:36Z</time>
      </trkpt>
      <trkpt lat="69.666070025414228" lon="20.477738035842776">
        <ele>10.710000000000001</ele>
        <time>2017-06-25T15:55:49Z</time>
      </trkpt>
      <trkpt lat="69.668400026857853" lon="20.480042975395918">
        <ele>7.83</ele>
        <time>2017-06-25T15:56:00Z</time>
      </trkpt>
      <trkpt lat="69.669428989291191" lon="20.481900991871953">
        <ele>2.54</ele>
        <time>2017-06-25T15:56:07Z</time>
      </trkpt>
      <trkpt lat="69.669956965371966" lon="20.482978988438845">
        <ele>5.91</ele>
        <time>2017-06-25T15:56:12Z</time>
      </trkpt>
      <trkpt lat="69.670035000890493" lon="20.483247963711619">
        <ele>5.42</ele>
        <time>2017-06-25T15:56:13Z</time>
      </trkpt>
      <trkpt lat="69.670105995610356" lon="20.483560021966696">
        <ele>5.42</ele>
        <time>2017-06-25T15:56:14Z</time>
      </trkpt>
      <trkpt lat="69.670161986723542" lon="20.483905021101236">
        <ele>5.42</ele>
        <time>2017-06-25T15:56:15Z</time>
      </trkpt>
      <trkpt lat="69.67019903473556" lon="20.48427902162075">
        <ele>4.94</ele>
        <time>2017-06-25T15:56:16Z</time>
      </trkpt>
      <trkpt lat="69.670214960351586" lon="20.484670959413052">
        <ele>4.94</ele>
        <time>2017-06-25T15:56:17Z</time>
      </trkpt>
      <trkpt lat="69.670211020857096" lon="20.485083013772964">
        <ele>4.94</ele>
        <time>2017-06-25T15:56:18Z</time>
      </trkpt>
      <trkpt lat="69.670183025300503" lon="20.485506970435381">
        <ele>4.94</ele>
        <time>2017-06-25T15:56:19Z</time>
      </trkpt>
      <trkpt lat="69.670140026137233" lon="20.485936962068081">
        <ele>4.94</ele>
        <time>2017-06-25T15:56:20Z</time>
      </trkpt>
      <trkpt lat="69.670089986175299" lon="20.486379023641348">
        <ele>5.42</ele>
        <time>2017-06-25T15:56:21Z</time>
      </trkpt>
      <trkpt lat="69.669859986752272" lon="20.489990031346679">
        <ele>0.14</ele>
        <time>2017-06-25T15:56:29Z</time>
      </trkpt>
      <trkpt lat="69.66987700201571" lon="20.490916986018419">
        <ele>-1.3</ele>
        <time>2017-06-25T15:56:31Z</time>
      </trkpt>
      <trkpt lat="69.669908015057445" lon="20.491357035934925">
        <ele>-1.3</ele>
        <time>2017-06-25T15:56:32Z</time>
      </trkpt>
      <trkpt lat="69.669959982857108" lon="20.491772023960948">
        <ele>-1.3</ele>
        <time>2017-06-25T15:56:33Z</time>
      </trkpt>
      <trkpt lat="69.670030977576971" lon="20.492148036137223">
        <ele>-1.3</ele>
        <time>2017-06-25T15:56:34Z</time>
      </trkpt>
      <trkpt lat="69.670118987560272" lon="20.492480965331197">
        <ele>-1.3</ele>
        <time>2017-06-25T15:56:35Z</time>
      </trkpt>
      <trkpt lat="69.670223006978631" lon="20.49276502802968">
        <ele>-1.3</ele>
        <time>2017-06-25T15:56:36Z</time>
      </trkpt>
      <trkpt lat="69.670347981154919" lon="20.493005001917481">
        <ele>-1.3</ele>
        <time>2017-06-25T15:56:37Z</time>
      </trkpt>
      <trkpt lat="69.670491982251406" lon="20.493181021884084">
        <ele>-0.82</ele>
        <time>2017-06-25T15:56:38Z</time>
      </trkpt>
      <trkpt lat="69.670656016096473" lon="20.493305996060371">
        <ele>-0.82</ele>
        <time>2017-06-25T15:56:39Z</time>
      </trkpt>
      <trkpt lat="69.670839998871088" lon="20.493406997993588">
        <ele>-1.3</ele>
        <time>2017-06-25T15:56:40Z</time>
      </trkpt>
      <trkpt lat="69.671028004959226" lon="20.49349601380527">
        <ele>-0.82</ele>
        <time>2017-06-25T15:56:41Z</time>
      </trkpt>
      <trkpt lat="69.671902991831303" lon="20.494016027078032">
        <ele>-0.34</ele>
        <time>2017-06-25T15:56:47Z</time>
      </trkpt>
      <trkpt lat="69.673340991139412" lon="20.494880033656955">
        <ele>0.62</ele>
        <time>2017-06-25T15:56:56Z</time>
      </trkpt>
      <trkpt lat="69.674358973279595" lon="20.496485000476241">
        <ele>-0.34</ele>
        <time>2017-06-25T15:57:03Z</time>
      </trkpt>
      <trkpt lat="69.675895040854812" lon="20.500302035361528">
        <ele>4.46</ele>
        <time>2017-06-25T15:57:12Z</time>
      </trkpt>
      <trkpt lat="69.676075000315905" lon="20.500579979270697">
        <ele>4.94</ele>
        <time>2017-06-25T15:57:13Z</time>
      </trkpt>
      <trkpt lat="69.676260994747281" lon="20.500787012279034">
        <ele>5.42</ele>
        <time>2017-06-25T15:57:14Z</time>
      </trkpt>
      <trkpt lat="69.67645101249218" lon="20.500937970355153">
        <ele>6.39</ele>
        <time>2017-06-25T15:57:15Z</time>
      </trkpt>
      <trkpt lat="69.676647987216711" lon="20.501050036400557">
        <ele>6.87</ele>
        <time>2017-06-25T15:57:16Z</time>
      </trkpt>
      <trkpt lat="69.678910011425614" lon="20.502242026850581">
        <ele>10.710000000000001</ele>
        <time>2017-06-25T15:57:28Z</time>
      </trkpt>
      <trkpt lat="69.681228026747704" lon="20.505370991304517">
        <ele>5.42</ele>
        <time>2017-06-25T15:57:43Z</time>
      </trkpt>
      <trkpt lat="69.683165000751615" lon="20.507987989112735">
        <ele>4.94</ele>
        <time>2017-06-25T15:57:54Z</time>
      </trkpt>
      <trkpt lat="69.685055036097765" lon="20.51029602997005">
        <ele>2.06</ele>
        <time>2017-06-25T15:58:04Z</time>
      </trkpt>
      <trkpt lat="69.687486039474607" lon="20.512154968455434">
        <ele>5.91</ele>
        <time>2017-06-25T15:58:15Z</time>
      </trkpt>
      <trkpt lat="69.691816968843341" lon="20.51631398499012">
        <ele>9.27</ele>
        <time>2017-06-25T15:58:34Z</time>
      </trkpt>
      <trkpt lat="69.694919027388096" lon="20.519262989982963">
        <ele>17.440000000000001</ele>
        <time>2017-06-25T15:58:48Z</time>
      </trkpt>
      <trkpt lat="69.697473999112844" lon="20.521776974201202">
        <ele>18.879999999999999</ele>
        <time>2017-06-25T15:59:01Z</time>
      </trkpt>
      <trkpt lat="69.699038984254003" lon="20.524128014221787">
        <ele>18.399999999999999</ele>
        <time>2017-06-25T15:59:11Z</time>
      </trkpt>
      <trkpt lat="69.699896033853292" lon="20.525652011856437">
        <ele>17.440000000000001</ele>
        <time>2017-06-25T15:59:16Z</time>
      </trkpt>
      <trkpt lat="69.700084961950779" lon="20.525858961045742">
        <ele>17.440000000000001</ele>
        <time>2017-06-25T15:59:17Z</time>
      </trkpt>
      <trkpt lat="69.700284032151103" lon="20.526026012375951">
        <ele>17.920000000000002</ele>
        <time>2017-06-25T15:59:18Z</time>
      </trkpt>
      <trkpt lat="69.701979020610452" lon="20.527197970077395">
        <ele>18.399999999999999</ele>
        <time>2017-06-25T15:59:26Z</time>
      </trkpt>
      <trkpt lat="69.704437013715506" lon="20.528707969933748">
        <ele>16.960000000000001</ele>
        <time>2017-06-25T15:59:39Z</time>
      </trkpt>
      <trkpt lat="69.707479979842901" lon="20.529862996190786">
        <ele>17.440000000000001</ele>
        <time>2017-06-25T15:59:55Z</time>
      </trkpt>
      <trkpt lat="69.708484970033169" lon="20.531011987477541">
        <ele>16.48</ele>
        <time>2017-06-25T16:00:01Z</time>
      </trkpt>
      <trkpt lat="69.708654033020139" lon="20.531098991632462">
        <ele>16</ele>
        <time>2017-06-25T16:00:02Z</time>
      </trkpt>
      <trkpt lat="69.708823012188077" lon="20.531099997460842">
        <ele>16</ele>
        <time>2017-06-25T16:00:03Z</time>
      </trkpt>
      <trkpt lat="69.708999032154679" lon="20.531035959720612">
        <ele>16</ele>
        <time>2017-06-25T16:00:04Z</time>
      </trkpt>
      <trkpt lat="69.709184020757675" lon="20.530909979715943">
        <ele>16</ele>
        <time>2017-06-25T16:00:05Z</time>
      </trkpt>
      <trkpt lat="69.709374960511923" lon="20.530741000548005">
        <ele>16</ele>
        <time>2017-06-25T16:00:06Z</time>
      </trkpt>
      <trkpt lat="69.710984034463763" lon="20.529485978186131">
        <ele>16.48</ele>
        <time>2017-06-25T16:00:14Z</time>
      </trkpt>
      <trkpt lat="69.712715987116098" lon="20.529209962114692">
        <ele>15.52</ele>
        <time>2017-06-25T16:00:21Z</time>
      </trkpt>
      <trkpt lat="69.714779024943709" lon="20.528952972963452">
        <ele>15.039999999999999</ele>
        <time>2017-06-25T16:00:30Z</time>
      </trkpt>
      <trkpt lat="69.716515000909567" lon="20.528307985514402">
        <ele>14.08</ele>
        <time>2017-06-25T16:00:40Z</time>
      </trkpt>
      <trkpt lat="69.717604983597994" lon="20.526457009837031">
        <ele>10.23</ele>
        <time>2017-06-25T16:00:48Z</time>
      </trkpt>
      <trkpt lat="69.717889968305826" lon="20.526102958247066">
        <ele>9.75</ele>
        <time>2017-06-25T16:00:50Z</time>
      </trkpt>
      <trkpt lat="69.718044027686119" lon="20.52600497379899">
        <ele>8.789999999999999</ele>
        <time>2017-06-25T16:00:51Z</time>
      </trkpt>
      <trkpt lat="69.718200014904141" lon="20.525968009606004">
        <ele>7.83</ele>
        <time>2017-06-25T16:00:52Z</time>
      </trkpt>
      <trkpt lat="69.718358013778925" lon="20.525994999334216">
        <ele>6.87</ele>
        <time>2017-06-25T16:00:53Z</time>
      </trkpt>
      <trkpt lat="69.718520035967231" lon="20.526084015145898">
        <ele>6.39</ele>
        <time>2017-06-25T16:00:54Z</time>
      </trkpt>
      <trkpt lat="69.718679040670395" lon="20.526218041777611">
        <ele>4.94</ele>
        <time>2017-06-25T16:00:55Z</time>
      </trkpt>
      <trkpt lat="69.718837039545178" lon="20.526386015117168">
        <ele>3.98</ele>
        <time>2017-06-25T16:00:56Z</time>
      </trkpt>
      <trkpt lat="69.72028199583292" lon="20.527301989495754">
        <ele>1.1</ele>
        <time>2017-06-25T16:01:05Z</time>
      </trkpt>
      <trkpt lat="69.722879966720939" lon="20.526865962892771">
        <ele>-1.79</ele>
        <time>2017-06-25T16:01:21Z</time>
      </trkpt>
      <trkpt lat="69.725841963663697" lon="20.526363970711827">
        <ele>-0.82</ele>
        <time>2017-06-25T16:01:38Z</time>
      </trkpt>
      <trkpt lat="69.729204028844833" lon="20.525800958275795">
        <ele>-0.82</ele>
        <time>2017-06-25T16:01:56Z</time>
      </trkpt>
      <trkpt lat="69.731602007523179" lon="20.525201987475157">
        <ele>-1.79</ele>
        <time>2017-06-25T16:02:09Z</time>
      </trkpt>
      <trkpt lat="69.734248006716371" lon="20.523187983781099">
        <ele>-3.23</ele>
        <time>2017-06-25T16:02:24Z</time>
      </trkpt>
      <trkpt lat="69.735160963609815" lon="20.521591985598207">
        <ele>-3.23</ele>
        <time>2017-06-25T16:02:30Z</time>
      </trkpt>
      <trkpt lat="69.736485974863172" lon="20.518353972584009">
        <ele>-1.3</ele>
        <time>2017-06-25T16:02:40Z</time>
      </trkpt>
      <trkpt lat="69.738433007150888" lon="20.515253003686666">
        <ele>-4.19</ele>
        <time>2017-06-25T16:02:51Z</time>
      </trkpt>
      <trkpt lat="69.739646036177874" lon="20.512722004204988">
        <ele>-4.19</ele>
        <time>2017-06-25T16:02:59Z</time>
      </trkpt>
      <trkpt lat="69.741476979106665" lon="20.507832001894712">
        <ele>1.1</ele>
        <time>2017-06-25T16:03:13Z</time>
      </trkpt>
      <trkpt lat="69.743759036064148" lon="20.501827038824558">
        <ele>3.5</ele>
        <time>2017-06-25T16:03:30Z</time>
      </trkpt>
      <trkpt lat="69.745973031967878" lon="20.49549400806427">
        <ele>12.15</ele>
        <time>2017-06-25T16:03:48Z</time>
      </trkpt>
      <trkpt lat="69.747795006260276" lon="20.490482971072197">
        <ele>16.960000000000001</ele>
        <time>2017-06-25T16:04:02Z</time>
      </trkpt>
      <trkpt lat="69.747951999306679" lon="20.490259006619453">
        <ele>17.440000000000001</ele>
        <time>2017-06-25T16:04:03Z</time>
      </trkpt>
      <trkpt lat="69.748113015666604" lon="20.490075023844838">
        <ele>17.440000000000001</ele>
        <time>2017-06-25T16:04:04Z</time>
      </trkpt>
      <trkpt lat="69.748275959864259" lon="20.489953989163041">
        <ele>17.920000000000002</ele>
        <time>2017-06-25T16:04:05Z</time>
      </trkpt>
      <trkpt lat="69.748437982052565" lon="20.489892968907952">
        <ele>17.920000000000002</ele>
        <time>2017-06-25T16:04:06Z</time>
      </trkpt>
      <trkpt lat="69.748597992584109" lon="20.489877965301275">
        <ele>17.920000000000002</ele>
        <time>2017-06-25T16:04:07Z</time>
      </trkpt>
      <trkpt lat="69.748759008944035" lon="20.489895986393094">
        <ele>17.440000000000001</ele>
        <time>2017-06-25T16:04:08Z</time>
      </trkpt>
      <trkpt lat="69.74892002530396" lon="20.489968992769718">
        <ele>16.960000000000001</ele>
        <time>2017-06-25T16:04:09Z</time>
      </trkpt>
      <trkpt lat="69.749081041663885" lon="20.490079969167709">
        <ele>16.960000000000001</ele>
        <time>2017-06-25T16:04:10Z</time>
      </trkpt>
      <trkpt lat="69.749241974204779" lon="20.490221958607435">
        <ele>16.48</ele>
        <time>2017-06-25T16:04:11Z</time>
      </trkpt>
      <trkpt lat="69.749400978907943" lon="20.490397978574038">
        <ele>16.48</ele>
        <time>2017-06-25T16:04:12Z</time>
      </trkpt>
      <trkpt lat="69.749561995267868" lon="20.49059403128922">
        <ele>16</ele>
        <time>2017-06-25T16:04:13Z</time>
      </trkpt>
      <trkpt lat="69.750550976023078" lon="20.492695961147547">
        <ele>16.960000000000001</ele>
        <time>2017-06-25T16:04:20Z</time>
      </trkpt>
      <trkpt lat="69.750654995441437" lon="20.493095023557544">
        <ele>17.920000000000002</ele>
        <time>2017-06-25T16:04:21Z</time>
      </trkpt>
      <trkpt lat="69.750733030959964" lon="20.493516968563199">
        <ele>18.399999999999999</ele>
        <time>2017-06-25T16:04:22Z</time>
      </trkpt>
      <trkpt lat="69.750792039558291" lon="20.493946960195899">
        <ele>19.84</ele>
        <time>2017-06-25T16:04:23Z</time>
      </trkpt>
      <trkpt lat="69.750829003751278" lon="20.494394972920418">
        <ele>20.809999999999999</ele>
        <time>2017-06-25T16:04:24Z</time>
      </trkpt>
      <trkpt lat="69.750847024843097" lon="20.494835022836924">
        <ele>22.25</ele>
        <time>2017-06-25T16:04:25Z</time>
      </trkpt>
      <trkpt lat="69.75085498765111" lon="20.495271971449256">
        <ele>23.210000000000001</ele>
        <time>2017-06-25T16:04:26Z</time>
      </trkpt>
      <trkpt lat="69.750890024006367" lon="20.497430982068181">
        <ele>28.02</ele>
        <time>2017-06-25T16:04:31Z</time>
      </trkpt>
      <trkpt lat="69.750923970714211" lon="20.497853010892868">
        <ele>28.98</ele>
        <time>2017-06-25T16:04:32Z</time>
      </trkpt>
      <trkpt lat="69.750976022332907" lon="20.498254001140594">
        <ele>29.940000000000001</ele>
        <time>2017-06-25T16:04:33Z</time>
      </trkpt>
      <trkpt lat="69.751037964597344" lon="20.498639987781644">
        <ele>30.420000000000002</ele>
        <time>2017-06-25T16:04:34Z</time>
      </trkpt>
      <trkpt lat="69.75111398845911" lon="20.499021029099822">
        <ele>31.379999999999999</ele>
        <time>2017-06-25T16:04:35Z</time>
      </trkpt>
      <trkpt lat="69.75119898095727" lon="20.49938396550715">
        <ele>32.340000000000003</ele>
        <time>2017-06-25T16:04:36Z</time>
      </trkpt>
      <trkpt lat="69.751294031739235" lon="20.499734999611974">
        <ele>33.780000000000001</ele>
        <time>2017-06-25T16:04:37Z</time>
      </trkpt>
      <trkpt lat="69.751399978995323" lon="20.500053009018302">
        <ele>34.740000000000002</ele>
        <time>2017-06-25T16:04:38Z</time>
      </trkpt>
      <trkpt lat="69.751517996191978" lon="20.500329025089741">
        <ele>35.710000000000001</ele>
        <time>2017-06-25T16:04:39Z</time>
      </trkpt>
      <trkpt lat="69.751646993681788" lon="20.500574028119445">
        <ele>37.149999999999999</ele>
        <time>2017-06-25T16:04:40Z</time>
      </trkpt>
      <trkpt lat="69.751785965636373" lon="20.500776031985879">
        <ele>38.109999999999999</ele>
        <time>2017-06-25T16:04:41Z</time>
      </trkpt>
      <trkpt lat="69.751936001703143" lon="20.50093000754714">
        <ele>38.590000000000003</ele>
        <time>2017-06-25T16:04:42Z</time>
      </trkpt>
      <trkpt lat="69.752095006406307" lon="20.50103603862226">
        <ele>39.549999999999997</ele>
        <time>2017-06-25T16:04:43Z</time>
      </trkpt>
      <trkpt lat="69.752256022766232" lon="20.501107033342123">
        <ele>40.990000000000002</ele>
        <time>2017-06-25T16:04:44Z</time>
      </trkpt>
      <trkpt lat="69.752420978620648" lon="20.501146009191871">
        <ele>41.950000000000003</ele>
        <time>2017-06-25T16:04:45Z</time>
      </trkpt>
      <trkpt lat="69.752590041607618" lon="20.501150032505393">
        <ele>43.399999999999999</ele>
        <time>2017-06-25T16:04:46Z</time>
      </trkpt>
      <trkpt lat="69.753223964944482" lon="20.501195965334773">
        <ele>47.240000000000002</ele>
        <time>2017-06-25T16:04:50Z</time>
      </trkpt>
      <trkpt lat="69.753357991576195" lon="20.501319011673331">
        <ele>48.200000000000003</ele>
        <time>2017-06-25T16:04:51Z</time>
      </trkpt>
      <trkpt lat="69.753473997116089" lon="20.501525038853288">
        <ele>48.68</ele>
        <time>2017-06-25T16:04:52Z</time>
      </trkpt>
      <trkpt lat="69.753568964079022" lon="20.501807006075978">
        <ele>49.159999999999997</ele>
        <time>2017-06-25T16:04:53Z</time>
      </trkpt>
      <trkpt lat="69.753640964627266" lon="20.502141024917364">
        <ele>49.649999999999999</ele>
        <time>2017-06-25T16:04:54Z</time>
      </trkpt>
      <trkpt lat="69.753686981275678" lon="20.502527011558414">
        <ele>50.130000000000003</ele>
        <time>2017-06-25T16:04:55Z</time>
      </trkpt>
      <trkpt lat="69.753717994317412" lon="20.50294803455472">
        <ele>50.609999999999999</ele>
        <time>2017-06-25T16:04:56Z</time>
      </trkpt>
      <trkpt lat="69.753735009580851" lon="20.503405015915632">
        <ele>50.609999999999999</ele>
        <time>2017-06-25T16:04:57Z</time>
      </trkpt>
      <trkpt lat="69.753744984045625" lon="20.503886975347996">
        <ele>50.609999999999999</ele>
        <time>2017-06-25T16:04:58Z</time>
      </trkpt>
      <trkpt lat="69.753824025392532" lon="20.508987028151751">
        <ele>50.609999999999999</ele>
        <time>2017-06-25T16:05:07Z</time>
      </trkpt>
      <trkpt lat="69.753861995413899" lon="20.51231699064374">
        <ele>43.399999999999999</ele>
        <time>2017-06-25T16:05:13Z</time>
      </trkpt>
      <trkpt lat="69.753826037049294" lon="20.51283298060298">
        <ele>41.469999999999999</ele>
        <time>2017-06-25T16:05:14Z</time>
      </trkpt>
      <trkpt lat="69.753769962117076" lon="20.513343019410968">
        <ele>40.030000000000001</ele>
        <time>2017-06-25T16:05:15Z</time>
      </trkpt>
      <trkpt lat="69.753586985170841" lon="20.514812031760812">
        <ele>36.189999999999998</ele>
        <time>2017-06-25T16:05:18Z</time>
      </trkpt>
      <trkpt lat="69.753557983785868" lon="20.515302959829569">
        <ele>34.740000000000002</ele>
        <time>2017-06-25T16:05:19Z</time>
      </trkpt>
      <trkpt lat="69.753553038462996" lon="20.515787014737725">
        <ele>33.780000000000001</ele>
        <time>2017-06-25T16:05:20Z</time>
      </trkpt>
      <trkpt lat="69.753570975735784" lon="20.516254976391792">
        <ele>32.82</ele>
        <time>2017-06-25T16:05:21Z</time>
      </trkpt>
      <trkpt lat="69.753611963242292" lon="20.516689997166395">
        <ele>32.340000000000003</ele>
        <time>2017-06-25T16:05:22Z</time>
      </trkpt>
      <trkpt lat="69.753681030124426" lon="20.517091993242502">
        <ele>31.379999999999999</ele>
        <time>2017-06-25T16:05:23Z</time>
      </trkpt>
      <trkpt lat="69.753778008744121" lon="20.517449984326959">
        <ele>30.420000000000002</ele>
        <time>2017-06-25T16:05:24Z</time>
      </trkpt>
      <trkpt lat="69.753893008455634" lon="20.517765982076526">
        <ele>29.460000000000001</ele>
        <time>2017-06-25T16:05:25Z</time>
      </trkpt>
      <trkpt lat="69.754028040915728" lon="20.518052978441119">
        <ele>28.02</ele>
        <time>2017-06-25T16:05:26Z</time>
      </trkpt>
      <trkpt lat="69.754182016476989" lon="20.518310973420739">
        <ele>26.09</ele>
        <time>2017-06-25T16:05:27Z</time>
      </trkpt>
      <trkpt lat="69.754344038665295" lon="20.518563017249107">
        <ele>24.170000000000002</ele>
        <time>2017-06-25T16:05:28Z</time>
      </trkpt>
      <trkpt lat="69.754960024729371" lon="20.519807981327176">
        <ele>18.399999999999999</ele>
        <time>2017-06-25T16:05:32Z</time>
      </trkpt>
      <trkpt lat="69.7550880163908" lon="20.520217018201947">
        <ele>17.920000000000002</ele>
        <time>2017-06-25T16:05:33Z</time>
      </trkpt>
      <trkpt lat="69.755201004445553" lon="20.520664025098085">
        <ele>17.440000000000001</ele>
        <time>2017-06-25T16:05:34Z</time>
      </trkpt>
      <trkpt lat="69.755616998299956" lon="20.522461021319032">
        <ele>17.920000000000002</ele>
        <time>2017-06-25T16:05:38Z</time>
      </trkpt>
      <trkpt lat="69.755744989961386" lon="20.522829992696643">
        <ele>18.879999999999999</ele>
        <time>2017-06-25T16:05:39Z</time>
      </trkpt>
      <trkpt lat="69.755880022421479" lon="20.523168034851551">
        <ele>19.359999999999999</ele>
        <time>2017-06-25T16:05:40Z</time>
      </trkpt>
      <trkpt lat="69.75727996788919" lon="20.526147969067097">
        <ele>24.170000000000002</ele>
        <time>2017-06-25T16:05:51Z</time>
      </trkpt>
      <trkpt lat="69.758176999166608" lon="20.528746023774147">
        <ele>23.210000000000001</ele>
        <time>2017-06-25T16:05:59Z</time>
      </trkpt>
      <trkpt lat="69.758990965783596" lon="20.531754037365317">
        <ele>25.609999999999999</ele>
        <time>2017-06-25T16:06:06Z</time>
      </trkpt>
      <trkpt lat="69.759065983816981" lon="20.532252006232738">
        <ele>26.09</ele>
        <time>2017-06-25T16:06:07Z</time>
      </trkpt>
      <trkpt lat="69.759128009900451" lon="20.53277000784874">
        <ele>26.57</ele>
        <time>2017-06-25T16:06:08Z</time>
      </trkpt>
      <trkpt lat="69.759174026548862" lon="20.533304018899798">
        <ele>27.530000000000001</ele>
        <time>2017-06-25T16:06:09Z</time>
      </trkpt>
      <trkpt lat="69.759217025712132" lon="20.533846998587251">
        <ele>28.5</ele>
        <time>2017-06-25T16:06:10Z</time>
      </trkpt>
      <trkpt lat="69.759447025135159" lon="20.536771025508642">
        <ele>31.379999999999999</ele>
        <time>2017-06-25T16:06:16Z</time>
      </trkpt>
      <trkpt lat="69.7595139965415" lon="20.53715399466455">
        <ele>31.379999999999999</ele>
        <time>2017-06-25T16:06:17Z</time>
      </trkpt>
      <trkpt lat="69.759603012353182" lon="20.537506034597754">
        <ele>30.899999999999999</ele>
        <time>2017-06-25T16:06:18Z</time>
      </trkpt>
      <trkpt lat="69.759713988751173" lon="20.537823038175702">
        <ele>30.420000000000002</ele>
        <time>2017-06-25T16:06:19Z</time>
      </trkpt>
      <trkpt lat="69.759837035089731" lon="20.538095030933619">
        <ele>30.420000000000002</ele>
        <time>2017-06-25T16:06:20Z</time>
      </trkpt>
      <trkpt lat="69.759979024529457" lon="20.538327964022756">
        <ele>29.940000000000001</ele>
        <time>2017-06-25T16:06:21Z</time>
      </trkpt>
      <trkpt lat="69.76013601757586" lon="20.538531979545951">
        <ele>29.460000000000001</ele>
        <time>2017-06-25T16:06:22Z</time>
      </trkpt>
      <trkpt lat="69.760303990915418" lon="20.538729038089514">
        <ele>28.98</ele>
        <time>2017-06-25T16:06:23Z</time>
      </trkpt>
      <trkpt lat="69.7622009832412" lon="20.540930964052677">
        <ele>23.210000000000001</ele>
        <time>2017-06-25T16:06:33Z</time>
      </trkpt>
      <trkpt lat="69.764071991667151" lon="20.543066002428532">
        <ele>16.960000000000001</ele>
        <time>2017-06-25T16:06:44Z</time>
      </trkpt>
      <trkpt lat="69.765520971268415" lon="20.5447409581393">
        <ele>15.039999999999999</ele>
        <time>2017-06-25T16:06:55Z</time>
      </trkpt>
      <trkpt lat="69.766521016135812" lon="20.545917022973299">
        <ele>15.039999999999999</ele>
        <time>2017-06-25T16:07:03Z</time>
      </trkpt>
      <trkpt lat="69.768308959901333" lon="20.548339979723096">
        <ele>16.960000000000001</ele>
        <time>2017-06-25T16:07:14Z</time>
      </trkpt>
      <trkpt lat="69.768438041210175" lon="20.548686990514398">
        <ele>16.960000000000001</ele>
        <time>2017-06-25T16:07:15Z</time>
      </trkpt>
      <trkpt lat="69.768557986244559" lon="20.549074988812208">
        <ele>16.960000000000001</ele>
        <time>2017-06-25T16:07:16Z</time>
      </trkpt>
      <trkpt lat="69.76866502314806" lon="20.549498023465276">
        <ele>16.48</ele>
        <time>2017-06-25T16:07:17Z</time>
      </trkpt>
      <trkpt lat="69.768762001767755" lon="20.549944024533033">
        <ele>16</ele>
        <time>2017-06-25T16:07:18Z</time>
      </trkpt>
      <trkpt lat="69.768852023407817" lon="20.550412992015481">
        <ele>15.52</ele>
        <time>2017-06-25T16:07:19Z</time>
      </trkpt>
      <trkpt lat="69.770025992766023" lon="20.555859971791506">
        <ele>15.52</ele>
        <time>2017-06-25T16:07:30Z</time>
      </trkpt>
      <trkpt lat="69.771084040403366" lon="20.558880977332592">
        <ele>9.75</ele>
        <time>2017-06-25T16:07:37Z</time>
      </trkpt>
      <trkpt lat="69.772314000874758" lon="20.560735976323485">
        <ele>9.27</ele>
        <time>2017-06-25T16:07:44Z</time>
      </trkpt>
      <trkpt lat="69.772866033017635" lon="20.561567964032292">
        <ele>8.789999999999999</ele>
        <time>2017-06-25T16:07:48Z</time>
      </trkpt>
      <trkpt lat="69.772978015244007" lon="20.561850015074015">
        <ele>8.310000000000001</ele>
        <time>2017-06-25T16:07:49Z</time>
      </trkpt>
      <trkpt lat="69.773078011348844" lon="20.562182022258639">
        <ele>7.83</ele>
        <time>2017-06-25T16:07:50Z</time>
      </trkpt>
      <trkpt lat="69.773166021332145" lon="20.562551999464631">
        <ele>7.35</ele>
        <time>2017-06-25T16:07:51Z</time>
      </trkpt>
      <trkpt lat="69.77324103936553" lon="20.562962964177132">
        <ele>6.87</ele>
        <time>2017-06-25T16:07:52Z</time>
      </trkpt>
      <trkpt lat="69.773313039913774" lon="20.56338700465858">
        <ele>6.87</ele>
        <time>2017-06-25T16:07:53Z</time>
      </trkpt>
      <trkpt lat="69.774397993460298" lon="20.5707130394876">
        <ele>6.39</ele>
        <time>2017-06-25T16:08:09Z</time>
      </trkpt>
      <trkpt lat="69.775166027247906" lon="20.577645041048527">
        <ele>2.06</ele>
        <time>2017-06-25T16:08:23Z</time>
      </trkpt>
      <trkpt lat="69.77616498246789" lon="20.583022031933069">
        <ele>1.1</ele>
        <time>2017-06-25T16:08:35Z</time>
      </trkpt>
      <trkpt lat="69.778094999492168" lon="20.592485032975674">
        <ele>0.62</ele>
        <time>2017-06-25T16:08:57Z</time>
      </trkpt>
      <trkpt lat="69.779484970495105" lon="20.59711997397244">
        <ele>3.5</ele>
        <time>2017-06-25T16:09:09Z</time>
      </trkpt>
      <trkpt lat="69.780542012304068" lon="20.602079965174198">
        <ele>2.54</ele>
        <time>2017-06-25T16:09:20Z</time>
      </trkpt>
      <trkpt lat="69.782088976353407" lon="20.610347958281636">
        <ele>0.62</ele>
        <time>2017-06-25T16:09:38Z</time>
      </trkpt>
      <trkpt lat="69.783312985673547" lon="20.614682994782925">
        <ele>-0.82</ele>
        <time>2017-06-25T16:09:49Z</time>
      </trkpt>
      <trkpt lat="69.78454202413559" lon="20.619689002633095">
        <ele>-0.82</ele>
        <time>2017-06-25T16:10:01Z</time>
      </trkpt>
      <trkpt lat="69.786555022001266" lon="20.630035037174821">
        <ele>-1.3</ele>
        <time>2017-06-25T16:10:22Z</time>
      </trkpt>
      <trkpt lat="69.78753000497818" lon="20.636053998023272">
        <ele>-1.79</ele>
        <time>2017-06-25T16:10:34Z</time>
      </trkpt>
      <trkpt lat="69.788339026272297" lon="20.640059038996696">
        <ele>-1.79</ele>
        <time>2017-06-25T16:10:43Z</time>
      </trkpt>
      <trkpt lat="69.789647022262216" lon="20.646587032824755">
        <ele>1.1</ele>
        <time>2017-06-25T16:10:57Z</time>
      </trkpt>
      <trkpt lat="69.790472975000739" lon="20.6527029722929">
        <ele>1.1</ele>
        <time>2017-06-25T16:11:09Z</time>
      </trkpt>
      <trkpt lat="69.790899027138948" lon="20.661289980635047">
        <ele>3.5</ele>
        <time>2017-06-25T16:11:24Z</time>
      </trkpt>
      <trkpt lat="69.791112011298537" lon="20.66892103292048">
        <ele>3.5</ele>
        <time>2017-06-25T16:11:37Z</time>
      </trkpt>
      <trkpt lat="69.790899027138948" lon="20.678256964311004">
        <ele>-2.75</ele>
        <time>2017-06-25T16:11:53Z</time>
      </trkpt>
      <trkpt lat="69.790418995544314" lon="20.683371014893055">
        <ele>-1.79</ele>
        <time>2017-06-25T16:12:02Z</time>
      </trkpt>
      <trkpt lat="69.789839973673224" lon="20.689630033448339">
        <ele>-1.79</ele>
        <time>2017-06-25T16:12:14Z</time>
      </trkpt>
      <trkpt lat="69.789776019752026" lon="20.69414896890521">
        <ele>-1.79</ele>
        <time>2017-06-25T16:12:21Z</time>
      </trkpt>
      <trkpt lat="69.790240963920951" lon="20.697882017120719">
        <ele>-1.79</ele>
        <time>2017-06-25T16:12:27Z</time>
      </trkpt>
      <trkpt lat="69.79204198345542" lon="20.708251018077135">
        <ele>-1.3</ele>
        <time>2017-06-25T16:12:43Z</time>
      </trkpt>
      <trkpt lat="69.792933985590935" lon="20.712590999901295">
        <ele>-0.82</ele>
        <time>2017-06-25T16:12:51Z</time>
      </trkpt>
      <trkpt lat="69.7938890196383" lon="20.714628975838423">
        <ele>-0.82</ele>
        <time>2017-06-25T16:12:57Z</time>
      </trkpt>
      <trkpt lat="69.795150998979807" lon="20.715585015714169">
        <ele>1.1</ele>
        <time>2017-06-25T16:13:04Z</time>
      </trkpt>
      <trkpt lat="69.797837985679507" lon="20.716754961758852">
        <ele>-0.82</ele>
        <time>2017-06-25T16:13:17Z</time>
      </trkpt>
      <trkpt lat="69.800231019034982" lon="20.718461014330387">
        <ele>-1.3</ele>
        <time>2017-06-25T16:13:29Z</time>
      </trkpt>
      <trkpt lat="69.801351008936763" lon="20.720863016322255">
        <ele>1.58</ele>
        <time>2017-06-25T16:13:36Z</time>
      </trkpt>
      <trkpt lat="69.802101021632552" lon="20.724344020709395">
        <ele>1.58</ele>
        <time>2017-06-25T16:13:43Z</time>
      </trkpt>
      <trkpt lat="69.803513959050179" lon="20.732430964708328">
        <ele>-0.34</ele>
        <time>2017-06-25T16:13:58Z</time>
      </trkpt>
      <trkpt lat="69.805415980517864" lon="20.740959970280528">
        <ele>12.15</ele>
        <time>2017-06-25T16:14:15Z</time>
      </trkpt>
      <trkpt lat="69.806553991511464" lon="20.745122004300356">
        <ele>18.399999999999999</ele>
        <time>2017-06-25T16:14:24Z</time>
      </trkpt>
      <trkpt lat="69.809609027579427" lon="20.752610983327031">
        <ele>15.52</ele>
        <time>2017-06-25T16:14:43Z</time>
      </trkpt>
      <trkpt lat="69.811956966295838" lon="20.758445961400867">
        <ele>19.84</ele>
        <time>2017-06-25T16:14:58Z</time>
      </trkpt>
      <trkpt lat="69.814694998785853" lon="20.765375029295683">
        <ele>21.289999999999999</ele>
        <time>2017-06-25T16:15:15Z</time>
      </trkpt>
      <trkpt lat="69.816124029457569" lon="20.769719034433365">
        <ele>22.73</ele>
        <time>2017-06-25T16:15:25Z</time>
      </trkpt>
      <trkpt lat="69.817387014627457" lon="20.772991999983788">
        <ele>29.460000000000001</ele>
        <time>2017-06-25T16:15:35Z</time>
      </trkpt>
      <trkpt lat="69.818739015609026" lon="20.776067990809679">
        <ele>40.030000000000001</ele>
        <time>2017-06-25T16:15:48Z</time>
      </trkpt>
      <trkpt lat="69.819357013329864" lon="20.777572961524129">
        <ele>45.799999999999997</ele>
        <time>2017-06-25T16:15:58Z</time>
      </trkpt>
      <trkpt lat="69.820168968290091" lon="20.780273023992777">
        <ele>53.009999999999998</ele>
        <time>2017-06-25T16:16:12Z</time>
      </trkpt>
      <trkpt lat="69.820569958537817" lon="20.782899996265769">
        <ele>57.340000000000003</ele>
        <time>2017-06-25T16:16:25Z</time>
      </trkpt>
      <trkpt lat="69.820845974609256" lon="20.785461002960801">
        <ele>61.659999999999997</ele>
        <time>2017-06-25T16:16:40Z</time>
      </trkpt>
      <trkpt lat="69.820942031219602" lon="20.786461969837546">
        <ele>62.619999999999997</ele>
        <time>2017-06-25T16:16:51Z</time>
      </trkpt>
      <trkpt lat="69.820947982370853" lon="20.786594990640879">
        <ele>62.140000000000001</ele>
        <time>2017-06-25T16:18:17Z</time>
      </trkpt>
      <trkpt lat="69.821073962375522" lon="20.787780024111271">
        <ele>63.579999999999998</ele>
        <time>2017-06-25T16:18:28Z</time>
      </trkpt>
      <trkpt lat="69.821229027584195" lon="20.789436958730221">
        <ele>66.469999999999999</ele>
        <time>2017-06-25T16:18:39Z</time>
      </trkpt>
      <trkpt lat="69.821406975388527" lon="20.793432025238872">
        <ele>73.200000000000003</ele>
        <time>2017-06-25T16:19:00Z</time>
      </trkpt>
      <trkpt lat="69.821290969848633" lon="20.797046972438693">
        <ele>78.969999999999999</ele>
        <time>2017-06-25T16:19:17Z</time>
      </trkpt>
      <trkpt lat="69.821193991228938" lon="20.800367966294289">
        <ele>85.689999999999998</ele>
        <time>2017-06-25T16:19:32Z</time>
      </trkpt>
      <trkpt lat="69.820860978215933" lon="20.802396973595023">
        <ele>88.579999999999998</ele>
        <time>2017-06-25T16:19:40Z</time>
      </trkpt>
      <trkpt lat="69.820770034566522" lon="20.802691010758281">
        <ele>89.060000000000002</ele>
        <time>2017-06-25T16:19:41Z</time>
      </trkpt>
      <trkpt lat="69.819934023544192" lon="20.805318988859653">
        <ele>93.390000000000001</ele>
        <time>2017-06-25T16:19:49Z</time>
      </trkpt>
      <trkpt lat="69.819862022995949" lon="20.805650996044278">
        <ele>93.390000000000001</ele>
        <time>2017-06-25T16:19:50Z</time>
      </trkpt>
      <trkpt lat="69.819798991084099" lon="20.806005969643593">
        <ele>93.870000000000005</ele>
        <time>2017-06-25T16:19:51Z</time>
      </trkpt>
      <trkpt lat="69.819762026891112" lon="20.806377036496997">
        <ele>94.349999999999994</ele>
        <time>2017-06-25T16:19:52Z</time>
      </trkpt>
      <trkpt lat="69.819744005799294" lon="20.806765034794807">
        <ele>94.829999999999998</ele>
        <time>2017-06-25T16:19:53Z</time>
      </trkpt>
      <trkpt lat="69.81973797082901" lon="20.807142974808812">
        <ele>95.310000000000002</ele>
        <time>2017-06-25T16:19:54Z</time>
      </trkpt>
      <trkpt lat="69.819742999970913" lon="20.807497026398778">
        <ele>95.790000000000006</ele>
        <time>2017-06-25T16:19:55Z</time>
      </trkpt>
      <trkpt lat="69.819726990535855" lon="20.80842699855566">
        <ele>96.75</ele>
        <time>2017-06-25T16:19:58Z</time>
      </trkpt>
      <trkpt lat="69.819707041606307" lon="20.808719024062157">
        <ele>97.230000000000004</ele>
        <time>2017-06-25T16:19:59Z</time>
      </trkpt>
      <trkpt lat="69.819674016907811" lon="20.809007026255131">
        <ele>97.230000000000004</ele>
        <time>2017-06-25T16:20:00Z</time>
      </trkpt>
      <trkpt lat="69.819635041058064" lon="20.809293016791344">
        <ele>97.230000000000004</ele>
        <time>2017-06-25T16:20:01Z</time>
      </trkpt>
      <trkpt lat="69.819579971954226" lon="20.809573978185654">
        <ele>97.709999999999994</ele>
        <time>2017-06-25T16:20:02Z</time>
      </trkpt>
      <trkpt lat="69.819518029689789" lon="20.809858962893486">
        <ele>97.709999999999994</ele>
        <time>2017-06-25T16:20:03Z</time>
      </trkpt>
      <trkpt lat="69.819449968636036" lon="20.810139002278447">
        <ele>97.709999999999994</ele>
        <time>2017-06-25T16:20:04Z</time>
      </trkpt>
      <trkpt lat="69.818992987275124" lon="20.811912026256323">
        <ele>101.08</ele>
        <time>2017-06-25T16:20:12Z</time>
      </trkpt>
      <trkpt lat="69.818960968405008" lon="20.812097014859319">
        <ele>101.56</ele>
        <time>2017-06-25T16:20:13Z</time>
      </trkpt>
      <trkpt lat="69.81894101947546" lon="20.812283009290695">
        <ele>101.56</ele>
        <time>2017-06-25T16:20:14Z</time>
      </trkpt>
      <trkpt lat="69.818934984505177" lon="20.812469003722072">
        <ele>101.56</ele>
        <time>2017-06-25T16:20:15Z</time>
      </trkpt>
      <trkpt lat="69.818945964798331" lon="20.812653992325068">
        <ele>101.56</ele>
        <time>2017-06-25T16:20:16Z</time>
      </trkpt>
      <trkpt lat="69.818974966183305" lon="20.812828000634909">
        <ele>101.56</ele>
        <time>2017-06-25T16:20:17Z</time>
      </trkpt>
      <trkpt lat="69.819021988660097" lon="20.812978958711028">
        <ele>101.56</ele>
        <time>2017-06-25T16:20:18Z</time>
      </trkpt>
      <trkpt lat="69.819078985601664" lon="20.813119020313025">
        <ele>101.08</ele>
        <time>2017-06-25T16:20:19Z</time>
      </trkpt>
      <trkpt lat="69.819150986149907" lon="20.813246006146073">
        <ele>101.56</ele>
        <time>2017-06-25T16:20:20Z</time>
      </trkpt>
      <trkpt lat="69.819231033325195" lon="20.813362011685967">
        <ele>101.56</ele>
        <time>2017-06-25T16:20:21Z</time>
      </trkpt>
      <trkpt lat="69.819689020514488" lon="20.814070031046867">
        <ele>102.52</ele>
        <time>2017-06-25T16:20:26Z</time>
      </trkpt>
      <trkpt lat="69.819799996912479" lon="20.814167009666562">
        <ele>103</ele>
        <time>2017-06-25T16:20:27Z</time>
      </trkpt>
      <trkpt lat="69.819919019937515" lon="20.814225012436509">
        <ele>103.48</ele>
        <time>2017-06-25T16:20:28Z</time>
      </trkpt>
      <trkpt lat="69.820176009088755" lon="20.814348980784416">
        <ele>104.92</ele>
        <time>2017-06-25T16:20:30Z</time>
      </trkpt>
      <trkpt lat="69.820301989093423" lon="20.814478984102607">
        <ele>105.88</ele>
        <time>2017-06-25T16:20:31Z</time>
      </trkpt>
      <trkpt lat="69.820422017946839" lon="20.814647963270545">
        <ele>106.84</ele>
        <time>2017-06-25T16:20:32Z</time>
      </trkpt>
      <trkpt lat="69.820526037365198" lon="20.814868994057178">
        <ele>107.81</ele>
        <time>2017-06-25T16:20:33Z</time>
      </trkpt>
      <trkpt lat="69.820621004328132" lon="20.815146015956998">
        <ele>108.77</ele>
        <time>2017-06-25T16:20:34Z</time>
      </trkpt>
      <trkpt lat="69.82070398516953" lon="20.815454972907901">
        <ele>109.73</ele>
        <time>2017-06-25T16:20:35Z</time>
      </trkpt>
      <trkpt lat="69.820779003202915" lon="20.81579402089119">
        <ele>110.20999999999999</ele>
        <time>2017-06-25T16:20:36Z</time>
      </trkpt>
      <trkpt lat="69.820849997922778" lon="20.81613801419735">
        <ele>111.17</ele>
        <time>2017-06-25T16:20:37Z</time>
      </trkpt>
      <trkpt lat="69.821313014253974" lon="20.819036979228258">
        <ele>118.38</ele>
        <time>2017-06-25T16:20:44Z</time>
      </trkpt>
      <trkpt lat="69.821710987016559" lon="20.821353988721967">
        <ele>124.63</ele>
        <time>2017-06-25T16:20:50Z</time>
      </trkpt>
      <trkpt lat="69.822129998356104" lon="20.824790988117456">
        <ele>134.24000000000001</ele>
        <time>2017-06-25T16:20:59Z</time>
      </trkpt>
      <trkpt lat="69.822217002511024" lon="20.825428012758493">
        <ele>135.68000000000001</ele>
        <time>2017-06-25T16:21:01Z</time>
      </trkpt>
      <trkpt lat="69.822277016937733" lon="20.825718026608229">
        <ele>136.16</ele>
        <time>2017-06-25T16:21:02Z</time>
      </trkpt>
      <trkpt lat="69.82280901633203" lon="20.828727968037128">
        <ele>143.84999999999999</ele>
        <time>2017-06-25T16:21:11Z</time>
      </trkpt>
      <trkpt lat="69.822884034365416" lon="20.829023011028767">
        <ele>144.81999999999999</ele>
        <time>2017-06-25T16:21:12Z</time>
      </trkpt>
      <trkpt lat="69.822972966358066" lon="20.82928603515029">
        <ele>145.78</ele>
        <time>2017-06-25T16:21:13Z</time>
      </trkpt>
      <trkpt lat="69.823070028796792" lon="20.829531038179994">
        <ele>146.74000000000001</ele>
        <time>2017-06-25T16:21:14Z</time>
      </trkpt>
      <trkpt lat="69.823173964396119" lon="20.829747039824724">
        <ele>147.69999999999999</ele>
        <time>2017-06-25T16:21:15Z</time>
      </trkpt>
      <trkpt lat="69.824058003723621" lon="20.832380969077349">
        <ele>157.31</ele>
        <time>2017-06-25T16:21:24Z</time>
      </trkpt>
      <trkpt lat="69.824676001444459" lon="20.8352189976722">
        <ele>165.96000000000001</ele>
        <time>2017-06-25T16:21:30Z</time>
      </trkpt>
      <trkpt lat="69.825274972245097" lon="20.838734032586217">
        <ele>174.62</ele>
        <time>2017-06-25T16:21:39Z</time>
      </trkpt>
      <trkpt lat="69.825293999165297" lon="20.839092023670673">
        <ele>175.09999999999999</ele>
        <time>2017-06-25T16:21:40Z</time>
      </trkpt>
      <trkpt lat="69.825297016650438" lon="20.839413972571492">
        <ele>175.58000000000001</ele>
        <time>2017-06-25T16:21:41Z</time>
      </trkpt>
      <trkpt lat="69.825285030528903" lon="20.839695017784834">
        <ele>176.06</ele>
        <time>2017-06-25T16:21:42Z</time>
      </trkpt>
      <trkpt lat="69.825255023315549" lon="20.839940020814538">
        <ele>177.02000000000001</ele>
        <time>2017-06-25T16:21:43Z</time>
      </trkpt>
      <trkpt lat="69.825202971696854" lon="20.84015803411603">
        <ele>177.97999999999999</ele>
        <time>2017-06-25T16:21:44Z</time>
      </trkpt>
      <trkpt lat="69.825126025825739" lon="20.840351991355419">
        <ele>178.46000000000001</ele>
        <time>2017-06-25T16:21:45Z</time>
      </trkpt>
      <trkpt lat="69.825026029720902" lon="20.840539997443557">
        <ele>178.94</ele>
        <time>2017-06-25T16:21:46Z</time>
      </trkpt>
      <trkpt lat="69.824901977553964" lon="20.840693973004818">
        <ele>179.90000000000001</ele>
        <time>2017-06-25T16:21:47Z</time>
      </trkpt>
      <trkpt lat="69.824761999770999" lon="20.840835040435195">
        <ele>180.38</ele>
        <time>2017-06-25T16:21:48Z</time>
      </trkpt>
      <trkpt lat="69.824612969532609" lon="20.840963032096624">
        <ele>180.87</ele>
        <time>2017-06-25T16:21:49Z</time>
      </trkpt>
      <trkpt lat="69.824467962607741" lon="20.841077025979757">
        <ele>181.34999999999999</ele>
        <time>2017-06-25T16:21:50Z</time>
      </trkpt>
      <trkpt lat="69.822905994951725" lon="20.842744018882513">
        <ele>188.56</ele>
        <time>2017-06-25T16:22:00Z</time>
      </trkpt>
      <trkpt lat="69.821662958711386" lon="20.845000008121133">
        <ele>196.72999999999999</ele>
        <time>2017-06-25T16:22:07Z</time>
      </trkpt>
      <trkpt lat="69.821222992613912" lon="20.845814980566502">
        <ele>199.61000000000001</ele>
        <time>2017-06-25T16:22:10Z</time>
      </trkpt>
      <trkpt lat="69.82111101038754" lon="20.846143970265985">
        <ele>200.56999999999999</ele>
        <time>2017-06-25T16:22:11Z</time>
      </trkpt>
      <trkpt lat="69.821021994575858" lon="20.846511013805866">
        <ele>201.53</ele>
        <time>2017-06-25T16:22:12Z</time>
      </trkpt>
      <trkpt lat="69.820801969617605" lon="20.84759596735239">
        <ele>203.94</ele>
        <time>2017-06-25T16:22:15Z</time>
      </trkpt>
      <trkpt lat="69.820715971291065" lon="20.847876006737351">
        <ele>204.41999999999999</ele>
        <time>2017-06-25T16:22:16Z</time>
      </trkpt>
      <trkpt lat="69.82061798684299" lon="20.848112963140011">
        <ele>204.90000000000001</ele>
        <time>2017-06-25T16:22:17Z</time>
      </trkpt>
      <trkpt lat="69.820506004616618" lon="20.848299963399768">
        <ele>205.38</ele>
        <time>2017-06-25T16:22:18Z</time>
      </trkpt>
      <trkpt lat="69.820384969934821" lon="20.848444970324636">
        <ele>205.86000000000001</ele>
        <time>2017-06-25T16:22:19Z</time>
      </trkpt>
      <trkpt lat="69.820271981880069" lon="20.84858201444149">
        <ele>206.81999999999999</ele>
        <time>2017-06-25T16:22:20Z</time>
      </trkpt>
      <trkpt lat="69.820162011310458" lon="20.848747976124287">
        <ele>207.30000000000001</ele>
        <time>2017-06-25T16:22:21Z</time>
      </trkpt>
      <trkpt lat="69.820051034912467" lon="20.848959032446146">
        <ele>208.25999999999999</ele>
        <time>2017-06-25T16:22:22Z</time>
      </trkpt>
      <trkpt lat="69.819942992180586" lon="20.849221972748637">
        <ele>208.74000000000001</ele>
        <time>2017-06-25T16:22:23Z</time>
      </trkpt>
      <trkpt lat="69.819841990247369" lon="20.849533025175333">
        <ele>209.22</ele>
        <time>2017-06-25T16:22:24Z</time>
      </trkpt>
      <trkpt lat="69.819744005799294" lon="20.849893027916551">
        <ele>210.19</ele>
        <time>2017-06-25T16:22:25Z</time>
      </trkpt>
      <trkpt lat="69.81965197250247" lon="20.850293012335896">
        <ele>210.66999999999999</ele>
        <time>2017-06-25T16:22:26Z</time>
      </trkpt>
      <trkpt lat="69.81956597417593" lon="20.850730966776609">
        <ele>211.15000000000001</ele>
        <time>2017-06-25T16:22:27Z</time>
      </trkpt>
      <trkpt lat="69.819487016648054" lon="20.851178979501128">
        <ele>212.11000000000001</ele>
        <time>2017-06-25T16:22:28Z</time>
      </trkpt>
      <trkpt lat="69.818814033642411" lon="20.856480030342937">
        <ele>222.19999999999999</ele>
        <time>2017-06-25T16:22:39Z</time>
      </trkpt>
      <trkpt lat="69.818259989842772" lon="20.860928976908326">
        <ele>223.63999999999999</ele>
        <time>2017-06-25T16:22:48Z</time>
      </trkpt>
      <trkpt lat="69.817690020427108" lon="20.864834021776915">
        <ele>224.61000000000001</ele>
        <time>2017-06-25T16:22:57Z</time>
      </trkpt>
      <trkpt lat="69.817550964653492" lon="20.867608012631536">
        <ele>222.19999999999999</ele>
        <time>2017-06-25T16:23:03Z</time>
      </trkpt>
      <trkpt lat="69.817570997402072" lon="20.868076980113983">
        <ele>220.75999999999999</ele>
        <time>2017-06-25T16:23:04Z</time>
      </trkpt>
      <trkpt lat="69.817605027928948" lon="20.868551982566714">
        <ele>219.31999999999999</ele>
        <time>2017-06-25T16:23:05Z</time>
      </trkpt>
      <trkpt lat="69.817650960758328" lon="20.86903402581811">
        <ele>217.88</ele>
        <time>2017-06-25T16:23:06Z</time>
      </trkpt>
      <trkpt lat="69.817708963528275" lon="20.869524031877518">
        <ele>216.43000000000001</ele>
        <time>2017-06-25T16:23:07Z</time>
      </trkpt>
      <trkpt lat="69.81777903623879" lon="20.87000397965312">
        <ele>214.99000000000001</ele>
        <time>2017-06-25T16:23:08Z</time>
      </trkpt>
      <trkpt lat="69.81786503456533" lon="20.870458027347922">
        <ele>213.06999999999999</ele>
        <time>2017-06-25T16:23:09Z</time>
      </trkpt>
      <trkpt lat="69.817966958507895" lon="20.870890030637383">
        <ele>211.63</ele>
        <time>2017-06-25T16:23:10Z</time>
      </trkpt>
      <trkpt lat="69.818084975704551" lon="20.8713139872998">
        <ele>209.69999999999999</ele>
        <time>2017-06-25T16:23:11Z</time>
      </trkpt>
      <trkpt lat="69.818216990679502" lon="20.871723024174571">
        <ele>207.78</ele>
        <time>2017-06-25T16:23:12Z</time>
      </trkpt>
      <trkpt lat="69.81977803632617" lon="20.875936020165682">
        <ele>188.56</ele>
        <time>2017-06-25T16:23:23Z</time>
      </trkpt>
      <trkpt lat="69.820267036557198" lon="20.877139996737242">
        <ele>182.78999999999999</ele>
        <time>2017-06-25T16:23:27Z</time>
      </trkpt>
      <trkpt lat="69.820356974378228" lon="20.877484995871782">
        <ele>181.34999999999999</ele>
        <time>2017-06-25T16:23:28Z</time>
      </trkpt>
      <trkpt lat="69.820425035431981" lon="20.877860002219677">
        <ele>180.38</ele>
        <time>2017-06-25T16:23:29Z</time>
      </trkpt>
      <trkpt lat="69.820472979918122" lon="20.87825302965939">
        <ele>178.94</ele>
        <time>2017-06-25T16:23:30Z</time>
      </trkpt>
      <trkpt lat="69.820498041808605" lon="20.878649996593595">
        <ele>178.46000000000001</ele>
        <time>2017-06-25T16:23:31Z</time>
      </trkpt>
      <trkpt lat="69.820503992959857" lon="20.879061967134476">
        <ele>177.5</ele>
        <time>2017-06-25T16:23:32Z</time>
      </trkpt>
      <trkpt lat="69.820492006838322" lon="20.879495982080698">
        <ele>176.53999999999999</ele>
        <time>2017-06-25T16:23:33Z</time>
      </trkpt>
      <trkpt lat="69.820471974089742" lon="20.879931002855301">
        <ele>176.06</ele>
        <time>2017-06-25T16:23:34Z</time>
      </trkpt>
      <trkpt lat="69.820451019331813" lon="20.88085200637579">
        <ele>173.66</ele>
        <time>2017-06-25T16:23:36Z</time>
      </trkpt>
      <trkpt lat="69.820458982139826" lon="20.88134603574872">
        <ele>172.21000000000001</ele>
        <time>2017-06-25T16:23:37Z</time>
      </trkpt>
      <trkpt lat="69.820483960211277" lon="20.881852973252535">
        <ele>170.77000000000001</ele>
        <time>2017-06-25T16:23:38Z</time>
      </trkpt>
      <trkpt lat="69.820521008223295" lon="20.882366029545665">
        <ele>169.33000000000001</ele>
        <time>2017-06-25T16:23:39Z</time>
      </trkpt>
      <trkpt lat="69.820570964366198" lon="20.882898028939962">
        <ele>167.41</ele>
        <time>2017-06-25T16:23:40Z</time>
      </trkpt>
      <trkpt lat="69.821034986525774" lon="20.887393997982144">
        <ele>155.87</ele>
        <time>2017-06-25T16:23:49Z</time>
      </trkpt>
      <trkpt lat="69.821042027324438" lon="20.887822983786464">
        <ele>154.91</ele>
        <time>2017-06-25T16:23:50Z</time>
      </trkpt>
      <trkpt lat="69.821028029546142" lon="20.888233026489615">
        <ele>153.94999999999999</ele>
        <time>2017-06-25T16:23:51Z</time>
      </trkpt>
      <trkpt lat="69.820999028161168" lon="20.88861096650362">
        <ele>152.99000000000001</ele>
        <time>2017-06-25T16:23:52Z</time>
      </trkpt>
      <trkpt lat="69.820943037047982" lon="20.888940040022135">
        <ele>152.03</ele>
        <time>2017-06-25T16:23:53Z</time>
      </trkpt>
      <trkpt lat="69.820865001529455" lon="20.889229970052838">
        <ele>151.06</ele>
        <time>2017-06-25T16:23:54Z</time>
      </trkpt>
      <trkpt lat="69.820765005424619" lon="20.889483019709587">
        <ele>150.58000000000001</ele>
        <time>2017-06-25T16:23:55Z</time>
      </trkpt>
      <trkpt lat="69.820650005713105" lon="20.889696003869176">
        <ele>149.62</ele>
        <time>2017-06-25T16:23:56Z</time>
      </trkpt>
      <trkpt lat="69.820517990738153" lon="20.889885015785694">
        <ele>149.13999999999999</ele>
        <time>2017-06-25T16:23:57Z</time>
      </trkpt>
      <trkpt lat="69.820256978273392" lon="20.890347026288509">
        <ele>147.69999999999999</ele>
        <time>2017-06-25T16:23:59Z</time>
      </trkpt>
      <trkpt lat="69.820138961076736" lon="20.890646008774638">
        <ele>146.74000000000001</ele>
        <time>2017-06-25T16:24:00Z</time>
      </trkpt>
      <trkpt lat="69.820029996335506" lon="20.890991007909179">
        <ele>145.78</ele>
        <time>2017-06-25T16:24:01Z</time>
      </trkpt>
      <trkpt lat="69.819732019677758" lon="20.892101023346186">
        <ele>142.88999999999999</ele>
        <time>2017-06-25T16:24:04Z</time>
      </trkpt>
      <trkpt lat="69.819610984995961" lon="20.892445016652346">
        <ele>141.93000000000001</ele>
        <time>2017-06-25T16:24:05Z</time>
      </trkpt>
      <trkpt lat="69.819477964192629" lon="20.892763026058674">
        <ele>140.97</ele>
        <time>2017-06-25T16:24:06Z</time>
      </trkpt>
      <trkpt lat="69.819088038057089" lon="20.893671959638596">
        <ele>138.09</ele>
        <time>2017-06-25T16:24:09Z</time>
      </trkpt>
      <trkpt lat="69.818973960354924" lon="20.894012013450265">
        <ele>137.13</ele>
        <time>2017-06-25T16:24:10Z</time>
      </trkpt>
      <trkpt lat="69.818878993391991" lon="20.894392970949411">
        <ele>136.16</ele>
        <time>2017-06-25T16:24:11Z</time>
      </trkpt>
      <trkpt lat="69.818795006722212" lon="20.894808964803815">
        <ele>134.72</ele>
        <time>2017-06-25T16:24:12Z</time>
      </trkpt>
      <trkpt lat="69.818722000345588" lon="20.895254965871572">
        <ele>133.75999999999999</ele>
        <time>2017-06-25T16:24:13Z</time>
      </trkpt>
      <trkpt lat="69.818663997575641" lon="20.895709013566375">
        <ele>132.80000000000001</ele>
        <time>2017-06-25T16:24:14Z</time>
      </trkpt>
      <trkpt lat="69.818393010646105" lon="20.897338036447763">
        <ele>127.98999999999999</ele>
        <time>2017-06-25T16:24:18Z</time>
      </trkpt>
      <trkpt lat="69.81829795986414" lon="20.89765302836895">
        <ele>127.03</ele>
        <time>2017-06-25T16:24:19Z</time>
      </trkpt>
      <trkpt lat="69.818194024264812" lon="20.89791202917695">
        <ele>126.06999999999999</ele>
        <time>2017-06-25T16:24:20Z</time>
      </trkpt>
      <trkpt lat="69.818073995411396" lon="20.898123001679778">
        <ele>125.59</ele>
        <time>2017-06-25T16:24:21Z</time>
      </trkpt>
      <trkpt lat="69.817939968779683" lon="20.898303966969252">
        <ele>124.63</ele>
        <time>2017-06-25T16:24:22Z</time>
      </trkpt>
      <trkpt lat="69.817793034017086" lon="20.898473029956222">
        <ele>123.19</ele>
        <time>2017-06-25T16:24:23Z</time>
      </trkpt>
      <trkpt lat="69.816482020542026" lon="20.900154020637274">
        <ele>114.53</ele>
        <time>2017-06-25T16:24:31Z</time>
      </trkpt>
      <trkpt lat="69.815464960411191" lon="20.901221036911011">
        <ele>107.81</ele>
        <time>2017-06-25T16:24:38Z</time>
      </trkpt>
      <trkpt lat="69.815369993448257" lon="20.901385992765427">
        <ele>106.84</ele>
        <time>2017-06-25T16:24:39Z</time>
      </trkpt>
      <trkpt lat="69.815294975414872" lon="20.901594031602144">
        <ele>105.88</ele>
        <time>2017-06-25T16:24:40Z</time>
      </trkpt>
      <trkpt lat="69.815243007615209" lon="20.901841968297958">
        <ele>105.40000000000001</ele>
        <time>2017-06-25T16:24:41Z</time>
      </trkpt>
      <trkpt lat="69.815213000401855" lon="20.902142040431499">
        <ele>104.44</ele>
        <time>2017-06-25T16:24:42Z</time>
      </trkpt>
      <trkpt lat="69.815201014280319" lon="20.902490979060531">
        <ele>103.95999999999999</ele>
        <time>2017-06-25T16:24:43Z</time>
      </trkpt>
      <trkpt lat="69.8152020201087" lon="20.902887023985386">
        <ele>102.52</ele>
        <time>2017-06-25T16:24:44Z</time>
      </trkpt>
      <trkpt lat="69.815214006230235" lon="20.903295977041125">
        <ele>101.56</ele>
        <time>2017-06-25T16:24:45Z</time>
      </trkpt>
      <trkpt lat="69.815325988456607" lon="20.905594965443015">
        <ele>95.310000000000002</ele>
        <time>2017-06-25T16:24:51Z</time>
      </trkpt>
      <trkpt lat="69.815319031476974" lon="20.905879028141499">
        <ele>94.349999999999994</ele>
        <time>2017-06-25T16:24:52Z</time>
      </trkpt>
      <trkpt lat="69.815291035920382" lon="20.906126964837313">
        <ele>93.870000000000005</ele>
        <time>2017-06-25T16:24:53Z</time>
      </trkpt>
      <trkpt lat="69.815236972644925" lon="20.906344978138804">
        <ele>92.900000000000006</ele>
        <time>2017-06-25T16:24:54Z</time>
      </trkpt>
      <trkpt lat="69.815153991803527" lon="20.906524015590549">
        <ele>92.420000000000002</ele>
        <time>2017-06-25T16:24:55Z</time>
      </trkpt>
      <trkpt lat="69.815046032890677" lon="20.906664999201894">
        <ele>91.939999999999998</ele>
        <time>2017-06-25T16:24:56Z</time>
      </trkpt>
      <trkpt lat="69.81492499820888" lon="20.906787039712071">
        <ele>91.459999999999994</ele>
        <time>2017-06-25T16:24:57Z</time>
      </trkpt>
      <trkpt lat="69.814787032082677" lon="20.906896004453301">
        <ele>90.5</ele>
        <time>2017-06-25T16:24:58Z</time>
      </trkpt>
      <trkpt lat="69.814184037968516" lon="20.907604023814201">
        <ele>86.659999999999997</ele>
        <time>2017-06-25T16:25:02Z</time>
      </trkpt>
      <trkpt lat="69.814037019386888" lon="20.907890014350414">
        <ele>85.689999999999998</ele>
        <time>2017-06-25T16:25:03Z</time>
      </trkpt>
      <trkpt lat="69.813893018290401" lon="20.908225039020181">
        <ele>84.730000000000004</ele>
        <time>2017-06-25T16:25:04Z</time>
      </trkpt>
      <trkpt lat="69.813755974173546" lon="20.908585041761398">
        <ele>83.769999999999996</ele>
        <time>2017-06-25T16:25:05Z</time>
      </trkpt>
      <trkpt lat="69.813626976683736" lon="20.908957030624151">
        <ele>82.329999999999998</ele>
        <time>2017-06-25T16:25:06Z</time>
      </trkpt>
      <trkpt lat="69.81294603087008" lon="20.910776993259788">
        <ele>76.560000000000002</ele>
        <time>2017-06-25T16:25:12Z</time>
      </trkpt>
      <trkpt lat="69.812844023108482" lon="20.91093298047781">
        <ele>75.599999999999994</ele>
        <time>2017-06-25T16:25:13Z</time>
      </trkpt>
      <trkpt lat="69.812730029225349" lon="20.911026019603014">
        <ele>75.120000000000005</ele>
        <time>2017-06-25T16:25:14Z</time>
      </trkpt>
      <trkpt lat="69.812602959573269" lon="20.911046974360943">
        <ele>74.159999999999997</ele>
        <time>2017-06-25T16:25:15Z</time>
      </trkpt>
      <trkpt lat="69.812458958476782" lon="20.911004981026053">
        <ele>73.200000000000003</ele>
        <time>2017-06-25T16:25:16Z</time>
      </trkpt>
      <trkpt lat="69.812314035370946" lon="20.910944966599345">
        <ele>72.239999999999995</ele>
        <time>2017-06-25T16:25:17Z</time>
      </trkpt>
      <trkpt lat="69.811706012114882" lon="20.910777999088168">
        <ele>68.390000000000001</ele>
        <time>2017-06-25T16:25:21Z</time>
      </trkpt>
      <trkpt lat="69.81155295856297" lon="20.910823009908199">
        <ele>66.950000000000003</ele>
        <time>2017-06-25T16:25:22Z</time>
      </trkpt>
      <trkpt lat="69.81140099465847" lon="20.910940021276474">
        <ele>65.989999999999995</ele>
        <time>2017-06-25T16:25:23Z</time>
      </trkpt>
      <trkpt lat="69.81124903075397" lon="20.911113023757935">
        <ele>64.549999999999997</ele>
        <time>2017-06-25T16:25:24Z</time>
      </trkpt>
      <trkpt lat="69.811101006343961" lon="20.91131997294724">
        <ele>63.579999999999998</ele>
        <time>2017-06-25T16:25:25Z</time>
      </trkpt>
      <trkpt lat="69.81081803329289" lon="20.911781983450055">
        <ele>61.659999999999997</ele>
        <time>2017-06-25T16:25:27Z</time>
      </trkpt>
      <trkpt lat="69.810694986954331" lon="20.91205095872283">
        <ele>60.700000000000003</ele>
        <time>2017-06-25T16:25:28Z</time>
      </trkpt>
      <trkpt lat="69.810591973364353" lon="20.912361005321145">
        <ele>60.219999999999999</ele>
        <time>2017-06-25T16:25:29Z</time>
      </trkpt>
      <trkpt lat="69.810509998351336" lon="20.912712039425969">
        <ele>58.780000000000001</ele>
        <time>2017-06-25T16:25:30Z</time>
      </trkpt>
      <trkpt lat="69.810451995581388" lon="20.913111018016934">
        <ele>57.340000000000003</ele>
        <time>2017-06-25T16:25:31Z</time>
      </trkpt>
      <trkpt lat="69.810419976711273" lon="20.913536986336112">
        <ele>56.369999999999997</ele>
        <time>2017-06-25T16:25:32Z</time>
      </trkpt>
      <trkpt lat="69.810410002246499" lon="20.913977958261967">
        <ele>54.93</ele>
        <time>2017-06-25T16:25:33Z</time>
      </trkpt>
      <trkpt lat="69.810408996418118" lon="20.914406022056937">
        <ele>53.969999999999999</ele>
        <time>2017-06-25T16:25:34Z</time>
      </trkpt>
      <trkpt lat="69.810377983376384" lon="20.9152299631387">
        <ele>51.090000000000003</ele>
        <time>2017-06-25T16:25:36Z</time>
      </trkpt>
      <trkpt lat="69.810331966727972" lon="20.915625002235174">
        <ele>50.130000000000003</ele>
        <time>2017-06-25T16:25:37Z</time>
      </trkpt>
      <trkpt lat="69.810271030291915" lon="20.915993973612785">
        <ele>49.159999999999997</ele>
        <time>2017-06-25T16:25:38Z</time>
      </trkpt>
      <trkpt lat="69.810185031965375" lon="20.916302008554339">
        <ele>48.200000000000003</ele>
        <time>2017-06-25T16:25:39Z</time>
      </trkpt>
      <trkpt lat="69.810083024203777" lon="20.916548017412424">
        <ele>47.240000000000002</ele>
        <time>2017-06-25T16:25:40Z</time>
      </trkpt>
      <trkpt lat="69.809972969815135" lon="20.916704004630446">
        <ele>46.280000000000001</ele>
        <time>2017-06-25T16:25:41Z</time>
      </trkpt>
      <trkpt lat="69.809868028387427" lon="20.916758989915252">
        <ele>45.799999999999997</ele>
        <time>2017-06-25T16:25:42Z</time>
      </trkpt>
      <trkpt lat="69.809758979827166" lon="20.916725965216756">
        <ele>44.359999999999999</ele>
        <time>2017-06-25T16:25:43Z</time>
      </trkpt>
      <trkpt lat="69.809649009257555" lon="20.916640972718596">
        <ele>43.880000000000003</ele>
        <time>2017-06-25T16:25:44Z</time>
      </trkpt>
      <trkpt lat="69.809528980404139" lon="20.916542988270521">
        <ele>42.920000000000002</ele>
        <time>2017-06-25T16:25:45Z</time>
      </trkpt>
      <trkpt lat="69.808835964649916" lon="20.916399993002415">
        <ele>38.590000000000003</ele>
        <time>2017-06-25T16:25:50Z</time>
      </trkpt>
      <trkpt lat="69.808705039322376" lon="20.916492026299238">
        <ele>38.109999999999999</ele>
        <time>2017-06-25T16:25:51Z</time>
      </trkpt>
      <trkpt lat="69.808578975498676" lon="20.916636027395725">
        <ele>37.149999999999999</ele>
        <time>2017-06-25T16:25:52Z</time>
      </trkpt>
      <trkpt lat="69.80845601297915" lon="20.916839959099889">
        <ele>36.189999999999998</ele>
        <time>2017-06-25T16:25:53Z</time>
      </trkpt>
      <trkpt lat="69.808337995782495" lon="20.917096026241779">
        <ele>35.229999999999997</ele>
        <time>2017-06-25T16:25:54Z</time>
      </trkpt>
      <trkpt lat="69.808217966929078" lon="20.917380005121231">
        <ele>34.740000000000002</ele>
        <time>2017-06-25T16:25:55Z</time>
      </trkpt>
      <trkpt lat="69.807754028588533" lon="20.918482979759574">
        <ele>30.899999999999999</ele>
        <time>2017-06-25T16:25:59Z</time>
      </trkpt>
      <trkpt lat="69.80766199529171" lon="20.918812975287437">
        <ele>29.460000000000001</ele>
        <time>2017-06-25T16:26:00Z</time>
      </trkpt>
      <trkpt lat="69.807589994743466" lon="20.919186975806952">
        <ele>28.02</ele>
        <time>2017-06-25T16:26:01Z</time>
      </trkpt>
      <trkpt lat="69.807527968659997" lon="20.919588971883059">
        <ele>27.050000000000001</ele>
        <time>2017-06-25T16:26:02Z</time>
      </trkpt>
      <trkpt lat="69.80746996589005" lon="20.919983005151153">
        <ele>26.09</ele>
        <time>2017-06-25T16:26:03Z</time>
      </trkpt>
      <trkpt lat="69.807287994772196" lon="20.920995036140084">
        <ele>24.170000000000002</ele>
        <time>2017-06-25T16:26:06Z</time>
      </trkpt>
      <trkpt lat="69.807209959253669" lon="20.921248001977801">
        <ele>23.690000000000001</ele>
        <time>2017-06-25T16:26:07Z</time>
      </trkpt>
      <trkpt lat="69.807111974805593" lon="20.921440031379461">
        <ele>22.73</ele>
        <time>2017-06-25T16:26:08Z</time>
      </trkpt>
      <trkpt lat="69.806997980922461" lon="20.921582020819187">
        <ele>22.73</ele>
        <time>2017-06-25T16:26:09Z</time>
      </trkpt>
      <trkpt lat="69.806866971775889" lon="20.921678999438882">
        <ele>21.77</ele>
        <time>2017-06-25T16:26:10Z</time>
      </trkpt>
      <trkpt lat="69.806725988164544" lon="20.921757034957409">
        <ele>20.809999999999999</ele>
        <time>2017-06-25T16:26:11Z</time>
      </trkpt>
      <trkpt lat="69.805950997397304" lon="20.922611989080906">
        <ele>16.48</ele>
        <time>2017-06-25T16:26:17Z</time>
      </trkpt>
      <trkpt lat="69.805814037099481" lon="20.922698993235826">
        <ele>15.52</ele>
        <time>2017-06-25T16:26:18Z</time>
      </trkpt>
      <trkpt lat="69.805666012689471" lon="20.922756996005774">
        <ele>15.039999999999999</ele>
        <time>2017-06-25T16:26:19Z</time>
      </trkpt>
      <trkpt lat="69.804016035050154" lon="20.923051033169031">
        <ele>10.23</ele>
        <time>2017-06-25T16:26:30Z</time>
      </trkpt>
      <trkpt lat="69.802392041310668" lon="20.923601975664496">
        <ele>10.23</ele>
        <time>2017-06-25T16:26:43Z</time>
      </trkpt>
      <trkpt lat="69.800751032307744" lon="20.92390900477767">
        <ele>10.710000000000001</ele>
        <time>2017-06-25T16:26:56Z</time>
      </trkpt>
      <trkpt lat="69.800656987354159" lon="20.924005983397365">
        <ele>10.710000000000001</ele>
        <time>2017-06-25T16:26:57Z</time>
      </trkpt>
      <trkpt lat="69.800565037876368" lon="20.924159958958626">
        <ele>10.23</ele>
        <time>2017-06-25T16:26:58Z</time>
      </trkpt>
      <trkpt lat="69.800478033721447" lon="20.924348970875144">
        <ele>9.75</ele>
        <time>2017-06-25T16:26:59Z</time>
      </trkpt>
      <trkpt lat="69.800388012081385" lon="20.924552986398339">
        <ele>9.27</ele>
        <time>2017-06-25T16:27:00Z</time>
      </trkpt>
      <trkpt lat="69.799257041886449" lon="20.927044004201889">
        <ele>13.119999999999999</ele>
        <time>2017-06-25T16:27:10Z</time>
      </trkpt>
      <trkpt lat="69.797871010378003" lon="20.928891962394118">
        <ele>19.359999999999999</ele>
        <time>2017-06-25T16:27:19Z</time>
      </trkpt>
      <trkpt lat="69.796572988852859" lon="20.931073017418385">
        <ele>17.920000000000002</ele>
        <time>2017-06-25T16:27:27Z</time>
      </trkpt>
      <trkpt lat="69.795752987265587" lon="20.933042010292411">
        <ele>13.119999999999999</ele>
        <time>2017-06-25T16:27:33Z</time>
      </trkpt>
      <trkpt lat="69.795602029189467" lon="20.933254994452">
        <ele>12.15</ele>
        <time>2017-06-25T16:27:34Z</time>
      </trkpt>
      <trkpt lat="69.794249022379518" lon="20.934798019006848">
        <ele>8.310000000000001</ele>
        <time>2017-06-25T16:27:43Z</time>
      </trkpt>
      <trkpt lat="69.793534968048334" lon="20.935864029452205">
        <ele>7.83</ele>
        <time>2017-06-25T16:27:49Z</time>
      </trkpt>
      <trkpt lat="69.793437989428639" lon="20.936098974198103">
        <ele>7.83</ele>
        <time>2017-06-25T16:27:50Z</time>
      </trkpt>
      <trkpt lat="69.793348973616958" lon="20.9363719727844">
        <ele>7.83</ele>
        <time>2017-06-25T16:27:51Z</time>
      </trkpt>
      <trkpt lat="69.793273033574224" lon="20.936669027432799">
        <ele>7.83</ele>
        <time>2017-06-25T16:27:52Z</time>
      </trkpt>
      <trkpt lat="69.793205978348851" lon="20.936987958848476">
        <ele>7.83</ele>
        <time>2017-06-25T16:27:53Z</time>
      </trkpt>
      <trkpt lat="69.793145963922143" lon="20.937321977689862">
        <ele>7.83</ele>
        <time>2017-06-25T16:27:54Z</time>
      </trkpt>
      <trkpt lat="69.793093996122479" lon="20.937652979046106">
        <ele>7.35</ele>
        <time>2017-06-25T16:27:55Z</time>
      </trkpt>
      <trkpt lat="69.792700968682766" lon="20.940212979912758">
        <ele>8.310000000000001</ele>
        <time>2017-06-25T16:28:04Z</time>
      </trkpt>
      <trkpt lat="69.792630979791284" lon="20.940462006255984">
        <ele>8.310000000000001</ele>
        <time>2017-06-25T16:28:05Z</time>
      </trkpt>
      <trkpt lat="69.792546993121505" lon="20.940683959051967">
        <ele>8.789999999999999</ele>
        <time>2017-06-25T16:28:06Z</time>
      </trkpt>
      <trkpt lat="69.792454959824681" lon="20.940874982625246">
        <ele>8.310000000000001</ele>
        <time>2017-06-25T16:28:07Z</time>
      </trkpt>
      <trkpt lat="69.792353035882115" lon="20.941042033955455">
        <ele>8.789999999999999</ele>
        <time>2017-06-25T16:28:08Z</time>
      </trkpt>
      <trkpt lat="69.792243987321854" lon="20.941207995638251">
        <ele>8.789999999999999</ele>
        <time>2017-06-25T16:28:09Z</time>
      </trkpt>
      <trkpt lat="69.790715966373682" lon="20.943162990733981">
        <ele>7.83</ele>
        <time>2017-06-25T16:28:22Z</time>
      </trkpt>
      <trkpt lat="69.789420962333679" lon="20.944872982800007">
        <ele>6.87</ele>
        <time>2017-06-25T16:28:36Z</time>
      </trkpt>
      <trkpt lat="69.788756025955081" lon="20.945771019905806">
        <ele>7.35</ele>
        <time>2017-06-25T16:28:48Z</time>
      </trkpt>
      <trkpt lat="69.788160994648933" lon="20.946634020656347">
        <ele>6.87</ele>
        <time>2017-06-25T16:29:00Z</time>
      </trkpt>
      <trkpt lat="69.787279972806573" lon="20.948053998872638">
        <ele>7.83</ele>
        <time>2017-06-25T16:29:12Z</time>
      </trkpt>
      <trkpt lat="69.785638963803649" lon="20.950773004442453">
        <ele>9.27</ele>
        <time>2017-06-25T16:29:27Z</time>
      </trkpt>
      <trkpt lat="69.783782958984375" lon="20.953834997490048">
        <ele>14.56</ele>
        <time>2017-06-25T16:29:42Z</time>
      </trkpt>
      <trkpt lat="69.782221997156739" lon="20.956344958394766">
        <ele>12.630000000000001</ele>
        <time>2017-06-25T16:29:56Z</time>
      </trkpt>
      <trkpt lat="69.780189972370863" lon="20.959708029404283">
        <ele>13.119999999999999</ele>
        <time>2017-06-25T16:30:12Z</time>
      </trkpt>
      <trkpt lat="69.778330028057098" lon="20.962799023836851">
        <ele>13.6</ele>
        <time>2017-06-25T16:30:25Z</time>
      </trkpt>
      <trkpt lat="69.777188999578357" lon="20.965333040803671">
        <ele>14.56</ele>
        <time>2017-06-25T16:30:34Z</time>
      </trkpt>
      <trkpt lat="69.777099983766675" lon="20.965701006352901">
        <ele>14.56</ele>
        <time>2017-06-25T16:30:35Z</time>
      </trkpt>
      <trkpt lat="69.777020020410419" lon="20.966100990772247">
        <ele>14.56</ele>
        <time>2017-06-25T16:30:36Z</time>
      </trkpt>
      <trkpt lat="69.776953971013427" lon="20.96651497296989">
        <ele>14.56</ele>
        <time>2017-06-25T16:30:37Z</time>
      </trkpt>
      <trkpt lat="69.77689303457737" lon="20.966946976259351">
        <ele>14.08</ele>
        <time>2017-06-25T16:30:38Z</time>
      </trkpt>
      <trkpt lat="69.776296997442842" lon="20.970738027244806">
        <ele>13.6</ele>
        <time>2017-06-25T16:30:47Z</time>
      </trkpt>
      <trkpt lat="69.776195995509624" lon="20.971072968095541">
        <ele>13.6</ele>
        <time>2017-06-25T16:30:48Z</time>
      </trkpt>
      <trkpt lat="69.776087030768394" lon="20.97137002274394">
        <ele>13.6</ele>
        <time>2017-06-25T16:30:49Z</time>
      </trkpt>
      <trkpt lat="69.775960966944695" lon="20.97162801772356">
        <ele>14.08</ele>
        <time>2017-06-25T16:30:50Z</time>
      </trkpt>
      <trkpt lat="69.775827024132013" lon="20.971847036853433">
        <ele>13.6</ele>
        <time>2017-06-25T16:30:51Z</time>
      </trkpt>
      <trkpt lat="69.775687968358397" lon="20.972025990486145">
        <ele>13.6</ele>
        <time>2017-06-25T16:30:52Z</time>
      </trkpt>
      <trkpt lat="69.775544973090291" lon="20.972184995189309">
        <ele>13.6</ele>
        <time>2017-06-25T16:30:53Z</time>
      </trkpt>
      <trkpt lat="69.775268035009503" lon="20.97255103290081">
        <ele>13.6</ele>
        <time>2017-06-25T16:30:55Z</time>
      </trkpt>
      <trkpt lat="69.775144988670945" lon="20.972784971818328">
        <ele>13.6</ele>
        <time>2017-06-25T16:30:56Z</time>
      </trkpt>
      <trkpt lat="69.775032000616193" lon="20.973062999546528">
        <ele>13.6</ele>
        <time>2017-06-25T16:30:57Z</time>
      </trkpt>
      <trkpt lat="69.774935021996498" lon="20.973386960104108">
        <ele>13.6</ele>
        <time>2017-06-25T16:30:58Z</time>
      </trkpt>
      <trkpt lat="69.774851035326719" lon="20.973745035007596">
        <ele>13.119999999999999</ele>
        <time>2017-06-25T16:30:59Z</time>
      </trkpt>
      <trkpt lat="69.774782974272966" lon="20.974138984456658">
        <ele>13.119999999999999</ele>
        <time>2017-06-25T16:31:00Z</time>
      </trkpt>
      <trkpt lat="69.7747259773314" lon="20.974551038816571">
        <ele>12.630000000000001</ele>
        <time>2017-06-25T16:31:01Z</time>
      </trkpt>
      <trkpt lat="69.774684989824891" lon="20.974980024620891">
        <ele>12.630000000000001</ele>
        <time>2017-06-25T16:31:02Z</time>
      </trkpt>
      <trkpt lat="69.774647019803524" lon="20.975425019860268">
        <ele>12.15</ele>
        <time>2017-06-25T16:31:03Z</time>
      </trkpt>
      <trkpt lat="69.774516010656953" lon="20.976775009185076">
        <ele>10.23</ele>
        <time>2017-06-25T16:31:06Z</time>
      </trkpt>
      <trkpt lat="69.774447027593851" lon="20.977205000817776">
        <ele>9.27</ele>
        <time>2017-06-25T16:31:07Z</time>
      </trkpt>
      <trkpt lat="69.774362035095692" lon="20.977619988843799">
        <ele>8.310000000000001</ele>
        <time>2017-06-25T16:31:08Z</time>
      </trkpt>
      <trkpt lat="69.774260027334094" lon="20.978012010455132">
        <ele>7.83</ele>
        <time>2017-06-25T16:31:09Z</time>
      </trkpt>
      <trkpt lat="69.774150978773832" lon="20.978389028459787">
        <ele>7.35</ele>
        <time>2017-06-25T16:31:10Z</time>
      </trkpt>
      <trkpt lat="69.773189993575215" lon="20.982290972024202">
        <ele>6.39</ele>
        <time>2017-06-25T16:31:20Z</time>
      </trkpt>
      <trkpt lat="69.772353982552886" lon="20.986813008785248">
        <ele>6.39</ele>
        <time>2017-06-25T16:31:32Z</time>
      </trkpt>
      <trkpt lat="69.771400038152933" lon="20.9920409694314">
        <ele>6.87</ele>
        <time>2017-06-25T16:31:48Z</time>
      </trkpt>
      <trkpt lat="69.770526979118586" lon="20.997181003913283">
        <ele>5.91</ele>
        <time>2017-06-25T16:32:04Z</time>
      </trkpt>
      <trkpt lat="69.769640006124973" lon="21.002493035048246">
        <ele>6.87</ele>
        <time>2017-06-25T16:32:21Z</time>
      </trkpt>
      <trkpt lat="69.768613977357745" lon="21.008509984239936">
        <ele>7.35</ele>
        <time>2017-06-25T16:32:40Z</time>
      </trkpt>
      <trkpt lat="69.767621979117393" lon="21.014501033350825">
        <ele>8.310000000000001</ele>
        <time>2017-06-25T16:32:59Z</time>
      </trkpt>
      <trkpt lat="69.767551990225911" lon="21.016505984589458">
        <ele>9.27</ele>
        <time>2017-06-25T16:33:07Z</time>
      </trkpt>
      <trkpt lat="69.76759297773242" lon="21.018024031072855">
        <ele>9.27</ele>
        <time>2017-06-25T16:33:16Z</time>
      </trkpt>
      <trkpt lat="69.767672019079328" lon="21.021241005510092">
        <ele>6.87</ele>
        <time>2017-06-25T16:33:27Z</time>
      </trkpt>
      <trkpt lat="69.767762962728739" lon="21.023059040307999">
        <ele>6.87</ele>
        <time>2017-06-25T16:33:33Z</time>
      </trkpt>
      <trkpt lat="69.767801016569138" lon="21.023334972560406">
        <ele>6.87</ele>
        <time>2017-06-25T16:33:34Z</time>
      </trkpt>
      <trkpt lat="69.76784803904593" lon="21.023591961711645">
        <ele>6.87</ele>
        <time>2017-06-25T16:33:35Z</time>
      </trkpt>
      <trkpt lat="69.767903024330735" lon="21.023807963356376">
        <ele>6.87</ele>
        <time>2017-06-25T16:33:36Z</time>
      </trkpt>
      <trkpt lat="69.767961027100682" lon="21.024003010243177">
        <ele>6.87</ele>
        <time>2017-06-25T16:33:37Z</time>
      </trkpt>
      <trkpt lat="69.76802003569901" lon="21.024178024381399">
        <ele>6.39</ele>
        <time>2017-06-25T16:33:38Z</time>
      </trkpt>
      <trkpt lat="69.768084995448589" lon="21.024335017427802">
        <ele>6.87</ele>
        <time>2017-06-25T16:33:39Z</time>
      </trkpt>
      <trkpt lat="69.768222961574793" lon="21.024611033499241">
        <ele>6.87</ele>
        <time>2017-06-25T16:33:41Z</time>
      </trkpt>
      <trkpt lat="69.7683020029217" lon="21.024714969098568">
        <ele>6.87</ele>
        <time>2017-06-25T16:33:42Z</time>
      </trkpt>
      <trkpt lat="69.768385989591479" lon="21.024790992960334">
        <ele>6.87</ele>
        <time>2017-06-25T16:33:43Z</time>
      </trkpt>
      <trkpt lat="69.768475005403161" lon="21.0248479899019">
        <ele>6.87</ele>
        <time>2017-06-25T16:33:44Z</time>
      </trkpt>
      <trkpt lat="69.768568966537714" lon="21.024905992671847">
        <ele>7.35</ele>
        <time>2017-06-25T16:33:45Z</time>
      </trkpt>
      <trkpt lat="69.769933959469199" lon="21.025657011196017">
        <ele>6.87</ele>
        <time>2017-06-25T16:33:58Z</time>
      </trkpt>
      <trkpt lat="69.771312028169632" lon="21.027328027412295">
        <ele>6.87</ele>
        <time>2017-06-25T16:34:12Z</time>
      </trkpt>
      <trkpt lat="69.77197696454823" lon="21.028164960443974">
        <ele>6.87</ele>
        <time>2017-06-25T16:34:20Z</time>
      </trkpt>
      <trkpt lat="69.773255959153175" lon="21.029952988028526">
        <ele>9.27</ele>
        <time>2017-06-25T16:34:30Z</time>
      </trkpt>
      <trkpt lat="69.775384962558746" lon="21.033672038465738">
        <ele>10.23</ele>
        <time>2017-06-25T16:34:46Z</time>
      </trkpt>
      <trkpt lat="69.776883982121944" lon="21.035644970834255">
        <ele>7.83</ele>
        <time>2017-06-25T16:34:58Z</time>
      </trkpt>
      <trkpt lat="69.778117965906858" lon="21.037166034802794">
        <ele>8.789999999999999</ele>
        <time>2017-06-25T16:35:06Z</time>
      </trkpt>
      <trkpt lat="69.779856959357858" lon="21.039503999054432">
        <ele>15.039999999999999</ele>
        <time>2017-06-25T16:35:16Z</time>
      </trkpt>
      <trkpt lat="69.782796995714307" lon="21.043773991987109">
        <ele>20.809999999999999</ele>
        <time>2017-06-25T16:35:34Z</time>
      </trkpt>
      <trkpt lat="69.784847963601351" lon="21.046430971473455">
        <ele>19.359999999999999</ele>
        <time>2017-06-25T16:35:47Z</time>
      </trkpt>
      <trkpt lat="69.786916030570865" lon="21.04777199216187">
        <ele>16.960000000000001</ele>
        <time>2017-06-25T16:36:00Z</time>
      </trkpt>
      <trkpt lat="69.788961969316006" lon="21.049395985901356">
        <ele>14.56</ele>
        <time>2017-06-25T16:36:13Z</time>
      </trkpt>
      <trkpt lat="69.789101025089622" lon="21.04964098893106">
        <ele>14.56</ele>
        <time>2017-06-25T16:36:14Z</time>
      </trkpt>
      <trkpt lat="69.789233040064573" lon="21.049915999174118">
        <ele>15.039999999999999</ele>
        <time>2017-06-25T16:36:15Z</time>
      </trkpt>
      <trkpt lat="69.789353990927339" lon="21.050228979438543">
        <ele>15.039999999999999</ele>
        <time>2017-06-25T16:36:16Z</time>
      </trkpt>
      <trkpt lat="69.789471002295613" lon="21.050566015765071">
        <ele>15.52</ele>
        <time>2017-06-25T16:36:17Z</time>
      </trkpt>
      <trkpt lat="69.79019402526319" lon="21.053923973813653">
        <ele>20.32</ele>
        <time>2017-06-25T16:36:25Z</time>
      </trkpt>
      <trkpt lat="69.790896009653807" lon="21.05971796438098">
        <ele>28.98</ele>
        <time>2017-06-25T16:36:38Z</time>
      </trkpt>
      <trkpt lat="69.790829038247466" lon="21.063677994534373">
        <ele>36.189999999999998</ele>
        <time>2017-06-25T16:36:46Z</time>
      </trkpt>
      <trkpt lat="69.790939008817077" lon="21.0690229665488">
        <ele>43.880000000000003</ele>
        <time>2017-06-25T16:36:56Z</time>
      </trkpt>
      <trkpt lat="69.791265986859798" lon="21.074193008244038">
        <ele>50.609999999999999</ele>
        <time>2017-06-25T16:37:07Z</time>
      </trkpt>
      <trkpt lat="69.791759010404348" lon="21.077411994338036">
        <ele>51.57</ele>
        <time>2017-06-25T16:37:13Z</time>
      </trkpt>
      <trkpt lat="69.792520003393292" lon="21.081528011709452">
        <ele>51.090000000000003</ele>
        <time>2017-06-25T16:37:21Z</time>
      </trkpt>
      <trkpt lat="69.793549971655011" lon="21.085747964680195">
        <ele>50.130000000000003</ele>
        <time>2017-06-25T16:37:31Z</time>
      </trkpt>
      <trkpt lat="69.794435016810894" lon="21.087801028043032">
        <ele>48.200000000000003</ele>
        <time>2017-06-25T16:37:36Z</time>
      </trkpt>
      <trkpt lat="69.795622983947396" lon="21.090981960296631">
        <ele>43.880000000000003</ele>
        <time>2017-06-25T16:37:44Z</time>
      </trkpt>
      <trkpt lat="69.796439968049526" lon="21.09529503621161">
        <ele>39.549999999999997</ele>
        <time>2017-06-25T16:37:51Z</time>
      </trkpt>
      <trkpt lat="69.797612009570003" lon="21.101545002311468">
        <ele>34.259999999999998</ele>
        <time>2017-06-25T16:38:02Z</time>
      </trkpt>
      <trkpt lat="69.79855103418231" lon="21.106634996831417">
        <ele>28.5</ele>
        <time>2017-06-25T16:38:13Z</time>
      </trkpt>
      <trkpt lat="69.799355026334524" lon="21.110968021675944">
        <ele>24.649999999999999</ele>
        <time>2017-06-25T16:38:23Z</time>
      </trkpt>
      <trkpt lat="69.800048964098096" lon="21.115004997700453">
        <ele>16</ele>
        <time>2017-06-25T16:38:29Z</time>
      </trkpt>
      <trkpt lat="69.801224023103714" lon="21.123127983883023">
        <ele>10.23</ele>
        <time>2017-06-25T16:38:41Z</time>
      </trkpt>
      <trkpt lat="69.802770987153053" lon="21.13433500751853">
        <ele>-0.82</ele>
        <time>2017-06-25T16:38:59Z</time>
      </trkpt>
      <trkpt lat="69.80375099927187" lon="21.138621009886265">
        <ele>-0.82</ele>
        <time>2017-06-25T16:39:08Z</time>
      </trkpt>
      <trkpt lat="69.804865960031748" lon="21.140941036865115">
        <ele>-1.79</ele>
        <time>2017-06-25T16:39:15Z</time>
      </trkpt>
      <trkpt lat="69.805944040417671" lon="21.141779981553555">
        <ele>-1.3</ele>
        <time>2017-06-25T16:39:21Z</time>
      </trkpt>
      <trkpt lat="69.807622013613582" lon="21.14226495847106">
        <ele>-0.82</ele>
        <time>2017-06-25T16:39:31Z</time>
      </trkpt>
      <trkpt lat="69.808819033205509" lon="21.144105959683657">
        <ele>-1.79</ele>
        <time>2017-06-25T16:39:38Z</time>
      </trkpt>
      <trkpt lat="69.810329033061862" lon="21.146318027749658">
        <ele>-2.75</ele>
        <time>2017-06-25T16:39:46Z</time>
      </trkpt>
      <trkpt lat="69.812265001237392" lon="21.146906018257141">
        <ele>-2.75</ele>
        <time>2017-06-25T16:39:55Z</time>
      </trkpt>
      <trkpt lat="69.814141038805246" lon="21.146801998838782">
        <ele>-3.71</ele>
        <time>2017-06-25T16:40:04Z</time>
      </trkpt>
      <trkpt lat="69.815373010933399" lon="21.14761495962739">
        <ele>-2.27</ele>
        <time>2017-06-25T16:40:10Z</time>
      </trkpt>
      <trkpt lat="69.817425990477204" lon="21.150704026222229">
        <ele>-0.34</ele>
        <time>2017-06-25T16:40:20Z</time>
      </trkpt>
      <trkpt lat="69.819079991430044" lon="21.153516992926598">
        <ele>-4.67</ele>
        <time>2017-06-25T16:40:28Z</time>
      </trkpt>
      <trkpt lat="69.819893036037683" lon="21.156794987618923">
        <ele>-4.67</ele>
        <time>2017-06-25T16:40:34Z</time>
      </trkpt>
      <trkpt lat="69.821527004241943" lon="21.164986034855247">
        <ele>-2.27</ele>
        <time>2017-06-25T16:40:48Z</time>
      </trkpt>
      <trkpt lat="69.822300989180803" lon="21.170512977987528">
        <ele>1.1</ele>
        <time>2017-06-25T16:40:57Z</time>
      </trkpt>
      <trkpt lat="69.823254011571407" lon="21.175623005256057">
        <ele>3.5</ele>
        <time>2017-06-25T16:41:06Z</time>
      </trkpt>
      <trkpt lat="69.824446002021432" lon="21.179196964949369">
        <ele>12.630000000000001</ele>
        <time>2017-06-25T16:41:14Z</time>
      </trkpt>
      <trkpt lat="69.825609996914864" lon="21.181866014376283">
        <ele>17.920000000000002</ele>
        <time>2017-06-25T16:41:21Z</time>
      </trkpt>
      <trkpt lat="69.827735982835293" lon="21.184239014983177">
        <ele>15.52</ele>
        <time>2017-06-25T16:41:31Z</time>
      </trkpt>
      <trkpt lat="69.830468986183405" lon="21.187762012705207">
        <ele>19.359999999999999</ele>
        <time>2017-06-25T16:41:44Z</time>
      </trkpt>
      <trkpt lat="69.831601968035102" lon="21.191083006560802">
        <ele>17.440000000000001</ele>
        <time>2017-06-25T16:41:51Z</time>
      </trkpt>
      <trkpt lat="69.832566976547241" lon="21.195795983076096">
        <ele>10.710000000000001</ele>
        <time>2017-06-25T16:41:59Z</time>
      </trkpt>
      <trkpt lat="69.83395803719759" lon="21.20081196539104">
        <ele>16.960000000000001</ele>
        <time>2017-06-25T16:42:09Z</time>
      </trkpt>
      <trkpt lat="69.835241977125406" lon="21.204640986397862">
        <ele>17.920000000000002</ele>
        <time>2017-06-25T16:42:17Z</time>
      </trkpt>
      <trkpt lat="69.836802016943693" lon="21.206636969000101">
        <ele>12.15</ele>
        <time>2017-06-25T16:42:24Z</time>
      </trkpt>
      <trkpt lat="69.838602030649781" lon="21.209196969866753">
        <ele>4.94</ele>
        <time>2017-06-25T16:42:32Z</time>
      </trkpt>
      <trkpt lat="69.840153018012643" lon="21.210676962509751">
        <ele>7.83</ele>
        <time>2017-06-25T16:42:39Z</time>
      </trkpt>
      <trkpt lat="69.841506024822593" lon="21.21323000639677">
        <ele>7.83</ele>
        <time>2017-06-25T16:42:46Z</time>
      </trkpt>
      <trkpt lat="69.844124028459191" lon="21.218110034242272">
        <ele>3.02</ele>
        <time>2017-06-25T16:42:59Z</time>
      </trkpt>
      <trkpt lat="69.84620600938797" lon="21.220173994079232">
        <ele>2.54</ele>
        <time>2017-06-25T16:43:08Z</time>
      </trkpt>
      <trkpt lat="69.847547030076385" lon="21.223142025992274">
        <ele>3.02</ele>
        <time>2017-06-25T16:43:15Z</time>
      </trkpt>
      <trkpt lat="69.848555959761143" lon="21.225576968863606">
        <ele>3.02</ele>
        <time>2017-06-25T16:43:21Z</time>
      </trkpt>
      <trkpt lat="69.850065959617496" lon="21.22760396450758">
        <ele>3.02</ele>
        <time>2017-06-25T16:43:28Z</time>
      </trkpt>
      <trkpt lat="69.852144001051784" lon="21.229147994890809">
        <ele>6.39</ele>
        <time>2017-06-25T16:43:37Z</time>
      </trkpt>
      <trkpt lat="69.853720972314477" lon="21.22887097299099">
        <ele>4.46</ele>
        <time>2017-06-25T16:43:44Z</time>
      </trkpt>
      <trkpt lat="69.855243964120746" lon="21.227176990360022">
        <ele>-0.82</ele>
        <time>2017-06-25T16:43:51Z</time>
      </trkpt>
      <trkpt lat="69.857261991128325" lon="21.224426971748471">
        <ele>-0.34</ele>
        <time>2017-06-25T16:44:00Z</time>
      </trkpt>
      <trkpt lat="69.862761022523046" lon="21.218899022787809">
        <ele>-0.82</ele>
        <time>2017-06-25T16:44:23Z</time>
      </trkpt>
      <trkpt lat="69.864916009828448" lon="21.216154033318162">
        <ele>-0.82</ele>
        <time>2017-06-25T16:44:33Z</time>
      </trkpt>
      <trkpt lat="69.866253007203341" lon="21.212578983977437">
        <ele>0.62</ele>
        <time>2017-06-25T16:44:41Z</time>
      </trkpt>
      <trkpt lat="69.867732999846339" lon="21.210173964500427">
        <ele>1.1</ele>
        <time>2017-06-25T16:44:48Z</time>
      </trkpt>
      <trkpt lat="69.869848005473614" lon="21.208186028525233">
        <ele>0.14</ele>
        <time>2017-06-25T16:44:57Z</time>
      </trkpt>
      <trkpt lat="69.871275024488568" lon="21.208065999671817">
        <ele>-0.34</ele>
        <time>2017-06-25T16:45:03Z</time>
      </trkpt>
      <trkpt lat="69.871503012254834" lon="21.207958040758967">
        <ele>-0.34</ele>
        <time>2017-06-25T16:45:04Z</time>
      </trkpt>
      <trkpt lat="69.8717310000211" lon="21.207802975550294">
        <ele>-0.34</ele>
        <time>2017-06-25T16:45:05Z</time>
      </trkpt>
      <trkpt lat="69.871953036636114" lon="21.207603989169002">
        <ele>-0.34</ele>
        <time>2017-06-25T16:45:06Z</time>
      </trkpt>
      <trkpt lat="69.872169038280845" lon="21.207362003624439">
        <ele>0.14</ele>
        <time>2017-06-25T16:45:07Z</time>
      </trkpt>
      <trkpt lat="69.872373975813389" lon="21.207068972289562">
        <ele>0.14</ele>
        <time>2017-06-25T16:45:08Z</time>
      </trkpt>
      <trkpt lat="69.872570028528571" lon="21.206747023388743">
        <ele>1.1</ele>
        <time>2017-06-25T16:45:09Z</time>
      </trkpt>
      <trkpt lat="69.872757028788328" lon="21.206393977627158">
        <ele>1.58</ele>
        <time>2017-06-25T16:45:10Z</time>
      </trkpt>
      <trkpt lat="69.874171977862716" lon="21.204489022493362">
        <ele>4.46</ele>
        <time>2017-06-25T16:45:17Z</time>
      </trkpt>
      <trkpt lat="69.87688897177577" lon="21.202098000794649">
        <ele>2.06</ele>
        <time>2017-06-25T16:45:29Z</time>
      </trkpt>
      <trkpt lat="69.878807002678514" lon="21.200264040380716">
        <ele>1.58</ele>
        <time>2017-06-25T16:45:38Z</time>
      </trkpt>
      <trkpt lat="69.880574997514486" lon="21.199775040149689">
        <ele>1.1</ele>
        <time>2017-06-25T16:45:46Z</time>
      </trkpt>
      <trkpt lat="69.88077700138092" lon="21.199547974392772">
        <ele>1.1</ele>
        <time>2017-06-25T16:45:47Z</time>
      </trkpt>
      <trkpt lat="69.880972970277071" lon="21.199278999119997">
        <ele>1.1</ele>
        <time>2017-06-25T16:45:48Z</time>
      </trkpt>
      <trkpt lat="69.881167011335492" lon="21.198960989713669">
        <ele>1.1</ele>
        <time>2017-06-25T16:45:49Z</time>
      </trkpt>
      <trkpt lat="69.881359040737152" lon="21.198602998629212">
        <ele>1.1</ele>
        <time>2017-06-25T16:45:50Z</time>
      </trkpt>
      <trkpt lat="69.883173974230886" lon="21.195233976468444">
        <ele>2.54</ele>
        <time>2017-06-25T16:45:59Z</time>
      </trkpt>
      <trkpt lat="69.885229971259832" lon="21.193261966109276">
        <ele>12.15</ele>
        <time>2017-06-25T16:46:08Z</time>
      </trkpt>
      <trkpt lat="69.888450969010592" lon="21.191504029557109">
        <ele>16</ele>
        <time>2017-06-25T16:46:21Z</time>
      </trkpt>
      <trkpt lat="69.893149025738239" lon="21.188833974301815">
        <ele>13.6</ele>
        <time>2017-06-25T16:46:39Z</time>
      </trkpt>
      <trkpt lat="69.894802020862699" lon="21.188476989045739">
        <ele>12.630000000000001</ele>
        <time>2017-06-25T16:46:46Z</time>
      </trkpt>
      <trkpt lat="69.895990993827581" lon="21.189903002232313">
        <ele>15.52</ele>
        <time>2017-06-25T16:46:52Z</time>
      </trkpt>
      <trkpt lat="69.896882995963097" lon="21.192795010283589">
        <ele>10.23</ele>
        <time>2017-06-25T16:46:58Z</time>
      </trkpt>
      <trkpt lat="69.898391989991069" lon="21.198653960600495">
        <ele>3.02</ele>
        <time>2017-06-25T16:47:08Z</time>
      </trkpt>
      <trkpt lat="69.900254029780626" lon="21.20540801435709">
        <ele>-2.27</ele>
        <time>2017-06-25T16:47:20Z</time>
      </trkpt>
      <trkpt lat="69.900827016681433" lon="21.209007035940886">
        <ele>1.58</ele>
        <time>2017-06-25T16:47:26Z</time>
      </trkpt>
      <trkpt lat="69.901118958368897" lon="21.214080015197396">
        <ele>6.39</ele>
        <time>2017-06-25T16:47:34Z</time>
      </trkpt>
      <trkpt lat="69.90101401694119" lon="21.215995028614998">
        <ele>7.83</ele>
        <time>2017-06-25T16:47:37Z</time>
      </trkpt>
      <trkpt lat="69.900943022221327" lon="21.216627024114132">
        <ele>7.83</ele>
        <time>2017-06-25T16:47:38Z</time>
      </trkpt>
      <trkpt lat="69.900034004822373" lon="21.222513969987631">
        <ele>3.02</ele>
        <time>2017-06-25T16:47:47Z</time>
      </trkpt>
      <trkpt lat="69.898863974958658" lon="21.229506991803646">
        <ele>3.02</ele>
        <time>2017-06-25T16:47:58Z</time>
      </trkpt>
      <trkpt lat="69.898667000234127" lon="21.230606026947498">
        <ele>2.54</ele>
        <time>2017-06-25T16:48:00Z</time>
      </trkpt>
      <trkpt lat="69.898597011342645" lon="21.231200974434614">
        <ele>2.54</ele>
        <time>2017-06-25T16:48:01Z</time>
      </trkpt>
      <trkpt lat="69.898544959723949" lon="21.231826012954116">
        <ele>2.54</ele>
        <time>2017-06-25T16:48:02Z</time>
      </trkpt>
      <trkpt lat="69.898513024672866" lon="21.232459014281631">
        <ele>2.54</ele>
        <time>2017-06-25T16:48:03Z</time>
      </trkpt>
      <trkpt lat="69.898501038551331" lon="21.233113976195455">
        <ele>2.54</ele>
        <time>2017-06-25T16:48:04Z</time>
      </trkpt>
      <trkpt lat="69.898504978045821" lon="21.233775978907943">
        <ele>2.54</ele>
        <time>2017-06-25T16:48:05Z</time>
      </trkpt>
      <trkpt lat="69.89852299913764" lon="21.23445700854063">
        <ele>3.02</ele>
        <time>2017-06-25T16:48:06Z</time>
      </trkpt>
      <trkpt lat="69.898554012179375" lon="21.235127979889512">
        <ele>3.02</ele>
        <time>2017-06-25T16:48:07Z</time>
      </trkpt>
      <trkpt lat="69.898838996887207" lon="21.242632968351245">
        <ele>10.710000000000001</ele>
        <time>2017-06-25T16:48:18Z</time>
      </trkpt>
      <trkpt lat="69.898990960791707" lon="21.250230995938182">
        <ele>11.19</ele>
        <time>2017-06-25T16:48:29Z</time>
      </trkpt>
      <trkpt lat="69.899115012958646" lon="21.252587987110019">
        <ele>13.119999999999999</ele>
        <time>2017-06-25T16:48:33Z</time>
      </trkpt>
      <trkpt lat="69.899108977988362" lon="21.253163991495967">
        <ele>12.630000000000001</ele>
        <time>2017-06-25T16:48:34Z</time>
      </trkpt>
      <trkpt lat="69.898899011313915" lon="21.258919006213546">
        <ele>9.75</ele>
        <time>2017-06-25T16:48:43Z</time>
      </trkpt>
      <trkpt lat="69.898913009092212" lon="21.265195040032268">
        <ele>11.67</ele>
        <time>2017-06-25T16:48:52Z</time>
      </trkpt>
      <trkpt lat="69.899198999628425" lon="21.279326006770134">
        <ele>13.119999999999999</ele>
        <time>2017-06-25T16:49:11Z</time>
      </trkpt>
      <trkpt lat="69.899068996310234" lon="21.284016016870737">
        <ele>16</ele>
        <time>2017-06-25T16:49:18Z</time>
      </trkpt>
      <trkpt lat="69.897984964773059" lon="21.294951969757676">
        <ele>19.84</ele>
        <time>2017-06-25T16:49:34Z</time>
      </trkpt>
      <trkpt lat="69.897073013707995" lon="21.301460014656186">
        <ele>22.25</ele>
        <time>2017-06-25T16:49:44Z</time>
      </trkpt>
      <trkpt lat="69.896821975708008" lon="21.303788004443049">
        <ele>22.25</ele>
        <time>2017-06-25T16:49:48Z</time>
      </trkpt>
      <trkpt lat="69.896794985979795" lon="21.304384041577578">
        <ele>22.25</ele>
        <time>2017-06-25T16:49:49Z</time>
      </trkpt>
      <trkpt lat="69.896788029000163" lon="21.304986029863358">
        <ele>22.25</ele>
        <time>2017-06-25T16:49:50Z</time>
      </trkpt>
      <trkpt lat="69.896793980151415" lon="21.305574020370841">
        <ele>22.25</ele>
        <time>2017-06-25T16:49:51Z</time>
      </trkpt>
      <trkpt lat="69.896818958222866" lon="21.306158993393183">
        <ele>22.25</ele>
        <time>2017-06-25T16:49:52Z</time>
      </trkpt>
      <trkpt lat="69.896861035376787" lon="21.306729968637228">
        <ele>22.25</ele>
        <time>2017-06-25T16:49:53Z</time>
      </trkpt>
      <trkpt lat="69.896919038146734" lon="21.30728904157877">
        <ele>22.25</ele>
        <time>2017-06-25T16:49:54Z</time>
      </trkpt>
      <trkpt lat="69.896992966532707" lon="21.307840989902616">
        <ele>22.25</ele>
        <time>2017-06-25T16:49:55Z</time>
      </trkpt>
      <trkpt lat="69.89708399400115" lon="21.308393022045493">
        <ele>22.25</ele>
        <time>2017-06-25T16:49:56Z</time>
      </trkpt>
      <trkpt lat="69.89719002507627" lon="21.308925021439791">
        <ele>21.77</ele>
        <time>2017-06-25T16:49:57Z</time>
      </trkpt>
      <trkpt lat="69.897307958453894" lon="21.309434976428747">
        <ele>21.289999999999999</ele>
        <time>2017-06-25T16:49:58Z</time>
      </trkpt>
      <trkpt lat="69.897442990913987" lon="21.309930011630058">
        <ele>20.809999999999999</ele>
        <time>2017-06-25T16:49:59Z</time>
      </trkpt>
      <trkpt lat="69.897589003667235" lon="21.31040601991117">
        <ele>20.32</ele>
        <time>2017-06-25T16:50:00Z</time>
      </trkpt>
      <trkpt lat="69.899922022596002" lon="21.317830961197615">
        <ele>17.920000000000002</ele>
        <time>2017-06-25T16:50:15Z</time>
      </trkpt>
      <trkpt lat="69.901157012209296" lon="21.319921994581819">
        <ele>14.56</ele>
        <time>2017-06-25T16:50:21Z</time>
      </trkpt>
      <trkpt lat="69.903553985059261" lon="21.32331901229918">
        <ele>7.35</ele>
        <time>2017-06-25T16:50:33Z</time>
      </trkpt>
      <trkpt lat="69.905755994841456" lon="21.326493993401527">
        <ele>2.54</ele>
        <time>2017-06-25T16:50:45Z</time>
      </trkpt>
      <trkpt lat="69.906676998361945" lon="21.328794993460178">
        <ele>7.35</ele>
        <time>2017-06-25T16:50:52Z</time>
      </trkpt>
      <trkpt lat="69.907231964170933" lon="21.332082040607929">
        <ele>16.48</ele>
        <time>2017-06-25T16:50:58Z</time>
      </trkpt>
      <trkpt lat="69.90825698710978" lon="21.33986203931272">
        <ele>25.129999999999999</ele>
        <time>2017-06-25T16:51:11Z</time>
      </trkpt>
      <trkpt lat="69.908274002373219" lon="21.340456986799836">
        <ele>24.649999999999999</ele>
        <time>2017-06-25T16:51:12Z</time>
      </trkpt>
      <trkpt lat="69.908269979059696" lon="21.341050006449223">
        <ele>25.129999999999999</ele>
        <time>2017-06-25T16:51:13Z</time>
      </trkpt>
      <trkpt lat="69.908245000988245" lon="21.341635985299945">
        <ele>24.649999999999999</ele>
        <time>2017-06-25T16:51:14Z</time>
      </trkpt>
      <trkpt lat="69.908200995996594" lon="21.342193968594074">
        <ele>24.649999999999999</ele>
        <time>2017-06-25T16:51:15Z</time>
      </trkpt>
      <trkpt lat="69.908130001276731" lon="21.342730997130275">
        <ele>24.649999999999999</ele>
        <time>2017-06-25T16:51:16Z</time>
      </trkpt>
      <trkpt lat="69.908037967979908" lon="21.343241035938263">
        <ele>25.129999999999999</ele>
        <time>2017-06-25T16:51:17Z</time>
      </trkpt>
      <trkpt lat="69.907926991581917" lon="21.343713020905852">
        <ele>25.129999999999999</ele>
        <time>2017-06-25T16:51:18Z</time>
      </trkpt>
      <trkpt lat="69.907796988263726" lon="21.344160027801991">
        <ele>24.649999999999999</ele>
        <time>2017-06-25T16:51:19Z</time>
      </trkpt>
      <trkpt lat="69.907649969682097" lon="21.344571998342872">
        <ele>24.649999999999999</ele>
        <time>2017-06-25T16:51:20Z</time>
      </trkpt>
      <trkpt lat="69.907490964978933" lon="21.344957984983921">
        <ele>24.649999999999999</ele>
        <time>2017-06-25T16:51:21Z</time>
      </trkpt>
      <trkpt lat="69.907320979982615" lon="21.345335002988577">
        <ele>25.129999999999999</ele>
        <time>2017-06-25T16:51:22Z</time>
      </trkpt>
      <trkpt lat="69.905001958832145" lon="21.350015960633755">
        <ele>18.399999999999999</ele>
        <time>2017-06-25T16:51:34Z</time>
      </trkpt>
      <trkpt lat="69.90316498093307" lon="21.354417968541384">
        <ele>14.08</ele>
        <time>2017-06-25T16:51:44Z</time>
      </trkpt>
      <trkpt lat="69.901985982432961" lon="21.356871016323566">
        <ele>13.6</ele>
        <time>2017-06-25T16:51:51Z</time>
      </trkpt>
      <trkpt lat="69.90159597247839" lon="21.35786896571517">
        <ele>14.56</ele>
        <time>2017-06-25T16:51:54Z</time>
      </trkpt>
      <trkpt lat="69.901498993858695" lon="21.358251012861729">
        <ele>14.56</ele>
        <time>2017-06-25T16:51:55Z</time>
      </trkpt>
      <trkpt lat="69.901420036330819" lon="21.358668012544513">
        <ele>14.56</ele>
        <time>2017-06-25T16:51:56Z</time>
      </trkpt>
      <trkpt lat="69.901357004418969" lon="21.359121976420283">
        <ele>14.56</ele>
        <time>2017-06-25T16:51:57Z</time>
      </trkpt>
      <trkpt lat="69.901314005255699" lon="21.35960896499455">
        <ele>13.6</ele>
        <time>2017-06-25T16:51:58Z</time>
      </trkpt>
      <trkpt lat="69.901279974728823" lon="21.360142976045609">
        <ele>12.630000000000001</ele>
        <time>2017-06-25T16:51:59Z</time>
      </trkpt>
      <trkpt lat="69.901260025799274" lon="21.36070397682488">
        <ele>11.67</ele>
        <time>2017-06-25T16:52:00Z</time>
      </trkpt>
      <trkpt lat="69.901245022192597" lon="21.361293978989124">
        <ele>10.710000000000001</ele>
        <time>2017-06-25T16:52:01Z</time>
      </trkpt>
      <trkpt lat="69.900956014171243" lon="21.366391014307737">
        <ele>10.710000000000001</ele>
        <time>2017-06-25T16:52:09Z</time>
      </trkpt>
      <trkpt lat="69.900420997291803" lon="21.373919975012541">
        <ele>10.710000000000001</ele>
        <time>2017-06-25T16:52:21Z</time>
      </trkpt>
      <trkpt lat="69.900461984798312" lon="21.381026990711689">
        <ele>16</ele>
        <time>2017-06-25T16:52:33Z</time>
      </trkpt>
      <trkpt lat="69.900504983961582" lon="21.385921016335487">
        <ele>17.920000000000002</ele>
        <time>2017-06-25T16:52:41Z</time>
      </trkpt>
      <trkpt lat="69.899851027876139" lon="21.391248973086476">
        <ele>22.73</ele>
        <time>2017-06-25T16:52:50Z</time>
      </trkpt>
      <trkpt lat="69.899730999022722" lon="21.391759011894464">
        <ele>23.210000000000001</ele>
        <time>2017-06-25T16:52:51Z</time>
      </trkpt>
      <trkpt lat="69.899598984047771" lon="21.392236026003957">
        <ele>23.210000000000001</ele>
        <time>2017-06-25T16:52:52Z</time>
      </trkpt>
      <trkpt lat="69.899072013795376" lon="21.394022963941097">
        <ele>23.210000000000001</ele>
        <time>2017-06-25T16:52:56Z</time>
      </trkpt>
      <trkpt lat="69.898972017690539" lon="21.394526967778802">
        <ele>22.73</ele>
        <time>2017-06-25T16:52:57Z</time>
      </trkpt>
      <trkpt lat="69.898880990222096" lon="21.395054021850228">
        <ele>22.25</ele>
        <time>2017-06-25T16:52:58Z</time>
      </trkpt>
      <trkpt lat="69.897891003638506" lon="21.400920012965798">
        <ele>22.25</ele>
        <time>2017-06-25T16:53:08Z</time>
      </trkpt>
      <trkpt lat="69.89631000906229" lon="21.409317003563046">
        <ele>24.649999999999999</ele>
        <time>2017-06-25T16:53:22Z</time>
      </trkpt>
      <trkpt lat="69.894690038636327" lon="21.416444974020123">
        <ele>27.050000000000001</ele>
        <time>2017-06-25T16:53:35Z</time>
      </trkpt>
      <trkpt lat="69.893999034538865" lon="21.419370006769896">
        <ele>30.420000000000002</ele>
        <time>2017-06-25T16:53:42Z</time>
      </trkpt>
      <trkpt lat="69.893307024613023" lon="21.421879967674613">
        <ele>31.859999999999999</ele>
        <time>2017-06-25T16:53:48Z</time>
      </trkpt>
      <trkpt lat="69.893003012984991" lon="21.423097020015121">
        <ele>34.259999999999998</ele>
        <time>2017-06-25T16:53:51Z</time>
      </trkpt>
      <trkpt lat="69.892921037971973" lon="21.423586020246148">
        <ele>35.229999999999997</ele>
        <time>2017-06-25T16:53:52Z</time>
      </trkpt>
      <trkpt lat="69.89285197108984" lon="21.424119025468826">
        <ele>36.670000000000002</ele>
        <time>2017-06-25T16:53:53Z</time>
      </trkpt>
      <trkpt lat="69.892231961712241" lon="21.42790999263525">
        <ele>46.759999999999998</ele>
        <time>2017-06-25T16:54:00Z</time>
      </trkpt>
      <trkpt lat="69.89128103479743" lon="21.432150984182954">
        <ele>59.259999999999998</ele>
        <time>2017-06-25T16:54:08Z</time>
      </trkpt>
      <trkpt lat="69.889705991372466" lon="21.436999998986721">
        <ele>73.200000000000003</ele>
        <time>2017-06-25T16:54:18Z</time>
      </trkpt>
      <trkpt lat="69.888001028448343" lon="21.441691014915705">
        <ele>87.620000000000005</ele>
        <time>2017-06-25T16:54:28Z</time>
      </trkpt>
      <trkpt lat="69.886026000604033" lon="21.446542963385582">
        <ele>105.40000000000001</ele>
        <time>2017-06-25T16:54:39Z</time>
      </trkpt>
      <trkpt lat="69.884048039093614" lon="21.451902016997337">
        <ele>125.11</ele>
        <time>2017-06-25T16:54:51Z</time>
      </trkpt>
      <trkpt lat="69.883175985887647" lon="21.456332020461559">
        <ele>137.61000000000001</ele>
        <time>2017-06-25T16:54:59Z</time>
      </trkpt>
      <trkpt lat="69.882456986233592" lon="21.463013989850879">
        <ele>155.38999999999999</ele>
        <time>2017-06-25T16:55:10Z</time>
      </trkpt>
      <trkpt lat="69.882466960698366" lon="21.466563977301121">
        <ele>165</ele>
        <time>2017-06-25T16:55:16Z</time>
      </trkpt>
      <trkpt lat="69.882953027263284" lon="21.472139032557607">
        <ele>179.41999999999999</ele>
        <time>2017-06-25T16:55:25Z</time>
      </trkpt>
      <trkpt lat="69.883603965863585" lon="21.47693901322782">
        <ele>191.91999999999999</ele>
        <time>2017-06-25T16:55:33Z</time>
      </trkpt>
      <trkpt lat="69.884510971605778" lon="21.479443022981286">
        <ele>200.56999999999999</ele>
        <time>2017-06-25T16:55:39Z</time>
      </trkpt>
      <trkpt lat="69.887113971635699" lon="21.485156966373324">
        <ele>223.16</ele>
        <time>2017-06-25T16:55:54Z</time>
      </trkpt>
      <trkpt lat="69.890160961076617" lon="21.492237998172641">
        <ele>248.63999999999999</ele>
        <time>2017-06-25T16:56:12Z</time>
      </trkpt>
      <trkpt lat="69.890280989930034" lon="21.492703026160598">
        <ele>250.08000000000001</ele>
        <time>2017-06-25T16:56:13Z</time>
      </trkpt>
      <trkpt lat="69.890381991863251" lon="21.493207029998302">
        <ele>251.52000000000001</ele>
        <time>2017-06-25T16:56:14Z</time>
      </trkpt>
      <trkpt lat="69.890457009896636" lon="21.493727965280414">
        <ele>253.44</ele>
        <time>2017-06-25T16:56:15Z</time>
      </trkpt>
      <trkpt lat="69.890516018494964" lon="21.494286032393575">
        <ele>255.37</ele>
        <time>2017-06-25T16:56:16Z</time>
      </trkpt>
      <trkpt lat="69.890553988516331" lon="21.494867987930775">
        <ele>256.81</ele>
        <time>2017-06-25T16:56:17Z</time>
      </trkpt>
      <trkpt lat="69.890574021264911" lon="21.495464025065303">
        <ele>259.20999999999998</ele>
        <time>2017-06-25T16:56:18Z</time>
      </trkpt>
      <trkpt lat="69.890579972416162" lon="21.496054027229548">
        <ele>261.13999999999999</ele>
        <time>2017-06-25T16:56:19Z</time>
      </trkpt>
      <trkpt lat="69.89057301543653" lon="21.49664000608027">
        <ele>262.57999999999998</ele>
        <time>2017-06-25T16:56:20Z</time>
      </trkpt>
      <trkpt lat="69.890553988516331" lon="21.497218022122979">
        <ele>264.01999999999998</ele>
        <time>2017-06-25T16:56:21Z</time>
      </trkpt>
      <trkpt lat="69.890464972704649" lon="21.503520039841533">
        <ele>278.92000000000002</ele>
        <time>2017-06-25T16:56:32Z</time>
      </trkpt>
      <trkpt lat="69.890846014022827" lon="21.512064971029758">
        <ele>299.11000000000001</ele>
        <time>2017-06-25T16:56:46Z</time>
      </trkpt>
      <trkpt lat="69.891430987045169" lon="21.518177976831794">
        <ele>314.49000000000001</ele>
        <time>2017-06-25T16:56:56Z</time>
      </trkpt>
      <trkpt lat="69.891426963731647" lon="21.518766973167658">
        <ele>315.93000000000001</ele>
        <time>2017-06-25T16:56:57Z</time>
      </trkpt>
      <trkpt lat="69.891403997316957" lon="21.519353035837412">
        <ele>317.85000000000002</ele>
        <time>2017-06-25T16:56:58Z</time>
      </trkpt>
      <trkpt lat="69.891253961250186" lon="21.525454977527261">
        <ele>333.23000000000002</ele>
        <time>2017-06-25T16:57:08Z</time>
      </trkpt>
      <trkpt lat="69.891397040337324" lon="21.530812019482255">
        <ele>347.64999999999998</ele>
        <time>2017-06-25T16:57:17Z</time>
      </trkpt>
      <trkpt lat="69.891450013965368" lon="21.53125299140811">
        <ele>348.62</ele>
        <time>2017-06-25T16:57:18Z</time>
      </trkpt>
      <trkpt lat="69.891516985371709" lon="21.531678037717938">
        <ele>350.06</ele>
        <time>2017-06-25T16:57:19Z</time>
      </trkpt>
      <trkpt lat="69.891598038375378" lon="21.532087996602058">
        <ele>351.01999999999998</ele>
        <time>2017-06-25T16:57:20Z</time>
      </trkpt>
      <trkpt lat="69.891695016995072" lon="21.532501978799701">
        <ele>351.98000000000002</ele>
        <time>2017-06-25T16:57:21Z</time>
      </trkpt>
      <trkpt lat="69.891802975907922" lon="21.532911015674472">
        <ele>353.42000000000002</ele>
        <time>2017-06-25T16:57:22Z</time>
      </trkpt>
      <trkpt lat="69.89306696690619" lon="21.537405978888273">
        <ele>367.83999999999997</ele>
        <time>2017-06-25T16:57:32Z</time>
      </trkpt>
      <trkpt lat="69.894300028681755" lon="21.539918035268784">
        <ele>377.44999999999999</ele>
        <time>2017-06-25T16:57:39Z</time>
      </trkpt>
      <trkpt lat="69.896814012899995" lon="21.543275993317366">
        <ele>390.91000000000003</ele>
        <time>2017-06-25T16:57:51Z</time>
      </trkpt>
      <trkpt lat="69.897867031395435" lon="21.545157982036471">
        <ele>394.27999999999997</ele>
        <time>2017-06-25T16:57:57Z</time>
      </trkpt>
      <trkpt lat="69.897992005571723" lon="21.54556198976934">
        <ele>394.75999999999999</ele>
        <time>2017-06-25T16:57:58Z</time>
      </trkpt>
      <trkpt lat="69.898107005283237" lon="21.546002961695194">
        <ele>394.75999999999999</ele>
        <time>2017-06-25T16:57:59Z</time>
      </trkpt>
      <trkpt lat="69.898209013044834" lon="21.546477964147925">
        <ele>394.27999999999997</ele>
        <time>2017-06-25T16:58:00Z</time>
      </trkpt>
      <trkpt lat="69.898300040513277" lon="21.546995965763927">
        <ele>393.80000000000001</ele>
        <time>2017-06-25T16:58:01Z</time>
      </trkpt>
      <trkpt lat="69.898383021354675" lon="21.547543974593282">
        <ele>393.31999999999999</ele>
        <time>2017-06-25T16:58:02Z</time>
      </trkpt>
      <trkpt lat="69.89845996722579" lon="21.548126013949513">
        <ele>393.31999999999999</ele>
        <time>2017-06-25T16:58:03Z</time>
      </trkpt>
      <trkpt lat="69.899401003494859" lon="21.555912969633937">
        <ele>397.63999999999999</ele>
        <time>2017-06-25T16:58:16Z</time>
      </trkpt>
      <trkpt lat="69.899482978507876" lon="21.556644961237907">
        <ele>397.16000000000003</ele>
        <time>2017-06-25T16:58:20Z</time>
      </trkpt>
      <trkpt lat="69.899513991549611" lon="21.557090962305665">
        <ele>397.16000000000003</ele>
        <time>2017-06-25T16:58:33Z</time>
      </trkpt>
      <trkpt lat="69.899508962407708" lon="21.557116024196148">
        <ele>397.63999999999999</ele>
        <time>2017-06-25T16:58:48Z</time>
      </trkpt>
      <trkpt lat="69.899491025134921" lon="21.557256001979113">
        <ele>397.63999999999999</ele>
        <time>2017-06-25T16:59:07Z</time>
      </trkpt>
      <trkpt lat="69.899480966851115" lon="21.557227000594139">
        <ele>398.60000000000002</ele>
        <time>2017-06-25T16:59:30Z</time>
      </trkpt>
      <trkpt lat="69.899480966851115" lon="21.557223983108997">
        <ele>398.60000000000002</ele>
        <time>2017-06-25T17:00:49Z</time>
      </trkpt>
      <trkpt lat="69.899481972679496" lon="21.557217026129365">
        <ele>398.60000000000002</ele>
        <time>2017-06-25T17:03:11Z</time>
      </trkpt>
      <trkpt lat="69.899481972679496" lon="21.557210991159081">
        <ele>398.60000000000002</ele>
        <time>2017-06-25T17:05:19Z</time>
      </trkpt>
      <trkpt lat="69.899495970457792" lon="21.5572290122509">
        <ele>398.60000000000002</ele>
        <time>2017-06-25T17:06:19Z</time>
      </trkpt>
      <trkpt lat="69.899516003206372" lon="21.557277962565422">
        <ele>398.60000000000002</ele>
        <time>2017-06-25T17:06:20Z</time>
      </trkpt>
      <trkpt lat="69.899536035954952" lon="21.5573809761554">
        <ele>398.60000000000002</ele>
        <time>2017-06-25T17:06:21Z</time>
      </trkpt>
      <trkpt lat="69.899551961570978" lon="21.557531012222171">
        <ele>398.60000000000002</ele>
        <time>2017-06-25T17:06:22Z</time>
      </trkpt>
      <trkpt lat="69.899565959349275" lon="21.557713989168406">
        <ele>398.12</ele>
        <time>2017-06-25T17:06:23Z</time>
      </trkpt>
      <trkpt lat="69.899707026779652" lon="21.560100987553596">
        <ele>395.24000000000001</ele>
        <time>2017-06-25T17:06:31Z</time>
      </trkpt>
      <trkpt lat="69.899901989847422" lon="21.563892960548401">
        <ele>391.38999999999999</ele>
        <time>2017-06-25T17:06:39Z</time>
      </trkpt>
      <trkpt lat="69.900259980931878" lon="21.572034973651171">
        <ele>383.22000000000003</ele>
        <time>2017-06-25T17:06:54Z</time>
      </trkpt>
      <trkpt lat="69.900020007044077" lon="21.577410958707333">
        <ele>375.52999999999997</ele>
        <time>2017-06-25T17:07:03Z</time>
      </trkpt>
      <trkpt lat="69.899394968524575" lon="21.589534040540457">
        <ele>369.75999999999999</ele>
        <time>2017-06-25T17:07:22Z</time>
      </trkpt>
      <trkpt lat="69.899477027356625" lon="21.593676041811705">
        <ele>372.17000000000002</ele>
        <time>2017-06-25T17:07:29Z</time>
      </trkpt>
      <trkpt lat="69.899634020403028" lon="21.596229001879692">
        <ele>377.44999999999999</ele>
        <time>2017-06-25T17:07:35Z</time>
      </trkpt>
      <trkpt lat="69.899538969621062" lon="21.599153028801084">
        <ele>377.94</ele>
        <time>2017-06-25T17:07:42Z</time>
      </trkpt>
      <trkpt lat="69.898812007158995" lon="21.604779968038201">
        <ele>387.06999999999999</ele>
        <time>2017-06-25T17:07:54Z</time>
      </trkpt>
      <trkpt lat="69.897953029721975" lon="21.607458991929889">
        <ele>389.47000000000003</ele>
        <time>2017-06-25T17:08:01Z</time>
      </trkpt>
      <trkpt lat="69.897260013967752" lon="21.609418010339141">
        <ele>386.11000000000001</ele>
        <time>2017-06-25T17:08:07Z</time>
      </trkpt>
      <trkpt lat="69.897178960964084" lon="21.609801985323429">
        <ele>386.58999999999997</ele>
        <time>2017-06-25T17:08:08Z</time>
      </trkpt>
      <trkpt lat="69.897108972072601" lon="21.610200963914394">
        <ele>386.58999999999997</ele>
        <time>2017-06-25T17:08:09Z</time>
      </trkpt>
      <trkpt lat="69.896755004301667" lon="21.614112965762615">
        <ele>388.50999999999999</ele>
        <time>2017-06-25T17:08:18Z</time>
      </trkpt>
      <trkpt lat="69.896491980180144" lon="21.618407014757395">
        <ele>389.94999999999999</ele>
        <time>2017-06-25T17:08:27Z</time>
      </trkpt>
      <trkpt lat="69.89641503430903" lon="21.618814039975405">
        <ele>389.47000000000003</ele>
        <time>2017-06-25T17:08:28Z</time>
      </trkpt>
      <trkpt lat="69.89633004181087" lon="21.619197009131312">
        <ele>388.50999999999999</ele>
        <time>2017-06-25T17:08:29Z</time>
      </trkpt>
      <trkpt lat="69.896237002685666" lon="21.619544019922614">
        <ele>387.55000000000001</ele>
        <time>2017-06-25T17:08:30Z</time>
      </trkpt>
      <trkpt lat="69.896136000752449" lon="21.619850965216756">
        <ele>386.58999999999997</ele>
        <time>2017-06-25T17:08:31Z</time>
      </trkpt>
      <trkpt lat="69.896023012697697" lon="21.620132010430098">
        <ele>385.14999999999998</ele>
        <time>2017-06-25T17:08:32Z</time>
      </trkpt>
      <trkpt lat="69.895897032693028" lon="21.620384976267815">
        <ele>384.18000000000001</ele>
        <time>2017-06-25T17:08:33Z</time>
      </trkpt>
      <trkpt lat="69.895757976919413" lon="21.620621010661125">
        <ele>382.74000000000001</ele>
        <time>2017-06-25T17:08:34Z</time>
      </trkpt>
      <trkpt lat="69.895608024671674" lon="21.620831983163953">
        <ele>381.77999999999997</ele>
        <time>2017-06-25T17:08:35Z</time>
      </trkpt>
      <trkpt lat="69.895442984998226" lon="21.621011020615697">
        <ele>380.81999999999999</ele>
        <time>2017-06-25T17:08:36Z</time>
      </trkpt>
      <trkpt lat="69.895275011658669" lon="21.621172036975622">
        <ele>380.33999999999997</ele>
        <time>2017-06-25T17:08:37Z</time>
      </trkpt>
      <trkpt lat="69.89510502666235" lon="21.621292987838387">
        <ele>379.86000000000001</ele>
        <time>2017-06-25T17:08:38Z</time>
      </trkpt>
      <trkpt lat="69.894928000867367" lon="21.621388038620353">
        <ele>379.86000000000001</ele>
        <time>2017-06-25T17:08:39Z</time>
      </trkpt>
      <trkpt lat="69.89272003993392" lon="21.62222002632916">
        <ele>365.44</ele>
        <time>2017-06-25T17:08:51Z</time>
      </trkpt>
      <trkpt lat="69.890136988833547" lon="21.624209973961115">
        <ele>339.48000000000002</ele>
        <time>2017-06-25T17:09:04Z</time>
      </trkpt>
      <trkpt lat="69.887633984908462" lon="21.626223977655172">
        <ele>320.74000000000001</ele>
        <time>2017-06-25T17:09:16Z</time>
      </trkpt>
      <trkpt lat="69.887113971635699" lon="21.62688497453928">
        <ele>317.37</ele>
        <time>2017-06-25T17:09:19Z</time>
      </trkpt>
      <trkpt lat="69.886967958882451" lon="21.627180017530918">
        <ele>316.41000000000003</ele>
        <time>2017-06-25T17:09:20Z</time>
      </trkpt>
      <trkpt lat="69.88683502189815" lon="21.627518981695175">
        <ele>315.44999999999999</ele>
        <time>2017-06-25T17:09:21Z</time>
      </trkpt>
      <trkpt lat="69.886720022186637" lon="21.627906979992986">
        <ele>314.97000000000003</ele>
        <time>2017-06-25T17:09:22Z</time>
      </trkpt>
      <trkpt lat="69.886624971404672" lon="21.628329008817673">
        <ele>314.00999999999999</ele>
        <time>2017-06-25T17:09:23Z</time>
      </trkpt>
      <trkpt lat="69.886553976684809" lon="21.628772998228669">
        <ele>313.52999999999997</ele>
        <time>2017-06-25T17:09:24Z</time>
      </trkpt>
      <trkpt lat="69.886506032198668" lon="21.629234002903104">
        <ele>313.05000000000001</ele>
        <time>2017-06-25T17:09:25Z</time>
      </trkpt>
      <trkpt lat="69.886482981964946" lon="21.629703976213932">
        <ele>312.56999999999999</ele>
        <time>2017-06-25T17:09:26Z</time>
      </trkpt>
      <trkpt lat="69.886488011106849" lon="21.63017001003027">
        <ele>311.60000000000002</ele>
        <time>2017-06-25T17:09:27Z</time>
      </trkpt>
      <trkpt lat="69.8865129891783" lon="21.630634032189846">
        <ele>311.12</ele>
        <time>2017-06-25T17:09:28Z</time>
      </trkpt>
      <trkpt lat="69.886560011655092" lon="21.6310940310359">
        <ele>309.68000000000001</ele>
        <time>2017-06-25T17:09:29Z</time>
      </trkpt>
      <trkpt lat="69.886632012203336" lon="21.631537014618516">
        <ele>307.75999999999999</ele>
        <time>2017-06-25T17:09:30Z</time>
      </trkpt>
      <trkpt lat="69.886725973337889" lon="21.631947979331017">
        <ele>306.31999999999999</ele>
        <time>2017-06-25T17:09:31Z</time>
      </trkpt>
      <trkpt lat="69.886838961392641" lon="21.632314017042518">
        <ele>304.88</ele>
        <time>2017-06-25T17:09:32Z</time>
      </trkpt>
      <trkpt lat="69.886974999681115" lon="21.632623979821801">
        <ele>302.94999999999999</ele>
        <time>2017-06-25T17:09:33Z</time>
      </trkpt>
      <trkpt lat="69.887125035747886" lon="21.632867977023125">
        <ele>301.50999999999999</ele>
        <time>2017-06-25T17:09:34Z</time>
      </trkpt>
      <trkpt lat="69.88728797994554" lon="21.633060006424785">
        <ele>300.06999999999999</ele>
        <time>2017-06-25T17:09:35Z</time>
      </trkpt>
      <trkpt lat="69.887457964941859" lon="21.633181963115931">
        <ele>298.63</ele>
        <time>2017-06-25T17:09:36Z</time>
      </trkpt>
      <trkpt lat="69.887635996565223" lon="21.633258992806077">
        <ele>297.18000000000001</ele>
        <time>2017-06-25T17:09:37Z</time>
      </trkpt>
      <trkpt lat="69.887817967683077" lon="21.633339039981365">
        <ele>295.74000000000001</ele>
        <time>2017-06-25T17:09:38Z</time>
      </trkpt>
      <trkpt lat="69.88833898678422" lon="21.633790992200375">
        <ele>290.45999999999998</ele>
        <time>2017-06-25T17:09:41Z</time>
      </trkpt>
      <trkpt lat="69.88848902285099" lon="21.634041024371982">
        <ele>289.00999999999999</ele>
        <time>2017-06-25T17:09:42Z</time>
      </trkpt>
      <trkpt lat="69.888622965663671" lon="21.634342018514872">
        <ele>287.56999999999999</ele>
        <time>2017-06-25T17:09:43Z</time>
      </trkpt>
      <trkpt lat="69.888736037537456" lon="21.634685005992651">
        <ele>286.61000000000001</ele>
        <time>2017-06-25T17:09:44Z</time>
      </trkpt>
      <trkpt lat="69.888825975358486" lon="21.635060012340546">
        <ele>285.64999999999998</ele>
        <time>2017-06-25T17:09:45Z</time>
      </trkpt>
      <trkpt lat="69.888894958421588" lon="21.635463014245033">
        <ele>285.17000000000002</ele>
        <time>2017-06-25T17:09:46Z</time>
      </trkpt>
      <trkpt lat="69.88894198089838" lon="21.635885965079069">
        <ele>285.17000000000002</ele>
        <time>2017-06-25T17:09:47Z</time>
      </trkpt>
      <trkpt lat="69.888967964798212" lon="21.636329032480717">
        <ele>285.17000000000002</ele>
        <time>2017-06-25T17:09:48Z</time>
      </trkpt>
      <trkpt lat="69.888968970626593" lon="21.636781990528107">
        <ele>284.69</ele>
        <time>2017-06-25T17:09:49Z</time>
      </trkpt>
      <trkpt lat="69.888947010040283" lon="21.637256992980838">
        <ele>284.69</ele>
        <time>2017-06-25T17:09:50Z</time>
      </trkpt>
      <trkpt lat="69.888911973685026" lon="21.637739958241582">
        <ele>284.69</ele>
        <time>2017-06-25T17:09:51Z</time>
      </trkpt>
      <trkpt lat="69.888863023370504" lon="21.63822703063488">
        <ele>284.69</ele>
        <time>2017-06-25T17:09:52Z</time>
      </trkpt>
      <trkpt lat="69.888809965923429" lon="21.638714019209146">
        <ele>284.20999999999998</ele>
        <time>2017-06-25T17:09:53Z</time>
      </trkpt>
      <trkpt lat="69.88801603205502" lon="21.643266985192895">
        <ele>278.44</ele>
        <time>2017-06-25T17:10:02Z</time>
      </trkpt>
      <trkpt lat="69.886346021667123" lon="21.650510961189866">
        <ele>266.89999999999998</ele>
        <time>2017-06-25T17:10:15Z</time>
      </trkpt>
      <trkpt lat="69.885390987619758" lon="21.653703041374683">
        <ele>261.62</ele>
        <time>2017-06-25T17:10:22Z</time>
      </trkpt>
      <trkpt lat="69.884262029081583" lon="21.655359975993633">
        <ele>252.47999999999999</ele>
        <time>2017-06-25T17:10:28Z</time>
      </trkpt>
      <trkpt lat="69.883099962025881" lon="21.656427998095751">
        <ele>244.31</ele>
        <time>2017-06-25T17:10:34Z</time>
      </trkpt>
      <trkpt lat="69.882912961766124" lon="21.656464040279388">
        <ele>243.34999999999999</ele>
        <time>2017-06-25T17:10:35Z</time>
      </trkpt>
      <trkpt lat="69.882721016183496" lon="21.656438978388906">
        <ele>241.91</ele>
        <time>2017-06-25T17:10:36Z</time>
      </trkpt>
      <trkpt lat="69.881857009604573" lon="21.656508967280388">
        <ele>236.62</ele>
        <time>2017-06-25T17:10:41Z</time>
      </trkpt>
      <trkpt lat="69.881702028214931" lon="21.656651962548494">
        <ele>235.18000000000001</ele>
        <time>2017-06-25T17:10:42Z</time>
      </trkpt>
      <trkpt lat="69.881558027118444" lon="21.656890008598566">
        <ele>234.22</ele>
        <time>2017-06-25T17:10:43Z</time>
      </trkpt>
      <trkpt lat="69.881415031850338" lon="21.657188991084695">
        <ele>232.78</ele>
        <time>2017-06-25T17:10:44Z</time>
      </trkpt>
      <trkpt lat="69.881271030753851" lon="21.657531978562474">
        <ele>231.33000000000001</ele>
        <time>2017-06-25T17:10:45Z</time>
      </trkpt>
      <trkpt lat="69.879972003400326" lon="21.660351986065507">
        <ele>222.19999999999999</ele>
        <time>2017-06-25T17:10:53Z</time>
      </trkpt>
      <trkpt lat="69.879840994253755" lon="21.660738978534937">
        <ele>220.75999999999999</ele>
        <time>2017-06-25T17:10:54Z</time>
      </trkpt>
      <trkpt lat="69.879724988713861" lon="21.661176010966301">
        <ele>220.28</ele>
        <time>2017-06-25T17:10:55Z</time>
      </trkpt>
      <trkpt lat="69.879621975123882" lon="21.66164799593389">
        <ele>219.80000000000001</ele>
        <time>2017-06-25T17:10:56Z</time>
      </trkpt>
      <trkpt lat="69.879117971286178" lon="21.664608987048268">
        <ele>215.47</ele>
        <time>2017-06-25T17:11:02Z</time>
      </trkpt>
      <trkpt lat="69.879074972122908" lon="21.665078960359097">
        <ele>214.50999999999999</ele>
        <time>2017-06-25T17:11:03Z</time>
      </trkpt>
      <trkpt lat="69.879057034850121" lon="21.665552034974098">
        <ele>213.55000000000001</ele>
        <time>2017-06-25T17:11:04Z</time>
      </trkpt>
      <trkpt lat="69.879062986001372" lon="21.666024019941688">
        <ele>212.59</ele>
        <time>2017-06-25T17:11:05Z</time>
      </trkpt>
      <trkpt lat="69.879087964072824" lon="21.666504973545671">
        <ele>211.63</ele>
        <time>2017-06-25T17:11:06Z</time>
      </trkpt>
      <trkpt lat="69.879127023741603" lon="21.666999002918601">
        <ele>210.66999999999999</ele>
        <time>2017-06-25T17:11:07Z</time>
      </trkpt>
      <trkpt lat="69.879255015403032" lon="21.669028010219336">
        <ele>205.86000000000001</ele>
        <time>2017-06-25T17:11:11Z</time>
      </trkpt>
      <trkpt lat="69.879251997917891" lon="21.66953100822866">
        <ele>204.90000000000001</ele>
        <time>2017-06-25T17:11:12Z</time>
      </trkpt>
      <trkpt lat="69.87923095934093" lon="21.670031994581223">
        <ele>203.94</ele>
        <time>2017-06-25T17:11:13Z</time>
      </trkpt>
      <trkpt lat="69.879187038168311" lon="21.67052099481225">
        <ele>202.49000000000001</ele>
        <time>2017-06-25T17:11:14Z</time>
      </trkpt>
      <trkpt lat="69.879126017913222" lon="21.670998008921742">
        <ele>201.53</ele>
        <time>2017-06-25T17:11:15Z</time>
      </trkpt>
      <trkpt lat="69.879046976566315" lon="21.671463958919048">
        <ele>200.09</ele>
        <time>2017-06-25T17:11:16Z</time>
      </trkpt>
      <trkpt lat="69.878957038745284" lon="21.671915994957089">
        <ele>199.13</ele>
        <time>2017-06-25T17:11:17Z</time>
      </trkpt>
      <trkpt lat="69.878859976306558" lon="21.67236995883286">
        <ele>197.69</ele>
        <time>2017-06-25T17:11:18Z</time>
      </trkpt>
      <trkpt lat="69.878337029367685" lon="21.675007995218039">
        <ele>190.47999999999999</ele>
        <time>2017-06-25T17:11:24Z</time>
      </trkpt>
      <trkpt lat="69.878290006890893" lon="21.675428012385964">
        <ele>189.03999999999999</ele>
        <time>2017-06-25T17:11:25Z</time>
      </trkpt>
      <trkpt lat="69.878269974142313" lon="21.675865966826677">
        <ele>187.59</ele>
        <time>2017-06-25T17:11:26Z</time>
      </trkpt>
      <trkpt lat="69.878267962485552" lon="21.676301993429661">
        <ele>186.63</ele>
        <time>2017-06-25T17:11:27Z</time>
      </trkpt>
      <trkpt lat="69.878286989405751" lon="21.676739025861025">
        <ele>185.19</ele>
        <time>2017-06-25T17:11:28Z</time>
      </trkpt>
      <trkpt lat="69.878324037417769" lon="21.677175974473357">
        <ele>183.75</ele>
        <time>2017-06-25T17:11:29Z</time>
      </trkpt>
      <trkpt lat="69.878381034359336" lon="21.677590040490031">
        <ele>182.31</ele>
        <time>2017-06-25T17:11:30Z</time>
      </trkpt>
      <trkpt lat="69.878453034907579" lon="21.677978038787842">
        <ele>180.87</ele>
        <time>2017-06-25T17:11:31Z</time>
      </trkpt>
      <trkpt lat="69.87854297272861" lon="21.678343992680311">
        <ele>179.41999999999999</ele>
        <time>2017-06-25T17:11:32Z</time>
      </trkpt>
      <trkpt lat="69.878644980490208" lon="21.678668959066272">
        <ele>178.46000000000001</ele>
        <time>2017-06-25T17:11:33Z</time>
      </trkpt>
      <trkpt lat="69.878762997686863" lon="21.678970959037542">
        <ele>177.02000000000001</ele>
        <time>2017-06-25T17:11:34Z</time>
      </trkpt>
      <trkpt lat="69.878900963813066" lon="21.679239012300968">
        <ele>175.58000000000001</ele>
        <time>2017-06-25T17:11:35Z</time>
      </trkpt>
      <trkpt lat="69.879047982394695" lon="21.679456019774079">
        <ele>174.13999999999999</ele>
        <time>2017-06-25T17:11:36Z</time>
      </trkpt>
      <trkpt lat="69.879203969612718" lon="21.67965198867023">
        <ele>173.66</ele>
        <time>2017-06-25T17:11:37Z</time>
      </trkpt>
      <trkpt lat="69.879363980144262" lon="21.67984401807189">
        <ele>172.69</ele>
        <time>2017-06-25T17:11:38Z</time>
      </trkpt>
      <trkpt lat="69.880458991974592" lon="21.68109099380672">
        <ele>167.41</ele>
        <time>2017-06-25T17:11:45Z</time>
      </trkpt>
      <trkpt lat="69.880621014162898" lon="21.681166011840105">
        <ele>166.44999999999999</ele>
        <time>2017-06-25T17:11:46Z</time>
      </trkpt>
      <trkpt lat="69.880790999159217" lon="21.681182021275163">
        <ele>165.96000000000001</ele>
        <time>2017-06-25T17:11:47Z</time>
      </trkpt>
      <trkpt lat="69.880960984155536" lon="21.681152014061809">
        <ele>165</ele>
        <time>2017-06-25T17:11:48Z</time>
      </trkpt>
      <trkpt lat="69.881133986636996" lon="21.681074984371662">
        <ele>164.03999999999999</ele>
        <time>2017-06-25T17:11:49Z</time>
      </trkpt>
      <trkpt lat="69.881307994946837" lon="21.680967025458813">
        <ele>163.08000000000001</ele>
        <time>2017-06-25T17:11:50Z</time>
      </trkpt>
      <trkpt lat="69.882906004786491" lon="21.679856004193425">
        <ele>152.50999999999999</ele>
        <time>2017-06-25T17:11:59Z</time>
      </trkpt>
      <trkpt lat="69.883072972297668" lon="21.679882993921638">
        <ele>151.06</ele>
        <time>2017-06-25T17:12:00Z</time>
      </trkpt>
      <trkpt lat="69.883228037506342" lon="21.679971003904939">
        <ele>149.62</ele>
        <time>2017-06-25T17:12:01Z</time>
      </trkpt>
      <trkpt lat="69.883364997804165" lon="21.680100001394749">
        <ele>148.66</ele>
        <time>2017-06-25T17:12:02Z</time>
      </trkpt>
      <trkpt lat="69.88348301500082" lon="21.68027400970459">
        <ele>147.69999999999999</ele>
        <time>2017-06-25T17:12:03Z</time>
      </trkpt>
      <trkpt lat="69.883589968085289" lon="21.680499985814095">
        <ele>146.25999999999999</ele>
        <time>2017-06-25T17:12:04Z</time>
      </trkpt>
      <trkpt lat="69.883692981675267" lon="21.680771978572011">
        <ele>145.30000000000001</ele>
        <time>2017-06-25T17:12:05Z</time>
      </trkpt>
      <trkpt lat="69.883795995265245" lon="21.68107196688652">
        <ele>144.34</ele>
        <time>2017-06-25T17:12:06Z</time>
      </trkpt>
      <trkpt lat="69.884032029658556" lon="21.681668004021049">
        <ele>141.44999999999999</ele>
        <time>2017-06-25T17:12:08Z</time>
      </trkpt>
      <trkpt lat="69.88416999578476" lon="21.681919964030385">
        <ele>140.49000000000001</ele>
        <time>2017-06-25T17:12:09Z</time>
      </trkpt>
      <trkpt lat="69.884315002709627" lon="21.68212397955358">
        <ele>139.05000000000001</ele>
        <time>2017-06-25T17:12:10Z</time>
      </trkpt>
      <trkpt lat="69.884468978270888" lon="21.682275021448731">
        <ele>138.09</ele>
        <time>2017-06-25T17:12:11Z</time>
      </trkpt>
      <trkpt lat="69.884625971317291" lon="21.682391026988626">
        <ele>137.13</ele>
        <time>2017-06-25T17:12:12Z</time>
      </trkpt>
      <trkpt lat="69.884785981848836" lon="21.682491023093462">
        <ele>135.68000000000001</ele>
        <time>2017-06-25T17:12:13Z</time>
      </trkpt>
      <trkpt lat="69.8852230142802" lon="21.682869968935847">
        <ele>132.31999999999999</ele>
        <time>2017-06-25T17:12:16Z</time>
      </trkpt>
      <trkpt lat="69.885342959314585" lon="21.683072978630662">
        <ele>130.88</ele>
        <time>2017-06-25T17:12:17Z</time>
      </trkpt>
      <trkpt lat="69.885444967076182" lon="21.683328961953521">
        <ele>129.91999999999999</ele>
        <time>2017-06-25T17:12:18Z</time>
      </trkpt>
      <trkpt lat="69.885529037564993" lon="21.683629034087062">
        <ele>128.94999999999999</ele>
        <time>2017-06-25T17:12:19Z</time>
      </trkpt>
      <trkpt lat="69.885588968172669" lon="21.683966992422938">
        <ele>127.51000000000001</ele>
        <time>2017-06-25T17:12:20Z</time>
      </trkpt>
      <trkpt lat="69.885620987042785" lon="21.684332024306059">
        <ele>127.03</ele>
        <time>2017-06-25T17:12:21Z</time>
      </trkpt>
      <trkpt lat="69.885633978992701" lon="21.684698984026909">
        <ele>126.06999999999999</ele>
        <time>2017-06-25T17:12:22Z</time>
      </trkpt>
      <trkpt lat="69.885616041719913" lon="21.685068039223552">
        <ele>124.63</ele>
        <time>2017-06-25T17:12:23Z</time>
      </trkpt>
      <trkpt lat="69.885573964565992" lon="21.685428963974118">
        <ele>123.19</ele>
        <time>2017-06-25T17:12:24Z</time>
      </trkpt>
      <trkpt lat="69.885511016473174" lon="21.685766000300646">
        <ele>122.22</ele>
        <time>2017-06-25T17:12:25Z</time>
      </trkpt>
      <trkpt lat="69.885423006489873" lon="21.686065988615155">
        <ele>121.26000000000001</ele>
        <time>2017-06-25T17:12:26Z</time>
      </trkpt>
      <trkpt lat="69.885318987071514" lon="21.6863330360502">
        <ele>119.81999999999999</ele>
        <time>2017-06-25T17:12:27Z</time>
      </trkpt>
      <trkpt lat="69.885200969874859" lon="21.686575021594763">
        <ele>118.86</ele>
        <time>2017-06-25T17:12:28Z</time>
      </trkpt>
      <trkpt lat="69.885080019012094" lon="21.68680896051228">
        <ele>117.90000000000001</ele>
        <time>2017-06-25T17:12:29Z</time>
      </trkpt>
      <trkpt lat="69.884853959083557" lon="21.687334002926946">
        <ele>115.5</ele>
        <time>2017-06-25T17:12:31Z</time>
      </trkpt>
      <trkpt lat="69.884759997949004" lon="21.687654023990035">
        <ele>114.05</ele>
        <time>2017-06-25T17:12:32Z</time>
      </trkpt>
      <trkpt lat="69.884682968258858" lon="21.688016038388014">
        <ele>113.09</ele>
        <time>2017-06-25T17:12:33Z</time>
      </trkpt>
      <trkpt lat="69.884625971317291" lon="21.688418034464121">
        <ele>112.61</ele>
        <time>2017-06-25T17:12:34Z</time>
      </trkpt>
      <trkpt lat="69.884590012952685" lon="21.688841991126537">
        <ele>111.17</ele>
        <time>2017-06-25T17:12:35Z</time>
      </trkpt>
      <trkpt lat="69.884576015174389" lon="21.689284974709153">
        <ele>110.20999999999999</ele>
        <time>2017-06-25T17:12:36Z</time>
      </trkpt>
      <trkpt lat="69.884574003517628" lon="21.68974899686873">
        <ele>108.77</ele>
        <time>2017-06-25T17:12:37Z</time>
      </trkpt>
      <trkpt lat="69.884689003229141" lon="21.692296005785465">
        <ele>102.52</ele>
        <time>2017-06-25T17:12:42Z</time>
      </trkpt>
      <trkpt lat="69.884754968807101" lon="21.692795986309648">
        <ele>101.56</ele>
        <time>2017-06-25T17:12:43Z</time>
      </trkpt>
      <trkpt lat="69.884833004325628" lon="21.693283980712295">
        <ele>100.11</ele>
        <time>2017-06-25T17:12:44Z</time>
      </trkpt>
      <trkpt lat="69.885185966268182" lon="21.695625968277454">
        <ele>94.829999999999998</ele>
        <time>2017-06-25T17:12:49Z</time>
      </trkpt>
      <trkpt lat="69.885214967653155" lon="21.696079010143876">
        <ele>93.870000000000005</ele>
        <time>2017-06-25T17:12:50Z</time>
      </trkpt>
      <trkpt lat="69.885219996795058" lon="21.69651797041297">
        <ele>93.390000000000001</ele>
        <time>2017-06-25T17:12:51Z</time>
      </trkpt>
      <trkpt lat="69.885198036208749" lon="21.696939999237657">
        <ele>92.900000000000006</ele>
        <time>2017-06-25T17:12:52Z</time>
      </trkpt>
      <trkpt lat="69.885155959054828" lon="21.697359010577202">
        <ele>91.939999999999998</ele>
        <time>2017-06-25T17:12:53Z</time>
      </trkpt>
      <trkpt lat="69.885093010962009" lon="21.697767041623592">
        <ele>90.980000000000004</ele>
        <time>2017-06-25T17:12:54Z</time>
      </trkpt>
      <trkpt lat="69.885010030120611" lon="21.698174988850951">
        <ele>89.540000000000006</ele>
        <time>2017-06-25T17:12:55Z</time>
      </trkpt>
      <trkpt lat="69.884914979338646" lon="21.698581008240581">
        <ele>88.579999999999998</ele>
        <time>2017-06-25T17:12:56Z</time>
      </trkpt>
      <trkpt lat="69.884811965748668" lon="21.698979986831546">
        <ele>87.140000000000001</ele>
        <time>2017-06-25T17:12:57Z</time>
      </trkpt>
      <trkpt lat="69.883941002190113" lon="21.702288994565606">
        <ele>77.040000000000006</ele>
        <time>2017-06-25T17:13:05Z</time>
      </trkpt>
      <trkpt lat="69.883875036612153" lon="21.702751005068421">
        <ele>75.599999999999994</ele>
        <time>2017-06-25T17:13:06Z</time>
      </trkpt>
      <trkpt lat="69.883824996650219" lon="21.703231958672404">
        <ele>74.640000000000001</ele>
        <time>2017-06-25T17:13:07Z</time>
      </trkpt>
      <trkpt lat="69.883789038285613" lon="21.703732023015618">
        <ele>73.200000000000003</ele>
        <time>2017-06-25T17:13:08Z</time>
      </trkpt>
      <trkpt lat="69.88376003690064" lon="21.704243989661336">
        <ele>72.239999999999995</ele>
        <time>2017-06-25T17:13:09Z</time>
      </trkpt>
      <trkpt lat="69.883602038025856" lon="21.709459964185953">
        <ele>61.18</ele>
        <time>2017-06-25T17:13:19Z</time>
      </trkpt>
      <trkpt lat="69.883458036929369" lon="21.713225031271577">
        <ele>53.009999999999998</ele>
        <time>2017-06-25T17:13:26Z</time>
      </trkpt>
      <trkpt lat="69.882789999246597" lon="21.717635001987219">
        <ele>40.509999999999998</ele>
        <time>2017-06-25T17:13:34Z</time>
      </trkpt>
      <trkpt lat="69.882014002650976" lon="21.725311987102032">
        <ele>20.809999999999999</ele>
        <time>2017-06-25T17:13:46Z</time>
      </trkpt>
      <trkpt lat="69.881083024665713" lon="21.733000036329031">
        <ele>7.35</ele>
        <time>2017-06-25T17:13:58Z</time>
      </trkpt>
      <trkpt lat="69.879690958186984" lon="21.744238995015621">
        <ele>23.210000000000001</ele>
        <time>2017-06-25T17:14:17Z</time>
      </trkpt>
      <trkpt lat="69.87952901981771" lon="21.746522979810834">
        <ele>27.050000000000001</ele>
        <time>2017-06-25T17:14:21Z</time>
      </trkpt>
      <trkpt lat="69.879532037302852" lon="21.747100995853543">
        <ele>28.02</ele>
        <time>2017-06-25T17:14:22Z</time>
      </trkpt>
      <trkpt lat="69.879550980404019" lon="21.747693009674549">
        <ele>28.5</ele>
        <time>2017-06-25T17:14:23Z</time>
      </trkpt>
      <trkpt lat="69.879699004814029" lon="21.75207900814712">
        <ele>37.630000000000003</ele>
        <time>2017-06-25T17:14:30Z</time>
      </trkpt>
      <trkpt lat="69.879668997600675" lon="21.752693988382816">
        <ele>39.07</ele>
        <time>2017-06-25T17:14:31Z</time>
      </trkpt>
      <trkpt lat="69.879620969295502" lon="21.753287008032203">
        <ele>40.990000000000002</ele>
        <time>2017-06-25T17:14:32Z</time>
      </trkpt>
      <trkpt lat="69.8795519862324" lon="21.753868963569403">
        <ele>42.439999999999998</ele>
        <time>2017-06-25T17:14:33Z</time>
      </trkpt>
      <trkpt lat="69.87946598790586" lon="21.754418984055519">
        <ele>43.880000000000003</ele>
        <time>2017-06-25T17:14:34Z</time>
      </trkpt>
      <trkpt lat="69.879364985972643" lon="21.754930028691888">
        <ele>44.840000000000003</ele>
        <time>2017-06-25T17:14:35Z</time>
      </trkpt>
      <trkpt lat="69.879243029281497" lon="21.755405031144619">
        <ele>46.280000000000001</ele>
        <time>2017-06-25T17:14:36Z</time>
      </trkpt>
      <trkpt lat="69.879105985164642" lon="21.7558360286057">
        <ele>46.759999999999998</ele>
        <time>2017-06-25T17:14:37Z</time>
      </trkpt>
      <trkpt lat="69.878952009603381" lon="21.756251016631722">
        <ele>47.240000000000002</ele>
        <time>2017-06-25T17:14:38Z</time>
      </trkpt>
      <trkpt lat="69.878783030435443" lon="21.756653012707829">
        <ele>47.719999999999999</ele>
        <time>2017-06-25T17:14:39Z</time>
      </trkpt>
      <trkpt lat="69.877588022500277" lon="21.760098980739713">
        <ele>51.57</ele>
        <time>2017-06-25T17:14:46Z</time>
      </trkpt>
      <trkpt lat="69.876469038426876" lon="21.764109972864389">
        <ele>63.100000000000001</ele>
        <time>2017-06-25T17:14:54Z</time>
      </trkpt>
      <trkpt lat="69.875200018286705" lon="21.767006004229188">
        <ele>61.659999999999997</ele>
        <time>2017-06-25T17:15:02Z</time>
      </trkpt>
      <trkpt lat="69.873983971774578" lon="21.77001996897161">
        <ele>56.859999999999999</ele>
        <time>2017-06-25T17:15:09Z</time>
      </trkpt>
      <trkpt lat="69.872594000771642" lon="21.774225002154708">
        <ele>59.740000000000002</ele>
        <time>2017-06-25T17:15:17Z</time>
      </trkpt>
      <trkpt lat="69.871293967589736" lon="21.777692008763552">
        <ele>53.490000000000002</ele>
        <time>2017-06-25T17:15:24Z</time>
      </trkpt>
      <trkpt lat="69.870176995173097" lon="21.781308967620134">
        <ele>53.969999999999999</ele>
        <time>2017-06-25T17:15:31Z</time>
      </trkpt>
      <trkpt lat="69.868503967300057" lon="21.786709008738399">
        <ele>59.259999999999998</ele>
        <time>2017-06-25T17:15:43Z</time>
      </trkpt>
      <trkpt lat="69.866346968337893" lon="21.792187001556158">
        <ele>57.340000000000003</ele>
        <time>2017-06-25T17:15:57Z</time>
      </trkpt>
      <trkpt lat="69.864786006510258" lon="21.795829022303224">
        <ele>58.299999999999997</ele>
        <time>2017-06-25T17:16:07Z</time>
      </trkpt>
      <trkpt lat="69.863555962219834" lon="21.797759039327502">
        <ele>58.780000000000001</ele>
        <time>2017-06-25T17:16:14Z</time>
      </trkpt>
      <trkpt lat="69.862135984003544" lon="21.799960965290666">
        <ele>54.93</ele>
        <time>2017-06-25T17:16:21Z</time>
      </trkpt>
      <trkpt lat="69.860455999150872" lon="21.802248973399401">
        <ele>53.490000000000002</ele>
        <time>2017-06-25T17:16:29Z</time>
      </trkpt>
      <trkpt lat="69.860290037468076" lon="21.802400015294552">
        <ele>53.969999999999999</ele>
        <time>2017-06-25T17:16:30Z</time>
      </trkpt>
      <trkpt lat="69.860135978087783" lon="21.802488025277853">
        <ele>54.450000000000003</ele>
        <time>2017-06-25T17:16:31Z</time>
      </trkpt>
      <trkpt lat="69.859983008354902" lon="21.802497999742627">
        <ele>54.450000000000003</ele>
        <time>2017-06-25T17:16:32Z</time>
      </trkpt>
      <trkpt lat="69.859834983944893" lon="21.802431028336287">
        <ele>53.490000000000002</ele>
        <time>2017-06-25T17:16:33Z</time>
      </trkpt>
      <trkpt lat="69.859685031697154" lon="21.802321979776025">
        <ele>53.969999999999999</ele>
        <time>2017-06-25T17:16:34Z</time>
      </trkpt>
      <trkpt lat="69.859537007287145" lon="21.802166998386383">
        <ele>55.890000000000001</ele>
        <time>2017-06-25T17:16:35Z</time>
      </trkpt>
      <trkpt lat="69.859395017847419" lon="21.801929958164692">
        <ele>56.369999999999997</ele>
        <time>2017-06-25T17:16:36Z</time>
      </trkpt>
      <trkpt lat="69.859265014529228" lon="21.801643967628479">
        <ele>56.369999999999997</ele>
        <time>2017-06-25T17:16:37Z</time>
      </trkpt>
      <trkpt lat="69.859140962362289" lon="21.80134498514235">
        <ele>56.369999999999997</ele>
        <time>2017-06-25T17:16:38Z</time>
      </trkpt>
      <trkpt lat="69.859024034813046" lon="21.801048014312983">
        <ele>56.369999999999997</ele>
        <time>2017-06-25T17:16:39Z</time>
      </trkpt>
      <trkpt lat="69.858585996553302" lon="21.799992984160781">
        <ele>56.859999999999999</ele>
        <time>2017-06-25T17:16:43Z</time>
      </trkpt>
      <trkpt lat="69.858465967699885" lon="21.799824004992843">
        <ele>56.859999999999999</ele>
        <time>2017-06-25T17:16:44Z</time>
      </trkpt>
      <trkpt lat="69.858338981866837" lon="21.79971001110971">
        <ele>56.369999999999997</ele>
        <time>2017-06-25T17:16:45Z</time>
      </trkpt>
      <trkpt lat="69.858208978548646" lon="21.799644967541099">
        <ele>56.369999999999997</ele>
        <time>2017-06-25T17:16:46Z</time>
      </trkpt>
      <trkpt lat="69.858078975230455" lon="21.799637004733086">
        <ele>56.859999999999999</ele>
        <time>2017-06-25T17:16:47Z</time>
      </trkpt>
      <trkpt lat="69.857948971912265" lon="21.799684027209878">
        <ele>57.340000000000003</ele>
        <time>2017-06-25T17:16:48Z</time>
      </trkpt>
      <trkpt lat="69.857820980250835" lon="21.79979701526463">
        <ele>57.82</ele>
        <time>2017-06-25T17:16:49Z</time>
      </trkpt>
      <trkpt lat="69.857691982761025" lon="21.799965994432569">
        <ele>58.299999999999997</ele>
        <time>2017-06-25T17:16:50Z</time>
      </trkpt>
      <trkpt lat="69.857572037726641" lon="21.800181996077299">
        <ele>58.780000000000001</ele>
        <time>2017-06-25T17:16:51Z</time>
      </trkpt>
      <trkpt lat="69.857446979731321" lon="21.800449965521693">
        <ele>59.259999999999998</ele>
        <time>2017-06-25T17:16:52Z</time>
      </trkpt>
      <trkpt lat="69.857317982241511" lon="21.800759006291628">
        <ele>59.259999999999998</ele>
        <time>2017-06-25T17:16:53Z</time>
      </trkpt>
      <trkpt lat="69.855992970988154" lon="21.803443981334567">
        <ele>58.780000000000001</ele>
        <time>2017-06-25T17:17:01Z</time>
      </trkpt>
      <trkpt lat="69.853537995368242" lon="21.807033028453588">
        <ele>53.009999999999998</ele>
        <time>2017-06-25T17:17:13Z</time>
      </trkpt>
      <trkpt lat="69.849615013226867" lon="21.81266700848937">
        <ele>52.049999999999997</ele>
        <time>2017-06-25T17:17:32Z</time>
      </trkpt>
      <trkpt lat="69.845280982553959" lon="21.819000039249659">
        <ele>49.159999999999997</ele>
        <time>2017-06-25T17:17:53Z</time>
      </trkpt>
      <trkpt lat="69.844396021217108" lon="21.821273965761065">
        <ele>49.649999999999999</ele>
        <time>2017-06-25T17:17:59Z</time>
      </trkpt>
      <trkpt lat="69.843990001827478" lon="21.824235040694475">
        <ele>46.759999999999998</ele>
        <time>2017-06-25T17:18:05Z</time>
      </trkpt>
      <trkpt lat="69.843494966626167" lon="21.830624984577298">
        <ele>32.82</ele>
        <time>2017-06-25T17:18:16Z</time>
      </trkpt>
      <trkpt lat="69.842200968414545" lon="21.839978015050292">
        <ele>17.440000000000001</ele>
        <time>2017-06-25T17:18:31Z</time>
      </trkpt>
      <trkpt lat="69.841894023120403" lon="21.845441004261374">
        <ele>19.359999999999999</ele>
        <time>2017-06-25T17:18:40Z</time>
      </trkpt>
      <trkpt lat="69.841754967346787" lon="21.852814983576536">
        <ele>12.15</ele>
        <time>2017-06-25T17:18:52Z</time>
      </trkpt>
      <trkpt lat="69.841860998421907" lon="21.856321971863508">
        <ele>12.15</ele>
        <time>2017-06-25T17:18:59Z</time>
      </trkpt>
      <trkpt lat="69.841743987053633" lon="21.860392978414893">
        <ele>9.75</ele>
        <time>2017-06-25T17:19:08Z</time>
      </trkpt>
      <trkpt lat="69.841203019022942" lon="21.864750981330872">
        <ele>6.39</ele>
        <time>2017-06-25T17:19:16Z</time>
      </trkpt>
      <trkpt lat="69.840800017118454" lon="21.869191965088248">
        <ele>9.27</ele>
        <time>2017-06-25T17:19:24Z</time>
      </trkpt>
      <trkpt lat="69.840920967981219" lon="21.874384973198175">
        <ele>4.46</ele>
        <time>2017-06-25T17:19:34Z</time>
      </trkpt>
      <trkpt lat="69.840801022946835" lon="21.878976998850703">
        <ele>7.83</ele>
        <time>2017-06-25T17:19:42Z</time>
      </trkpt>
      <trkpt lat="69.840381005778909" lon="21.885153036564589">
        <ele>17.920000000000002</ele>
        <time>2017-06-25T17:19:54Z</time>
      </trkpt>
      <trkpt lat="69.840038018301129" lon="21.890003979206085">
        <ele>11.19</ele>
        <time>2017-06-25T17:20:04Z</time>
      </trkpt>
    </trkseg>
  </trk>

  <trk>
    <name>Track vom: 25 JUN 2017 19:20</name>
    <extensions>
      <gpxx:TrackExtension>
        <gpxx:DisplayColor>DarkGray</gpxx:DisplayColor>
      </gpxx:TrackExtension>
    </extensions>
    <trkseg>
      <trkpt lat="69.839428989216685" lon="21.893655974417925">
        <ele>16</ele>
        <time>2017-06-25T17:20:12Z</time>
      </trkpt>
      <trkpt lat="69.838782995939255" lon="21.898658964782953">
        <ele>17.440000000000001</ele>
        <time>2017-06-25T17:20:23Z</time>
      </trkpt>
      <trkpt lat="69.838891038671136" lon="21.902386983856559">
        <ele>12.630000000000001</ele>
        <time>2017-06-25T17:20:31Z</time>
      </trkpt>
      <trkpt lat="69.839441981166601" lon="21.905560037121177">
        <ele>12.15</ele>
        <time>2017-06-25T17:20:39Z</time>
      </trkpt>
      <trkpt lat="69.840501034632325" lon="21.908810036256909">
        <ele>10.710000000000001</ele>
        <time>2017-06-25T17:20:48Z</time>
      </trkpt>
      <trkpt lat="69.841747004538774" lon="21.913119005039334">
        <ele>13.6</ele>
        <time>2017-06-25T17:20:58Z</time>
      </trkpt>
      <trkpt lat="69.842341030016541" lon="21.917378017678857">
        <ele>12.630000000000001</ele>
        <time>2017-06-25T17:21:06Z</time>
      </trkpt>
      <trkpt lat="69.842803040519357" lon="21.924052024260163">
        <ele>7.35</ele>
        <time>2017-06-25T17:21:17Z</time>
      </trkpt>
      <trkpt lat="69.842805974185467" lon="21.928835995495319">
        <ele>6.87</ele>
        <time>2017-06-25T17:21:25Z</time>
      </trkpt>
      <trkpt lat="69.842288978397846" lon="21.93227400071919">
        <ele>7.35</ele>
        <time>2017-06-25T17:21:31Z</time>
      </trkpt>
      <trkpt lat="69.841359006240964" lon="21.934978002682328">
        <ele>5.42</ele>
        <time>2017-06-25T17:21:37Z</time>
      </trkpt>
      <trkpt lat="69.839814975857735" lon="21.937852995470166">
        <ele>5.42</ele>
        <time>2017-06-25T17:21:45Z</time>
      </trkpt>
      <trkpt lat="69.838921967893839" lon="21.941292006522417">
        <ele>7.83</ele>
        <time>2017-06-25T17:21:52Z</time>
      </trkpt>
      <trkpt lat="69.838058967143297" lon="21.94686396047473">
        <ele>10.710000000000001</ele>
        <time>2017-06-25T17:22:02Z</time>
      </trkpt>
      <trkpt lat="69.837674992159009" lon="21.952639007940888">
        <ele>7.35</ele>
        <time>2017-06-25T17:22:12Z</time>
      </trkpt>
      <trkpt lat="69.837713968008757" lon="21.953768972307444">
        <ele>7.35</ele>
        <time>2017-06-25T17:22:14Z</time>
      </trkpt>
      <trkpt lat="69.837756967172027" lon="21.954303989186883">
        <ele>7.35</ele>
        <time>2017-06-25T17:22:15Z</time>
      </trkpt>
      <trkpt lat="69.837812958285213" lon="21.954826014116406">
        <ele>7.83</ele>
        <time>2017-06-25T17:22:16Z</time>
      </trkpt>
      <trkpt lat="69.837879007682204" lon="21.955330017954111">
        <ele>7.83</ele>
        <time>2017-06-25T17:22:17Z</time>
      </trkpt>
      <trkpt lat="69.837956037372351" lon="21.955825975164771">
        <ele>8.310000000000001</ele>
        <time>2017-06-25T17:22:18Z</time>
      </trkpt>
      <trkpt lat="69.83804396353662" lon="21.956303995102644">
        <ele>8.310000000000001</ele>
        <time>2017-06-25T17:22:19Z</time>
      </trkpt>
      <trkpt lat="69.83868601731956" lon="21.960490001365542">
        <ele>9.75</ele>
        <time>2017-06-25T17:22:28Z</time>
      </trkpt>
      <trkpt lat="69.838641006499529" lon="21.964340982958674">
        <ele>7.83</ele>
        <time>2017-06-25T17:22:35Z</time>
      </trkpt>
      <trkpt lat="69.838647041469812" lon="21.970032965764403">
        <ele>11.67</ele>
        <time>2017-06-25T17:22:45Z</time>
      </trkpt>
      <trkpt lat="69.838667996227741" lon="21.976047987118363">
        <ele>16.960000000000001</ele>
        <time>2017-06-25T17:22:55Z</time>
      </trkpt>
      <trkpt lat="69.838868994265795" lon="21.980842016637325">
        <ele>20.32</ele>
        <time>2017-06-25T17:23:03Z</time>
      </trkpt>
      <trkpt lat="69.839507024735212" lon="21.985862022265792">
        <ele>22.73</ele>
        <time>2017-06-25T17:23:12Z</time>
      </trkpt>
      <trkpt lat="69.840748971328139" lon="21.992015009745955">
        <ele>26.09</ele>
        <time>2017-06-25T17:23:23Z</time>
      </trkpt>
      <trkpt lat="69.841355988755822" lon="21.994214002043009">
        <ele>24.649999999999999</ele>
        <time>2017-06-25T17:23:28Z</time>
      </trkpt>
      <trkpt lat="69.841437041759491" lon="21.994657991454005">
        <ele>23.690000000000001</ele>
        <time>2017-06-25T17:23:29Z</time>
      </trkpt>
      <trkpt lat="69.841495966538787" lon="21.99514196254313">
        <ele>22.73</ele>
        <time>2017-06-25T17:23:30Z</time>
      </trkpt>
      <trkpt lat="69.841537959873676" lon="21.995664993301034">
        <ele>21.77</ele>
        <time>2017-06-25T17:23:31Z</time>
      </trkpt>
      <trkpt lat="69.84156696125865" lon="21.996221970766783">
        <ele>20.809999999999999</ele>
        <time>2017-06-25T17:23:32Z</time>
      </trkpt>
      <trkpt lat="69.84158699400723" lon="21.996798980981112">
        <ele>19.84</ele>
        <time>2017-06-25T17:23:33Z</time>
      </trkpt>
      <trkpt lat="69.841828979551792" lon="22.002970995381474">
        <ele>9.75</ele>
        <time>2017-06-25T17:23:44Z</time>
      </trkpt>
      <trkpt lat="69.842011034488678" lon="22.005525967106223">
        <ele>5.42</ele>
        <time>2017-06-25T17:23:49Z</time>
      </trkpt>
      <trkpt lat="69.842013968154788" lon="22.006026031449437">
        <ele>5.42</ele>
        <time>2017-06-25T17:23:50Z</time>
      </trkpt>
      <trkpt lat="69.841999970376492" lon="22.006527017802">
        <ele>4.94</ele>
        <time>2017-06-25T17:23:51Z</time>
      </trkpt>
      <trkpt lat="69.841968035325408" lon="22.007014006376266">
        <ele>4.46</ele>
        <time>2017-06-25T17:23:52Z</time>
      </trkpt>
      <trkpt lat="69.841919001191854" lon="22.007504012435675">
        <ele>3.98</ele>
        <time>2017-06-25T17:23:53Z</time>
      </trkpt>
      <trkpt lat="69.841863010078669" lon="22.007980020716786">
        <ele>3.5</ele>
        <time>2017-06-25T17:23:54Z</time>
      </trkpt>
      <trkpt lat="69.841798972338438" lon="22.008448988199234">
        <ele>3.5</ele>
        <time>2017-06-25T17:23:55Z</time>
      </trkpt>
      <trkpt lat="69.841427989304066" lon="22.011803006753325">
        <ele>3.02</ele>
        <time>2017-06-25T17:24:02Z</time>
      </trkpt>
      <trkpt lat="69.841417009010911" lon="22.012280020862818">
        <ele>3.02</ele>
        <time>2017-06-25T17:24:03Z</time>
      </trkpt>
      <trkpt lat="69.841424971818924" lon="22.012741025537252">
        <ele>3.02</ele>
        <time>2017-06-25T17:24:04Z</time>
      </trkpt>
      <trkpt lat="69.84145799651742" lon="22.013173028826714">
        <ele>3.5</ele>
        <time>2017-06-25T17:24:05Z</time>
      </trkpt>
      <trkpt lat="69.841514993458986" lon="22.013582987710834">
        <ele>3.5</ele>
        <time>2017-06-25T17:24:06Z</time>
      </trkpt>
      <trkpt lat="69.841585988178849" lon="22.013982972130179">
        <ele>3.5</ele>
        <time>2017-06-25T17:24:07Z</time>
      </trkpt>
      <trkpt lat="69.84167299233377" lon="22.014368958771229">
        <ele>3.5</ele>
        <time>2017-06-25T17:24:08Z</time>
      </trkpt>
      <trkpt lat="69.84178002923727" lon="22.014725022017956">
        <ele>3.98</ele>
        <time>2017-06-25T17:24:09Z</time>
      </trkpt>
      <trkpt lat="69.841900980100036" lon="22.015069015324116">
        <ele>3.5</ele>
        <time>2017-06-25T17:24:10Z</time>
      </trkpt>
      <trkpt lat="69.842026960104704" lon="22.015384007245302">
        <ele>3.5</ele>
        <time>2017-06-25T17:24:11Z</time>
      </trkpt>
      <trkpt lat="69.843195984140038" lon="22.018847996369004">
        <ele>3.5</ele>
        <time>2017-06-25T17:24:21Z</time>
      </trkpt>
      <trkpt lat="69.843763019889593" lon="22.022552965208888">
        <ele>5.42</ele>
        <time>2017-06-25T17:24:29Z</time>
      </trkpt>
      <trkpt lat="69.844586038962007" lon="22.025204999372363">
        <ele>5.91</ele>
        <time>2017-06-25T17:24:36Z</time>
      </trkpt>
      <trkpt lat="69.845700999721885" lon="22.02683100476861">
        <ele>4.94</ele>
        <time>2017-06-25T17:24:43Z</time>
      </trkpt>
      <trkpt lat="69.847248969599605" lon="22.027612030506134">
        <ele>4.94</ele>
        <time>2017-06-25T17:24:51Z</time>
      </trkpt>
      <trkpt lat="69.84904102049768" lon="22.027265019714832">
        <ele>3.98</ele>
        <time>2017-06-25T17:25:00Z</time>
      </trkpt>
      <trkpt lat="69.850822007283568" lon="22.02605701982975">
        <ele>5.91</ele>
        <time>2017-06-25T17:25:09Z</time>
      </trkpt>
      <trkpt lat="69.853149997070432" lon="22.024628994986415">
        <ele>6.87</ele>
        <time>2017-06-25T17:25:20Z</time>
      </trkpt>
      <trkpt lat="69.854166973382235" lon="22.022560006007552">
        <ele>9.27</ele>
        <time>2017-06-25T17:25:26Z</time>
      </trkpt>
      <trkpt lat="69.855169029906392" lon="22.019624998793006">
        <ele>11.19</ele>
        <time>2017-06-25T17:25:33Z</time>
      </trkpt>
      <trkpt lat="69.856904000043869" lon="22.01578801497817">
        <ele>10.710000000000001</ele>
        <time>2017-06-25T17:25:43Z</time>
      </trkpt>
      <trkpt lat="69.859409015625715" lon="22.010639011859894">
        <ele>6.39</ele>
        <time>2017-06-25T17:25:57Z</time>
      </trkpt>
      <trkpt lat="69.860229017212987" lon="22.008234998211265">
        <ele>5.42</ele>
        <time>2017-06-25T17:26:03Z</time>
      </trkpt>
      <trkpt lat="69.860393973067403" lon="22.007908020168543">
        <ele>5.42</ele>
        <time>2017-06-25T17:26:04Z</time>
      </trkpt>
      <trkpt lat="69.861973039805889" lon="22.004831023514271">
        <ele>7.83</ele>
        <time>2017-06-25T17:26:13Z</time>
      </trkpt>
      <trkpt lat="69.863469963893294" lon="22.001611031591892">
        <ele>13.6</ele>
        <time>2017-06-25T17:26:22Z</time>
      </trkpt>
      <trkpt lat="69.865061016753316" lon="21.997465007007122">
        <ele>22.25</ele>
        <time>2017-06-25T17:26:32Z</time>
      </trkpt>
      <trkpt lat="69.867274006828666" lon="21.992511972784996">
        <ele>40.990000000000002</ele>
        <time>2017-06-25T17:26:45Z</time>
      </trkpt>
      <trkpt lat="69.869155995547771" lon="21.990472991019487">
        <ele>55.890000000000001</ele>
        <time>2017-06-25T17:26:54Z</time>
      </trkpt>
      <trkpt lat="69.870356032624841" lon="21.990337036550045">
        <ele>65.030000000000001</ele>
        <time>2017-06-25T17:27:00Z</time>
      </trkpt>
      <trkpt lat="69.870531968772411" lon="21.990237962454557">
        <ele>66.469999999999999</ele>
        <time>2017-06-25T17:27:01Z</time>
      </trkpt>
      <trkpt lat="69.870702037587762" lon="21.990082981064916">
        <ele>67.909999999999997</ele>
        <time>2017-06-25T17:27:02Z</time>
      </trkpt>
      <trkpt lat="69.870855007320642" lon="21.989887012168765">
        <ele>68.870000000000005</ele>
        <time>2017-06-25T17:27:03Z</time>
      </trkpt>
      <trkpt lat="69.870996996760368" lon="21.989635974168777">
        <ele>70.310000000000002</ele>
        <time>2017-06-25T17:27:04Z</time>
      </trkpt>
      <trkpt lat="69.871125994250178" lon="21.989331040531397">
        <ele>71.760000000000005</ele>
        <time>2017-06-25T17:27:05Z</time>
      </trkpt>
      <trkpt lat="69.871245017275214" lon="21.988972965627909">
        <ele>73.200000000000003</ele>
        <time>2017-06-25T17:27:06Z</time>
      </trkpt>
      <trkpt lat="69.871354987844825" lon="21.988569041714072">
        <ele>74.640000000000001</ele>
        <time>2017-06-25T17:27:07Z</time>
      </trkpt>
      <trkpt lat="69.871459007263184" lon="21.988131003454328">
        <ele>76.079999999999998</ele>
        <time>2017-06-25T17:27:08Z</time>
      </trkpt>
      <trkpt lat="69.87235302105546" lon="21.984236016869545">
        <ele>87.620000000000005</ele>
        <time>2017-06-25T17:27:17Z</time>
      </trkpt>
      <trkpt lat="69.872597018256783" lon="21.983601003885269">
        <ele>89.540000000000006</ele>
        <time>2017-06-25T17:27:19Z</time>
      </trkpt>
      <trkpt lat="69.872731966897845" lon="21.983340997248888">
        <ele>90.5</ele>
        <time>2017-06-25T17:27:20Z</time>
      </trkpt>
      <trkpt lat="69.872877979651093" lon="21.98312901891768">
        <ele>91.939999999999998</ele>
        <time>2017-06-25T17:27:21Z</time>
      </trkpt>
      <trkpt lat="69.873031033203006" lon="21.982974037528038">
        <ele>93.390000000000001</ele>
        <time>2017-06-25T17:27:22Z</time>
      </trkpt>
      <trkpt lat="69.87319003790617" lon="21.982879992574453">
        <ele>94.349999999999994</ele>
        <time>2017-06-25T17:27:23Z</time>
      </trkpt>
      <trkpt lat="69.873350970447063" lon="21.982846967875957">
        <ele>95.310000000000002</ele>
        <time>2017-06-25T17:27:24Z</time>
      </trkpt>
      <trkpt lat="69.873517015948892" lon="21.98287102393806">
        <ele>96.75</ele>
        <time>2017-06-25T17:27:25Z</time>
      </trkpt>
      <trkpt lat="69.873690018430352" lon="21.982945036143064">
        <ele>98.189999999999998</ele>
        <time>2017-06-25T17:27:26Z</time>
      </trkpt>
      <trkpt lat="69.87385799176991" lon="21.983055006712675">
        <ele>99.150000000000006</ele>
        <time>2017-06-25T17:27:27Z</time>
      </trkpt>
      <trkpt lat="69.874026970937848" lon="21.983191967010498">
        <ele>100.11</ele>
        <time>2017-06-25T17:27:28Z</time>
      </trkpt>
      <trkpt lat="69.874195028096437" lon="21.983357006683946">
        <ele>101.56</ele>
        <time>2017-06-25T17:27:29Z</time>
      </trkpt>
      <trkpt lat="69.875804018229246" lon="21.984357973560691">
        <ele>113.09</ele>
        <time>2017-06-25T17:27:38Z</time>
      </trkpt>
      <trkpt lat="69.876166032627225" lon="21.984186982735991">
        <ele>115.98</ele>
        <time>2017-06-25T17:27:40Z</time>
      </trkpt>
      <trkpt lat="69.876333000138402" lon="21.98403300717473">
        <ele>116.94</ele>
        <time>2017-06-25T17:27:41Z</time>
      </trkpt>
      <trkpt lat="69.876492004841566" lon="21.983835026621819">
        <ele>118.38</ele>
        <time>2017-06-25T17:27:42Z</time>
      </trkpt>
      <trkpt lat="69.876633994281292" lon="21.98360200971365">
        <ele>119.81999999999999</ele>
        <time>2017-06-25T17:27:43Z</time>
      </trkpt>
      <trkpt lat="69.87675896845758" lon="21.983332028612494">
        <ele>120.78</ele>
        <time>2017-06-25T17:27:44Z</time>
      </trkpt>
      <trkpt lat="69.876867011189461" lon="21.983030028641224">
        <ele>121.73999999999999</ele>
        <time>2017-06-25T17:27:45Z</time>
      </trkpt>
      <trkpt lat="69.876959966495633" lon="21.982688969001174">
        <ele>123.19</ele>
        <time>2017-06-25T17:27:46Z</time>
      </trkpt>
      <trkpt lat="69.877031967043877" lon="21.982317985966802">
        <ele>124.15000000000001</ele>
        <time>2017-06-25T17:27:47Z</time>
      </trkpt>
      <trkpt lat="69.87708100117743" lon="21.981921019032598">
        <ele>125.11</ele>
        <time>2017-06-25T17:27:48Z</time>
      </trkpt>
      <trkpt lat="69.877111008390784" lon="21.981488009914756">
        <ele>126.06999999999999</ele>
        <time>2017-06-25T17:27:49Z</time>
      </trkpt>
      <trkpt lat="69.877118971198797" lon="21.981048965826631">
        <ele>127.03</ele>
        <time>2017-06-25T17:27:50Z</time>
      </trkpt>
      <trkpt lat="69.87710103392601" lon="21.980607993900776">
        <ele>127.98999999999999</ele>
        <time>2017-06-25T17:27:51Z</time>
      </trkpt>
      <trkpt lat="69.87705803476274" lon="21.980192000046372">
        <ele>128.94999999999999</ele>
        <time>2017-06-25T17:27:52Z</time>
      </trkpt>
      <trkpt lat="69.876996008679271" lon="21.979782963171601">
        <ele>130.40000000000001</ele>
        <time>2017-06-25T17:27:53Z</time>
      </trkpt>
      <trkpt lat="69.876916967332363" lon="21.979397982358932">
        <ele>131.36000000000001</ele>
        <time>2017-06-25T17:27:54Z</time>
      </trkpt>
      <trkpt lat="69.876829963177443" lon="21.979031022638083">
        <ele>132.80000000000001</ele>
        <time>2017-06-25T17:27:55Z</time>
      </trkpt>
      <trkpt lat="69.876494016498327" lon="21.977542983368039">
        <ele>136.63999999999999</ele>
        <time>2017-06-25T17:27:59Z</time>
      </trkpt>
      <trkpt lat="69.876443976536393" lon="21.977135958150029">
        <ele>138.09</ele>
        <time>2017-06-25T17:28:00Z</time>
      </trkpt>
      <trkpt lat="69.876422015950084" lon="21.976716024801135">
        <ele>139.53</ele>
        <time>2017-06-25T17:28:01Z</time>
      </trkpt>
      <trkpt lat="69.876430984586477" lon="21.976290978491306">
        <ele>140.49000000000001</ele>
        <time>2017-06-25T17:28:02Z</time>
      </trkpt>
      <trkpt lat="69.876466020941734" lon="21.975881019607186">
        <ele>140.49000000000001</ele>
        <time>2017-06-25T17:28:03Z</time>
      </trkpt>
      <trkpt lat="69.87654103897512" lon="21.975484974682331">
        <ele>143.84999999999999</ele>
        <time>2017-06-25T17:28:04Z</time>
      </trkpt>
      <trkpt lat="69.876632988452911" lon="21.975139975547791">
        <ele>145.30000000000001</ele>
        <time>2017-06-25T17:28:05Z</time>
      </trkpt>
      <trkpt lat="69.876741031184793" lon="21.974820038303733">
        <ele>146.25999999999999</ele>
        <time>2017-06-25T17:28:06Z</time>
      </trkpt>
      <trkpt lat="69.876868017017841" lon="21.974558020010591">
        <ele>147.69999999999999</ele>
        <time>2017-06-25T17:28:07Z</time>
      </trkpt>
      <trkpt lat="69.87701402977109" lon="21.974340006709099">
        <ele>148.66</ele>
        <time>2017-06-25T17:28:08Z</time>
      </trkpt>
      <trkpt lat="69.877169011160731" lon="21.974187036976218">
        <ele>150.09999999999999</ele>
        <time>2017-06-25T17:28:09Z</time>
      </trkpt>
      <trkpt lat="69.877333967015147" lon="21.974085029214621">
        <ele>151.06</ele>
        <time>2017-06-25T17:28:10Z</time>
      </trkpt>
      <trkpt lat="69.877505963668227" lon="21.974042030051351">
        <ele>152.03</ele>
        <time>2017-06-25T17:28:11Z</time>
      </trkpt>
      <trkpt lat="69.877685001119971" lon="21.974040018394589">
        <ele>153.94999999999999</ele>
        <time>2017-06-25T17:28:12Z</time>
      </trkpt>
      <trkpt lat="69.877865966409445" lon="21.974083017557859">
        <ele>154.43000000000001</ele>
        <time>2017-06-25T17:28:13Z</time>
      </trkpt>
      <trkpt lat="69.878051960840821" lon="21.974157029762864">
        <ele>155.87</ele>
        <time>2017-06-25T17:28:14Z</time>
      </trkpt>
      <trkpt lat="69.879753990098834" lon="21.975517999380827">
        <ele>167.41</ele>
        <time>2017-06-25T17:28:23Z</time>
      </trkpt>
      <trkpt lat="69.880428984761238" lon="21.976119987666607">
        <ele>171.72999999999999</ele>
        <time>2017-06-25T17:28:27Z</time>
      </trkpt>
      <trkpt lat="69.880590001121163" lon="21.976170027628541">
        <ele>172.69</ele>
        <time>2017-06-25T17:28:28Z</time>
      </trkpt>
      <trkpt lat="69.88075596280396" lon="21.976181007921696">
        <ele>175.09999999999999</ele>
        <time>2017-06-25T17:28:29Z</time>
      </trkpt>
      <trkpt lat="69.880919996649027" lon="21.976152006536722">
        <ele>176.53999999999999</ele>
        <time>2017-06-25T17:28:30Z</time>
      </trkpt>
      <trkpt lat="69.881083024665713" lon="21.976071037352085">
        <ele>177.97999999999999</ele>
        <time>2017-06-25T17:28:31Z</time>
      </trkpt>
      <trkpt lat="69.881244041025639" lon="21.975934999063611">
        <ele>178.94</ele>
        <time>2017-06-25T17:28:32Z</time>
      </trkpt>
      <trkpt lat="69.881407991051674" lon="21.975758979097009">
        <ele>180.38</ele>
        <time>2017-06-25T17:28:33Z</time>
      </trkpt>
      <trkpt lat="69.881572024896741" lon="21.975553035736084">
        <ele>181.34999999999999</ele>
        <time>2017-06-25T17:28:34Z</time>
      </trkpt>
      <trkpt lat="69.882231010124087" lon="21.974806962534785">
        <ele>186.15000000000001</ele>
        <time>2017-06-25T17:28:38Z</time>
      </trkpt>
      <trkpt lat="69.882400995120406" lon="21.974728005006909">
        <ele>187.59</ele>
        <time>2017-06-25T17:28:39Z</time>
      </trkpt>
      <trkpt lat="69.882565028965473" lon="21.974710989743471">
        <ele>189.03999999999999</ele>
        <time>2017-06-25T17:28:40Z</time>
      </trkpt>
      <trkpt lat="69.882729984819889" lon="21.974767986685038">
        <ele>190</ele>
        <time>2017-06-25T17:28:41Z</time>
      </trkpt>
      <trkpt lat="69.882885972037911" lon="21.974884998053312">
        <ele>191.44</ele>
        <time>2017-06-25T17:28:42Z</time>
      </trkpt>
      <trkpt lat="69.88303299061954" lon="21.975062023848295">
        <ele>192.88</ele>
        <time>2017-06-25T17:28:43Z</time>
      </trkpt>
      <trkpt lat="69.883179003372788" lon="21.975295040756464">
        <ele>194.31999999999999</ele>
        <time>2017-06-25T17:28:44Z</time>
      </trkpt>
      <trkpt lat="69.883325016126037" lon="21.975554041564465">
        <ele>195.77000000000001</ele>
        <time>2017-06-25T17:28:45Z</time>
      </trkpt>
      <trkpt lat="69.884476019069552" lon="21.976733040064573">
        <ele>204.90000000000001</ele>
        <time>2017-06-25T17:28:52Z</time>
      </trkpt>
      <trkpt lat="69.885989036411047" lon="21.977703999727964">
        <ele>216.91</ele>
        <time>2017-06-25T17:29:00Z</time>
      </trkpt>
      <trkpt lat="69.886165978386998" lon="21.977941039949656">
        <ele>218.36000000000001</ele>
        <time>2017-06-25T17:29:01Z</time>
      </trkpt>
      <trkpt lat="69.886338980868459" lon="21.978230969980359">
        <ele>219.80000000000001</ele>
        <time>2017-06-25T17:29:02Z</time>
      </trkpt>
      <trkpt lat="69.888031035661697" lon="21.981893023476005">
        <ele>239.02000000000001</ele>
        <time>2017-06-25T17:29:12Z</time>
      </trkpt>
      <trkpt lat="69.889111965894699" lon="21.985086025670171">
        <ele>252</ele>
        <time>2017-06-25T17:29:20Z</time>
      </trkpt>
      <trkpt lat="69.890132965520024" lon="21.987517029047012">
        <ele>262.10000000000002</ele>
        <time>2017-06-25T17:29:27Z</time>
      </trkpt>
      <trkpt lat="69.890246959403157" lon="21.988005023449659">
        <ele>263.54000000000002</ele>
        <time>2017-06-25T17:29:28Z</time>
      </trkpt>
      <trkpt lat="69.890347039327025" lon="21.988507015630603">
        <ele>264.98000000000002</ele>
        <time>2017-06-25T17:29:29Z</time>
      </trkpt>
      <trkpt lat="69.89091600291431" lon="21.992464028298855">
        <ele>266.42000000000002</ele>
        <time>2017-06-25T17:29:37Z</time>
      </trkpt>
      <trkpt lat="69.891752013936639" lon="21.998218037188053">
        <ele>252</ele>
        <time>2017-06-25T17:29:47Z</time>
      </trkpt>
      <trkpt lat="69.892587019130588" lon="22.002384010702372">
        <ele>239.02000000000001</ele>
        <time>2017-06-25T17:29:55Z</time>
      </trkpt>
      <trkpt lat="69.89394798874855" lon="22.005770970135927">
        <ele>225.09</ele>
        <time>2017-06-25T17:30:03Z</time>
      </trkpt>
      <trkpt lat="69.896410005167127" lon="22.01136102899909">
        <ele>208.74000000000001</ele>
        <time>2017-06-25T17:30:16Z</time>
      </trkpt>
      <trkpt lat="69.898774037137628" lon="22.016791999340057">
        <ele>191.91999999999999</ele>
        <time>2017-06-25T17:30:30Z</time>
      </trkpt>
      <trkpt lat="69.900898011401296" lon="22.02167303301394">
        <ele>175.58000000000001</ele>
        <time>2017-06-25T17:30:43Z</time>
      </trkpt>
      <trkpt lat="69.903100021183491" lon="22.026158021762967">
        <ele>156.34999999999999</ele>
        <time>2017-06-25T17:30:56Z</time>
      </trkpt>
      <trkpt lat="69.904891988262534" lon="22.028242014348507">
        <ele>142.88999999999999</ele>
        <time>2017-06-25T17:31:05Z</time>
      </trkpt>
      <trkpt lat="69.906478011980653" lon="22.029407015070319">
        <ele>131.84</ele>
        <time>2017-06-25T17:31:13Z</time>
      </trkpt>
      <trkpt lat="69.906643973663449" lon="22.029673978686333">
        <ele>130.88</ele>
        <time>2017-06-25T17:31:14Z</time>
      </trkpt>
      <trkpt lat="69.906797027215362" lon="22.029987964779139">
        <ele>129.43000000000001</ele>
        <time>2017-06-25T17:31:15Z</time>
      </trkpt>
      <trkpt lat="69.906939016655087" lon="22.030352996662259">
        <ele>127.51000000000001</ele>
        <time>2017-06-25T17:31:16Z</time>
      </trkpt>
      <trkpt lat="69.907070025801659" lon="22.030754992738366">
        <ele>126.06999999999999</ele>
        <time>2017-06-25T17:31:17Z</time>
      </trkpt>
      <trkpt lat="69.907197011634707" lon="22.031203005462885">
        <ele>124.63</ele>
        <time>2017-06-25T17:31:18Z</time>
      </trkpt>
      <trkpt lat="69.907317962497473" lon="22.031672978773713">
        <ele>123.19</ele>
        <time>2017-06-25T17:31:19Z</time>
      </trkpt>
      <trkpt lat="69.908718997612596" lon="22.037603007629514">
        <ele>104.92</ele>
        <time>2017-06-25T17:31:30Z</time>
      </trkpt>
      <trkpt lat="69.909344036132097" lon="22.041592039167881">
        <ele>102.04000000000001</ele>
        <time>2017-06-25T17:31:37Z</time>
      </trkpt>
      <trkpt lat="69.910349026322365" lon="22.052190033718944">
        <ele>99.629999999999995</ele>
        <time>2017-06-25T17:31:55Z</time>
      </trkpt>
      <trkpt lat="69.910450028255582" lon="22.057056985795498">
        <ele>102.04000000000001</ele>
        <time>2017-06-25T17:32:04Z</time>
      </trkpt>
      <trkpt lat="69.910500990226865" lon="22.057587979361415">
        <ele>102.04000000000001</ele>
        <time>2017-06-25T17:32:05Z</time>
      </trkpt>
      <trkpt lat="69.91057500243187" lon="22.058108998462558">
        <ele>102.04000000000001</ele>
        <time>2017-06-25T17:32:06Z</time>
      </trkpt>
      <trkpt lat="69.910666029900312" lon="22.058615013957024">
        <ele>102.04000000000001</ele>
        <time>2017-06-25T17:32:07Z</time>
      </trkpt>
      <trkpt lat="69.910776000469923" lon="22.05910200253129">
        <ele>102.52</ele>
        <time>2017-06-25T17:32:08Z</time>
      </trkpt>
      <trkpt lat="69.910900974646211" lon="22.05957499332726">
        <ele>102.04000000000001</ele>
        <time>2017-06-25T17:32:09Z</time>
      </trkpt>
      <trkpt lat="69.911040030419827" lon="22.060032980516553">
        <ele>102.04000000000001</ele>
        <time>2017-06-25T17:32:10Z</time>
      </trkpt>
      <trkpt lat="69.911193000152707" lon="22.060478981584311">
        <ele>102.04000000000001</ele>
        <time>2017-06-25T17:32:11Z</time>
      </trkpt>
      <trkpt lat="69.912629993632436" lon="22.064152015373111">
        <ele>100.59999999999999</ele>
        <time>2017-06-25T17:32:20Z</time>
      </trkpt>
      <trkpt lat="69.915223019197583" lon="22.06909398548305">
        <ele>96.269999999999996</ele>
        <time>2017-06-25T17:32:35Z</time>
      </trkpt>
      <trkpt lat="69.915339024737477" lon="22.069448959082365">
        <ele>96.269999999999996</ele>
        <time>2017-06-25T17:32:36Z</time>
      </trkpt>
      <trkpt lat="69.915429968386889" lon="22.069830000400543">
        <ele>96.269999999999996</ele>
        <time>2017-06-25T17:32:37Z</time>
      </trkpt>
      <trkpt lat="69.915498029440641" lon="22.070245994254947">
        <ele>96.269999999999996</ele>
        <time>2017-06-25T17:32:38Z</time>
      </trkpt>
      <trkpt lat="69.915543040260673" lon="22.070686966180801">
        <ele>96.269999999999996</ele>
        <time>2017-06-25T17:32:39Z</time>
      </trkpt>
      <trkpt lat="69.915578998625278" lon="22.071152999997139">
        <ele>96.75</ele>
        <time>2017-06-25T17:32:40Z</time>
      </trkpt>
      <trkpt lat="69.915600037202239" lon="22.071646023541689">
        <ele>97.230000000000004</ele>
        <time>2017-06-25T17:32:41Z</time>
      </trkpt>
      <trkpt lat="69.915677988901734" lon="22.073122998699546">
        <ele>96.269999999999996</ele>
        <time>2017-06-25T17:32:44Z</time>
      </trkpt>
      <trkpt lat="69.91573398001492" lon="22.073572017252445">
        <ele>95.790000000000006</ele>
        <time>2017-06-25T17:32:45Z</time>
      </trkpt>
      <trkpt lat="69.915811009705067" lon="22.074003014713526">
        <ele>95.790000000000006</ele>
        <time>2017-06-25T17:32:46Z</time>
      </trkpt>
      <trkpt lat="69.915906982496381" lon="22.074394030496478">
        <ele>95.790000000000006</ele>
        <time>2017-06-25T17:32:47Z</time>
      </trkpt>
      <trkpt lat="69.916019970551133" lon="22.074752021580935">
        <ele>95.790000000000006</ele>
        <time>2017-06-25T17:32:48Z</time>
      </trkpt>
      <trkpt lat="69.916149973869324" lon="22.07506500184536">
        <ele>95.790000000000006</ele>
        <time>2017-06-25T17:32:49Z</time>
      </trkpt>
      <trkpt lat="69.91629003547132" lon="22.075336994603276">
        <ele>95.310000000000002</ele>
        <time>2017-06-25T17:32:50Z</time>
      </trkpt>
      <trkpt lat="69.916446022689342" lon="22.0755619648844">
        <ele>95.310000000000002</ele>
        <time>2017-06-25T17:32:51Z</time>
      </trkpt>
      <trkpt lat="69.916615001857281" lon="22.07573396153748">
        <ele>95.310000000000002</ele>
        <time>2017-06-25T17:32:52Z</time>
      </trkpt>
      <trkpt lat="69.916798984631896" lon="22.075861031189561">
        <ele>95.310000000000002</ele>
        <time>2017-06-25T17:32:53Z</time>
      </trkpt>
      <trkpt lat="69.916986990720034" lon="22.075975025072694">
        <ele>95.310000000000002</ele>
        <time>2017-06-25T17:32:54Z</time>
      </trkpt>
      <trkpt lat="69.919039970263839" lon="22.076936010271311">
        <ele>98.670000000000002</ele>
        <time>2017-06-25T17:33:05Z</time>
      </trkpt>
      <trkpt lat="69.921638024970889" lon="22.076685978099704">
        <ele>94.829999999999998</ele>
        <time>2017-06-25T17:33:18Z</time>
      </trkpt>
      <trkpt lat="69.923775997012854" lon="22.076178034767509">
        <ele>89.060000000000002</ele>
        <time>2017-06-25T17:33:29Z</time>
      </trkpt>
      <trkpt lat="69.924829015508294" lon="22.074609026312828">
        <ele>83.290000000000006</ele>
        <time>2017-06-25T17:33:35Z</time>
      </trkpt>
      <trkpt lat="69.925698973238468" lon="22.071513002738357">
        <ele>79.930000000000007</ele>
        <time>2017-06-25T17:33:42Z</time>
      </trkpt>
      <trkpt lat="69.926090994849801" lon="22.067719018086791">
        <ele>69.829999999999998</ele>
        <time>2017-06-25T17:33:49Z</time>
      </trkpt>
      <trkpt lat="69.926202977076173" lon="22.066703969612718">
        <ele>66.469999999999999</ele>
        <time>2017-06-25T17:33:51Z</time>
      </trkpt>
      <trkpt lat="69.926284030079842" lon="22.066215975210071">
        <ele>65.030000000000001</ele>
        <time>2017-06-25T17:33:52Z</time>
      </trkpt>
      <trkpt lat="69.926386037841439" lon="22.065747007727623">
        <ele>63.100000000000001</ele>
        <time>2017-06-25T17:33:53Z</time>
      </trkpt>
      <trkpt lat="69.926503971219063" lon="22.065291032195091">
        <ele>61.659999999999997</ele>
        <time>2017-06-25T17:33:54Z</time>
      </trkpt>
      <trkpt lat="69.926633974537253" lon="22.064833967015147">
        <ele>60.219999999999999</ele>
        <time>2017-06-25T17:33:55Z</time>
      </trkpt>
      <trkpt lat="69.927794029936194" lon="22.060077991336584">
        <ele>50.130000000000003</ele>
        <time>2017-06-25T17:34:04Z</time>
      </trkpt>
      <trkpt lat="69.928762977942824" lon="22.056056018918753">
        <ele>42.439999999999998</ele>
        <time>2017-06-25T17:34:12Z</time>
      </trkpt>
      <trkpt lat="69.928913014009595" lon="22.055715965107083">
        <ele>40.990000000000002</ele>
        <time>2017-06-25T17:34:13Z</time>
      </trkpt>
      <trkpt lat="69.92907302454114" lon="22.055441038683057">
        <ele>40.509999999999998</ele>
        <time>2017-06-25T17:34:14Z</time>
      </trkpt>
      <trkpt lat="69.929242003709078" lon="22.055240040645003">
        <ele>39.549999999999997</ele>
        <time>2017-06-25T17:34:15Z</time>
      </trkpt>
      <trkpt lat="69.929426992312074" lon="22.055107019841671">
        <ele>39.07</ele>
        <time>2017-06-25T17:34:16Z</time>
      </trkpt>
      <trkpt lat="69.929616004228592" lon="22.054996965453029">
        <ele>38.590000000000003</ele>
        <time>2017-06-25T17:34:17Z</time>
      </trkpt>
      <trkpt lat="69.931759005412459" lon="22.054045032709837">
        <ele>29.460000000000001</ele>
        <time>2017-06-25T17:34:27Z</time>
      </trkpt>
      <trkpt lat="69.934937003999949" lon="22.053158981725574">
        <ele>10.23</ele>
        <time>2017-06-25T17:34:41Z</time>
      </trkpt>
      <trkpt lat="69.936786973848939" lon="22.052624970674515">
        <ele>9.27</ele>
        <time>2017-06-25T17:34:52Z</time>
      </trkpt>
      <trkpt lat="69.939372958615422" lon="22.051878981292248">
        <ele>5.42</ele>
        <time>2017-06-25T17:35:09Z</time>
      </trkpt>
      <trkpt lat="69.942101016640663" lon="22.050911961123347">
        <ele>3.98</ele>
        <time>2017-06-25T17:35:27Z</time>
      </trkpt>
      <trkpt lat="69.943946963176131" lon="22.049158969894052">
        <ele>4.94</ele>
        <time>2017-06-25T17:35:38Z</time>
      </trkpt>
      <trkpt lat="69.946077978238463" lon="22.047298019751906">
        <ele>10.710000000000001</ele>
        <time>2017-06-25T17:35:50Z</time>
      </trkpt>
      <trkpt lat="69.947950998321176" lon="22.045064996927977">
        <ele>6.87</ele>
        <time>2017-06-25T17:35:59Z</time>
      </trkpt>
      <trkpt lat="69.949080962687731" lon="22.042664000764489">
        <ele>5.42</ele>
        <time>2017-06-25T17:36:05Z</time>
      </trkpt>
      <trkpt lat="69.950823979452252" lon="22.039053998887539">
        <ele>6.39</ele>
        <time>2017-06-25T17:36:14Z</time>
      </trkpt>
      <trkpt lat="69.952313024550676" lon="22.036462984979153">
        <ele>8.310000000000001</ele>
        <time>2017-06-25T17:36:22Z</time>
      </trkpt>
      <trkpt lat="69.95360903441906" lon="22.03518801368773">
        <ele>7.35</ele>
        <time>2017-06-25T17:36:29Z</time>
      </trkpt>
      <trkpt lat="69.953797040507197" lon="22.035157000645995">
        <ele>6.87</ele>
        <time>2017-06-25T17:36:30Z</time>
      </trkpt>
      <trkpt lat="69.953989991918206" lon="22.035178039222956">
        <ele>5.91</ele>
        <time>2017-06-25T17:36:31Z</time>
      </trkpt>
      <trkpt lat="69.954182021319866" lon="22.035249033942819">
        <ele>5.42</ele>
        <time>2017-06-25T17:36:32Z</time>
      </trkpt>
      <trkpt lat="69.954373966902494" lon="22.035351963713765">
        <ele>4.94</ele>
        <time>2017-06-25T17:36:33Z</time>
      </trkpt>
      <trkpt lat="69.954564990475774" lon="22.035461012274027">
        <ele>4.46</ele>
        <time>2017-06-25T17:36:34Z</time>
      </trkpt>
      <trkpt lat="69.954946031793952" lon="22.035571988672018">
        <ele>3.5</ele>
        <time>2017-06-25T17:36:36Z</time>
      </trkpt>
      <trkpt lat="69.955134959891438" lon="22.035523960366845">
        <ele>3.5</ele>
        <time>2017-06-25T17:36:37Z</time>
      </trkpt>
      <trkpt lat="69.955323971807957" lon="22.035407032817602">
        <ele>3.5</ele>
        <time>2017-06-25T17:36:38Z</time>
      </trkpt>
      <trkpt lat="69.956802958622575" lon="22.034056959673762">
        <ele>11.19</ele>
        <time>2017-06-25T17:36:46Z</time>
      </trkpt>
      <trkpt lat="69.956971015781164" lon="22.034030975773931">
        <ele>12.630000000000001</ele>
        <time>2017-06-25T17:36:47Z</time>
      </trkpt>
      <trkpt lat="69.957132032141089" lon="22.034053020179272">
        <ele>13.119999999999999</ele>
        <time>2017-06-25T17:36:48Z</time>
      </trkpt>
      <trkpt lat="69.957291036844254" lon="22.034123009070754">
        <ele>14.08</ele>
        <time>2017-06-25T17:36:49Z</time>
      </trkpt>
      <trkpt lat="69.957448029890656" lon="22.034233985468745">
        <ele>15.039999999999999</ele>
        <time>2017-06-25T17:36:50Z</time>
      </trkpt>
      <trkpt lat="69.957602005451918" lon="22.034389972686768">
        <ele>15.52</ele>
        <time>2017-06-25T17:36:51Z</time>
      </trkpt>
      <trkpt lat="69.957752963528037" lon="22.034589964896441">
        <ele>16</ele>
        <time>2017-06-25T17:36:52Z</time>
      </trkpt>
      <trkpt lat="69.957895958796144" lon="22.034841002896428">
        <ele>16.48</ele>
        <time>2017-06-25T17:36:53Z</time>
      </trkpt>
      <trkpt lat="69.958041971549392" lon="22.035147026181221">
        <ele>16.960000000000001</ele>
        <time>2017-06-25T17:36:54Z</time>
      </trkpt>
      <trkpt lat="69.958186978474259" lon="22.035490013659">
        <ele>17.440000000000001</ele>
        <time>2017-06-25T17:36:55Z</time>
      </trkpt>
      <trkpt lat="69.958819979801774" lon="22.036846959963441">
        <ele>17.920000000000002</ele>
        <time>2017-06-25T17:36:59Z</time>
      </trkpt>
      <trkpt lat="69.958997005596757" lon="22.037094980478287">
        <ele>17.920000000000002</ele>
        <time>2017-06-25T17:37:00Z</time>
      </trkpt>
      <trkpt lat="69.959179982542992" lon="22.037276029586792">
        <ele>18.399999999999999</ele>
        <time>2017-06-25T17:37:01Z</time>
      </trkpt>
      <trkpt lat="69.959363965317607" lon="22.037382982671261">
        <ele>18.879999999999999</ele>
        <time>2017-06-25T17:37:02Z</time>
      </trkpt>
      <trkpt lat="69.959552977234125" lon="22.037430005148053">
        <ele>19.359999999999999</ele>
        <time>2017-06-25T17:37:03Z</time>
      </trkpt>
      <trkpt lat="69.959748024120927" lon="22.037436040118337">
        <ele>19.84</ele>
        <time>2017-06-25T17:37:04Z</time>
      </trkpt>
      <trkpt lat="69.95994902215898" lon="22.037418019026518">
        <ele>20.809999999999999</ele>
        <time>2017-06-25T17:37:05Z</time>
      </trkpt>
      <trkpt lat="69.962058998644352" lon="22.037436962127686">
        <ele>21.77</ele>
        <time>2017-06-25T17:37:15Z</time>
      </trkpt>
      <trkpt lat="69.962268965318799" lon="22.037613987922668">
        <ele>21.77</ele>
        <time>2017-06-25T17:37:16Z</time>
      </trkpt>
      <trkpt lat="69.962475998327136" lon="22.037828983739018">
        <ele>21.289999999999999</ele>
        <time>2017-06-25T17:37:17Z</time>
      </trkpt>
      <trkpt lat="69.963705036789179" lon="22.039295984432101">
        <ele>18.399999999999999</ele>
        <time>2017-06-25T17:37:23Z</time>
      </trkpt>
      <trkpt lat="69.963918020948768" lon="22.039398998022079">
        <ele>17.440000000000001</ele>
        <time>2017-06-25T17:37:24Z</time>
      </trkpt>
      <trkpt lat="69.964135028421879" lon="22.039451971650124">
        <ele>16.960000000000001</ele>
        <time>2017-06-25T17:37:25Z</time>
      </trkpt>
      <trkpt lat="69.966037971898913" lon="22.039282992482185">
        <ele>8.789999999999999</ele>
        <time>2017-06-25T17:37:33Z</time>
      </trkpt>
      <trkpt lat="69.970179973170161" lon="22.038785023614764">
        <ele>6.87</ele>
        <time>2017-06-25T17:37:50Z</time>
      </trkpt>
      <trkpt lat="69.972495976835489" lon="22.038168031722307">
        <ele>5.91</ele>
        <time>2017-06-25T17:38:00Z</time>
      </trkpt>
      <trkpt lat="69.97402299195528" lon="22.037995029240847">
        <ele>4.94</ele>
        <time>2017-06-25T17:38:07Z</time>
      </trkpt>
      <trkpt lat="69.975368035957217" lon="22.037105960771441">
        <ele>6.39</ele>
        <time>2017-06-25T17:38:14Z</time>
      </trkpt>
      <trkpt lat="69.975528968498111" lon="22.03701501712203">
        <ele>6.87</ele>
        <time>2017-06-25T17:38:15Z</time>
      </trkpt>
      <trkpt lat="69.975683027878404" lon="22.036990961059928">
        <ele>6.87</ele>
        <time>2017-06-25T17:38:16Z</time>
      </trkpt>
      <trkpt lat="69.975838009268045" lon="22.037053992971778">
        <ele>7.35</ele>
        <time>2017-06-25T17:38:17Z</time>
      </trkpt>
      <trkpt lat="69.97599801979959" lon="22.03718701377511">
        <ele>7.35</ele>
        <time>2017-06-25T17:38:18Z</time>
      </trkpt>
      <trkpt lat="69.976166998967528" lon="22.037360016256571">
        <ele>7.35</ele>
        <time>2017-06-25T17:38:19Z</time>
      </trkpt>
      <trkpt lat="69.977786969393492" lon="22.038555024191737">
        <ele>8.310000000000001</ele>
        <time>2017-06-25T17:38:27Z</time>
      </trkpt>
      <trkpt lat="69.980350993573666" lon="22.04060398042202">
        <ele>5.42</ele>
        <time>2017-06-25T17:38:38Z</time>
      </trkpt>
      <trkpt lat="69.984503975138068" lon="22.043810980394483">
        <ele>4.46</ele>
        <time>2017-06-25T17:38:56Z</time>
      </trkpt>
      <trkpt lat="69.986245986074209" lon="22.043935032561421">
        <ele>3.02</ele>
        <time>2017-06-25T17:39:04Z</time>
      </trkpt>
      <trkpt lat="69.988461993634701" lon="22.043821038678288">
        <ele>1.58</ele>
        <time>2017-06-25T17:39:14Z</time>
      </trkpt>
      <trkpt lat="69.992020027711987" lon="22.041867971420288">
        <ele>5.91</ele>
        <time>2017-06-25T17:39:30Z</time>
      </trkpt>
      <trkpt lat="69.994569970294833" lon="22.039439985528588">
        <ele>10.710000000000001</ele>
        <time>2017-06-25T17:39:42Z</time>
      </trkpt>
      <trkpt lat="69.997208006680012" lon="22.036429038271308">
        <ele>19.359999999999999</ele>
        <time>2017-06-25T17:39:55Z</time>
      </trkpt>
      <trkpt lat="70.001475987955928" lon="22.032115962356329">
        <ele>25.609999999999999</ele>
        <time>2017-06-25T17:40:15Z</time>
      </trkpt>
      <trkpt lat="70.002874005585909" lon="22.031545992940664">
        <ele>34.740000000000002</ele>
        <time>2017-06-25T17:40:22Z</time>
      </trkpt>
      <trkpt lat="70.003690989688039" lon="22.031732993200421">
        <ele>39.549999999999997</ele>
        <time>2017-06-25T17:40:26Z</time>
      </trkpt>
      <trkpt lat="70.00388796441257" lon="22.031886968761683">
        <ele>40.509999999999998</ele>
        <time>2017-06-25T17:40:27Z</time>
      </trkpt>
      <trkpt lat="70.004073958843946" lon="22.032087966799736">
        <ele>41.950000000000003</ele>
        <time>2017-06-25T17:40:28Z</time>
      </trkpt>
      <trkpt lat="70.004246039316058" lon="22.032335987314582">
        <ele>43.399999999999999</ele>
        <time>2017-06-25T17:40:29Z</time>
      </trkpt>
      <trkpt lat="70.004412000998855" lon="22.03263396397233">
        <ele>44.359999999999999</ele>
        <time>2017-06-25T17:40:30Z</time>
      </trkpt>
      <trkpt lat="70.004571005702019" lon="22.03297502361238">
        <ele>44.840000000000003</ele>
        <time>2017-06-25T17:40:31Z</time>
      </trkpt>
      <trkpt lat="70.00472598709166" lon="22.03336201608181">
        <ele>45.799999999999997</ele>
        <time>2017-06-25T17:40:32Z</time>
      </trkpt>
      <trkpt lat="70.004873005673289" lon="22.033796031028032">
        <ele>46.759999999999998</ele>
        <time>2017-06-25T17:40:33Z</time>
      </trkpt>
      <trkpt lat="70.005012983456254" lon="22.034270027652383">
        <ele>47.240000000000002</ele>
        <time>2017-06-25T17:40:34Z</time>
      </trkpt>
      <trkpt lat="70.005147010087967" lon="22.034772019833326">
        <ele>47.719999999999999</ele>
        <time>2017-06-25T17:40:35Z</time>
      </trkpt>
      <trkpt lat="70.006518959999084" lon="22.040611021220684">
        <ele>56.859999999999999</ele>
        <time>2017-06-25T17:40:46Z</time>
      </trkpt>
      <trkpt lat="70.007628975436091" lon="22.044434007257223">
        <ele>59.259999999999998</ele>
        <time>2017-06-25T17:40:54Z</time>
      </trkpt>
      <trkpt lat="70.009456984698772" lon="22.047486025840044">
        <ele>67.430000000000007</ele>
        <time>2017-06-25T17:41:04Z</time>
      </trkpt>
      <trkpt lat="70.011893017217517" lon="22.051507998257875">
        <ele>69.829999999999998</ele>
        <time>2017-06-25T17:41:16Z</time>
      </trkpt>
      <trkpt lat="70.013753967359662" lon="22.054631011560559">
        <ele>69.349999999999994</ele>
        <time>2017-06-25T17:41:24Z</time>
      </trkpt>
      <trkpt lat="70.016197962686419" lon="22.058777036145329">
        <ele>55.890000000000001</ele>
        <time>2017-06-25T17:41:36Z</time>
      </trkpt>
      <trkpt lat="70.016502980142832" lon="22.059505004435778">
        <ele>55.409999999999997</ele>
        <time>2017-06-25T17:41:38Z</time>
      </trkpt>
      <trkpt lat="70.016631977632642" lon="22.059929966926575">
        <ele>54.93</ele>
        <time>2017-06-25T17:41:39Z</time>
      </trkpt>
      <trkpt lat="70.016753012314439" lon="22.060404969379306">
        <ele>54.450000000000003</ele>
        <time>2017-06-25T17:41:40Z</time>
      </trkpt>
      <trkpt lat="70.01686398871243" lon="22.060920037329197">
        <ele>53.969999999999999</ele>
        <time>2017-06-25T17:41:41Z</time>
      </trkpt>
      <trkpt lat="70.016965996474028" lon="22.061439966782928">
        <ele>52.530000000000001</ele>
        <time>2017-06-25T17:41:42Z</time>
      </trkpt>
      <trkpt lat="70.017456002533436" lon="22.063129004091024">
        <ele>49.159999999999997</ele>
        <time>2017-06-25T17:41:46Z</time>
      </trkpt>
      <trkpt lat="70.017610983923078" lon="22.063460005447268">
        <ele>48.200000000000003</ele>
        <time>2017-06-25T17:41:47Z</time>
      </trkpt>
      <trkpt lat="70.017781974747777" lon="22.063766028732061">
        <ele>46.759999999999998</ele>
        <time>2017-06-25T17:41:48Z</time>
      </trkpt>
      <trkpt lat="70.019376967102289" lon="22.066092006862164">
        <ele>36.670000000000002</ele>
        <time>2017-06-25T17:41:56Z</time>
      </trkpt>
      <trkpt lat="70.02094698138535" lon="22.069063978269696">
        <ele>26.57</ele>
        <time>2017-06-25T17:42:04Z</time>
      </trkpt>
      <trkpt lat="70.022824024781585" lon="22.072378015145659">
        <ele>14.56</ele>
        <time>2017-06-25T17:42:14Z</time>
      </trkpt>
      <trkpt lat="70.024537034332752" lon="22.074858974665403">
        <ele>5.42</ele>
        <time>2017-06-25T17:42:23Z</time>
      </trkpt>
      <trkpt lat="70.024672988802195" lon="22.075245967134833">
        <ele>5.42</ele>
        <time>2017-06-25T17:42:24Z</time>
      </trkpt>
      <trkpt lat="70.024797962978482" lon="22.075674030929804">
        <ele>5.42</ele>
        <time>2017-06-25T17:42:25Z</time>
      </trkpt>
      <trkpt lat="70.024912040680647" lon="22.076141992583871">
        <ele>5.42</ele>
        <time>2017-06-25T17:42:26Z</time>
      </trkpt>
      <trkpt lat="70.025021005421877" lon="22.076636021956801">
        <ele>5.42</ele>
        <time>2017-06-25T17:42:27Z</time>
      </trkpt>
      <trkpt lat="70.025699017569423" lon="22.08026303909719">
        <ele>4.94</ele>
        <time>2017-06-25T17:42:34Z</time>
      </trkpt>
      <trkpt lat="70.025751991197467" lon="22.080814987421036">
        <ele>5.42</ele>
        <time>2017-06-25T17:42:35Z</time>
      </trkpt>
      <trkpt lat="70.025781998410821" lon="22.081385040655732">
        <ele>5.42</ele>
        <time>2017-06-25T17:42:36Z</time>
      </trkpt>
      <trkpt lat="70.025803036987782" lon="22.081972025334835">
        <ele>5.42</ele>
        <time>2017-06-25T17:42:37Z</time>
      </trkpt>
      <trkpt lat="70.025817034766078" lon="22.082583988085389">
        <ele>6.39</ele>
        <time>2017-06-25T17:42:38Z</time>
      </trkpt>
      <trkpt lat="70.025895992293954" lon="22.087523024529219">
        <ele>10.23</ele>
        <time>2017-06-25T17:42:47Z</time>
      </trkpt>
      <trkpt lat="70.025971010327339" lon="22.089492017403245">
        <ele>10.23</ele>
        <time>2017-06-25T17:42:51Z</time>
      </trkpt>
      <trkpt lat="70.026023983955383" lon="22.089937012642622">
        <ele>9.75</ele>
        <time>2017-06-25T17:42:52Z</time>
      </trkpt>
      <trkpt lat="70.026094978675246" lon="22.090354012325406">
        <ele>9.75</ele>
        <time>2017-06-25T17:42:53Z</time>
      </trkpt>
      <trkpt lat="70.026179971173406" lon="22.090723989531398">
        <ele>9.27</ele>
        <time>2017-06-25T17:42:54Z</time>
      </trkpt>
      <trkpt lat="70.026280973106623" lon="22.091055996716022">
        <ele>8.789999999999999</ele>
        <time>2017-06-25T17:42:55Z</time>
      </trkpt>
      <trkpt lat="70.026396978646517" lon="22.09135196171701">
        <ele>8.789999999999999</ele>
        <time>2017-06-25T17:42:56Z</time>
      </trkpt>
      <trkpt lat="70.026527987793088" lon="22.091616997495294">
        <ele>8.310000000000001</ele>
        <time>2017-06-25T17:42:57Z</time>
      </trkpt>
      <trkpt lat="70.026667965576053" lon="22.091844985261559">
        <ele>7.83</ele>
        <time>2017-06-25T17:42:58Z</time>
      </trkpt>
      <trkpt lat="70.026814984157681" lon="22.092039026319981">
        <ele>7.35</ele>
        <time>2017-06-25T17:42:59Z</time>
      </trkpt>
      <trkpt lat="70.026971977204084" lon="22.092194007709622">
        <ele>6.87</ele>
        <time>2017-06-25T17:43:00Z</time>
      </trkpt>
      <trkpt lat="70.027135005220771" lon="22.092332979664207">
        <ele>6.87</ele>
        <time>2017-06-25T17:43:01Z</time>
      </trkpt>
      <trkpt lat="70.028570992872119" lon="22.093398990109563">
        <ele>4.94</ele>
        <time>2017-06-25T17:43:10Z</time>
      </trkpt>
      <trkpt lat="70.028708036988974" lon="22.093596970662475">
        <ele>4.94</ele>
        <time>2017-06-25T17:43:11Z</time>
      </trkpt>
      <trkpt lat="70.028828987851739" lon="22.093859994783998">
        <ele>5.42</ele>
        <time>2017-06-25T17:43:12Z</time>
      </trkpt>
      <trkpt lat="70.028932001441717" lon="22.094167023897171">
        <ele>6.39</ele>
        <time>2017-06-25T17:43:13Z</time>
      </trkpt>
      <trkpt lat="70.029010958969593" lon="22.094538006931543">
        <ele>7.35</ele>
        <time>2017-06-25T17:43:14Z</time>
      </trkpt>
      <trkpt lat="70.029068039730191" lon="22.094945032149553">
        <ele>8.310000000000001</ele>
        <time>2017-06-25T17:43:15Z</time>
      </trkpt>
      <trkpt lat="70.029106009751558" lon="22.095380974933505">
        <ele>9.27</ele>
        <time>2017-06-25T17:43:16Z</time>
      </trkpt>
      <trkpt lat="70.029125958681107" lon="22.095852959901094">
        <ele>10.710000000000001</ele>
        <time>2017-06-25T17:43:17Z</time>
      </trkpt>
      <trkpt lat="70.029132999479771" lon="22.09633600898087">
        <ele>11.67</ele>
        <time>2017-06-25T17:43:18Z</time>
      </trkpt>
      <trkpt lat="70.029441034421325" lon="22.10091101936996">
        <ele>18.879999999999999</ele>
        <time>2017-06-25T17:43:27Z</time>
      </trkpt>
      <trkpt lat="70.030319038778543" lon="22.107969000935555">
        <ele>21.77</ele>
        <time>2017-06-25T17:43:39Z</time>
      </trkpt>
      <trkpt lat="70.03132302314043" lon="22.116691041737795">
        <ele>26.09</ele>
        <time>2017-06-25T17:43:53Z</time>
      </trkpt>
      <trkpt lat="70.031936997547746" lon="22.124257972463965">
        <ele>37.630000000000003</ele>
        <time>2017-06-25T17:44:04Z</time>
      </trkpt>
      <trkpt lat="70.032537980005145" lon="22.136034965515137">
        <ele>51.090000000000003</ele>
        <time>2017-06-25T17:44:21Z</time>
      </trkpt>
      <trkpt lat="70.032660020515323" lon="22.137186974287033">
        <ele>51.57</ele>
        <time>2017-06-25T17:44:23Z</time>
      </trkpt>
      <trkpt lat="70.032747024670243" lon="22.137742023915052">
        <ele>51.57</ele>
        <time>2017-06-25T17:44:24Z</time>
      </trkpt>
      <trkpt lat="70.033590998500586" lon="22.141872039064765">
        <ele>46.759999999999998</ele>
        <time>2017-06-25T17:44:31Z</time>
      </trkpt>
      <trkpt lat="70.035390006378293" lon="22.15041495859623">
        <ele>39.549999999999997</ele>
        <time>2017-06-25T17:44:44Z</time>
      </trkpt>
      <trkpt lat="70.036024013534188" lon="22.155256010591984">
        <ele>41.950000000000003</ele>
        <time>2017-06-25T17:44:51Z</time>
      </trkpt>
      <trkpt lat="70.036555007100105" lon="22.158800968900323">
        <ele>42.439999999999998</ele>
        <time>2017-06-25T17:44:57Z</time>
      </trkpt>
      <trkpt lat="70.037465030327439" lon="22.162456987425685">
        <ele>39.07</ele>
        <time>2017-06-25T17:45:04Z</time>
      </trkpt>
      <trkpt lat="70.037794020026922" lon="22.166202021762729">
        <ele>38.590000000000003</ele>
        <time>2017-06-25T17:45:10Z</time>
      </trkpt>
      <trkpt lat="70.037691006436944" lon="22.172440001741052">
        <ele>37.630000000000003</ele>
        <time>2017-06-25T17:45:19Z</time>
      </trkpt>
      <trkpt lat="70.037236958742142" lon="22.183564966544509">
        <ele>39.549999999999997</ele>
        <time>2017-06-25T17:45:35Z</time>
      </trkpt>
      <trkpt lat="70.036587025970221" lon="22.197296032682061">
        <ele>47.240000000000002</ele>
        <time>2017-06-25T17:45:54Z</time>
      </trkpt>
      <trkpt lat="70.036388039588928" lon="22.204231973737478">
        <ele>59.740000000000002</ele>
        <time>2017-06-25T17:46:04Z</time>
      </trkpt>
      <trkpt lat="70.036693979054689" lon="22.210652008652687">
        <ele>65.510000000000005</ele>
        <time>2017-06-25T17:46:14Z</time>
      </trkpt>
      <trkpt lat="70.036583002656698" lon="22.216454967856407">
        <ele>68.870000000000005</ele>
        <time>2017-06-25T17:46:23Z</time>
      </trkpt>
      <trkpt lat="70.036809984594584" lon="22.222140999510884">
        <ele>71.760000000000005</ele>
        <time>2017-06-25T17:46:32Z</time>
      </trkpt>
      <trkpt lat="70.036666989326477" lon="22.228550976142287">
        <ele>77.040000000000006</ele>
        <time>2017-06-25T17:46:42Z</time>
      </trkpt>
      <trkpt lat="70.036790035665035" lon="22.232856005430222">
        <ele>78.969999999999999</ele>
        <time>2017-06-25T17:46:49Z</time>
      </trkpt>
      <trkpt lat="70.037435023114085" lon="22.237095991149545">
        <ele>73.200000000000003</ele>
        <time>2017-06-25T17:46:56Z</time>
      </trkpt>
      <trkpt lat="70.039644995704293" lon="22.246926035732031">
        <ele>54.93</ele>
        <time>2017-06-25T17:47:12Z</time>
      </trkpt>
      <trkpt lat="70.040137013420463" lon="22.250980027019978">
        <ele>48.200000000000003</ele>
        <time>2017-06-25T17:47:18Z</time>
      </trkpt>
      <trkpt lat="70.040087979286909" lon="22.255126973614097">
        <ele>39.07</ele>
        <time>2017-06-25T17:47:24Z</time>
      </trkpt>
      <trkpt lat="70.03963896073401" lon="22.258591968566179">
        <ele>36.670000000000002</ele>
        <time>2017-06-25T17:47:30Z</time>
      </trkpt>
      <trkpt lat="70.038618966937065" lon="22.261996027082205">
        <ele>38.109999999999999</ele>
        <time>2017-06-25T17:47:37Z</time>
      </trkpt>
      <trkpt lat="70.037097986787558" lon="22.265032036229968">
        <ele>31.859999999999999</ele>
        <time>2017-06-25T17:47:45Z</time>
      </trkpt>
      <trkpt lat="70.036123003810644" lon="22.268553022295237">
        <ele>21.289999999999999</ele>
        <time>2017-06-25T17:47:52Z</time>
      </trkpt>
      <trkpt lat="70.035041989758611" lon="22.273994972929358">
        <ele>8.310000000000001</ele>
        <time>2017-06-25T17:48:02Z</time>
      </trkpt>
      <trkpt lat="70.033766012638807" lon="22.277782000601292">
        <ele>-1.3</ele>
        <time>2017-06-25T17:48:10Z</time>
      </trkpt>
      <trkpt lat="70.032413005828857" lon="22.280209986492991">
        <ele>-2.75</ele>
        <time>2017-06-25T17:48:18Z</time>
      </trkpt>
      <trkpt lat="70.030458010733128" lon="22.28218300268054">
        <ele>-2.75</ele>
        <time>2017-06-25T17:48:28Z</time>
      </trkpt>
      <trkpt lat="70.0288309995085" lon="22.283967006951571">
        <ele>-3.23</ele>
        <time>2017-06-25T17:48:37Z</time>
      </trkpt>
      <trkpt lat="70.026716999709606" lon="22.285113986581564">
        <ele>-3.23</ele>
        <time>2017-06-25T17:48:48Z</time>
      </trkpt>
      <trkpt lat="70.024629989638925" lon="22.286582998931408">
        <ele>-3.71</ele>
        <time>2017-06-25T17:48:59Z</time>
      </trkpt>
      <trkpt lat="70.023488039150834" lon="22.289160015061498">
        <ele>-2.75</ele>
        <time>2017-06-25T17:49:06Z</time>
      </trkpt>
      <trkpt lat="70.022800974547863" lon="22.292820978909731">
        <ele>-1.3</ele>
        <time>2017-06-25T17:49:13Z</time>
      </trkpt>
      <trkpt lat="70.022656973451376" lon="22.297003967687488">
        <ele>-1.3</ele>
        <time>2017-06-25T17:49:20Z</time>
      </trkpt>
      <trkpt lat="70.023037008941174" lon="22.300882022827864">
        <ele>-1.79</ele>
        <time>2017-06-25T17:49:27Z</time>
      </trkpt>
      <trkpt lat="70.023859022185206" lon="22.303952984511852">
        <ele>-1.79</ele>
        <time>2017-06-25T17:49:34Z</time>
      </trkpt>
      <trkpt lat="70.02509300597012" lon="22.306352974846959">
        <ele>-0.82</ele>
        <time>2017-06-25T17:49:42Z</time>
      </trkpt>
      <trkpt lat="70.028166985139251" lon="22.311608009040356">
        <ele>2.54</ele>
        <time>2017-06-25T17:50:00Z</time>
      </trkpt>
      <trkpt lat="70.030652973800898" lon="22.316485019400716">
        <ele>5.42</ele>
        <time>2017-06-25T17:50:13Z</time>
      </trkpt>
      <trkpt lat="70.032394984737039" lon="22.320799017325044">
        <ele>8.310000000000001</ele>
        <time>2017-06-25T17:50:23Z</time>
      </trkpt>
      <trkpt lat="70.033854022622108" lon="22.326413970440626">
        <ele>7.83</ele>
        <time>2017-06-25T17:50:33Z</time>
      </trkpt>
      <trkpt lat="70.036836974322796" lon="22.335343966260552">
        <ele>8.789999999999999</ele>
        <time>2017-06-25T17:50:50Z</time>
      </trkpt>
      <trkpt lat="70.039076032117009" lon="22.339917970821261">
        <ele>9.75</ele>
        <time>2017-06-25T17:51:01Z</time>
      </trkpt>
      <trkpt lat="70.041021974757314" lon="22.344327019527555">
        <ele>9.27</ele>
        <time>2017-06-25T17:51:11Z</time>
      </trkpt>
      <trkpt lat="70.043433029204607" lon="22.351909959688783">
        <ele>10.23</ele>
        <time>2017-06-25T17:51:25Z</time>
      </trkpt>
      <trkpt lat="70.045172022655606" lon="22.358217006549239">
        <ele>11.67</ele>
        <time>2017-06-25T17:51:36Z</time>
      </trkpt>
      <trkpt lat="70.04685795865953" lon="22.363073984161019">
        <ele>17.920000000000002</ele>
        <time>2017-06-25T17:51:46Z</time>
      </trkpt>
      <trkpt lat="70.048738019540906" lon="22.367760976776481">
        <ele>12.15</ele>
        <time>2017-06-25T17:51:56Z</time>
      </trkpt>
      <trkpt lat="70.049917018041015" lon="22.372071035206318">
        <ele>11.67</ele>
        <time>2017-06-25T17:52:03Z</time>
      </trkpt>
      <trkpt lat="70.051433974877" lon="22.377786990255117">
        <ele>12.630000000000001</ele>
        <time>2017-06-25T17:52:11Z</time>
      </trkpt>
      <trkpt lat="70.053089987486601" lon="22.384398970752954">
        <ele>14.08</ele>
        <time>2017-06-25T17:52:22Z</time>
      </trkpt>
      <trkpt lat="70.054925959557295" lon="22.392670987173915">
        <ele>14.56</ele>
        <time>2017-06-25T17:52:36Z</time>
      </trkpt>
      <trkpt lat="70.055441027507186" lon="22.397705996409059">
        <ele>15.52</ele>
        <time>2017-06-25T17:52:43Z</time>
      </trkpt>
      <trkpt lat="70.055484026670456" lon="22.402924988418818">
        <ele>16</ele>
        <time>2017-06-25T17:52:50Z</time>
      </trkpt>
      <trkpt lat="70.055195018649101" lon="22.414111979305744">
        <ele>7.83</ele>
        <time>2017-06-25T17:53:05Z</time>
      </trkpt>
      <trkpt lat="70.055328039452434" lon="22.423396026715636">
        <ele>9.75</ele>
        <time>2017-06-25T17:53:17Z</time>
      </trkpt>
      <trkpt lat="70.055862972512841" lon="22.434227038174868">
        <ele>21.289999999999999</ele>
        <time>2017-06-25T17:53:31Z</time>
      </trkpt>
      <trkpt lat="70.055970009416342" lon="22.440537018701434">
        <ele>18.879999999999999</ele>
        <time>2017-06-25T17:53:39Z</time>
      </trkpt>
      <trkpt lat="70.056220041587949" lon="22.446655975654721">
        <ele>14.08</ele>
        <time>2017-06-25T17:53:47Z</time>
      </trkpt>
      <trkpt lat="70.056913979351521" lon="22.455496033653617">
        <ele>13.119999999999999</ele>
        <time>2017-06-25T17:53:59Z</time>
      </trkpt>
      <trkpt lat="70.056948009878397" lon="22.462246986106038">
        <ele>11.67</ele>
        <time>2017-06-25T17:54:08Z</time>
      </trkpt>
      <trkpt lat="70.05727699957788" lon="22.469863034784794">
        <ele>22.73</ele>
        <time>2017-06-25T17:54:18Z</time>
      </trkpt>
      <trkpt lat="70.057979989796877" lon="22.479877984151244">
        <ele>28.98</ele>
        <time>2017-06-25T17:54:31Z</time>
      </trkpt>
      <trkpt lat="70.058453986421227" lon="22.489519016817212">
        <ele>23.210000000000001</ele>
        <time>2017-06-25T17:54:43Z</time>
      </trkpt>
      <trkpt lat="70.059225037693977" lon="22.500176019966602">
        <ele>15.039999999999999</ele>
        <time>2017-06-25T17:54:56Z</time>
      </trkpt>
      <trkpt lat="70.059784026816487" lon="22.506930995732546">
        <ele>28.5</ele>
        <time>2017-06-25T17:55:05Z</time>
      </trkpt>
      <trkpt lat="70.059939008206129" lon="22.51196600496769">
        <ele>37.149999999999999</ele>
        <time>2017-06-25T17:55:12Z</time>
      </trkpt>
      <trkpt lat="70.06056496873498" lon="22.517490014433861">
        <ele>39.07</ele>
        <time>2017-06-25T17:55:20Z</time>
      </trkpt>
      <trkpt lat="70.061611030250788" lon="22.525666980072856">
        <ele>38.109999999999999</ele>
        <time>2017-06-25T17:55:31Z</time>
      </trkpt>
      <trkpt lat="70.062860017642379" lon="22.539798030629754">
        <ele>30.899999999999999</ele>
        <time>2017-06-25T17:55:49Z</time>
      </trkpt>
      <trkpt lat="70.064201960340142" lon="22.549939965829253">
        <ele>23.690000000000001</ele>
        <time>2017-06-25T17:56:02Z</time>
      </trkpt>
      <trkpt lat="70.065730987116694" lon="22.563628032803535">
        <ele>22.25</ele>
        <time>2017-06-25T17:56:19Z</time>
      </trkpt>
      <trkpt lat="70.066749975085258" lon="22.575253983959556">
        <ele>14.56</ele>
        <time>2017-06-25T17:56:33Z</time>
      </trkpt>
      <trkpt lat="70.067872982472181" lon="22.589374976232648">
        <ele>10.23</ele>
        <time>2017-06-25T17:56:50Z</time>
      </trkpt>
      <trkpt lat="70.068711005151272" lon="22.596667986363173">
        <ele>13.119999999999999</ele>
        <time>2017-06-25T17:56:59Z</time>
      </trkpt>
      <trkpt lat="70.069135967642069" lon="22.602136004716158">
        <ele>12.15</ele>
        <time>2017-06-25T17:57:06Z</time>
      </trkpt>
      <trkpt lat="70.069810962304473" lon="22.607595976442099">
        <ele>9.27</ele>
        <time>2017-06-25T17:57:13Z</time>
      </trkpt>
      <trkpt lat="70.071410983800888" lon="22.617922984063625">
        <ele>10.710000000000001</ele>
        <time>2017-06-25T17:57:27Z</time>
      </trkpt>
      <trkpt lat="70.072271972894669" lon="22.623610021546483">
        <ele>10.23</ele>
        <time>2017-06-25T17:57:35Z</time>
      </trkpt>
      <trkpt lat="70.072998013347387" lon="22.630428029224277">
        <ele>7.35</ele>
        <time>2017-06-25T17:57:44Z</time>
      </trkpt>
      <trkpt lat="70.074432995170355" lon="22.640999034047127">
        <ele>5.42</ele>
        <time>2017-06-25T17:57:59Z</time>
      </trkpt>
      <trkpt lat="70.075295995920897" lon="22.649819981306791">
        <ele>7.35</ele>
        <time>2017-06-25T17:58:12Z</time>
      </trkpt>
      <trkpt lat="70.075271017849445" lon="22.655280958861113">
        <ele>7.83</ele>
        <time>2017-06-25T17:58:20Z</time>
      </trkpt>
      <trkpt lat="70.07483096793294" lon="22.660946035757661">
        <ele>9.75</ele>
        <time>2017-06-25T17:58:28Z</time>
      </trkpt>
      <trkpt lat="70.074226967990398" lon="22.669117972254753">
        <ele>6.39</ele>
        <time>2017-06-25T17:58:38Z</time>
      </trkpt>
      <trkpt lat="70.07429201155901" lon="22.679403992369771">
        <ele>18.879999999999999</ele>
        <time>2017-06-25T17:58:51Z</time>
      </trkpt>
      <trkpt lat="70.074685961008072" lon="22.684048991650343">
        <ele>19.84</ele>
        <time>2017-06-25T17:58:57Z</time>
      </trkpt>
      <trkpt lat="70.075691035017371" lon="22.68896397203207">
        <ele>20.809999999999999</ele>
        <time>2017-06-25T17:59:04Z</time>
      </trkpt>
      <trkpt lat="70.079296007752419" lon="22.704803002998233">
        <ele>23.690000000000001</ele>
        <time>2017-06-25T17:59:27Z</time>
      </trkpt>
      <trkpt lat="70.081834970042109" lon="22.714844020083547">
        <ele>20.809999999999999</ele>
        <time>2017-06-25T17:59:42Z</time>
      </trkpt>
      <trkpt lat="70.083587039262056" lon="22.719144020229578">
        <ele>19.359999999999999</ele>
        <time>2017-06-25T17:59:50Z</time>
      </trkpt>
      <trkpt lat="70.08516401052475" lon="22.723692962899804">
        <ele>19.359999999999999</ele>
        <time>2017-06-25T17:59:58Z</time>
      </trkpt>
      <trkpt lat="70.086331022903323" lon="22.729206997901201">
        <ele>19.84</ele>
        <time>2017-06-25T18:00:06Z</time>
      </trkpt>
      <trkpt lat="70.087754018604755" lon="22.739223036915064">
        <ele>19.84</ele>
        <time>2017-06-25T18:00:19Z</time>
      </trkpt>
      <trkpt lat="70.088218962773681" lon="22.744731958955526">
        <ele>15.52</ele>
        <time>2017-06-25T18:00:26Z</time>
      </trkpt>
      <trkpt lat="70.088322982192039" lon="22.752271983772516">
        <ele>5.42</ele>
        <time>2017-06-25T18:00:35Z</time>
      </trkpt>
      <trkpt lat="70.088769989088178" lon="22.764395987614989">
        <ele>15.039999999999999</ele>
        <time>2017-06-25T18:00:50Z</time>
      </trkpt>
      <trkpt lat="70.089306011795998" lon="22.772103985771537">
        <ele>24.649999999999999</ele>
        <time>2017-06-25T18:01:00Z</time>
      </trkpt>
      <trkpt lat="70.090423990041018" lon="22.778531983494759">
        <ele>23.690000000000001</ele>
        <time>2017-06-25T18:01:09Z</time>
      </trkpt>
      <trkpt lat="70.09135203436017" lon="22.785263992846012">
        <ele>23.210000000000001</ele>
        <time>2017-06-25T18:01:18Z</time>
      </trkpt>
      <trkpt lat="70.091891996562481" lon="22.793184975162148">
        <ele>24.649999999999999</ele>
        <time>2017-06-25T18:01:28Z</time>
      </trkpt>
      <trkpt lat="70.092553999274969" lon="22.804226959124207">
        <ele>34.259999999999998</ele>
        <time>2017-06-25T18:01:42Z</time>
      </trkpt>
      <trkpt lat="70.093438038602471" lon="22.811048990115523">
        <ele>32.82</ele>
        <time>2017-06-25T18:01:51Z</time>
      </trkpt>
      <trkpt lat="70.094549981877208" lon="22.8193149715662">
        <ele>24.649999999999999</ele>
        <time>2017-06-25T18:02:02Z</time>
      </trkpt>
      <trkpt lat="70.094878971576691" lon="22.826778972521424">
        <ele>22.73</ele>
        <time>2017-06-25T18:02:11Z</time>
      </trkpt>
      <trkpt lat="70.095582967624068" lon="22.833785992115736">
        <ele>21.289999999999999</ele>
        <time>2017-06-25T18:02:20Z</time>
      </trkpt>
      <trkpt lat="70.096848970279098" lon="22.840878004208207">
        <ele>18.879999999999999</ele>
        <time>2017-06-25T18:02:30Z</time>
      </trkpt>
      <trkpt lat="70.098561979830265" lon="22.848992021754384">
        <ele>24.170000000000002</ele>
        <time>2017-06-25T18:02:42Z</time>
      </trkpt>
      <trkpt lat="70.10018102824688" lon="22.856523999944329">
        <ele>24.649999999999999</ele>
        <time>2017-06-25T18:02:53Z</time>
      </trkpt>
      <trkpt lat="70.101701002568007" lon="22.863399004563689">
        <ele>26.09</ele>
        <time>2017-06-25T18:03:04Z</time>
      </trkpt>
      <trkpt lat="70.103443013504148" lon="22.870935006067157">
        <ele>28.02</ele>
        <time>2017-06-25T18:03:17Z</time>
      </trkpt>
      <trkpt lat="70.105349980294704" lon="22.880475036799908">
        <ele>42.920000000000002</ele>
        <time>2017-06-25T18:03:32Z</time>
      </trkpt>
      <trkpt lat="70.106847994029522" lon="22.885413989424706">
        <ele>47.719999999999999</ele>
        <time>2017-06-25T18:03:41Z</time>
      </trkpt>
      <trkpt lat="70.108729982748628" lon="22.889558002352715">
        <ele>44.840000000000003</ele>
        <time>2017-06-25T18:03:51Z</time>
      </trkpt>
      <trkpt lat="70.110176028683782" lon="22.892182040959597">
        <ele>43.399999999999999</ele>
        <time>2017-06-25T18:03:59Z</time>
      </trkpt>
      <trkpt lat="70.111002987250686" lon="22.893757000565529">
        <ele>44.359999999999999</ele>
        <time>2017-06-25T18:04:06Z</time>
      </trkpt>
      <trkpt lat="70.111219994723797" lon="22.89410300552845">
        <ele>45.32</ele>
        <time>2017-06-25T18:04:09Z</time>
      </trkpt>
      <trkpt lat="70.111285038292408" lon="22.894160002470016">
        <ele>44.840000000000003</ele>
        <time>2017-06-25T18:04:10Z</time>
      </trkpt>
      <trkpt lat="70.111348992213607" lon="22.894172994419932">
        <ele>45.32</ele>
        <time>2017-06-25T18:04:11Z</time>
      </trkpt>
      <trkpt lat="70.111560970544815" lon="22.894322024658322">
        <ele>45.32</ele>
        <time>2017-06-25T18:04:14Z</time>
      </trkpt>
      <trkpt lat="70.111632971093059" lon="22.894420009106398">
        <ele>45.32</ele>
        <time>2017-06-25T18:04:15Z</time>
      </trkpt>
      <trkpt lat="70.112565960735083" lon="22.896185992285609">
        <ele>48.200000000000003</ele>
        <time>2017-06-25T18:04:26Z</time>
      </trkpt>
      <trkpt lat="70.113351009786129" lon="22.898589000105858">
        <ele>46.759999999999998</ele>
        <time>2017-06-25T18:04:36Z</time>
      </trkpt>
      <trkpt lat="70.114118959754705" lon="22.900279965251684">
        <ele>42.920000000000002</ele>
        <time>2017-06-25T18:04:43Z</time>
      </trkpt>
      <trkpt lat="70.115510020405054" lon="22.902899980545044">
        <ele>32.82</ele>
        <time>2017-06-25T18:04:52Z</time>
      </trkpt>
      <trkpt lat="70.116798989474773" lon="22.905696015805006">
        <ele>24.170000000000002</ele>
        <time>2017-06-25T18:05:02Z</time>
      </trkpt>
      <trkpt lat="70.11779903434217" lon="22.908562961965799">
        <ele>21.77</ele>
        <time>2017-06-25T18:05:11Z</time>
      </trkpt>
      <trkpt lat="70.119174001738429" lon="22.913100002333522">
        <ele>18.879999999999999</ele>
        <time>2017-06-25T18:05:21Z</time>
      </trkpt>
      <trkpt lat="70.120015041902661" lon="22.916026040911674">
        <ele>20.32</ele>
        <time>2017-06-25T18:05:26Z</time>
      </trkpt>
      <trkpt lat="70.120863039046526" lon="22.919727992266417">
        <ele>26.57</ele>
        <time>2017-06-25T18:05:33Z</time>
      </trkpt>
      <trkpt lat="70.121728973463178" lon="22.924884958192706">
        <ele>21.289999999999999</ele>
        <time>2017-06-25T18:05:42Z</time>
      </trkpt>
      <trkpt lat="70.122805964201689" lon="22.930059023201466">
        <ele>20.809999999999999</ele>
        <time>2017-06-25T18:05:51Z</time>
      </trkpt>
      <trkpt lat="70.123823024332523" lon="22.933361995965242">
        <ele>21.77</ele>
        <time>2017-06-25T18:05:59Z</time>
      </trkpt>
      <trkpt lat="70.125457998365164" lon="22.937177019193769">
        <ele>24.170000000000002</ele>
        <time>2017-06-25T18:06:09Z</time>
      </trkpt>
      <trkpt lat="70.127176959067583" lon="22.942234994843602">
        <ele>24.649999999999999</ele>
        <time>2017-06-25T18:06:20Z</time>
      </trkpt>
      <trkpt lat="70.128453020006418" lon="22.944586034864187">
        <ele>25.129999999999999</ele>
        <time>2017-06-25T18:06:27Z</time>
      </trkpt>
      <trkpt lat="70.12998104095459" lon="22.948044994845986">
        <ele>26.09</ele>
        <time>2017-06-25T18:06:36Z</time>
      </trkpt>
      <trkpt lat="70.131176970899105" lon="22.950015999376774">
        <ele>30.420000000000002</ele>
        <time>2017-06-25T18:06:43Z</time>
      </trkpt>
      <trkpt lat="70.132484966889024" lon="22.952289003878832">
        <ele>28.02</ele>
        <time>2017-06-25T18:06:51Z</time>
      </trkpt>
      <trkpt lat="70.134409032762051" lon="22.957280008122325">
        <ele>23.690000000000001</ele>
        <time>2017-06-25T18:07:03Z</time>
      </trkpt>
      <trkpt lat="70.135746030136943" lon="22.961302986368537">
        <ele>23.690000000000001</ele>
        <time>2017-06-25T18:07:13Z</time>
      </trkpt>
      <trkpt lat="70.13696501031518" lon="22.966725993901491">
        <ele>31.859999999999999</ele>
        <time>2017-06-25T18:07:25Z</time>
      </trkpt>
      <trkpt lat="70.137570016086102" lon="22.969404011964798">
        <ele>40.030000000000001</ele>
        <time>2017-06-25T18:07:33Z</time>
      </trkpt>
      <trkpt lat="70.137683004140854" lon="22.970223007723689">
        <ele>42.439999999999998</ele>
        <time>2017-06-25T18:07:35Z</time>
      </trkpt>
      <trkpt lat="70.137714017182589" lon="22.970671020448208">
        <ele>43.880000000000003</ele>
        <time>2017-06-25T18:07:36Z</time>
      </trkpt>
      <trkpt lat="70.137735977768898" lon="22.971134958788753">
        <ele>45.32</ele>
        <time>2017-06-25T18:07:37Z</time>
      </trkpt>
      <trkpt lat="70.13774000108242" lon="22.971609039232135">
        <ele>46.759999999999998</ele>
        <time>2017-06-25T18:07:38Z</time>
      </trkpt>
      <trkpt lat="70.137737989425659" lon="22.972070965915918">
        <ele>48.200000000000003</ele>
        <time>2017-06-25T18:07:39Z</time>
      </trkpt>
      <trkpt lat="70.13771703466773" lon="22.972492994740605">
        <ele>49.649999999999999</ele>
        <time>2017-06-25T18:07:40Z</time>
      </trkpt>
      <trkpt lat="70.137689961120486" lon="22.972863977774978">
        <ele>50.609999999999999</ele>
        <time>2017-06-25T18:07:41Z</time>
      </trkpt>
      <trkpt lat="70.1376529969275" lon="22.973215011879802">
        <ele>51.090000000000003</ele>
        <time>2017-06-25T18:07:42Z</time>
      </trkpt>
      <trkpt lat="70.137605974450707" lon="22.973537966609001">
        <ele>51.57</ele>
        <time>2017-06-25T18:07:43Z</time>
      </trkpt>
      <trkpt lat="70.137554006651044" lon="22.973818005993962">
        <ele>52.049999999999997</ele>
        <time>2017-06-25T18:07:44Z</time>
      </trkpt>
      <trkpt lat="70.137492986395955" lon="22.974066026508808">
        <ele>51.57</ele>
        <time>2017-06-25T18:07:45Z</time>
      </trkpt>
      <trkpt lat="70.137427020817995" lon="22.974302982911468">
        <ele>51.57</ele>
        <time>2017-06-25T18:07:46Z</time>
      </trkpt>
      <trkpt lat="70.137344961985946" lon="22.974534993991256">
        <ele>51.090000000000003</ele>
        <time>2017-06-25T18:07:47Z</time>
      </trkpt>
      <trkpt lat="70.137251000851393" lon="22.974762981757522">
        <ele>50.609999999999999</ele>
        <time>2017-06-25T18:07:48Z</time>
      </trkpt>
      <trkpt lat="70.137151004746556" lon="22.974982000887394">
        <ele>49.649999999999999</ele>
        <time>2017-06-25T18:07:49Z</time>
      </trkpt>
      <trkpt lat="70.137039022520185" lon="22.97519096173346">
        <ele>49.159999999999997</ele>
        <time>2017-06-25T18:07:50Z</time>
      </trkpt>
      <trkpt lat="70.136919999495149" lon="22.975386008620262">
        <ele>48.200000000000003</ele>
        <time>2017-06-25T18:07:51Z</time>
      </trkpt>
      <trkpt lat="70.136797958984971" lon="22.975572003051639">
        <ele>47.240000000000002</ele>
        <time>2017-06-25T18:07:52Z</time>
      </trkpt>
      <trkpt lat="70.135661037638783" lon="22.977550970390439">
        <ele>33.780000000000001</ele>
        <time>2017-06-25T18:08:00Z</time>
      </trkpt>
      <trkpt lat="70.134899960830808" lon="22.980384975671768">
        <ele>28.5</ele>
        <time>2017-06-25T18:08:07Z</time>
      </trkpt>
      <trkpt lat="70.134529983624816" lon="22.983751986175776">
        <ele>26.09</ele>
        <time>2017-06-25T18:08:14Z</time>
      </trkpt>
      <trkpt lat="70.134283974766731" lon="22.988061960786581">
        <ele>22.73</ele>
        <time>2017-06-25T18:08:24Z</time>
      </trkpt>
      <trkpt lat="70.134226977825165" lon="22.988433027639985">
        <ele>22.73</ele>
        <time>2017-06-25T18:08:25Z</time>
      </trkpt>
      <trkpt lat="70.13415195979178" lon="22.988783977925777">
        <ele>22.25</ele>
        <time>2017-06-25T18:08:26Z</time>
      </trkpt>
      <trkpt lat="70.134065039455891" lon="22.989096958190203">
        <ele>21.289999999999999</ele>
        <time>2017-06-25T18:08:27Z</time>
      </trkpt>
      <trkpt lat="70.133964037522674" lon="22.989366017282009">
        <ele>20.809999999999999</ele>
        <time>2017-06-25T18:08:28Z</time>
      </trkpt>
      <trkpt lat="70.133852977305651" lon="22.989589981734753">
        <ele>20.32</ele>
        <time>2017-06-25T18:08:29Z</time>
      </trkpt>
      <trkpt lat="70.133737977594137" lon="22.989787040278316">
        <ele>19.359999999999999</ele>
        <time>2017-06-25T18:08:30Z</time>
      </trkpt>
      <trkpt lat="70.133616020902991" lon="22.989944033324718">
        <ele>18.879999999999999</ele>
        <time>2017-06-25T18:08:31Z</time>
      </trkpt>
      <trkpt lat="70.133490962907672" lon="22.990076970309019">
        <ele>18.399999999999999</ele>
        <time>2017-06-25T18:08:32Z</time>
      </trkpt>
      <trkpt lat="70.133358025923371" lon="22.990183001384139">
        <ele>17.920000000000002</ele>
        <time>2017-06-25T18:08:33Z</time>
      </trkpt>
      <trkpt lat="70.133216036483645" lon="22.990261036902666">
        <ele>16.960000000000001</ele>
        <time>2017-06-25T18:08:34Z</time>
      </trkpt>
      <trkpt lat="70.133064994588494" lon="22.990324990823865">
        <ele>16</ele>
        <time>2017-06-25T18:08:35Z</time>
      </trkpt>
      <trkpt lat="70.132908001542091" lon="22.990371007472277">
        <ele>15.039999999999999</ele>
        <time>2017-06-25T18:08:36Z</time>
      </trkpt>
      <trkpt lat="70.132747991010547" lon="22.990391040220857">
        <ele>14.08</ele>
        <time>2017-06-25T18:08:37Z</time>
      </trkpt>
      <trkpt lat="70.13148601166904" lon="22.989852000027895">
        <ele>11.19</ele>
        <time>2017-06-25T18:08:44Z</time>
      </trkpt>
      <trkpt lat="70.129914991557598" lon="22.98859303817153">
        <ele>5.42</ele>
        <time>2017-06-25T18:08:51Z</time>
      </trkpt>
      <trkpt lat="70.127947004511952" lon="22.987066023051739">
        <ele>7.35</ele>
        <time>2017-06-25T18:09:00Z</time>
      </trkpt>
      <trkpt lat="70.126284034922719" lon="22.985763978213072">
        <ele>7.83</ele>
        <time>2017-06-25T18:09:07Z</time>
      </trkpt>
      <trkpt lat="70.123734008520842" lon="22.983813006430864">
        <ele>15.039999999999999</ele>
        <time>2017-06-25T18:09:19Z</time>
      </trkpt>
      <trkpt lat="70.121832992881536" lon="22.982461005449295">
        <ele>11.67</ele>
        <time>2017-06-25T18:09:29Z</time>
      </trkpt>
      <trkpt lat="70.121643980965018" lon="22.982456982135773">
        <ele>11.67</ele>
        <time>2017-06-25T18:09:30Z</time>
      </trkpt>
      <trkpt lat="70.12145203538239" lon="22.982498975470662">
        <ele>11.67</ele>
        <time>2017-06-25T18:09:31Z</time>
      </trkpt>
      <trkpt lat="70.120051000267267" lon="22.98358703032136">
        <ele>15.039999999999999</ele>
        <time>2017-06-25T18:09:38Z</time>
      </trkpt>
      <trkpt lat="70.118679972365499" lon="22.986039994284511">
        <ele>13.119999999999999</ele>
        <time>2017-06-25T18:09:46Z</time>
      </trkpt>
      <trkpt lat="70.116666974499822" lon="22.988449037075043">
        <ele>8.310000000000001</ele>
        <time>2017-06-25T18:09:56Z</time>
      </trkpt>
      <trkpt lat="70.116162970662117" lon="22.988865030929446">
        <ele>11.67</ele>
        <time>2017-06-25T18:09:59Z</time>
      </trkpt>
      <trkpt lat="70.116005977615714" lon="22.988920016214252">
        <ele>11.67</ele>
        <time>2017-06-25T18:10:00Z</time>
      </trkpt>
      <trkpt lat="70.115845967084169" lon="22.988915992900729">
        <ele>12.630000000000001</ele>
        <time>2017-06-25T18:10:01Z</time>
      </trkpt>
      <trkpt lat="70.115684028714895" lon="22.988881962373853">
        <ele>12.630000000000001</ele>
        <time>2017-06-25T18:10:02Z</time>
      </trkpt>
      <trkpt lat="70.115516977384686" lon="22.988806022331119">
        <ele>13.119999999999999</ele>
        <time>2017-06-25T18:10:03Z</time>
      </trkpt>
      <trkpt lat="70.115347998216748" lon="22.988699991255999">
        <ele>13.119999999999999</ele>
        <time>2017-06-25T18:10:04Z</time>
      </trkpt>
      <trkpt lat="70.115176001563668" lon="22.988559007644653">
        <ele>12.630000000000001</ele>
        <time>2017-06-25T18:10:05Z</time>
      </trkpt>
      <trkpt lat="70.113523006439209" lon="22.986973989754915">
        <ele>4.46</ele>
        <time>2017-06-25T18:10:14Z</time>
      </trkpt>
      <trkpt lat="70.113342041149735" lon="22.986892014741898">
        <ele>3.98</ele>
        <time>2017-06-25T18:10:15Z</time>
      </trkpt>
      <trkpt lat="70.113167027011514" lon="22.986866030842066">
        <ele>3.02</ele>
        <time>2017-06-25T18:10:16Z</time>
      </trkpt>
      <trkpt lat="70.112998969852924" lon="22.986899977549911">
        <ele>2.54</ele>
        <time>2017-06-25T18:10:17Z</time>
      </trkpt>
      <trkpt lat="70.112841976806521" lon="22.986997961997986">
        <ele>2.06</ele>
        <time>2017-06-25T18:10:18Z</time>
      </trkpt>
      <trkpt lat="70.112694958224893" lon="22.987168030813336">
        <ele>1.58</ele>
        <time>2017-06-25T18:10:19Z</time>
      </trkpt>
      <trkpt lat="70.112551040947437" lon="22.987402975559235">
        <ele>1.1</ele>
        <time>2017-06-25T18:10:20Z</time>
      </trkpt>
      <trkpt lat="70.112405028194189" lon="22.987725008279085">
        <ele>0.14</ele>
        <time>2017-06-25T18:10:21Z</time>
      </trkpt>
      <trkpt lat="70.112246023491025" lon="22.988106971606612">
        <ele>-0.82</ele>
        <time>2017-06-25T18:10:22Z</time>
      </trkpt>
      <trkpt lat="70.111072976142168" lon="22.991033010184765">
        <ele>-0.82</ele>
        <time>2017-06-25T18:10:29Z</time>
      </trkpt>
      <trkpt lat="70.110250040888786" lon="22.992488024756312">
        <ele>4.46</ele>
        <time>2017-06-25T18:10:35Z</time>
      </trkpt>
      <trkpt lat="70.109397014603019" lon="22.992782983928919">
        <ele>8.789999999999999</ele>
        <time>2017-06-25T18:10:41Z</time>
      </trkpt>
      <trkpt lat="70.108360005542636" lon="22.991776987910271">
        <ele>12.630000000000001</ele>
        <time>2017-06-25T18:10:48Z</time>
      </trkpt>
      <trkpt lat="70.106576001271605" lon="22.989073991775513">
        <ele>16</ele>
        <time>2017-06-25T18:10:59Z</time>
      </trkpt>
      <trkpt lat="70.105434972792864" lon="22.987969005480409">
        <ele>18.879999999999999</ele>
        <time>2017-06-25T18:11:06Z</time>
      </trkpt>
      <trkpt lat="70.103989010676742" lon="22.987852999940515">
        <ele>21.289999999999999</ele>
        <time>2017-06-25T18:11:13Z</time>
      </trkpt>
      <trkpt lat="70.102641033008695" lon="22.988477032631636">
        <ele>21.289999999999999</ele>
        <time>2017-06-25T18:11:19Z</time>
      </trkpt>
      <trkpt lat="70.100964987650514" lon="22.98951999284327">
        <ele>18.879999999999999</ele>
        <time>2017-06-25T18:11:26Z</time>
      </trkpt>
      <trkpt lat="70.099546015262604" lon="22.988929990679026">
        <ele>20.32</ele>
        <time>2017-06-25T18:11:32Z</time>
      </trkpt>
      <trkpt lat="70.097739966586232" lon="22.986598983407021">
        <ele>25.129999999999999</ele>
        <time>2017-06-25T18:11:40Z</time>
      </trkpt>
      <trkpt lat="70.096289981156588" lon="22.985732965171337">
        <ele>34.740000000000002</ele>
        <time>2017-06-25T18:11:46Z</time>
      </trkpt>
      <trkpt lat="70.09433900937438" lon="22.986276028677821">
        <ele>49.159999999999997</ele>
        <time>2017-06-25T18:11:54Z</time>
      </trkpt>
      <trkpt lat="70.091597037389874" lon="22.987174987792969">
        <ele>57.340000000000003</ele>
        <time>2017-06-25T18:12:06Z</time>
      </trkpt>
      <trkpt lat="70.090229026973248" lon="22.986373007297516">
        <ele>53.490000000000002</ele>
        <time>2017-06-25T18:12:12Z</time>
      </trkpt>
      <trkpt lat="70.088249975815415" lon="22.985376985743642">
        <ele>42.920000000000002</ele>
        <time>2017-06-25T18:12:20Z</time>
      </trkpt>
      <trkpt lat="70.085424017161131" lon="22.984867030754685">
        <ele>21.289999999999999</ele>
        <time>2017-06-25T18:12:31Z</time>
      </trkpt>
      <trkpt lat="70.083788959309459" lon="22.983110016211867">
        <ele>13.6</ele>
        <time>2017-06-25T18:12:38Z</time>
      </trkpt>
      <trkpt lat="70.082850018516183" lon="22.982740961015224">
        <ele>11.67</ele>
        <time>2017-06-25T18:12:42Z</time>
      </trkpt>
      <trkpt lat="70.082614989951253" lon="22.982795024290681">
        <ele>11.19</ele>
        <time>2017-06-25T18:12:43Z</time>
      </trkpt>
      <trkpt lat="70.080466037616134" lon="22.984106037765741">
        <ele>8.310000000000001</ele>
        <time>2017-06-25T18:12:52Z</time>
      </trkpt>
      <trkpt lat="70.078781023621559" lon="22.984143001958728">
        <ele>11.67</ele>
        <time>2017-06-25T18:12:59Z</time>
      </trkpt>
      <trkpt lat="70.076036034151912" lon="22.982908012345433">
        <ele>13.119999999999999</ele>
        <time>2017-06-25T18:13:10Z</time>
      </trkpt>
      <trkpt lat="70.074230991303921" lon="22.983393995091319">
        <ele>12.15</ele>
        <time>2017-06-25T18:13:17Z</time>
      </trkpt>
      <trkpt lat="70.071507040411234" lon="22.985863974317908">
        <ele>12.630000000000001</ele>
        <time>2017-06-25T18:13:28Z</time>
      </trkpt>
      <trkpt lat="70.069484990090132" lon="22.986588003113866">
        <ele>21.289999999999999</ele>
        <time>2017-06-25T18:13:36Z</time>
      </trkpt>
      <trkpt lat="70.067791007459164" lon="22.988012004643679">
        <ele>27.530000000000001</ele>
        <time>2017-06-25T18:13:43Z</time>
      </trkpt>
      <trkpt lat="70.066336998715997" lon="22.990746013820171">
        <ele>28.5</ele>
        <time>2017-06-25T18:13:50Z</time>
      </trkpt>
      <trkpt lat="70.064678974449635" lon="22.99272196367383">
        <ele>28.98</ele>
        <time>2017-06-25T18:13:57Z</time>
      </trkpt>
      <trkpt lat="70.062592970207334" lon="22.995508024469018">
        <ele>27.530000000000001</ele>
        <time>2017-06-25T18:14:06Z</time>
      </trkpt>
      <trkpt lat="70.060878032818437" lon="22.996317967772484">
        <ele>21.77</ele>
        <time>2017-06-25T18:14:13Z</time>
      </trkpt>
      <trkpt lat="70.058311996981502" lon="22.995770964771509">
        <ele>22.25</ele>
        <time>2017-06-25T18:14:23Z</time>
      </trkpt>
      <trkpt lat="70.057166023179889" lon="22.995195966213942">
        <ele>24.170000000000002</ele>
        <time>2017-06-25T18:14:28Z</time>
      </trkpt>
      <trkpt lat="70.056961001828313" lon="22.994952974840999">
        <ele>24.649999999999999</ele>
        <time>2017-06-25T18:14:29Z</time>
      </trkpt>
      <trkpt lat="70.056764027103782" lon="22.994649969041348">
        <ele>24.649999999999999</ele>
        <time>2017-06-25T18:14:30Z</time>
      </trkpt>
      <trkpt lat="70.056577026844025" lon="22.99429097212851">
        <ele>24.649999999999999</ele>
        <time>2017-06-25T18:14:31Z</time>
      </trkpt>
      <trkpt lat="70.056403018534184" lon="22.99388101324439">
        <ele>24.649999999999999</ele>
        <time>2017-06-25T18:14:32Z</time>
      </trkpt>
      <trkpt lat="70.056244013831019" lon="22.993420008569956">
        <ele>24.170000000000002</ele>
        <time>2017-06-25T18:14:33Z</time>
      </trkpt>
      <trkpt lat="70.056101018562913" lon="22.992914998903871">
        <ele>23.210000000000001</ele>
        <time>2017-06-25T18:14:34Z</time>
      </trkpt>
      <trkpt lat="70.055977972224355" lon="22.992349974811077">
        <ele>22.73</ele>
        <time>2017-06-25T18:14:35Z</time>
      </trkpt>
      <trkpt lat="70.055876970291138" lon="22.991763995960355">
        <ele>21.77</ele>
        <time>2017-06-25T18:14:36Z</time>
      </trkpt>
      <trkpt lat="70.055792983621359" lon="22.991138035431504">
        <ele>20.809999999999999</ele>
        <time>2017-06-25T18:14:37Z</time>
      </trkpt>
      <trkpt lat="70.055730035528541" lon="22.990480978041887">
        <ele>19.84</ele>
        <time>2017-06-25T18:14:38Z</time>
      </trkpt>
      <trkpt lat="70.055677983909845" lon="22.989806989207864">
        <ele>18.399999999999999</ele>
        <time>2017-06-25T18:14:39Z</time>
      </trkpt>
      <trkpt lat="70.055639008060098" lon="22.989122020080686">
        <ele>16.960000000000001</ele>
        <time>2017-06-25T18:14:40Z</time>
      </trkpt>
      <trkpt lat="70.055491989478469" lon="22.98711396753788">
        <ele>11.19</ele>
        <time>2017-06-25T18:14:43Z</time>
      </trkpt>
      <trkpt lat="70.055405991151929" lon="22.986482977867126">
        <ele>9.75</ele>
        <time>2017-06-25T18:14:44Z</time>
      </trkpt>
      <trkpt lat="70.055294008925557" lon="22.985903033986688">
        <ele>8.310000000000001</ele>
        <time>2017-06-25T18:14:45Z</time>
      </trkpt>
      <trkpt lat="70.055158976465464" lon="22.98537296243012">
        <ele>7.83</ele>
        <time>2017-06-25T18:14:46Z</time>
      </trkpt>
      <trkpt lat="70.055008018389344" lon="22.984917992725968">
        <ele>7.35</ele>
        <time>2017-06-25T18:14:47Z</time>
      </trkpt>
      <trkpt lat="70.054838033393025" lon="22.984509039670229">
        <ele>7.83</ele>
        <time>2017-06-25T18:14:48Z</time>
      </trkpt>
      <trkpt lat="70.054652960970998" lon="22.984162028878927">
        <ele>7.83</ele>
        <time>2017-06-25T18:14:49Z</time>
      </trkpt>
      <trkpt lat="70.05446202121675" lon="22.983879977837205">
        <ele>8.310000000000001</ele>
        <time>2017-06-25T18:14:50Z</time>
      </trkpt>
      <trkpt lat="70.054264962673187" lon="22.983677973970771">
        <ele>8.789999999999999</ele>
        <time>2017-06-25T18:14:51Z</time>
      </trkpt>
      <trkpt lat="70.054065976291895" lon="22.983559034764767">
        <ele>9.27</ele>
        <time>2017-06-25T18:14:52Z</time>
      </trkpt>
      <trkpt lat="70.053863972425461" lon="22.983511006459594">
        <ele>9.75</ele>
        <time>2017-06-25T18:14:53Z</time>
      </trkpt>
      <trkpt lat="70.053660040721297" lon="22.983519975095987">
        <ele>10.710000000000001</ele>
        <time>2017-06-25T18:14:54Z</time>
      </trkpt>
      <trkpt lat="70.053450996056199" lon="22.983577977865934">
        <ele>11.67</ele>
        <time>2017-06-25T18:14:55Z</time>
      </trkpt>
      <trkpt lat="70.053242035210133" lon="22.983699012547731">
        <ele>12.630000000000001</ele>
        <time>2017-06-25T18:14:56Z</time>
      </trkpt>
      <trkpt lat="70.053032990545034" lon="22.983878972008824">
        <ele>13.6</ele>
        <time>2017-06-25T18:14:57Z</time>
      </trkpt>
      <trkpt lat="70.052824029698968" lon="22.984077958390117">
        <ele>14.56</ele>
        <time>2017-06-25T18:14:58Z</time>
      </trkpt>
      <trkpt lat="70.051959017291665" lon="22.984628984704614">
        <ele>20.32</ele>
        <time>2017-06-25T18:15:02Z</time>
      </trkpt>
      <trkpt lat="70.051743015646935" lon="22.984610963612795">
        <ele>21.77</ele>
        <time>2017-06-25T18:15:03Z</time>
      </trkpt>
      <trkpt lat="70.051529025658965" lon="22.9845330119133">
        <ele>23.210000000000001</ele>
        <time>2017-06-25T18:15:04Z</time>
      </trkpt>
      <trkpt lat="70.051319980993867" lon="22.984402002766728">
        <ele>24.649999999999999</ele>
        <time>2017-06-25T18:15:05Z</time>
      </trkpt>
      <trkpt lat="70.051115965470672" lon="22.984220031648874">
        <ele>26.09</ele>
        <time>2017-06-25T18:15:06Z</time>
      </trkpt>
      <trkpt lat="70.05091798491776" lon="22.983973016962409">
        <ele>27.050000000000001</ele>
        <time>2017-06-25T18:15:07Z</time>
      </trkpt>
      <trkpt lat="70.05072402767837" lon="22.98367403447628">
        <ele>28.5</ele>
        <time>2017-06-25T18:15:08Z</time>
      </trkpt>
      <trkpt lat="70.050531998276711" lon="22.983338003978133">
        <ele>29.460000000000001</ele>
        <time>2017-06-25T18:15:09Z</time>
      </trkpt>
      <trkpt lat="70.048891995102167" lon="22.979357019066811">
        <ele>34.740000000000002</ele>
        <time>2017-06-25T18:15:18Z</time>
      </trkpt>
      <trkpt lat="70.048155980184674" lon="22.975563034415245">
        <ele>33.780000000000001</ele>
        <time>2017-06-25T18:15:24Z</time>
      </trkpt>
      <trkpt lat="70.047530019655824" lon="22.96960299834609">
        <ele>34.740000000000002</ele>
        <time>2017-06-25T18:15:33Z</time>
      </trkpt>
      <trkpt lat="70.047338996082544" lon="22.96422902494669">
        <ele>28.02</ele>
        <time>2017-06-25T18:15:42Z</time>
      </trkpt>
      <trkpt lat="70.046905986964703" lon="22.96107298694551">
        <ele>21.289999999999999</ele>
        <time>2017-06-25T18:15:50Z</time>
      </trkpt>
      <trkpt lat="70.045956987887621" lon="22.955215964466333">
        <ele>8.789999999999999</ele>
        <time>2017-06-25T18:16:07Z</time>
      </trkpt>
      <trkpt lat="70.04524796269834" lon="22.952320016920567">
        <ele>3.5</ele>
        <time>2017-06-25T18:16:17Z</time>
      </trkpt>
      <trkpt lat="70.044140964746475" lon="22.950187996029854">
        <ele>2.54</ele>
        <time>2017-06-25T18:16:27Z</time>
      </trkpt>
      <trkpt lat="70.04320596344769" lon="22.949753981083632">
        <ele>2.06</ele>
        <time>2017-06-25T18:16:35Z</time>
      </trkpt>
      <trkpt lat="70.041306037455797" lon="22.950290003791451">
        <ele>2.06</ele>
        <time>2017-06-25T18:16:52Z</time>
      </trkpt>
      <trkpt lat="70.040394002571702" lon="22.95157503336668">
        <ele>-2.27</ele>
        <time>2017-06-25T18:17:01Z</time>
      </trkpt>
      <trkpt lat="70.039924029260874" lon="22.953158039599657">
        <ele>-3.23</ele>
        <time>2017-06-25T18:17:07Z</time>
      </trkpt>
      <trkpt lat="70.039877006784081" lon="22.953476971015334">
        <ele>-3.71</ele>
        <time>2017-06-25T18:17:08Z</time>
      </trkpt>
      <trkpt lat="70.039837025105953" lon="22.953828005120158">
        <ele>-3.71</ele>
        <time>2017-06-25T18:17:09Z</time>
      </trkpt>
      <trkpt lat="70.03980802372098" lon="22.954179039224982">
        <ele>-3.23</ele>
        <time>2017-06-25T18:17:10Z</time>
      </trkpt>
      <trkpt lat="70.039790002629161" lon="22.954540969803929">
        <ele>-3.71</ele>
        <time>2017-06-25T18:17:11Z</time>
      </trkpt>
      <trkpt lat="70.039782961830497" lon="22.954901978373528">
        <ele>-3.71</ele>
        <time>2017-06-25T18:17:12Z</time>
      </trkpt>
      <trkpt lat="70.039785979315639" lon="22.955263992771506">
        <ele>-3.71</ele>
        <time>2017-06-25T18:17:13Z</time>
      </trkpt>
      <trkpt lat="70.039799977093935" lon="22.955626007169485">
        <ele>-3.23</ele>
        <time>2017-06-25T18:17:14Z</time>
      </trkpt>
      <trkpt lat="70.039820009842515" lon="22.955983998253942">
        <ele>-2.75</ele>
        <time>2017-06-25T18:17:15Z</time>
      </trkpt>
      <trkpt lat="70.039999969303608" lon="22.96126602217555">
        <ele>1.1</ele>
        <time>2017-06-25T18:17:30Z</time>
      </trkpt>
      <trkpt lat="70.039867032319307" lon="22.962579969316721">
        <ele>2.06</ele>
        <time>2017-06-25T18:17:33Z</time>
      </trkpt>
      <trkpt lat="70.031617982313037" lon="22.975498996675014">
        <ele>-4.19</ele>
        <time>2017-06-25T18:18:25Z</time>
      </trkpt>
      <trkpt lat="70.030766967684031" lon="22.979869991540909">
        <ele>0.62</ele>
        <time>2017-06-25T18:18:34Z</time>
      </trkpt>
      <trkpt lat="70.030229017138481" lon="22.983602033928037">
        <ele>-2.75</ele>
        <time>2017-06-25T18:18:40Z</time>
      </trkpt>
      <trkpt lat="70.030188029631972" lon="22.984305024147034">
        <ele>-4.19</ele>
        <time>2017-06-25T18:18:41Z</time>
      </trkpt>
      <trkpt lat="70.03016103990376" lon="22.984989993274212">
        <ele>-4.19</ele>
        <time>2017-06-25T18:18:42Z</time>
      </trkpt>
      <trkpt lat="70.030155004933476" lon="22.985666999593377">
        <ele>-4.67</ele>
        <time>2017-06-25T18:18:43Z</time>
      </trkpt>
      <trkpt lat="70.030165985226631" lon="22.986323973163962">
        <ele>-4.19</ele>
        <time>2017-06-25T18:18:44Z</time>
      </trkpt>
      <trkpt lat="70.030199009925127" lon="22.986976001411676">
        <ele>-4.19</ele>
        <time>2017-06-25T18:18:45Z</time>
      </trkpt>
      <trkpt lat="70.030246032401919" lon="22.987605985254049">
        <ele>-4.19</ele>
        <time>2017-06-25T18:18:46Z</time>
      </trkpt>
      <trkpt lat="70.030302023515105" lon="22.988243009895086">
        <ele>-4.19</ele>
        <time>2017-06-25T18:18:47Z</time>
      </trkpt>
      <trkpt lat="70.030428003519773" lon="22.990755988284945">
        <ele>-2.75</ele>
        <time>2017-06-25T18:18:51Z</time>
      </trkpt>
      <trkpt lat="70.030416017398238" lon="22.991396030411124">
        <ele>-2.27</ele>
        <time>2017-06-25T18:18:52Z</time>
      </trkpt>
      <trkpt lat="70.030379975214601" lon="22.992030959576368">
        <ele>-2.27</ele>
        <time>2017-06-25T18:18:53Z</time>
      </trkpt>
      <trkpt lat="70.030321972444654" lon="22.992659015581012">
        <ele>-1.3</ele>
        <time>2017-06-25T18:18:54Z</time>
      </trkpt>
      <trkpt lat="70.030245026573539" lon="22.993284976109862">
        <ele>-0.82</ele>
        <time>2017-06-25T18:18:55Z</time>
      </trkpt>
      <trkpt lat="70.030148969963193" lon="22.993912026286125">
        <ele>0.14</ele>
        <time>2017-06-25T18:18:56Z</time>
      </trkpt>
      <trkpt lat="70.030033970251679" lon="22.994522983208299">
        <ele>0.62</ele>
        <time>2017-06-25T18:18:57Z</time>
      </trkpt>
      <trkpt lat="70.028667971491814" lon="23.000445971265435">
        <ele>9.75</ele>
        <time>2017-06-25T18:19:07Z</time>
      </trkpt>
      <trkpt lat="70.027488972991705" lon="23.002695003524423">
        <ele>18.399999999999999</ele>
        <time>2017-06-25T18:19:13Z</time>
      </trkpt>
      <trkpt lat="70.02573698759079" lon="23.004755023866892">
        <ele>28.02</ele>
        <time>2017-06-25T18:19:21Z</time>
      </trkpt>
      <trkpt lat="70.023816023021936" lon="23.008074006065726">
        <ele>28.02</ele>
        <time>2017-06-25T18:19:30Z</time>
      </trkpt>
      <trkpt lat="70.021809982135892" lon="23.010490005835891">
        <ele>21.289999999999999</ele>
        <time>2017-06-25T18:19:38Z</time>
      </trkpt>
      <trkpt lat="70.019753985106945" lon="23.014425979927182">
        <ele>15.52</ele>
        <time>2017-06-25T18:19:47Z</time>
      </trkpt>
      <trkpt lat="70.017583994194865" lon="23.018391961231828">
        <ele>22.25</ele>
        <time>2017-06-25T18:19:57Z</time>
      </trkpt>
      <trkpt lat="70.015173023566604" lon="23.021436017006636">
        <ele>43.880000000000003</ele>
        <time>2017-06-25T18:20:08Z</time>
      </trkpt>
      <trkpt lat="70.013076961040497" lon="23.024961026385427">
        <ele>52.530000000000001</ele>
        <time>2017-06-25T18:20:18Z</time>
      </trkpt>
      <trkpt lat="70.01144902780652" lon="23.029301008209586">
        <ele>52.049999999999997</ele>
        <time>2017-06-25T18:20:27Z</time>
      </trkpt>
      <trkpt lat="70.010192999616265" lon="23.034196039661765">
        <ele>50.609999999999999</ele>
        <time>2017-06-25T18:20:36Z</time>
      </trkpt>
      <trkpt lat="70.005309032276273" lon="23.095345040783286">
        <ele>52.530000000000001</ele>
        <time>2017-06-25T18:22:03Z</time>
      </trkpt>
      <trkpt lat="70.003834990784526" lon="23.097962038591504">
        <ele>43.880000000000003</ele>
        <time>2017-06-25T18:22:11Z</time>
      </trkpt>
      <trkpt lat="70.001990972086787" lon="23.099472038447857">
        <ele>46.759999999999998</ele>
        <time>2017-06-25T18:22:19Z</time>
      </trkpt>
      <trkpt lat="69.999973028898239" lon="23.099415963515639">
        <ele>42.920000000000002</ele>
        <time>2017-06-25T18:22:27Z</time>
      </trkpt>
      <trkpt lat="69.997901022434235" lon="23.097779983654618">
        <ele>35.710000000000001</ele>
        <time>2017-06-25T18:22:35Z</time>
      </trkpt>
      <trkpt lat="69.994682958349586" lon="23.096014000475407">
        <ele>22.25</ele>
        <time>2017-06-25T18:22:47Z</time>
      </trkpt>
      <trkpt lat="69.992902977392077" lon="23.096294961869717">
        <ele>18.399999999999999</ele>
        <time>2017-06-25T18:22:54Z</time>
      </trkpt>
      <trkpt lat="69.990584040060639" lon="23.096077032387257">
        <ele>17.440000000000001</ele>
        <time>2017-06-25T18:23:03Z</time>
      </trkpt>
      <trkpt lat="69.988003000617027" lon="23.094513975083828">
        <ele>13.119999999999999</ele>
        <time>2017-06-25T18:23:13Z</time>
      </trkpt>
      <trkpt lat="69.985974999144673" lon="23.094094041734934">
        <ele>11.19</ele>
        <time>2017-06-25T18:23:21Z</time>
      </trkpt>
      <trkpt lat="69.984983000904322" lon="23.093806961551309">
        <ele>12.630000000000001</ele>
        <time>2017-06-25T18:23:25Z</time>
      </trkpt>
      <trkpt lat="69.984731962904334" lon="23.093887008726597">
        <ele>13.6</ele>
        <time>2017-06-25T18:23:26Z</time>
      </trkpt>
      <trkpt lat="69.984488971531391" lon="23.094038972631097">
        <ele>14.56</ele>
        <time>2017-06-25T18:23:27Z</time>
      </trkpt>
      <trkpt lat="69.984252015128732" lon="23.094243993982673">
        <ele>15.52</ele>
        <time>2017-06-25T18:23:28Z</time>
      </trkpt>
      <trkpt lat="69.984026039019227" lon="23.09449695982039">
        <ele>16.48</ele>
        <time>2017-06-25T18:23:29Z</time>
      </trkpt>
      <trkpt lat="69.983799979090691" lon="23.094783034175634">
        <ele>17.920000000000002</ele>
        <time>2017-06-25T18:23:30Z</time>
      </trkpt>
      <trkpt lat="69.982074983417988" lon="23.096381966024637">
        <ele>28.02</ele>
        <time>2017-06-25T18:23:38Z</time>
      </trkpt>
      <trkpt lat="69.972205040976405" lon="23.103571962565184">
        <ele>54.93</ele>
        <time>2017-06-25T18:24:33Z</time>
      </trkpt>
      <trkpt lat="69.971092008054256" lon="23.107440965250134">
        <ele>66.469999999999999</ele>
        <time>2017-06-25T18:24:41Z</time>
      </trkpt>
      <trkpt lat="69.970076959580183" lon="23.108731023967266">
        <ele>69.829999999999998</ele>
        <time>2017-06-25T18:24:46Z</time>
      </trkpt>
      <trkpt lat="69.96852396056056" lon="23.109199991449714">
        <ele>70.790000000000006</ele>
        <time>2017-06-25T18:24:53Z</time>
      </trkpt>
      <trkpt lat="69.967451998963952" lon="23.110027033835649">
        <ele>67.430000000000007</ele>
        <time>2017-06-25T18:24:59Z</time>
      </trkpt>
      <trkpt lat="69.96579104103148" lon="23.110756007954478">
        <ele>60.219999999999999</ele>
        <time>2017-06-25T18:25:08Z</time>
      </trkpt>
      <trkpt lat="69.964510034769773" lon="23.109657978639007">
        <ele>51.57</ele>
        <time>2017-06-25T18:25:15Z</time>
      </trkpt>
      <trkpt lat="69.963271021842957" lon="23.106811987236142">
        <ele>38.590000000000003</ele>
        <time>2017-06-25T18:25:23Z</time>
      </trkpt>
      <trkpt lat="69.961722968146205" lon="23.103950992226601">
        <ele>27.530000000000001</ele>
        <time>2017-06-25T18:25:32Z</time>
      </trkpt>
      <trkpt lat="69.960307013243437" lon="23.100842982530594">
        <ele>20.32</ele>
        <time>2017-06-25T18:25:41Z</time>
      </trkpt>
      <trkpt lat="69.958889968693256" lon="23.096863003447652">
        <ele>17.440000000000001</ele>
        <time>2017-06-25T18:25:51Z</time>
      </trkpt>
      <trkpt lat="69.957320038229227" lon="23.09471296146512">
        <ele>13.6</ele>
        <time>2017-06-25T18:26:00Z</time>
      </trkpt>
      <trkpt lat="69.956240030005574" lon="23.092366028577089">
        <ele>9.75</ele>
        <time>2017-06-25T18:26:06Z</time>
      </trkpt>
      <trkpt lat="69.954589968547225" lon="23.087552972137928">
        <ele>5.91</ele>
        <time>2017-06-25T18:26:15Z</time>
      </trkpt>
      <trkpt lat="69.952986007556319" lon="23.083102013915777">
        <ele>2.06</ele>
        <time>2017-06-25T18:26:24Z</time>
      </trkpt>
      <trkpt lat="69.951510960236192" lon="23.076265985146165">
        <ele>0.14</ele>
        <time>2017-06-25T18:26:35Z</time>
      </trkpt>
      <trkpt lat="69.951027994975448" lon="23.072389019653201">
        <ele>1.1</ele>
        <time>2017-06-25T18:26:41Z</time>
      </trkpt>
      <trkpt lat="69.950912995263934" lon="23.071798011660576">
        <ele>1.1</ele>
        <time>2017-06-25T18:26:42Z</time>
      </trkpt>
      <trkpt lat="69.950782991945744" lon="23.071239022538066">
        <ele>1.1</ele>
        <time>2017-06-25T18:26:43Z</time>
      </trkpt>
      <trkpt lat="69.950639996677637" lon="23.070706017315388">
        <ele>1.1</ele>
        <time>2017-06-25T18:26:44Z</time>
      </trkpt>
      <trkpt lat="69.950478980317712" lon="23.070201007649302">
        <ele>1.1</ele>
        <time>2017-06-25T18:26:45Z</time>
      </trkpt>
      <trkpt lat="69.950310001149774" lon="23.069730028510094">
        <ele>1.1</ele>
        <time>2017-06-25T18:26:46Z</time>
      </trkpt>
      <trkpt lat="69.950134987011552" lon="23.069288972765207">
        <ele>1.58</ele>
        <time>2017-06-25T18:26:47Z</time>
      </trkpt>
      <trkpt lat="69.949043998494744" lon="23.065868988633156">
        <ele>3.98</ele>
        <time>2017-06-25T18:26:54Z</time>
      </trkpt>
      <trkpt lat="69.948600009083748" lon="23.061998980119824">
        <ele>3.98</ele>
        <time>2017-06-25T18:27:00Z</time>
      </trkpt>
      <trkpt lat="69.948573019355536" lon="23.057393962517381">
        <ele>2.54</ele>
        <time>2017-06-25T18:27:07Z</time>
      </trkpt>
      <trkpt lat="69.948318041861057" lon="23.053633002564311">
        <ele>0.14</ele>
        <time>2017-06-25T18:27:13Z</time>
      </trkpt>
      <trkpt lat="69.947555037215352" lon="23.050621971487999">
        <ele>3.5</ele>
        <time>2017-06-25T18:27:19Z</time>
      </trkpt>
      <trkpt lat="69.94652003981173" lon="23.048834027722478">
        <ele>6.39</ele>
        <time>2017-06-25T18:27:25Z</time>
      </trkpt>
      <trkpt lat="69.944398999214172" lon="23.046105969697237">
        <ele>3.98</ele>
        <time>2017-06-25T18:27:36Z</time>
      </trkpt>
      <trkpt lat="69.943816037848592" lon="23.045467017218471">
        <ele>3.02</ele>
        <time>2017-06-25T18:27:39Z</time>
      </trkpt>
      <trkpt lat="69.943602969869971" lon="23.045361991971731">
        <ele>3.02</ele>
        <time>2017-06-25T18:27:40Z</time>
      </trkpt>
      <trkpt lat="69.943390991538763" lon="23.045310024172068">
        <ele>2.54</ele>
        <time>2017-06-25T18:27:41Z</time>
      </trkpt>
      <trkpt lat="69.943181024864316" lon="23.045312035828829">
        <ele>2.54</ele>
        <time>2017-06-25T18:27:42Z</time>
      </trkpt>
      <trkpt lat="69.942978015169501" lon="23.045373978093266">
        <ele>2.06</ele>
        <time>2017-06-25T18:27:43Z</time>
      </trkpt>
      <trkpt lat="69.942778022959828" lon="23.045508004724979">
        <ele>2.06</ele>
        <time>2017-06-25T18:27:44Z</time>
      </trkpt>
      <trkpt lat="69.942580964416265" lon="23.045710008591413">
        <ele>2.54</ele>
        <time>2017-06-25T18:27:45Z</time>
      </trkpt>
      <trkpt lat="69.942388013005257" lon="23.045960040763021">
        <ele>2.54</ele>
        <time>2017-06-25T18:27:46Z</time>
      </trkpt>
      <trkpt lat="69.942195983603597" lon="23.046250976622105">
        <ele>2.54</ele>
        <time>2017-06-25T18:27:47Z</time>
      </trkpt>
      <trkpt lat="69.942004960030317" lon="23.046579966321588">
        <ele>3.02</ele>
        <time>2017-06-25T18:27:48Z</time>
      </trkpt>
      <trkpt lat="69.940826967358589" lon="23.049598960205913">
        <ele>3.5</ele>
        <time>2017-06-25T18:27:55Z</time>
      </trkpt>
      <trkpt lat="69.938712967559695" lon="23.057169998064637">
        <ele>-3.23</ele>
        <time>2017-06-25T18:28:09Z</time>
      </trkpt>
      <trkpt lat="69.937169020995498" lon="23.061070013791323">
        <ele>-0.82</ele>
        <time>2017-06-25T18:28:18Z</time>
      </trkpt>
      <trkpt lat="69.930226961150765" lon="23.095325008034706">
        <ele>56.859999999999999</ele>
        <time>2017-06-25T18:29:21Z</time>
      </trkpt>
      <trkpt lat="69.929110994562507" lon="23.100862009450793">
        <ele>52.049999999999997</ele>
        <time>2017-06-25T18:29:32Z</time>
      </trkpt>
      <trkpt lat="69.927812973037362" lon="23.10740802437067">
        <ele>56.859999999999999</ele>
        <time>2017-06-25T18:29:46Z</time>
      </trkpt>
      <trkpt lat="69.927308969199657" lon="23.110774029046297">
        <ele>57.340000000000003</ele>
        <time>2017-06-25T18:29:53Z</time>
      </trkpt>
      <trkpt lat="69.927263958379626" lon="23.111269986256957">
        <ele>57.340000000000003</ele>
        <time>2017-06-25T18:29:54Z</time>
      </trkpt>
      <trkpt lat="69.927237974479795" lon="23.111789999529719">
        <ele>57.340000000000003</ele>
        <time>2017-06-25T18:29:55Z</time>
      </trkpt>
      <trkpt lat="69.927268987521529" lon="23.116741022095084">
        <ele>58.299999999999997</ele>
        <time>2017-06-25T18:30:04Z</time>
      </trkpt>
      <trkpt lat="69.927848009392619" lon="23.120516985654831">
        <ele>63.579999999999998</ele>
        <time>2017-06-25T18:30:12Z</time>
      </trkpt>
      <trkpt lat="69.928883006796241" lon="23.123546959832311">
        <ele>67.430000000000007</ele>
        <time>2017-06-25T18:30:20Z</time>
      </trkpt>
      <trkpt lat="69.929199004545808" lon="23.124113995581865">
        <ele>68.390000000000001</ele>
        <time>2017-06-25T18:30:22Z</time>
      </trkpt>
      <trkpt lat="69.934478010982275" lon="23.128396980464458">
        <ele>59.740000000000002</ele>
        <time>2017-06-25T18:30:50Z</time>
      </trkpt>
      <trkpt lat="69.936934998258948" lon="23.129186974838376">
        <ele>48.68</ele>
        <time>2017-06-25T18:31:03Z</time>
      </trkpt>
      <trkpt lat="69.938711961731315" lon="23.130408972501755">
        <ele>40.030000000000001</ele>
        <time>2017-06-25T18:31:12Z</time>
      </trkpt>
      <trkpt lat="69.940115008503199" lon="23.132492965087295">
        <ele>30.420000000000002</ele>
        <time>2017-06-25T18:31:19Z</time>
      </trkpt>
      <trkpt lat="69.942354988306761" lon="23.135366030037403">
        <ele>17.920000000000002</ele>
        <time>2017-06-25T18:31:29Z</time>
      </trkpt>
      <trkpt lat="69.944392964243889" lon="23.139221034944057">
        <ele>4.94</ele>
        <time>2017-06-25T18:31:39Z</time>
      </trkpt>
      <trkpt lat="69.945956021547318" lon="23.14331098459661">
        <ele>4.94</ele>
        <time>2017-06-25T18:31:48Z</time>
      </trkpt>
      <trkpt lat="69.947253037244081" lon="23.146657040342689">
        <ele>11.67</ele>
        <time>2017-06-25T18:31:57Z</time>
      </trkpt>
      <trkpt lat="69.948508981615305" lon="23.150609023869038">
        <ele>15.039999999999999</ele>
        <time>2017-06-25T18:32:05Z</time>
      </trkpt>
      <trkpt lat="69.949061013758183" lon="23.154356991872191">
        <ele>16</ele>
        <time>2017-06-25T18:32:11Z</time>
      </trkpt>
      <trkpt lat="69.949495028704405" lon="23.157563991844654">
        <ele>17.920000000000002</ele>
        <time>2017-06-25T18:32:16Z</time>
      </trkpt>
      <trkpt lat="69.949625032022595" lon="23.158116023987532">
        <ele>18.879999999999999</ele>
        <time>2017-06-25T18:32:17Z</time>
      </trkpt>
      <trkpt lat="69.949773978441954" lon="23.158622039481997">
        <ele>19.84</ele>
        <time>2017-06-25T18:32:18Z</time>
      </trkpt>
      <trkpt lat="69.949932983145118" lon="23.159105004742742">
        <ele>20.809999999999999</ele>
        <time>2017-06-25T18:32:19Z</time>
      </trkpt>
      <trkpt lat="69.950101040303707" lon="23.159548994153738">
        <ele>21.77</ele>
        <time>2017-06-25T18:32:20Z</time>
      </trkpt>
      <trkpt lat="69.951314991340041" lon="23.16339997574687">
        <ele>29.940000000000001</ele>
        <time>2017-06-25T18:32:28Z</time>
      </trkpt>
      <trkpt lat="69.951473996043205" lon="23.164579980075359">
        <ele>31.859999999999999</ele>
        <time>2017-06-25T18:32:30Z</time>
      </trkpt>
      <trkpt lat="69.951522024348378" lon="23.165194038301706">
        <ele>32.340000000000003</ele>
        <time>2017-06-25T18:32:31Z</time>
      </trkpt>
      <trkpt lat="69.951557982712984" lon="23.165822010487318">
        <ele>33.780000000000001</ele>
        <time>2017-06-25T18:32:32Z</time>
      </trkpt>
      <trkpt lat="69.951569968834519" lon="23.166468003764749">
        <ele>34.740000000000002</ele>
        <time>2017-06-25T18:32:33Z</time>
      </trkpt>
      <trkpt lat="69.951562006026506" lon="23.16711600869894">
        <ele>35.710000000000001</ele>
        <time>2017-06-25T18:32:34Z</time>
      </trkpt>
      <trkpt lat="69.951534010469913" lon="23.167758984491229">
        <ele>36.670000000000002</ele>
        <time>2017-06-25T18:32:35Z</time>
      </trkpt>
      <trkpt lat="69.951486987993121" lon="23.168392991647124">
        <ele>37.630000000000003</ele>
        <time>2017-06-25T18:32:36Z</time>
      </trkpt>
      <trkpt lat="69.951421022415161" lon="23.168999003246427">
        <ele>38.590000000000003</ele>
        <time>2017-06-25T18:32:37Z</time>
      </trkpt>
      <trkpt lat="69.951337035745382" lon="23.169589005410671">
        <ele>39.07</ele>
        <time>2017-06-25T18:32:38Z</time>
      </trkpt>
      <trkpt lat="69.951235027983785" lon="23.170164003968239">
        <ele>39.549999999999997</ele>
        <time>2017-06-25T18:32:39Z</time>
      </trkpt>
      <trkpt lat="69.951120028272271" lon="23.170711006969213">
        <ele>40.509999999999998</ele>
        <time>2017-06-25T18:32:40Z</time>
      </trkpt>
      <trkpt lat="69.950984995812178" lon="23.171216016635299">
        <ele>40.990000000000002</ele>
        <time>2017-06-25T18:32:41Z</time>
      </trkpt>
      <trkpt lat="69.950831020250916" lon="23.171683978289366">
        <ele>41.469999999999999</ele>
        <time>2017-06-25T18:32:42Z</time>
      </trkpt>
      <trkpt lat="69.950661035254598" lon="23.172114975750446">
        <ele>41.469999999999999</ele>
        <time>2017-06-25T18:32:43Z</time>
      </trkpt>
      <trkpt lat="69.950477974489331" lon="23.172504985705018">
        <ele>41.950000000000003</ele>
        <time>2017-06-25T18:32:44Z</time>
      </trkpt>
      <trkpt lat="69.950286028906703" lon="23.172870017588139">
        <ele>42.439999999999998</ele>
        <time>2017-06-25T18:32:45Z</time>
      </trkpt>
      <trkpt lat="69.95008603669703" lon="23.173198001459241">
        <ele>42.439999999999998</ele>
        <time>2017-06-25T18:32:46Z</time>
      </trkpt>
      <trkpt lat="69.949883027002215" lon="23.173483991995454">
        <ele>42.920000000000002</ele>
        <time>2017-06-25T18:32:47Z</time>
      </trkpt>
      <trkpt lat="69.948252998292446" lon="23.175793038681149">
        <ele>43.399999999999999</ele>
        <time>2017-06-25T18:32:56Z</time>
      </trkpt>
      <trkpt lat="69.947369964793324" lon="23.178511038422585">
        <ele>40.990000000000002</ele>
        <time>2017-06-25T18:33:03Z</time>
      </trkpt>
      <trkpt lat="69.945853007957339" lon="23.184617003425956">
        <ele>37.149999999999999</ele>
        <time>2017-06-25T18:33:17Z</time>
      </trkpt>
      <trkpt lat="69.945792993530631" lon="23.185069961473346">
        <ele>37.149999999999999</ele>
        <time>2017-06-25T18:33:18Z</time>
      </trkpt>
      <trkpt lat="69.9457479827106" lon="23.185523003339767">
        <ele>37.149999999999999</ele>
        <time>2017-06-25T18:33:19Z</time>
      </trkpt>
      <trkpt lat="69.945728033781052" lon="23.185974033549428">
        <ele>37.149999999999999</ele>
        <time>2017-06-25T18:33:20Z</time>
      </trkpt>
      <trkpt lat="69.94572602212429" lon="23.186429003253579">
        <ele>37.149999999999999</ele>
        <time>2017-06-25T18:33:21Z</time>
      </trkpt>
      <trkpt lat="69.9457479827106" lon="23.186878021806479">
        <ele>37.149999999999999</ele>
        <time>2017-06-25T18:33:22Z</time>
      </trkpt>
      <trkpt lat="69.945789976045489" lon="23.187317987903953">
        <ele>36.670000000000002</ele>
        <time>2017-06-25T18:33:23Z</time>
      </trkpt>
      <trkpt lat="69.945847978815436" lon="23.187736999243498">
        <ele>36.189999999999998</ele>
        <time>2017-06-25T18:33:24Z</time>
      </trkpt>
      <trkpt lat="69.945928025990725" lon="23.188141006976366">
        <ele>35.710000000000001</ele>
        <time>2017-06-25T18:33:25Z</time>
      </trkpt>
      <trkpt lat="69.946022992953658" lon="23.188490029424429">
        <ele>35.710000000000001</ele>
        <time>2017-06-25T18:33:26Z</time>
      </trkpt>
      <trkpt lat="69.946138998493552" lon="23.188779037445784">
        <ele>36.189999999999998</ele>
        <time>2017-06-25T18:33:27Z</time>
      </trkpt>
      <trkpt lat="69.946267995983362" lon="23.189013982191682">
        <ele>36.670000000000002</ele>
        <time>2017-06-25T18:33:28Z</time>
      </trkpt>
      <trkpt lat="69.946403028443456" lon="23.189217997714877">
        <ele>36.670000000000002</ele>
        <time>2017-06-25T18:33:29Z</time>
      </trkpt>
      <trkpt lat="69.94830496609211" lon="23.192203966900706">
        <ele>37.630000000000003</ele>
        <time>2017-06-25T18:33:42Z</time>
      </trkpt>
      <trkpt lat="69.949339963495731" lon="23.195001007989049">
        <ele>35.229999999999997</ele>
        <time>2017-06-25T18:33:51Z</time>
      </trkpt>
      <trkpt lat="69.950198018923402" lon="23.197435028851032">
        <ele>40.990000000000002</ele>
        <time>2017-06-25T18:34:02Z</time>
      </trkpt>
      <trkpt lat="69.951519006863236" lon="23.201411990448833">
        <ele>48.68</ele>
        <time>2017-06-25T18:34:18Z</time>
      </trkpt>
      <trkpt lat="69.951569968834519" lon="23.201742991805077">
        <ele>49.159999999999997</ele>
        <time>2017-06-25T18:34:19Z</time>
      </trkpt>
      <trkpt lat="69.951608022674918" lon="23.202096959576011">
        <ele>49.159999999999997</ele>
        <time>2017-06-25T18:34:20Z</time>
      </trkpt>
      <trkpt lat="69.951633000746369" lon="23.202471965923905">
        <ele>49.649999999999999</ele>
        <time>2017-06-25T18:34:21Z</time>
      </trkpt>
      <trkpt lat="69.951644986867905" lon="23.202855018898845">
        <ele>49.649999999999999</ele>
        <time>2017-06-25T18:34:22Z</time>
      </trkpt>
      <trkpt lat="69.951646998524666" lon="23.203242011368275">
        <ele>50.130000000000003</ele>
        <time>2017-06-25T18:34:23Z</time>
      </trkpt>
      <trkpt lat="69.951637024059892" lon="23.203639984130859">
        <ele>51.090000000000003</ele>
        <time>2017-06-25T18:34:24Z</time>
      </trkpt>
      <trkpt lat="69.951619002968073" lon="23.204037034884095">
        <ele>51.57</ele>
        <time>2017-06-25T18:34:25Z</time>
      </trkpt>
      <trkpt lat="69.951596958562732" lon="23.204428972676396">
        <ele>52.049999999999997</ele>
        <time>2017-06-25T18:34:26Z</time>
      </trkpt>
      <trkpt lat="69.951559994369745" lon="23.205614006146789">
        <ele>53.490000000000002</ele>
        <time>2017-06-25T18:34:29Z</time>
      </trkpt>
      <trkpt lat="69.951574997976422" lon="23.205996975302696">
        <ele>53.490000000000002</ele>
        <time>2017-06-25T18:34:30Z</time>
      </trkpt>
      <trkpt lat="69.951606011018157" lon="23.20636703632772">
        <ele>53.490000000000002</ele>
        <time>2017-06-25T18:34:31Z</time>
      </trkpt>
      <trkpt lat="69.951658984646201" lon="23.20671396329999">
        <ele>53.009999999999998</ele>
        <time>2017-06-25T18:34:32Z</time>
      </trkpt>
      <trkpt lat="69.951728973537683" lon="23.207019986584783">
        <ele>52.530000000000001</ele>
        <time>2017-06-25T18:34:33Z</time>
      </trkpt>
      <trkpt lat="69.951813966035843" lon="23.207325004041195">
        <ele>51.57</ele>
        <time>2017-06-25T18:34:34Z</time>
      </trkpt>
      <trkpt lat="69.95191304013133" lon="23.207612000405788">
        <ele>50.609999999999999</ele>
        <time>2017-06-25T18:34:35Z</time>
      </trkpt>
      <trkpt lat="69.95350300334394" lon="23.211582005023956">
        <ele>39.549999999999997</ele>
        <time>2017-06-25T18:34:49Z</time>
      </trkpt>
      <trkpt lat="69.954210016876459" lon="23.213261989876628">
        <ele>37.149999999999999</ele>
        <time>2017-06-25T18:34:57Z</time>
      </trkpt>
      <trkpt lat="69.955197991803288" lon="23.215704979375005">
        <ele>32.82</ele>
        <time>2017-06-25T18:35:08Z</time>
      </trkpt>
      <trkpt lat="69.956324016675353" lon="23.218561029061675">
        <ele>28.02</ele>
        <time>2017-06-25T18:35:21Z</time>
      </trkpt>
      <trkpt lat="69.957914985716343" lon="23.222357025370002">
        <ele>28.5</ele>
        <time>2017-06-25T18:35:40Z</time>
      </trkpt>
      <trkpt lat="69.958944031968713" lon="23.225351041182876">
        <ele>23.210000000000001</ele>
        <time>2017-06-25T18:35:53Z</time>
      </trkpt>
      <trkpt lat="69.959422973915935" lon="23.228014977648854">
        <ele>16.960000000000001</ele>
        <time>2017-06-25T18:36:03Z</time>
      </trkpt>
    </trkseg>
  </trk>

</gpx>